<?xml version="1.0" encoding="UTF-8" standalone="no" ?>
<gpx xmlns="http://www.topografix.com/GPX/1/1" xmlns:xsi="http://www.w3.org/2001/XMLSchema-instance" xsi:schemaLocation="http://www.topografix.com/GPX/1/1 http://www.topografix.com/GPX/1/1/gpx.xsd" version="1.1" creator="VisuGPX - https://www.visugpx.com">
  <metadata>
    <name>TransTerritoire 2012 23eme édition 75km</name>
    <desc><![CDATA[Parcours 75km, manque la fin 4 km, très bon parcours.]]></desc>
  </metadata>
  <trk>
    <name><![CDATA[TransTerritoire 2012 23eme édition 75km_1]]></name>
    <trkseg>
      <trkpt lat="47.63743" lon="6.85136">
        <ele>369.7224</ele>
        <time>2012-09-30T05:55:51Z</time>
      </trkpt>
      <trkpt lat="47.63789" lon="6.85116">
        <ele>377.952</ele>
        <time>2012-09-30T05:55:58Z</time>
      </trkpt>
      <trkpt lat="47.63799" lon="6.85111">
        <ele>376.428</ele>
        <time>2012-09-30T05:56:01Z</time>
      </trkpt>
      <trkpt lat="47.6381" lon="6.85106">
        <ele>377.3424</ele>
        <time>2012-09-30T05:56:02Z</time>
      </trkpt>
      <trkpt lat="47.6382" lon="6.851">
        <ele>379.1712</ele>
        <time>2012-09-30T05:56:05Z</time>
      </trkpt>
      <trkpt lat="47.63831" lon="6.85095">
        <ele>378.8664</ele>
        <time>2012-09-30T05:56:06Z</time>
      </trkpt>
      <trkpt lat="47.63842" lon="6.85089">
        <ele>378.8664</ele>
        <time>2012-09-30T05:56:09Z</time>
      </trkpt>
      <trkpt lat="47.63853" lon="6.85084">
        <ele>378.5616</ele>
        <time>2012-09-30T05:56:10Z</time>
      </trkpt>
      <trkpt lat="47.63863" lon="6.85078">
        <ele>378.2568</ele>
        <time>2012-09-30T05:56:13Z</time>
      </trkpt>
      <trkpt lat="47.63874" lon="6.85072">
        <ele>377.952</ele>
        <time>2012-09-30T05:56:14Z</time>
      </trkpt>
      <trkpt lat="47.63884" lon="6.85067">
        <ele>377.6472</ele>
        <time>2012-09-30T05:56:17Z</time>
      </trkpt>
      <trkpt lat="47.63894" lon="6.85061">
        <ele>377.3424</ele>
        <time>2012-09-30T05:56:18Z</time>
      </trkpt>
      <trkpt lat="47.63904" lon="6.85056">
        <ele>377.0376</ele>
        <time>2012-09-30T05:56:21Z</time>
      </trkpt>
      <trkpt lat="47.63914" lon="6.85051">
        <ele>377.3424</ele>
        <time>2012-09-30T05:56:22Z</time>
      </trkpt>
      <trkpt lat="47.63926" lon="6.85044">
        <ele>380.0856</ele>
        <time>2012-09-30T05:56:25Z</time>
      </trkpt>
      <trkpt lat="47.63937" lon="6.85039">
        <ele>381</ele>
        <time>2012-09-30T05:56:26Z</time>
      </trkpt>
      <trkpt lat="47.63948" lon="6.85033">
        <ele>382.2192</ele>
        <time>2012-09-30T05:56:29Z</time>
      </trkpt>
      <trkpt lat="47.63959" lon="6.85028">
        <ele>383.4384</ele>
        <time>2012-09-30T05:56:30Z</time>
      </trkpt>
      <trkpt lat="47.63969" lon="6.85022">
        <ele>384.6576</ele>
        <time>2012-09-30T05:56:33Z</time>
      </trkpt>
      <trkpt lat="47.63973" lon="6.8502">
        <ele>380.0856</ele>
        <time>2012-09-30T05:56:34Z</time>
      </trkpt>
      <trkpt lat="47.63982" lon="6.85016">
        <ele>379.1712</ele>
        <time>2012-09-30T05:56:37Z</time>
      </trkpt>
      <trkpt lat="47.63991" lon="6.85012">
        <ele>378.5616</ele>
        <time>2012-09-30T05:56:38Z</time>
      </trkpt>
      <trkpt lat="47.64" lon="6.85007">
        <ele>377.952</ele>
        <time>2012-09-30T05:56:41Z</time>
      </trkpt>
      <trkpt lat="47.64011" lon="6.85002">
        <ele>377.3424</ele>
        <time>2012-09-30T05:56:42Z</time>
      </trkpt>
      <trkpt lat="47.64022" lon="6.84996">
        <ele>376.7328</ele>
        <time>2012-09-30T05:56:45Z</time>
      </trkpt>
      <trkpt lat="47.64034" lon="6.8499">
        <ele>375.5136</ele>
        <time>2012-09-30T05:56:46Z</time>
      </trkpt>
      <trkpt lat="47.64047" lon="6.84984">
        <ele>374.2944</ele>
        <time>2012-09-30T05:56:49Z</time>
      </trkpt>
      <trkpt lat="47.64061" lon="6.84977">
        <ele>373.6848</ele>
        <time>2012-09-30T05:56:50Z</time>
      </trkpt>
      <trkpt lat="47.64076" lon="6.84971">
        <ele>372.4656</ele>
        <time>2012-09-30T05:56:52Z</time>
      </trkpt>
      <trkpt lat="47.64091" lon="6.84964">
        <ele>371.5512</ele>
        <time>2012-09-30T05:56:55Z</time>
      </trkpt>
      <trkpt lat="47.64105" lon="6.84958">
        <ele>370.6368</ele>
        <time>2012-09-30T05:56:56Z</time>
      </trkpt>
      <trkpt lat="47.6412" lon="6.84951">
        <ele>369.4176</ele>
        <time>2012-09-30T05:56:59Z</time>
      </trkpt>
      <trkpt lat="47.64134" lon="6.84944">
        <ele>369.4176</ele>
        <time>2012-09-30T05:57:00Z</time>
      </trkpt>
      <trkpt lat="47.64147" lon="6.84937">
        <ele>369.4176</ele>
        <time>2012-09-30T05:57:03Z</time>
      </trkpt>
      <trkpt lat="47.64159" lon="6.84931">
        <ele>369.1128</ele>
        <time>2012-09-30T05:57:04Z</time>
      </trkpt>
      <trkpt lat="47.64171" lon="6.84926">
        <ele>369.1128</ele>
        <time>2012-09-30T05:57:07Z</time>
      </trkpt>
      <trkpt lat="47.64183" lon="6.8492">
        <ele>369.1128</ele>
        <time>2012-09-30T05:57:08Z</time>
      </trkpt>
      <trkpt lat="47.64195" lon="6.84914">
        <ele>369.1128</ele>
        <time>2012-09-30T05:57:11Z</time>
      </trkpt>
      <trkpt lat="47.64206" lon="6.84908">
        <ele>369.1128</ele>
        <time>2012-09-30T05:57:12Z</time>
      </trkpt>
      <trkpt lat="47.64217" lon="6.84901">
        <ele>368.808</ele>
        <time>2012-09-30T05:57:15Z</time>
      </trkpt>
      <trkpt lat="47.64227" lon="6.84894">
        <ele>368.808</ele>
        <time>2012-09-30T05:57:16Z</time>
      </trkpt>
      <trkpt lat="47.64238" lon="6.84887">
        <ele>368.808</ele>
        <time>2012-09-30T05:57:19Z</time>
      </trkpt>
      <trkpt lat="47.64249" lon="6.84881">
        <ele>368.808</ele>
        <time>2012-09-30T05:57:20Z</time>
      </trkpt>
      <trkpt lat="47.6426" lon="6.84875">
        <ele>368.808</ele>
        <time>2012-09-30T05:57:23Z</time>
      </trkpt>
      <trkpt lat="47.64267" lon="6.84865">
        <ele>368.5032</ele>
        <time>2012-09-30T05:57:24Z</time>
      </trkpt>
      <trkpt lat="47.64269" lon="6.84849">
        <ele>368.808</ele>
        <time>2012-09-30T05:57:27Z</time>
      </trkpt>
      <trkpt lat="47.64267" lon="6.84833">
        <ele>369.1128</ele>
        <time>2012-09-30T05:57:28Z</time>
      </trkpt>
      <trkpt lat="47.64263" lon="6.84817">
        <ele>369.7224</ele>
        <time>2012-09-30T05:57:31Z</time>
      </trkpt>
      <trkpt lat="47.64259" lon="6.84801">
        <ele>370.6368</ele>
        <time>2012-09-30T05:57:32Z</time>
      </trkpt>
      <trkpt lat="47.64255" lon="6.84786">
        <ele>371.5512</ele>
        <time>2012-09-30T05:57:35Z</time>
      </trkpt>
      <trkpt lat="47.64251" lon="6.84771">
        <ele>372.7704</ele>
        <time>2012-09-30T05:57:36Z</time>
      </trkpt>
      <trkpt lat="47.64246" lon="6.84756">
        <ele>373.38</ele>
        <time>2012-09-30T05:57:39Z</time>
      </trkpt>
      <trkpt lat="47.64243" lon="6.8474">
        <ele>373.6848</ele>
        <time>2012-09-30T05:57:40Z</time>
      </trkpt>
      <trkpt lat="47.6424" lon="6.84725">
        <ele>373.6848</ele>
        <time>2012-09-30T05:57:43Z</time>
      </trkpt>
      <trkpt lat="47.64237" lon="6.8471">
        <ele>373.9896</ele>
        <time>2012-09-30T05:57:44Z</time>
      </trkpt>
      <trkpt lat="47.64233" lon="6.84695">
        <ele>373.9896</ele>
        <time>2012-09-30T05:57:46Z</time>
      </trkpt>
      <trkpt lat="47.6423" lon="6.84681">
        <ele>373.9896</ele>
        <time>2012-09-30T05:57:49Z</time>
      </trkpt>
      <trkpt lat="47.64226" lon="6.84666">
        <ele>374.2944</ele>
        <time>2012-09-30T05:57:50Z</time>
      </trkpt>
      <trkpt lat="47.64223" lon="6.84652">
        <ele>374.5992</ele>
        <time>2012-09-30T05:57:53Z</time>
      </trkpt>
      <trkpt lat="47.6422" lon="6.84638">
        <ele>374.904</ele>
        <time>2012-09-30T05:57:54Z</time>
      </trkpt>
      <trkpt lat="47.64216" lon="6.84623">
        <ele>374.904</ele>
        <time>2012-09-30T05:57:57Z</time>
      </trkpt>
      <trkpt lat="47.64214" lon="6.84609">
        <ele>374.904</ele>
        <time>2012-09-30T05:57:58Z</time>
      </trkpt>
      <trkpt lat="47.64211" lon="6.84595">
        <ele>374.5992</ele>
        <time>2012-09-30T05:58:01Z</time>
      </trkpt>
      <trkpt lat="47.64208" lon="6.84581">
        <ele>374.5992</ele>
        <time>2012-09-30T05:58:02Z</time>
      </trkpt>
      <trkpt lat="47.64205" lon="6.84568">
        <ele>374.5992</ele>
        <time>2012-09-30T05:58:05Z</time>
      </trkpt>
      <trkpt lat="47.64208" lon="6.84559">
        <ele>374.904</ele>
        <time>2012-09-30T05:58:06Z</time>
      </trkpt>
      <trkpt lat="47.64215" lon="6.84555">
        <ele>375.2088</ele>
        <time>2012-09-30T05:58:09Z</time>
      </trkpt>
      <trkpt lat="47.64223" lon="6.84551">
        <ele>375.8184</ele>
        <time>2012-09-30T05:58:10Z</time>
      </trkpt>
      <trkpt lat="47.64231" lon="6.84547">
        <ele>377.3424</ele>
        <time>2012-09-30T05:58:13Z</time>
      </trkpt>
      <trkpt lat="47.6424" lon="6.84543">
        <ele>377.0376</ele>
        <time>2012-09-30T05:58:14Z</time>
      </trkpt>
      <trkpt lat="47.64245" lon="6.84538">
        <ele>377.3424</ele>
        <time>2012-09-30T05:58:17Z</time>
      </trkpt>
      <trkpt lat="47.64246" lon="6.84536">
        <ele>378.2568</ele>
        <time>2012-09-30T05:58:18Z</time>
      </trkpt>
      <trkpt lat="47.64248" lon="6.84538">
        <ele>379.7808</ele>
        <time>2012-09-30T05:58:21Z</time>
      </trkpt>
      <trkpt lat="47.6425" lon="6.8454">
        <ele>380.3904</ele>
        <time>2012-09-30T05:58:22Z</time>
      </trkpt>
      <trkpt lat="47.64251" lon="6.84537">
        <ele>380.6952</ele>
        <time>2012-09-30T05:58:25Z</time>
      </trkpt>
      <trkpt lat="47.64249" lon="6.84536">
        <ele>380.0856</ele>
        <time>2012-09-30T05:58:26Z</time>
      </trkpt>
      <trkpt lat="47.64247" lon="6.84535">
        <ele>380.3904</ele>
        <time>2012-09-30T05:58:29Z</time>
      </trkpt>
      <trkpt lat="47.64248" lon="6.8453">
        <ele>380.0856</ele>
        <time>2012-09-30T05:58:30Z</time>
      </trkpt>
      <trkpt lat="47.64248" lon="6.84523">
        <ele>379.476</ele>
        <time>2012-09-30T05:58:33Z</time>
      </trkpt>
      <trkpt lat="47.64247" lon="6.84514">
        <ele>378.8664</ele>
        <time>2012-09-30T05:58:34Z</time>
      </trkpt>
      <trkpt lat="47.64246" lon="6.84504">
        <ele>378.5616</ele>
        <time>2012-09-30T05:58:37Z</time>
      </trkpt>
      <trkpt lat="47.64246" lon="6.84496">
        <ele>377.952</ele>
        <time>2012-09-30T05:58:39Z</time>
      </trkpt>
      <trkpt lat="47.64246" lon="6.84489">
        <ele>377.6472</ele>
        <time>2012-09-30T05:58:39Z</time>
      </trkpt>
      <trkpt lat="47.6425" lon="6.84486">
        <ele>377.6472</ele>
        <time>2012-09-30T05:58:40Z</time>
      </trkpt>
      <trkpt lat="47.64255" lon="6.84487">
        <ele>377.3424</ele>
        <time>2012-09-30T05:58:43Z</time>
      </trkpt>
      <trkpt lat="47.6426" lon="6.84492">
        <ele>377.0376</ele>
        <time>2012-09-30T05:58:44Z</time>
      </trkpt>
      <trkpt lat="47.64263" lon="6.84495">
        <ele>376.7328</ele>
        <time>2012-09-30T05:58:47Z</time>
      </trkpt>
      <trkpt lat="47.64267" lon="6.84497">
        <ele>376.428</ele>
        <time>2012-09-30T05:58:48Z</time>
      </trkpt>
      <trkpt lat="47.64267" lon="6.845">
        <ele>370.6368</ele>
        <time>2012-09-30T06:01:35Z</time>
      </trkpt>
      <trkpt lat="47.64265" lon="6.84498">
        <ele>370.6368</ele>
        <time>2012-09-30T06:01:38Z</time>
      </trkpt>
      <trkpt lat="47.64262" lon="6.84496">
        <ele>370.6368</ele>
        <time>2012-09-30T06:01:39Z</time>
      </trkpt>
      <trkpt lat="47.64256" lon="6.84494">
        <ele>370.6368</ele>
        <time>2012-09-30T06:01:42Z</time>
      </trkpt>
      <trkpt lat="47.64251" lon="6.84492">
        <ele>370.332</ele>
        <time>2012-09-30T06:01:43Z</time>
      </trkpt>
      <trkpt lat="47.64245" lon="6.84489">
        <ele>370.332</ele>
        <time>2012-09-30T06:01:46Z</time>
      </trkpt>
      <trkpt lat="47.64241" lon="6.84483">
        <ele>370.332</ele>
        <time>2012-09-30T06:01:48Z</time>
      </trkpt>
      <trkpt lat="47.6424" lon="6.84475">
        <ele>370.332</ele>
        <time>2012-09-30T06:01:49Z</time>
      </trkpt>
      <trkpt lat="47.64238" lon="6.84468">
        <ele>370.332</ele>
        <time>2012-09-30T06:01:52Z</time>
      </trkpt>
      <trkpt lat="47.64237" lon="6.8446">
        <ele>370.332</ele>
        <time>2012-09-30T06:01:53Z</time>
      </trkpt>
      <trkpt lat="47.64236" lon="6.84454">
        <ele>370.332</ele>
        <time>2012-09-30T06:01:56Z</time>
      </trkpt>
      <trkpt lat="47.64236" lon="6.84449">
        <ele>370.6368</ele>
        <time>2012-09-30T06:01:57Z</time>
      </trkpt>
      <trkpt lat="47.64234" lon="6.84443">
        <ele>370.332</ele>
        <time>2012-09-30T06:02:00Z</time>
      </trkpt>
      <trkpt lat="47.64229" lon="6.8444">
        <ele>370.332</ele>
        <time>2012-09-30T06:02:01Z</time>
      </trkpt>
      <trkpt lat="47.64223" lon="6.8444">
        <ele>370.332</ele>
        <time>2012-09-30T06:02:04Z</time>
      </trkpt>
      <trkpt lat="47.64218" lon="6.8444">
        <ele>370.332</ele>
        <time>2012-09-30T06:02:05Z</time>
      </trkpt>
      <trkpt lat="47.64212" lon="6.84442">
        <ele>370.6368</ele>
        <time>2012-09-30T06:02:08Z</time>
      </trkpt>
      <trkpt lat="47.64206" lon="6.84444">
        <ele>370.9416</ele>
        <time>2012-09-30T06:02:09Z</time>
      </trkpt>
      <trkpt lat="47.642" lon="6.84448">
        <ele>371.2464</ele>
        <time>2012-09-30T06:02:12Z</time>
      </trkpt>
      <trkpt lat="47.64194" lon="6.8445">
        <ele>371.2464</ele>
        <time>2012-09-30T06:02:13Z</time>
      </trkpt>
      <trkpt lat="47.64188" lon="6.8445">
        <ele>371.2464</ele>
        <time>2012-09-30T06:02:16Z</time>
      </trkpt>
      <trkpt lat="47.64183" lon="6.84446">
        <ele>371.5512</ele>
        <time>2012-09-30T06:02:17Z</time>
      </trkpt>
      <trkpt lat="47.6418" lon="6.84439">
        <ele>372.7704</ele>
        <time>2012-09-30T06:02:20Z</time>
      </trkpt>
      <trkpt lat="47.64178" lon="6.84428">
        <ele>373.0752</ele>
        <time>2012-09-30T06:02:21Z</time>
      </trkpt>
      <trkpt lat="47.64176" lon="6.84417">
        <ele>373.0752</ele>
        <time>2012-09-30T06:02:24Z</time>
      </trkpt>
      <trkpt lat="47.64176" lon="6.84405">
        <ele>376.428</ele>
        <time>2012-09-30T06:02:25Z</time>
      </trkpt>
      <trkpt lat="47.64172" lon="6.84393">
        <ele>375.5136</ele>
        <time>2012-09-30T06:02:28Z</time>
      </trkpt>
      <trkpt lat="47.64169" lon="6.84381">
        <ele>375.2088</ele>
        <time>2012-09-30T06:02:29Z</time>
      </trkpt>
      <trkpt lat="47.64165" lon="6.84369">
        <ele>375.2088</ele>
        <time>2012-09-30T06:02:32Z</time>
      </trkpt>
      <trkpt lat="47.64162" lon="6.84356">
        <ele>374.904</ele>
        <time>2012-09-30T06:02:33Z</time>
      </trkpt>
      <trkpt lat="47.64158" lon="6.84343">
        <ele>374.904</ele>
        <time>2012-09-30T06:02:36Z</time>
      </trkpt>
      <trkpt lat="47.64155" lon="6.8433">
        <ele>375.2088</ele>
        <time>2012-09-30T06:02:37Z</time>
      </trkpt>
      <trkpt lat="47.64152" lon="6.84316">
        <ele>375.5136</ele>
        <time>2012-09-30T06:02:40Z</time>
      </trkpt>
      <trkpt lat="47.6415" lon="6.84303">
        <ele>375.5136</ele>
        <time>2012-09-30T06:02:42Z</time>
      </trkpt>
      <trkpt lat="47.64147" lon="6.8429">
        <ele>375.8184</ele>
        <time>2012-09-30T06:02:43Z</time>
      </trkpt>
      <trkpt lat="47.64144" lon="6.84277">
        <ele>376.1232</ele>
        <time>2012-09-30T06:02:46Z</time>
      </trkpt>
      <trkpt lat="47.64142" lon="6.84264">
        <ele>376.428</ele>
        <time>2012-09-30T06:02:47Z</time>
      </trkpt>
      <trkpt lat="47.64139" lon="6.8425">
        <ele>376.428</ele>
        <time>2012-09-30T06:02:50Z</time>
      </trkpt>
      <trkpt lat="47.64138" lon="6.84236">
        <ele>376.7328</ele>
        <time>2012-09-30T06:02:51Z</time>
      </trkpt>
      <trkpt lat="47.64137" lon="6.84223">
        <ele>377.3424</ele>
        <time>2012-09-30T06:02:54Z</time>
      </trkpt>
      <trkpt lat="47.64136" lon="6.8421">
        <ele>378.2568</ele>
        <time>2012-09-30T06:02:55Z</time>
      </trkpt>
      <trkpt lat="47.64135" lon="6.842">
        <ele>377.952</ele>
        <time>2012-09-30T06:02:58Z</time>
      </trkpt>
      <trkpt lat="47.64135" lon="6.84192">
        <ele>377.952</ele>
        <time>2012-09-30T06:02:59Z</time>
      </trkpt>
      <trkpt lat="47.64134" lon="6.84188">
        <ele>378.2568</ele>
        <time>2012-09-30T06:03:02Z</time>
      </trkpt>
      <trkpt lat="47.64133" lon="6.84186">
        <ele>377.952</ele>
        <time>2012-09-30T06:03:03Z</time>
      </trkpt>
      <trkpt lat="47.6413" lon="6.84184">
        <ele>376.428</ele>
        <time>2012-09-30T06:03:26Z</time>
      </trkpt>
      <trkpt lat="47.6413" lon="6.8418">
        <ele>376.428</ele>
        <time>2012-09-30T06:03:27Z</time>
      </trkpt>
      <trkpt lat="47.64128" lon="6.84172">
        <ele>376.428</ele>
        <time>2012-09-30T06:03:30Z</time>
      </trkpt>
      <trkpt lat="47.64126" lon="6.8416">
        <ele>376.428</ele>
        <time>2012-09-30T06:03:31Z</time>
      </trkpt>
      <trkpt lat="47.64123" lon="6.84147">
        <ele>376.7328</ele>
        <time>2012-09-30T06:03:34Z</time>
      </trkpt>
      <trkpt lat="47.64121" lon="6.84133">
        <ele>377.3424</ele>
        <time>2012-09-30T06:03:36Z</time>
      </trkpt>
      <trkpt lat="47.64117" lon="6.84119">
        <ele>377.0376</ele>
        <time>2012-09-30T06:03:37Z</time>
      </trkpt>
      <trkpt lat="47.64114" lon="6.84104">
        <ele>377.0376</ele>
        <time>2012-09-30T06:03:40Z</time>
      </trkpt>
      <trkpt lat="47.6411" lon="6.8409">
        <ele>377.0376</ele>
        <time>2012-09-30T06:03:41Z</time>
      </trkpt>
      <trkpt lat="47.64106" lon="6.84075">
        <ele>377.0376</ele>
        <time>2012-09-30T06:03:44Z</time>
      </trkpt>
      <trkpt lat="47.64103" lon="6.8406">
        <ele>377.3424</ele>
        <time>2012-09-30T06:03:45Z</time>
      </trkpt>
      <trkpt lat="47.641" lon="6.84046">
        <ele>377.3424</ele>
        <time>2012-09-30T06:03:48Z</time>
      </trkpt>
      <trkpt lat="47.64096" lon="6.84031">
        <ele>377.0376</ele>
        <time>2012-09-30T06:03:49Z</time>
      </trkpt>
      <trkpt lat="47.64093" lon="6.84017">
        <ele>377.3424</ele>
        <time>2012-09-30T06:03:52Z</time>
      </trkpt>
      <trkpt lat="47.64088" lon="6.84005">
        <ele>377.3424</ele>
        <time>2012-09-30T06:03:53Z</time>
      </trkpt>
      <trkpt lat="47.64079" lon="6.84002">
        <ele>377.0376</ele>
        <time>2012-09-30T06:03:56Z</time>
      </trkpt>
      <trkpt lat="47.64069" lon="6.84004">
        <ele>376.7328</ele>
        <time>2012-09-30T06:03:57Z</time>
      </trkpt>
      <trkpt lat="47.64058" lon="6.84007">
        <ele>376.428</ele>
        <time>2012-09-30T06:04:00Z</time>
      </trkpt>
      <trkpt lat="47.64047" lon="6.84009">
        <ele>376.428</ele>
        <time>2012-09-30T06:04:01Z</time>
      </trkpt>
      <trkpt lat="47.64037" lon="6.84012">
        <ele>376.428</ele>
        <time>2012-09-30T06:04:04Z</time>
      </trkpt>
      <trkpt lat="47.64028" lon="6.84015">
        <ele>376.7328</ele>
        <time>2012-09-30T06:04:05Z</time>
      </trkpt>
      <trkpt lat="47.64021" lon="6.84009">
        <ele>377.0376</ele>
        <time>2012-09-30T06:04:08Z</time>
      </trkpt>
      <trkpt lat="47.64017" lon="6.83998">
        <ele>377.6472</ele>
        <time>2012-09-30T06:04:09Z</time>
      </trkpt>
      <trkpt lat="47.64012" lon="6.83987">
        <ele>377.952</ele>
        <time>2012-09-30T06:04:12Z</time>
      </trkpt>
      <trkpt lat="47.64007" lon="6.83975">
        <ele>378.5616</ele>
        <time>2012-09-30T06:04:13Z</time>
      </trkpt>
      <trkpt lat="47.64002" lon="6.83964">
        <ele>378.8664</ele>
        <time>2012-09-30T06:04:16Z</time>
      </trkpt>
      <trkpt lat="47.63996" lon="6.83953">
        <ele>379.1712</ele>
        <time>2012-09-30T06:04:17Z</time>
      </trkpt>
      <trkpt lat="47.6399" lon="6.83943">
        <ele>379.476</ele>
        <time>2012-09-30T06:04:20Z</time>
      </trkpt>
      <trkpt lat="47.63984" lon="6.83933">
        <ele>379.7808</ele>
        <time>2012-09-30T06:04:21Z</time>
      </trkpt>
      <trkpt lat="47.63977" lon="6.83922">
        <ele>380.0856</ele>
        <time>2012-09-30T06:04:24Z</time>
      </trkpt>
      <trkpt lat="47.6397" lon="6.83913">
        <ele>380.3904</ele>
        <time>2012-09-30T06:04:25Z</time>
      </trkpt>
      <trkpt lat="47.63963" lon="6.83904">
        <ele>381</ele>
        <time>2012-09-30T06:04:28Z</time>
      </trkpt>
      <trkpt lat="47.63955" lon="6.83895">
        <ele>381.6096</ele>
        <time>2012-09-30T06:04:30Z</time>
      </trkpt>
      <trkpt lat="47.63947" lon="6.83887">
        <ele>381.3048</ele>
        <time>2012-09-30T06:04:31Z</time>
      </trkpt>
      <trkpt lat="47.63938" lon="6.83879">
        <ele>381.3048</ele>
        <time>2012-09-30T06:04:34Z</time>
      </trkpt>
      <trkpt lat="47.63929" lon="6.83872">
        <ele>381</ele>
        <time>2012-09-30T06:04:35Z</time>
      </trkpt>
      <trkpt lat="47.63918" lon="6.83867">
        <ele>380.6952</ele>
        <time>2012-09-30T06:04:38Z</time>
      </trkpt>
      <trkpt lat="47.63908" lon="6.83861">
        <ele>380.0856</ele>
        <time>2012-09-30T06:04:39Z</time>
      </trkpt>
      <trkpt lat="47.63898" lon="6.83856">
        <ele>379.7808</ele>
        <time>2012-09-30T06:04:42Z</time>
      </trkpt>
      <trkpt lat="47.63887" lon="6.83851">
        <ele>379.1712</ele>
        <time>2012-09-30T06:04:43Z</time>
      </trkpt>
      <trkpt lat="47.63876" lon="6.83848">
        <ele>378.5616</ele>
        <time>2012-09-30T06:04:46Z</time>
      </trkpt>
      <trkpt lat="47.63866" lon="6.83845">
        <ele>378.2568</ele>
        <time>2012-09-30T06:04:47Z</time>
      </trkpt>
      <trkpt lat="47.63855" lon="6.83843">
        <ele>377.952</ele>
        <time>2012-09-30T06:04:50Z</time>
      </trkpt>
      <trkpt lat="47.63845" lon="6.83841">
        <ele>377.952</ele>
        <time>2012-09-30T06:04:51Z</time>
      </trkpt>
      <trkpt lat="47.63835" lon="6.83839">
        <ele>377.6472</ele>
        <time>2012-09-30T06:04:54Z</time>
      </trkpt>
      <trkpt lat="47.63826" lon="6.83837">
        <ele>377.3424</ele>
        <time>2012-09-30T06:04:55Z</time>
      </trkpt>
      <trkpt lat="47.63816" lon="6.83834">
        <ele>377.0376</ele>
        <time>2012-09-30T06:04:58Z</time>
      </trkpt>
      <trkpt lat="47.63805" lon="6.83832">
        <ele>376.7328</ele>
        <time>2012-09-30T06:04:59Z</time>
      </trkpt>
      <trkpt lat="47.63794" lon="6.8383">
        <ele>376.7328</ele>
        <time>2012-09-30T06:05:02Z</time>
      </trkpt>
      <trkpt lat="47.63783" lon="6.83827">
        <ele>376.7328</ele>
        <time>2012-09-30T06:05:03Z</time>
      </trkpt>
      <trkpt lat="47.63771" lon="6.83825">
        <ele>376.428</ele>
        <time>2012-09-30T06:05:06Z</time>
      </trkpt>
      <trkpt lat="47.6376" lon="6.83822">
        <ele>376.428</ele>
        <time>2012-09-30T06:05:07Z</time>
      </trkpt>
      <trkpt lat="47.63748" lon="6.8382">
        <ele>376.1232</ele>
        <time>2012-09-30T06:05:10Z</time>
      </trkpt>
      <trkpt lat="47.63736" lon="6.83818">
        <ele>376.1232</ele>
        <time>2012-09-30T06:05:11Z</time>
      </trkpt>
      <trkpt lat="47.63725" lon="6.83815">
        <ele>375.8184</ele>
        <time>2012-09-30T06:05:14Z</time>
      </trkpt>
      <trkpt lat="47.63713" lon="6.83813">
        <ele>375.5136</ele>
        <time>2012-09-30T06:05:15Z</time>
      </trkpt>
      <trkpt lat="47.63701" lon="6.8381">
        <ele>375.2088</ele>
        <time>2012-09-30T06:05:18Z</time>
      </trkpt>
      <trkpt lat="47.6369" lon="6.83809">
        <ele>374.904</ele>
        <time>2012-09-30T06:05:19Z</time>
      </trkpt>
      <trkpt lat="47.63678" lon="6.83807">
        <ele>374.5992</ele>
        <time>2012-09-30T06:05:22Z</time>
      </trkpt>
      <trkpt lat="47.63667" lon="6.83804">
        <ele>374.5992</ele>
        <time>2012-09-30T06:05:24Z</time>
      </trkpt>
      <trkpt lat="47.63656" lon="6.83802">
        <ele>374.2944</ele>
        <time>2012-09-30T06:05:25Z</time>
      </trkpt>
      <trkpt lat="47.63649" lon="6.838">
        <ele>374.5992</ele>
        <time>2012-09-30T06:05:28Z</time>
      </trkpt>
      <trkpt lat="47.63646" lon="6.83799">
        <ele>374.5992</ele>
        <time>2012-09-30T06:05:29Z</time>
      </trkpt>
      <trkpt lat="47.63644" lon="6.83798">
        <ele>374.904</ele>
        <time>2012-09-30T06:05:32Z</time>
      </trkpt>
      <trkpt lat="47.63639" lon="6.83799">
        <ele>374.904</ele>
        <time>2012-09-30T06:05:33Z</time>
      </trkpt>
      <trkpt lat="47.63632" lon="6.83799">
        <ele>374.5992</ele>
        <time>2012-09-30T06:05:36Z</time>
      </trkpt>
      <trkpt lat="47.63623" lon="6.83798">
        <ele>374.2944</ele>
        <time>2012-09-30T06:05:37Z</time>
      </trkpt>
      <trkpt lat="47.63614" lon="6.83799">
        <ele>373.9896</ele>
        <time>2012-09-30T06:05:40Z</time>
      </trkpt>
      <trkpt lat="47.63603" lon="6.83799">
        <ele>373.6848</ele>
        <time>2012-09-30T06:05:41Z</time>
      </trkpt>
      <trkpt lat="47.63592" lon="6.838">
        <ele>373.38</ele>
        <time>2012-09-30T06:05:44Z</time>
      </trkpt>
      <trkpt lat="47.6358" lon="6.838">
        <ele>373.0752</ele>
        <time>2012-09-30T06:05:45Z</time>
      </trkpt>
      <trkpt lat="47.63568" lon="6.83801">
        <ele>373.0752</ele>
        <time>2012-09-30T06:05:48Z</time>
      </trkpt>
      <trkpt lat="47.63557" lon="6.83802">
        <ele>373.0752</ele>
        <time>2012-09-30T06:05:49Z</time>
      </trkpt>
      <trkpt lat="47.63544" lon="6.83803">
        <ele>373.0752</ele>
        <time>2012-09-30T06:05:52Z</time>
      </trkpt>
      <trkpt lat="47.63532" lon="6.83804">
        <ele>373.0752</ele>
        <time>2012-09-30T06:05:53Z</time>
      </trkpt>
      <trkpt lat="47.6352" lon="6.83807">
        <ele>373.38</ele>
        <time>2012-09-30T06:05:56Z</time>
      </trkpt>
      <trkpt lat="47.63508" lon="6.8381">
        <ele>374.5992</ele>
        <time>2012-09-30T06:05:57Z</time>
      </trkpt>
      <trkpt lat="47.63496" lon="6.83812">
        <ele>374.904</ele>
        <time>2012-09-30T06:06:00Z</time>
      </trkpt>
      <trkpt lat="47.63484" lon="6.83815">
        <ele>374.904</ele>
        <time>2012-09-30T06:06:01Z</time>
      </trkpt>
      <trkpt lat="47.63473" lon="6.83818">
        <ele>374.5992</ele>
        <time>2012-09-30T06:06:04Z</time>
      </trkpt>
      <trkpt lat="47.63461" lon="6.83821">
        <ele>374.5992</ele>
        <time>2012-09-30T06:06:05Z</time>
      </trkpt>
      <trkpt lat="47.63449" lon="6.83826">
        <ele>374.5992</ele>
        <time>2012-09-30T06:06:08Z</time>
      </trkpt>
      <trkpt lat="47.63437" lon="6.83831">
        <ele>374.904</ele>
        <time>2012-09-30T06:06:09Z</time>
      </trkpt>
      <trkpt lat="47.63425" lon="6.83837">
        <ele>375.2088</ele>
        <time>2012-09-30T06:06:12Z</time>
      </trkpt>
      <trkpt lat="47.63413" lon="6.83842">
        <ele>376.428</ele>
        <time>2012-09-30T06:06:13Z</time>
      </trkpt>
      <trkpt lat="47.63401" lon="6.83849">
        <ele>377.3424</ele>
        <time>2012-09-30T06:06:16Z</time>
      </trkpt>
      <trkpt lat="47.6339" lon="6.83856">
        <ele>377.3424</ele>
        <time>2012-09-30T06:06:17Z</time>
      </trkpt>
      <trkpt lat="47.63379" lon="6.83862">
        <ele>377.6472</ele>
        <time>2012-09-30T06:06:19Z</time>
      </trkpt>
      <trkpt lat="47.6337" lon="6.83869">
        <ele>377.6472</ele>
        <time>2012-09-30T06:06:22Z</time>
      </trkpt>
      <trkpt lat="47.63363" lon="6.83868">
        <ele>377.952</ele>
        <time>2012-09-30T06:06:23Z</time>
      </trkpt>
      <trkpt lat="47.6336" lon="6.83857">
        <ele>377.952</ele>
        <time>2012-09-30T06:06:26Z</time>
      </trkpt>
      <trkpt lat="47.6336" lon="6.83843">
        <ele>378.2568</ele>
        <time>2012-09-30T06:06:27Z</time>
      </trkpt>
      <trkpt lat="47.63359" lon="6.83828">
        <ele>378.2568</ele>
        <time>2012-09-30T06:06:30Z</time>
      </trkpt>
      <trkpt lat="47.63356" lon="6.83814">
        <ele>379.7808</ele>
        <time>2012-09-30T06:06:31Z</time>
      </trkpt>
      <trkpt lat="47.63354" lon="6.83798">
        <ele>381</ele>
        <time>2012-09-30T06:06:34Z</time>
      </trkpt>
      <trkpt lat="47.63352" lon="6.83781">
        <ele>382.8288</ele>
        <time>2012-09-30T06:06:35Z</time>
      </trkpt>
      <trkpt lat="47.63351" lon="6.83764">
        <ele>384.048</ele>
        <time>2012-09-30T06:06:38Z</time>
      </trkpt>
      <trkpt lat="47.6335" lon="6.83747">
        <ele>384.6576</ele>
        <time>2012-09-30T06:06:39Z</time>
      </trkpt>
      <trkpt lat="47.63348" lon="6.83729">
        <ele>385.2672</ele>
        <time>2012-09-30T06:06:42Z</time>
      </trkpt>
      <trkpt lat="47.63347" lon="6.83711">
        <ele>384.6576</ele>
        <time>2012-09-30T06:06:43Z</time>
      </trkpt>
      <trkpt lat="47.63347" lon="6.83693">
        <ele>383.4384</ele>
        <time>2012-09-30T06:06:46Z</time>
      </trkpt>
      <trkpt lat="47.63346" lon="6.83675">
        <ele>382.8288</ele>
        <time>2012-09-30T06:06:47Z</time>
      </trkpt>
      <trkpt lat="47.63345" lon="6.83657">
        <ele>383.4384</ele>
        <time>2012-09-30T06:06:50Z</time>
      </trkpt>
      <trkpt lat="47.63343" lon="6.83641">
        <ele>384.048</ele>
        <time>2012-09-30T06:06:51Z</time>
      </trkpt>
      <trkpt lat="47.63342" lon="6.83626">
        <ele>384.048</ele>
        <time>2012-09-30T06:06:54Z</time>
      </trkpt>
      <trkpt lat="47.63343" lon="6.8361">
        <ele>383.4384</ele>
        <time>2012-09-30T06:06:55Z</time>
      </trkpt>
      <trkpt lat="47.63341" lon="6.83594">
        <ele>382.8288</ele>
        <time>2012-09-30T06:06:58Z</time>
      </trkpt>
      <trkpt lat="47.63335" lon="6.83579">
        <ele>381.9144</ele>
        <time>2012-09-30T06:06:59Z</time>
      </trkpt>
      <trkpt lat="47.63328" lon="6.83565">
        <ele>381.6096</ele>
        <time>2012-09-30T06:07:02Z</time>
      </trkpt>
      <trkpt lat="47.63325" lon="6.83548">
        <ele>381</ele>
        <time>2012-09-30T06:07:03Z</time>
      </trkpt>
      <trkpt lat="47.63322" lon="6.83532">
        <ele>380.6952</ele>
        <time>2012-09-30T06:07:06Z</time>
      </trkpt>
      <trkpt lat="47.63316" lon="6.83517">
        <ele>380.3904</ele>
        <time>2012-09-30T06:07:07Z</time>
      </trkpt>
      <trkpt lat="47.63308" lon="6.83504">
        <ele>380.0856</ele>
        <time>2012-09-30T06:07:10Z</time>
      </trkpt>
      <trkpt lat="47.63301" lon="6.83491">
        <ele>379.7808</ele>
        <time>2012-09-30T06:07:11Z</time>
      </trkpt>
      <trkpt lat="47.63294" lon="6.83477">
        <ele>379.476</ele>
        <time>2012-09-30T06:07:13Z</time>
      </trkpt>
      <trkpt lat="47.63288" lon="6.83463">
        <ele>379.1712</ele>
        <time>2012-09-30T06:07:16Z</time>
      </trkpt>
      <trkpt lat="47.63281" lon="6.83449">
        <ele>378.8664</ele>
        <time>2012-09-30T06:07:17Z</time>
      </trkpt>
      <trkpt lat="47.63275" lon="6.83435">
        <ele>378.5616</ele>
        <time>2012-09-30T06:07:20Z</time>
      </trkpt>
      <trkpt lat="47.63269" lon="6.8342">
        <ele>378.2568</ele>
        <time>2012-09-30T06:07:21Z</time>
      </trkpt>
      <trkpt lat="47.63264" lon="6.83405">
        <ele>378.2568</ele>
        <time>2012-09-30T06:07:24Z</time>
      </trkpt>
      <trkpt lat="47.63263" lon="6.8339">
        <ele>377.952</ele>
        <time>2012-09-30T06:07:25Z</time>
      </trkpt>
      <trkpt lat="47.63266" lon="6.83378">
        <ele>378.2568</ele>
        <time>2012-09-30T06:07:28Z</time>
      </trkpt>
      <trkpt lat="47.63273" lon="6.83367">
        <ele>378.2568</ele>
        <time>2012-09-30T06:07:29Z</time>
      </trkpt>
      <trkpt lat="47.63281" lon="6.83359">
        <ele>377.952</ele>
        <time>2012-09-30T06:07:32Z</time>
      </trkpt>
      <trkpt lat="47.63289" lon="6.83353">
        <ele>377.952</ele>
        <time>2012-09-30T06:07:33Z</time>
      </trkpt>
      <trkpt lat="47.63295" lon="6.83345">
        <ele>377.6472</ele>
        <time>2012-09-30T06:07:36Z</time>
      </trkpt>
      <trkpt lat="47.633" lon="6.83339">
        <ele>377.952</ele>
        <time>2012-09-30T06:07:37Z</time>
      </trkpt>
      <trkpt lat="47.63305" lon="6.83336">
        <ele>377.952</ele>
        <time>2012-09-30T06:07:40Z</time>
      </trkpt>
      <trkpt lat="47.63309" lon="6.83334">
        <ele>378.5616</ele>
        <time>2012-09-30T06:07:41Z</time>
      </trkpt>
      <trkpt lat="47.63314" lon="6.8333">
        <ele>378.8664</ele>
        <time>2012-09-30T06:07:44Z</time>
      </trkpt>
      <trkpt lat="47.63316" lon="6.83323">
        <ele>378.8664</ele>
        <time>2012-09-30T06:07:45Z</time>
      </trkpt>
      <trkpt lat="47.63316" lon="6.83313">
        <ele>378.5616</ele>
        <time>2012-09-30T06:07:48Z</time>
      </trkpt>
      <trkpt lat="47.63315" lon="6.83301">
        <ele>378.2568</ele>
        <time>2012-09-30T06:07:49Z</time>
      </trkpt>
      <trkpt lat="47.63312" lon="6.83289">
        <ele>377.952</ele>
        <time>2012-09-30T06:07:52Z</time>
      </trkpt>
      <trkpt lat="47.63309" lon="6.83276">
        <ele>377.6472</ele>
        <time>2012-09-30T06:07:53Z</time>
      </trkpt>
      <trkpt lat="47.63305" lon="6.83265">
        <ele>377.952</ele>
        <time>2012-09-30T06:07:56Z</time>
      </trkpt>
      <trkpt lat="47.633" lon="6.83255">
        <ele>378.2568</ele>
        <time>2012-09-30T06:07:57Z</time>
      </trkpt>
      <trkpt lat="47.63296" lon="6.83245">
        <ele>378.2568</ele>
        <time>2012-09-30T06:08:00Z</time>
      </trkpt>
      <trkpt lat="47.63293" lon="6.83235">
        <ele>378.2568</ele>
        <time>2012-09-30T06:08:01Z</time>
      </trkpt>
      <trkpt lat="47.6329" lon="6.83226">
        <ele>378.2568</ele>
        <time>2012-09-30T06:08:04Z</time>
      </trkpt>
      <trkpt lat="47.6329" lon="6.83215">
        <ele>378.2568</ele>
        <time>2012-09-30T06:08:05Z</time>
      </trkpt>
      <trkpt lat="47.63293" lon="6.83204">
        <ele>378.2568</ele>
        <time>2012-09-30T06:08:07Z</time>
      </trkpt>
      <trkpt lat="47.63298" lon="6.83194">
        <ele>378.2568</ele>
        <time>2012-09-30T06:08:10Z</time>
      </trkpt>
      <trkpt lat="47.63302" lon="6.83184">
        <ele>378.2568</ele>
        <time>2012-09-30T06:08:11Z</time>
      </trkpt>
      <trkpt lat="47.63306" lon="6.83174">
        <ele>377.952</ele>
        <time>2012-09-30T06:08:14Z</time>
      </trkpt>
      <trkpt lat="47.6331" lon="6.83166">
        <ele>378.2568</ele>
        <time>2012-09-30T06:08:15Z</time>
      </trkpt>
      <trkpt lat="47.63313" lon="6.83157">
        <ele>378.5616</ele>
        <time>2012-09-30T06:08:18Z</time>
      </trkpt>
      <trkpt lat="47.63312" lon="6.83147">
        <ele>378.5616</ele>
        <time>2012-09-30T06:08:19Z</time>
      </trkpt>
      <trkpt lat="47.6331" lon="6.83137">
        <ele>378.8664</ele>
        <time>2012-09-30T06:08:22Z</time>
      </trkpt>
      <trkpt lat="47.63309" lon="6.83128">
        <ele>378.5616</ele>
        <time>2012-09-30T06:08:23Z</time>
      </trkpt>
      <trkpt lat="47.63307" lon="6.8312">
        <ele>378.5616</ele>
        <time>2012-09-30T06:08:26Z</time>
      </trkpt>
      <trkpt lat="47.63305" lon="6.83109">
        <ele>378.5616</ele>
        <time>2012-09-30T06:08:27Z</time>
      </trkpt>
      <trkpt lat="47.63302" lon="6.83097">
        <ele>377.952</ele>
        <time>2012-09-30T06:08:30Z</time>
      </trkpt>
      <trkpt lat="47.63299" lon="6.83086">
        <ele>377.952</ele>
        <time>2012-09-30T06:08:31Z</time>
      </trkpt>
      <trkpt lat="47.63296" lon="6.83076">
        <ele>377.952</ele>
        <time>2012-09-30T06:08:34Z</time>
      </trkpt>
      <trkpt lat="47.63292" lon="6.83069">
        <ele>377.6472</ele>
        <time>2012-09-30T06:08:35Z</time>
      </trkpt>
      <trkpt lat="47.63289" lon="6.8306">
        <ele>377.0376</ele>
        <time>2012-09-30T06:08:38Z</time>
      </trkpt>
      <trkpt lat="47.63286" lon="6.83051">
        <ele>377.6472</ele>
        <time>2012-09-30T06:08:39Z</time>
      </trkpt>
      <trkpt lat="47.63282" lon="6.83042">
        <ele>377.952</ele>
        <time>2012-09-30T06:08:42Z</time>
      </trkpt>
      <trkpt lat="47.63279" lon="6.83033">
        <ele>378.2568</ele>
        <time>2012-09-30T06:08:43Z</time>
      </trkpt>
      <trkpt lat="47.63273" lon="6.83023">
        <ele>377.952</ele>
        <time>2012-09-30T06:08:46Z</time>
      </trkpt>
      <trkpt lat="47.63264" lon="6.83019">
        <ele>377.0376</ele>
        <time>2012-09-30T06:08:47Z</time>
      </trkpt>
      <trkpt lat="47.63258" lon="6.8301">
        <ele>376.428</ele>
        <time>2012-09-30T06:08:50Z</time>
      </trkpt>
      <trkpt lat="47.63255" lon="6.82996">
        <ele>376.1232</ele>
        <time>2012-09-30T06:08:51Z</time>
      </trkpt>
      <trkpt lat="47.6325" lon="6.82982">
        <ele>375.8184</ele>
        <time>2012-09-30T06:08:54Z</time>
      </trkpt>
      <trkpt lat="47.63245" lon="6.82971">
        <ele>375.8184</ele>
        <time>2012-09-30T06:08:55Z</time>
      </trkpt>
      <trkpt lat="47.63235" lon="6.82969">
        <ele>375.5136</ele>
        <time>2012-09-30T06:08:58Z</time>
      </trkpt>
      <trkpt lat="47.63224" lon="6.8297">
        <ele>375.5136</ele>
        <time>2012-09-30T06:08:59Z</time>
      </trkpt>
      <trkpt lat="47.63217" lon="6.82974">
        <ele>375.5136</ele>
        <time>2012-09-30T06:09:01Z</time>
      </trkpt>
      <trkpt lat="47.63212" lon="6.82978">
        <ele>375.2088</ele>
        <time>2012-09-30T06:09:04Z</time>
      </trkpt>
      <trkpt lat="47.63206" lon="6.82982">
        <ele>374.904</ele>
        <time>2012-09-30T06:09:05Z</time>
      </trkpt>
      <trkpt lat="47.63201" lon="6.82983">
        <ele>373.9896</ele>
        <time>2012-09-30T06:09:08Z</time>
      </trkpt>
      <trkpt lat="47.63194" lon="6.82982">
        <ele>373.0752</ele>
        <time>2012-09-30T06:09:09Z</time>
      </trkpt>
      <trkpt lat="47.63184" lon="6.82981">
        <ele>372.1608</ele>
        <time>2012-09-30T06:09:12Z</time>
      </trkpt>
      <trkpt lat="47.63176" lon="6.82978">
        <ele>371.5512</ele>
        <time>2012-09-30T06:09:13Z</time>
      </trkpt>
      <trkpt lat="47.6317" lon="6.8297">
        <ele>371.2464</ele>
        <time>2012-09-30T06:09:16Z</time>
      </trkpt>
      <trkpt lat="47.63167" lon="6.82957">
        <ele>371.5512</ele>
        <time>2012-09-30T06:09:17Z</time>
      </trkpt>
      <trkpt lat="47.6317" lon="6.82942">
        <ele>371.5512</ele>
        <time>2012-09-30T06:09:20Z</time>
      </trkpt>
      <trkpt lat="47.63178" lon="6.82929">
        <ele>371.856</ele>
        <time>2012-09-30T06:09:21Z</time>
      </trkpt>
      <trkpt lat="47.63186" lon="6.82917">
        <ele>371.856</ele>
        <time>2012-09-30T06:09:24Z</time>
      </trkpt>
      <trkpt lat="47.63194" lon="6.82904">
        <ele>371.856</ele>
        <time>2012-09-30T06:09:25Z</time>
      </trkpt>
      <trkpt lat="47.63202" lon="6.82891">
        <ele>371.856</ele>
        <time>2012-09-30T06:09:28Z</time>
      </trkpt>
      <trkpt lat="47.63208" lon="6.82879">
        <ele>371.856</ele>
        <time>2012-09-30T06:09:29Z</time>
      </trkpt>
      <trkpt lat="47.63208" lon="6.82865">
        <ele>371.856</ele>
        <time>2012-09-30T06:09:32Z</time>
      </trkpt>
      <trkpt lat="47.63203" lon="6.82852">
        <ele>371.856</ele>
        <time>2012-09-30T06:09:33Z</time>
      </trkpt>
      <trkpt lat="47.63196" lon="6.8284">
        <ele>371.856</ele>
        <time>2012-09-30T06:09:36Z</time>
      </trkpt>
      <trkpt lat="47.63191" lon="6.82828">
        <ele>372.1608</ele>
        <time>2012-09-30T06:09:37Z</time>
      </trkpt>
      <trkpt lat="47.63192" lon="6.82819">
        <ele>371.856</ele>
        <time>2012-09-30T06:09:40Z</time>
      </trkpt>
      <trkpt lat="47.63198" lon="6.82811">
        <ele>371.856</ele>
        <time>2012-09-30T06:09:41Z</time>
      </trkpt>
      <trkpt lat="47.63205" lon="6.82801">
        <ele>371.856</ele>
        <time>2012-09-30T06:09:44Z</time>
      </trkpt>
      <trkpt lat="47.63213" lon="6.8279">
        <ele>372.1608</ele>
        <time>2012-09-30T06:09:45Z</time>
      </trkpt>
      <trkpt lat="47.63221" lon="6.82778">
        <ele>372.1608</ele>
        <time>2012-09-30T06:09:48Z</time>
      </trkpt>
      <trkpt lat="47.63229" lon="6.82766">
        <ele>372.4656</ele>
        <time>2012-09-30T06:09:49Z</time>
      </trkpt>
      <trkpt lat="47.63237" lon="6.82754">
        <ele>372.7704</ele>
        <time>2012-09-30T06:09:52Z</time>
      </trkpt>
      <trkpt lat="47.63245" lon="6.82742">
        <ele>373.38</ele>
        <time>2012-09-30T06:09:54Z</time>
      </trkpt>
      <trkpt lat="47.63252" lon="6.82729">
        <ele>373.38</ele>
        <time>2012-09-30T06:09:55Z</time>
      </trkpt>
      <trkpt lat="47.63259" lon="6.82716">
        <ele>373.9896</ele>
        <time>2012-09-30T06:09:58Z</time>
      </trkpt>
      <trkpt lat="47.63266" lon="6.82702">
        <ele>373.9896</ele>
        <time>2012-09-30T06:09:59Z</time>
      </trkpt>
      <trkpt lat="47.63272" lon="6.82689">
        <ele>374.2944</ele>
        <time>2012-09-30T06:10:02Z</time>
      </trkpt>
      <trkpt lat="47.63278" lon="6.82676">
        <ele>374.5992</ele>
        <time>2012-09-30T06:10:03Z</time>
      </trkpt>
      <trkpt lat="47.63283" lon="6.82662">
        <ele>375.2088</ele>
        <time>2012-09-30T06:10:06Z</time>
      </trkpt>
      <trkpt lat="47.63287" lon="6.82648">
        <ele>375.5136</ele>
        <time>2012-09-30T06:10:07Z</time>
      </trkpt>
      <trkpt lat="47.63291" lon="6.82635">
        <ele>376.1232</ele>
        <time>2012-09-30T06:10:10Z</time>
      </trkpt>
      <trkpt lat="47.63296" lon="6.82621">
        <ele>376.428</ele>
        <time>2012-09-30T06:10:11Z</time>
      </trkpt>
      <trkpt lat="47.63299" lon="6.82607">
        <ele>376.428</ele>
        <time>2012-09-30T06:10:14Z</time>
      </trkpt>
      <trkpt lat="47.63302" lon="6.82593">
        <ele>376.7328</ele>
        <time>2012-09-30T06:10:15Z</time>
      </trkpt>
      <trkpt lat="47.63305" lon="6.82579">
        <ele>377.3424</ele>
        <time>2012-09-30T06:10:18Z</time>
      </trkpt>
      <trkpt lat="47.63307" lon="6.82566">
        <ele>377.6472</ele>
        <time>2012-09-30T06:10:19Z</time>
      </trkpt>
      <trkpt lat="47.63308" lon="6.82553">
        <ele>378.5616</ele>
        <time>2012-09-30T06:10:22Z</time>
      </trkpt>
      <trkpt lat="47.63309" lon="6.82541">
        <ele>379.476</ele>
        <time>2012-09-30T06:10:23Z</time>
      </trkpt>
      <trkpt lat="47.63309" lon="6.82529">
        <ele>380.3904</ele>
        <time>2012-09-30T06:10:26Z</time>
      </trkpt>
      <trkpt lat="47.63308" lon="6.82517">
        <ele>379.7808</ele>
        <time>2012-09-30T06:10:27Z</time>
      </trkpt>
      <trkpt lat="47.63307" lon="6.82503">
        <ele>379.7808</ele>
        <time>2012-09-30T06:10:30Z</time>
      </trkpt>
      <trkpt lat="47.63307" lon="6.8249">
        <ele>379.7808</ele>
        <time>2012-09-30T06:10:31Z</time>
      </trkpt>
      <trkpt lat="47.63307" lon="6.82477">
        <ele>380.0856</ele>
        <time>2012-09-30T06:10:34Z</time>
      </trkpt>
      <trkpt lat="47.63307" lon="6.82464">
        <ele>380.0856</ele>
        <time>2012-09-30T06:10:35Z</time>
      </trkpt>
      <trkpt lat="47.63306" lon="6.82451">
        <ele>379.7808</ele>
        <time>2012-09-30T06:10:38Z</time>
      </trkpt>
      <trkpt lat="47.63308" lon="6.8244">
        <ele>379.7808</ele>
        <time>2012-09-30T06:10:39Z</time>
      </trkpt>
      <trkpt lat="47.63312" lon="6.8243">
        <ele>379.476</ele>
        <time>2012-09-30T06:10:42Z</time>
      </trkpt>
      <trkpt lat="47.63317" lon="6.82419">
        <ele>379.1712</ele>
        <time>2012-09-30T06:10:43Z</time>
      </trkpt>
      <trkpt lat="47.63322" lon="6.82406">
        <ele>378.5616</ele>
        <time>2012-09-30T06:10:46Z</time>
      </trkpt>
      <trkpt lat="47.63327" lon="6.82392">
        <ele>377.952</ele>
        <time>2012-09-30T06:10:48Z</time>
      </trkpt>
      <trkpt lat="47.6333" lon="6.82374">
        <ele>377.3424</ele>
        <time>2012-09-30T06:10:49Z</time>
      </trkpt>
      <trkpt lat="47.63332" lon="6.82355">
        <ele>376.7328</ele>
        <time>2012-09-30T06:10:52Z</time>
      </trkpt>
      <trkpt lat="47.63333" lon="6.82336">
        <ele>376.428</ele>
        <time>2012-09-30T06:10:53Z</time>
      </trkpt>
      <trkpt lat="47.63335" lon="6.82317">
        <ele>376.428</ele>
        <time>2012-09-30T06:10:56Z</time>
      </trkpt>
      <trkpt lat="47.63336" lon="6.82298">
        <ele>376.428</ele>
        <time>2012-09-30T06:10:57Z</time>
      </trkpt>
      <trkpt lat="47.63338" lon="6.82279">
        <ele>376.1232</ele>
        <time>2012-09-30T06:11:00Z</time>
      </trkpt>
      <trkpt lat="47.63339" lon="6.82259">
        <ele>375.8184</ele>
        <time>2012-09-30T06:11:01Z</time>
      </trkpt>
      <trkpt lat="47.63342" lon="6.8224">
        <ele>375.2088</ele>
        <time>2012-09-30T06:11:04Z</time>
      </trkpt>
      <trkpt lat="47.63345" lon="6.8222">
        <ele>374.5992</ele>
        <time>2012-09-30T06:11:05Z</time>
      </trkpt>
      <trkpt lat="47.63348" lon="6.82198">
        <ele>373.6848</ele>
        <time>2012-09-30T06:11:08Z</time>
      </trkpt>
      <trkpt lat="47.63351" lon="6.82176">
        <ele>373.0752</ele>
        <time>2012-09-30T06:11:09Z</time>
      </trkpt>
      <trkpt lat="47.63353" lon="6.82154">
        <ele>372.4656</ele>
        <time>2012-09-30T06:11:12Z</time>
      </trkpt>
      <trkpt lat="47.63356" lon="6.82134">
        <ele>371.5512</ele>
        <time>2012-09-30T06:11:13Z</time>
      </trkpt>
      <trkpt lat="47.63358" lon="6.82113">
        <ele>370.9416</ele>
        <time>2012-09-30T06:11:16Z</time>
      </trkpt>
      <trkpt lat="47.6336" lon="6.82092">
        <ele>370.9416</ele>
        <time>2012-09-30T06:11:17Z</time>
      </trkpt>
      <trkpt lat="47.63363" lon="6.82073">
        <ele>370.6368</ele>
        <time>2012-09-30T06:11:20Z</time>
      </trkpt>
      <trkpt lat="47.63365" lon="6.82055">
        <ele>370.6368</ele>
        <time>2012-09-30T06:11:21Z</time>
      </trkpt>
      <trkpt lat="47.63366" lon="6.82038">
        <ele>370.6368</ele>
        <time>2012-09-30T06:11:24Z</time>
      </trkpt>
      <trkpt lat="47.63367" lon="6.8202">
        <ele>370.6368</ele>
        <time>2012-09-30T06:11:25Z</time>
      </trkpt>
      <trkpt lat="47.63367" lon="6.82003">
        <ele>370.6368</ele>
        <time>2012-09-30T06:11:28Z</time>
      </trkpt>
      <trkpt lat="47.63367" lon="6.81985">
        <ele>370.6368</ele>
        <time>2012-09-30T06:11:29Z</time>
      </trkpt>
      <trkpt lat="47.63367" lon="6.81967">
        <ele>370.6368</ele>
        <time>2012-09-30T06:11:32Z</time>
      </trkpt>
      <trkpt lat="47.63367" lon="6.81949">
        <ele>370.6368</ele>
        <time>2012-09-30T06:11:33Z</time>
      </trkpt>
      <trkpt lat="47.63366" lon="6.81932">
        <ele>370.6368</ele>
        <time>2012-09-30T06:11:36Z</time>
      </trkpt>
      <trkpt lat="47.63365" lon="6.81915">
        <ele>370.332</ele>
        <time>2012-09-30T06:11:37Z</time>
      </trkpt>
      <trkpt lat="47.63362" lon="6.81898">
        <ele>370.332</ele>
        <time>2012-09-30T06:11:40Z</time>
      </trkpt>
      <trkpt lat="47.6336" lon="6.81882">
        <ele>370.6368</ele>
        <time>2012-09-30T06:11:42Z</time>
      </trkpt>
      <trkpt lat="47.63358" lon="6.81867">
        <ele>370.6368</ele>
        <time>2012-09-30T06:11:43Z</time>
      </trkpt>
      <trkpt lat="47.63358" lon="6.81851">
        <ele>370.9416</ele>
        <time>2012-09-30T06:11:46Z</time>
      </trkpt>
      <trkpt lat="47.63358" lon="6.81835">
        <ele>371.856</ele>
        <time>2012-09-30T06:11:47Z</time>
      </trkpt>
      <trkpt lat="47.63358" lon="6.81819">
        <ele>372.4656</ele>
        <time>2012-09-30T06:11:50Z</time>
      </trkpt>
      <trkpt lat="47.63358" lon="6.81803">
        <ele>373.0752</ele>
        <time>2012-09-30T06:11:51Z</time>
      </trkpt>
      <trkpt lat="47.63357" lon="6.81788">
        <ele>373.0752</ele>
        <time>2012-09-30T06:11:54Z</time>
      </trkpt>
      <trkpt lat="47.63358" lon="6.81772">
        <ele>373.0752</ele>
        <time>2012-09-30T06:11:55Z</time>
      </trkpt>
      <trkpt lat="47.63358" lon="6.81757">
        <ele>373.38</ele>
        <time>2012-09-30T06:11:58Z</time>
      </trkpt>
      <trkpt lat="47.63357" lon="6.81742">
        <ele>373.38</ele>
        <time>2012-09-30T06:11:59Z</time>
      </trkpt>
      <trkpt lat="47.63357" lon="6.81727">
        <ele>373.6848</ele>
        <time>2012-09-30T06:12:02Z</time>
      </trkpt>
      <trkpt lat="47.63357" lon="6.81712">
        <ele>373.9896</ele>
        <time>2012-09-30T06:12:03Z</time>
      </trkpt>
      <trkpt lat="47.63359" lon="6.81697">
        <ele>376.428</ele>
        <time>2012-09-30T06:12:06Z</time>
      </trkpt>
      <trkpt lat="47.63361" lon="6.81683">
        <ele>378.2568</ele>
        <time>2012-09-30T06:12:07Z</time>
      </trkpt>
      <trkpt lat="47.63363" lon="6.8167">
        <ele>381.3048</ele>
        <time>2012-09-30T06:12:10Z</time>
      </trkpt>
      <trkpt lat="47.63365" lon="6.81659">
        <ele>383.4384</ele>
        <time>2012-09-30T06:12:11Z</time>
      </trkpt>
      <trkpt lat="47.63366" lon="6.81643">
        <ele>384.9624</ele>
        <time>2012-09-30T06:12:14Z</time>
      </trkpt>
      <trkpt lat="47.63365" lon="6.81625">
        <ele>383.7432</ele>
        <time>2012-09-30T06:12:15Z</time>
      </trkpt>
      <trkpt lat="47.63364" lon="6.81609">
        <ele>383.4384</ele>
        <time>2012-09-30T06:12:18Z</time>
      </trkpt>
      <trkpt lat="47.63363" lon="6.81593">
        <ele>382.524</ele>
        <time>2012-09-30T06:12:19Z</time>
      </trkpt>
      <trkpt lat="47.63363" lon="6.81577">
        <ele>381.9144</ele>
        <time>2012-09-30T06:12:22Z</time>
      </trkpt>
      <trkpt lat="47.63364" lon="6.81563">
        <ele>384.6576</ele>
        <time>2012-09-30T06:12:23Z</time>
      </trkpt>
      <trkpt lat="47.63362" lon="6.81547">
        <ele>383.7432</ele>
        <time>2012-09-30T06:12:26Z</time>
      </trkpt>
      <trkpt lat="47.63361" lon="6.81532">
        <ele>382.8288</ele>
        <time>2012-09-30T06:12:27Z</time>
      </trkpt>
      <trkpt lat="47.6336" lon="6.81516">
        <ele>381.3048</ele>
        <time>2012-09-30T06:12:30Z</time>
      </trkpt>
      <trkpt lat="47.6336" lon="6.81501">
        <ele>380.6952</ele>
        <time>2012-09-30T06:12:31Z</time>
      </trkpt>
      <trkpt lat="47.63359" lon="6.81486">
        <ele>380.0856</ele>
        <time>2012-09-30T06:12:34Z</time>
      </trkpt>
      <trkpt lat="47.63358" lon="6.81471">
        <ele>379.1712</ele>
        <time>2012-09-30T06:12:36Z</time>
      </trkpt>
      <trkpt lat="47.63355" lon="6.81454">
        <ele>377.0376</ele>
        <time>2012-09-30T06:12:37Z</time>
      </trkpt>
      <trkpt lat="47.63355" lon="6.81437">
        <ele>376.428</ele>
        <time>2012-09-30T06:12:40Z</time>
      </trkpt>
      <trkpt lat="47.63355" lon="6.81423">
        <ele>375.8184</ele>
        <time>2012-09-30T06:12:41Z</time>
      </trkpt>
      <trkpt lat="47.63354" lon="6.81412">
        <ele>375.2088</ele>
        <time>2012-09-30T06:12:44Z</time>
      </trkpt>
      <trkpt lat="47.63349" lon="6.81404">
        <ele>374.2944</ele>
        <time>2012-09-30T06:12:45Z</time>
      </trkpt>
      <trkpt lat="47.63347" lon="6.81389">
        <ele>373.0752</ele>
        <time>2012-09-30T06:12:48Z</time>
      </trkpt>
      <trkpt lat="47.63347" lon="6.81369">
        <ele>371.856</ele>
        <time>2012-09-30T06:12:49Z</time>
      </trkpt>
      <trkpt lat="47.63346" lon="6.81346">
        <ele>370.9416</ele>
        <time>2012-09-30T06:12:52Z</time>
      </trkpt>
      <trkpt lat="47.63346" lon="6.81319">
        <ele>369.4176</ele>
        <time>2012-09-30T06:12:53Z</time>
      </trkpt>
      <trkpt lat="47.63346" lon="6.81291">
        <ele>367.8936</ele>
        <time>2012-09-30T06:12:56Z</time>
      </trkpt>
      <trkpt lat="47.63344" lon="6.81262">
        <ele>366.6744</ele>
        <time>2012-09-30T06:12:57Z</time>
      </trkpt>
      <trkpt lat="47.63344" lon="6.81233">
        <ele>366.3696</ele>
        <time>2012-09-30T06:13:00Z</time>
      </trkpt>
      <trkpt lat="47.63345" lon="6.81206">
        <ele>366.3696</ele>
        <time>2012-09-30T06:13:01Z</time>
      </trkpt>
      <trkpt lat="47.63346" lon="6.81181">
        <ele>366.6744</ele>
        <time>2012-09-30T06:13:04Z</time>
      </trkpt>
      <trkpt lat="47.63346" lon="6.81157">
        <ele>367.284</ele>
        <time>2012-09-30T06:13:05Z</time>
      </trkpt>
      <trkpt lat="47.63347" lon="6.81134">
        <ele>367.5888</ele>
        <time>2012-09-30T06:13:08Z</time>
      </trkpt>
      <trkpt lat="47.63348" lon="6.81113">
        <ele>367.284</ele>
        <time>2012-09-30T06:13:09Z</time>
      </trkpt>
      <trkpt lat="47.63349" lon="6.81092">
        <ele>367.284</ele>
        <time>2012-09-30T06:13:12Z</time>
      </trkpt>
      <trkpt lat="47.6335" lon="6.8107">
        <ele>366.6744</ele>
        <time>2012-09-30T06:13:13Z</time>
      </trkpt>
      <trkpt lat="47.63351" lon="6.81048">
        <ele>366.0648</ele>
        <time>2012-09-30T06:13:16Z</time>
      </trkpt>
      <trkpt lat="47.63353" lon="6.81026">
        <ele>365.4552</ele>
        <time>2012-09-30T06:13:17Z</time>
      </trkpt>
      <trkpt lat="47.63353" lon="6.81008">
        <ele>365.1504</ele>
        <time>2012-09-30T06:13:20Z</time>
      </trkpt>
      <trkpt lat="47.63348" lon="6.80996">
        <ele>364.5408</ele>
        <time>2012-09-30T06:13:21Z</time>
      </trkpt>
      <trkpt lat="47.63336" lon="6.80991">
        <ele>363.9312</ele>
        <time>2012-09-30T06:13:24Z</time>
      </trkpt>
      <trkpt lat="47.63322" lon="6.80985">
        <ele>363.0168</ele>
        <time>2012-09-30T06:13:25Z</time>
      </trkpt>
      <trkpt lat="47.63308" lon="6.80978">
        <ele>362.4072</ele>
        <time>2012-09-30T06:13:28Z</time>
      </trkpt>
      <trkpt lat="47.63293" lon="6.8097">
        <ele>361.7976</ele>
        <time>2012-09-30T06:13:30Z</time>
      </trkpt>
      <trkpt lat="47.63278" lon="6.80961">
        <ele>361.4928</ele>
        <time>2012-09-30T06:13:31Z</time>
      </trkpt>
      <trkpt lat="47.63264" lon="6.80954">
        <ele>361.4928</ele>
        <time>2012-09-30T06:13:34Z</time>
      </trkpt>
      <trkpt lat="47.6325" lon="6.80947">
        <ele>361.4928</ele>
        <time>2012-09-30T06:13:35Z</time>
      </trkpt>
      <trkpt lat="47.63237" lon="6.8094">
        <ele>362.1024</ele>
        <time>2012-09-30T06:13:38Z</time>
      </trkpt>
      <trkpt lat="47.63226" lon="6.80937">
        <ele>362.712</ele>
        <time>2012-09-30T06:13:39Z</time>
      </trkpt>
      <trkpt lat="47.63218" lon="6.80946">
        <ele>363.0168</ele>
        <time>2012-09-30T06:13:42Z</time>
      </trkpt>
      <trkpt lat="47.63214" lon="6.80961">
        <ele>363.0168</ele>
        <time>2012-09-30T06:13:43Z</time>
      </trkpt>
      <trkpt lat="47.63212" lon="6.80978">
        <ele>362.712</ele>
        <time>2012-09-30T06:13:46Z</time>
      </trkpt>
      <trkpt lat="47.63211" lon="6.80997">
        <ele>362.4072</ele>
        <time>2012-09-30T06:13:47Z</time>
      </trkpt>
      <trkpt lat="47.63209" lon="6.81015">
        <ele>362.4072</ele>
        <time>2012-09-30T06:13:50Z</time>
      </trkpt>
      <trkpt lat="47.63207" lon="6.81034">
        <ele>362.4072</ele>
        <time>2012-09-30T06:13:51Z</time>
      </trkpt>
      <trkpt lat="47.63205" lon="6.81052">
        <ele>362.4072</ele>
        <time>2012-09-30T06:13:54Z</time>
      </trkpt>
      <trkpt lat="47.63204" lon="6.8107">
        <ele>362.1024</ele>
        <time>2012-09-30T06:13:55Z</time>
      </trkpt>
      <trkpt lat="47.63202" lon="6.81088">
        <ele>362.1024</ele>
        <time>2012-09-30T06:13:58Z</time>
      </trkpt>
      <trkpt lat="47.632" lon="6.81106">
        <ele>361.7976</ele>
        <time>2012-09-30T06:13:59Z</time>
      </trkpt>
      <trkpt lat="47.63198" lon="6.81123">
        <ele>361.7976</ele>
        <time>2012-09-30T06:14:02Z</time>
      </trkpt>
      <trkpt lat="47.63194" lon="6.8114">
        <ele>361.7976</ele>
        <time>2012-09-30T06:14:03Z</time>
      </trkpt>
      <trkpt lat="47.6319" lon="6.81156">
        <ele>361.7976</ele>
        <time>2012-09-30T06:14:06Z</time>
      </trkpt>
      <trkpt lat="47.63186" lon="6.81172">
        <ele>361.7976</ele>
        <time>2012-09-30T06:14:07Z</time>
      </trkpt>
      <trkpt lat="47.63182" lon="6.81188">
        <ele>361.7976</ele>
        <time>2012-09-30T06:14:10Z</time>
      </trkpt>
      <trkpt lat="47.63177" lon="6.81203">
        <ele>361.7976</ele>
        <time>2012-09-30T06:14:11Z</time>
      </trkpt>
      <trkpt lat="47.63174" lon="6.81217">
        <ele>362.1024</ele>
        <time>2012-09-30T06:14:14Z</time>
      </trkpt>
      <trkpt lat="47.6317" lon="6.81232">
        <ele>362.1024</ele>
        <time>2012-09-30T06:14:15Z</time>
      </trkpt>
      <trkpt lat="47.63165" lon="6.81245">
        <ele>362.4072</ele>
        <time>2012-09-30T06:14:18Z</time>
      </trkpt>
      <trkpt lat="47.63159" lon="6.81257">
        <ele>362.712</ele>
        <time>2012-09-30T06:14:19Z</time>
      </trkpt>
      <trkpt lat="47.63153" lon="6.81268">
        <ele>363.0168</ele>
        <time>2012-09-30T06:14:22Z</time>
      </trkpt>
      <trkpt lat="47.63147" lon="6.81278">
        <ele>363.6264</ele>
        <time>2012-09-30T06:14:24Z</time>
      </trkpt>
      <trkpt lat="47.63141" lon="6.81288">
        <ele>364.236</ele>
        <time>2012-09-30T06:14:25Z</time>
      </trkpt>
      <trkpt lat="47.63135" lon="6.81297">
        <ele>365.1504</ele>
        <time>2012-09-30T06:14:28Z</time>
      </trkpt>
      <trkpt lat="47.63128" lon="6.81306">
        <ele>366.0648</ele>
        <time>2012-09-30T06:14:29Z</time>
      </trkpt>
      <trkpt lat="47.63122" lon="6.81316">
        <ele>366.3696</ele>
        <time>2012-09-30T06:14:32Z</time>
      </trkpt>
      <trkpt lat="47.63115" lon="6.81326">
        <ele>366.3696</ele>
        <time>2012-09-30T06:14:33Z</time>
      </trkpt>
      <trkpt lat="47.63108" lon="6.81335">
        <ele>366.6744</ele>
        <time>2012-09-30T06:14:36Z</time>
      </trkpt>
      <trkpt lat="47.63103" lon="6.81346">
        <ele>366.3696</ele>
        <time>2012-09-30T06:14:37Z</time>
      </trkpt>
      <trkpt lat="47.63098" lon="6.81359">
        <ele>365.4552</ele>
        <time>2012-09-30T06:14:40Z</time>
      </trkpt>
      <trkpt lat="47.63094" lon="6.81374">
        <ele>364.8456</ele>
        <time>2012-09-30T06:14:41Z</time>
      </trkpt>
      <trkpt lat="47.63084" lon="6.81449">
        <ele>362.1024</ele>
        <time>2012-09-30T06:14:49Z</time>
      </trkpt>
      <trkpt lat="47.63082" lon="6.81459">
        <ele>361.7976</ele>
        <time>2012-09-30T06:14:51Z</time>
      </trkpt>
      <trkpt lat="47.6308" lon="6.81478">
        <ele>361.7976</ele>
        <time>2012-09-30T06:14:52Z</time>
      </trkpt>
      <trkpt lat="47.63077" lon="6.81496">
        <ele>361.4928</ele>
        <time>2012-09-30T06:14:55Z</time>
      </trkpt>
      <trkpt lat="47.63073" lon="6.81514">
        <ele>361.188</ele>
        <time>2012-09-30T06:14:56Z</time>
      </trkpt>
      <trkpt lat="47.63069" lon="6.81532">
        <ele>361.188</ele>
        <time>2012-09-30T06:14:59Z</time>
      </trkpt>
      <trkpt lat="47.63065" lon="6.81549">
        <ele>361.188</ele>
        <time>2012-09-30T06:15:00Z</time>
      </trkpt>
      <trkpt lat="47.6306" lon="6.81566">
        <ele>361.4928</ele>
        <time>2012-09-30T06:15:03Z</time>
      </trkpt>
      <trkpt lat="47.63055" lon="6.81582">
        <ele>361.7976</ele>
        <time>2012-09-30T06:15:04Z</time>
      </trkpt>
      <trkpt lat="47.6305" lon="6.81596">
        <ele>361.7976</ele>
        <time>2012-09-30T06:15:07Z</time>
      </trkpt>
      <trkpt lat="47.63045" lon="6.8161">
        <ele>360.8832</ele>
        <time>2012-09-30T06:15:08Z</time>
      </trkpt>
      <trkpt lat="47.6304" lon="6.81623">
        <ele>360.8832</ele>
        <time>2012-09-30T06:15:11Z</time>
      </trkpt>
      <trkpt lat="47.63036" lon="6.81636">
        <ele>360.5784</ele>
        <time>2012-09-30T06:15:12Z</time>
      </trkpt>
      <trkpt lat="47.63032" lon="6.81645">
        <ele>361.188</ele>
        <time>2012-09-30T06:15:15Z</time>
      </trkpt>
      <trkpt lat="47.63026" lon="6.81647">
        <ele>361.7976</ele>
        <time>2012-09-30T06:15:16Z</time>
      </trkpt>
      <trkpt lat="47.63022" lon="6.81642">
        <ele>362.4072</ele>
        <time>2012-09-30T06:15:19Z</time>
      </trkpt>
      <trkpt lat="47.63018" lon="6.81636">
        <ele>363.0168</ele>
        <time>2012-09-30T06:15:20Z</time>
      </trkpt>
      <trkpt lat="47.63012" lon="6.81632">
        <ele>363.6264</ele>
        <time>2012-09-30T06:15:23Z</time>
      </trkpt>
      <trkpt lat="47.63006" lon="6.81631">
        <ele>364.236</ele>
        <time>2012-09-30T06:15:24Z</time>
      </trkpt>
      <trkpt lat="47.62999" lon="6.81631">
        <ele>364.8456</ele>
        <time>2012-09-30T06:15:27Z</time>
      </trkpt>
      <trkpt lat="47.62992" lon="6.81631">
        <ele>365.1504</ele>
        <time>2012-09-30T06:15:28Z</time>
      </trkpt>
      <trkpt lat="47.62986" lon="6.81631">
        <ele>365.76</ele>
        <time>2012-09-30T06:15:31Z</time>
      </trkpt>
      <trkpt lat="47.62979" lon="6.8163">
        <ele>366.3696</ele>
        <time>2012-09-30T06:15:32Z</time>
      </trkpt>
      <trkpt lat="47.62973" lon="6.8163">
        <ele>366.9792</ele>
        <time>2012-09-30T06:15:35Z</time>
      </trkpt>
      <trkpt lat="47.62967" lon="6.8163">
        <ele>367.284</ele>
        <time>2012-09-30T06:15:36Z</time>
      </trkpt>
      <trkpt lat="47.62961" lon="6.81631">
        <ele>367.8936</ele>
        <time>2012-09-30T06:15:39Z</time>
      </trkpt>
      <trkpt lat="47.62955" lon="6.81631">
        <ele>368.5032</ele>
        <time>2012-09-30T06:15:40Z</time>
      </trkpt>
      <trkpt lat="47.62949" lon="6.81632">
        <ele>369.1128</ele>
        <time>2012-09-30T06:15:43Z</time>
      </trkpt>
      <trkpt lat="47.62944" lon="6.81633">
        <ele>369.7224</ele>
        <time>2012-09-30T06:15:45Z</time>
      </trkpt>
      <trkpt lat="47.62938" lon="6.81633">
        <ele>370.332</ele>
        <time>2012-09-30T06:15:46Z</time>
      </trkpt>
      <trkpt lat="47.62933" lon="6.81634">
        <ele>371.2464</ele>
        <time>2012-09-30T06:15:49Z</time>
      </trkpt>
      <trkpt lat="47.62928" lon="6.81635">
        <ele>372.1608</ele>
        <time>2012-09-30T06:15:50Z</time>
      </trkpt>
      <trkpt lat="47.62923" lon="6.81636">
        <ele>373.0752</ele>
        <time>2012-09-30T06:15:53Z</time>
      </trkpt>
      <trkpt lat="47.62918" lon="6.81637">
        <ele>373.9896</ele>
        <time>2012-09-30T06:15:54Z</time>
      </trkpt>
      <trkpt lat="47.62914" lon="6.81637">
        <ele>374.904</ele>
        <time>2012-09-30T06:15:57Z</time>
      </trkpt>
      <trkpt lat="47.62909" lon="6.81637">
        <ele>376.1232</ele>
        <time>2012-09-30T06:15:58Z</time>
      </trkpt>
      <trkpt lat="47.62905" lon="6.81638">
        <ele>377.3424</ele>
        <time>2012-09-30T06:16:01Z</time>
      </trkpt>
      <trkpt lat="47.62901" lon="6.81638">
        <ele>378.2568</ele>
        <time>2012-09-30T06:16:02Z</time>
      </trkpt>
      <trkpt lat="47.62897" lon="6.81638">
        <ele>379.476</ele>
        <time>2012-09-30T06:16:05Z</time>
      </trkpt>
      <trkpt lat="47.62893" lon="6.81638">
        <ele>380.6952</ele>
        <time>2012-09-30T06:16:06Z</time>
      </trkpt>
      <trkpt lat="47.62889" lon="6.81638">
        <ele>381.6096</ele>
        <time>2012-09-30T06:16:09Z</time>
      </trkpt>
      <trkpt lat="47.62884" lon="6.81638">
        <ele>382.8288</ele>
        <time>2012-09-30T06:16:10Z</time>
      </trkpt>
      <trkpt lat="47.6288" lon="6.81638">
        <ele>383.4384</ele>
        <time>2012-09-30T06:16:13Z</time>
      </trkpt>
      <trkpt lat="47.62876" lon="6.81639">
        <ele>384.048</ele>
        <time>2012-09-30T06:16:14Z</time>
      </trkpt>
      <trkpt lat="47.62871" lon="6.81642">
        <ele>384.048</ele>
        <time>2012-09-30T06:16:17Z</time>
      </trkpt>
      <trkpt lat="47.62867" lon="6.81646">
        <ele>384.6576</ele>
        <time>2012-09-30T06:16:18Z</time>
      </trkpt>
      <trkpt lat="47.62862" lon="6.81651">
        <ele>384.6576</ele>
        <time>2012-09-30T06:16:21Z</time>
      </trkpt>
      <trkpt lat="47.62857" lon="6.81656">
        <ele>384.9624</ele>
        <time>2012-09-30T06:16:22Z</time>
      </trkpt>
      <trkpt lat="47.62852" lon="6.8166">
        <ele>385.2672</ele>
        <time>2012-09-30T06:16:25Z</time>
      </trkpt>
      <trkpt lat="47.62848" lon="6.81664">
        <ele>386.1816</ele>
        <time>2012-09-30T06:16:26Z</time>
      </trkpt>
      <trkpt lat="47.62844" lon="6.81669">
        <ele>386.4864</ele>
        <time>2012-09-30T06:16:29Z</time>
      </trkpt>
      <trkpt lat="47.62839" lon="6.81673">
        <ele>386.7912</ele>
        <time>2012-09-30T06:16:30Z</time>
      </trkpt>
      <trkpt lat="47.62834" lon="6.81677">
        <ele>387.096</ele>
        <time>2012-09-30T06:16:33Z</time>
      </trkpt>
      <trkpt lat="47.62829" lon="6.81681">
        <ele>387.4008</ele>
        <time>2012-09-30T06:16:34Z</time>
      </trkpt>
      <trkpt lat="47.62824" lon="6.81684">
        <ele>387.7056</ele>
        <time>2012-09-30T06:16:37Z</time>
      </trkpt>
      <trkpt lat="47.62819" lon="6.81685">
        <ele>388.0104</ele>
        <time>2012-09-30T06:16:39Z</time>
      </trkpt>
      <trkpt lat="47.62815" lon="6.81686">
        <ele>388.0104</ele>
        <time>2012-09-30T06:16:40Z</time>
      </trkpt>
      <trkpt lat="47.6281" lon="6.81685">
        <ele>388.3152</ele>
        <time>2012-09-30T06:16:43Z</time>
      </trkpt>
      <trkpt lat="47.62805" lon="6.81683">
        <ele>388.0104</ele>
        <time>2012-09-30T06:16:44Z</time>
      </trkpt>
      <trkpt lat="47.62801" lon="6.8168">
        <ele>388.3152</ele>
        <time>2012-09-30T06:16:47Z</time>
      </trkpt>
      <trkpt lat="47.62797" lon="6.81675">
        <ele>388.62</ele>
        <time>2012-09-30T06:16:48Z</time>
      </trkpt>
      <trkpt lat="47.62794" lon="6.8167">
        <ele>389.2296</ele>
        <time>2012-09-30T06:16:51Z</time>
      </trkpt>
      <trkpt lat="47.62791" lon="6.81664">
        <ele>389.5344</ele>
        <time>2012-09-30T06:16:52Z</time>
      </trkpt>
      <trkpt lat="47.62788" lon="6.81659">
        <ele>388.9248</ele>
        <time>2012-09-30T06:16:55Z</time>
      </trkpt>
      <trkpt lat="47.62787" lon="6.81655">
        <ele>390.144</ele>
        <time>2012-09-30T06:16:56Z</time>
      </trkpt>
      <trkpt lat="47.62785" lon="6.81649">
        <ele>390.144</ele>
        <time>2012-09-30T06:16:59Z</time>
      </trkpt>
      <trkpt lat="47.62782" lon="6.81645">
        <ele>389.8392</ele>
        <time>2012-09-30T06:17:00Z</time>
      </trkpt>
      <trkpt lat="47.6278" lon="6.81642">
        <ele>389.5344</ele>
        <time>2012-09-30T06:17:03Z</time>
      </trkpt>
      <trkpt lat="47.62778" lon="6.81637">
        <ele>389.2296</ele>
        <time>2012-09-30T06:17:04Z</time>
      </trkpt>
      <trkpt lat="47.62776" lon="6.81632">
        <ele>389.2296</ele>
        <time>2012-09-30T06:17:07Z</time>
      </trkpt>
      <trkpt lat="47.62774" lon="6.81626">
        <ele>389.5344</ele>
        <time>2012-09-30T06:17:08Z</time>
      </trkpt>
      <trkpt lat="47.62771" lon="6.81619">
        <ele>390.144</ele>
        <time>2012-09-30T06:17:11Z</time>
      </trkpt>
      <trkpt lat="47.62768" lon="6.81613">
        <ele>390.4488</ele>
        <time>2012-09-30T06:17:12Z</time>
      </trkpt>
      <trkpt lat="47.62767" lon="6.81608">
        <ele>391.3632</ele>
        <time>2012-09-30T06:17:15Z</time>
      </trkpt>
      <trkpt lat="47.62765" lon="6.81604">
        <ele>391.668</ele>
        <time>2012-09-30T06:17:16Z</time>
      </trkpt>
      <trkpt lat="47.62765" lon="6.81598">
        <ele>392.2776</ele>
        <time>2012-09-30T06:17:19Z</time>
      </trkpt>
      <trkpt lat="47.62764" lon="6.81591">
        <ele>392.8872</ele>
        <time>2012-09-30T06:17:20Z</time>
      </trkpt>
      <trkpt lat="47.62764" lon="6.81585">
        <ele>393.192</ele>
        <time>2012-09-30T06:17:23Z</time>
      </trkpt>
      <trkpt lat="47.62764" lon="6.8158">
        <ele>393.8016</ele>
        <time>2012-09-30T06:17:24Z</time>
      </trkpt>
      <trkpt lat="47.62764" lon="6.81574">
        <ele>394.4112</ele>
        <time>2012-09-30T06:17:27Z</time>
      </trkpt>
      <trkpt lat="47.62764" lon="6.81568">
        <ele>395.0208</ele>
        <time>2012-09-30T06:17:28Z</time>
      </trkpt>
      <trkpt lat="47.62763" lon="6.81563">
        <ele>395.6304</ele>
        <time>2012-09-30T06:17:31Z</time>
      </trkpt>
      <trkpt lat="47.62763" lon="6.81557">
        <ele>396.24</ele>
        <time>2012-09-30T06:17:32Z</time>
      </trkpt>
      <trkpt lat="47.62763" lon="6.81552">
        <ele>397.1544</ele>
        <time>2012-09-30T06:17:34Z</time>
      </trkpt>
      <trkpt lat="47.62762" lon="6.81547">
        <ele>398.0688</ele>
        <time>2012-09-30T06:17:37Z</time>
      </trkpt>
      <trkpt lat="47.62762" lon="6.81542">
        <ele>398.9832</ele>
        <time>2012-09-30T06:17:38Z</time>
      </trkpt>
      <trkpt lat="47.62761" lon="6.81538">
        <ele>399.8976</ele>
        <time>2012-09-30T06:17:41Z</time>
      </trkpt>
      <trkpt lat="47.62759" lon="6.81533">
        <ele>400.812</ele>
        <time>2012-09-30T06:17:42Z</time>
      </trkpt>
      <trkpt lat="47.62758" lon="6.81528">
        <ele>401.7264</ele>
        <time>2012-09-30T06:17:45Z</time>
      </trkpt>
      <trkpt lat="47.62757" lon="6.81524">
        <ele>402.6408</ele>
        <time>2012-09-30T06:17:46Z</time>
      </trkpt>
      <trkpt lat="47.62755" lon="6.81521">
        <ele>403.5552</ele>
        <time>2012-09-30T06:17:49Z</time>
      </trkpt>
      <trkpt lat="47.62754" lon="6.81518">
        <ele>404.4696</ele>
        <time>2012-09-30T06:17:50Z</time>
      </trkpt>
      <trkpt lat="47.62754" lon="6.81514">
        <ele>405.384</ele>
        <time>2012-09-30T06:17:53Z</time>
      </trkpt>
      <trkpt lat="47.62752" lon="6.81511">
        <ele>405.6888</ele>
        <time>2012-09-30T06:17:54Z</time>
      </trkpt>
      <trkpt lat="47.6275" lon="6.81507">
        <ele>406.908</ele>
        <time>2012-09-30T06:17:57Z</time>
      </trkpt>
      <trkpt lat="47.62749" lon="6.81505">
        <ele>407.8224</ele>
        <time>2012-09-30T06:17:58Z</time>
      </trkpt>
      <trkpt lat="47.62748" lon="6.81502">
        <ele>408.432</ele>
        <time>2012-09-30T06:18:01Z</time>
      </trkpt>
      <trkpt lat="47.62746" lon="6.81499">
        <ele>408.7368</ele>
        <time>2012-09-30T06:18:02Z</time>
      </trkpt>
      <trkpt lat="47.62745" lon="6.81496">
        <ele>409.0416</ele>
        <time>2012-09-30T06:18:05Z</time>
      </trkpt>
      <trkpt lat="47.62737" lon="6.81484">
        <ele>412.6992</ele>
        <time>2012-09-30T06:19:33Z</time>
      </trkpt>
      <trkpt lat="47.62737" lon="6.81481">
        <ele>413.3088</ele>
        <time>2012-09-30T06:19:35Z</time>
      </trkpt>
      <trkpt lat="47.62738" lon="6.81478">
        <ele>413.3088</ele>
        <time>2012-09-30T06:19:38Z</time>
      </trkpt>
      <trkpt lat="47.62741" lon="6.81475">
        <ele>413.9184</ele>
        <time>2012-09-30T06:19:39Z</time>
      </trkpt>
      <trkpt lat="47.62743" lon="6.81471">
        <ele>413.3088</ele>
        <time>2012-09-30T06:19:42Z</time>
      </trkpt>
      <trkpt lat="47.62746" lon="6.81469">
        <ele>413.6136</ele>
        <time>2012-09-30T06:19:43Z</time>
      </trkpt>
      <trkpt lat="47.62747" lon="6.81467">
        <ele>414.2232</ele>
        <time>2012-09-30T06:19:46Z</time>
      </trkpt>
      <trkpt lat="47.62749" lon="6.81466">
        <ele>415.7472</ele>
        <time>2012-09-30T06:19:47Z</time>
      </trkpt>
      <trkpt lat="47.62751" lon="6.81464">
        <ele>416.9664</ele>
        <time>2012-09-30T06:19:49Z</time>
      </trkpt>
      <trkpt lat="47.62753" lon="6.81463">
        <ele>418.1856</ele>
        <time>2012-09-30T06:19:52Z</time>
      </trkpt>
      <trkpt lat="47.62756" lon="6.8146">
        <ele>419.1</ele>
        <time>2012-09-30T06:19:53Z</time>
      </trkpt>
      <trkpt lat="47.62758" lon="6.81456">
        <ele>419.1</ele>
        <time>2012-09-30T06:19:56Z</time>
      </trkpt>
      <trkpt lat="47.6276" lon="6.81453">
        <ele>419.4048</ele>
        <time>2012-09-30T06:19:57Z</time>
      </trkpt>
      <trkpt lat="47.62762" lon="6.81451">
        <ele>419.4048</ele>
        <time>2012-09-30T06:20:00Z</time>
      </trkpt>
      <trkpt lat="47.62764" lon="6.81449">
        <ele>419.7096</ele>
        <time>2012-09-30T06:20:01Z</time>
      </trkpt>
      <trkpt lat="47.62766" lon="6.81446">
        <ele>419.4048</ele>
        <time>2012-09-30T06:20:04Z</time>
      </trkpt>
      <trkpt lat="47.62767" lon="6.81442">
        <ele>419.4048</ele>
        <time>2012-09-30T06:20:05Z</time>
      </trkpt>
      <trkpt lat="47.62772" lon="6.81434">
        <ele>423.3672</ele>
        <time>2012-09-30T06:20:14Z</time>
      </trkpt>
      <trkpt lat="47.62773" lon="6.81431">
        <ele>423.672</ele>
        <time>2012-09-30T06:20:17Z</time>
      </trkpt>
      <trkpt lat="47.62775" lon="6.81428">
        <ele>425.196</ele>
        <time>2012-09-30T06:20:20Z</time>
      </trkpt>
      <trkpt lat="47.62777" lon="6.81425">
        <ele>425.5008</ele>
        <time>2012-09-30T06:20:21Z</time>
      </trkpt>
      <trkpt lat="47.62779" lon="6.81423">
        <ele>428.5488</ele>
        <time>2012-09-30T06:20:27Z</time>
      </trkpt>
      <trkpt lat="47.62781" lon="6.81422">
        <ele>428.244</ele>
        <time>2012-09-30T06:20:28Z</time>
      </trkpt>
      <trkpt lat="47.62783" lon="6.81419">
        <ele>427.6344</ele>
        <time>2012-09-30T06:20:31Z</time>
      </trkpt>
      <trkpt lat="47.62785" lon="6.81416">
        <ele>427.0248</ele>
        <time>2012-09-30T06:20:32Z</time>
      </trkpt>
      <trkpt lat="47.62788" lon="6.81412">
        <ele>426.72</ele>
        <time>2012-09-30T06:20:35Z</time>
      </trkpt>
      <trkpt lat="47.62791" lon="6.81409">
        <ele>426.4152</ele>
        <time>2012-09-30T06:20:36Z</time>
      </trkpt>
      <trkpt lat="47.62794" lon="6.81407">
        <ele>426.72</ele>
        <time>2012-09-30T06:20:39Z</time>
      </trkpt>
      <trkpt lat="47.62796" lon="6.81407">
        <ele>427.3296</ele>
        <time>2012-09-30T06:20:40Z</time>
      </trkpt>
      <trkpt lat="47.62798" lon="6.81406">
        <ele>429.1584</ele>
        <time>2012-09-30T06:20:43Z</time>
      </trkpt>
      <trkpt lat="47.628" lon="6.81404">
        <ele>430.0728</ele>
        <time>2012-09-30T06:20:44Z</time>
      </trkpt>
      <trkpt lat="47.62803" lon="6.814">
        <ele>430.6824</ele>
        <time>2012-09-30T06:20:47Z</time>
      </trkpt>
      <trkpt lat="47.62806" lon="6.81397">
        <ele>431.292</ele>
        <time>2012-09-30T06:20:48Z</time>
      </trkpt>
      <trkpt lat="47.62809" lon="6.81394">
        <ele>431.9016</ele>
        <time>2012-09-30T06:20:51Z</time>
      </trkpt>
      <trkpt lat="47.62811" lon="6.81389">
        <ele>431.9016</ele>
        <time>2012-09-30T06:20:52Z</time>
      </trkpt>
      <trkpt lat="47.62814" lon="6.81385">
        <ele>432.2064</ele>
        <time>2012-09-30T06:20:55Z</time>
      </trkpt>
      <trkpt lat="47.62816" lon="6.81381">
        <ele>431.5968</ele>
        <time>2012-09-30T06:20:56Z</time>
      </trkpt>
      <trkpt lat="47.62818" lon="6.81377">
        <ele>431.292</ele>
        <time>2012-09-30T06:20:59Z</time>
      </trkpt>
      <trkpt lat="47.6282" lon="6.81375">
        <ele>430.6824</ele>
        <time>2012-09-30T06:21:00Z</time>
      </trkpt>
      <trkpt lat="47.62822" lon="6.81372">
        <ele>430.3776</ele>
        <time>2012-09-30T06:21:03Z</time>
      </trkpt>
      <trkpt lat="47.62823" lon="6.81369">
        <ele>430.0728</ele>
        <time>2012-09-30T06:21:04Z</time>
      </trkpt>
      <trkpt lat="47.62825" lon="6.81365">
        <ele>429.768</ele>
        <time>2012-09-30T06:21:07Z</time>
      </trkpt>
      <trkpt lat="47.62826" lon="6.81358">
        <ele>428.5488</ele>
        <time>2012-09-30T06:21:09Z</time>
      </trkpt>
      <trkpt lat="47.62826" lon="6.81351">
        <ele>427.6344</ele>
        <time>2012-09-30T06:21:10Z</time>
      </trkpt>
      <trkpt lat="47.62826" lon="6.81346">
        <ele>427.3296</ele>
        <time>2012-09-30T06:21:13Z</time>
      </trkpt>
      <trkpt lat="47.62826" lon="6.81341">
        <ele>427.3296</ele>
        <time>2012-09-30T06:21:14Z</time>
      </trkpt>
      <trkpt lat="47.62827" lon="6.81336">
        <ele>427.3296</ele>
        <time>2012-09-30T06:21:17Z</time>
      </trkpt>
      <trkpt lat="47.62826" lon="6.8133">
        <ele>426.1104</ele>
        <time>2012-09-30T06:21:18Z</time>
      </trkpt>
      <trkpt lat="47.62826" lon="6.81325">
        <ele>425.8056</ele>
        <time>2012-09-30T06:21:21Z</time>
      </trkpt>
      <trkpt lat="47.62826" lon="6.81319">
        <ele>425.5008</ele>
        <time>2012-09-30T06:21:22Z</time>
      </trkpt>
      <trkpt lat="47.62827" lon="6.81315">
        <ele>425.196</ele>
        <time>2012-09-30T06:21:25Z</time>
      </trkpt>
      <trkpt lat="47.62828" lon="6.8131">
        <ele>424.8912</ele>
        <time>2012-09-30T06:21:26Z</time>
      </trkpt>
      <trkpt lat="47.62829" lon="6.81305">
        <ele>424.2816</ele>
        <time>2012-09-30T06:21:29Z</time>
      </trkpt>
      <trkpt lat="47.62831" lon="6.813">
        <ele>424.5864</ele>
        <time>2012-09-30T06:21:30Z</time>
      </trkpt>
      <trkpt lat="47.62832" lon="6.81295">
        <ele>424.2816</ele>
        <time>2012-09-30T06:21:33Z</time>
      </trkpt>
      <trkpt lat="47.62833" lon="6.8129">
        <ele>424.5864</ele>
        <time>2012-09-30T06:21:34Z</time>
      </trkpt>
      <trkpt lat="47.62833" lon="6.81285">
        <ele>424.2816</ele>
        <time>2012-09-30T06:21:37Z</time>
      </trkpt>
      <trkpt lat="47.62834" lon="6.81281">
        <ele>423.672</ele>
        <time>2012-09-30T06:21:38Z</time>
      </trkpt>
      <trkpt lat="47.62834" lon="6.81277">
        <ele>423.3672</ele>
        <time>2012-09-30T06:21:41Z</time>
      </trkpt>
      <trkpt lat="47.62835" lon="6.81272">
        <ele>424.5864</ele>
        <time>2012-09-30T06:21:42Z</time>
      </trkpt>
      <trkpt lat="47.62836" lon="6.81268">
        <ele>425.8056</ele>
        <time>2012-09-30T06:21:45Z</time>
      </trkpt>
      <trkpt lat="47.62835" lon="6.81264">
        <ele>426.72</ele>
        <time>2012-09-30T06:21:46Z</time>
      </trkpt>
      <trkpt lat="47.62836" lon="6.81261">
        <ele>427.3296</ele>
        <time>2012-09-30T06:21:49Z</time>
      </trkpt>
      <trkpt lat="47.62835" lon="6.81258">
        <ele>428.244</ele>
        <time>2012-09-30T06:21:50Z</time>
      </trkpt>
      <trkpt lat="47.62835" lon="6.81255">
        <ele>429.4632</ele>
        <time>2012-09-30T06:21:53Z</time>
      </trkpt>
      <trkpt lat="47.62836" lon="6.81251">
        <ele>431.5968</ele>
        <time>2012-09-30T06:21:54Z</time>
      </trkpt>
      <trkpt lat="47.62837" lon="6.81248">
        <ele>432.816</ele>
        <time>2012-09-30T06:21:57Z</time>
      </trkpt>
      <trkpt lat="47.62839" lon="6.81244">
        <ele>433.7304</ele>
        <time>2012-09-30T06:21:58Z</time>
      </trkpt>
      <trkpt lat="47.6284" lon="6.81239">
        <ele>434.34</ele>
        <time>2012-09-30T06:22:01Z</time>
      </trkpt>
      <trkpt lat="47.6284" lon="6.81233">
        <ele>434.0352</ele>
        <time>2012-09-30T06:22:03Z</time>
      </trkpt>
      <trkpt lat="47.6284" lon="6.81228">
        <ele>434.0352</ele>
        <time>2012-09-30T06:22:04Z</time>
      </trkpt>
      <trkpt lat="47.62839" lon="6.81223">
        <ele>433.1208</ele>
        <time>2012-09-30T06:22:07Z</time>
      </trkpt>
      <trkpt lat="47.62839" lon="6.81219">
        <ele>433.1208</ele>
        <time>2012-09-30T06:22:08Z</time>
      </trkpt>
      <trkpt lat="47.62838" lon="6.81214">
        <ele>433.1208</ele>
        <time>2012-09-30T06:22:11Z</time>
      </trkpt>
      <trkpt lat="47.62839" lon="6.8121">
        <ele>434.0352</ele>
        <time>2012-09-30T06:22:12Z</time>
      </trkpt>
      <trkpt lat="47.62839" lon="6.81205">
        <ele>434.6448</ele>
        <time>2012-09-30T06:22:15Z</time>
      </trkpt>
      <trkpt lat="47.6284" lon="6.812">
        <ele>435.5592</ele>
        <time>2012-09-30T06:22:16Z</time>
      </trkpt>
      <trkpt lat="47.6284" lon="6.81197">
        <ele>436.7784</ele>
        <time>2012-09-30T06:22:19Z</time>
      </trkpt>
      <trkpt lat="47.62841" lon="6.81195">
        <ele>438.3024</ele>
        <time>2012-09-30T06:22:20Z</time>
      </trkpt>
      <trkpt lat="47.62841" lon="6.81192">
        <ele>437.6928</ele>
        <time>2012-09-30T06:22:23Z</time>
      </trkpt>
      <trkpt lat="47.6284" lon="6.81188">
        <ele>437.6928</ele>
        <time>2012-09-30T06:22:24Z</time>
      </trkpt>
      <trkpt lat="47.6284" lon="6.81184">
        <ele>439.5216</ele>
        <time>2012-09-30T06:22:27Z</time>
      </trkpt>
      <trkpt lat="47.62839" lon="6.8118">
        <ele>441.0456</ele>
        <time>2012-09-30T06:22:28Z</time>
      </trkpt>
      <trkpt lat="47.62835" lon="6.81173">
        <ele>437.6928</ele>
        <time>2012-09-30T06:22:36Z</time>
      </trkpt>
      <trkpt lat="47.62834" lon="6.81171">
        <ele>438.3024</ele>
        <time>2012-09-30T06:22:39Z</time>
      </trkpt>
      <trkpt lat="47.62832" lon="6.81168">
        <ele>437.9976</ele>
        <time>2012-09-30T06:22:40Z</time>
      </trkpt>
      <trkpt lat="47.62831" lon="6.81166">
        <ele>438.6072</ele>
        <time>2012-09-30T06:22:43Z</time>
      </trkpt>
      <trkpt lat="47.6283" lon="6.81163">
        <ele>439.5216</ele>
        <time>2012-09-30T06:22:44Z</time>
      </trkpt>
      <trkpt lat="47.62826" lon="6.81158">
        <ele>441.3504</ele>
        <time>2012-09-30T06:22:57Z</time>
      </trkpt>
      <trkpt lat="47.62824" lon="6.81155">
        <ele>441.6552</ele>
        <time>2012-09-30T06:22:58Z</time>
      </trkpt>
      <trkpt lat="47.62822" lon="6.81151">
        <ele>442.2648</ele>
        <time>2012-09-30T06:23:01Z</time>
      </trkpt>
      <trkpt lat="47.62821" lon="6.81147">
        <ele>442.8744</ele>
        <time>2012-09-30T06:23:02Z</time>
      </trkpt>
      <trkpt lat="47.62818" lon="6.81143">
        <ele>442.8744</ele>
        <time>2012-09-30T06:23:05Z</time>
      </trkpt>
      <trkpt lat="47.62816" lon="6.81141">
        <ele>444.0936</ele>
        <time>2012-09-30T06:23:06Z</time>
      </trkpt>
      <trkpt lat="47.62815" lon="6.81138">
        <ele>445.3128</ele>
        <time>2012-09-30T06:23:09Z</time>
      </trkpt>
      <trkpt lat="47.62813" lon="6.81136">
        <ele>446.2272</ele>
        <time>2012-09-30T06:23:10Z</time>
      </trkpt>
      <trkpt lat="47.62811" lon="6.81134">
        <ele>448.3608</ele>
        <time>2012-09-30T06:23:13Z</time>
      </trkpt>
      <trkpt lat="47.62812" lon="6.81133">
        <ele>452.628</ele>
        <time>2012-09-30T06:23:14Z</time>
      </trkpt>
      <trkpt lat="47.62811" lon="6.81131">
        <ele>454.152</ele>
        <time>2012-09-30T06:23:17Z</time>
      </trkpt>
      <trkpt lat="47.62811" lon="6.81128">
        <ele>456.8952</ele>
        <time>2012-09-30T06:23:18Z</time>
      </trkpt>
      <trkpt lat="47.6281" lon="6.81124">
        <ele>458.724</ele>
        <time>2012-09-30T06:23:21Z</time>
      </trkpt>
      <trkpt lat="47.62808" lon="6.81122">
        <ele>460.248</ele>
        <time>2012-09-30T06:23:22Z</time>
      </trkpt>
      <trkpt lat="47.62806" lon="6.81119">
        <ele>460.8576</ele>
        <time>2012-09-30T06:23:25Z</time>
      </trkpt>
      <trkpt lat="47.62803" lon="6.81116">
        <ele>459.9432</ele>
        <time>2012-09-30T06:23:26Z</time>
      </trkpt>
      <trkpt lat="47.62802" lon="6.81114">
        <ele>460.8576</ele>
        <time>2012-09-30T06:23:29Z</time>
      </trkpt>
      <trkpt lat="47.62801" lon="6.81111">
        <ele>461.772</ele>
        <time>2012-09-30T06:23:30Z</time>
      </trkpt>
      <trkpt lat="47.62797" lon="6.81106">
        <ele>459.3336</ele>
        <time>2012-09-30T06:23:33Z</time>
      </trkpt>
      <trkpt lat="47.62796" lon="6.81103">
        <ele>459.9432</ele>
        <time>2012-09-30T06:23:34Z</time>
      </trkpt>
      <trkpt lat="47.62794" lon="6.81101">
        <ele>460.8576</ele>
        <time>2012-09-30T06:23:37Z</time>
      </trkpt>
      <trkpt lat="47.62793" lon="6.81098">
        <ele>462.6864</ele>
        <time>2012-09-30T06:23:38Z</time>
      </trkpt>
      <trkpt lat="47.6279" lon="6.81095">
        <ele>462.6864</ele>
        <time>2012-09-30T06:23:41Z</time>
      </trkpt>
      <trkpt lat="47.62787" lon="6.81091">
        <ele>460.8576</ele>
        <time>2012-09-30T06:23:42Z</time>
      </trkpt>
      <trkpt lat="47.62782" lon="6.81088">
        <ele>457.8096</ele>
        <time>2012-09-30T06:23:45Z</time>
      </trkpt>
      <trkpt lat="47.62777" lon="6.81086">
        <ele>454.4568</ele>
        <time>2012-09-30T06:23:46Z</time>
      </trkpt>
      <trkpt lat="47.62773" lon="6.81081">
        <ele>452.3232</ele>
        <time>2012-09-30T06:23:49Z</time>
      </trkpt>
      <trkpt lat="47.6277" lon="6.81078">
        <ele>451.104</ele>
        <time>2012-09-30T06:23:51Z</time>
      </trkpt>
      <trkpt lat="47.62767" lon="6.81074">
        <ele>451.104</ele>
        <time>2012-09-30T06:23:52Z</time>
      </trkpt>
      <trkpt lat="47.62766" lon="6.8107">
        <ele>451.4088</ele>
        <time>2012-09-30T06:23:55Z</time>
      </trkpt>
      <trkpt lat="47.62764" lon="6.81066">
        <ele>452.3232</ele>
        <time>2012-09-30T06:23:56Z</time>
      </trkpt>
      <trkpt lat="47.62762" lon="6.81064">
        <ele>453.5424</ele>
        <time>2012-09-30T06:23:59Z</time>
      </trkpt>
      <trkpt lat="47.62761" lon="6.81062">
        <ele>455.0664</ele>
        <time>2012-09-30T06:24:00Z</time>
      </trkpt>
      <trkpt lat="47.62758" lon="6.81058">
        <ele>457.2</ele>
        <time>2012-09-30T06:24:04Z</time>
      </trkpt>
      <trkpt lat="47.62758" lon="6.81055">
        <ele>459.6384</ele>
        <time>2012-09-30T06:24:07Z</time>
      </trkpt>
      <trkpt lat="47.62757" lon="6.81051">
        <ele>461.772</ele>
        <time>2012-09-30T06:24:08Z</time>
      </trkpt>
      <trkpt lat="47.62756" lon="6.81047">
        <ele>463.9056</ele>
        <time>2012-09-30T06:24:11Z</time>
      </trkpt>
      <trkpt lat="47.62755" lon="6.81045">
        <ele>465.7344</ele>
        <time>2012-09-30T06:24:12Z</time>
      </trkpt>
      <trkpt lat="47.62753" lon="6.81042">
        <ele>467.868</ele>
        <time>2012-09-30T06:24:15Z</time>
      </trkpt>
      <trkpt lat="47.62752" lon="6.81038">
        <ele>469.392</ele>
        <time>2012-09-30T06:24:16Z</time>
      </trkpt>
      <trkpt lat="47.62751" lon="6.81034">
        <ele>470.916</ele>
        <time>2012-09-30T06:24:19Z</time>
      </trkpt>
      <trkpt lat="47.6275" lon="6.8103">
        <ele>473.0496</ele>
        <time>2012-09-30T06:24:20Z</time>
      </trkpt>
      <trkpt lat="47.62748" lon="6.81026">
        <ele>473.964</ele>
        <time>2012-09-30T06:24:23Z</time>
      </trkpt>
      <trkpt lat="47.62748" lon="6.81021">
        <ele>474.5736</ele>
        <time>2012-09-30T06:24:24Z</time>
      </trkpt>
      <trkpt lat="47.62748" lon="6.81016">
        <ele>476.0976</ele>
        <time>2012-09-30T06:24:27Z</time>
      </trkpt>
      <trkpt lat="47.62748" lon="6.8101">
        <ele>477.012</ele>
        <time>2012-09-30T06:24:28Z</time>
      </trkpt>
      <trkpt lat="47.62748" lon="6.81003">
        <ele>478.2312</ele>
        <time>2012-09-30T06:24:31Z</time>
      </trkpt>
      <trkpt lat="47.62747" lon="6.80996">
        <ele>477.012</ele>
        <time>2012-09-30T06:24:32Z</time>
      </trkpt>
      <trkpt lat="47.62745" lon="6.80991">
        <ele>477.3168</ele>
        <time>2012-09-30T06:24:35Z</time>
      </trkpt>
      <trkpt lat="47.62743" lon="6.80984">
        <ele>476.0976</ele>
        <time>2012-09-30T06:24:36Z</time>
      </trkpt>
      <trkpt lat="47.62741" lon="6.80976">
        <ele>474.2688</ele>
        <time>2012-09-30T06:24:39Z</time>
      </trkpt>
      <trkpt lat="47.62738" lon="6.8097">
        <ele>472.7448</ele>
        <time>2012-09-30T06:24:40Z</time>
      </trkpt>
      <trkpt lat="47.62736" lon="6.80965">
        <ele>471.2208</ele>
        <time>2012-09-30T06:24:43Z</time>
      </trkpt>
      <trkpt lat="47.62734" lon="6.80959">
        <ele>471.5256</ele>
        <time>2012-09-30T06:24:45Z</time>
      </trkpt>
      <trkpt lat="47.62732" lon="6.80953">
        <ele>470.0016</ele>
        <time>2012-09-30T06:24:46Z</time>
      </trkpt>
      <trkpt lat="47.62731" lon="6.80947">
        <ele>470.916</ele>
        <time>2012-09-30T06:24:49Z</time>
      </trkpt>
      <trkpt lat="47.62729" lon="6.80944">
        <ele>471.5256</ele>
        <time>2012-09-30T06:24:50Z</time>
      </trkpt>
      <trkpt lat="47.62728" lon="6.8094">
        <ele>472.7448</ele>
        <time>2012-09-30T06:24:53Z</time>
      </trkpt>
      <trkpt lat="47.62726" lon="6.80932">
        <ele>471.8304</ele>
        <time>2012-09-30T06:24:54Z</time>
      </trkpt>
      <trkpt lat="47.62726" lon="6.80926">
        <ele>473.6592</ele>
        <time>2012-09-30T06:24:57Z</time>
      </trkpt>
      <trkpt lat="47.62724" lon="6.8092">
        <ele>473.0496</ele>
        <time>2012-09-30T06:24:58Z</time>
      </trkpt>
      <trkpt lat="47.62724" lon="6.80913">
        <ele>473.6592</ele>
        <time>2012-09-30T06:25:01Z</time>
      </trkpt>
      <trkpt lat="47.62724" lon="6.80906">
        <ele>473.3544</ele>
        <time>2012-09-30T06:25:02Z</time>
      </trkpt>
      <trkpt lat="47.62723" lon="6.80899">
        <ele>472.7448</ele>
        <time>2012-09-30T06:25:05Z</time>
      </trkpt>
      <trkpt lat="47.62721" lon="6.80893">
        <ele>473.3544</ele>
        <time>2012-09-30T06:25:06Z</time>
      </trkpt>
      <trkpt lat="47.62719" lon="6.80886">
        <ele>472.44</ele>
        <time>2012-09-30T06:25:09Z</time>
      </trkpt>
      <trkpt lat="47.62718" lon="6.80879">
        <ele>471.5256</ele>
        <time>2012-09-30T06:25:10Z</time>
      </trkpt>
      <trkpt lat="47.62717" lon="6.80872">
        <ele>471.5256</ele>
        <time>2012-09-30T06:25:13Z</time>
      </trkpt>
      <trkpt lat="47.62714" lon="6.80864">
        <ele>469.6968</ele>
        <time>2012-09-30T06:25:14Z</time>
      </trkpt>
      <trkpt lat="47.62711" lon="6.80858">
        <ele>467.868</ele>
        <time>2012-09-30T06:25:17Z</time>
      </trkpt>
      <trkpt lat="47.62709" lon="6.80851">
        <ele>466.6488</ele>
        <time>2012-09-30T06:25:18Z</time>
      </trkpt>
      <trkpt lat="47.62709" lon="6.80844">
        <ele>467.2584</ele>
        <time>2012-09-30T06:25:21Z</time>
      </trkpt>
      <trkpt lat="47.62709" lon="6.80837">
        <ele>467.5632</ele>
        <time>2012-09-30T06:25:22Z</time>
      </trkpt>
      <trkpt lat="47.62709" lon="6.80831">
        <ele>469.0872</ele>
        <time>2012-09-30T06:25:25Z</time>
      </trkpt>
      <trkpt lat="47.62707" lon="6.80825">
        <ele>468.4776</ele>
        <time>2012-09-30T06:25:26Z</time>
      </trkpt>
      <trkpt lat="47.62706" lon="6.8082">
        <ele>468.7824</ele>
        <time>2012-09-30T06:25:29Z</time>
      </trkpt>
      <trkpt lat="47.62707" lon="6.80814">
        <ele>470.916</ele>
        <time>2012-09-30T06:25:30Z</time>
      </trkpt>
      <trkpt lat="47.62706" lon="6.80806">
        <ele>470.916</ele>
        <time>2012-09-30T06:25:33Z</time>
      </trkpt>
      <trkpt lat="47.62707" lon="6.80798">
        <ele>472.44</ele>
        <time>2012-09-30T06:25:34Z</time>
      </trkpt>
      <trkpt lat="47.62708" lon="6.80788">
        <ele>473.0496</ele>
        <time>2012-09-30T06:25:37Z</time>
      </trkpt>
      <trkpt lat="47.62707" lon="6.80779">
        <ele>473.964</ele>
        <time>2012-09-30T06:25:39Z</time>
      </trkpt>
      <trkpt lat="47.62707" lon="6.8077">
        <ele>474.2688</ele>
        <time>2012-09-30T06:25:40Z</time>
      </trkpt>
      <trkpt lat="47.62706" lon="6.80762">
        <ele>473.3544</ele>
        <time>2012-09-30T06:25:43Z</time>
      </trkpt>
      <trkpt lat="47.62705" lon="6.80754">
        <ele>472.7448</ele>
        <time>2012-09-30T06:25:44Z</time>
      </trkpt>
      <trkpt lat="47.62706" lon="6.80746">
        <ele>472.44</ele>
        <time>2012-09-30T06:25:47Z</time>
      </trkpt>
      <trkpt lat="47.62705" lon="6.80739">
        <ele>471.2208</ele>
        <time>2012-09-30T06:25:48Z</time>
      </trkpt>
      <trkpt lat="47.62704" lon="6.80734">
        <ele>471.8304</ele>
        <time>2012-09-30T06:25:51Z</time>
      </trkpt>
      <trkpt lat="47.62703" lon="6.80726">
        <ele>470.6112</ele>
        <time>2012-09-30T06:25:52Z</time>
      </trkpt>
      <trkpt lat="47.62702" lon="6.80718">
        <ele>470.0016</ele>
        <time>2012-09-30T06:25:55Z</time>
      </trkpt>
      <trkpt lat="47.62702" lon="6.80709">
        <ele>470.0016</ele>
        <time>2012-09-30T06:25:56Z</time>
      </trkpt>
      <trkpt lat="47.627" lon="6.807">
        <ele>469.6968</ele>
        <time>2012-09-30T06:25:59Z</time>
      </trkpt>
      <trkpt lat="47.62699" lon="6.80693">
        <ele>469.392</ele>
        <time>2012-09-30T06:26:00Z</time>
      </trkpt>
      <trkpt lat="47.62699" lon="6.80687">
        <ele>470.0016</ele>
        <time>2012-09-30T06:26:03Z</time>
      </trkpt>
      <trkpt lat="47.62699" lon="6.80681">
        <ele>470.916</ele>
        <time>2012-09-30T06:26:04Z</time>
      </trkpt>
      <trkpt lat="47.62696" lon="6.80673">
        <ele>469.6968</ele>
        <time>2012-09-30T06:26:07Z</time>
      </trkpt>
      <trkpt lat="47.62694" lon="6.80665">
        <ele>466.6488</ele>
        <time>2012-09-30T06:26:08Z</time>
      </trkpt>
      <trkpt lat="47.62694" lon="6.80659">
        <ele>466.9536</ele>
        <time>2012-09-30T06:26:11Z</time>
      </trkpt>
      <trkpt lat="47.62692" lon="6.80652">
        <ele>466.6488</ele>
        <time>2012-09-30T06:26:12Z</time>
      </trkpt>
      <trkpt lat="47.62692" lon="6.80646">
        <ele>466.6488</ele>
        <time>2012-09-30T06:26:15Z</time>
      </trkpt>
      <trkpt lat="47.62691" lon="6.80642">
        <ele>467.868</ele>
        <time>2012-09-30T06:26:16Z</time>
      </trkpt>
      <trkpt lat="47.6269" lon="6.80637">
        <ele>467.868</ele>
        <time>2012-09-30T06:26:19Z</time>
      </trkpt>
      <trkpt lat="47.62689" lon="6.80632">
        <ele>469.6968</ele>
        <time>2012-09-30T06:26:20Z</time>
      </trkpt>
      <trkpt lat="47.62689" lon="6.80626">
        <ele>469.392</ele>
        <time>2012-09-30T06:26:23Z</time>
      </trkpt>
      <trkpt lat="47.62688" lon="6.8062">
        <ele>469.6968</ele>
        <time>2012-09-30T06:26:24Z</time>
      </trkpt>
      <trkpt lat="47.62688" lon="6.80615">
        <ele>470.916</ele>
        <time>2012-09-30T06:26:27Z</time>
      </trkpt>
      <trkpt lat="47.62687" lon="6.8061">
        <ele>471.5256</ele>
        <time>2012-09-30T06:26:28Z</time>
      </trkpt>
      <trkpt lat="47.62687" lon="6.80605">
        <ele>472.7448</ele>
        <time>2012-09-30T06:26:31Z</time>
      </trkpt>
      <trkpt lat="47.62687" lon="6.80602">
        <ele>474.2688</ele>
        <time>2012-09-30T06:26:33Z</time>
      </trkpt>
      <trkpt lat="47.62686" lon="6.80599">
        <ele>474.5736</ele>
        <time>2012-09-30T06:26:34Z</time>
      </trkpt>
      <trkpt lat="47.62685" lon="6.80594">
        <ele>474.2688</ele>
        <time>2012-09-30T06:26:37Z</time>
      </trkpt>
      <trkpt lat="47.62685" lon="6.80589">
        <ele>475.7928</ele>
        <time>2012-09-30T06:26:38Z</time>
      </trkpt>
      <trkpt lat="47.62682" lon="6.80582">
        <ele>473.964</ele>
        <time>2012-09-30T06:26:41Z</time>
      </trkpt>
      <trkpt lat="47.6268" lon="6.80576">
        <ele>473.964</ele>
        <time>2012-09-30T06:26:42Z</time>
      </trkpt>
      <trkpt lat="47.62679" lon="6.80572">
        <ele>473.964</ele>
        <time>2012-09-30T06:26:45Z</time>
      </trkpt>
      <trkpt lat="47.62678" lon="6.80568">
        <ele>474.2688</ele>
        <time>2012-09-30T06:26:46Z</time>
      </trkpt>
      <trkpt lat="47.62675" lon="6.80565">
        <ele>473.6592</ele>
        <time>2012-09-30T06:26:49Z</time>
      </trkpt>
      <trkpt lat="47.62674" lon="6.8056">
        <ele>473.0496</ele>
        <time>2012-09-30T06:26:50Z</time>
      </trkpt>
      <trkpt lat="47.62673" lon="6.80556">
        <ele>471.2208</ele>
        <time>2012-09-30T06:26:53Z</time>
      </trkpt>
      <trkpt lat="47.62672" lon="6.80553">
        <ele>471.5256</ele>
        <time>2012-09-30T06:26:54Z</time>
      </trkpt>
      <trkpt lat="47.62671" lon="6.80551">
        <ele>472.1352</ele>
        <time>2012-09-30T06:26:57Z</time>
      </trkpt>
      <trkpt lat="47.6267" lon="6.80547">
        <ele>470.916</ele>
        <time>2012-09-30T06:26:58Z</time>
      </trkpt>
      <trkpt lat="47.6267" lon="6.80544">
        <ele>471.2208</ele>
        <time>2012-09-30T06:27:01Z</time>
      </trkpt>
      <trkpt lat="47.6267" lon="6.80541">
        <ele>471.8304</ele>
        <time>2012-09-30T06:27:02Z</time>
      </trkpt>
      <trkpt lat="47.62669" lon="6.80538">
        <ele>472.1352</ele>
        <time>2012-09-30T06:27:05Z</time>
      </trkpt>
      <trkpt lat="47.62668" lon="6.80535">
        <ele>472.7448</ele>
        <time>2012-09-30T06:27:06Z</time>
      </trkpt>
      <trkpt lat="47.62668" lon="6.80533">
        <ele>475.1832</ele>
        <time>2012-09-30T06:27:09Z</time>
      </trkpt>
      <trkpt lat="47.62654" lon="6.80503">
        <ele>481.8888</ele>
        <time>2012-09-30T06:27:55Z</time>
      </trkpt>
      <trkpt lat="47.62652" lon="6.80505">
        <ele>482.1936</ele>
        <time>2012-09-30T06:27:58Z</time>
      </trkpt>
      <trkpt lat="47.62643" lon="6.80501">
        <ele>478.2312</ele>
        <time>2012-09-30T06:28:07Z</time>
      </trkpt>
      <trkpt lat="47.62621" lon="6.80488">
        <ele>480.3648</ele>
        <time>2012-09-30T06:28:50Z</time>
      </trkpt>
      <trkpt lat="47.62621" lon="6.80483">
        <ele>479.4504</ele>
        <time>2012-09-30T06:28:53Z</time>
      </trkpt>
      <trkpt lat="47.62621" lon="6.80479">
        <ele>478.536</ele>
        <time>2012-09-30T06:28:54Z</time>
      </trkpt>
      <trkpt lat="47.6262" lon="6.80472">
        <ele>477.012</ele>
        <time>2012-09-30T06:28:57Z</time>
      </trkpt>
      <trkpt lat="47.62621" lon="6.80465">
        <ele>474.8784</ele>
        <time>2012-09-30T06:28:58Z</time>
      </trkpt>
      <trkpt lat="47.62622" lon="6.80458">
        <ele>473.0496</ele>
        <time>2012-09-30T06:29:01Z</time>
      </trkpt>
      <trkpt lat="47.62623" lon="6.8045">
        <ele>471.2208</ele>
        <time>2012-09-30T06:29:02Z</time>
      </trkpt>
      <trkpt lat="47.62622" lon="6.80442">
        <ele>470.0016</ele>
        <time>2012-09-30T06:29:05Z</time>
      </trkpt>
      <trkpt lat="47.62622" lon="6.80434">
        <ele>468.7824</ele>
        <time>2012-09-30T06:29:06Z</time>
      </trkpt>
      <trkpt lat="47.62622" lon="6.80426">
        <ele>467.868</ele>
        <time>2012-09-30T06:29:09Z</time>
      </trkpt>
      <trkpt lat="47.62621" lon="6.80417">
        <ele>466.9536</ele>
        <time>2012-09-30T06:29:10Z</time>
      </trkpt>
      <trkpt lat="47.6262" lon="6.80408">
        <ele>466.344</ele>
        <time>2012-09-30T06:29:13Z</time>
      </trkpt>
      <trkpt lat="47.62619" lon="6.80399">
        <ele>466.0392</ele>
        <time>2012-09-30T06:29:14Z</time>
      </trkpt>
      <trkpt lat="47.62618" lon="6.8039">
        <ele>465.7344</ele>
        <time>2012-09-30T06:29:16Z</time>
      </trkpt>
      <trkpt lat="47.62617" lon="6.80381">
        <ele>465.4296</ele>
        <time>2012-09-30T06:29:19Z</time>
      </trkpt>
      <trkpt lat="47.62617" lon="6.80373">
        <ele>465.1248</ele>
        <time>2012-09-30T06:29:20Z</time>
      </trkpt>
      <trkpt lat="47.62616" lon="6.80366">
        <ele>465.1248</ele>
        <time>2012-09-30T06:29:23Z</time>
      </trkpt>
      <trkpt lat="47.62615" lon="6.80359">
        <ele>465.4296</ele>
        <time>2012-09-30T06:29:24Z</time>
      </trkpt>
      <trkpt lat="47.62614" lon="6.80351">
        <ele>465.7344</ele>
        <time>2012-09-30T06:29:27Z</time>
      </trkpt>
      <trkpt lat="47.62613" lon="6.80343">
        <ele>465.7344</ele>
        <time>2012-09-30T06:29:28Z</time>
      </trkpt>
      <trkpt lat="47.62612" lon="6.80336">
        <ele>466.0392</ele>
        <time>2012-09-30T06:29:31Z</time>
      </trkpt>
      <trkpt lat="47.6261" lon="6.8033">
        <ele>466.0392</ele>
        <time>2012-09-30T06:29:32Z</time>
      </trkpt>
      <trkpt lat="47.62607" lon="6.80325">
        <ele>466.0392</ele>
        <time>2012-09-30T06:29:35Z</time>
      </trkpt>
      <trkpt lat="47.62603" lon="6.80322">
        <ele>466.0392</ele>
        <time>2012-09-30T06:29:36Z</time>
      </trkpt>
      <trkpt lat="47.626" lon="6.80321">
        <ele>466.9536</ele>
        <time>2012-09-30T06:29:39Z</time>
      </trkpt>
      <trkpt lat="47.62596" lon="6.80319">
        <ele>467.868</ele>
        <time>2012-09-30T06:29:40Z</time>
      </trkpt>
      <trkpt lat="47.62592" lon="6.80318">
        <ele>468.7824</ele>
        <time>2012-09-30T06:29:43Z</time>
      </trkpt>
      <trkpt lat="47.62589" lon="6.80317">
        <ele>469.392</ele>
        <time>2012-09-30T06:29:44Z</time>
      </trkpt>
      <trkpt lat="47.62585" lon="6.80315">
        <ele>470.0016</ele>
        <time>2012-09-30T06:29:47Z</time>
      </trkpt>
      <trkpt lat="47.6258" lon="6.80313">
        <ele>470.6112</ele>
        <time>2012-09-30T06:29:48Z</time>
      </trkpt>
      <trkpt lat="47.62575" lon="6.80312">
        <ele>471.2208</ele>
        <time>2012-09-30T06:29:51Z</time>
      </trkpt>
      <trkpt lat="47.62571" lon="6.8031">
        <ele>471.8304</ele>
        <time>2012-09-30T06:29:52Z</time>
      </trkpt>
      <trkpt lat="47.62565" lon="6.80308">
        <ele>472.1352</ele>
        <time>2012-09-30T06:29:55Z</time>
      </trkpt>
      <trkpt lat="47.62559" lon="6.80305">
        <ele>472.7448</ele>
        <time>2012-09-30T06:29:56Z</time>
      </trkpt>
      <trkpt lat="47.62553" lon="6.80303">
        <ele>473.0496</ele>
        <time>2012-09-30T06:29:59Z</time>
      </trkpt>
      <trkpt lat="47.62547" lon="6.803">
        <ele>473.0496</ele>
        <time>2012-09-30T06:30:00Z</time>
      </trkpt>
      <trkpt lat="47.62541" lon="6.80298">
        <ele>473.0496</ele>
        <time>2012-09-30T06:30:03Z</time>
      </trkpt>
      <trkpt lat="47.62534" lon="6.80297">
        <ele>472.44</ele>
        <time>2012-09-30T06:30:04Z</time>
      </trkpt>
      <trkpt lat="47.62526" lon="6.80295">
        <ele>471.2208</ele>
        <time>2012-09-30T06:30:07Z</time>
      </trkpt>
      <trkpt lat="47.62518" lon="6.80291">
        <ele>469.392</ele>
        <time>2012-09-30T06:30:08Z</time>
      </trkpt>
      <trkpt lat="47.6251" lon="6.80287">
        <ele>467.5632</ele>
        <time>2012-09-30T06:30:10Z</time>
      </trkpt>
      <trkpt lat="47.62502" lon="6.80286">
        <ele>466.6488</ele>
        <time>2012-09-30T06:30:13Z</time>
      </trkpt>
      <trkpt lat="47.62495" lon="6.80291">
        <ele>465.7344</ele>
        <time>2012-09-30T06:30:14Z</time>
      </trkpt>
      <trkpt lat="47.62489" lon="6.80301">
        <ele>463.296</ele>
        <time>2012-09-30T06:30:17Z</time>
      </trkpt>
      <trkpt lat="47.62484" lon="6.80311">
        <ele>461.772</ele>
        <time>2012-09-30T06:30:18Z</time>
      </trkpt>
      <trkpt lat="47.62478" lon="6.80322">
        <ele>460.8576</ele>
        <time>2012-09-30T06:30:21Z</time>
      </trkpt>
      <trkpt lat="47.62472" lon="6.80332">
        <ele>460.248</ele>
        <time>2012-09-30T06:30:22Z</time>
      </trkpt>
      <trkpt lat="47.62467" lon="6.80343">
        <ele>459.6384</ele>
        <time>2012-09-30T06:30:25Z</time>
      </trkpt>
      <trkpt lat="47.62462" lon="6.80353">
        <ele>459.6384</ele>
        <time>2012-09-30T06:30:26Z</time>
      </trkpt>
      <trkpt lat="47.62457" lon="6.80363">
        <ele>458.724</ele>
        <time>2012-09-30T06:30:29Z</time>
      </trkpt>
      <trkpt lat="47.62451" lon="6.80375">
        <ele>458.1144</ele>
        <time>2012-09-30T06:30:30Z</time>
      </trkpt>
      <trkpt lat="47.62445" lon="6.80386">
        <ele>457.8096</ele>
        <time>2012-09-30T06:30:33Z</time>
      </trkpt>
      <trkpt lat="47.6244" lon="6.80397">
        <ele>457.5048</ele>
        <time>2012-09-30T06:30:34Z</time>
      </trkpt>
      <trkpt lat="47.62434" lon="6.80408">
        <ele>457.2</ele>
        <time>2012-09-30T06:30:37Z</time>
      </trkpt>
      <trkpt lat="47.62428" lon="6.80418">
        <ele>456.8952</ele>
        <time>2012-09-30T06:30:38Z</time>
      </trkpt>
      <trkpt lat="47.62423" lon="6.8043">
        <ele>456.5904</ele>
        <time>2012-09-30T06:30:41Z</time>
      </trkpt>
      <trkpt lat="47.62422" lon="6.80441">
        <ele>456.5904</ele>
        <time>2012-09-30T06:30:42Z</time>
      </trkpt>
      <trkpt lat="47.62424" lon="6.8045">
        <ele>457.2</ele>
        <time>2012-09-30T06:30:45Z</time>
      </trkpt>
      <trkpt lat="47.62424" lon="6.80456">
        <ele>457.8096</ele>
        <time>2012-09-30T06:30:46Z</time>
      </trkpt>
      <trkpt lat="47.62421" lon="6.80462">
        <ele>459.0288</ele>
        <time>2012-09-30T06:30:49Z</time>
      </trkpt>
      <trkpt lat="47.62415" lon="6.80465">
        <ele>459.6384</ele>
        <time>2012-09-30T06:30:50Z</time>
      </trkpt>
      <trkpt lat="47.62411" lon="6.80464">
        <ele>460.5528</ele>
        <time>2012-09-30T06:30:53Z</time>
      </trkpt>
      <trkpt lat="47.62407" lon="6.8046">
        <ele>460.5528</ele>
        <time>2012-09-30T06:30:54Z</time>
      </trkpt>
      <trkpt lat="47.62404" lon="6.80452">
        <ele>460.8576</ele>
        <time>2012-09-30T06:30:57Z</time>
      </trkpt>
      <trkpt lat="47.62403" lon="6.80443">
        <ele>460.5528</ele>
        <time>2012-09-30T06:30:58Z</time>
      </trkpt>
      <trkpt lat="47.62403" lon="6.80434">
        <ele>460.248</ele>
        <time>2012-09-30T06:31:01Z</time>
      </trkpt>
      <trkpt lat="47.62403" lon="6.80424">
        <ele>459.3336</ele>
        <time>2012-09-30T06:31:02Z</time>
      </trkpt>
      <trkpt lat="47.62404" lon="6.80414">
        <ele>458.724</ele>
        <time>2012-09-30T06:31:04Z</time>
      </trkpt>
      <trkpt lat="47.62403" lon="6.80404">
        <ele>458.4192</ele>
        <time>2012-09-30T06:31:07Z</time>
      </trkpt>
      <trkpt lat="47.62403" lon="6.80394">
        <ele>457.8096</ele>
        <time>2012-09-30T06:31:08Z</time>
      </trkpt>
      <trkpt lat="47.62401" lon="6.80382">
        <ele>457.5048</ele>
        <time>2012-09-30T06:31:11Z</time>
      </trkpt>
      <trkpt lat="47.624" lon="6.80369">
        <ele>458.4192</ele>
        <time>2012-09-30T06:31:12Z</time>
      </trkpt>
      <trkpt lat="47.62398" lon="6.80357">
        <ele>457.5048</ele>
        <time>2012-09-30T06:31:15Z</time>
      </trkpt>
      <trkpt lat="47.62395" lon="6.80344">
        <ele>456.5904</ele>
        <time>2012-09-30T06:31:16Z</time>
      </trkpt>
      <trkpt lat="47.62392" lon="6.8033">
        <ele>453.2376</ele>
        <time>2012-09-30T06:31:19Z</time>
      </trkpt>
      <trkpt lat="47.62388" lon="6.80316">
        <ele>451.7136</ele>
        <time>2012-09-30T06:31:20Z</time>
      </trkpt>
      <trkpt lat="47.62384" lon="6.80303">
        <ele>450.1896</ele>
        <time>2012-09-30T06:31:23Z</time>
      </trkpt>
      <trkpt lat="47.62382" lon="6.80289">
        <ele>448.9704</ele>
        <time>2012-09-30T06:31:24Z</time>
      </trkpt>
      <trkpt lat="47.62382" lon="6.80278">
        <ele>448.056</ele>
        <time>2012-09-30T06:31:27Z</time>
      </trkpt>
      <trkpt lat="47.62383" lon="6.80272">
        <ele>446.8368</ele>
        <time>2012-09-30T06:31:28Z</time>
      </trkpt>
      <trkpt lat="47.62384" lon="6.80266">
        <ele>445.9224</ele>
        <time>2012-09-30T06:31:31Z</time>
      </trkpt>
      <trkpt lat="47.62385" lon="6.8026">
        <ele>445.3128</ele>
        <time>2012-09-30T06:31:32Z</time>
      </trkpt>
      <trkpt lat="47.62383" lon="6.80251">
        <ele>444.3984</ele>
        <time>2012-09-30T06:31:35Z</time>
      </trkpt>
      <trkpt lat="47.6238" lon="6.80239">
        <ele>443.7888</ele>
        <time>2012-09-30T06:31:36Z</time>
      </trkpt>
      <trkpt lat="47.62378" lon="6.80228">
        <ele>443.1792</ele>
        <time>2012-09-30T06:31:39Z</time>
      </trkpt>
      <trkpt lat="47.62378" lon="6.80222">
        <ele>443.1792</ele>
        <time>2012-09-30T06:31:40Z</time>
      </trkpt>
      <trkpt lat="47.62377" lon="6.80216">
        <ele>442.2648</ele>
        <time>2012-09-30T06:31:43Z</time>
      </trkpt>
      <trkpt lat="47.62375" lon="6.80206">
        <ele>440.7408</ele>
        <time>2012-09-30T06:31:44Z</time>
      </trkpt>
      <trkpt lat="47.62373" lon="6.80196">
        <ele>439.5216</ele>
        <time>2012-09-30T06:31:47Z</time>
      </trkpt>
      <trkpt lat="47.62369" lon="6.80184">
        <ele>437.6928</ele>
        <time>2012-09-30T06:31:48Z</time>
      </trkpt>
      <trkpt lat="47.62366" lon="6.80169">
        <ele>434.34</ele>
        <time>2012-09-30T06:31:51Z</time>
      </trkpt>
      <trkpt lat="47.62364" lon="6.80157">
        <ele>431.292</ele>
        <time>2012-09-30T06:31:52Z</time>
      </trkpt>
      <trkpt lat="47.6236" lon="6.80147">
        <ele>428.8536</ele>
        <time>2012-09-30T06:31:55Z</time>
      </trkpt>
      <trkpt lat="47.62356" lon="6.80139">
        <ele>426.72</ele>
        <time>2012-09-30T06:31:57Z</time>
      </trkpt>
      <trkpt lat="47.62354" lon="6.80131">
        <ele>423.9768</ele>
        <time>2012-09-30T06:31:58Z</time>
      </trkpt>
      <trkpt lat="47.62353" lon="6.80124">
        <ele>423.0624</ele>
        <time>2012-09-30T06:32:01Z</time>
      </trkpt>
      <trkpt lat="47.62352" lon="6.80118">
        <ele>423.0624</ele>
        <time>2012-09-30T06:32:02Z</time>
      </trkpt>
      <trkpt lat="47.62351" lon="6.80112">
        <ele>420.3192</ele>
        <time>2012-09-30T06:32:05Z</time>
      </trkpt>
      <trkpt lat="47.62346" lon="6.80104">
        <ele>418.1856</ele>
        <time>2012-09-30T06:32:06Z</time>
      </trkpt>
      <trkpt lat="47.62341" lon="6.80101">
        <ele>416.9664</ele>
        <time>2012-09-30T06:32:09Z</time>
      </trkpt>
      <trkpt lat="47.62336" lon="6.801">
        <ele>415.7472</ele>
        <time>2012-09-30T06:32:10Z</time>
      </trkpt>
      <trkpt lat="47.62332" lon="6.80096">
        <ele>414.8328</ele>
        <time>2012-09-30T06:32:13Z</time>
      </trkpt>
      <trkpt lat="47.6233" lon="6.80093">
        <ele>414.2232</ele>
        <time>2012-09-30T06:32:14Z</time>
      </trkpt>
      <trkpt lat="47.6233" lon="6.80089">
        <ele>413.9184</ele>
        <time>2012-09-30T06:32:17Z</time>
      </trkpt>
      <trkpt lat="47.6233" lon="6.80082">
        <ele>414.528</ele>
        <time>2012-09-30T06:32:18Z</time>
      </trkpt>
      <trkpt lat="47.6233" lon="6.80075">
        <ele>415.7472</ele>
        <time>2012-09-30T06:32:21Z</time>
      </trkpt>
      <trkpt lat="47.62333" lon="6.80067">
        <ele>416.052</ele>
        <time>2012-09-30T06:32:22Z</time>
      </trkpt>
      <trkpt lat="47.62334" lon="6.80059">
        <ele>416.052</ele>
        <time>2012-09-30T06:32:25Z</time>
      </trkpt>
      <trkpt lat="47.62333" lon="6.80049">
        <ele>415.7472</ele>
        <time>2012-09-30T06:32:26Z</time>
      </trkpt>
      <trkpt lat="47.62333" lon="6.8004">
        <ele>415.1376</ele>
        <time>2012-09-30T06:32:29Z</time>
      </trkpt>
      <trkpt lat="47.62335" lon="6.80032">
        <ele>413.004</ele>
        <time>2012-09-30T06:32:30Z</time>
      </trkpt>
      <trkpt lat="47.62339" lon="6.80025">
        <ele>411.48</ele>
        <time>2012-09-30T06:32:33Z</time>
      </trkpt>
      <trkpt lat="47.62339" lon="6.80019">
        <ele>412.3944</ele>
        <time>2012-09-30T06:32:34Z</time>
      </trkpt>
      <trkpt lat="47.62343" lon="6.80012">
        <ele>411.7848</ele>
        <time>2012-09-30T06:32:37Z</time>
      </trkpt>
      <trkpt lat="47.62347" lon="6.80004">
        <ele>411.7848</ele>
        <time>2012-09-30T06:32:38Z</time>
      </trkpt>
      <trkpt lat="47.62352" lon="6.79996">
        <ele>410.2608</ele>
        <time>2012-09-30T06:32:41Z</time>
      </trkpt>
      <trkpt lat="47.62358" lon="6.79986">
        <ele>408.1272</ele>
        <time>2012-09-30T06:32:42Z</time>
      </trkpt>
      <trkpt lat="47.62363" lon="6.79976">
        <ele>406.908</ele>
        <time>2012-09-30T06:32:45Z</time>
      </trkpt>
      <trkpt lat="47.62369" lon="6.79968">
        <ele>405.9936</ele>
        <time>2012-09-30T06:32:46Z</time>
      </trkpt>
      <trkpt lat="47.62377" lon="6.79962">
        <ele>409.0416</ele>
        <time>2012-09-30T06:32:49Z</time>
      </trkpt>
      <trkpt lat="47.62387" lon="6.79956">
        <ele>409.0416</ele>
        <time>2012-09-30T06:32:51Z</time>
      </trkpt>
      <trkpt lat="47.624" lon="6.79951">
        <ele>408.1272</ele>
        <time>2012-09-30T06:32:52Z</time>
      </trkpt>
      <trkpt lat="47.62411" lon="6.79946">
        <ele>408.7368</ele>
        <time>2012-09-30T06:32:55Z</time>
      </trkpt>
      <trkpt lat="47.6242" lon="6.7994">
        <ele>408.7368</ele>
        <time>2012-09-30T06:32:56Z</time>
      </trkpt>
      <trkpt lat="47.6243" lon="6.79934">
        <ele>408.1272</ele>
        <time>2012-09-30T06:32:59Z</time>
      </trkpt>
      <trkpt lat="47.62436" lon="6.79926">
        <ele>408.432</ele>
        <time>2012-09-30T06:33:00Z</time>
      </trkpt>
      <trkpt lat="47.6244" lon="6.79919">
        <ele>410.5656</ele>
        <time>2012-09-30T06:33:03Z</time>
      </trkpt>
      <trkpt lat="47.62445" lon="6.79913">
        <ele>412.6992</ele>
        <time>2012-09-30T06:33:04Z</time>
      </trkpt>
      <trkpt lat="47.62451" lon="6.79907">
        <ele>412.6992</ele>
        <time>2012-09-30T06:33:07Z</time>
      </trkpt>
      <trkpt lat="47.62457" lon="6.79899">
        <ele>411.1752</ele>
        <time>2012-09-30T06:33:08Z</time>
      </trkpt>
      <trkpt lat="47.62463" lon="6.79891">
        <ele>410.8704</ele>
        <time>2012-09-30T06:33:11Z</time>
      </trkpt>
      <trkpt lat="47.62471" lon="6.79884">
        <ele>410.5656</ele>
        <time>2012-09-30T06:33:12Z</time>
      </trkpt>
      <trkpt lat="47.62478" lon="6.79877">
        <ele>409.0416</ele>
        <time>2012-09-30T06:33:15Z</time>
      </trkpt>
      <trkpt lat="47.62483" lon="6.7987">
        <ele>409.956</ele>
        <time>2012-09-30T06:33:16Z</time>
      </trkpt>
      <trkpt lat="47.62487" lon="6.79864">
        <ele>410.2608</ele>
        <time>2012-09-30T06:33:19Z</time>
      </trkpt>
      <trkpt lat="47.62494" lon="6.79855">
        <ele>409.3464</ele>
        <time>2012-09-30T06:33:20Z</time>
      </trkpt>
      <trkpt lat="47.62504" lon="6.79847">
        <ele>409.3464</ele>
        <time>2012-09-30T06:33:23Z</time>
      </trkpt>
      <trkpt lat="47.62514" lon="6.7984">
        <ele>407.2128</ele>
        <time>2012-09-30T06:33:24Z</time>
      </trkpt>
      <trkpt lat="47.62526" lon="6.79831">
        <ele>405.0792</ele>
        <time>2012-09-30T06:33:27Z</time>
      </trkpt>
      <trkpt lat="47.62536" lon="6.7982">
        <ele>404.7744</ele>
        <time>2012-09-30T06:33:28Z</time>
      </trkpt>
      <trkpt lat="47.6254" lon="6.79811">
        <ele>405.9936</ele>
        <time>2012-09-30T06:33:31Z</time>
      </trkpt>
      <trkpt lat="47.62542" lon="6.79801">
        <ele>406.2984</ele>
        <time>2012-09-30T06:33:32Z</time>
      </trkpt>
      <trkpt lat="47.62541" lon="6.79794">
        <ele>406.2984</ele>
        <time>2012-09-30T06:33:35Z</time>
      </trkpt>
      <trkpt lat="47.62539" lon="6.79786">
        <ele>405.384</ele>
        <time>2012-09-30T06:33:36Z</time>
      </trkpt>
      <trkpt lat="47.62539" lon="6.79774">
        <ele>405.6888</ele>
        <time>2012-09-30T06:33:39Z</time>
      </trkpt>
      <trkpt lat="47.62537" lon="6.79761">
        <ele>402.336</ele>
        <time>2012-09-30T06:33:40Z</time>
      </trkpt>
      <trkpt lat="47.62537" lon="6.7975">
        <ele>397.764</ele>
        <time>2012-09-30T06:33:43Z</time>
      </trkpt>
      <trkpt lat="47.62538" lon="6.79738">
        <ele>397.1544</ele>
        <time>2012-09-30T06:33:45Z</time>
      </trkpt>
      <trkpt lat="47.62536" lon="6.79726">
        <ele>396.8496</ele>
        <time>2012-09-30T06:33:46Z</time>
      </trkpt>
      <trkpt lat="47.62534" lon="6.79711">
        <ele>393.4968</ele>
        <time>2012-09-30T06:33:49Z</time>
      </trkpt>
      <trkpt lat="47.62532" lon="6.79697">
        <ele>390.4488</ele>
        <time>2012-09-30T06:33:50Z</time>
      </trkpt>
      <trkpt lat="47.62533" lon="6.79686">
        <ele>387.4008</ele>
        <time>2012-09-30T06:33:53Z</time>
      </trkpt>
      <trkpt lat="47.62533" lon="6.79676">
        <ele>387.4008</ele>
        <time>2012-09-30T06:33:54Z</time>
      </trkpt>
      <trkpt lat="47.62531" lon="6.79665">
        <ele>388.0104</ele>
        <time>2012-09-30T06:33:57Z</time>
      </trkpt>
      <trkpt lat="47.62533" lon="6.79654">
        <ele>386.7912</ele>
        <time>2012-09-30T06:33:58Z</time>
      </trkpt>
      <trkpt lat="47.62533" lon="6.79644">
        <ele>386.1816</ele>
        <time>2012-09-30T06:34:01Z</time>
      </trkpt>
      <trkpt lat="47.62533" lon="6.79634">
        <ele>385.8768</ele>
        <time>2012-09-30T06:34:02Z</time>
      </trkpt>
      <trkpt lat="47.62533" lon="6.79624">
        <ele>384.9624</ele>
        <time>2012-09-30T06:34:05Z</time>
      </trkpt>
      <trkpt lat="47.62536" lon="6.79582">
        <ele>381.9144</ele>
        <time>2012-09-30T06:34:13Z</time>
      </trkpt>
      <trkpt lat="47.62537" lon="6.79573">
        <ele>381.6096</ele>
        <time>2012-09-30T06:34:14Z</time>
      </trkpt>
      <trkpt lat="47.62537" lon="6.79568">
        <ele>383.7432</ele>
        <time>2012-09-30T06:34:17Z</time>
      </trkpt>
      <trkpt lat="47.62536" lon="6.79564">
        <ele>384.9624</ele>
        <time>2012-09-30T06:34:20Z</time>
      </trkpt>
      <trkpt lat="47.62536" lon="6.79558">
        <ele>385.2672</ele>
        <time>2012-09-30T06:34:21Z</time>
      </trkpt>
      <trkpt lat="47.62537" lon="6.79549">
        <ele>385.572</ele>
        <time>2012-09-30T06:34:24Z</time>
      </trkpt>
      <trkpt lat="47.62538" lon="6.79541">
        <ele>385.572</ele>
        <time>2012-09-30T06:34:25Z</time>
      </trkpt>
      <trkpt lat="47.62537" lon="6.79534">
        <ele>385.2672</ele>
        <time>2012-09-30T06:34:28Z</time>
      </trkpt>
      <trkpt lat="47.62537" lon="6.79528">
        <ele>386.7912</ele>
        <time>2012-09-30T06:34:29Z</time>
      </trkpt>
      <trkpt lat="47.62537" lon="6.79521">
        <ele>388.0104</ele>
        <time>2012-09-30T06:34:32Z</time>
      </trkpt>
      <trkpt lat="47.62536" lon="6.79514">
        <ele>389.5344</ele>
        <time>2012-09-30T06:34:33Z</time>
      </trkpt>
      <trkpt lat="47.62535" lon="6.79511">
        <ele>391.668</ele>
        <time>2012-09-30T06:34:36Z</time>
      </trkpt>
      <trkpt lat="47.62535" lon="6.79505">
        <ele>392.5824</ele>
        <time>2012-09-30T06:34:37Z</time>
      </trkpt>
      <trkpt lat="47.62535" lon="6.795">
        <ele>392.8872</ele>
        <time>2012-09-30T06:34:40Z</time>
      </trkpt>
      <trkpt lat="47.62535" lon="6.79492">
        <ele>393.192</ele>
        <time>2012-09-30T06:34:41Z</time>
      </trkpt>
      <trkpt lat="47.62533" lon="6.79484">
        <ele>394.4112</ele>
        <time>2012-09-30T06:34:44Z</time>
      </trkpt>
      <trkpt lat="47.62532" lon="6.79477">
        <ele>395.3256</ele>
        <time>2012-09-30T06:34:45Z</time>
      </trkpt>
      <trkpt lat="47.62532" lon="6.79469">
        <ele>397.1544</ele>
        <time>2012-09-30T06:34:48Z</time>
      </trkpt>
      <trkpt lat="47.62528" lon="6.79464">
        <ele>398.6784</ele>
        <time>2012-09-30T06:34:49Z</time>
      </trkpt>
      <trkpt lat="47.62526" lon="6.7946">
        <ele>401.7264</ele>
        <time>2012-09-30T06:34:52Z</time>
      </trkpt>
      <trkpt lat="47.62524" lon="6.79454">
        <ele>404.1648</ele>
        <time>2012-09-30T06:34:53Z</time>
      </trkpt>
      <trkpt lat="47.62521" lon="6.79446">
        <ele>404.7744</ele>
        <time>2012-09-30T06:34:56Z</time>
      </trkpt>
      <trkpt lat="47.62521" lon="6.79438">
        <ele>406.6032</ele>
        <time>2012-09-30T06:34:57Z</time>
      </trkpt>
      <trkpt lat="47.62521" lon="6.79429">
        <ele>407.8224</ele>
        <time>2012-09-30T06:35:00Z</time>
      </trkpt>
      <trkpt lat="47.62519" lon="6.79419">
        <ele>408.7368</ele>
        <time>2012-09-30T06:35:01Z</time>
      </trkpt>
      <trkpt lat="47.6252" lon="6.79411">
        <ele>409.956</ele>
        <time>2012-09-30T06:35:04Z</time>
      </trkpt>
      <trkpt lat="47.62518" lon="6.79403">
        <ele>410.8704</ele>
        <time>2012-09-30T06:35:06Z</time>
      </trkpt>
      <trkpt lat="47.62517" lon="6.7939">
        <ele>407.5176</ele>
        <time>2012-09-30T06:35:07Z</time>
      </trkpt>
      <trkpt lat="47.62516" lon="6.79378">
        <ele>405.9936</ele>
        <time>2012-09-30T06:35:10Z</time>
      </trkpt>
      <trkpt lat="47.62517" lon="6.79366">
        <ele>404.4696</ele>
        <time>2012-09-30T06:35:11Z</time>
      </trkpt>
      <trkpt lat="47.62516" lon="6.79357">
        <ele>405.384</ele>
        <time>2012-09-30T06:35:14Z</time>
      </trkpt>
      <trkpt lat="47.62513" lon="6.79347">
        <ele>404.4696</ele>
        <time>2012-09-30T06:35:15Z</time>
      </trkpt>
      <trkpt lat="47.62511" lon="6.79335">
        <ele>402.0312</ele>
        <time>2012-09-30T06:35:18Z</time>
      </trkpt>
      <trkpt lat="47.62508" lon="6.79324">
        <ele>400.2024</ele>
        <time>2012-09-30T06:35:19Z</time>
      </trkpt>
      <trkpt lat="47.62506" lon="6.79313">
        <ele>398.9832</ele>
        <time>2012-09-30T06:35:22Z</time>
      </trkpt>
      <trkpt lat="47.62504" lon="6.79301">
        <ele>395.6304</ele>
        <time>2012-09-30T06:35:23Z</time>
      </trkpt>
      <trkpt lat="47.62504" lon="6.79292">
        <ele>394.4112</ele>
        <time>2012-09-30T06:35:26Z</time>
      </trkpt>
      <trkpt lat="47.62503" lon="6.79281">
        <ele>391.668</ele>
        <time>2012-09-30T06:35:27Z</time>
      </trkpt>
      <trkpt lat="47.625" lon="6.79271">
        <ele>391.3632</ele>
        <time>2012-09-30T06:35:30Z</time>
      </trkpt>
      <trkpt lat="47.62497" lon="6.79265">
        <ele>391.0584</ele>
        <time>2012-09-30T06:35:31Z</time>
      </trkpt>
      <trkpt lat="47.62492" lon="6.7926">
        <ele>392.5824</ele>
        <time>2012-09-30T06:35:34Z</time>
      </trkpt>
      <trkpt lat="47.62486" lon="6.79259">
        <ele>391.9728</ele>
        <time>2012-09-30T06:35:35Z</time>
      </trkpt>
      <trkpt lat="47.62479" lon="6.7926">
        <ele>391.0584</ele>
        <time>2012-09-30T06:35:38Z</time>
      </trkpt>
      <trkpt lat="47.62473" lon="6.79263">
        <ele>390.144</ele>
        <time>2012-09-30T06:35:39Z</time>
      </trkpt>
      <trkpt lat="47.62467" lon="6.79267">
        <ele>389.8392</ele>
        <time>2012-09-30T06:35:42Z</time>
      </trkpt>
      <trkpt lat="47.6246" lon="6.79271">
        <ele>389.5344</ele>
        <time>2012-09-30T06:35:43Z</time>
      </trkpt>
      <trkpt lat="47.62454" lon="6.79276">
        <ele>390.144</ele>
        <time>2012-09-30T06:35:46Z</time>
      </trkpt>
      <trkpt lat="47.62448" lon="6.79281">
        <ele>390.4488</ele>
        <time>2012-09-30T06:35:47Z</time>
      </trkpt>
      <trkpt lat="47.62441" lon="6.79287">
        <ele>390.4488</ele>
        <time>2012-09-30T06:35:50Z</time>
      </trkpt>
      <trkpt lat="47.62434" lon="6.79294">
        <ele>390.4488</ele>
        <time>2012-09-30T06:35:51Z</time>
      </trkpt>
      <trkpt lat="47.62427" lon="6.79301">
        <ele>390.7536</ele>
        <time>2012-09-30T06:35:54Z</time>
      </trkpt>
      <trkpt lat="47.62419" lon="6.79308">
        <ele>391.0584</ele>
        <time>2012-09-30T06:35:55Z</time>
      </trkpt>
      <trkpt lat="47.62411" lon="6.79316">
        <ele>391.3632</ele>
        <time>2012-09-30T06:35:58Z</time>
      </trkpt>
      <trkpt lat="47.62401" lon="6.79326">
        <ele>393.192</ele>
        <time>2012-09-30T06:36:00Z</time>
      </trkpt>
      <trkpt lat="47.62392" lon="6.79336">
        <ele>393.8016</ele>
        <time>2012-09-30T06:36:01Z</time>
      </trkpt>
      <trkpt lat="47.62382" lon="6.79346">
        <ele>394.4112</ele>
        <time>2012-09-30T06:36:04Z</time>
      </trkpt>
      <trkpt lat="47.62373" lon="6.79357">
        <ele>395.0208</ele>
        <time>2012-09-30T06:36:05Z</time>
      </trkpt>
      <trkpt lat="47.62364" lon="6.79367">
        <ele>395.6304</ele>
        <time>2012-09-30T06:36:08Z</time>
      </trkpt>
      <trkpt lat="47.62355" lon="6.79376">
        <ele>395.9352</ele>
        <time>2012-09-30T06:36:09Z</time>
      </trkpt>
      <trkpt lat="47.62346" lon="6.79382">
        <ele>395.9352</ele>
        <time>2012-09-30T06:36:12Z</time>
      </trkpt>
      <trkpt lat="47.62335" lon="6.79382">
        <ele>395.3256</ele>
        <time>2012-09-30T06:36:13Z</time>
      </trkpt>
      <trkpt lat="47.62326" lon="6.7938">
        <ele>395.6304</ele>
        <time>2012-09-30T06:36:16Z</time>
      </trkpt>
      <trkpt lat="47.62318" lon="6.79378">
        <ele>395.3256</ele>
        <time>2012-09-30T06:36:17Z</time>
      </trkpt>
      <trkpt lat="47.62309" lon="6.79375">
        <ele>395.6304</ele>
        <time>2012-09-30T06:36:20Z</time>
      </trkpt>
      <trkpt lat="47.62302" lon="6.79371">
        <ele>396.8496</ele>
        <time>2012-09-30T06:36:21Z</time>
      </trkpt>
      <trkpt lat="47.62292" lon="6.79368">
        <ele>396.24</ele>
        <time>2012-09-30T06:36:24Z</time>
      </trkpt>
      <trkpt lat="47.62282" lon="6.79363">
        <ele>395.9352</ele>
        <time>2012-09-30T06:36:25Z</time>
      </trkpt>
      <trkpt lat="47.6227" lon="6.79355">
        <ele>395.9352</ele>
        <time>2012-09-30T06:36:28Z</time>
      </trkpt>
      <trkpt lat="47.62261" lon="6.79349">
        <ele>398.3736</ele>
        <time>2012-09-30T06:36:29Z</time>
      </trkpt>
      <trkpt lat="47.6225" lon="6.79341">
        <ele>396.5448</ele>
        <time>2012-09-30T06:36:32Z</time>
      </trkpt>
      <trkpt lat="47.62239" lon="6.79333">
        <ele>393.8016</ele>
        <time>2012-09-30T06:36:33Z</time>
      </trkpt>
      <trkpt lat="47.6223" lon="6.79326">
        <ele>394.1064</ele>
        <time>2012-09-30T06:36:36Z</time>
      </trkpt>
      <trkpt lat="47.62221" lon="6.79318">
        <ele>395.0208</ele>
        <time>2012-09-30T06:36:37Z</time>
      </trkpt>
      <trkpt lat="47.62209" lon="6.79309">
        <ele>393.8016</ele>
        <time>2012-09-30T06:36:40Z</time>
      </trkpt>
      <trkpt lat="47.62199" lon="6.79301">
        <ele>392.2776</ele>
        <time>2012-09-30T06:36:41Z</time>
      </trkpt>
      <trkpt lat="47.62189" lon="6.79293">
        <ele>390.7536</ele>
        <time>2012-09-30T06:36:44Z</time>
      </trkpt>
      <trkpt lat="47.6218" lon="6.79285">
        <ele>388.9248</ele>
        <time>2012-09-30T06:36:45Z</time>
      </trkpt>
      <trkpt lat="47.6217" lon="6.79275">
        <ele>386.7912</ele>
        <time>2012-09-30T06:36:48Z</time>
      </trkpt>
      <trkpt lat="47.62161" lon="6.79267">
        <ele>385.2672</ele>
        <time>2012-09-30T06:36:49Z</time>
      </trkpt>
      <trkpt lat="47.62153" lon="6.7926">
        <ele>384.9624</ele>
        <time>2012-09-30T06:36:52Z</time>
      </trkpt>
      <trkpt lat="47.62144" lon="6.79253">
        <ele>384.6576</ele>
        <time>2012-09-30T06:36:54Z</time>
      </trkpt>
      <trkpt lat="47.62133" lon="6.79247">
        <ele>384.048</ele>
        <time>2012-09-30T06:36:55Z</time>
      </trkpt>
      <trkpt lat="47.62123" lon="6.79241">
        <ele>383.4384</ele>
        <time>2012-09-30T06:36:58Z</time>
      </trkpt>
      <trkpt lat="47.62113" lon="6.79237">
        <ele>382.8288</ele>
        <time>2012-09-30T06:36:59Z</time>
      </trkpt>
      <trkpt lat="47.62101" lon="6.79234">
        <ele>383.1336</ele>
        <time>2012-09-30T06:37:02Z</time>
      </trkpt>
      <trkpt lat="47.62088" lon="6.7923">
        <ele>383.1336</ele>
        <time>2012-09-30T06:37:03Z</time>
      </trkpt>
      <trkpt lat="47.62078" lon="6.79227">
        <ele>383.1336</ele>
        <time>2012-09-30T06:37:06Z</time>
      </trkpt>
      <trkpt lat="47.62067" lon="6.79224">
        <ele>383.1336</ele>
        <time>2012-09-30T06:37:07Z</time>
      </trkpt>
      <trkpt lat="47.62057" lon="6.7922">
        <ele>383.1336</ele>
        <time>2012-09-30T06:37:10Z</time>
      </trkpt>
      <trkpt lat="47.62048" lon="6.79217">
        <ele>383.4384</ele>
        <time>2012-09-30T06:37:11Z</time>
      </trkpt>
      <trkpt lat="47.62039" lon="6.79213">
        <ele>383.4384</ele>
        <time>2012-09-30T06:37:14Z</time>
      </trkpt>
      <trkpt lat="47.62031" lon="6.79209">
        <ele>384.048</ele>
        <time>2012-09-30T06:37:15Z</time>
      </trkpt>
      <trkpt lat="47.62022" lon="6.79204">
        <ele>384.6576</ele>
        <time>2012-09-30T06:37:18Z</time>
      </trkpt>
      <trkpt lat="47.62014" lon="6.79201">
        <ele>384.9624</ele>
        <time>2012-09-30T06:37:19Z</time>
      </trkpt>
      <trkpt lat="47.62006" lon="6.79196">
        <ele>385.572</ele>
        <time>2012-09-30T06:37:22Z</time>
      </trkpt>
      <trkpt lat="47.61999" lon="6.79192">
        <ele>386.1816</ele>
        <time>2012-09-30T06:37:23Z</time>
      </trkpt>
      <trkpt lat="47.61991" lon="6.79187">
        <ele>387.096</ele>
        <time>2012-09-30T06:37:26Z</time>
      </trkpt>
      <trkpt lat="47.61984" lon="6.79184">
        <ele>388.62</ele>
        <time>2012-09-30T06:37:27Z</time>
      </trkpt>
      <trkpt lat="47.61976" lon="6.7918">
        <ele>388.9248</ele>
        <time>2012-09-30T06:37:30Z</time>
      </trkpt>
      <trkpt lat="47.61967" lon="6.79175">
        <ele>388.9248</ele>
        <time>2012-09-30T06:37:31Z</time>
      </trkpt>
      <trkpt lat="47.61958" lon="6.79171">
        <ele>389.8392</ele>
        <time>2012-09-30T06:37:34Z</time>
      </trkpt>
      <trkpt lat="47.61947" lon="6.79165">
        <ele>390.144</ele>
        <time>2012-09-30T06:37:35Z</time>
      </trkpt>
      <trkpt lat="47.61937" lon="6.7916">
        <ele>391.668</ele>
        <time>2012-09-30T06:37:38Z</time>
      </trkpt>
      <trkpt lat="47.61927" lon="6.79155">
        <ele>391.9728</ele>
        <time>2012-09-30T06:37:39Z</time>
      </trkpt>
      <trkpt lat="47.61916" lon="6.7915">
        <ele>391.668</ele>
        <time>2012-09-30T06:37:42Z</time>
      </trkpt>
      <trkpt lat="47.61906" lon="6.79145">
        <ele>391.668</ele>
        <time>2012-09-30T06:37:43Z</time>
      </trkpt>
      <trkpt lat="47.61896" lon="6.7914">
        <ele>391.0584</ele>
        <time>2012-09-30T06:37:46Z</time>
      </trkpt>
      <trkpt lat="47.61886" lon="6.79133">
        <ele>389.8392</ele>
        <time>2012-09-30T06:37:48Z</time>
      </trkpt>
      <trkpt lat="47.61877" lon="6.79128">
        <ele>389.8392</ele>
        <time>2012-09-30T06:37:49Z</time>
      </trkpt>
      <trkpt lat="47.61866" lon="6.79122">
        <ele>389.8392</ele>
        <time>2012-09-30T06:37:52Z</time>
      </trkpt>
      <trkpt lat="47.61853" lon="6.79115">
        <ele>388.9248</ele>
        <time>2012-09-30T06:37:53Z</time>
      </trkpt>
      <trkpt lat="47.6184" lon="6.79107">
        <ele>388.3152</ele>
        <time>2012-09-30T06:37:56Z</time>
      </trkpt>
      <trkpt lat="47.61828" lon="6.791">
        <ele>388.0104</ele>
        <time>2012-09-30T06:37:57Z</time>
      </trkpt>
      <trkpt lat="47.61816" lon="6.79094">
        <ele>387.7056</ele>
        <time>2012-09-30T06:38:00Z</time>
      </trkpt>
      <trkpt lat="47.61804" lon="6.79088">
        <ele>388.0104</ele>
        <time>2012-09-30T06:38:01Z</time>
      </trkpt>
      <trkpt lat="47.61792" lon="6.79081">
        <ele>388.0104</ele>
        <time>2012-09-30T06:38:04Z</time>
      </trkpt>
      <trkpt lat="47.6178" lon="6.79075">
        <ele>388.62</ele>
        <time>2012-09-30T06:38:05Z</time>
      </trkpt>
      <trkpt lat="47.61769" lon="6.79069">
        <ele>388.9248</ele>
        <time>2012-09-30T06:38:08Z</time>
      </trkpt>
      <trkpt lat="47.61758" lon="6.79063">
        <ele>388.9248</ele>
        <time>2012-09-30T06:38:09Z</time>
      </trkpt>
      <trkpt lat="47.61747" lon="6.79057">
        <ele>388.9248</ele>
        <time>2012-09-30T06:38:12Z</time>
      </trkpt>
      <trkpt lat="47.61736" lon="6.79051">
        <ele>389.2296</ele>
        <time>2012-09-30T06:38:13Z</time>
      </trkpt>
      <trkpt lat="47.61726" lon="6.79045">
        <ele>389.2296</ele>
        <time>2012-09-30T06:38:16Z</time>
      </trkpt>
      <trkpt lat="47.61716" lon="6.7904">
        <ele>389.5344</ele>
        <time>2012-09-30T06:38:17Z</time>
      </trkpt>
      <trkpt lat="47.61707" lon="6.79034">
        <ele>389.8392</ele>
        <time>2012-09-30T06:38:20Z</time>
      </trkpt>
      <trkpt lat="47.61697" lon="6.79028">
        <ele>390.144</ele>
        <time>2012-09-30T06:38:21Z</time>
      </trkpt>
      <trkpt lat="47.61688" lon="6.79023">
        <ele>390.144</ele>
        <time>2012-09-30T06:38:24Z</time>
      </trkpt>
      <trkpt lat="47.61679" lon="6.79018">
        <ele>390.4488</ele>
        <time>2012-09-30T06:38:25Z</time>
      </trkpt>
      <trkpt lat="47.6167" lon="6.79013">
        <ele>390.4488</ele>
        <time>2012-09-30T06:38:28Z</time>
      </trkpt>
      <trkpt lat="47.61662" lon="6.79008">
        <ele>390.4488</ele>
        <time>2012-09-30T06:38:29Z</time>
      </trkpt>
      <trkpt lat="47.61653" lon="6.79004">
        <ele>390.7536</ele>
        <time>2012-09-30T06:38:32Z</time>
      </trkpt>
      <trkpt lat="47.61645" lon="6.79">
        <ele>390.7536</ele>
        <time>2012-09-30T06:38:33Z</time>
      </trkpt>
      <trkpt lat="47.61637" lon="6.78996">
        <ele>391.0584</ele>
        <time>2012-09-30T06:38:36Z</time>
      </trkpt>
      <trkpt lat="47.61629" lon="6.78992">
        <ele>391.0584</ele>
        <time>2012-09-30T06:38:37Z</time>
      </trkpt>
      <trkpt lat="47.61622" lon="6.78984">
        <ele>390.4488</ele>
        <time>2012-09-30T06:38:40Z</time>
      </trkpt>
      <trkpt lat="47.61614" lon="6.78974">
        <ele>390.144</ele>
        <time>2012-09-30T06:38:42Z</time>
      </trkpt>
      <trkpt lat="47.61607" lon="6.78962">
        <ele>389.5344</ele>
        <time>2012-09-30T06:38:43Z</time>
      </trkpt>
      <trkpt lat="47.616" lon="6.7895">
        <ele>388.9248</ele>
        <time>2012-09-30T06:38:46Z</time>
      </trkpt>
      <trkpt lat="47.61593" lon="6.78937">
        <ele>388.3152</ele>
        <time>2012-09-30T06:38:47Z</time>
      </trkpt>
      <trkpt lat="47.61585" lon="6.78923">
        <ele>387.7056</ele>
        <time>2012-09-30T06:38:50Z</time>
      </trkpt>
      <trkpt lat="47.61576" lon="6.78909">
        <ele>387.096</ele>
        <time>2012-09-30T06:38:51Z</time>
      </trkpt>
      <trkpt lat="47.61568" lon="6.78895">
        <ele>386.1816</ele>
        <time>2012-09-30T06:38:54Z</time>
      </trkpt>
      <trkpt lat="47.6156" lon="6.7888">
        <ele>385.572</ele>
        <time>2012-09-30T06:38:55Z</time>
      </trkpt>
      <trkpt lat="47.61552" lon="6.78864">
        <ele>384.9624</ele>
        <time>2012-09-30T06:38:58Z</time>
      </trkpt>
      <trkpt lat="47.61546" lon="6.78845">
        <ele>384.3528</ele>
        <time>2012-09-30T06:38:59Z</time>
      </trkpt>
      <trkpt lat="47.61542" lon="6.78825">
        <ele>383.7432</ele>
        <time>2012-09-30T06:39:02Z</time>
      </trkpt>
      <trkpt lat="47.61538" lon="6.78804">
        <ele>383.1336</ele>
        <time>2012-09-30T06:39:03Z</time>
      </trkpt>
      <trkpt lat="47.61534" lon="6.78782">
        <ele>382.524</ele>
        <time>2012-09-30T06:39:06Z</time>
      </trkpt>
      <trkpt lat="47.6153" lon="6.78761">
        <ele>381.9144</ele>
        <time>2012-09-30T06:39:07Z</time>
      </trkpt>
      <trkpt lat="47.61526" lon="6.78738">
        <ele>381.3048</ele>
        <time>2012-09-30T06:39:10Z</time>
      </trkpt>
      <trkpt lat="47.61522" lon="6.78715">
        <ele>381</ele>
        <time>2012-09-30T06:39:11Z</time>
      </trkpt>
      <trkpt lat="47.61517" lon="6.78692">
        <ele>380.6952</ele>
        <time>2012-09-30T06:39:14Z</time>
      </trkpt>
      <trkpt lat="47.61512" lon="6.78669">
        <ele>380.0856</ele>
        <time>2012-09-30T06:39:15Z</time>
      </trkpt>
      <trkpt lat="47.61507" lon="6.78646">
        <ele>379.7808</ele>
        <time>2012-09-30T06:39:18Z</time>
      </trkpt>
      <trkpt lat="47.61502" lon="6.78623">
        <ele>379.1712</ele>
        <time>2012-09-30T06:39:19Z</time>
      </trkpt>
      <trkpt lat="47.61495" lon="6.78603">
        <ele>379.1712</ele>
        <time>2012-09-30T06:39:22Z</time>
      </trkpt>
      <trkpt lat="47.61482" lon="6.78592">
        <ele>379.7808</ele>
        <time>2012-09-30T06:39:23Z</time>
      </trkpt>
      <trkpt lat="47.61467" lon="6.78593">
        <ele>380.6952</ele>
        <time>2012-09-30T06:39:26Z</time>
      </trkpt>
      <trkpt lat="47.61455" lon="6.78598">
        <ele>381</ele>
        <time>2012-09-30T06:39:27Z</time>
      </trkpt>
      <trkpt lat="47.61442" lon="6.78599">
        <ele>380.0856</ele>
        <time>2012-09-30T06:39:30Z</time>
      </trkpt>
      <trkpt lat="47.61429" lon="6.786">
        <ele>379.7808</ele>
        <time>2012-09-30T06:39:31Z</time>
      </trkpt>
      <trkpt lat="47.61415" lon="6.78606">
        <ele>379.1712</ele>
        <time>2012-09-30T06:39:34Z</time>
      </trkpt>
      <trkpt lat="47.614" lon="6.78611">
        <ele>378.2568</ele>
        <time>2012-09-30T06:39:35Z</time>
      </trkpt>
      <trkpt lat="47.61385" lon="6.78621">
        <ele>377.0376</ele>
        <time>2012-09-30T06:39:37Z</time>
      </trkpt>
      <trkpt lat="47.61373" lon="6.78636">
        <ele>377.0376</ele>
        <time>2012-09-30T06:39:40Z</time>
      </trkpt>
      <trkpt lat="47.61363" lon="6.78652">
        <ele>377.6472</ele>
        <time>2012-09-30T06:39:41Z</time>
      </trkpt>
      <trkpt lat="47.61354" lon="6.78667">
        <ele>378.5616</ele>
        <time>2012-09-30T06:39:44Z</time>
      </trkpt>
      <trkpt lat="47.61345" lon="6.78675">
        <ele>379.476</ele>
        <time>2012-09-30T06:39:45Z</time>
      </trkpt>
      <trkpt lat="47.61337" lon="6.7867">
        <ele>380.3904</ele>
        <time>2012-09-30T06:39:48Z</time>
      </trkpt>
      <trkpt lat="47.61332" lon="6.7866">
        <ele>381.6096</ele>
        <time>2012-09-30T06:39:49Z</time>
      </trkpt>
      <trkpt lat="47.61324" lon="6.78651">
        <ele>381.9144</ele>
        <time>2012-09-30T06:39:52Z</time>
      </trkpt>
      <trkpt lat="47.61315" lon="6.78647">
        <ele>382.2192</ele>
        <time>2012-09-30T06:39:53Z</time>
      </trkpt>
      <trkpt lat="47.61306" lon="6.78646">
        <ele>382.524</ele>
        <time>2012-09-30T06:39:56Z</time>
      </trkpt>
      <trkpt lat="47.61297" lon="6.78647">
        <ele>383.1336</ele>
        <time>2012-09-30T06:39:57Z</time>
      </trkpt>
      <trkpt lat="47.61289" lon="6.78649">
        <ele>383.1336</ele>
        <time>2012-09-30T06:40:00Z</time>
      </trkpt>
      <trkpt lat="47.61281" lon="6.78651">
        <ele>383.7432</ele>
        <time>2012-09-30T06:40:01Z</time>
      </trkpt>
      <trkpt lat="47.61272" lon="6.78651">
        <ele>384.3528</ele>
        <time>2012-09-30T06:40:04Z</time>
      </trkpt>
      <trkpt lat="47.61265" lon="6.7865">
        <ele>384.9624</ele>
        <time>2012-09-30T06:40:05Z</time>
      </trkpt>
      <trkpt lat="47.61257" lon="6.78648">
        <ele>385.572</ele>
        <time>2012-09-30T06:40:08Z</time>
      </trkpt>
      <trkpt lat="47.61251" lon="6.78647">
        <ele>386.7912</ele>
        <time>2012-09-30T06:40:09Z</time>
      </trkpt>
      <trkpt lat="47.61244" lon="6.78647">
        <ele>387.7056</ele>
        <time>2012-09-30T06:40:12Z</time>
      </trkpt>
      <trkpt lat="47.61237" lon="6.78647">
        <ele>388.3152</ele>
        <time>2012-09-30T06:40:13Z</time>
      </trkpt>
      <trkpt lat="47.6123" lon="6.78648">
        <ele>388.3152</ele>
        <time>2012-09-30T06:40:16Z</time>
      </trkpt>
      <trkpt lat="47.61223" lon="6.78648">
        <ele>388.62</ele>
        <time>2012-09-30T06:40:17Z</time>
      </trkpt>
      <trkpt lat="47.61217" lon="6.78649">
        <ele>388.9248</ele>
        <time>2012-09-30T06:40:20Z</time>
      </trkpt>
      <trkpt lat="47.6121" lon="6.78647">
        <ele>389.2296</ele>
        <time>2012-09-30T06:40:21Z</time>
      </trkpt>
      <trkpt lat="47.61204" lon="6.78643">
        <ele>389.5344</ele>
        <time>2012-09-30T06:40:24Z</time>
      </trkpt>
      <trkpt lat="47.61197" lon="6.7864">
        <ele>389.5344</ele>
        <time>2012-09-30T06:40:25Z</time>
      </trkpt>
      <trkpt lat="47.61191" lon="6.78635">
        <ele>389.5344</ele>
        <time>2012-09-30T06:40:28Z</time>
      </trkpt>
      <trkpt lat="47.61183" lon="6.78632">
        <ele>389.5344</ele>
        <time>2012-09-30T06:40:29Z</time>
      </trkpt>
      <trkpt lat="47.61176" lon="6.78627">
        <ele>389.5344</ele>
        <time>2012-09-30T06:40:31Z</time>
      </trkpt>
      <trkpt lat="47.61168" lon="6.78622">
        <ele>389.5344</ele>
        <time>2012-09-30T06:40:34Z</time>
      </trkpt>
      <trkpt lat="47.61161" lon="6.78616">
        <ele>389.2296</ele>
        <time>2012-09-30T06:40:35Z</time>
      </trkpt>
      <trkpt lat="47.61154" lon="6.7861">
        <ele>389.2296</ele>
        <time>2012-09-30T06:40:38Z</time>
      </trkpt>
      <trkpt lat="47.61147" lon="6.78605">
        <ele>389.5344</ele>
        <time>2012-09-30T06:40:39Z</time>
      </trkpt>
      <trkpt lat="47.6114" lon="6.78601">
        <ele>389.5344</ele>
        <time>2012-09-30T06:40:42Z</time>
      </trkpt>
      <trkpt lat="47.61133" lon="6.78596">
        <ele>389.8392</ele>
        <time>2012-09-30T06:40:43Z</time>
      </trkpt>
      <trkpt lat="47.61126" lon="6.78592">
        <ele>389.8392</ele>
        <time>2012-09-30T06:40:46Z</time>
      </trkpt>
      <trkpt lat="47.61119" lon="6.78586">
        <ele>390.144</ele>
        <time>2012-09-30T06:40:47Z</time>
      </trkpt>
      <trkpt lat="47.61113" lon="6.78579">
        <ele>390.144</ele>
        <time>2012-09-30T06:40:50Z</time>
      </trkpt>
      <trkpt lat="47.61106" lon="6.78573">
        <ele>390.144</ele>
        <time>2012-09-30T06:40:51Z</time>
      </trkpt>
      <trkpt lat="47.61099" lon="6.78567">
        <ele>390.144</ele>
        <time>2012-09-30T06:40:54Z</time>
      </trkpt>
      <trkpt lat="47.61092" lon="6.78561">
        <ele>390.144</ele>
        <time>2012-09-30T06:40:55Z</time>
      </trkpt>
      <trkpt lat="47.61085" lon="6.78555">
        <ele>390.144</ele>
        <time>2012-09-30T06:40:58Z</time>
      </trkpt>
      <trkpt lat="47.61078" lon="6.78549">
        <ele>389.8392</ele>
        <time>2012-09-30T06:40:59Z</time>
      </trkpt>
      <trkpt lat="47.61071" lon="6.78543">
        <ele>389.5344</ele>
        <time>2012-09-30T06:41:02Z</time>
      </trkpt>
      <trkpt lat="47.61063" lon="6.78536">
        <ele>389.2296</ele>
        <time>2012-09-30T06:41:03Z</time>
      </trkpt>
      <trkpt lat="47.61055" lon="6.78529">
        <ele>388.62</ele>
        <time>2012-09-30T06:41:06Z</time>
      </trkpt>
      <trkpt lat="47.61046" lon="6.78521">
        <ele>388.0104</ele>
        <time>2012-09-30T06:41:07Z</time>
      </trkpt>
      <trkpt lat="47.61037" lon="6.78513">
        <ele>387.096</ele>
        <time>2012-09-30T06:41:10Z</time>
      </trkpt>
      <trkpt lat="47.61027" lon="6.78503">
        <ele>386.1816</ele>
        <time>2012-09-30T06:41:11Z</time>
      </trkpt>
      <trkpt lat="47.61015" lon="6.78493">
        <ele>384.9624</ele>
        <time>2012-09-30T06:41:14Z</time>
      </trkpt>
      <trkpt lat="47.61002" lon="6.78482">
        <ele>383.4384</ele>
        <time>2012-09-30T06:41:15Z</time>
      </trkpt>
      <trkpt lat="47.60988" lon="6.7847">
        <ele>382.2192</ele>
        <time>2012-09-30T06:41:18Z</time>
      </trkpt>
      <trkpt lat="47.60974" lon="6.78458">
        <ele>381.3048</ele>
        <time>2012-09-30T06:41:19Z</time>
      </trkpt>
      <trkpt lat="47.6096" lon="6.78443">
        <ele>380.3904</ele>
        <time>2012-09-30T06:41:22Z</time>
      </trkpt>
      <trkpt lat="47.60948" lon="6.78428">
        <ele>379.7808</ele>
        <time>2012-09-30T06:41:23Z</time>
      </trkpt>
      <trkpt lat="47.60935" lon="6.78414">
        <ele>379.1712</ele>
        <time>2012-09-30T06:41:25Z</time>
      </trkpt>
      <trkpt lat="47.60923" lon="6.78399">
        <ele>378.5616</ele>
        <time>2012-09-30T06:41:28Z</time>
      </trkpt>
      <trkpt lat="47.60911" lon="6.78385">
        <ele>377.952</ele>
        <time>2012-09-30T06:41:29Z</time>
      </trkpt>
      <trkpt lat="47.609" lon="6.78371">
        <ele>377.3424</ele>
        <time>2012-09-30T06:41:32Z</time>
      </trkpt>
      <trkpt lat="47.60889" lon="6.78357">
        <ele>376.7328</ele>
        <time>2012-09-30T06:41:33Z</time>
      </trkpt>
      <trkpt lat="47.6088" lon="6.7834">
        <ele>376.1232</ele>
        <time>2012-09-30T06:41:36Z</time>
      </trkpt>
      <trkpt lat="47.60874" lon="6.78321">
        <ele>375.8184</ele>
        <time>2012-09-30T06:41:37Z</time>
      </trkpt>
      <trkpt lat="47.60868" lon="6.78303">
        <ele>375.5136</ele>
        <time>2012-09-30T06:41:40Z</time>
      </trkpt>
      <trkpt lat="47.60859" lon="6.78287">
        <ele>374.904</ele>
        <time>2012-09-30T06:41:41Z</time>
      </trkpt>
      <trkpt lat="47.6085" lon="6.78275">
        <ele>374.5992</ele>
        <time>2012-09-30T06:41:44Z</time>
      </trkpt>
      <trkpt lat="47.60841" lon="6.78263">
        <ele>374.2944</ele>
        <time>2012-09-30T06:41:45Z</time>
      </trkpt>
      <trkpt lat="47.60835" lon="6.78251">
        <ele>374.2944</ele>
        <time>2012-09-30T06:41:48Z</time>
      </trkpt>
      <trkpt lat="47.60837" lon="6.7824">
        <ele>374.2944</ele>
        <time>2012-09-30T06:41:49Z</time>
      </trkpt>
      <trkpt lat="47.60844" lon="6.78235">
        <ele>374.904</ele>
        <time>2012-09-30T06:41:52Z</time>
      </trkpt>
      <trkpt lat="47.60852" lon="6.78232">
        <ele>375.8184</ele>
        <time>2012-09-30T06:41:53Z</time>
      </trkpt>
      <trkpt lat="47.60859" lon="6.78228">
        <ele>376.7328</ele>
        <time>2012-09-30T06:41:56Z</time>
      </trkpt>
      <trkpt lat="47.60864" lon="6.78222">
        <ele>377.3424</ele>
        <time>2012-09-30T06:41:57Z</time>
      </trkpt>
      <trkpt lat="47.6087" lon="6.78217">
        <ele>378.2568</ele>
        <time>2012-09-30T06:42:00Z</time>
      </trkpt>
      <trkpt lat="47.60874" lon="6.7821">
        <ele>378.5616</ele>
        <time>2012-09-30T06:42:01Z</time>
      </trkpt>
      <trkpt lat="47.60879" lon="6.78202">
        <ele>379.1712</ele>
        <time>2012-09-30T06:42:04Z</time>
      </trkpt>
      <trkpt lat="47.60882" lon="6.78194">
        <ele>379.476</ele>
        <time>2012-09-30T06:42:05Z</time>
      </trkpt>
      <trkpt lat="47.60885" lon="6.78185">
        <ele>380.0856</ele>
        <time>2012-09-30T06:42:08Z</time>
      </trkpt>
      <trkpt lat="47.60889" lon="6.78176">
        <ele>380.3904</ele>
        <time>2012-09-30T06:42:09Z</time>
      </trkpt>
      <trkpt lat="47.60893" lon="6.78168">
        <ele>380.6952</ele>
        <time>2012-09-30T06:42:12Z</time>
      </trkpt>
      <trkpt lat="47.60896" lon="6.7816">
        <ele>381.3048</ele>
        <time>2012-09-30T06:42:13Z</time>
      </trkpt>
      <trkpt lat="47.609" lon="6.78151">
        <ele>381.6096</ele>
        <time>2012-09-30T06:42:16Z</time>
      </trkpt>
      <trkpt lat="47.60904" lon="6.78143">
        <ele>381.9144</ele>
        <time>2012-09-30T06:42:17Z</time>
      </trkpt>
      <trkpt lat="47.60908" lon="6.78135">
        <ele>382.2192</ele>
        <time>2012-09-30T06:42:19Z</time>
      </trkpt>
      <trkpt lat="47.60911" lon="6.78126">
        <ele>382.2192</ele>
        <time>2012-09-30T06:42:22Z</time>
      </trkpt>
      <trkpt lat="47.60915" lon="6.78116">
        <ele>382.524</ele>
        <time>2012-09-30T06:42:23Z</time>
      </trkpt>
      <trkpt lat="47.60919" lon="6.78105">
        <ele>382.2192</ele>
        <time>2012-09-30T06:42:26Z</time>
      </trkpt>
      <trkpt lat="47.60922" lon="6.78093">
        <ele>381.9144</ele>
        <time>2012-09-30T06:42:27Z</time>
      </trkpt>
      <trkpt lat="47.60924" lon="6.7808">
        <ele>381.3048</ele>
        <time>2012-09-30T06:42:30Z</time>
      </trkpt>
      <trkpt lat="47.60926" lon="6.78064">
        <ele>380.6952</ele>
        <time>2012-09-30T06:42:31Z</time>
      </trkpt>
      <trkpt lat="47.60928" lon="6.78048">
        <ele>379.7808</ele>
        <time>2012-09-30T06:42:34Z</time>
      </trkpt>
      <trkpt lat="47.60929" lon="6.78031">
        <ele>378.5616</ele>
        <time>2012-09-30T06:42:35Z</time>
      </trkpt>
      <trkpt lat="47.60932" lon="6.78013">
        <ele>377.0376</ele>
        <time>2012-09-30T06:42:38Z</time>
      </trkpt>
      <trkpt lat="47.60935" lon="6.77993">
        <ele>375.2088</ele>
        <time>2012-09-30T06:42:39Z</time>
      </trkpt>
      <trkpt lat="47.60939" lon="6.77971">
        <ele>373.38</ele>
        <time>2012-09-30T06:42:42Z</time>
      </trkpt>
      <trkpt lat="47.60944" lon="6.77951">
        <ele>371.856</ele>
        <time>2012-09-30T06:42:43Z</time>
      </trkpt>
      <trkpt lat="47.60949" lon="6.77936">
        <ele>370.6368</ele>
        <time>2012-09-30T06:42:46Z</time>
      </trkpt>
      <trkpt lat="47.60956" lon="6.77926">
        <ele>370.0272</ele>
        <time>2012-09-30T06:42:47Z</time>
      </trkpt>
      <trkpt lat="47.60966" lon="6.77923">
        <ele>369.4176</ele>
        <time>2012-09-30T06:42:50Z</time>
      </trkpt>
      <trkpt lat="47.60978" lon="6.77924">
        <ele>369.4176</ele>
        <time>2012-09-30T06:42:51Z</time>
      </trkpt>
      <trkpt lat="47.6099" lon="6.77924">
        <ele>369.1128</ele>
        <time>2012-09-30T06:42:54Z</time>
      </trkpt>
      <trkpt lat="47.61003" lon="6.77918">
        <ele>369.1128</ele>
        <time>2012-09-30T06:42:55Z</time>
      </trkpt>
      <trkpt lat="47.61014" lon="6.7791">
        <ele>369.1128</ele>
        <time>2012-09-30T06:42:58Z</time>
      </trkpt>
      <trkpt lat="47.61024" lon="6.77899">
        <ele>369.1128</ele>
        <time>2012-09-30T06:42:59Z</time>
      </trkpt>
      <trkpt lat="47.61034" lon="6.77888">
        <ele>369.1128</ele>
        <time>2012-09-30T06:43:02Z</time>
      </trkpt>
      <trkpt lat="47.61044" lon="6.77878">
        <ele>369.1128</ele>
        <time>2012-09-30T06:43:03Z</time>
      </trkpt>
      <trkpt lat="47.61055" lon="6.7787">
        <ele>369.1128</ele>
        <time>2012-09-30T06:43:06Z</time>
      </trkpt>
      <trkpt lat="47.61067" lon="6.77866">
        <ele>369.1128</ele>
        <time>2012-09-30T06:43:07Z</time>
      </trkpt>
      <trkpt lat="47.61078" lon="6.77864">
        <ele>369.7224</ele>
        <time>2012-09-30T06:43:10Z</time>
      </trkpt>
      <trkpt lat="47.6109" lon="6.77862">
        <ele>370.332</ele>
        <time>2012-09-30T06:43:12Z</time>
      </trkpt>
      <trkpt lat="47.611" lon="6.77859">
        <ele>370.6368</ele>
        <time>2012-09-30T06:43:13Z</time>
      </trkpt>
      <trkpt lat="47.6111" lon="6.77854">
        <ele>370.9416</ele>
        <time>2012-09-30T06:43:16Z</time>
      </trkpt>
      <trkpt lat="47.61119" lon="6.77846">
        <ele>371.2464</ele>
        <time>2012-09-30T06:43:17Z</time>
      </trkpt>
      <trkpt lat="47.61126" lon="6.77835">
        <ele>371.856</ele>
        <time>2012-09-30T06:43:20Z</time>
      </trkpt>
      <trkpt lat="47.61132" lon="6.77822">
        <ele>372.4656</ele>
        <time>2012-09-30T06:43:21Z</time>
      </trkpt>
      <trkpt lat="47.61138" lon="6.77811">
        <ele>373.0752</ele>
        <time>2012-09-30T06:43:24Z</time>
      </trkpt>
      <trkpt lat="47.61143" lon="6.778">
        <ele>373.9896</ele>
        <time>2012-09-30T06:43:25Z</time>
      </trkpt>
      <trkpt lat="47.61148" lon="6.7779">
        <ele>374.2944</ele>
        <time>2012-09-30T06:43:28Z</time>
      </trkpt>
      <trkpt lat="47.61153" lon="6.77778">
        <ele>374.5992</ele>
        <time>2012-09-30T06:43:29Z</time>
      </trkpt>
      <trkpt lat="47.61155" lon="6.77764">
        <ele>374.904</ele>
        <time>2012-09-30T06:43:32Z</time>
      </trkpt>
      <trkpt lat="47.61157" lon="6.7775">
        <ele>375.2088</ele>
        <time>2012-09-30T06:43:33Z</time>
      </trkpt>
      <trkpt lat="47.61159" lon="6.77736">
        <ele>375.2088</ele>
        <time>2012-09-30T06:43:36Z</time>
      </trkpt>
      <trkpt lat="47.61161" lon="6.77722">
        <ele>375.5136</ele>
        <time>2012-09-30T06:43:37Z</time>
      </trkpt>
      <trkpt lat="47.61164" lon="6.77709">
        <ele>375.8184</ele>
        <time>2012-09-30T06:43:40Z</time>
      </trkpt>
      <trkpt lat="47.61165" lon="6.77696">
        <ele>376.1232</ele>
        <time>2012-09-30T06:43:41Z</time>
      </trkpt>
      <trkpt lat="47.61166" lon="6.77684">
        <ele>376.428</ele>
        <time>2012-09-30T06:43:44Z</time>
      </trkpt>
      <trkpt lat="47.61166" lon="6.77674">
        <ele>376.7328</ele>
        <time>2012-09-30T06:43:45Z</time>
      </trkpt>
      <trkpt lat="47.61163" lon="6.77664">
        <ele>377.0376</ele>
        <time>2012-09-30T06:43:48Z</time>
      </trkpt>
      <trkpt lat="47.61157" lon="6.77656">
        <ele>377.3424</ele>
        <time>2012-09-30T06:43:49Z</time>
      </trkpt>
      <trkpt lat="47.61148" lon="6.77649">
        <ele>377.0376</ele>
        <time>2012-09-30T06:43:52Z</time>
      </trkpt>
      <trkpt lat="47.61139" lon="6.77641">
        <ele>376.7328</ele>
        <time>2012-09-30T06:43:53Z</time>
      </trkpt>
      <trkpt lat="47.6113" lon="6.77633">
        <ele>376.7328</ele>
        <time>2012-09-30T06:43:56Z</time>
      </trkpt>
      <trkpt lat="47.6112" lon="6.77625">
        <ele>376.7328</ele>
        <time>2012-09-30T06:43:57Z</time>
      </trkpt>
      <trkpt lat="47.61109" lon="6.77616">
        <ele>376.1232</ele>
        <time>2012-09-30T06:44:00Z</time>
      </trkpt>
      <trkpt lat="47.61099" lon="6.77606">
        <ele>375.8184</ele>
        <time>2012-09-30T06:44:01Z</time>
      </trkpt>
      <trkpt lat="47.61088" lon="6.77597">
        <ele>375.5136</ele>
        <time>2012-09-30T06:44:04Z</time>
      </trkpt>
      <trkpt lat="47.61079" lon="6.77586">
        <ele>375.2088</ele>
        <time>2012-09-30T06:44:06Z</time>
      </trkpt>
      <trkpt lat="47.6107" lon="6.77576">
        <ele>374.904</ele>
        <time>2012-09-30T06:44:07Z</time>
      </trkpt>
      <trkpt lat="47.61061" lon="6.77566">
        <ele>374.5992</ele>
        <time>2012-09-30T06:44:10Z</time>
      </trkpt>
      <trkpt lat="47.61054" lon="6.77554">
        <ele>374.5992</ele>
        <time>2012-09-30T06:44:11Z</time>
      </trkpt>
      <trkpt lat="47.61053" lon="6.7754">
        <ele>374.5992</ele>
        <time>2012-09-30T06:44:14Z</time>
      </trkpt>
      <trkpt lat="47.61056" lon="6.77526">
        <ele>374.5992</ele>
        <time>2012-09-30T06:44:15Z</time>
      </trkpt>
      <trkpt lat="47.61059" lon="6.77512">
        <ele>374.904</ele>
        <time>2012-09-30T06:44:18Z</time>
      </trkpt>
      <trkpt lat="47.61062" lon="6.77499">
        <ele>375.2088</ele>
        <time>2012-09-30T06:44:19Z</time>
      </trkpt>
      <trkpt lat="47.61066" lon="6.77487">
        <ele>375.8184</ele>
        <time>2012-09-30T06:44:22Z</time>
      </trkpt>
      <trkpt lat="47.61071" lon="6.77478">
        <ele>376.428</ele>
        <time>2012-09-30T06:44:23Z</time>
      </trkpt>
      <trkpt lat="47.61078" lon="6.77476">
        <ele>377.0376</ele>
        <time>2012-09-30T06:44:26Z</time>
      </trkpt>
      <trkpt lat="47.61086" lon="6.7748">
        <ele>377.3424</ele>
        <time>2012-09-30T06:44:27Z</time>
      </trkpt>
      <trkpt lat="47.61093" lon="6.77484">
        <ele>377.6472</ele>
        <time>2012-09-30T06:44:30Z</time>
      </trkpt>
      <trkpt lat="47.61101" lon="6.77489">
        <ele>377.6472</ele>
        <time>2012-09-30T06:44:31Z</time>
      </trkpt>
      <trkpt lat="47.61109" lon="6.77494">
        <ele>377.952</ele>
        <time>2012-09-30T06:44:34Z</time>
      </trkpt>
      <trkpt lat="47.61116" lon="6.77499">
        <ele>378.2568</ele>
        <time>2012-09-30T06:44:35Z</time>
      </trkpt>
      <trkpt lat="47.61124" lon="6.77503">
        <ele>378.5616</ele>
        <time>2012-09-30T06:44:38Z</time>
      </trkpt>
      <trkpt lat="47.61132" lon="6.77508">
        <ele>378.5616</ele>
        <time>2012-09-30T06:44:39Z</time>
      </trkpt>
      <trkpt lat="47.6114" lon="6.77513">
        <ele>378.8664</ele>
        <time>2012-09-30T06:44:42Z</time>
      </trkpt>
      <trkpt lat="47.61147" lon="6.77519">
        <ele>378.8664</ele>
        <time>2012-09-30T06:44:43Z</time>
      </trkpt>
      <trkpt lat="47.61153" lon="6.77528">
        <ele>378.8664</ele>
        <time>2012-09-30T06:44:46Z</time>
      </trkpt>
      <trkpt lat="47.61158" lon="6.77538">
        <ele>378.8664</ele>
        <time>2012-09-30T06:44:47Z</time>
      </trkpt>
      <trkpt lat="47.61163" lon="6.77547">
        <ele>379.1712</ele>
        <time>2012-09-30T06:44:50Z</time>
      </trkpt>
      <trkpt lat="47.6117" lon="6.77552">
        <ele>379.1712</ele>
        <time>2012-09-30T06:44:51Z</time>
      </trkpt>
      <trkpt lat="47.61178" lon="6.77555">
        <ele>379.476</ele>
        <time>2012-09-30T06:44:54Z</time>
      </trkpt>
      <trkpt lat="47.61187" lon="6.77557">
        <ele>379.476</ele>
        <time>2012-09-30T06:44:55Z</time>
      </trkpt>
      <trkpt lat="47.61195" lon="6.77558">
        <ele>379.7808</ele>
        <time>2012-09-30T06:44:58Z</time>
      </trkpt>
      <trkpt lat="47.61204" lon="6.7756">
        <ele>379.7808</ele>
        <time>2012-09-30T06:45:00Z</time>
      </trkpt>
      <trkpt lat="47.61212" lon="6.77562">
        <ele>379.7808</ele>
        <time>2012-09-30T06:45:01Z</time>
      </trkpt>
      <trkpt lat="47.61221" lon="6.77564">
        <ele>380.0856</ele>
        <time>2012-09-30T06:45:04Z</time>
      </trkpt>
      <trkpt lat="47.6123" lon="6.77567">
        <ele>380.0856</ele>
        <time>2012-09-30T06:45:05Z</time>
      </trkpt>
      <trkpt lat="47.61239" lon="6.77569">
        <ele>380.0856</ele>
        <time>2012-09-30T06:45:08Z</time>
      </trkpt>
      <trkpt lat="47.61249" lon="6.77571">
        <ele>380.0856</ele>
        <time>2012-09-30T06:45:09Z</time>
      </trkpt>
      <trkpt lat="47.61259" lon="6.77573">
        <ele>380.0856</ele>
        <time>2012-09-30T06:45:12Z</time>
      </trkpt>
      <trkpt lat="47.61268" lon="6.77575">
        <ele>380.3904</ele>
        <time>2012-09-30T06:45:13Z</time>
      </trkpt>
      <trkpt lat="47.61278" lon="6.77577">
        <ele>380.3904</ele>
        <time>2012-09-30T06:45:16Z</time>
      </trkpt>
      <trkpt lat="47.61288" lon="6.77579">
        <ele>381</ele>
        <time>2012-09-30T06:45:17Z</time>
      </trkpt>
      <trkpt lat="47.61297" lon="6.77581">
        <ele>381.6096</ele>
        <time>2012-09-30T06:45:20Z</time>
      </trkpt>
      <trkpt lat="47.61306" lon="6.77582">
        <ele>381.9144</ele>
        <time>2012-09-30T06:45:21Z</time>
      </trkpt>
      <trkpt lat="47.61315" lon="6.77584">
        <ele>382.2192</ele>
        <time>2012-09-30T06:45:24Z</time>
      </trkpt>
      <trkpt lat="47.61324" lon="6.77586">
        <ele>382.524</ele>
        <time>2012-09-30T06:45:25Z</time>
      </trkpt>
      <trkpt lat="47.61333" lon="6.77589">
        <ele>382.8288</ele>
        <time>2012-09-30T06:45:28Z</time>
      </trkpt>
      <trkpt lat="47.61342" lon="6.77592">
        <ele>383.1336</ele>
        <time>2012-09-30T06:45:29Z</time>
      </trkpt>
      <trkpt lat="47.61351" lon="6.77595">
        <ele>383.4384</ele>
        <time>2012-09-30T06:45:32Z</time>
      </trkpt>
      <trkpt lat="47.61359" lon="6.77598">
        <ele>383.4384</ele>
        <time>2012-09-30T06:45:33Z</time>
      </trkpt>
      <trkpt lat="47.61368" lon="6.77601">
        <ele>383.4384</ele>
        <time>2012-09-30T06:45:36Z</time>
      </trkpt>
      <trkpt lat="47.61377" lon="6.77605">
        <ele>383.4384</ele>
        <time>2012-09-30T06:45:37Z</time>
      </trkpt>
      <trkpt lat="47.61385" lon="6.7761">
        <ele>383.4384</ele>
        <time>2012-09-30T06:45:40Z</time>
      </trkpt>
      <trkpt lat="47.61393" lon="6.77617">
        <ele>387.7056</ele>
        <time>2012-09-30T06:45:41Z</time>
      </trkpt>
      <trkpt lat="47.614" lon="6.77624">
        <ele>390.4488</ele>
        <time>2012-09-30T06:45:44Z</time>
      </trkpt>
      <trkpt lat="47.61407" lon="6.77627">
        <ele>390.144</ele>
        <time>2012-09-30T06:45:45Z</time>
      </trkpt>
      <trkpt lat="47.61413" lon="6.7762">
        <ele>389.8392</ele>
        <time>2012-09-30T06:45:48Z</time>
      </trkpt>
      <trkpt lat="47.61414" lon="6.77609">
        <ele>389.5344</ele>
        <time>2012-09-30T06:45:49Z</time>
      </trkpt>
      <trkpt lat="47.61415" lon="6.77597">
        <ele>389.8392</ele>
        <time>2012-09-30T06:45:52Z</time>
      </trkpt>
      <trkpt lat="47.61415" lon="6.77585">
        <ele>389.8392</ele>
        <time>2012-09-30T06:45:54Z</time>
      </trkpt>
      <trkpt lat="47.61415" lon="6.77573">
        <ele>390.144</ele>
        <time>2012-09-30T06:45:55Z</time>
      </trkpt>
      <trkpt lat="47.61416" lon="6.77561">
        <ele>390.144</ele>
        <time>2012-09-30T06:45:58Z</time>
      </trkpt>
      <trkpt lat="47.61418" lon="6.77549">
        <ele>390.144</ele>
        <time>2012-09-30T06:45:59Z</time>
      </trkpt>
      <trkpt lat="47.61419" lon="6.77538">
        <ele>390.144</ele>
        <time>2012-09-30T06:46:02Z</time>
      </trkpt>
      <trkpt lat="47.6142" lon="6.77527">
        <ele>390.144</ele>
        <time>2012-09-30T06:46:03Z</time>
      </trkpt>
      <trkpt lat="47.61422" lon="6.77515">
        <ele>390.144</ele>
        <time>2012-09-30T06:46:06Z</time>
      </trkpt>
      <trkpt lat="47.61424" lon="6.77503">
        <ele>390.144</ele>
        <time>2012-09-30T06:46:07Z</time>
      </trkpt>
      <trkpt lat="47.61426" lon="6.77491">
        <ele>390.144</ele>
        <time>2012-09-30T06:46:10Z</time>
      </trkpt>
      <trkpt lat="47.61428" lon="6.77479">
        <ele>390.4488</ele>
        <time>2012-09-30T06:46:11Z</time>
      </trkpt>
      <trkpt lat="47.61429" lon="6.77467">
        <ele>390.4488</ele>
        <time>2012-09-30T06:46:14Z</time>
      </trkpt>
      <trkpt lat="47.61429" lon="6.77455">
        <ele>390.7536</ele>
        <time>2012-09-30T06:46:15Z</time>
      </trkpt>
      <trkpt lat="47.6143" lon="6.77444">
        <ele>391.0584</ele>
        <time>2012-09-30T06:46:18Z</time>
      </trkpt>
      <trkpt lat="47.61429" lon="6.77433">
        <ele>391.3632</ele>
        <time>2012-09-30T06:46:19Z</time>
      </trkpt>
      <trkpt lat="47.61429" lon="6.77423">
        <ele>391.668</ele>
        <time>2012-09-30T06:46:22Z</time>
      </trkpt>
      <trkpt lat="47.61428" lon="6.77413">
        <ele>392.2776</ele>
        <time>2012-09-30T06:46:23Z</time>
      </trkpt>
      <trkpt lat="47.61428" lon="6.77404">
        <ele>392.2776</ele>
        <time>2012-09-30T06:46:26Z</time>
      </trkpt>
      <trkpt lat="47.61429" lon="6.77394">
        <ele>392.2776</ele>
        <time>2012-09-30T06:46:27Z</time>
      </trkpt>
      <trkpt lat="47.6143" lon="6.77385">
        <ele>392.2776</ele>
        <time>2012-09-30T06:46:30Z</time>
      </trkpt>
      <trkpt lat="47.61432" lon="6.77375">
        <ele>392.2776</ele>
        <time>2012-09-30T06:46:31Z</time>
      </trkpt>
      <trkpt lat="47.61435" lon="6.77365">
        <ele>392.2776</ele>
        <time>2012-09-30T06:46:34Z</time>
      </trkpt>
      <trkpt lat="47.61438" lon="6.77357">
        <ele>392.2776</ele>
        <time>2012-09-30T06:46:35Z</time>
      </trkpt>
      <trkpt lat="47.61442" lon="6.77348">
        <ele>392.2776</ele>
        <time>2012-09-30T06:46:38Z</time>
      </trkpt>
      <trkpt lat="47.61446" lon="6.7734">
        <ele>392.2776</ele>
        <time>2012-09-30T06:46:39Z</time>
      </trkpt>
      <trkpt lat="47.6145" lon="6.77332">
        <ele>392.5824</ele>
        <time>2012-09-30T06:46:42Z</time>
      </trkpt>
      <trkpt lat="47.61454" lon="6.77324">
        <ele>392.5824</ele>
        <time>2012-09-30T06:46:43Z</time>
      </trkpt>
      <trkpt lat="47.61458" lon="6.77315">
        <ele>392.5824</ele>
        <time>2012-09-30T06:46:46Z</time>
      </trkpt>
      <trkpt lat="47.61463" lon="6.77306">
        <ele>392.2776</ele>
        <time>2012-09-30T06:46:48Z</time>
      </trkpt>
      <trkpt lat="47.61469" lon="6.77296">
        <ele>391.9728</ele>
        <time>2012-09-30T06:46:49Z</time>
      </trkpt>
      <trkpt lat="47.61476" lon="6.77285">
        <ele>391.668</ele>
        <time>2012-09-30T06:46:52Z</time>
      </trkpt>
      <trkpt lat="47.61484" lon="6.77275">
        <ele>391.668</ele>
        <time>2012-09-30T06:46:53Z</time>
      </trkpt>
      <trkpt lat="47.61493" lon="6.77266">
        <ele>391.3632</ele>
        <time>2012-09-30T06:46:56Z</time>
      </trkpt>
      <trkpt lat="47.61502" lon="6.77259">
        <ele>391.3632</ele>
        <time>2012-09-30T06:46:57Z</time>
      </trkpt>
      <trkpt lat="47.61511" lon="6.77253">
        <ele>391.3632</ele>
        <time>2012-09-30T06:47:00Z</time>
      </trkpt>
      <trkpt lat="47.6152" lon="6.77247">
        <ele>391.668</ele>
        <time>2012-09-30T06:47:01Z</time>
      </trkpt>
      <trkpt lat="47.61528" lon="6.7724">
        <ele>391.668</ele>
        <time>2012-09-30T06:47:04Z</time>
      </trkpt>
      <trkpt lat="47.61535" lon="6.77233">
        <ele>392.2776</ele>
        <time>2012-09-30T06:47:05Z</time>
      </trkpt>
      <trkpt lat="47.61542" lon="6.77225">
        <ele>392.5824</ele>
        <time>2012-09-30T06:47:08Z</time>
      </trkpt>
      <trkpt lat="47.61548" lon="6.77217">
        <ele>392.8872</ele>
        <time>2012-09-30T06:47:09Z</time>
      </trkpt>
      <trkpt lat="47.61554" lon="6.77208">
        <ele>393.192</ele>
        <time>2012-09-30T06:47:12Z</time>
      </trkpt>
      <trkpt lat="47.61559" lon="6.772">
        <ele>393.4968</ele>
        <time>2012-09-30T06:47:13Z</time>
      </trkpt>
      <trkpt lat="47.61564" lon="6.7719">
        <ele>393.4968</ele>
        <time>2012-09-30T06:47:16Z</time>
      </trkpt>
      <trkpt lat="47.61568" lon="6.77181">
        <ele>393.4968</ele>
        <time>2012-09-30T06:47:17Z</time>
      </trkpt>
      <trkpt lat="47.61572" lon="6.77171">
        <ele>393.4968</ele>
        <time>2012-09-30T06:47:20Z</time>
      </trkpt>
      <trkpt lat="47.61577" lon="6.77161">
        <ele>392.8872</ele>
        <time>2012-09-30T06:47:21Z</time>
      </trkpt>
      <trkpt lat="47.61583" lon="6.77149">
        <ele>391.9728</ele>
        <time>2012-09-30T06:47:24Z</time>
      </trkpt>
      <trkpt lat="47.61589" lon="6.77133">
        <ele>390.7536</ele>
        <time>2012-09-30T06:47:25Z</time>
      </trkpt>
      <trkpt lat="47.61595" lon="6.77116">
        <ele>390.144</ele>
        <time>2012-09-30T06:47:28Z</time>
      </trkpt>
      <trkpt lat="47.61601" lon="6.77099">
        <ele>390.144</ele>
        <time>2012-09-30T06:47:29Z</time>
      </trkpt>
      <trkpt lat="47.61606" lon="6.77082">
        <ele>390.144</ele>
        <time>2012-09-30T06:47:32Z</time>
      </trkpt>
      <trkpt lat="47.6161" lon="6.77067">
        <ele>390.144</ele>
        <time>2012-09-30T06:47:33Z</time>
      </trkpt>
      <trkpt lat="47.61614" lon="6.77053">
        <ele>390.4488</ele>
        <time>2012-09-30T06:47:36Z</time>
      </trkpt>
      <trkpt lat="47.61617" lon="6.7704">
        <ele>390.7536</ele>
        <time>2012-09-30T06:47:37Z</time>
      </trkpt>
      <trkpt lat="47.61621" lon="6.77029">
        <ele>391.0584</ele>
        <time>2012-09-30T06:47:40Z</time>
      </trkpt>
      <trkpt lat="47.61624" lon="6.7702">
        <ele>391.3632</ele>
        <time>2012-09-30T06:47:42Z</time>
      </trkpt>
      <trkpt lat="47.61628" lon="6.77013">
        <ele>391.9728</ele>
        <time>2012-09-30T06:47:43Z</time>
      </trkpt>
      <trkpt lat="47.61631" lon="6.77006">
        <ele>392.2776</ele>
        <time>2012-09-30T06:47:46Z</time>
      </trkpt>
      <trkpt lat="47.61635" lon="6.77001">
        <ele>392.8872</ele>
        <time>2012-09-30T06:47:47Z</time>
      </trkpt>
      <trkpt lat="47.61639" lon="6.76996">
        <ele>393.4968</ele>
        <time>2012-09-30T06:47:50Z</time>
      </trkpt>
      <trkpt lat="47.61644" lon="6.76991">
        <ele>394.1064</ele>
        <time>2012-09-30T06:47:51Z</time>
      </trkpt>
      <trkpt lat="47.61648" lon="6.76986">
        <ele>395.0208</ele>
        <time>2012-09-30T06:47:54Z</time>
      </trkpt>
      <trkpt lat="47.61652" lon="6.76982">
        <ele>396.24</ele>
        <time>2012-09-30T06:47:55Z</time>
      </trkpt>
      <trkpt lat="47.61657" lon="6.76978">
        <ele>397.764</ele>
        <time>2012-09-30T06:47:58Z</time>
      </trkpt>
      <trkpt lat="47.61661" lon="6.76975">
        <ele>398.6784</ele>
        <time>2012-09-30T06:47:59Z</time>
      </trkpt>
      <trkpt lat="47.61665" lon="6.76971">
        <ele>399.288</ele>
        <time>2012-09-30T06:48:02Z</time>
      </trkpt>
      <trkpt lat="47.61668" lon="6.76967">
        <ele>400.2024</ele>
        <time>2012-09-30T06:48:03Z</time>
      </trkpt>
      <trkpt lat="47.61672" lon="6.76964">
        <ele>401.4216</ele>
        <time>2012-09-30T06:48:06Z</time>
      </trkpt>
      <trkpt lat="47.61676" lon="6.76961">
        <ele>402.6408</ele>
        <time>2012-09-30T06:48:07Z</time>
      </trkpt>
      <trkpt lat="47.6168" lon="6.76958">
        <ele>403.86</ele>
        <time>2012-09-30T06:48:10Z</time>
      </trkpt>
      <trkpt lat="47.61684" lon="6.76954">
        <ele>404.7744</ele>
        <time>2012-09-30T06:48:11Z</time>
      </trkpt>
      <trkpt lat="47.61688" lon="6.76952">
        <ele>406.2984</ele>
        <time>2012-09-30T06:48:14Z</time>
      </trkpt>
      <trkpt lat="47.61692" lon="6.76948">
        <ele>407.2128</ele>
        <time>2012-09-30T06:48:15Z</time>
      </trkpt>
      <trkpt lat="47.61696" lon="6.76944">
        <ele>407.2128</ele>
        <time>2012-09-30T06:48:18Z</time>
      </trkpt>
      <trkpt lat="47.61699" lon="6.76939">
        <ele>407.8224</ele>
        <time>2012-09-30T06:48:19Z</time>
      </trkpt>
      <trkpt lat="47.61703" lon="6.76935">
        <ele>408.432</ele>
        <time>2012-09-30T06:48:22Z</time>
      </trkpt>
      <trkpt lat="47.61707" lon="6.7693">
        <ele>408.1272</ele>
        <time>2012-09-30T06:48:23Z</time>
      </trkpt>
      <trkpt lat="47.6171" lon="6.76926">
        <ele>408.432</ele>
        <time>2012-09-30T06:48:26Z</time>
      </trkpt>
      <trkpt lat="47.61714" lon="6.76922">
        <ele>408.1272</ele>
        <time>2012-09-30T06:48:27Z</time>
      </trkpt>
      <trkpt lat="47.61718" lon="6.76917">
        <ele>408.1272</ele>
        <time>2012-09-30T06:48:30Z</time>
      </trkpt>
      <trkpt lat="47.61721" lon="6.76911">
        <ele>407.8224</ele>
        <time>2012-09-30T06:48:31Z</time>
      </trkpt>
      <trkpt lat="47.61724" lon="6.76906">
        <ele>407.5176</ele>
        <time>2012-09-30T06:48:34Z</time>
      </trkpt>
      <trkpt lat="47.61728" lon="6.769">
        <ele>407.5176</ele>
        <time>2012-09-30T06:48:36Z</time>
      </trkpt>
      <trkpt lat="47.61731" lon="6.76895">
        <ele>407.5176</ele>
        <time>2012-09-30T06:48:37Z</time>
      </trkpt>
      <trkpt lat="47.61735" lon="6.76888">
        <ele>407.5176</ele>
        <time>2012-09-30T06:48:40Z</time>
      </trkpt>
      <trkpt lat="47.61738" lon="6.7688">
        <ele>407.8224</ele>
        <time>2012-09-30T06:48:41Z</time>
      </trkpt>
      <trkpt lat="47.61741" lon="6.76872">
        <ele>407.8224</ele>
        <time>2012-09-30T06:48:44Z</time>
      </trkpt>
      <trkpt lat="47.61744" lon="6.76864">
        <ele>408.1272</ele>
        <time>2012-09-30T06:48:45Z</time>
      </trkpt>
      <trkpt lat="47.61746" lon="6.76858">
        <ele>408.432</ele>
        <time>2012-09-30T06:48:48Z</time>
      </trkpt>
      <trkpt lat="47.61749" lon="6.76851">
        <ele>409.0416</ele>
        <time>2012-09-30T06:48:49Z</time>
      </trkpt>
      <trkpt lat="47.61751" lon="6.76845">
        <ele>409.6512</ele>
        <time>2012-09-30T06:48:52Z</time>
      </trkpt>
      <trkpt lat="47.61753" lon="6.76838">
        <ele>409.956</ele>
        <time>2012-09-30T06:48:53Z</time>
      </trkpt>
      <trkpt lat="47.61755" lon="6.76831">
        <ele>410.5656</ele>
        <time>2012-09-30T06:48:56Z</time>
      </trkpt>
      <trkpt lat="47.61757" lon="6.76824">
        <ele>410.8704</ele>
        <time>2012-09-30T06:48:57Z</time>
      </trkpt>
      <trkpt lat="47.61759" lon="6.76817">
        <ele>411.1752</ele>
        <time>2012-09-30T06:49:00Z</time>
      </trkpt>
      <trkpt lat="47.61761" lon="6.76809">
        <ele>411.1752</ele>
        <time>2012-09-30T06:49:01Z</time>
      </trkpt>
      <trkpt lat="47.61764" lon="6.76801">
        <ele>410.8704</ele>
        <time>2012-09-30T06:49:04Z</time>
      </trkpt>
      <trkpt lat="47.61767" lon="6.76791">
        <ele>410.5656</ele>
        <time>2012-09-30T06:49:05Z</time>
      </trkpt>
      <trkpt lat="47.6177" lon="6.7678">
        <ele>410.2608</ele>
        <time>2012-09-30T06:49:08Z</time>
      </trkpt>
      <trkpt lat="47.61775" lon="6.76767">
        <ele>409.3464</ele>
        <time>2012-09-30T06:49:09Z</time>
      </trkpt>
      <trkpt lat="47.61779" lon="6.76754">
        <ele>408.1272</ele>
        <time>2012-09-30T06:49:12Z</time>
      </trkpt>
      <trkpt lat="47.61785" lon="6.76739">
        <ele>407.2128</ele>
        <time>2012-09-30T06:49:13Z</time>
      </trkpt>
      <trkpt lat="47.61791" lon="6.76725">
        <ele>406.6032</ele>
        <time>2012-09-30T06:49:16Z</time>
      </trkpt>
      <trkpt lat="47.61796" lon="6.76708">
        <ele>405.9936</ele>
        <time>2012-09-30T06:49:17Z</time>
      </trkpt>
      <trkpt lat="47.61802" lon="6.76692">
        <ele>405.384</ele>
        <time>2012-09-30T06:49:20Z</time>
      </trkpt>
      <trkpt lat="47.61806" lon="6.76675">
        <ele>404.7744</ele>
        <time>2012-09-30T06:49:21Z</time>
      </trkpt>
      <trkpt lat="47.61811" lon="6.76659">
        <ele>403.86</ele>
        <time>2012-09-30T06:49:24Z</time>
      </trkpt>
      <trkpt lat="47.61819" lon="6.76646">
        <ele>403.2504</ele>
        <time>2012-09-30T06:49:25Z</time>
      </trkpt>
      <trkpt lat="47.6183" lon="6.76636">
        <ele>402.6408</ele>
        <time>2012-09-30T06:49:28Z</time>
      </trkpt>
      <trkpt lat="47.61842" lon="6.76629">
        <ele>402.336</ele>
        <time>2012-09-30T06:49:30Z</time>
      </trkpt>
      <trkpt lat="47.61855" lon="6.76623">
        <ele>402.0312</ele>
        <time>2012-09-30T06:49:31Z</time>
      </trkpt>
      <trkpt lat="47.61868" lon="6.76623">
        <ele>401.7264</ele>
        <time>2012-09-30T06:49:34Z</time>
      </trkpt>
      <trkpt lat="47.61881" lon="6.76627">
        <ele>400.812</ele>
        <time>2012-09-30T06:49:35Z</time>
      </trkpt>
      <trkpt lat="47.61893" lon="6.76634">
        <ele>400.5072</ele>
        <time>2012-09-30T06:49:38Z</time>
      </trkpt>
      <trkpt lat="47.61905" lon="6.76641">
        <ele>400.812</ele>
        <time>2012-09-30T06:49:39Z</time>
      </trkpt>
      <trkpt lat="47.61916" lon="6.76647">
        <ele>400.812</ele>
        <time>2012-09-30T06:49:42Z</time>
      </trkpt>
      <trkpt lat="47.6196" lon="6.76667">
        <ele>402.0312</ele>
        <time>2012-09-30T06:49:50Z</time>
      </trkpt>
      <trkpt lat="47.61974" lon="6.76669">
        <ele>399.8976</ele>
        <time>2012-09-30T06:49:51Z</time>
      </trkpt>
      <trkpt lat="47.61988" lon="6.76668">
        <ele>398.3736</ele>
        <time>2012-09-30T06:49:54Z</time>
      </trkpt>
      <trkpt lat="47.62002" lon="6.76666">
        <ele>397.4592</ele>
        <time>2012-09-30T06:49:55Z</time>
      </trkpt>
      <trkpt lat="47.62016" lon="6.76663">
        <ele>396.5448</ele>
        <time>2012-09-30T06:49:58Z</time>
      </trkpt>
      <trkpt lat="47.62031" lon="6.76661">
        <ele>395.9352</ele>
        <time>2012-09-30T06:49:59Z</time>
      </trkpt>
      <trkpt lat="47.62047" lon="6.76659">
        <ele>394.716</ele>
        <time>2012-09-30T06:50:02Z</time>
      </trkpt>
      <trkpt lat="47.62064" lon="6.76654">
        <ele>393.192</ele>
        <time>2012-09-30T06:50:03Z</time>
      </trkpt>
      <trkpt lat="47.62081" lon="6.76645">
        <ele>392.5824</ele>
        <time>2012-09-30T06:50:06Z</time>
      </trkpt>
      <trkpt lat="47.62097" lon="6.7663">
        <ele>391.0584</ele>
        <time>2012-09-30T06:50:07Z</time>
      </trkpt>
      <trkpt lat="47.62111" lon="6.76612">
        <ele>388.62</ele>
        <time>2012-09-30T06:50:10Z</time>
      </trkpt>
      <trkpt lat="47.62126" lon="6.76593">
        <ele>386.4864</ele>
        <time>2012-09-30T06:50:11Z</time>
      </trkpt>
      <trkpt lat="47.62141" lon="6.76578">
        <ele>385.2672</ele>
        <time>2012-09-30T06:50:14Z</time>
      </trkpt>
      <trkpt lat="47.62155" lon="6.76568">
        <ele>384.6576</ele>
        <time>2012-09-30T06:50:15Z</time>
      </trkpt>
      <trkpt lat="47.62166" lon="6.76559">
        <ele>383.7432</ele>
        <time>2012-09-30T06:50:18Z</time>
      </trkpt>
      <trkpt lat="47.62178" lon="6.76552">
        <ele>383.1336</ele>
        <time>2012-09-30T06:50:19Z</time>
      </trkpt>
      <trkpt lat="47.62189" lon="6.76545">
        <ele>382.8288</ele>
        <time>2012-09-30T06:50:22Z</time>
      </trkpt>
      <trkpt lat="47.62199" lon="6.76536">
        <ele>383.1336</ele>
        <time>2012-09-30T06:50:24Z</time>
      </trkpt>
      <trkpt lat="47.62209" lon="6.76526">
        <ele>382.524</ele>
        <time>2012-09-30T06:50:25Z</time>
      </trkpt>
      <trkpt lat="47.62219" lon="6.76516">
        <ele>382.8288</ele>
        <time>2012-09-30T06:50:28Z</time>
      </trkpt>
      <trkpt lat="47.6223" lon="6.76506">
        <ele>381.9144</ele>
        <time>2012-09-30T06:50:29Z</time>
      </trkpt>
      <trkpt lat="47.62241" lon="6.76498">
        <ele>381.3048</ele>
        <time>2012-09-30T06:50:32Z</time>
      </trkpt>
      <trkpt lat="47.62254" lon="6.76489">
        <ele>381</ele>
        <time>2012-09-30T06:50:33Z</time>
      </trkpt>
      <trkpt lat="47.62264" lon="6.76479">
        <ele>381</ele>
        <time>2012-09-30T06:50:36Z</time>
      </trkpt>
      <trkpt lat="47.62276" lon="6.76467">
        <ele>381</ele>
        <time>2012-09-30T06:50:37Z</time>
      </trkpt>
      <trkpt lat="47.62287" lon="6.76454">
        <ele>380.6952</ele>
        <time>2012-09-30T06:50:40Z</time>
      </trkpt>
      <trkpt lat="47.623" lon="6.76442">
        <ele>380.0856</ele>
        <time>2012-09-30T06:50:41Z</time>
      </trkpt>
      <trkpt lat="47.62313" lon="6.76431">
        <ele>379.476</ele>
        <time>2012-09-30T06:50:44Z</time>
      </trkpt>
      <trkpt lat="47.62326" lon="6.76421">
        <ele>379.1712</ele>
        <time>2012-09-30T06:50:45Z</time>
      </trkpt>
      <trkpt lat="47.62339" lon="6.76411">
        <ele>377.952</ele>
        <time>2012-09-30T06:50:48Z</time>
      </trkpt>
      <trkpt lat="47.62351" lon="6.76401">
        <ele>377.3424</ele>
        <time>2012-09-30T06:50:49Z</time>
      </trkpt>
      <trkpt lat="47.62363" lon="6.76392">
        <ele>376.7328</ele>
        <time>2012-09-30T06:50:52Z</time>
      </trkpt>
      <trkpt lat="47.62374" lon="6.76383">
        <ele>376.428</ele>
        <time>2012-09-30T06:50:53Z</time>
      </trkpt>
      <trkpt lat="47.62384" lon="6.76374">
        <ele>375.8184</ele>
        <time>2012-09-30T06:50:56Z</time>
      </trkpt>
      <trkpt lat="47.62393" lon="6.76369">
        <ele>375.8184</ele>
        <time>2012-09-30T06:50:57Z</time>
      </trkpt>
      <trkpt lat="47.62399" lon="6.76373">
        <ele>376.428</ele>
        <time>2012-09-30T06:51:00Z</time>
      </trkpt>
      <trkpt lat="47.62402" lon="6.76383">
        <ele>377.0376</ele>
        <time>2012-09-30T06:51:01Z</time>
      </trkpt>
      <trkpt lat="47.62403" lon="6.76395">
        <ele>377.3424</ele>
        <time>2012-09-30T06:51:04Z</time>
      </trkpt>
      <trkpt lat="47.62402" lon="6.76408">
        <ele>377.6472</ele>
        <time>2012-09-30T06:51:05Z</time>
      </trkpt>
      <trkpt lat="47.62402" lon="6.76422">
        <ele>377.952</ele>
        <time>2012-09-30T06:51:08Z</time>
      </trkpt>
      <trkpt lat="47.62402" lon="6.76436">
        <ele>378.2568</ele>
        <time>2012-09-30T06:51:09Z</time>
      </trkpt>
      <trkpt lat="47.62402" lon="6.76449">
        <ele>378.2568</ele>
        <time>2012-09-30T06:51:12Z</time>
      </trkpt>
      <trkpt lat="47.62401" lon="6.76463">
        <ele>378.5616</ele>
        <time>2012-09-30T06:51:13Z</time>
      </trkpt>
      <trkpt lat="47.62401" lon="6.76477">
        <ele>378.5616</ele>
        <time>2012-09-30T06:51:16Z</time>
      </trkpt>
      <trkpt lat="47.624" lon="6.76491">
        <ele>378.5616</ele>
        <time>2012-09-30T06:51:17Z</time>
      </trkpt>
      <trkpt lat="47.624" lon="6.76504">
        <ele>378.8664</ele>
        <time>2012-09-30T06:51:19Z</time>
      </trkpt>
      <trkpt lat="47.62401" lon="6.76517">
        <ele>379.1712</ele>
        <time>2012-09-30T06:51:22Z</time>
      </trkpt>
      <trkpt lat="47.62402" lon="6.76529">
        <ele>379.476</ele>
        <time>2012-09-30T06:51:23Z</time>
      </trkpt>
      <trkpt lat="47.62404" lon="6.76541">
        <ele>379.7808</ele>
        <time>2012-09-30T06:51:26Z</time>
      </trkpt>
      <trkpt lat="47.62408" lon="6.76552">
        <ele>380.3904</ele>
        <time>2012-09-30T06:51:27Z</time>
      </trkpt>
      <trkpt lat="47.62412" lon="6.76561">
        <ele>380.6952</ele>
        <time>2012-09-30T06:51:30Z</time>
      </trkpt>
      <trkpt lat="47.62418" lon="6.7657">
        <ele>381.3048</ele>
        <time>2012-09-30T06:51:31Z</time>
      </trkpt>
      <trkpt lat="47.62424" lon="6.76576">
        <ele>381.6096</ele>
        <time>2012-09-30T06:51:34Z</time>
      </trkpt>
      <trkpt lat="47.62432" lon="6.7658">
        <ele>381.9144</ele>
        <time>2012-09-30T06:51:35Z</time>
      </trkpt>
      <trkpt lat="47.6244" lon="6.76583">
        <ele>382.524</ele>
        <time>2012-09-30T06:51:38Z</time>
      </trkpt>
      <trkpt lat="47.62447" lon="6.76585">
        <ele>382.8288</ele>
        <time>2012-09-30T06:51:39Z</time>
      </trkpt>
      <trkpt lat="47.62455" lon="6.76586">
        <ele>383.1336</ele>
        <time>2012-09-30T06:51:42Z</time>
      </trkpt>
      <trkpt lat="47.62463" lon="6.76588">
        <ele>383.7432</ele>
        <time>2012-09-30T06:51:43Z</time>
      </trkpt>
      <trkpt lat="47.62471" lon="6.7659">
        <ele>384.048</ele>
        <time>2012-09-30T06:51:46Z</time>
      </trkpt>
      <trkpt lat="47.62478" lon="6.76592">
        <ele>384.3528</ele>
        <time>2012-09-30T06:51:47Z</time>
      </trkpt>
      <trkpt lat="47.62486" lon="6.76594">
        <ele>384.9624</ele>
        <time>2012-09-30T06:51:50Z</time>
      </trkpt>
      <trkpt lat="47.62493" lon="6.76596">
        <ele>385.2672</ele>
        <time>2012-09-30T06:51:51Z</time>
      </trkpt>
      <trkpt lat="47.62501" lon="6.76597">
        <ele>385.572</ele>
        <time>2012-09-30T06:51:54Z</time>
      </trkpt>
      <trkpt lat="47.62509" lon="6.76599">
        <ele>385.8768</ele>
        <time>2012-09-30T06:51:55Z</time>
      </trkpt>
      <trkpt lat="47.62516" lon="6.76601">
        <ele>386.1816</ele>
        <time>2012-09-30T06:51:58Z</time>
      </trkpt>
      <trkpt lat="47.62524" lon="6.76602">
        <ele>386.4864</ele>
        <time>2012-09-30T06:51:59Z</time>
      </trkpt>
      <trkpt lat="47.62532" lon="6.76604">
        <ele>387.096</ele>
        <time>2012-09-30T06:52:02Z</time>
      </trkpt>
      <trkpt lat="47.62539" lon="6.76606">
        <ele>387.4008</ele>
        <time>2012-09-30T06:52:03Z</time>
      </trkpt>
      <trkpt lat="47.62547" lon="6.7661">
        <ele>387.7056</ele>
        <time>2012-09-30T06:52:06Z</time>
      </trkpt>
      <trkpt lat="47.62554" lon="6.76614">
        <ele>387.7056</ele>
        <time>2012-09-30T06:52:07Z</time>
      </trkpt>
      <trkpt lat="47.62561" lon="6.7662">
        <ele>388.0104</ele>
        <time>2012-09-30T06:52:10Z</time>
      </trkpt>
      <trkpt lat="47.62568" lon="6.76626">
        <ele>388.3152</ele>
        <time>2012-09-30T06:52:11Z</time>
      </trkpt>
      <trkpt lat="47.62574" lon="6.76633">
        <ele>388.3152</ele>
        <time>2012-09-30T06:52:13Z</time>
      </trkpt>
      <trkpt lat="47.62581" lon="6.76641">
        <ele>388.3152</ele>
        <time>2012-09-30T06:52:16Z</time>
      </trkpt>
      <trkpt lat="47.62587" lon="6.76651">
        <ele>388.3152</ele>
        <time>2012-09-30T06:52:17Z</time>
      </trkpt>
      <trkpt lat="47.62595" lon="6.76661">
        <ele>388.62</ele>
        <time>2012-09-30T06:52:20Z</time>
      </trkpt>
      <trkpt lat="47.62602" lon="6.76672">
        <ele>389.2296</ele>
        <time>2012-09-30T06:52:21Z</time>
      </trkpt>
      <trkpt lat="47.62609" lon="6.76684">
        <ele>389.8392</ele>
        <time>2012-09-30T06:52:24Z</time>
      </trkpt>
      <trkpt lat="47.62617" lon="6.76695">
        <ele>390.7536</ele>
        <time>2012-09-30T06:52:25Z</time>
      </trkpt>
      <trkpt lat="47.62624" lon="6.76706">
        <ele>392.2776</ele>
        <time>2012-09-30T06:52:28Z</time>
      </trkpt>
      <trkpt lat="47.62631" lon="6.76717">
        <ele>393.8016</ele>
        <time>2012-09-30T06:52:29Z</time>
      </trkpt>
      <trkpt lat="47.62638" lon="6.76726">
        <ele>395.0208</ele>
        <time>2012-09-30T06:52:32Z</time>
      </trkpt>
      <trkpt lat="47.62642" lon="6.76735">
        <ele>397.1544</ele>
        <time>2012-09-30T06:52:33Z</time>
      </trkpt>
      <trkpt lat="47.62649" lon="6.76736">
        <ele>397.4592</ele>
        <time>2012-09-30T06:52:36Z</time>
      </trkpt>
      <trkpt lat="47.62654" lon="6.76735">
        <ele>395.6304</ele>
        <time>2012-09-30T06:52:37Z</time>
      </trkpt>
      <trkpt lat="47.62659" lon="6.76734">
        <ele>395.3256</ele>
        <time>2012-09-30T06:52:40Z</time>
      </trkpt>
      <trkpt lat="47.62664" lon="6.76734">
        <ele>395.3256</ele>
        <time>2012-09-30T06:52:41Z</time>
      </trkpt>
      <trkpt lat="47.62669" lon="6.76733">
        <ele>395.6304</ele>
        <time>2012-09-30T06:52:44Z</time>
      </trkpt>
      <trkpt lat="47.62675" lon="6.76731">
        <ele>395.9352</ele>
        <time>2012-09-30T06:52:45Z</time>
      </trkpt>
      <trkpt lat="47.62679" lon="6.76728">
        <ele>396.24</ele>
        <time>2012-09-30T06:52:48Z</time>
      </trkpt>
      <trkpt lat="47.62683" lon="6.76725">
        <ele>397.764</ele>
        <time>2012-09-30T06:52:49Z</time>
      </trkpt>
      <trkpt lat="47.62686" lon="6.76722">
        <ele>398.6784</ele>
        <time>2012-09-30T06:52:52Z</time>
      </trkpt>
      <trkpt lat="47.6269" lon="6.76718">
        <ele>399.288</ele>
        <time>2012-09-30T06:52:53Z</time>
      </trkpt>
      <trkpt lat="47.62693" lon="6.76715">
        <ele>399.5928</ele>
        <time>2012-09-30T06:52:56Z</time>
      </trkpt>
      <trkpt lat="47.62696" lon="6.76711">
        <ele>399.5928</ele>
        <time>2012-09-30T06:52:57Z</time>
      </trkpt>
      <trkpt lat="47.62699" lon="6.76707">
        <ele>400.2024</ele>
        <time>2012-09-30T06:53:00Z</time>
      </trkpt>
      <trkpt lat="47.62702" lon="6.76703">
        <ele>400.5072</ele>
        <time>2012-09-30T06:53:01Z</time>
      </trkpt>
      <trkpt lat="47.62704" lon="6.76698">
        <ele>401.1168</ele>
        <time>2012-09-30T06:53:04Z</time>
      </trkpt>
      <trkpt lat="47.62708" lon="6.76695">
        <ele>400.5072</ele>
        <time>2012-09-30T06:53:05Z</time>
      </trkpt>
      <trkpt lat="47.62712" lon="6.76691">
        <ele>400.2024</ele>
        <time>2012-09-30T06:53:07Z</time>
      </trkpt>
      <trkpt lat="47.62714" lon="6.76686">
        <ele>399.8976</ele>
        <time>2012-09-30T06:53:10Z</time>
      </trkpt>
      <trkpt lat="47.62715" lon="6.76681">
        <ele>399.288</ele>
        <time>2012-09-30T06:53:11Z</time>
      </trkpt>
      <trkpt lat="47.62717" lon="6.76677">
        <ele>399.288</ele>
        <time>2012-09-30T06:53:14Z</time>
      </trkpt>
      <trkpt lat="47.62718" lon="6.76673">
        <ele>399.5928</ele>
        <time>2012-09-30T06:53:15Z</time>
      </trkpt>
      <trkpt lat="47.6272" lon="6.76668">
        <ele>399.5928</ele>
        <time>2012-09-30T06:53:18Z</time>
      </trkpt>
      <trkpt lat="47.62721" lon="6.76665">
        <ele>399.288</ele>
        <time>2012-09-30T06:53:19Z</time>
      </trkpt>
      <trkpt lat="47.62725" lon="6.76662">
        <ele>398.6784</ele>
        <time>2012-09-30T06:53:22Z</time>
      </trkpt>
      <trkpt lat="47.62729" lon="6.7666">
        <ele>397.4592</ele>
        <time>2012-09-30T06:53:23Z</time>
      </trkpt>
      <trkpt lat="47.62731" lon="6.76655">
        <ele>396.8496</ele>
        <time>2012-09-30T06:53:26Z</time>
      </trkpt>
      <trkpt lat="47.62733" lon="6.76649">
        <ele>396.24</ele>
        <time>2012-09-30T06:53:27Z</time>
      </trkpt>
      <trkpt lat="47.62735" lon="6.76645">
        <ele>395.9352</ele>
        <time>2012-09-30T06:53:30Z</time>
      </trkpt>
      <trkpt lat="47.62736" lon="6.7664">
        <ele>395.9352</ele>
        <time>2012-09-30T06:53:31Z</time>
      </trkpt>
      <trkpt lat="47.62739" lon="6.76636">
        <ele>396.8496</ele>
        <time>2012-09-30T06:53:34Z</time>
      </trkpt>
      <trkpt lat="47.62739" lon="6.7663">
        <ele>397.4592</ele>
        <time>2012-09-30T06:53:35Z</time>
      </trkpt>
      <trkpt lat="47.62742" lon="6.76626">
        <ele>397.1544</ele>
        <time>2012-09-30T06:53:38Z</time>
      </trkpt>
      <trkpt lat="47.62743" lon="6.76621">
        <ele>398.3736</ele>
        <time>2012-09-30T06:53:39Z</time>
      </trkpt>
      <trkpt lat="47.62744" lon="6.76617">
        <ele>398.3736</ele>
        <time>2012-09-30T06:53:42Z</time>
      </trkpt>
      <trkpt lat="47.62743" lon="6.76611">
        <ele>401.1168</ele>
        <time>2012-09-30T06:53:43Z</time>
      </trkpt>
      <trkpt lat="47.62743" lon="6.76606">
        <ele>402.6408</ele>
        <time>2012-09-30T06:53:46Z</time>
      </trkpt>
      <trkpt lat="47.62745" lon="6.76602">
        <ele>403.86</ele>
        <time>2012-09-30T06:53:47Z</time>
      </trkpt>
      <trkpt lat="47.62746" lon="6.76597">
        <ele>403.86</ele>
        <time>2012-09-30T06:53:50Z</time>
      </trkpt>
      <trkpt lat="47.62749" lon="6.76594">
        <ele>403.86</ele>
        <time>2012-09-30T06:53:51Z</time>
      </trkpt>
      <trkpt lat="47.62751" lon="6.76591">
        <ele>404.1648</ele>
        <time>2012-09-30T06:53:54Z</time>
      </trkpt>
      <trkpt lat="47.62752" lon="6.76586">
        <ele>404.4696</ele>
        <time>2012-09-30T06:53:55Z</time>
      </trkpt>
      <trkpt lat="47.62753" lon="6.7658">
        <ele>404.4696</ele>
        <time>2012-09-30T06:53:58Z</time>
      </trkpt>
      <trkpt lat="47.62755" lon="6.76575">
        <ele>404.4696</ele>
        <time>2012-09-30T06:53:59Z</time>
      </trkpt>
      <trkpt lat="47.62756" lon="6.76569">
        <ele>405.384</ele>
        <time>2012-09-30T06:54:01Z</time>
      </trkpt>
      <trkpt lat="47.62759" lon="6.76565">
        <ele>405.6888</ele>
        <time>2012-09-30T06:54:04Z</time>
      </trkpt>
      <trkpt lat="47.62763" lon="6.76562">
        <ele>405.6888</ele>
        <time>2012-09-30T06:54:05Z</time>
      </trkpt>
      <trkpt lat="47.62767" lon="6.76558">
        <ele>405.9936</ele>
        <time>2012-09-30T06:54:08Z</time>
      </trkpt>
      <trkpt lat="47.62772" lon="6.76556">
        <ele>405.6888</ele>
        <time>2012-09-30T06:54:09Z</time>
      </trkpt>
      <trkpt lat="47.62777" lon="6.76552">
        <ele>405.6888</ele>
        <time>2012-09-30T06:54:12Z</time>
      </trkpt>
      <trkpt lat="47.62777" lon="6.76547">
        <ele>407.5176</ele>
        <time>2012-09-30T06:54:13Z</time>
      </trkpt>
      <trkpt lat="47.62778" lon="6.76542">
        <ele>408.432</ele>
        <time>2012-09-30T06:54:16Z</time>
      </trkpt>
      <trkpt lat="47.6278" lon="6.76538">
        <ele>408.7368</ele>
        <time>2012-09-30T06:54:17Z</time>
      </trkpt>
      <trkpt lat="47.62782" lon="6.76533">
        <ele>407.8224</ele>
        <time>2012-09-30T06:54:20Z</time>
      </trkpt>
      <trkpt lat="47.62784" lon="6.76528">
        <ele>409.0416</ele>
        <time>2012-09-30T06:54:21Z</time>
      </trkpt>
      <trkpt lat="47.62786" lon="6.76525">
        <ele>408.432</ele>
        <time>2012-09-30T06:54:24Z</time>
      </trkpt>
      <trkpt lat="47.62788" lon="6.76524">
        <ele>408.432</ele>
        <time>2012-09-30T06:54:25Z</time>
      </trkpt>
      <trkpt lat="47.6279" lon="6.76523">
        <ele>408.7368</ele>
        <time>2012-09-30T06:54:28Z</time>
      </trkpt>
      <trkpt lat="47.62793" lon="6.76521">
        <ele>409.6512</ele>
        <time>2012-09-30T06:54:29Z</time>
      </trkpt>
      <trkpt lat="47.62797" lon="6.76519">
        <ele>410.8704</ele>
        <time>2012-09-30T06:54:32Z</time>
      </trkpt>
      <trkpt lat="47.62801" lon="6.76517">
        <ele>410.5656</ele>
        <time>2012-09-30T06:54:33Z</time>
      </trkpt>
      <trkpt lat="47.62808" lon="6.76515">
        <ele>410.2608</ele>
        <time>2012-09-30T06:54:36Z</time>
      </trkpt>
      <trkpt lat="47.62815" lon="6.76516">
        <ele>409.6512</ele>
        <time>2012-09-30T06:54:37Z</time>
      </trkpt>
      <trkpt lat="47.62821" lon="6.76518">
        <ele>410.2608</ele>
        <time>2012-09-30T06:54:40Z</time>
      </trkpt>
      <trkpt lat="47.62826" lon="6.7652">
        <ele>410.8704</ele>
        <time>2012-09-30T06:54:41Z</time>
      </trkpt>
      <trkpt lat="47.62832" lon="6.76519">
        <ele>410.5656</ele>
        <time>2012-09-30T06:54:44Z</time>
      </trkpt>
      <trkpt lat="47.62838" lon="6.76518">
        <ele>409.956</ele>
        <time>2012-09-30T06:54:45Z</time>
      </trkpt>
      <trkpt lat="47.62843" lon="6.76517">
        <ele>409.956</ele>
        <time>2012-09-30T06:54:48Z</time>
      </trkpt>
      <trkpt lat="47.62847" lon="6.76516">
        <ele>410.2608</ele>
        <time>2012-09-30T06:54:49Z</time>
      </trkpt>
      <trkpt lat="47.62852" lon="6.76515">
        <ele>411.1752</ele>
        <time>2012-09-30T06:54:52Z</time>
      </trkpt>
      <trkpt lat="47.62857" lon="6.76514">
        <ele>410.8704</ele>
        <time>2012-09-30T06:54:54Z</time>
      </trkpt>
      <trkpt lat="47.62862" lon="6.76514">
        <ele>410.8704</ele>
        <time>2012-09-30T06:54:55Z</time>
      </trkpt>
      <trkpt lat="47.62866" lon="6.76512">
        <ele>411.7848</ele>
        <time>2012-09-30T06:54:58Z</time>
      </trkpt>
      <trkpt lat="47.6287" lon="6.76509">
        <ele>411.1752</ele>
        <time>2012-09-30T06:54:59Z</time>
      </trkpt>
      <trkpt lat="47.62874" lon="6.76509">
        <ele>410.5656</ele>
        <time>2012-09-30T06:55:02Z</time>
      </trkpt>
      <trkpt lat="47.62879" lon="6.76508">
        <ele>410.8704</ele>
        <time>2012-09-30T06:55:03Z</time>
      </trkpt>
      <trkpt lat="47.62883" lon="6.76506">
        <ele>410.8704</ele>
        <time>2012-09-30T06:55:06Z</time>
      </trkpt>
      <trkpt lat="47.62886" lon="6.76504">
        <ele>410.5656</ele>
        <time>2012-09-30T06:55:07Z</time>
      </trkpt>
      <trkpt lat="47.62889" lon="6.76503">
        <ele>411.1752</ele>
        <time>2012-09-30T06:55:10Z</time>
      </trkpt>
      <trkpt lat="47.62891" lon="6.76501">
        <ele>412.3944</ele>
        <time>2012-09-30T06:55:11Z</time>
      </trkpt>
      <trkpt lat="47.62894" lon="6.76499">
        <ele>413.004</ele>
        <time>2012-09-30T06:55:14Z</time>
      </trkpt>
      <trkpt lat="47.62896" lon="6.76498">
        <ele>414.8328</ele>
        <time>2012-09-30T06:55:15Z</time>
      </trkpt>
      <trkpt lat="47.62899" lon="6.76497">
        <ele>416.3568</ele>
        <time>2012-09-30T06:55:18Z</time>
      </trkpt>
      <trkpt lat="47.62901" lon="6.76496">
        <ele>417.2712</ele>
        <time>2012-09-30T06:55:19Z</time>
      </trkpt>
      <trkpt lat="47.62904" lon="6.76494">
        <ele>418.4904</ele>
        <time>2012-09-30T06:55:22Z</time>
      </trkpt>
      <trkpt lat="47.62907" lon="6.76492">
        <ele>420.3192</ele>
        <time>2012-09-30T06:55:23Z</time>
      </trkpt>
      <trkpt lat="47.6291" lon="6.7649">
        <ele>421.8432</ele>
        <time>2012-09-30T06:55:26Z</time>
      </trkpt>
      <trkpt lat="47.62914" lon="6.76489">
        <ele>422.7576</ele>
        <time>2012-09-30T06:55:27Z</time>
      </trkpt>
      <trkpt lat="47.62917" lon="6.76486">
        <ele>423.0624</ele>
        <time>2012-09-30T06:55:30Z</time>
      </trkpt>
      <trkpt lat="47.6292" lon="6.76484">
        <ele>424.5864</ele>
        <time>2012-09-30T06:55:31Z</time>
      </trkpt>
      <trkpt lat="47.62922" lon="6.76482">
        <ele>425.5008</ele>
        <time>2012-09-30T06:55:34Z</time>
      </trkpt>
      <trkpt lat="47.62924" lon="6.76478">
        <ele>425.8056</ele>
        <time>2012-09-30T06:55:35Z</time>
      </trkpt>
      <trkpt lat="47.62925" lon="6.76475">
        <ele>427.3296</ele>
        <time>2012-09-30T06:55:38Z</time>
      </trkpt>
      <trkpt lat="47.62927" lon="6.76473">
        <ele>427.0248</ele>
        <time>2012-09-30T06:55:39Z</time>
      </trkpt>
      <trkpt lat="47.62928" lon="6.7647">
        <ele>427.6344</ele>
        <time>2012-09-30T06:55:42Z</time>
      </trkpt>
      <trkpt lat="47.6293" lon="6.76464">
        <ele>428.244</ele>
        <time>2012-09-30T06:55:48Z</time>
      </trkpt>
      <trkpt lat="47.62931" lon="6.76462">
        <ele>428.8536</ele>
        <time>2012-09-30T06:55:49Z</time>
      </trkpt>
      <trkpt lat="47.62932" lon="6.76458">
        <ele>428.8536</ele>
        <time>2012-09-30T06:55:52Z</time>
      </trkpt>
      <trkpt lat="47.62934" lon="6.76453">
        <ele>427.0248</ele>
        <time>2012-09-30T06:55:57Z</time>
      </trkpt>
      <trkpt lat="47.62936" lon="6.7645">
        <ele>427.3296</ele>
        <time>2012-09-30T06:56:00Z</time>
      </trkpt>
      <trkpt lat="47.62939" lon="6.76446">
        <ele>427.0248</ele>
        <time>2012-09-30T06:56:01Z</time>
      </trkpt>
      <trkpt lat="47.62941" lon="6.76443">
        <ele>427.6344</ele>
        <time>2012-09-30T06:56:04Z</time>
      </trkpt>
      <trkpt lat="47.62943" lon="6.7644">
        <ele>427.6344</ele>
        <time>2012-09-30T06:56:05Z</time>
      </trkpt>
      <trkpt lat="47.62945" lon="6.76438">
        <ele>427.9392</ele>
        <time>2012-09-30T06:56:08Z</time>
      </trkpt>
      <trkpt lat="47.62948" lon="6.76436">
        <ele>428.244</ele>
        <time>2012-09-30T06:56:09Z</time>
      </trkpt>
      <trkpt lat="47.62951" lon="6.76433">
        <ele>427.9392</ele>
        <time>2012-09-30T06:56:12Z</time>
      </trkpt>
      <trkpt lat="47.62953" lon="6.7643">
        <ele>427.9392</ele>
        <time>2012-09-30T06:56:13Z</time>
      </trkpt>
      <trkpt lat="47.62957" lon="6.76428">
        <ele>427.0248</ele>
        <time>2012-09-30T06:56:16Z</time>
      </trkpt>
      <trkpt lat="47.6296" lon="6.76426">
        <ele>426.1104</ele>
        <time>2012-09-30T06:56:17Z</time>
      </trkpt>
      <trkpt lat="47.62963" lon="6.76424">
        <ele>425.8056</ele>
        <time>2012-09-30T06:56:20Z</time>
      </trkpt>
      <trkpt lat="47.62967" lon="6.76422">
        <ele>424.5864</ele>
        <time>2012-09-30T06:56:21Z</time>
      </trkpt>
      <trkpt lat="47.62971" lon="6.76421">
        <ele>423.672</ele>
        <time>2012-09-30T06:56:24Z</time>
      </trkpt>
      <trkpt lat="47.62973" lon="6.7642">
        <ele>424.2816</ele>
        <time>2012-09-30T06:56:25Z</time>
      </trkpt>
      <trkpt lat="47.62976" lon="6.7642">
        <ele>424.2816</ele>
        <time>2012-09-30T06:56:28Z</time>
      </trkpt>
      <trkpt lat="47.62979" lon="6.76419">
        <ele>423.9768</ele>
        <time>2012-09-30T06:56:29Z</time>
      </trkpt>
      <trkpt lat="47.62981" lon="6.76418">
        <ele>424.5864</ele>
        <time>2012-09-30T06:56:32Z</time>
      </trkpt>
      <trkpt lat="47.62983" lon="6.76418">
        <ele>426.4152</ele>
        <time>2012-09-30T06:56:33Z</time>
      </trkpt>
      <trkpt lat="47.62985" lon="6.76417">
        <ele>429.1584</ele>
        <time>2012-09-30T06:56:36Z</time>
      </trkpt>
      <trkpt lat="47.62987" lon="6.76416">
        <ele>430.3776</ele>
        <time>2012-09-30T06:56:39Z</time>
      </trkpt>
      <trkpt lat="47.62989" lon="6.76416">
        <ele>432.2064</ele>
        <time>2012-09-30T06:56:40Z</time>
      </trkpt>
      <trkpt lat="47.62992" lon="6.76415">
        <ele>433.7304</ele>
        <time>2012-09-30T06:56:43Z</time>
      </trkpt>
      <trkpt lat="47.62995" lon="6.76415">
        <ele>434.6448</ele>
        <time>2012-09-30T06:56:44Z</time>
      </trkpt>
      <trkpt lat="47.62997" lon="6.76415">
        <ele>436.1688</ele>
        <time>2012-09-30T06:56:47Z</time>
      </trkpt>
      <trkpt lat="47.63" lon="6.76416">
        <ele>437.388</ele>
        <time>2012-09-30T06:56:48Z</time>
      </trkpt>
      <trkpt lat="47.63003" lon="6.76417">
        <ele>438.3024</ele>
        <time>2012-09-30T06:56:51Z</time>
      </trkpt>
      <trkpt lat="47.63009" lon="6.76418">
        <ele>436.4736</ele>
        <time>2012-09-30T06:56:52Z</time>
      </trkpt>
      <trkpt lat="47.63014" lon="6.76418">
        <ele>434.9496</ele>
        <time>2012-09-30T06:56:55Z</time>
      </trkpt>
      <trkpt lat="47.63018" lon="6.76418">
        <ele>434.6448</ele>
        <time>2012-09-30T06:56:56Z</time>
      </trkpt>
      <trkpt lat="47.6302" lon="6.76417">
        <ele>434.9496</ele>
        <time>2012-09-30T06:56:59Z</time>
      </trkpt>
      <trkpt lat="47.63023" lon="6.76417">
        <ele>436.1688</ele>
        <time>2012-09-30T06:57:00Z</time>
      </trkpt>
      <trkpt lat="47.63026" lon="6.76417">
        <ele>436.1688</ele>
        <time>2012-09-30T06:57:03Z</time>
      </trkpt>
      <trkpt lat="47.6303" lon="6.76418">
        <ele>435.2544</ele>
        <time>2012-09-30T06:57:04Z</time>
      </trkpt>
      <trkpt lat="47.63033" lon="6.76419">
        <ele>435.2544</ele>
        <time>2012-09-30T06:57:07Z</time>
      </trkpt>
      <trkpt lat="47.63037" lon="6.76421">
        <ele>434.34</ele>
        <time>2012-09-30T06:57:09Z</time>
      </trkpt>
      <trkpt lat="47.6304" lon="6.7642">
        <ele>434.0352</ele>
        <time>2012-09-30T06:57:10Z</time>
      </trkpt>
      <trkpt lat="47.63043" lon="6.7642">
        <ele>434.0352</ele>
        <time>2012-09-30T06:57:13Z</time>
      </trkpt>
      <trkpt lat="47.63046" lon="6.7642">
        <ele>434.0352</ele>
        <time>2012-09-30T06:57:14Z</time>
      </trkpt>
      <trkpt lat="47.63049" lon="6.76421">
        <ele>434.0352</ele>
        <time>2012-09-30T06:57:17Z</time>
      </trkpt>
      <trkpt lat="47.63051" lon="6.76422">
        <ele>434.34</ele>
        <time>2012-09-30T06:57:18Z</time>
      </trkpt>
      <trkpt lat="47.63054" lon="6.76423">
        <ele>434.34</ele>
        <time>2012-09-30T06:57:21Z</time>
      </trkpt>
      <trkpt lat="47.63056" lon="6.76424">
        <ele>434.6448</ele>
        <time>2012-09-30T06:57:22Z</time>
      </trkpt>
      <trkpt lat="47.63059" lon="6.76424">
        <ele>435.2544</ele>
        <time>2012-09-30T06:57:25Z</time>
      </trkpt>
      <trkpt lat="47.63062" lon="6.76425">
        <ele>435.5592</ele>
        <time>2012-09-30T06:57:26Z</time>
      </trkpt>
      <trkpt lat="47.63065" lon="6.76425">
        <ele>435.864</ele>
        <time>2012-09-30T06:57:29Z</time>
      </trkpt>
      <trkpt lat="47.63067" lon="6.76425">
        <ele>436.4736</ele>
        <time>2012-09-30T06:57:30Z</time>
      </trkpt>
      <trkpt lat="47.63069" lon="6.76426">
        <ele>436.7784</ele>
        <time>2012-09-30T06:57:33Z</time>
      </trkpt>
      <trkpt lat="47.63071" lon="6.76426">
        <ele>437.0832</ele>
        <time>2012-09-30T06:57:34Z</time>
      </trkpt>
      <trkpt lat="47.63074" lon="6.76427">
        <ele>437.388</ele>
        <time>2012-09-30T06:57:37Z</time>
      </trkpt>
      <trkpt lat="47.63076" lon="6.76429">
        <ele>437.0832</ele>
        <time>2012-09-30T06:57:38Z</time>
      </trkpt>
      <trkpt lat="47.63078" lon="6.76431">
        <ele>437.0832</ele>
        <time>2012-09-30T06:57:41Z</time>
      </trkpt>
      <trkpt lat="47.63081" lon="6.76432">
        <ele>436.7784</ele>
        <time>2012-09-30T06:57:42Z</time>
      </trkpt>
      <trkpt lat="47.63082" lon="6.76436">
        <ele>436.1688</ele>
        <time>2012-09-30T06:57:45Z</time>
      </trkpt>
      <trkpt lat="47.63084" lon="6.76439">
        <ele>436.4736</ele>
        <time>2012-09-30T06:57:46Z</time>
      </trkpt>
      <trkpt lat="47.63087" lon="6.76441">
        <ele>436.7784</ele>
        <time>2012-09-30T06:57:49Z</time>
      </trkpt>
      <trkpt lat="47.63089" lon="6.76444">
        <ele>437.6928</ele>
        <time>2012-09-30T06:57:50Z</time>
      </trkpt>
      <trkpt lat="47.63091" lon="6.76445">
        <ele>437.388</ele>
        <time>2012-09-30T06:57:53Z</time>
      </trkpt>
      <trkpt lat="47.63092" lon="6.76445">
        <ele>437.6928</ele>
        <time>2012-09-30T06:57:58Z</time>
      </trkpt>
      <trkpt lat="47.63094" lon="6.76447">
        <ele>438.3024</ele>
        <time>2012-09-30T06:58:01Z</time>
      </trkpt>
      <trkpt lat="47.63095" lon="6.76451">
        <ele>441.6552</ele>
        <time>2012-09-30T06:58:09Z</time>
      </trkpt>
      <trkpt lat="47.63095" lon="6.76453">
        <ele>442.2648</ele>
        <time>2012-09-30T06:58:12Z</time>
      </trkpt>
      <trkpt lat="47.63097" lon="6.76455">
        <ele>442.8744</ele>
        <time>2012-09-30T06:58:13Z</time>
      </trkpt>
      <trkpt lat="47.63098" lon="6.76457">
        <ele>443.484</ele>
        <time>2012-09-30T06:58:16Z</time>
      </trkpt>
      <trkpt lat="47.63099" lon="6.7646">
        <ele>444.3984</ele>
        <time>2012-09-30T06:58:21Z</time>
      </trkpt>
      <trkpt lat="47.631" lon="6.76464">
        <ele>444.0936</ele>
        <time>2012-09-30T06:58:24Z</time>
      </trkpt>
      <trkpt lat="47.63101" lon="6.76471">
        <ele>443.7888</ele>
        <time>2012-09-30T06:58:25Z</time>
      </trkpt>
      <trkpt lat="47.63104" lon="6.76477">
        <ele>443.484</ele>
        <time>2012-09-30T06:58:28Z</time>
      </trkpt>
      <trkpt lat="47.63106" lon="6.76482">
        <ele>443.1792</ele>
        <time>2012-09-30T06:58:30Z</time>
      </trkpt>
      <trkpt lat="47.63109" lon="6.76487">
        <ele>442.8744</ele>
        <time>2012-09-30T06:58:31Z</time>
      </trkpt>
      <trkpt lat="47.63113" lon="6.76491">
        <ele>442.5696</ele>
        <time>2012-09-30T06:58:34Z</time>
      </trkpt>
      <trkpt lat="47.63116" lon="6.76494">
        <ele>443.1792</ele>
        <time>2012-09-30T06:58:35Z</time>
      </trkpt>
      <trkpt lat="47.63119" lon="6.76498">
        <ele>443.1792</ele>
        <time>2012-09-30T06:58:38Z</time>
      </trkpt>
      <trkpt lat="47.63122" lon="6.76504">
        <ele>443.1792</ele>
        <time>2012-09-30T06:58:39Z</time>
      </trkpt>
      <trkpt lat="47.63125" lon="6.7651">
        <ele>442.5696</ele>
        <time>2012-09-30T06:58:42Z</time>
      </trkpt>
      <trkpt lat="47.63127" lon="6.76517">
        <ele>442.5696</ele>
        <time>2012-09-30T06:58:43Z</time>
      </trkpt>
      <trkpt lat="47.63129" lon="6.76523">
        <ele>442.5696</ele>
        <time>2012-09-30T06:58:46Z</time>
      </trkpt>
      <trkpt lat="47.63131" lon="6.76527">
        <ele>443.7888</ele>
        <time>2012-09-30T06:58:47Z</time>
      </trkpt>
      <trkpt lat="47.63132" lon="6.76533">
        <ele>445.3128</ele>
        <time>2012-09-30T06:58:50Z</time>
      </trkpt>
      <trkpt lat="47.63134" lon="6.76538">
        <ele>447.7512</ele>
        <time>2012-09-30T06:58:51Z</time>
      </trkpt>
      <trkpt lat="47.63135" lon="6.76542">
        <ele>450.1896</ele>
        <time>2012-09-30T06:58:54Z</time>
      </trkpt>
      <trkpt lat="47.63137" lon="6.76547">
        <ele>452.3232</ele>
        <time>2012-09-30T06:58:55Z</time>
      </trkpt>
      <trkpt lat="47.63139" lon="6.76553">
        <ele>453.8472</ele>
        <time>2012-09-30T06:58:58Z</time>
      </trkpt>
      <trkpt lat="47.6314" lon="6.76562">
        <ele>455.3712</ele>
        <time>2012-09-30T06:58:59Z</time>
      </trkpt>
      <trkpt lat="47.63141" lon="6.76571">
        <ele>457.8096</ele>
        <time>2012-09-30T06:59:02Z</time>
      </trkpt>
      <trkpt lat="47.63143" lon="6.76581">
        <ele>458.724</ele>
        <time>2012-09-30T06:59:03Z</time>
      </trkpt>
      <trkpt lat="47.63146" lon="6.76592">
        <ele>459.6384</ele>
        <time>2012-09-30T06:59:06Z</time>
      </trkpt>
      <trkpt lat="47.6315" lon="6.76601">
        <ele>458.4192</ele>
        <time>2012-09-30T06:59:07Z</time>
      </trkpt>
      <trkpt lat="47.63154" lon="6.7661">
        <ele>455.0664</ele>
        <time>2012-09-30T06:59:10Z</time>
      </trkpt>
      <trkpt lat="47.63157" lon="6.76619">
        <ele>453.2376</ele>
        <time>2012-09-30T06:59:11Z</time>
      </trkpt>
      <trkpt lat="47.63161" lon="6.76627">
        <ele>451.7136</ele>
        <time>2012-09-30T06:59:14Z</time>
      </trkpt>
      <trkpt lat="47.63165" lon="6.76634">
        <ele>450.4944</ele>
        <time>2012-09-30T06:59:15Z</time>
      </trkpt>
      <trkpt lat="47.63168" lon="6.7664">
        <ele>450.7992</ele>
        <time>2012-09-30T06:59:18Z</time>
      </trkpt>
      <trkpt lat="47.63172" lon="6.76645">
        <ele>450.7992</ele>
        <time>2012-09-30T06:59:19Z</time>
      </trkpt>
      <trkpt lat="47.63174" lon="6.76649">
        <ele>451.7136</ele>
        <time>2012-09-30T06:59:22Z</time>
      </trkpt>
      <trkpt lat="47.63177" lon="6.76653">
        <ele>451.7136</ele>
        <time>2012-09-30T06:59:24Z</time>
      </trkpt>
      <trkpt lat="47.6318" lon="6.76658">
        <ele>451.7136</ele>
        <time>2012-09-30T06:59:25Z</time>
      </trkpt>
      <trkpt lat="47.63184" lon="6.76663">
        <ele>452.0184</ele>
        <time>2012-09-30T06:59:28Z</time>
      </trkpt>
      <trkpt lat="47.63188" lon="6.76667">
        <ele>452.628</ele>
        <time>2012-09-30T06:59:29Z</time>
      </trkpt>
      <trkpt lat="47.63192" lon="6.76672">
        <ele>452.0184</ele>
        <time>2012-09-30T06:59:32Z</time>
      </trkpt>
      <trkpt lat="47.63195" lon="6.76676">
        <ele>452.0184</ele>
        <time>2012-09-30T06:59:33Z</time>
      </trkpt>
      <trkpt lat="47.63196" lon="6.7668">
        <ele>453.8472</ele>
        <time>2012-09-30T06:59:36Z</time>
      </trkpt>
      <trkpt lat="47.63198" lon="6.76683">
        <ele>457.5048</ele>
        <time>2012-09-30T06:59:37Z</time>
      </trkpt>
      <trkpt lat="47.632" lon="6.76687">
        <ele>458.724</ele>
        <time>2012-09-30T06:59:40Z</time>
      </trkpt>
      <trkpt lat="47.63201" lon="6.7669">
        <ele>460.8576</ele>
        <time>2012-09-30T06:59:41Z</time>
      </trkpt>
      <trkpt lat="47.63203" lon="6.76694">
        <ele>463.296</ele>
        <time>2012-09-30T06:59:44Z</time>
      </trkpt>
      <trkpt lat="47.63206" lon="6.76699">
        <ele>464.82</ele>
        <time>2012-09-30T06:59:45Z</time>
      </trkpt>
      <trkpt lat="47.63208" lon="6.76703">
        <ele>466.0392</ele>
        <time>2012-09-30T06:59:48Z</time>
      </trkpt>
      <trkpt lat="47.6321" lon="6.76707">
        <ele>466.0392</ele>
        <time>2012-09-30T06:59:49Z</time>
      </trkpt>
      <trkpt lat="47.63213" lon="6.7671">
        <ele>466.9536</ele>
        <time>2012-09-30T06:59:52Z</time>
      </trkpt>
      <trkpt lat="47.63216" lon="6.76713">
        <ele>467.2584</ele>
        <time>2012-09-30T06:59:53Z</time>
      </trkpt>
      <trkpt lat="47.63219" lon="6.76718">
        <ele>466.9536</ele>
        <time>2012-09-30T06:59:56Z</time>
      </trkpt>
      <trkpt lat="47.63222" lon="6.76723">
        <ele>467.868</ele>
        <time>2012-09-30T06:59:57Z</time>
      </trkpt>
      <trkpt lat="47.63225" lon="6.76729">
        <ele>468.4776</ele>
        <time>2012-09-30T07:00:00Z</time>
      </trkpt>
      <trkpt lat="47.63227" lon="6.76735">
        <ele>469.392</ele>
        <time>2012-09-30T07:00:01Z</time>
      </trkpt>
      <trkpt lat="47.63228" lon="6.76742">
        <ele>471.2208</ele>
        <time>2012-09-30T07:00:04Z</time>
      </trkpt>
      <trkpt lat="47.6323" lon="6.76749">
        <ele>472.7448</ele>
        <time>2012-09-30T07:00:05Z</time>
      </trkpt>
      <trkpt lat="47.63233" lon="6.76756">
        <ele>472.7448</ele>
        <time>2012-09-30T07:00:08Z</time>
      </trkpt>
      <trkpt lat="47.63236" lon="6.76763">
        <ele>471.8304</ele>
        <time>2012-09-30T07:00:09Z</time>
      </trkpt>
      <trkpt lat="47.6324" lon="6.76769">
        <ele>470.6112</ele>
        <time>2012-09-30T07:00:12Z</time>
      </trkpt>
      <trkpt lat="47.63241" lon="6.76773">
        <ele>470.6112</ele>
        <time>2012-09-30T07:00:13Z</time>
      </trkpt>
      <trkpt lat="47.63242" lon="6.76779">
        <ele>472.44</ele>
        <time>2012-09-30T07:00:16Z</time>
      </trkpt>
      <trkpt lat="47.63246" lon="6.76785">
        <ele>471.2208</ele>
        <time>2012-09-30T07:00:18Z</time>
      </trkpt>
      <trkpt lat="47.6325" lon="6.76791">
        <ele>469.0872</ele>
        <time>2012-09-30T07:00:19Z</time>
      </trkpt>
      <trkpt lat="47.63254" lon="6.76795">
        <ele>467.868</ele>
        <time>2012-09-30T07:00:22Z</time>
      </trkpt>
      <trkpt lat="47.63258" lon="6.768">
        <ele>465.7344</ele>
        <time>2012-09-30T07:00:23Z</time>
      </trkpt>
      <trkpt lat="47.63262" lon="6.76805">
        <ele>465.1248</ele>
        <time>2012-09-30T07:00:26Z</time>
      </trkpt>
      <trkpt lat="47.63266" lon="6.7681">
        <ele>465.7344</ele>
        <time>2012-09-30T07:00:27Z</time>
      </trkpt>
      <trkpt lat="47.63269" lon="6.76816">
        <ele>466.344</ele>
        <time>2012-09-30T07:00:30Z</time>
      </trkpt>
      <trkpt lat="47.63272" lon="6.76821">
        <ele>466.344</ele>
        <time>2012-09-30T07:00:31Z</time>
      </trkpt>
      <trkpt lat="47.63275" lon="6.76825">
        <ele>467.868</ele>
        <time>2012-09-30T07:00:34Z</time>
      </trkpt>
      <trkpt lat="47.6328" lon="6.76829">
        <ele>467.2584</ele>
        <time>2012-09-30T07:00:35Z</time>
      </trkpt>
      <trkpt lat="47.63283" lon="6.76834">
        <ele>469.0872</ele>
        <time>2012-09-30T07:00:38Z</time>
      </trkpt>
      <trkpt lat="47.63288" lon="6.76838">
        <ele>469.6968</ele>
        <time>2012-09-30T07:00:39Z</time>
      </trkpt>
      <trkpt lat="47.63292" lon="6.76842">
        <ele>471.2208</ele>
        <time>2012-09-30T07:00:42Z</time>
      </trkpt>
      <trkpt lat="47.63295" lon="6.76846">
        <ele>471.5256</ele>
        <time>2012-09-30T07:00:43Z</time>
      </trkpt>
      <trkpt lat="47.63297" lon="6.7685">
        <ele>471.5256</ele>
        <time>2012-09-30T07:00:46Z</time>
      </trkpt>
      <trkpt lat="47.63299" lon="6.76853">
        <ele>472.1352</ele>
        <time>2012-09-30T07:00:47Z</time>
      </trkpt>
      <trkpt lat="47.63302" lon="6.76856">
        <ele>472.1352</ele>
        <time>2012-09-30T07:00:50Z</time>
      </trkpt>
      <trkpt lat="47.63303" lon="6.7686">
        <ele>474.2688</ele>
        <time>2012-09-30T07:00:51Z</time>
      </trkpt>
      <trkpt lat="47.63307" lon="6.76864">
        <ele>473.6592</ele>
        <time>2012-09-30T07:00:54Z</time>
      </trkpt>
      <trkpt lat="47.63309" lon="6.76869">
        <ele>474.2688</ele>
        <time>2012-09-30T07:00:55Z</time>
      </trkpt>
      <trkpt lat="47.63313" lon="6.76873">
        <ele>474.2688</ele>
        <time>2012-09-30T07:00:58Z</time>
      </trkpt>
      <trkpt lat="47.63317" lon="6.76876">
        <ele>473.964</ele>
        <time>2012-09-30T07:00:59Z</time>
      </trkpt>
      <trkpt lat="47.6332" lon="6.7688">
        <ele>475.7928</ele>
        <time>2012-09-30T07:01:02Z</time>
      </trkpt>
      <trkpt lat="47.63322" lon="6.76884">
        <ele>477.3168</ele>
        <time>2012-09-30T07:01:03Z</time>
      </trkpt>
      <trkpt lat="47.63326" lon="6.76888">
        <ele>477.3168</ele>
        <time>2012-09-30T07:01:06Z</time>
      </trkpt>
      <trkpt lat="47.63328" lon="6.76892">
        <ele>477.012</ele>
        <time>2012-09-30T07:01:07Z</time>
      </trkpt>
      <trkpt lat="47.6333" lon="6.76897">
        <ele>480.06</ele>
        <time>2012-09-30T07:01:10Z</time>
      </trkpt>
      <trkpt lat="47.63333" lon="6.76901">
        <ele>482.1936</ele>
        <time>2012-09-30T07:01:12Z</time>
      </trkpt>
      <trkpt lat="47.63335" lon="6.76906">
        <ele>484.9368</ele>
        <time>2012-09-30T07:01:13Z</time>
      </trkpt>
      <trkpt lat="47.63339" lon="6.76909">
        <ele>486.4608</ele>
        <time>2012-09-30T07:01:16Z</time>
      </trkpt>
      <trkpt lat="47.63343" lon="6.76913">
        <ele>487.3752</ele>
        <time>2012-09-30T07:01:17Z</time>
      </trkpt>
      <trkpt lat="47.63346" lon="6.76916">
        <ele>488.5944</ele>
        <time>2012-09-30T07:01:20Z</time>
      </trkpt>
      <trkpt lat="47.63349" lon="6.7692">
        <ele>489.204</ele>
        <time>2012-09-30T07:01:21Z</time>
      </trkpt>
      <trkpt lat="47.63353" lon="6.76923">
        <ele>490.1184</ele>
        <time>2012-09-30T07:01:24Z</time>
      </trkpt>
      <trkpt lat="47.63356" lon="6.76927">
        <ele>490.4232</ele>
        <time>2012-09-30T07:01:25Z</time>
      </trkpt>
      <trkpt lat="47.63359" lon="6.76932">
        <ele>492.252</ele>
        <time>2012-09-30T07:01:28Z</time>
      </trkpt>
      <trkpt lat="47.63363" lon="6.76936">
        <ele>493.1664</ele>
        <time>2012-09-30T07:01:29Z</time>
      </trkpt>
      <trkpt lat="47.63367" lon="6.76941">
        <ele>493.776</ele>
        <time>2012-09-30T07:01:32Z</time>
      </trkpt>
      <trkpt lat="47.63372" lon="6.76947">
        <ele>494.3856</ele>
        <time>2012-09-30T07:01:33Z</time>
      </trkpt>
      <trkpt lat="47.63374" lon="6.76953">
        <ele>494.9952</ele>
        <time>2012-09-30T07:01:36Z</time>
      </trkpt>
      <trkpt lat="47.63378" lon="6.76959">
        <ele>495.3</ele>
        <time>2012-09-30T07:01:37Z</time>
      </trkpt>
      <trkpt lat="47.63381" lon="6.76966">
        <ele>495.6048</ele>
        <time>2012-09-30T07:01:40Z</time>
      </trkpt>
      <trkpt lat="47.63385" lon="6.76973">
        <ele>496.824</ele>
        <time>2012-09-30T07:01:41Z</time>
      </trkpt>
      <trkpt lat="47.63388" lon="6.76979">
        <ele>498.0432</ele>
        <time>2012-09-30T07:01:44Z</time>
      </trkpt>
      <trkpt lat="47.63392" lon="6.76985">
        <ele>498.9576</ele>
        <time>2012-09-30T07:01:45Z</time>
      </trkpt>
      <trkpt lat="47.63396" lon="6.76992">
        <ele>501.0912</ele>
        <time>2012-09-30T07:01:48Z</time>
      </trkpt>
      <trkpt lat="47.63401" lon="6.77">
        <ele>501.396</ele>
        <time>2012-09-30T07:01:49Z</time>
      </trkpt>
      <trkpt lat="47.63407" lon="6.77008">
        <ele>501.0912</ele>
        <time>2012-09-30T07:01:52Z</time>
      </trkpt>
      <trkpt lat="47.63416" lon="6.77021">
        <ele>492.252</ele>
        <time>2012-09-30T07:01:53Z</time>
      </trkpt>
      <trkpt lat="47.63422" lon="6.77032">
        <ele>486.4608</ele>
        <time>2012-09-30T07:01:56Z</time>
      </trkpt>
      <trkpt lat="47.63427" lon="6.77043">
        <ele>483.4128</ele>
        <time>2012-09-30T07:01:57Z</time>
      </trkpt>
      <trkpt lat="47.6343" lon="6.77054">
        <ele>481.8888</ele>
        <time>2012-09-30T07:02:00Z</time>
      </trkpt>
      <trkpt lat="47.63434" lon="6.77064">
        <ele>479.1456</ele>
        <time>2012-09-30T07:02:01Z</time>
      </trkpt>
      <trkpt lat="47.63438" lon="6.77075">
        <ele>477.6216</ele>
        <time>2012-09-30T07:02:04Z</time>
      </trkpt>
      <trkpt lat="47.63444" lon="6.77088">
        <ele>476.0976</ele>
        <time>2012-09-30T07:02:05Z</time>
      </trkpt>
      <trkpt lat="47.63452" lon="6.771">
        <ele>473.964</ele>
        <time>2012-09-30T07:02:07Z</time>
      </trkpt>
      <trkpt lat="47.63459" lon="6.77111">
        <ele>472.7448</ele>
        <time>2012-09-30T07:02:10Z</time>
      </trkpt>
      <trkpt lat="47.63465" lon="6.77122">
        <ele>471.5256</ele>
        <time>2012-09-30T07:02:11Z</time>
      </trkpt>
      <trkpt lat="47.63472" lon="6.77133">
        <ele>470.3064</ele>
        <time>2012-09-30T07:02:14Z</time>
      </trkpt>
      <trkpt lat="47.63478" lon="6.77144">
        <ele>470.0016</ele>
        <time>2012-09-30T07:02:15Z</time>
      </trkpt>
      <trkpt lat="47.63486" lon="6.77159">
        <ele>467.5632</ele>
        <time>2012-09-30T07:02:18Z</time>
      </trkpt>
      <trkpt lat="47.63493" lon="6.77175">
        <ele>466.0392</ele>
        <time>2012-09-30T07:02:19Z</time>
      </trkpt>
      <trkpt lat="47.63501" lon="6.77192">
        <ele>464.2104</ele>
        <time>2012-09-30T07:02:22Z</time>
      </trkpt>
      <trkpt lat="47.63507" lon="6.7721">
        <ele>462.3816</ele>
        <time>2012-09-30T07:02:23Z</time>
      </trkpt>
      <trkpt lat="47.63513" lon="6.7723">
        <ele>461.1624</ele>
        <time>2012-09-30T07:02:26Z</time>
      </trkpt>
      <trkpt lat="47.63519" lon="6.77245">
        <ele>459.9432</ele>
        <time>2012-09-30T07:02:27Z</time>
      </trkpt>
      <trkpt lat="47.63524" lon="6.77258">
        <ele>458.4192</ele>
        <time>2012-09-30T07:02:30Z</time>
      </trkpt>
      <trkpt lat="47.63531" lon="6.77272">
        <ele>457.2</ele>
        <time>2012-09-30T07:02:31Z</time>
      </trkpt>
      <trkpt lat="47.63538" lon="6.77288">
        <ele>455.9808</ele>
        <time>2012-09-30T07:02:34Z</time>
      </trkpt>
      <trkpt lat="47.63545" lon="6.77305">
        <ele>455.3712</ele>
        <time>2012-09-30T07:02:35Z</time>
      </trkpt>
      <trkpt lat="47.63552" lon="6.77321">
        <ele>454.7616</ele>
        <time>2012-09-30T07:02:38Z</time>
      </trkpt>
      <trkpt lat="47.6356" lon="6.77334">
        <ele>454.7616</ele>
        <time>2012-09-30T07:02:39Z</time>
      </trkpt>
      <trkpt lat="47.6357" lon="6.77342">
        <ele>454.152</ele>
        <time>2012-09-30T07:02:42Z</time>
      </trkpt>
      <trkpt lat="47.63579" lon="6.77345">
        <ele>454.7616</ele>
        <time>2012-09-30T07:02:43Z</time>
      </trkpt>
      <trkpt lat="47.63588" lon="6.77346">
        <ele>455.0664</ele>
        <time>2012-09-30T07:02:46Z</time>
      </trkpt>
      <trkpt lat="47.63598" lon="6.77345">
        <ele>455.0664</ele>
        <time>2012-09-30T07:02:47Z</time>
      </trkpt>
      <trkpt lat="47.63605" lon="6.77345">
        <ele>455.9808</ele>
        <time>2012-09-30T07:02:50Z</time>
      </trkpt>
      <trkpt lat="47.63613" lon="6.77346">
        <ele>456.5904</ele>
        <time>2012-09-30T07:02:51Z</time>
      </trkpt>
      <trkpt lat="47.6362" lon="6.77353">
        <ele>456.8952</ele>
        <time>2012-09-30T07:02:54Z</time>
      </trkpt>
      <trkpt lat="47.63628" lon="6.77365">
        <ele>456.5904</ele>
        <time>2012-09-30T07:02:55Z</time>
      </trkpt>
      <trkpt lat="47.63636" lon="6.77381">
        <ele>457.5048</ele>
        <time>2012-09-30T07:02:58Z</time>
      </trkpt>
      <trkpt lat="47.63643" lon="6.77398">
        <ele>457.5048</ele>
        <time>2012-09-30T07:02:59Z</time>
      </trkpt>
      <trkpt lat="47.63648" lon="6.77412">
        <ele>456.8952</ele>
        <time>2012-09-30T07:03:01Z</time>
      </trkpt>
      <trkpt lat="47.63655" lon="6.77417">
        <ele>456.2856</ele>
        <time>2012-09-30T07:03:04Z</time>
      </trkpt>
      <trkpt lat="47.63663" lon="6.77418">
        <ele>455.676</ele>
        <time>2012-09-30T07:03:05Z</time>
      </trkpt>
      <trkpt lat="47.6367" lon="6.77423">
        <ele>454.152</ele>
        <time>2012-09-30T07:03:08Z</time>
      </trkpt>
      <trkpt lat="47.63679" lon="6.77432">
        <ele>452.9328</ele>
        <time>2012-09-30T07:03:09Z</time>
      </trkpt>
      <trkpt lat="47.63688" lon="6.7744">
        <ele>451.4088</ele>
        <time>2012-09-30T07:03:12Z</time>
      </trkpt>
      <trkpt lat="47.63697" lon="6.77447">
        <ele>450.7992</ele>
        <time>2012-09-30T07:03:13Z</time>
      </trkpt>
      <trkpt lat="47.63704" lon="6.77452">
        <ele>449.8848</ele>
        <time>2012-09-30T07:03:16Z</time>
      </trkpt>
      <trkpt lat="47.63713" lon="6.7746">
        <ele>446.532</ele>
        <time>2012-09-30T07:03:17Z</time>
      </trkpt>
      <trkpt lat="47.63722" lon="6.77468">
        <ele>443.484</ele>
        <time>2012-09-30T07:03:20Z</time>
      </trkpt>
      <trkpt lat="47.63728" lon="6.77475">
        <ele>441.6552</ele>
        <time>2012-09-30T07:03:21Z</time>
      </trkpt>
      <trkpt lat="47.63737" lon="6.77483">
        <ele>438.6072</ele>
        <time>2012-09-30T07:03:24Z</time>
      </trkpt>
      <trkpt lat="47.63746" lon="6.77489">
        <ele>435.5592</ele>
        <time>2012-09-30T07:03:25Z</time>
      </trkpt>
      <trkpt lat="47.63755" lon="6.77497">
        <ele>432.5112</ele>
        <time>2012-09-30T07:03:28Z</time>
      </trkpt>
      <trkpt lat="47.63764" lon="6.77504">
        <ele>429.768</ele>
        <time>2012-09-30T07:03:29Z</time>
      </trkpt>
      <trkpt lat="47.63771" lon="6.77512">
        <ele>427.3296</ele>
        <time>2012-09-30T07:03:32Z</time>
      </trkpt>
      <trkpt lat="47.63778" lon="6.77521">
        <ele>424.8912</ele>
        <time>2012-09-30T07:03:33Z</time>
      </trkpt>
      <trkpt lat="47.63785" lon="6.77528">
        <ele>422.7576</ele>
        <time>2012-09-30T07:03:36Z</time>
      </trkpt>
      <trkpt lat="47.63793" lon="6.77532">
        <ele>420.3192</ele>
        <time>2012-09-30T07:03:37Z</time>
      </trkpt>
      <trkpt lat="47.63803" lon="6.77531">
        <ele>417.8808</ele>
        <time>2012-09-30T07:03:40Z</time>
      </trkpt>
      <trkpt lat="47.6381" lon="6.7753">
        <ele>415.7472</ele>
        <time>2012-09-30T07:03:41Z</time>
      </trkpt>
      <trkpt lat="47.63818" lon="6.77533">
        <ele>413.9184</ele>
        <time>2012-09-30T07:03:44Z</time>
      </trkpt>
      <trkpt lat="47.63827" lon="6.77532">
        <ele>412.3944</ele>
        <time>2012-09-30T07:03:45Z</time>
      </trkpt>
      <trkpt lat="47.63835" lon="6.77527">
        <ele>410.8704</ele>
        <time>2012-09-30T07:03:48Z</time>
      </trkpt>
      <trkpt lat="47.63843" lon="6.77522">
        <ele>409.6512</ele>
        <time>2012-09-30T07:03:49Z</time>
      </trkpt>
      <trkpt lat="47.63849" lon="6.77514">
        <ele>408.432</ele>
        <time>2012-09-30T07:03:52Z</time>
      </trkpt>
      <trkpt lat="47.63854" lon="6.77508">
        <ele>407.5176</ele>
        <time>2012-09-30T07:03:53Z</time>
      </trkpt>
      <trkpt lat="47.6386" lon="6.77504">
        <ele>406.6032</ele>
        <time>2012-09-30T07:03:55Z</time>
      </trkpt>
      <trkpt lat="47.63866" lon="6.77504">
        <ele>405.6888</ele>
        <time>2012-09-30T07:03:58Z</time>
      </trkpt>
      <trkpt lat="47.63872" lon="6.77502">
        <ele>404.4696</ele>
        <time>2012-09-30T07:03:59Z</time>
      </trkpt>
      <trkpt lat="47.63877" lon="6.77495">
        <ele>403.5552</ele>
        <time>2012-09-30T07:04:02Z</time>
      </trkpt>
      <trkpt lat="47.63881" lon="6.77484">
        <ele>402.0312</ele>
        <time>2012-09-30T07:04:03Z</time>
      </trkpt>
      <trkpt lat="47.63886" lon="6.77473">
        <ele>401.4216</ele>
        <time>2012-09-30T07:04:06Z</time>
      </trkpt>
      <trkpt lat="47.63891" lon="6.77462">
        <ele>400.812</ele>
        <time>2012-09-30T07:04:07Z</time>
      </trkpt>
      <trkpt lat="47.63895" lon="6.77451">
        <ele>400.5072</ele>
        <time>2012-09-30T07:04:10Z</time>
      </trkpt>
      <trkpt lat="47.63899" lon="6.77443">
        <ele>400.2024</ele>
        <time>2012-09-30T07:04:11Z</time>
      </trkpt>
      <trkpt lat="47.63903" lon="6.77438">
        <ele>400.2024</ele>
        <time>2012-09-30T07:04:14Z</time>
      </trkpt>
      <trkpt lat="47.63907" lon="6.77436">
        <ele>400.2024</ele>
        <time>2012-09-30T07:04:15Z</time>
      </trkpt>
      <trkpt lat="47.63912" lon="6.77438">
        <ele>400.2024</ele>
        <time>2012-09-30T07:04:18Z</time>
      </trkpt>
      <trkpt lat="47.63917" lon="6.77442">
        <ele>400.5072</ele>
        <time>2012-09-30T07:04:19Z</time>
      </trkpt>
      <trkpt lat="47.6392" lon="6.77448">
        <ele>401.1168</ele>
        <time>2012-09-30T07:04:22Z</time>
      </trkpt>
      <trkpt lat="47.63923" lon="6.77456">
        <ele>401.7264</ele>
        <time>2012-09-30T07:04:23Z</time>
      </trkpt>
      <trkpt lat="47.63926" lon="6.77463">
        <ele>402.336</ele>
        <time>2012-09-30T07:04:26Z</time>
      </trkpt>
      <trkpt lat="47.63926" lon="6.77469">
        <ele>403.86</ele>
        <time>2012-09-30T07:04:27Z</time>
      </trkpt>
      <trkpt lat="47.63926" lon="6.77476">
        <ele>405.9936</ele>
        <time>2012-09-30T07:04:30Z</time>
      </trkpt>
      <trkpt lat="47.63926" lon="6.77483">
        <ele>407.5176</ele>
        <time>2012-09-30T07:04:31Z</time>
      </trkpt>
      <trkpt lat="47.63928" lon="6.77491">
        <ele>409.3464</ele>
        <time>2012-09-30T07:04:34Z</time>
      </trkpt>
      <trkpt lat="47.63931" lon="6.77499">
        <ele>408.7368</ele>
        <time>2012-09-30T07:04:35Z</time>
      </trkpt>
      <trkpt lat="47.63933" lon="6.77506">
        <ele>409.6512</ele>
        <time>2012-09-30T07:04:38Z</time>
      </trkpt>
      <trkpt lat="47.63936" lon="6.77514">
        <ele>410.2608</ele>
        <time>2012-09-30T07:04:39Z</time>
      </trkpt>
      <trkpt lat="47.63939" lon="6.7752">
        <ele>409.956</ele>
        <time>2012-09-30T07:04:42Z</time>
      </trkpt>
      <trkpt lat="47.6394" lon="6.77525">
        <ele>410.2608</ele>
        <time>2012-09-30T07:04:43Z</time>
      </trkpt>
      <trkpt lat="47.63941" lon="6.77531">
        <ele>410.2608</ele>
        <time>2012-09-30T07:04:46Z</time>
      </trkpt>
      <trkpt lat="47.63944" lon="6.77538">
        <ele>410.2608</ele>
        <time>2012-09-30T07:04:47Z</time>
      </trkpt>
      <trkpt lat="47.63947" lon="6.77545">
        <ele>411.1752</ele>
        <time>2012-09-30T07:04:49Z</time>
      </trkpt>
      <trkpt lat="47.6395" lon="6.77551">
        <ele>411.1752</ele>
        <time>2012-09-30T07:04:52Z</time>
      </trkpt>
      <trkpt lat="47.63953" lon="6.77557">
        <ele>412.3944</ele>
        <time>2012-09-30T07:04:53Z</time>
      </trkpt>
      <trkpt lat="47.63955" lon="6.77563">
        <ele>413.3088</ele>
        <time>2012-09-30T07:04:56Z</time>
      </trkpt>
      <trkpt lat="47.63957" lon="6.77567">
        <ele>413.3088</ele>
        <time>2012-09-30T07:04:57Z</time>
      </trkpt>
      <trkpt lat="47.6396" lon="6.77573">
        <ele>413.9184</ele>
        <time>2012-09-30T07:05:00Z</time>
      </trkpt>
      <trkpt lat="47.63962" lon="6.77579">
        <ele>414.528</ele>
        <time>2012-09-30T07:05:01Z</time>
      </trkpt>
      <trkpt lat="47.63964" lon="6.77584">
        <ele>413.6136</ele>
        <time>2012-09-30T07:05:04Z</time>
      </trkpt>
      <trkpt lat="47.63967" lon="6.7759">
        <ele>413.9184</ele>
        <time>2012-09-30T07:05:05Z</time>
      </trkpt>
      <trkpt lat="47.6397" lon="6.77596">
        <ele>410.5656</ele>
        <time>2012-09-30T07:05:08Z</time>
      </trkpt>
      <trkpt lat="47.63974" lon="6.776">
        <ele>409.0416</ele>
        <time>2012-09-30T07:05:09Z</time>
      </trkpt>
      <trkpt lat="47.63977" lon="6.77601">
        <ele>407.2128</ele>
        <time>2012-09-30T07:05:12Z</time>
      </trkpt>
      <trkpt lat="47.6398" lon="6.77597">
        <ele>406.908</ele>
        <time>2012-09-30T07:05:13Z</time>
      </trkpt>
      <trkpt lat="47.63981" lon="6.77591">
        <ele>406.6032</ele>
        <time>2012-09-30T07:05:16Z</time>
      </trkpt>
      <trkpt lat="47.63983" lon="6.77584">
        <ele>406.6032</ele>
        <time>2012-09-30T07:05:17Z</time>
      </trkpt>
      <trkpt lat="47.63985" lon="6.77578">
        <ele>406.6032</ele>
        <time>2012-09-30T07:05:20Z</time>
      </trkpt>
      <trkpt lat="47.63986" lon="6.77571">
        <ele>406.908</ele>
        <time>2012-09-30T07:05:21Z</time>
      </trkpt>
      <trkpt lat="47.63988" lon="6.77565">
        <ele>407.5176</ele>
        <time>2012-09-30T07:05:24Z</time>
      </trkpt>
      <trkpt lat="47.63989" lon="6.77557">
        <ele>407.8224</ele>
        <time>2012-09-30T07:05:25Z</time>
      </trkpt>
      <trkpt lat="47.63991" lon="6.7755">
        <ele>408.432</ele>
        <time>2012-09-30T07:05:28Z</time>
      </trkpt>
      <trkpt lat="47.63993" lon="6.77543">
        <ele>408.7368</ele>
        <time>2012-09-30T07:05:29Z</time>
      </trkpt>
      <trkpt lat="47.63994" lon="6.77537">
        <ele>409.6512</ele>
        <time>2012-09-30T07:05:32Z</time>
      </trkpt>
      <trkpt lat="47.63996" lon="6.7753">
        <ele>410.2608</ele>
        <time>2012-09-30T07:05:33Z</time>
      </trkpt>
      <trkpt lat="47.63997" lon="6.77523">
        <ele>410.8704</ele>
        <time>2012-09-30T07:05:36Z</time>
      </trkpt>
      <trkpt lat="47.63998" lon="6.77516">
        <ele>411.48</ele>
        <time>2012-09-30T07:05:37Z</time>
      </trkpt>
      <trkpt lat="47.64" lon="6.77509">
        <ele>412.0896</ele>
        <time>2012-09-30T07:05:40Z</time>
      </trkpt>
      <trkpt lat="47.64002" lon="6.77503">
        <ele>413.004</ele>
        <time>2012-09-30T07:05:42Z</time>
      </trkpt>
      <trkpt lat="47.64004" lon="6.77496">
        <ele>413.6136</ele>
        <time>2012-09-30T07:05:43Z</time>
      </trkpt>
      <trkpt lat="47.64006" lon="6.77488">
        <ele>414.2232</ele>
        <time>2012-09-30T07:05:46Z</time>
      </trkpt>
      <trkpt lat="47.64007" lon="6.7748">
        <ele>414.8328</ele>
        <time>2012-09-30T07:05:47Z</time>
      </trkpt>
      <trkpt lat="47.64009" lon="6.77473">
        <ele>415.4424</ele>
        <time>2012-09-30T07:05:50Z</time>
      </trkpt>
      <trkpt lat="47.64014" lon="6.77446">
        <ele>417.576</ele>
        <time>2012-09-30T07:05:56Z</time>
      </trkpt>
      <trkpt lat="47.64015" lon="6.77439">
        <ele>418.1856</ele>
        <time>2012-09-30T07:05:59Z</time>
      </trkpt>
      <trkpt lat="47.64016" lon="6.77431">
        <ele>418.4904</ele>
        <time>2012-09-30T07:06:00Z</time>
      </trkpt>
      <trkpt lat="47.64017" lon="6.77424">
        <ele>419.1</ele>
        <time>2012-09-30T07:06:03Z</time>
      </trkpt>
      <trkpt lat="47.64018" lon="6.77417">
        <ele>419.7096</ele>
        <time>2012-09-30T07:06:04Z</time>
      </trkpt>
      <trkpt lat="47.64019" lon="6.77409">
        <ele>420.0144</ele>
        <time>2012-09-30T07:06:07Z</time>
      </trkpt>
      <trkpt lat="47.6402" lon="6.77402">
        <ele>420.3192</ele>
        <time>2012-09-30T07:06:09Z</time>
      </trkpt>
      <trkpt lat="47.6402" lon="6.77394">
        <ele>420.624</ele>
        <time>2012-09-30T07:06:10Z</time>
      </trkpt>
      <trkpt lat="47.64021" lon="6.77385">
        <ele>420.624</ele>
        <time>2012-09-30T07:06:13Z</time>
      </trkpt>
      <trkpt lat="47.64022" lon="6.77376">
        <ele>420.624</ele>
        <time>2012-09-30T07:06:14Z</time>
      </trkpt>
      <trkpt lat="47.64022" lon="6.77367">
        <ele>420.624</ele>
        <time>2012-09-30T07:06:17Z</time>
      </trkpt>
      <trkpt lat="47.64023" lon="6.77358">
        <ele>420.624</ele>
        <time>2012-09-30T07:06:18Z</time>
      </trkpt>
      <trkpt lat="47.64024" lon="6.77348">
        <ele>420.624</ele>
        <time>2012-09-30T07:06:21Z</time>
      </trkpt>
      <trkpt lat="47.64025" lon="6.77338">
        <ele>420.3192</ele>
        <time>2012-09-30T07:06:22Z</time>
      </trkpt>
      <trkpt lat="47.64026" lon="6.77327">
        <ele>420.0144</ele>
        <time>2012-09-30T07:06:25Z</time>
      </trkpt>
      <trkpt lat="47.64027" lon="6.77315">
        <ele>419.4048</ele>
        <time>2012-09-30T07:06:26Z</time>
      </trkpt>
      <trkpt lat="47.64028" lon="6.773">
        <ele>418.7952</ele>
        <time>2012-09-30T07:06:29Z</time>
      </trkpt>
      <trkpt lat="47.6403" lon="6.77284">
        <ele>418.1856</ele>
        <time>2012-09-30T07:06:30Z</time>
      </trkpt>
      <trkpt lat="47.64032" lon="6.77265">
        <ele>417.576</ele>
        <time>2012-09-30T07:06:33Z</time>
      </trkpt>
      <trkpt lat="47.64033" lon="6.77246">
        <ele>416.6616</ele>
        <time>2012-09-30T07:06:34Z</time>
      </trkpt>
      <trkpt lat="47.64036" lon="6.77226">
        <ele>415.7472</ele>
        <time>2012-09-30T07:06:37Z</time>
      </trkpt>
      <trkpt lat="47.6404" lon="6.77206">
        <ele>415.4424</ele>
        <time>2012-09-30T07:06:38Z</time>
      </trkpt>
      <trkpt lat="47.64045" lon="6.7719">
        <ele>414.8328</ele>
        <time>2012-09-30T07:06:41Z</time>
      </trkpt>
      <trkpt lat="47.64049" lon="6.77176">
        <ele>414.8328</ele>
        <time>2012-09-30T07:06:42Z</time>
      </trkpt>
      <trkpt lat="47.64056" lon="6.77169">
        <ele>414.528</ele>
        <time>2012-09-30T07:06:45Z</time>
      </trkpt>
      <trkpt lat="47.64064" lon="6.77168">
        <ele>415.1376</ele>
        <time>2012-09-30T07:06:46Z</time>
      </trkpt>
      <trkpt lat="47.64074" lon="6.77169">
        <ele>415.1376</ele>
        <time>2012-09-30T07:06:49Z</time>
      </trkpt>
      <trkpt lat="47.64082" lon="6.7717">
        <ele>415.7472</ele>
        <time>2012-09-30T07:06:50Z</time>
      </trkpt>
      <trkpt lat="47.64088" lon="6.7717">
        <ele>416.9664</ele>
        <time>2012-09-30T07:06:53Z</time>
      </trkpt>
      <trkpt lat="47.64095" lon="6.77169">
        <ele>418.1856</ele>
        <time>2012-09-30T07:06:54Z</time>
      </trkpt>
      <trkpt lat="47.64101" lon="6.77168">
        <ele>418.7952</ele>
        <time>2012-09-30T07:06:57Z</time>
      </trkpt>
      <trkpt lat="47.64108" lon="6.77166">
        <ele>419.7096</ele>
        <time>2012-09-30T07:06:58Z</time>
      </trkpt>
      <trkpt lat="47.64113" lon="6.77162">
        <ele>419.4048</ele>
        <time>2012-09-30T07:07:01Z</time>
      </trkpt>
      <trkpt lat="47.6412" lon="6.77161">
        <ele>419.7096</ele>
        <time>2012-09-30T07:07:03Z</time>
      </trkpt>
      <trkpt lat="47.64126" lon="6.77162">
        <ele>421.2336</ele>
        <time>2012-09-30T07:07:04Z</time>
      </trkpt>
      <trkpt lat="47.64134" lon="6.77163">
        <ele>422.4528</ele>
        <time>2012-09-30T07:07:07Z</time>
      </trkpt>
      <trkpt lat="47.64143" lon="6.77164">
        <ele>422.7576</ele>
        <time>2012-09-30T07:07:08Z</time>
      </trkpt>
      <trkpt lat="47.64153" lon="6.77165">
        <ele>423.0624</ele>
        <time>2012-09-30T07:07:11Z</time>
      </trkpt>
      <trkpt lat="47.64164" lon="6.77165">
        <ele>422.7576</ele>
        <time>2012-09-30T07:07:12Z</time>
      </trkpt>
      <trkpt lat="47.64177" lon="6.77164">
        <ele>422.148</ele>
        <time>2012-09-30T07:07:15Z</time>
      </trkpt>
      <trkpt lat="47.64188" lon="6.77163">
        <ele>421.5384</ele>
        <time>2012-09-30T07:07:16Z</time>
      </trkpt>
      <trkpt lat="47.64197" lon="6.77164">
        <ele>420.9288</ele>
        <time>2012-09-30T07:07:19Z</time>
      </trkpt>
      <trkpt lat="47.64205" lon="6.77165">
        <ele>420.3192</ele>
        <time>2012-09-30T07:07:20Z</time>
      </trkpt>
      <trkpt lat="47.64214" lon="6.77165">
        <ele>419.1</ele>
        <time>2012-09-30T07:07:23Z</time>
      </trkpt>
      <trkpt lat="47.64221" lon="6.77166">
        <ele>418.7952</ele>
        <time>2012-09-30T07:07:24Z</time>
      </trkpt>
      <trkpt lat="47.64226" lon="6.77167">
        <ele>420.0144</ele>
        <time>2012-09-30T07:07:27Z</time>
      </trkpt>
      <trkpt lat="47.6423" lon="6.77168">
        <ele>421.5384</ele>
        <time>2012-09-30T07:07:28Z</time>
      </trkpt>
      <trkpt lat="47.64234" lon="6.77173">
        <ele>421.8432</ele>
        <time>2012-09-30T07:07:31Z</time>
      </trkpt>
      <trkpt lat="47.64237" lon="6.77178">
        <ele>421.5384</ele>
        <time>2012-09-30T07:07:32Z</time>
      </trkpt>
      <trkpt lat="47.64242" lon="6.77183">
        <ele>422.148</ele>
        <time>2012-09-30T07:07:35Z</time>
      </trkpt>
      <trkpt lat="47.64247" lon="6.77188">
        <ele>422.148</ele>
        <time>2012-09-30T07:07:36Z</time>
      </trkpt>
      <trkpt lat="47.64253" lon="6.77191">
        <ele>422.7576</ele>
        <time>2012-09-30T07:07:39Z</time>
      </trkpt>
      <trkpt lat="47.64259" lon="6.7719">
        <ele>421.8432</ele>
        <time>2012-09-30T07:07:40Z</time>
      </trkpt>
      <trkpt lat="47.64264" lon="6.77185">
        <ele>420.9288</ele>
        <time>2012-09-30T07:07:43Z</time>
      </trkpt>
      <trkpt lat="47.64268" lon="6.77178">
        <ele>420.624</ele>
        <time>2012-09-30T07:07:44Z</time>
      </trkpt>
      <trkpt lat="47.64272" lon="6.7717">
        <ele>420.3192</ele>
        <time>2012-09-30T07:07:47Z</time>
      </trkpt>
      <trkpt lat="47.64277" lon="6.77165">
        <ele>420.3192</ele>
        <time>2012-09-30T07:07:48Z</time>
      </trkpt>
      <trkpt lat="47.64285" lon="6.77163">
        <ele>419.7096</ele>
        <time>2012-09-30T07:07:51Z</time>
      </trkpt>
      <trkpt lat="47.64294" lon="6.77163">
        <ele>419.7096</ele>
        <time>2012-09-30T07:07:52Z</time>
      </trkpt>
      <trkpt lat="47.64304" lon="6.77161">
        <ele>418.7952</ele>
        <time>2012-09-30T07:07:55Z</time>
      </trkpt>
      <trkpt lat="47.64316" lon="6.77161">
        <ele>417.8808</ele>
        <time>2012-09-30T07:07:57Z</time>
      </trkpt>
      <trkpt lat="47.64327" lon="6.77162">
        <ele>416.9664</ele>
        <time>2012-09-30T07:07:58Z</time>
      </trkpt>
      <trkpt lat="47.64336" lon="6.77166">
        <ele>418.1856</ele>
        <time>2012-09-30T07:08:01Z</time>
      </trkpt>
      <trkpt lat="47.64343" lon="6.77167">
        <ele>418.7952</ele>
        <time>2012-09-30T07:08:02Z</time>
      </trkpt>
      <trkpt lat="47.64349" lon="6.77167">
        <ele>418.7952</ele>
        <time>2012-09-30T07:08:05Z</time>
      </trkpt>
      <trkpt lat="47.64354" lon="6.77166">
        <ele>419.4048</ele>
        <time>2012-09-30T07:08:06Z</time>
      </trkpt>
      <trkpt lat="47.64358" lon="6.77163">
        <ele>419.4048</ele>
        <time>2012-09-30T07:08:09Z</time>
      </trkpt>
      <trkpt lat="47.64361" lon="6.77158">
        <ele>419.4048</ele>
        <time>2012-09-30T07:08:10Z</time>
      </trkpt>
      <trkpt lat="47.64366" lon="6.77155">
        <ele>419.4048</ele>
        <time>2012-09-30T07:08:13Z</time>
      </trkpt>
      <trkpt lat="47.6437" lon="6.77152">
        <ele>420.624</ele>
        <time>2012-09-30T07:08:14Z</time>
      </trkpt>
      <trkpt lat="47.64371" lon="6.77145">
        <ele>421.8432</ele>
        <time>2012-09-30T07:08:17Z</time>
      </trkpt>
      <trkpt lat="47.64372" lon="6.77137">
        <ele>422.7576</ele>
        <time>2012-09-30T07:08:18Z</time>
      </trkpt>
      <trkpt lat="47.64374" lon="6.7713">
        <ele>422.4528</ele>
        <time>2012-09-30T07:08:21Z</time>
      </trkpt>
      <trkpt lat="47.64375" lon="6.7712">
        <ele>422.4528</ele>
        <time>2012-09-30T07:08:22Z</time>
      </trkpt>
      <trkpt lat="47.64376" lon="6.77111">
        <ele>422.4528</ele>
        <time>2012-09-30T07:08:25Z</time>
      </trkpt>
      <trkpt lat="47.64378" lon="6.77102">
        <ele>421.5384</ele>
        <time>2012-09-30T07:08:26Z</time>
      </trkpt>
      <trkpt lat="47.64381" lon="6.77096">
        <ele>422.4528</ele>
        <time>2012-09-30T07:08:29Z</time>
      </trkpt>
      <trkpt lat="47.64385" lon="6.77086">
        <ele>421.5384</ele>
        <time>2012-09-30T07:08:30Z</time>
      </trkpt>
      <trkpt lat="47.6439" lon="6.77078">
        <ele>421.5384</ele>
        <time>2012-09-30T07:08:33Z</time>
      </trkpt>
      <trkpt lat="47.64395" lon="6.77067">
        <ele>421.2336</ele>
        <time>2012-09-30T07:08:34Z</time>
      </trkpt>
      <trkpt lat="47.644" lon="6.77057">
        <ele>422.148</ele>
        <time>2012-09-30T07:08:37Z</time>
      </trkpt>
      <trkpt lat="47.64404" lon="6.77042">
        <ele>422.148</ele>
        <time>2012-09-30T07:08:38Z</time>
      </trkpt>
      <trkpt lat="47.64406" lon="6.7703">
        <ele>422.4528</ele>
        <time>2012-09-30T07:08:41Z</time>
      </trkpt>
      <trkpt lat="47.64409" lon="6.77018">
        <ele>421.2336</ele>
        <time>2012-09-30T07:08:42Z</time>
      </trkpt>
      <trkpt lat="47.64414" lon="6.77003">
        <ele>416.6616</ele>
        <time>2012-09-30T07:08:45Z</time>
      </trkpt>
      <trkpt lat="47.64419" lon="6.76991">
        <ele>413.3088</ele>
        <time>2012-09-30T07:08:46Z</time>
      </trkpt>
      <trkpt lat="47.64425" lon="6.76982">
        <ele>412.6992</ele>
        <time>2012-09-30T07:08:49Z</time>
      </trkpt>
      <trkpt lat="47.64431" lon="6.76976">
        <ele>411.7848</ele>
        <time>2012-09-30T07:08:51Z</time>
      </trkpt>
      <trkpt lat="47.64438" lon="6.76974">
        <ele>411.7848</ele>
        <time>2012-09-30T07:08:52Z</time>
      </trkpt>
      <trkpt lat="47.64444" lon="6.76978">
        <ele>411.1752</ele>
        <time>2012-09-30T07:08:55Z</time>
      </trkpt>
      <trkpt lat="47.64449" lon="6.76985">
        <ele>411.48</ele>
        <time>2012-09-30T07:08:56Z</time>
      </trkpt>
      <trkpt lat="47.64454" lon="6.76993">
        <ele>411.7848</ele>
        <time>2012-09-30T07:08:59Z</time>
      </trkpt>
      <trkpt lat="47.64459" lon="6.77001">
        <ele>413.3088</ele>
        <time>2012-09-30T07:09:00Z</time>
      </trkpt>
      <trkpt lat="47.64465" lon="6.77009">
        <ele>415.4424</ele>
        <time>2012-09-30T07:09:03Z</time>
      </trkpt>
      <trkpt lat="47.64471" lon="6.77017">
        <ele>417.2712</ele>
        <time>2012-09-30T07:09:04Z</time>
      </trkpt>
      <trkpt lat="47.64476" lon="6.77024">
        <ele>419.1</ele>
        <time>2012-09-30T07:09:07Z</time>
      </trkpt>
      <trkpt lat="47.6448" lon="6.77033">
        <ele>420.9288</ele>
        <time>2012-09-30T07:09:08Z</time>
      </trkpt>
      <trkpt lat="47.64484" lon="6.77041">
        <ele>423.672</ele>
        <time>2012-09-30T07:09:11Z</time>
      </trkpt>
      <trkpt lat="47.64488" lon="6.77049">
        <ele>426.1104</ele>
        <time>2012-09-30T07:09:12Z</time>
      </trkpt>
      <trkpt lat="47.64492" lon="6.77058">
        <ele>428.5488</ele>
        <time>2012-09-30T07:09:15Z</time>
      </trkpt>
      <trkpt lat="47.64494" lon="6.77067">
        <ele>430.9872</ele>
        <time>2012-09-30T07:09:16Z</time>
      </trkpt>
      <trkpt lat="47.64499" lon="6.77077">
        <ele>430.0728</ele>
        <time>2012-09-30T07:09:19Z</time>
      </trkpt>
      <trkpt lat="47.64503" lon="6.77087">
        <ele>428.8536</ele>
        <time>2012-09-30T07:09:20Z</time>
      </trkpt>
      <trkpt lat="47.64507" lon="6.77096">
        <ele>430.0728</ele>
        <time>2012-09-30T07:09:23Z</time>
      </trkpt>
      <trkpt lat="47.64511" lon="6.77104">
        <ele>431.292</ele>
        <time>2012-09-30T07:09:24Z</time>
      </trkpt>
      <trkpt lat="47.64515" lon="6.77112">
        <ele>432.2064</ele>
        <time>2012-09-30T07:09:27Z</time>
      </trkpt>
      <trkpt lat="47.64519" lon="6.7712">
        <ele>433.1208</ele>
        <time>2012-09-30T07:09:28Z</time>
      </trkpt>
      <trkpt lat="47.64522" lon="6.77128">
        <ele>432.2064</ele>
        <time>2012-09-30T07:09:31Z</time>
      </trkpt>
      <trkpt lat="47.64525" lon="6.77136">
        <ele>432.5112</ele>
        <time>2012-09-30T07:09:32Z</time>
      </trkpt>
      <trkpt lat="47.6453" lon="6.77144">
        <ele>430.9872</ele>
        <time>2012-09-30T07:09:35Z</time>
      </trkpt>
      <trkpt lat="47.64534" lon="6.77152">
        <ele>429.768</ele>
        <time>2012-09-30T07:09:36Z</time>
      </trkpt>
      <trkpt lat="47.64537" lon="6.77158">
        <ele>430.0728</ele>
        <time>2012-09-30T07:09:39Z</time>
      </trkpt>
      <trkpt lat="47.6454" lon="6.77166">
        <ele>430.9872</ele>
        <time>2012-09-30T07:09:40Z</time>
      </trkpt>
      <trkpt lat="47.64542" lon="6.77174">
        <ele>431.9016</ele>
        <time>2012-09-30T07:09:43Z</time>
      </trkpt>
      <trkpt lat="47.64545" lon="6.77182">
        <ele>432.816</ele>
        <time>2012-09-30T07:09:45Z</time>
      </trkpt>
      <trkpt lat="47.64548" lon="6.77189">
        <ele>433.7304</ele>
        <time>2012-09-30T07:09:46Z</time>
      </trkpt>
      <trkpt lat="47.64551" lon="6.77197">
        <ele>433.7304</ele>
        <time>2012-09-30T07:09:49Z</time>
      </trkpt>
      <trkpt lat="47.64553" lon="6.77204">
        <ele>434.6448</ele>
        <time>2012-09-30T07:09:50Z</time>
      </trkpt>
      <trkpt lat="47.64555" lon="6.77211">
        <ele>436.4736</ele>
        <time>2012-09-30T07:09:53Z</time>
      </trkpt>
      <trkpt lat="47.64557" lon="6.77218">
        <ele>438.6072</ele>
        <time>2012-09-30T07:09:54Z</time>
      </trkpt>
      <trkpt lat="47.6456" lon="6.77224">
        <ele>438.6072</ele>
        <time>2012-09-30T07:09:57Z</time>
      </trkpt>
      <trkpt lat="47.64563" lon="6.77232">
        <ele>438.6072</ele>
        <time>2012-09-30T07:09:58Z</time>
      </trkpt>
      <trkpt lat="47.64566" lon="6.77239">
        <ele>439.5216</ele>
        <time>2012-09-30T07:10:01Z</time>
      </trkpt>
      <trkpt lat="47.64569" lon="6.77246">
        <ele>440.1312</ele>
        <time>2012-09-30T07:10:02Z</time>
      </trkpt>
      <trkpt lat="47.64572" lon="6.77253">
        <ele>441.0456</ele>
        <time>2012-09-30T07:10:05Z</time>
      </trkpt>
      <trkpt lat="47.64575" lon="6.77261">
        <ele>441.3504</ele>
        <time>2012-09-30T07:10:06Z</time>
      </trkpt>
      <trkpt lat="47.64579" lon="6.77269">
        <ele>438.6072</ele>
        <time>2012-09-30T07:10:09Z</time>
      </trkpt>
      <trkpt lat="47.64582" lon="6.77277">
        <ele>437.0832</ele>
        <time>2012-09-30T07:10:10Z</time>
      </trkpt>
      <trkpt lat="47.64587" lon="6.77286">
        <ele>435.2544</ele>
        <time>2012-09-30T07:10:13Z</time>
      </trkpt>
      <trkpt lat="47.6459" lon="6.77293">
        <ele>434.6448</ele>
        <time>2012-09-30T07:10:14Z</time>
      </trkpt>
      <trkpt lat="47.64593" lon="6.77301">
        <ele>434.9496</ele>
        <time>2012-09-30T07:10:17Z</time>
      </trkpt>
      <trkpt lat="47.64596" lon="6.77308">
        <ele>435.864</ele>
        <time>2012-09-30T07:10:18Z</time>
      </trkpt>
      <trkpt lat="47.64599" lon="6.77316">
        <ele>436.7784</ele>
        <time>2012-09-30T07:10:21Z</time>
      </trkpt>
      <trkpt lat="47.64602" lon="6.77324">
        <ele>438.3024</ele>
        <time>2012-09-30T07:10:22Z</time>
      </trkpt>
      <trkpt lat="47.64605" lon="6.77333">
        <ele>437.9976</ele>
        <time>2012-09-30T07:10:25Z</time>
      </trkpt>
      <trkpt lat="47.64608" lon="6.77344">
        <ele>436.1688</ele>
        <time>2012-09-30T07:10:26Z</time>
      </trkpt>
      <trkpt lat="47.6461" lon="6.77355">
        <ele>434.9496</ele>
        <time>2012-09-30T07:10:29Z</time>
      </trkpt>
      <trkpt lat="47.64613" lon="6.77367">
        <ele>433.7304</ele>
        <time>2012-09-30T07:10:30Z</time>
      </trkpt>
      <trkpt lat="47.64615" lon="6.77381">
        <ele>432.816</ele>
        <time>2012-09-30T07:10:33Z</time>
      </trkpt>
      <trkpt lat="47.64618" lon="6.77395">
        <ele>431.9016</ele>
        <time>2012-09-30T07:10:34Z</time>
      </trkpt>
      <trkpt lat="47.64621" lon="6.77409">
        <ele>431.292</ele>
        <time>2012-09-30T07:10:37Z</time>
      </trkpt>
      <trkpt lat="47.64624" lon="6.77423">
        <ele>430.6824</ele>
        <time>2012-09-30T07:10:39Z</time>
      </trkpt>
      <trkpt lat="47.64626" lon="6.77437">
        <ele>430.6824</ele>
        <time>2012-09-30T07:10:40Z</time>
      </trkpt>
      <trkpt lat="47.64629" lon="6.7745">
        <ele>430.9872</ele>
        <time>2012-09-30T07:10:43Z</time>
      </trkpt>
      <trkpt lat="47.64631" lon="6.77462">
        <ele>430.9872</ele>
        <time>2012-09-30T07:10:44Z</time>
      </trkpt>
      <trkpt lat="47.64634" lon="6.77475">
        <ele>430.9872</ele>
        <time>2012-09-30T07:10:47Z</time>
      </trkpt>
      <trkpt lat="47.64636" lon="6.77487">
        <ele>430.9872</ele>
        <time>2012-09-30T07:10:48Z</time>
      </trkpt>
      <trkpt lat="47.64638" lon="6.77499">
        <ele>430.9872</ele>
        <time>2012-09-30T07:10:51Z</time>
      </trkpt>
      <trkpt lat="47.64641" lon="6.77511">
        <ele>430.9872</ele>
        <time>2012-09-30T07:10:52Z</time>
      </trkpt>
      <trkpt lat="47.64644" lon="6.77522">
        <ele>430.9872</ele>
        <time>2012-09-30T07:10:55Z</time>
      </trkpt>
      <trkpt lat="47.64646" lon="6.77534">
        <ele>430.9872</ele>
        <time>2012-09-30T07:10:56Z</time>
      </trkpt>
      <trkpt lat="47.64649" lon="6.77546">
        <ele>431.292</ele>
        <time>2012-09-30T07:10:59Z</time>
      </trkpt>
      <trkpt lat="47.64652" lon="6.77557">
        <ele>431.9016</ele>
        <time>2012-09-30T07:11:00Z</time>
      </trkpt>
      <trkpt lat="47.64655" lon="6.77568">
        <ele>432.2064</ele>
        <time>2012-09-30T07:11:03Z</time>
      </trkpt>
      <trkpt lat="47.64657" lon="6.77578">
        <ele>432.2064</ele>
        <time>2012-09-30T07:11:04Z</time>
      </trkpt>
      <trkpt lat="47.6466" lon="6.77589">
        <ele>432.5112</ele>
        <time>2012-09-30T07:11:07Z</time>
      </trkpt>
      <trkpt lat="47.64663" lon="6.77599">
        <ele>432.5112</ele>
        <time>2012-09-30T07:11:08Z</time>
      </trkpt>
      <trkpt lat="47.64665" lon="6.77608">
        <ele>432.816</ele>
        <time>2012-09-30T07:11:11Z</time>
      </trkpt>
      <trkpt lat="47.64667" lon="6.77617">
        <ele>433.1208</ele>
        <time>2012-09-30T07:11:12Z</time>
      </trkpt>
      <trkpt lat="47.6467" lon="6.77624">
        <ele>433.4256</ele>
        <time>2012-09-30T07:11:15Z</time>
      </trkpt>
      <trkpt lat="47.64672" lon="6.7763">
        <ele>433.4256</ele>
        <time>2012-09-30T07:11:16Z</time>
      </trkpt>
      <trkpt lat="47.64673" lon="6.77637">
        <ele>433.7304</ele>
        <time>2012-09-30T07:11:19Z</time>
      </trkpt>
      <trkpt lat="47.64677" lon="6.77643">
        <ele>433.7304</ele>
        <time>2012-09-30T07:11:20Z</time>
      </trkpt>
      <trkpt lat="47.64685" lon="6.77646">
        <ele>433.4256</ele>
        <time>2012-09-30T07:11:23Z</time>
      </trkpt>
      <trkpt lat="47.64692" lon="6.77642">
        <ele>433.7304</ele>
        <time>2012-09-30T07:11:24Z</time>
      </trkpt>
      <trkpt lat="47.64695" lon="6.77633">
        <ele>434.6448</ele>
        <time>2012-09-30T07:11:27Z</time>
      </trkpt>
      <trkpt lat="47.64698" lon="6.77623">
        <ele>434.9496</ele>
        <time>2012-09-30T07:11:28Z</time>
      </trkpt>
      <trkpt lat="47.647" lon="6.77613">
        <ele>434.9496</ele>
        <time>2012-09-30T07:11:31Z</time>
      </trkpt>
      <trkpt lat="47.64702" lon="6.776">
        <ele>434.9496</ele>
        <time>2012-09-30T07:11:33Z</time>
      </trkpt>
      <trkpt lat="47.64705" lon="6.77588">
        <ele>434.9496</ele>
        <time>2012-09-30T07:11:34Z</time>
      </trkpt>
      <trkpt lat="47.64707" lon="6.77575">
        <ele>435.2544</ele>
        <time>2012-09-30T07:11:37Z</time>
      </trkpt>
      <trkpt lat="47.6471" lon="6.77562">
        <ele>435.2544</ele>
        <time>2012-09-30T07:11:38Z</time>
      </trkpt>
      <trkpt lat="47.64712" lon="6.77549">
        <ele>435.2544</ele>
        <time>2012-09-30T07:11:41Z</time>
      </trkpt>
      <trkpt lat="47.64715" lon="6.77536">
        <ele>435.5592</ele>
        <time>2012-09-30T07:11:42Z</time>
      </trkpt>
      <trkpt lat="47.64718" lon="6.77524">
        <ele>435.864</ele>
        <time>2012-09-30T07:11:45Z</time>
      </trkpt>
      <trkpt lat="47.64721" lon="6.77512">
        <ele>435.864</ele>
        <time>2012-09-30T07:11:46Z</time>
      </trkpt>
      <trkpt lat="47.64723" lon="6.775">
        <ele>436.4736</ele>
        <time>2012-09-30T07:11:49Z</time>
      </trkpt>
      <trkpt lat="47.64725" lon="6.77488">
        <ele>436.7784</ele>
        <time>2012-09-30T07:11:50Z</time>
      </trkpt>
      <trkpt lat="47.64727" lon="6.77477">
        <ele>437.0832</ele>
        <time>2012-09-30T07:11:53Z</time>
      </trkpt>
      <trkpt lat="47.64729" lon="6.77466">
        <ele>437.388</ele>
        <time>2012-09-30T07:11:54Z</time>
      </trkpt>
      <trkpt lat="47.64731" lon="6.77454">
        <ele>437.6928</ele>
        <time>2012-09-30T07:11:57Z</time>
      </trkpt>
      <trkpt lat="47.64734" lon="6.77443">
        <ele>438.3024</ele>
        <time>2012-09-30T07:11:58Z</time>
      </trkpt>
      <trkpt lat="47.64736" lon="6.77432">
        <ele>438.6072</ele>
        <time>2012-09-30T07:12:01Z</time>
      </trkpt>
      <trkpt lat="47.64738" lon="6.77421">
        <ele>438.912</ele>
        <time>2012-09-30T07:12:02Z</time>
      </trkpt>
      <trkpt lat="47.64741" lon="6.7741">
        <ele>439.2168</ele>
        <time>2012-09-30T07:12:05Z</time>
      </trkpt>
      <trkpt lat="47.64742" lon="6.77399">
        <ele>439.5216</ele>
        <time>2012-09-30T07:12:06Z</time>
      </trkpt>
      <trkpt lat="47.64745" lon="6.77389">
        <ele>440.1312</ele>
        <time>2012-09-30T07:12:09Z</time>
      </trkpt>
      <trkpt lat="47.64747" lon="6.77379">
        <ele>440.436</ele>
        <time>2012-09-30T07:12:10Z</time>
      </trkpt>
      <trkpt lat="47.64749" lon="6.77369">
        <ele>441.0456</ele>
        <time>2012-09-30T07:12:13Z</time>
      </trkpt>
      <trkpt lat="47.64751" lon="6.77359">
        <ele>441.3504</ele>
        <time>2012-09-30T07:12:14Z</time>
      </trkpt>
      <trkpt lat="47.64753" lon="6.7735">
        <ele>441.96</ele>
        <time>2012-09-30T07:12:17Z</time>
      </trkpt>
      <trkpt lat="47.64756" lon="6.77341">
        <ele>442.2648</ele>
        <time>2012-09-30T07:12:18Z</time>
      </trkpt>
      <trkpt lat="47.64758" lon="6.77332">
        <ele>442.8744</ele>
        <time>2012-09-30T07:12:21Z</time>
      </trkpt>
      <trkpt lat="47.6476" lon="6.77323">
        <ele>443.484</ele>
        <time>2012-09-30T07:12:22Z</time>
      </trkpt>
      <trkpt lat="47.64763" lon="6.77316">
        <ele>443.7888</ele>
        <time>2012-09-30T07:12:25Z</time>
      </trkpt>
      <trkpt lat="47.64766" lon="6.77309">
        <ele>444.0936</ele>
        <time>2012-09-30T07:12:27Z</time>
      </trkpt>
      <trkpt lat="47.64769" lon="6.77303">
        <ele>444.3984</ele>
        <time>2012-09-30T07:12:28Z</time>
      </trkpt>
      <trkpt lat="47.64774" lon="6.77301">
        <ele>444.3984</ele>
        <time>2012-09-30T07:12:31Z</time>
      </trkpt>
      <trkpt lat="47.6478" lon="6.77304">
        <ele>445.008</ele>
        <time>2012-09-30T07:12:32Z</time>
      </trkpt>
      <trkpt lat="47.64786" lon="6.7731">
        <ele>445.3128</ele>
        <time>2012-09-30T07:12:35Z</time>
      </trkpt>
      <trkpt lat="47.64793" lon="6.77319">
        <ele>445.008</ele>
        <time>2012-09-30T07:12:36Z</time>
      </trkpt>
      <trkpt lat="47.64799" lon="6.77329">
        <ele>444.7032</ele>
        <time>2012-09-30T07:12:39Z</time>
      </trkpt>
      <trkpt lat="47.64807" lon="6.77339">
        <ele>444.0936</ele>
        <time>2012-09-30T07:12:40Z</time>
      </trkpt>
      <trkpt lat="47.64814" lon="6.7735">
        <ele>443.7888</ele>
        <time>2012-09-30T07:12:43Z</time>
      </trkpt>
      <trkpt lat="47.6482" lon="6.77362">
        <ele>443.7888</ele>
        <time>2012-09-30T07:12:44Z</time>
      </trkpt>
      <trkpt lat="47.64827" lon="6.77373">
        <ele>443.7888</ele>
        <time>2012-09-30T07:12:47Z</time>
      </trkpt>
      <trkpt lat="47.64833" lon="6.77384">
        <ele>443.7888</ele>
        <time>2012-09-30T07:12:48Z</time>
      </trkpt>
      <trkpt lat="47.64839" lon="6.77394">
        <ele>443.7888</ele>
        <time>2012-09-30T07:12:51Z</time>
      </trkpt>
      <trkpt lat="47.64846" lon="6.77402">
        <ele>443.7888</ele>
        <time>2012-09-30T07:12:52Z</time>
      </trkpt>
      <trkpt lat="47.64854" lon="6.77409">
        <ele>443.7888</ele>
        <time>2012-09-30T07:12:55Z</time>
      </trkpt>
      <trkpt lat="47.64861" lon="6.77418">
        <ele>443.7888</ele>
        <time>2012-09-30T07:12:56Z</time>
      </trkpt>
      <trkpt lat="47.64868" lon="6.77427">
        <ele>444.0936</ele>
        <time>2012-09-30T07:12:59Z</time>
      </trkpt>
      <trkpt lat="47.64876" lon="6.77433">
        <ele>444.0936</ele>
        <time>2012-09-30T07:13:00Z</time>
      </trkpt>
      <trkpt lat="47.64884" lon="6.77438">
        <ele>444.0936</ele>
        <time>2012-09-30T07:13:03Z</time>
      </trkpt>
      <trkpt lat="47.64891" lon="6.77442">
        <ele>444.0936</ele>
        <time>2012-09-30T07:13:04Z</time>
      </trkpt>
      <trkpt lat="47.64898" lon="6.77447">
        <ele>444.0936</ele>
        <time>2012-09-30T07:13:07Z</time>
      </trkpt>
      <trkpt lat="47.64906" lon="6.77452">
        <ele>443.484</ele>
        <time>2012-09-30T07:13:08Z</time>
      </trkpt>
      <trkpt lat="47.64916" lon="6.77458">
        <ele>442.5696</ele>
        <time>2012-09-30T07:13:11Z</time>
      </trkpt>
      <trkpt lat="47.64927" lon="6.77465">
        <ele>441.3504</ele>
        <time>2012-09-30T07:13:12Z</time>
      </trkpt>
      <trkpt lat="47.64939" lon="6.77474">
        <ele>439.5216</ele>
        <time>2012-09-30T07:13:15Z</time>
      </trkpt>
      <trkpt lat="47.64954" lon="6.77482">
        <ele>437.6928</ele>
        <time>2012-09-30T07:13:16Z</time>
      </trkpt>
      <trkpt lat="47.64971" lon="6.7749">
        <ele>436.4736</ele>
        <time>2012-09-30T07:13:19Z</time>
      </trkpt>
      <trkpt lat="47.64987" lon="6.77496">
        <ele>435.864</ele>
        <time>2012-09-30T07:13:20Z</time>
      </trkpt>
      <trkpt lat="47.65003" lon="6.77501">
        <ele>435.2544</ele>
        <time>2012-09-30T07:13:22Z</time>
      </trkpt>
      <trkpt lat="47.65018" lon="6.77506">
        <ele>434.9496</ele>
        <time>2012-09-30T07:13:25Z</time>
      </trkpt>
      <trkpt lat="47.65032" lon="6.77508">
        <ele>434.6448</ele>
        <time>2012-09-30T07:13:26Z</time>
      </trkpt>
      <trkpt lat="47.65046" lon="6.7751">
        <ele>434.6448</ele>
        <time>2012-09-30T07:13:29Z</time>
      </trkpt>
      <trkpt lat="47.65059" lon="6.77511">
        <ele>434.9496</ele>
        <time>2012-09-30T07:13:30Z</time>
      </trkpt>
      <trkpt lat="47.65072" lon="6.77512">
        <ele>434.9496</ele>
        <time>2012-09-30T07:13:33Z</time>
      </trkpt>
      <trkpt lat="47.65084" lon="6.77514">
        <ele>434.9496</ele>
        <time>2012-09-30T07:13:34Z</time>
      </trkpt>
      <trkpt lat="47.65096" lon="6.77518">
        <ele>434.34</ele>
        <time>2012-09-30T07:13:37Z</time>
      </trkpt>
      <trkpt lat="47.65108" lon="6.77524">
        <ele>433.7304</ele>
        <time>2012-09-30T07:13:38Z</time>
      </trkpt>
      <trkpt lat="47.6512" lon="6.77529">
        <ele>433.4256</ele>
        <time>2012-09-30T07:13:41Z</time>
      </trkpt>
      <trkpt lat="47.65132" lon="6.77535">
        <ele>433.1208</ele>
        <time>2012-09-30T07:13:42Z</time>
      </trkpt>
      <trkpt lat="47.65143" lon="6.77539">
        <ele>433.1208</ele>
        <time>2012-09-30T07:13:45Z</time>
      </trkpt>
      <trkpt lat="47.65155" lon="6.77545">
        <ele>432.816</ele>
        <time>2012-09-30T07:13:46Z</time>
      </trkpt>
      <trkpt lat="47.65166" lon="6.77549">
        <ele>432.5112</ele>
        <time>2012-09-30T07:13:49Z</time>
      </trkpt>
      <trkpt lat="47.65177" lon="6.77554">
        <ele>431.9016</ele>
        <time>2012-09-30T07:13:50Z</time>
      </trkpt>
      <trkpt lat="47.65189" lon="6.77559">
        <ele>431.292</ele>
        <time>2012-09-30T07:13:53Z</time>
      </trkpt>
      <trkpt lat="47.65202" lon="6.77563">
        <ele>430.6824</ele>
        <time>2012-09-30T07:13:54Z</time>
      </trkpt>
      <trkpt lat="47.65215" lon="6.77564">
        <ele>430.3776</ele>
        <time>2012-09-30T07:13:57Z</time>
      </trkpt>
      <trkpt lat="47.65226" lon="6.77564">
        <ele>430.3776</ele>
        <time>2012-09-30T07:13:58Z</time>
      </trkpt>
      <trkpt lat="47.65233" lon="6.77564">
        <ele>430.3776</ele>
        <time>2012-09-30T07:14:01Z</time>
      </trkpt>
      <trkpt lat="47.6524" lon="6.77565">
        <ele>430.3776</ele>
        <time>2012-09-30T07:14:02Z</time>
      </trkpt>
      <trkpt lat="47.65248" lon="6.77567">
        <ele>430.3776</ele>
        <time>2012-09-30T07:14:05Z</time>
      </trkpt>
      <trkpt lat="47.65257" lon="6.77571">
        <ele>430.3776</ele>
        <time>2012-09-30T07:14:06Z</time>
      </trkpt>
      <trkpt lat="47.65267" lon="6.77577">
        <ele>430.3776</ele>
        <time>2012-09-30T07:14:09Z</time>
      </trkpt>
      <trkpt lat="47.65276" lon="6.77584">
        <ele>430.3776</ele>
        <time>2012-09-30T07:14:10Z</time>
      </trkpt>
      <trkpt lat="47.65285" lon="6.77588">
        <ele>430.0728</ele>
        <time>2012-09-30T07:14:13Z</time>
      </trkpt>
      <trkpt lat="47.65295" lon="6.77588">
        <ele>429.4632</ele>
        <time>2012-09-30T07:14:14Z</time>
      </trkpt>
      <trkpt lat="47.65304" lon="6.77588">
        <ele>429.1584</ele>
        <time>2012-09-30T07:14:16Z</time>
      </trkpt>
      <trkpt lat="47.65309" lon="6.77587">
        <ele>428.8536</ele>
        <time>2012-09-30T07:14:19Z</time>
      </trkpt>
      <trkpt lat="47.65313" lon="6.77587">
        <ele>428.8536</ele>
        <time>2012-09-30T07:14:20Z</time>
      </trkpt>
      <trkpt lat="47.65315" lon="6.77583">
        <ele>428.5488</ele>
        <time>2012-09-30T07:14:23Z</time>
      </trkpt>
      <trkpt lat="47.65315" lon="6.77578">
        <ele>428.5488</ele>
        <time>2012-09-30T07:14:24Z</time>
      </trkpt>
      <trkpt lat="47.65314" lon="6.77572">
        <ele>428.8536</ele>
        <time>2012-09-30T07:14:27Z</time>
      </trkpt>
      <trkpt lat="47.65315" lon="6.77564">
        <ele>429.1584</ele>
        <time>2012-09-30T07:14:28Z</time>
      </trkpt>
      <trkpt lat="47.65316" lon="6.77558">
        <ele>428.8536</ele>
        <time>2012-09-30T07:14:31Z</time>
      </trkpt>
      <trkpt lat="47.65318" lon="6.77556">
        <ele>428.244</ele>
        <time>2012-09-30T07:14:32Z</time>
      </trkpt>
      <trkpt lat="47.6532" lon="6.77554">
        <ele>427.6344</ele>
        <time>2012-09-30T07:14:35Z</time>
      </trkpt>
      <trkpt lat="47.65323" lon="6.77552">
        <ele>426.72</ele>
        <time>2012-09-30T07:14:36Z</time>
      </trkpt>
      <trkpt lat="47.65327" lon="6.77551">
        <ele>425.8056</ele>
        <time>2012-09-30T07:14:39Z</time>
      </trkpt>
      <trkpt lat="47.6533" lon="6.77545">
        <ele>424.5864</ele>
        <time>2012-09-30T07:14:40Z</time>
      </trkpt>
      <trkpt lat="47.65331" lon="6.77538">
        <ele>423.9768</ele>
        <time>2012-09-30T07:14:43Z</time>
      </trkpt>
      <trkpt lat="47.65334" lon="6.77534">
        <ele>423.9768</ele>
        <time>2012-09-30T07:14:44Z</time>
      </trkpt>
      <trkpt lat="47.65337" lon="6.7753">
        <ele>422.4528</ele>
        <time>2012-09-30T07:14:47Z</time>
      </trkpt>
      <trkpt lat="47.65341" lon="6.77524">
        <ele>420.624</ele>
        <time>2012-09-30T07:14:48Z</time>
      </trkpt>
      <trkpt lat="47.65344" lon="6.77518">
        <ele>419.4048</ele>
        <time>2012-09-30T07:14:51Z</time>
      </trkpt>
      <trkpt lat="47.65347" lon="6.77513">
        <ele>419.1</ele>
        <time>2012-09-30T07:14:52Z</time>
      </trkpt>
      <trkpt lat="47.65351" lon="6.77508">
        <ele>416.3568</ele>
        <time>2012-09-30T07:14:55Z</time>
      </trkpt>
      <trkpt lat="47.65354" lon="6.77504">
        <ele>415.4424</ele>
        <time>2012-09-30T07:14:56Z</time>
      </trkpt>
      <trkpt lat="47.65358" lon="6.77499">
        <ele>414.8328</ele>
        <time>2012-09-30T07:14:59Z</time>
      </trkpt>
      <trkpt lat="47.65359" lon="6.77493">
        <ele>415.7472</ele>
        <time>2012-09-30T07:15:00Z</time>
      </trkpt>
      <trkpt lat="47.65361" lon="6.77485">
        <ele>415.7472</ele>
        <time>2012-09-30T07:15:03Z</time>
      </trkpt>
      <trkpt lat="47.65361" lon="6.7748">
        <ele>416.3568</ele>
        <time>2012-09-30T07:15:04Z</time>
      </trkpt>
      <trkpt lat="47.65362" lon="6.7747">
        <ele>419.4048</ele>
        <time>2012-09-30T07:15:18Z</time>
      </trkpt>
      <trkpt lat="47.65361" lon="6.77464">
        <ele>419.7096</ele>
        <time>2012-09-30T07:15:26Z</time>
      </trkpt>
      <trkpt lat="47.65363" lon="6.7746">
        <ele>418.7952</ele>
        <time>2012-09-30T07:15:29Z</time>
      </trkpt>
      <trkpt lat="47.65364" lon="6.77455">
        <ele>417.8808</ele>
        <time>2012-09-30T07:15:30Z</time>
      </trkpt>
      <trkpt lat="47.65362" lon="6.77451">
        <ele>418.4904</ele>
        <time>2012-09-30T07:15:33Z</time>
      </trkpt>
      <trkpt lat="47.6536" lon="6.77447">
        <ele>419.1</ele>
        <time>2012-09-30T07:15:34Z</time>
      </trkpt>
      <trkpt lat="47.65359" lon="6.77442">
        <ele>420.3192</ele>
        <time>2012-09-30T07:15:37Z</time>
      </trkpt>
      <trkpt lat="47.65359" lon="6.77435">
        <ele>421.2336</ele>
        <time>2012-09-30T07:15:38Z</time>
      </trkpt>
      <trkpt lat="47.6536" lon="6.77425">
        <ele>421.8432</ele>
        <time>2012-09-30T07:15:41Z</time>
      </trkpt>
      <trkpt lat="47.65365" lon="6.77412">
        <ele>420.3192</ele>
        <time>2012-09-30T07:15:42Z</time>
      </trkpt>
      <trkpt lat="47.6537" lon="6.774">
        <ele>418.4904</ele>
        <time>2012-09-30T07:15:45Z</time>
      </trkpt>
      <trkpt lat="47.65376" lon="6.77387">
        <ele>415.1376</ele>
        <time>2012-09-30T07:15:46Z</time>
      </trkpt>
      <trkpt lat="47.65378" lon="6.77372">
        <ele>413.9184</ele>
        <time>2012-09-30T07:15:49Z</time>
      </trkpt>
      <trkpt lat="47.65381" lon="6.77358">
        <ele>410.2608</ele>
        <time>2012-09-30T07:15:50Z</time>
      </trkpt>
      <trkpt lat="47.65383" lon="6.7735">
        <ele>406.908</ele>
        <time>2012-09-30T07:15:53Z</time>
      </trkpt>
      <trkpt lat="47.65388" lon="6.77349">
        <ele>405.6888</ele>
        <time>2012-09-30T07:15:54Z</time>
      </trkpt>
      <trkpt lat="47.65394" lon="6.77346">
        <ele>404.1648</ele>
        <time>2012-09-30T07:15:57Z</time>
      </trkpt>
      <trkpt lat="47.65398" lon="6.77334">
        <ele>401.1168</ele>
        <time>2012-09-30T07:15:58Z</time>
      </trkpt>
      <trkpt lat="47.65398" lon="6.77321">
        <ele>400.2024</ele>
        <time>2012-09-30T07:16:01Z</time>
      </trkpt>
      <trkpt lat="47.65398" lon="6.77311">
        <ele>401.4216</ele>
        <time>2012-09-30T07:16:02Z</time>
      </trkpt>
      <trkpt lat="47.65401" lon="6.77302">
        <ele>399.8976</ele>
        <time>2012-09-30T07:16:04Z</time>
      </trkpt>
      <trkpt lat="47.65402" lon="6.77293">
        <ele>398.0688</ele>
        <time>2012-09-30T07:16:07Z</time>
      </trkpt>
      <trkpt lat="47.65403" lon="6.77283">
        <ele>396.24</ele>
        <time>2012-09-30T07:16:08Z</time>
      </trkpt>
      <trkpt lat="47.65405" lon="6.77273">
        <ele>395.6304</ele>
        <time>2012-09-30T07:16:11Z</time>
      </trkpt>
      <trkpt lat="47.65407" lon="6.77262">
        <ele>396.5448</ele>
        <time>2012-09-30T07:16:12Z</time>
      </trkpt>
      <trkpt lat="47.65407" lon="6.77248">
        <ele>398.9832</ele>
        <time>2012-09-30T07:16:15Z</time>
      </trkpt>
      <trkpt lat="47.65407" lon="6.77233">
        <ele>400.2024</ele>
        <time>2012-09-30T07:16:16Z</time>
      </trkpt>
      <trkpt lat="47.65408" lon="6.7722">
        <ele>401.4216</ele>
        <time>2012-09-30T07:16:19Z</time>
      </trkpt>
      <trkpt lat="47.6541" lon="6.77206">
        <ele>402.0312</ele>
        <time>2012-09-30T07:16:20Z</time>
      </trkpt>
      <trkpt lat="47.65412" lon="6.77193">
        <ele>400.812</ele>
        <time>2012-09-30T07:16:23Z</time>
      </trkpt>
      <trkpt lat="47.65417" lon="6.77179">
        <ele>399.8976</ele>
        <time>2012-09-30T07:16:24Z</time>
      </trkpt>
      <trkpt lat="47.6542" lon="6.77168">
        <ele>399.288</ele>
        <time>2012-09-30T07:16:27Z</time>
      </trkpt>
      <trkpt lat="47.65421" lon="6.77156">
        <ele>398.3736</ele>
        <time>2012-09-30T07:16:28Z</time>
      </trkpt>
      <trkpt lat="47.65422" lon="6.77142">
        <ele>397.764</ele>
        <time>2012-09-30T07:16:31Z</time>
      </trkpt>
      <trkpt lat="47.65424" lon="6.77126">
        <ele>396.8496</ele>
        <time>2012-09-30T07:16:32Z</time>
      </trkpt>
      <trkpt lat="47.65424" lon="6.77112">
        <ele>395.0208</ele>
        <time>2012-09-30T07:16:35Z</time>
      </trkpt>
      <trkpt lat="47.65425" lon="6.77101">
        <ele>394.716</ele>
        <time>2012-09-30T07:16:36Z</time>
      </trkpt>
      <trkpt lat="47.65427" lon="6.77087">
        <ele>392.8872</ele>
        <time>2012-09-30T07:16:39Z</time>
      </trkpt>
      <trkpt lat="47.65428" lon="6.77074">
        <ele>391.668</ele>
        <time>2012-09-30T07:16:40Z</time>
      </trkpt>
      <trkpt lat="47.65428" lon="6.77066">
        <ele>391.0584</ele>
        <time>2012-09-30T07:16:43Z</time>
      </trkpt>
      <trkpt lat="47.65428" lon="6.7706">
        <ele>388.62</ele>
        <time>2012-09-30T07:16:44Z</time>
      </trkpt>
      <trkpt lat="47.65427" lon="6.77051">
        <ele>385.2672</ele>
        <time>2012-09-30T07:16:52Z</time>
      </trkpt>
      <trkpt lat="47.65427" lon="6.77046">
        <ele>385.572</ele>
        <time>2012-09-30T07:16:55Z</time>
      </trkpt>
      <trkpt lat="47.65429" lon="6.77039">
        <ele>384.048</ele>
        <time>2012-09-30T07:16:57Z</time>
      </trkpt>
      <trkpt lat="47.65431" lon="6.7703">
        <ele>382.524</ele>
        <time>2012-09-30T07:16:58Z</time>
      </trkpt>
      <trkpt lat="47.65437" lon="6.77024">
        <ele>381.6096</ele>
        <time>2012-09-30T07:17:01Z</time>
      </trkpt>
      <trkpt lat="47.65444" lon="6.77021">
        <ele>381.3048</ele>
        <time>2012-09-30T07:17:02Z</time>
      </trkpt>
      <trkpt lat="47.65452" lon="6.7702">
        <ele>381.6096</ele>
        <time>2012-09-30T07:17:05Z</time>
      </trkpt>
      <trkpt lat="47.65461" lon="6.7702">
        <ele>382.2192</ele>
        <time>2012-09-30T07:17:06Z</time>
      </trkpt>
      <trkpt lat="47.65469" lon="6.77019">
        <ele>382.524</ele>
        <time>2012-09-30T07:17:09Z</time>
      </trkpt>
      <trkpt lat="47.65478" lon="6.77019">
        <ele>382.2192</ele>
        <time>2012-09-30T07:17:10Z</time>
      </trkpt>
      <trkpt lat="47.65487" lon="6.77019">
        <ele>382.524</ele>
        <time>2012-09-30T07:17:13Z</time>
      </trkpt>
      <trkpt lat="47.65497" lon="6.77017">
        <ele>382.524</ele>
        <time>2012-09-30T07:17:14Z</time>
      </trkpt>
      <trkpt lat="47.65505" lon="6.77009">
        <ele>382.524</ele>
        <time>2012-09-30T07:17:17Z</time>
      </trkpt>
      <trkpt lat="47.65515" lon="6.77004">
        <ele>381.9144</ele>
        <time>2012-09-30T07:17:18Z</time>
      </trkpt>
      <trkpt lat="47.65524" lon="6.76998">
        <ele>382.524</ele>
        <time>2012-09-30T07:17:21Z</time>
      </trkpt>
      <trkpt lat="47.65532" lon="6.76989">
        <ele>382.8288</ele>
        <time>2012-09-30T07:17:22Z</time>
      </trkpt>
      <trkpt lat="47.6554" lon="6.76979">
        <ele>382.524</ele>
        <time>2012-09-30T07:17:25Z</time>
      </trkpt>
      <trkpt lat="47.65549" lon="6.76969">
        <ele>382.524</ele>
        <time>2012-09-30T07:17:26Z</time>
      </trkpt>
      <trkpt lat="47.65558" lon="6.76959">
        <ele>382.524</ele>
        <time>2012-09-30T07:17:29Z</time>
      </trkpt>
      <trkpt lat="47.65567" lon="6.76949">
        <ele>382.524</ele>
        <time>2012-09-30T07:17:30Z</time>
      </trkpt>
      <trkpt lat="47.65577" lon="6.76939">
        <ele>381.9144</ele>
        <time>2012-09-30T07:17:33Z</time>
      </trkpt>
      <trkpt lat="47.65586" lon="6.7693">
        <ele>381.3048</ele>
        <time>2012-09-30T07:17:34Z</time>
      </trkpt>
      <trkpt lat="47.65596" lon="6.76921">
        <ele>381.3048</ele>
        <time>2012-09-30T07:17:37Z</time>
      </trkpt>
      <trkpt lat="47.65605" lon="6.76913">
        <ele>381</ele>
        <time>2012-09-30T07:17:38Z</time>
      </trkpt>
      <trkpt lat="47.65614" lon="6.76904">
        <ele>381.3048</ele>
        <time>2012-09-30T07:17:41Z</time>
      </trkpt>
      <trkpt lat="47.65623" lon="6.76895">
        <ele>381.6096</ele>
        <time>2012-09-30T07:17:42Z</time>
      </trkpt>
      <trkpt lat="47.65631" lon="6.76886">
        <ele>381.9144</ele>
        <time>2012-09-30T07:17:45Z</time>
      </trkpt>
      <trkpt lat="47.6564" lon="6.76878">
        <ele>382.2192</ele>
        <time>2012-09-30T07:17:46Z</time>
      </trkpt>
      <trkpt lat="47.6565" lon="6.76868">
        <ele>382.2192</ele>
        <time>2012-09-30T07:17:49Z</time>
      </trkpt>
      <trkpt lat="47.65659" lon="6.76859">
        <ele>382.2192</ele>
        <time>2012-09-30T07:17:51Z</time>
      </trkpt>
      <trkpt lat="47.65668" lon="6.76849">
        <ele>382.524</ele>
        <time>2012-09-30T07:17:52Z</time>
      </trkpt>
      <trkpt lat="47.65677" lon="6.7684">
        <ele>382.8288</ele>
        <time>2012-09-30T07:17:55Z</time>
      </trkpt>
      <trkpt lat="47.65686" lon="6.7683">
        <ele>383.1336</ele>
        <time>2012-09-30T07:17:56Z</time>
      </trkpt>
      <trkpt lat="47.65695" lon="6.7682">
        <ele>383.7432</ele>
        <time>2012-09-30T07:17:59Z</time>
      </trkpt>
      <trkpt lat="47.65704" lon="6.76811">
        <ele>384.3528</ele>
        <time>2012-09-30T07:18:00Z</time>
      </trkpt>
      <trkpt lat="47.65713" lon="6.76802">
        <ele>384.6576</ele>
        <time>2012-09-30T07:18:03Z</time>
      </trkpt>
      <trkpt lat="47.65722" lon="6.76794">
        <ele>385.2672</ele>
        <time>2012-09-30T07:18:04Z</time>
      </trkpt>
      <trkpt lat="47.65731" lon="6.76784">
        <ele>385.572</ele>
        <time>2012-09-30T07:18:07Z</time>
      </trkpt>
      <trkpt lat="47.6574" lon="6.76775">
        <ele>385.2672</ele>
        <time>2012-09-30T07:18:08Z</time>
      </trkpt>
      <trkpt lat="47.65749" lon="6.76765">
        <ele>385.572</ele>
        <time>2012-09-30T07:18:11Z</time>
      </trkpt>
      <trkpt lat="47.65758" lon="6.76755">
        <ele>386.1816</ele>
        <time>2012-09-30T07:18:12Z</time>
      </trkpt>
      <trkpt lat="47.65767" lon="6.76746">
        <ele>386.4864</ele>
        <time>2012-09-30T07:18:15Z</time>
      </trkpt>
      <trkpt lat="47.65776" lon="6.76736">
        <ele>386.4864</ele>
        <time>2012-09-30T07:18:16Z</time>
      </trkpt>
      <trkpt lat="47.65785" lon="6.76725">
        <ele>386.7912</ele>
        <time>2012-09-30T07:18:19Z</time>
      </trkpt>
      <trkpt lat="47.65795" lon="6.76715">
        <ele>386.7912</ele>
        <time>2012-09-30T07:18:20Z</time>
      </trkpt>
      <trkpt lat="47.65804" lon="6.76704">
        <ele>387.096</ele>
        <time>2012-09-30T07:18:23Z</time>
      </trkpt>
      <trkpt lat="47.65813" lon="6.76693">
        <ele>386.7912</ele>
        <time>2012-09-30T07:18:24Z</time>
      </trkpt>
      <trkpt lat="47.65822" lon="6.7668">
        <ele>386.1816</ele>
        <time>2012-09-30T07:18:27Z</time>
      </trkpt>
      <trkpt lat="47.6583" lon="6.76667">
        <ele>385.572</ele>
        <time>2012-09-30T07:18:28Z</time>
      </trkpt>
      <trkpt lat="47.65838" lon="6.76653">
        <ele>384.9624</ele>
        <time>2012-09-30T07:18:31Z</time>
      </trkpt>
      <trkpt lat="47.65846" lon="6.7664">
        <ele>384.3528</ele>
        <time>2012-09-30T07:18:32Z</time>
      </trkpt>
      <trkpt lat="47.65854" lon="6.76627">
        <ele>384.048</ele>
        <time>2012-09-30T07:18:35Z</time>
      </trkpt>
      <trkpt lat="47.65861" lon="6.76614">
        <ele>383.7432</ele>
        <time>2012-09-30T07:18:36Z</time>
      </trkpt>
      <trkpt lat="47.65869" lon="6.76601">
        <ele>383.4384</ele>
        <time>2012-09-30T07:18:39Z</time>
      </trkpt>
      <trkpt lat="47.65876" lon="6.76588">
        <ele>383.4384</ele>
        <time>2012-09-30T07:18:40Z</time>
      </trkpt>
      <trkpt lat="47.65882" lon="6.76574">
        <ele>383.1336</ele>
        <time>2012-09-30T07:18:43Z</time>
      </trkpt>
      <trkpt lat="47.65887" lon="6.7656">
        <ele>383.1336</ele>
        <time>2012-09-30T07:18:45Z</time>
      </trkpt>
      <trkpt lat="47.65893" lon="6.76545">
        <ele>383.1336</ele>
        <time>2012-09-30T07:18:46Z</time>
      </trkpt>
      <trkpt lat="47.65898" lon="6.76531">
        <ele>382.8288</ele>
        <time>2012-09-30T07:18:49Z</time>
      </trkpt>
      <trkpt lat="47.65904" lon="6.76516">
        <ele>382.8288</ele>
        <time>2012-09-30T07:18:50Z</time>
      </trkpt>
      <trkpt lat="47.65909" lon="6.76501">
        <ele>382.8288</ele>
        <time>2012-09-30T07:18:53Z</time>
      </trkpt>
      <trkpt lat="47.65914" lon="6.76486">
        <ele>382.524</ele>
        <time>2012-09-30T07:18:54Z</time>
      </trkpt>
      <trkpt lat="47.65919" lon="6.76471">
        <ele>382.524</ele>
        <time>2012-09-30T07:18:57Z</time>
      </trkpt>
      <trkpt lat="47.65924" lon="6.76455">
        <ele>382.2192</ele>
        <time>2012-09-30T07:18:58Z</time>
      </trkpt>
      <trkpt lat="47.65928" lon="6.76439">
        <ele>382.2192</ele>
        <time>2012-09-30T07:19:01Z</time>
      </trkpt>
      <trkpt lat="47.65932" lon="6.76423">
        <ele>382.2192</ele>
        <time>2012-09-30T07:19:02Z</time>
      </trkpt>
      <trkpt lat="47.65935" lon="6.76406">
        <ele>381.9144</ele>
        <time>2012-09-30T07:19:05Z</time>
      </trkpt>
      <trkpt lat="47.65938" lon="6.7639">
        <ele>381.9144</ele>
        <time>2012-09-30T07:19:06Z</time>
      </trkpt>
      <trkpt lat="47.65941" lon="6.76373">
        <ele>381.9144</ele>
        <time>2012-09-30T07:19:09Z</time>
      </trkpt>
      <trkpt lat="47.65944" lon="6.76357">
        <ele>381.9144</ele>
        <time>2012-09-30T07:19:10Z</time>
      </trkpt>
      <trkpt lat="47.65946" lon="6.76341">
        <ele>381.9144</ele>
        <time>2012-09-30T07:19:13Z</time>
      </trkpt>
      <trkpt lat="47.65948" lon="6.76324">
        <ele>381.9144</ele>
        <time>2012-09-30T07:19:14Z</time>
      </trkpt>
      <trkpt lat="47.65951" lon="6.76308">
        <ele>381.9144</ele>
        <time>2012-09-30T07:19:17Z</time>
      </trkpt>
      <trkpt lat="47.65953" lon="6.76292">
        <ele>381.9144</ele>
        <time>2012-09-30T07:19:18Z</time>
      </trkpt>
      <trkpt lat="47.65955" lon="6.76276">
        <ele>382.2192</ele>
        <time>2012-09-30T07:19:21Z</time>
      </trkpt>
      <trkpt lat="47.65957" lon="6.7626">
        <ele>382.2192</ele>
        <time>2012-09-30T07:19:22Z</time>
      </trkpt>
      <trkpt lat="47.65959" lon="6.76244">
        <ele>382.524</ele>
        <time>2012-09-30T07:19:25Z</time>
      </trkpt>
      <trkpt lat="47.65961" lon="6.76229">
        <ele>382.8288</ele>
        <time>2012-09-30T07:19:26Z</time>
      </trkpt>
      <trkpt lat="47.65963" lon="6.76214">
        <ele>383.1336</ele>
        <time>2012-09-30T07:19:29Z</time>
      </trkpt>
      <trkpt lat="47.65965" lon="6.76198">
        <ele>383.1336</ele>
        <time>2012-09-30T07:19:30Z</time>
      </trkpt>
      <trkpt lat="47.65967" lon="6.76182">
        <ele>383.1336</ele>
        <time>2012-09-30T07:19:33Z</time>
      </trkpt>
      <trkpt lat="47.65969" lon="6.76166">
        <ele>383.1336</ele>
        <time>2012-09-30T07:19:34Z</time>
      </trkpt>
      <trkpt lat="47.65971" lon="6.7615">
        <ele>383.1336</ele>
        <time>2012-09-30T07:19:37Z</time>
      </trkpt>
      <trkpt lat="47.65974" lon="6.76134">
        <ele>383.4384</ele>
        <time>2012-09-30T07:19:39Z</time>
      </trkpt>
      <trkpt lat="47.65976" lon="6.76117">
        <ele>383.4384</ele>
        <time>2012-09-30T07:19:40Z</time>
      </trkpt>
      <trkpt lat="47.65978" lon="6.761">
        <ele>383.4384</ele>
        <time>2012-09-30T07:19:43Z</time>
      </trkpt>
      <trkpt lat="47.6598" lon="6.76084">
        <ele>383.4384</ele>
        <time>2012-09-30T07:19:44Z</time>
      </trkpt>
      <trkpt lat="47.65983" lon="6.76067">
        <ele>383.1336</ele>
        <time>2012-09-30T07:19:47Z</time>
      </trkpt>
      <trkpt lat="47.65985" lon="6.7605">
        <ele>383.1336</ele>
        <time>2012-09-30T07:19:48Z</time>
      </trkpt>
      <trkpt lat="47.65987" lon="6.76033">
        <ele>382.8288</ele>
        <time>2012-09-30T07:19:51Z</time>
      </trkpt>
      <trkpt lat="47.6599" lon="6.76015">
        <ele>382.2192</ele>
        <time>2012-09-30T07:19:52Z</time>
      </trkpt>
      <trkpt lat="47.65992" lon="6.75997">
        <ele>381.9144</ele>
        <time>2012-09-30T07:19:55Z</time>
      </trkpt>
      <trkpt lat="47.65995" lon="6.75979">
        <ele>381.6096</ele>
        <time>2012-09-30T07:19:56Z</time>
      </trkpt>
      <trkpt lat="47.65997" lon="6.75961">
        <ele>381.6096</ele>
        <time>2012-09-30T07:19:59Z</time>
      </trkpt>
      <trkpt lat="47.65999" lon="6.75944">
        <ele>381.6096</ele>
        <time>2012-09-30T07:20:00Z</time>
      </trkpt>
      <trkpt lat="47.66002" lon="6.75927">
        <ele>381.6096</ele>
        <time>2012-09-30T07:20:03Z</time>
      </trkpt>
      <trkpt lat="47.66004" lon="6.7591">
        <ele>381.6096</ele>
        <time>2012-09-30T07:20:04Z</time>
      </trkpt>
      <trkpt lat="47.66006" lon="6.75893">
        <ele>381.6096</ele>
        <time>2012-09-30T07:20:07Z</time>
      </trkpt>
      <trkpt lat="47.66009" lon="6.75876">
        <ele>381.6096</ele>
        <time>2012-09-30T07:20:08Z</time>
      </trkpt>
      <trkpt lat="47.66011" lon="6.75859">
        <ele>381.6096</ele>
        <time>2012-09-30T07:20:11Z</time>
      </trkpt>
      <trkpt lat="47.66013" lon="6.75842">
        <ele>381.6096</ele>
        <time>2012-09-30T07:20:12Z</time>
      </trkpt>
      <trkpt lat="47.66016" lon="6.75826">
        <ele>381.9144</ele>
        <time>2012-09-30T07:20:15Z</time>
      </trkpt>
      <trkpt lat="47.66018" lon="6.75809">
        <ele>381.6096</ele>
        <time>2012-09-30T07:20:16Z</time>
      </trkpt>
      <trkpt lat="47.6602" lon="6.75792">
        <ele>381.6096</ele>
        <time>2012-09-30T07:20:19Z</time>
      </trkpt>
      <trkpt lat="47.66022" lon="6.75776">
        <ele>381.9144</ele>
        <time>2012-09-30T07:20:20Z</time>
      </trkpt>
      <trkpt lat="47.66024" lon="6.75759">
        <ele>381.9144</ele>
        <time>2012-09-30T07:20:23Z</time>
      </trkpt>
      <trkpt lat="47.66026" lon="6.75743">
        <ele>381.9144</ele>
        <time>2012-09-30T07:20:24Z</time>
      </trkpt>
      <trkpt lat="47.66028" lon="6.75726">
        <ele>382.2192</ele>
        <time>2012-09-30T07:20:27Z</time>
      </trkpt>
      <trkpt lat="47.66031" lon="6.7571">
        <ele>382.2192</ele>
        <time>2012-09-30T07:20:28Z</time>
      </trkpt>
      <trkpt lat="47.66033" lon="6.75694">
        <ele>382.524</ele>
        <time>2012-09-30T07:20:31Z</time>
      </trkpt>
      <trkpt lat="47.66034" lon="6.75678">
        <ele>382.524</ele>
        <time>2012-09-30T07:20:33Z</time>
      </trkpt>
      <trkpt lat="47.66036" lon="6.75663">
        <ele>382.8288</ele>
        <time>2012-09-30T07:20:34Z</time>
      </trkpt>
      <trkpt lat="47.66039" lon="6.75647">
        <ele>382.8288</ele>
        <time>2012-09-30T07:20:37Z</time>
      </trkpt>
      <trkpt lat="47.6604" lon="6.75631">
        <ele>382.8288</ele>
        <time>2012-09-30T07:20:38Z</time>
      </trkpt>
      <trkpt lat="47.66042" lon="6.75615">
        <ele>382.8288</ele>
        <time>2012-09-30T07:20:41Z</time>
      </trkpt>
      <trkpt lat="47.66045" lon="6.756">
        <ele>383.1336</ele>
        <time>2012-09-30T07:20:42Z</time>
      </trkpt>
      <trkpt lat="47.66047" lon="6.75584">
        <ele>383.4384</ele>
        <time>2012-09-30T07:20:45Z</time>
      </trkpt>
      <trkpt lat="47.66049" lon="6.75569">
        <ele>383.4384</ele>
        <time>2012-09-30T07:20:46Z</time>
      </trkpt>
      <trkpt lat="47.66051" lon="6.75553">
        <ele>383.4384</ele>
        <time>2012-09-30T07:20:49Z</time>
      </trkpt>
      <trkpt lat="47.66053" lon="6.75537">
        <ele>383.1336</ele>
        <time>2012-09-30T07:20:50Z</time>
      </trkpt>
      <trkpt lat="47.66056" lon="6.75521">
        <ele>383.1336</ele>
        <time>2012-09-30T07:20:53Z</time>
      </trkpt>
      <trkpt lat="47.66058" lon="6.75506">
        <ele>383.1336</ele>
        <time>2012-09-30T07:20:54Z</time>
      </trkpt>
      <trkpt lat="47.6606" lon="6.75491">
        <ele>383.4384</ele>
        <time>2012-09-30T07:20:57Z</time>
      </trkpt>
      <trkpt lat="47.66062" lon="6.75476">
        <ele>383.4384</ele>
        <time>2012-09-30T07:20:58Z</time>
      </trkpt>
      <trkpt lat="47.66064" lon="6.75461">
        <ele>383.1336</ele>
        <time>2012-09-30T07:21:01Z</time>
      </trkpt>
      <trkpt lat="47.66066" lon="6.75445">
        <ele>382.524</ele>
        <time>2012-09-30T07:21:02Z</time>
      </trkpt>
      <trkpt lat="47.66069" lon="6.75429">
        <ele>381.9144</ele>
        <time>2012-09-30T07:21:05Z</time>
      </trkpt>
      <trkpt lat="47.66071" lon="6.75412">
        <ele>381.9144</ele>
        <time>2012-09-30T07:21:06Z</time>
      </trkpt>
      <trkpt lat="47.66073" lon="6.75396">
        <ele>381.9144</ele>
        <time>2012-09-30T07:21:09Z</time>
      </trkpt>
      <trkpt lat="47.66075" lon="6.7538">
        <ele>381.3048</ele>
        <time>2012-09-30T07:21:10Z</time>
      </trkpt>
      <trkpt lat="47.66076" lon="6.75364">
        <ele>381.3048</ele>
        <time>2012-09-30T07:21:13Z</time>
      </trkpt>
      <trkpt lat="47.66077" lon="6.75349">
        <ele>381.3048</ele>
        <time>2012-09-30T07:21:14Z</time>
      </trkpt>
      <trkpt lat="47.66079" lon="6.75333">
        <ele>381.3048</ele>
        <time>2012-09-30T07:21:17Z</time>
      </trkpt>
      <trkpt lat="47.66081" lon="6.75318">
        <ele>381.3048</ele>
        <time>2012-09-30T07:21:18Z</time>
      </trkpt>
      <trkpt lat="47.66083" lon="6.75303">
        <ele>381</ele>
        <time>2012-09-30T07:21:21Z</time>
      </trkpt>
      <trkpt lat="47.66085" lon="6.75287">
        <ele>381</ele>
        <time>2012-09-30T07:21:22Z</time>
      </trkpt>
      <trkpt lat="47.66088" lon="6.75273">
        <ele>381</ele>
        <time>2012-09-30T07:21:25Z</time>
      </trkpt>
      <trkpt lat="47.6609" lon="6.75259">
        <ele>381.3048</ele>
        <time>2012-09-30T07:21:27Z</time>
      </trkpt>
      <trkpt lat="47.66093" lon="6.75245">
        <ele>381.3048</ele>
        <time>2012-09-30T07:21:28Z</time>
      </trkpt>
      <trkpt lat="47.66095" lon="6.75232">
        <ele>381.3048</ele>
        <time>2012-09-30T07:21:31Z</time>
      </trkpt>
      <trkpt lat="47.66096" lon="6.75219">
        <ele>381.3048</ele>
        <time>2012-09-30T07:21:32Z</time>
      </trkpt>
      <trkpt lat="47.66098" lon="6.75207">
        <ele>381.6096</ele>
        <time>2012-09-30T07:21:35Z</time>
      </trkpt>
      <trkpt lat="47.66099" lon="6.75194">
        <ele>381.6096</ele>
        <time>2012-09-30T07:21:36Z</time>
      </trkpt>
      <trkpt lat="47.661" lon="6.75181">
        <ele>381.6096</ele>
        <time>2012-09-30T07:21:39Z</time>
      </trkpt>
      <trkpt lat="47.66102" lon="6.75168">
        <ele>381.6096</ele>
        <time>2012-09-30T07:21:40Z</time>
      </trkpt>
      <trkpt lat="47.66104" lon="6.75155">
        <ele>381.3048</ele>
        <time>2012-09-30T07:21:43Z</time>
      </trkpt>
      <trkpt lat="47.66106" lon="6.75142">
        <ele>381.3048</ele>
        <time>2012-09-30T07:21:44Z</time>
      </trkpt>
      <trkpt lat="47.66107" lon="6.75129">
        <ele>381.3048</ele>
        <time>2012-09-30T07:21:47Z</time>
      </trkpt>
      <trkpt lat="47.66109" lon="6.75116">
        <ele>381.6096</ele>
        <time>2012-09-30T07:21:48Z</time>
      </trkpt>
      <trkpt lat="47.66111" lon="6.75103">
        <ele>381.3048</ele>
        <time>2012-09-30T07:21:51Z</time>
      </trkpt>
      <trkpt lat="47.66113" lon="6.7509">
        <ele>381.6096</ele>
        <time>2012-09-30T07:21:52Z</time>
      </trkpt>
      <trkpt lat="47.66115" lon="6.75078">
        <ele>381.6096</ele>
        <time>2012-09-30T07:21:55Z</time>
      </trkpt>
      <trkpt lat="47.66117" lon="6.75065">
        <ele>381.3048</ele>
        <time>2012-09-30T07:21:56Z</time>
      </trkpt>
      <trkpt lat="47.66119" lon="6.75052">
        <ele>381.3048</ele>
        <time>2012-09-30T07:21:59Z</time>
      </trkpt>
      <trkpt lat="47.66121" lon="6.75039">
        <ele>381.3048</ele>
        <time>2012-09-30T07:22:00Z</time>
      </trkpt>
      <trkpt lat="47.66124" lon="6.75027">
        <ele>381.3048</ele>
        <time>2012-09-30T07:22:03Z</time>
      </trkpt>
      <trkpt lat="47.66126" lon="6.75014">
        <ele>381.3048</ele>
        <time>2012-09-30T07:22:04Z</time>
      </trkpt>
      <trkpt lat="47.66136" lon="6.7497">
        <ele>381.9144</ele>
        <time>2012-09-30T07:22:12Z</time>
      </trkpt>
      <trkpt lat="47.66139" lon="6.74959">
        <ele>381.9144</ele>
        <time>2012-09-30T07:22:15Z</time>
      </trkpt>
      <trkpt lat="47.66141" lon="6.74948">
        <ele>381.9144</ele>
        <time>2012-09-30T07:22:16Z</time>
      </trkpt>
      <trkpt lat="47.66143" lon="6.74938">
        <ele>382.2192</ele>
        <time>2012-09-30T07:22:19Z</time>
      </trkpt>
      <trkpt lat="47.66144" lon="6.74929">
        <ele>382.524</ele>
        <time>2012-09-30T07:22:21Z</time>
      </trkpt>
      <trkpt lat="47.66145" lon="6.74923">
        <ele>382.8288</ele>
        <time>2012-09-30T07:22:22Z</time>
      </trkpt>
      <trkpt lat="47.66146" lon="6.74917">
        <ele>383.4384</ele>
        <time>2012-09-30T07:22:25Z</time>
      </trkpt>
      <trkpt lat="47.66147" lon="6.74911">
        <ele>384.048</ele>
        <time>2012-09-30T07:22:26Z</time>
      </trkpt>
      <trkpt lat="47.66147" lon="6.74906">
        <ele>384.6576</ele>
        <time>2012-09-30T07:22:29Z</time>
      </trkpt>
      <trkpt lat="47.66148" lon="6.74903">
        <ele>384.9624</ele>
        <time>2012-09-30T07:22:30Z</time>
      </trkpt>
      <trkpt lat="47.66152" lon="6.74903">
        <ele>385.2672</ele>
        <time>2012-09-30T07:22:33Z</time>
      </trkpt>
      <trkpt lat="47.66155" lon="6.74907">
        <ele>385.572</ele>
        <time>2012-09-30T07:22:34Z</time>
      </trkpt>
      <trkpt lat="47.6616" lon="6.74911">
        <ele>385.8768</ele>
        <time>2012-09-30T07:22:37Z</time>
      </trkpt>
      <trkpt lat="47.66165" lon="6.74914">
        <ele>386.1816</ele>
        <time>2012-09-30T07:22:38Z</time>
      </trkpt>
      <trkpt lat="47.66169" lon="6.74918">
        <ele>386.1816</ele>
        <time>2012-09-30T07:22:41Z</time>
      </trkpt>
      <trkpt lat="47.66173" lon="6.74925">
        <ele>386.1816</ele>
        <time>2012-09-30T07:22:42Z</time>
      </trkpt>
      <trkpt lat="47.66173" lon="6.74933">
        <ele>386.4864</ele>
        <time>2012-09-30T07:22:45Z</time>
      </trkpt>
      <trkpt lat="47.66172" lon="6.74942">
        <ele>386.7912</ele>
        <time>2012-09-30T07:22:46Z</time>
      </trkpt>
      <trkpt lat="47.66169" lon="6.74951">
        <ele>386.4864</ele>
        <time>2012-09-30T07:22:49Z</time>
      </trkpt>
      <trkpt lat="47.66166" lon="6.74961">
        <ele>386.1816</ele>
        <time>2012-09-30T07:22:50Z</time>
      </trkpt>
      <trkpt lat="47.66164" lon="6.74971">
        <ele>386.1816</ele>
        <time>2012-09-30T07:22:53Z</time>
      </trkpt>
      <trkpt lat="47.66161" lon="6.74983">
        <ele>385.8768</ele>
        <time>2012-09-30T07:22:54Z</time>
      </trkpt>
      <trkpt lat="47.66159" lon="6.74994">
        <ele>385.572</ele>
        <time>2012-09-30T07:22:57Z</time>
      </trkpt>
      <trkpt lat="47.66156" lon="6.75007">
        <ele>384.9624</ele>
        <time>2012-09-30T07:22:58Z</time>
      </trkpt>
      <trkpt lat="47.66152" lon="6.75021">
        <ele>384.6576</ele>
        <time>2012-09-30T07:23:01Z</time>
      </trkpt>
      <trkpt lat="47.66149" lon="6.75035">
        <ele>384.3528</ele>
        <time>2012-09-30T07:23:02Z</time>
      </trkpt>
      <trkpt lat="47.66146" lon="6.7505">
        <ele>383.7432</ele>
        <time>2012-09-30T07:23:05Z</time>
      </trkpt>
      <trkpt lat="47.66142" lon="6.75065">
        <ele>383.4384</ele>
        <time>2012-09-30T07:23:06Z</time>
      </trkpt>
      <trkpt lat="47.66139" lon="6.75081">
        <ele>382.8288</ele>
        <time>2012-09-30T07:23:09Z</time>
      </trkpt>
      <trkpt lat="47.66137" lon="6.75097">
        <ele>382.524</ele>
        <time>2012-09-30T07:23:10Z</time>
      </trkpt>
      <trkpt lat="47.66135" lon="6.75113">
        <ele>382.2192</ele>
        <time>2012-09-30T07:23:13Z</time>
      </trkpt>
      <trkpt lat="47.66133" lon="6.75129">
        <ele>381.6096</ele>
        <time>2012-09-30T07:23:15Z</time>
      </trkpt>
      <trkpt lat="47.66131" lon="6.75146">
        <ele>381.3048</ele>
        <time>2012-09-30T07:23:16Z</time>
      </trkpt>
      <trkpt lat="47.66129" lon="6.75164">
        <ele>380.6952</ele>
        <time>2012-09-30T07:23:19Z</time>
      </trkpt>
      <trkpt lat="47.66126" lon="6.75182">
        <ele>380.3904</ele>
        <time>2012-09-30T07:23:20Z</time>
      </trkpt>
      <trkpt lat="47.66124" lon="6.752">
        <ele>379.7808</ele>
        <time>2012-09-30T07:23:23Z</time>
      </trkpt>
      <trkpt lat="47.66121" lon="6.75218">
        <ele>379.476</ele>
        <time>2012-09-30T07:23:24Z</time>
      </trkpt>
      <trkpt lat="47.66118" lon="6.75236">
        <ele>378.5616</ele>
        <time>2012-09-30T07:23:27Z</time>
      </trkpt>
      <trkpt lat="47.66116" lon="6.75257">
        <ele>377.6472</ele>
        <time>2012-09-30T07:23:28Z</time>
      </trkpt>
      <trkpt lat="47.66116" lon="6.75278">
        <ele>376.428</ele>
        <time>2012-09-30T07:23:31Z</time>
      </trkpt>
      <trkpt lat="47.66116" lon="6.75301">
        <ele>375.5136</ele>
        <time>2012-09-30T07:23:32Z</time>
      </trkpt>
      <trkpt lat="47.66115" lon="6.75324">
        <ele>374.2944</ele>
        <time>2012-09-30T07:23:35Z</time>
      </trkpt>
      <trkpt lat="47.66112" lon="6.75348">
        <ele>373.0752</ele>
        <time>2012-09-30T07:23:36Z</time>
      </trkpt>
      <trkpt lat="47.66109" lon="6.75371">
        <ele>371.856</ele>
        <time>2012-09-30T07:23:39Z</time>
      </trkpt>
      <trkpt lat="47.66108" lon="6.7539">
        <ele>370.9416</ele>
        <time>2012-09-30T07:23:40Z</time>
      </trkpt>
      <trkpt lat="47.66111" lon="6.75406">
        <ele>370.0272</ele>
        <time>2012-09-30T07:23:43Z</time>
      </trkpt>
      <trkpt lat="47.6612" lon="6.75419">
        <ele>369.4176</ele>
        <time>2012-09-30T07:23:44Z</time>
      </trkpt>
      <trkpt lat="47.66129" lon="6.75432">
        <ele>369.4176</ele>
        <time>2012-09-30T07:23:47Z</time>
      </trkpt>
      <trkpt lat="47.66134" lon="6.75447">
        <ele>369.4176</ele>
        <time>2012-09-30T07:23:48Z</time>
      </trkpt>
      <trkpt lat="47.66139" lon="6.75463">
        <ele>370.0272</ele>
        <time>2012-09-30T07:23:51Z</time>
      </trkpt>
      <trkpt lat="47.66142" lon="6.75476">
        <ele>371.5512</ele>
        <time>2012-09-30T07:23:52Z</time>
      </trkpt>
      <trkpt lat="47.66143" lon="6.75489">
        <ele>372.4656</ele>
        <time>2012-09-30T07:23:55Z</time>
      </trkpt>
      <trkpt lat="47.66143" lon="6.75501">
        <ele>373.6848</ele>
        <time>2012-09-30T07:23:56Z</time>
      </trkpt>
      <trkpt lat="47.66144" lon="6.75513">
        <ele>373.9896</ele>
        <time>2012-09-30T07:23:59Z</time>
      </trkpt>
      <trkpt lat="47.66147" lon="6.75524">
        <ele>375.5136</ele>
        <time>2012-09-30T07:24:00Z</time>
      </trkpt>
      <trkpt lat="47.66149" lon="6.75534">
        <ele>376.428</ele>
        <time>2012-09-30T07:24:03Z</time>
      </trkpt>
      <trkpt lat="47.6615" lon="6.75546">
        <ele>376.428</ele>
        <time>2012-09-30T07:24:04Z</time>
      </trkpt>
      <trkpt lat="47.66152" lon="6.75557">
        <ele>377.0376</ele>
        <time>2012-09-30T07:24:07Z</time>
      </trkpt>
      <trkpt lat="47.66154" lon="6.75569">
        <ele>377.952</ele>
        <time>2012-09-30T07:24:09Z</time>
      </trkpt>
      <trkpt lat="47.66157" lon="6.75581">
        <ele>377.6472</ele>
        <time>2012-09-30T07:24:10Z</time>
      </trkpt>
      <trkpt lat="47.66161" lon="6.75594">
        <ele>377.6472</ele>
        <time>2012-09-30T07:24:13Z</time>
      </trkpt>
      <trkpt lat="47.66164" lon="6.75608">
        <ele>377.952</ele>
        <time>2012-09-30T07:24:14Z</time>
      </trkpt>
      <trkpt lat="47.66164" lon="6.75622">
        <ele>378.2568</ele>
        <time>2012-09-30T07:24:17Z</time>
      </trkpt>
      <trkpt lat="47.66164" lon="6.75636">
        <ele>378.5616</ele>
        <time>2012-09-30T07:24:18Z</time>
      </trkpt>
      <trkpt lat="47.66164" lon="6.7565">
        <ele>378.8664</ele>
        <time>2012-09-30T07:24:21Z</time>
      </trkpt>
      <trkpt lat="47.66163" lon="6.75663">
        <ele>379.1712</ele>
        <time>2012-09-30T07:24:22Z</time>
      </trkpt>
      <trkpt lat="47.66162" lon="6.75677">
        <ele>379.476</ele>
        <time>2012-09-30T07:24:25Z</time>
      </trkpt>
      <trkpt lat="47.66161" lon="6.75691">
        <ele>380.3904</ele>
        <time>2012-09-30T07:24:26Z</time>
      </trkpt>
      <trkpt lat="47.66162" lon="6.75705">
        <ele>380.3904</ele>
        <time>2012-09-30T07:24:29Z</time>
      </trkpt>
      <trkpt lat="47.66161" lon="6.75719">
        <ele>380.3904</ele>
        <time>2012-09-30T07:24:30Z</time>
      </trkpt>
      <trkpt lat="47.6616" lon="6.75732">
        <ele>380.3904</ele>
        <time>2012-09-30T07:24:33Z</time>
      </trkpt>
      <trkpt lat="47.6616" lon="6.75745">
        <ele>380.6952</ele>
        <time>2012-09-30T07:24:34Z</time>
      </trkpt>
      <trkpt lat="47.66159" lon="6.75758">
        <ele>381</ele>
        <time>2012-09-30T07:24:37Z</time>
      </trkpt>
      <trkpt lat="47.66158" lon="6.7577">
        <ele>381.3048</ele>
        <time>2012-09-30T07:24:38Z</time>
      </trkpt>
      <trkpt lat="47.66158" lon="6.75782">
        <ele>381.6096</ele>
        <time>2012-09-30T07:24:41Z</time>
      </trkpt>
      <trkpt lat="47.66158" lon="6.75794">
        <ele>381.6096</ele>
        <time>2012-09-30T07:24:42Z</time>
      </trkpt>
      <trkpt lat="47.66157" lon="6.75805">
        <ele>381.9144</ele>
        <time>2012-09-30T07:24:45Z</time>
      </trkpt>
      <trkpt lat="47.66157" lon="6.75815">
        <ele>382.2192</ele>
        <time>2012-09-30T07:24:46Z</time>
      </trkpt>
      <trkpt lat="47.66157" lon="6.75825">
        <ele>382.524</ele>
        <time>2012-09-30T07:24:49Z</time>
      </trkpt>
      <trkpt lat="47.66158" lon="6.75834">
        <ele>382.8288</ele>
        <time>2012-09-30T07:24:50Z</time>
      </trkpt>
      <trkpt lat="47.66161" lon="6.75843">
        <ele>383.1336</ele>
        <time>2012-09-30T07:24:53Z</time>
      </trkpt>
      <trkpt lat="47.66165" lon="6.75849">
        <ele>383.4384</ele>
        <time>2012-09-30T07:24:54Z</time>
      </trkpt>
      <trkpt lat="47.6617" lon="6.75855">
        <ele>383.7432</ele>
        <time>2012-09-30T07:24:57Z</time>
      </trkpt>
      <trkpt lat="47.66177" lon="6.75858">
        <ele>384.048</ele>
        <time>2012-09-30T07:24:58Z</time>
      </trkpt>
      <trkpt lat="47.66185" lon="6.7586">
        <ele>384.048</ele>
        <time>2012-09-30T07:25:01Z</time>
      </trkpt>
      <trkpt lat="47.66192" lon="6.75861">
        <ele>384.3528</ele>
        <time>2012-09-30T07:25:02Z</time>
      </trkpt>
      <trkpt lat="47.662" lon="6.75863">
        <ele>385.2672</ele>
        <time>2012-09-30T07:25:04Z</time>
      </trkpt>
      <trkpt lat="47.66208" lon="6.75864">
        <ele>385.572</ele>
        <time>2012-09-30T07:25:07Z</time>
      </trkpt>
      <trkpt lat="47.66216" lon="6.75866">
        <ele>386.1816</ele>
        <time>2012-09-30T07:25:08Z</time>
      </trkpt>
      <trkpt lat="47.66223" lon="6.75868">
        <ele>386.4864</ele>
        <time>2012-09-30T07:25:11Z</time>
      </trkpt>
      <trkpt lat="47.66231" lon="6.7587">
        <ele>386.4864</ele>
        <time>2012-09-30T07:25:12Z</time>
      </trkpt>
      <trkpt lat="47.66239" lon="6.75871">
        <ele>387.096</ele>
        <time>2012-09-30T07:25:15Z</time>
      </trkpt>
      <trkpt lat="47.66247" lon="6.75872">
        <ele>387.4008</ele>
        <time>2012-09-30T07:25:16Z</time>
      </trkpt>
      <trkpt lat="47.66254" lon="6.75873">
        <ele>388.0104</ele>
        <time>2012-09-30T07:25:19Z</time>
      </trkpt>
      <trkpt lat="47.66261" lon="6.75875">
        <ele>388.9248</ele>
        <time>2012-09-30T07:25:20Z</time>
      </trkpt>
      <trkpt lat="47.66267" lon="6.75877">
        <ele>389.2296</ele>
        <time>2012-09-30T07:25:23Z</time>
      </trkpt>
      <trkpt lat="47.66274" lon="6.75879">
        <ele>389.8392</ele>
        <time>2012-09-30T07:25:24Z</time>
      </trkpt>
      <trkpt lat="47.6628" lon="6.75881">
        <ele>390.4488</ele>
        <time>2012-09-30T07:25:27Z</time>
      </trkpt>
      <trkpt lat="47.66285" lon="6.75884">
        <ele>391.0584</ele>
        <time>2012-09-30T07:25:28Z</time>
      </trkpt>
      <trkpt lat="47.6629" lon="6.75887">
        <ele>391.3632</ele>
        <time>2012-09-30T07:25:31Z</time>
      </trkpt>
      <trkpt lat="47.66295" lon="6.7589">
        <ele>391.9728</ele>
        <time>2012-09-30T07:25:32Z</time>
      </trkpt>
      <trkpt lat="47.663" lon="6.75894">
        <ele>392.5824</ele>
        <time>2012-09-30T07:25:35Z</time>
      </trkpt>
      <trkpt lat="47.66304" lon="6.75898">
        <ele>392.8872</ele>
        <time>2012-09-30T07:25:36Z</time>
      </trkpt>
      <trkpt lat="47.66308" lon="6.75903">
        <ele>393.4968</ele>
        <time>2012-09-30T07:25:39Z</time>
      </trkpt>
      <trkpt lat="47.66312" lon="6.75908">
        <ele>393.8016</ele>
        <time>2012-09-30T07:25:40Z</time>
      </trkpt>
      <trkpt lat="47.66315" lon="6.75913">
        <ele>394.4112</ele>
        <time>2012-09-30T07:25:43Z</time>
      </trkpt>
      <trkpt lat="47.66318" lon="6.7592">
        <ele>394.716</ele>
        <time>2012-09-30T07:25:44Z</time>
      </trkpt>
      <trkpt lat="47.66321" lon="6.75926">
        <ele>395.0208</ele>
        <time>2012-09-30T07:25:47Z</time>
      </trkpt>
      <trkpt lat="47.66323" lon="6.75933">
        <ele>395.6304</ele>
        <time>2012-09-30T07:25:48Z</time>
      </trkpt>
      <trkpt lat="47.66325" lon="6.7594">
        <ele>395.9352</ele>
        <time>2012-09-30T07:25:51Z</time>
      </trkpt>
      <trkpt lat="47.66326" lon="6.75947">
        <ele>396.24</ele>
        <time>2012-09-30T07:25:52Z</time>
      </trkpt>
      <trkpt lat="47.66327" lon="6.75954">
        <ele>396.5448</ele>
        <time>2012-09-30T07:25:55Z</time>
      </trkpt>
      <trkpt lat="47.66328" lon="6.75962">
        <ele>396.8496</ele>
        <time>2012-09-30T07:25:56Z</time>
      </trkpt>
      <trkpt lat="47.66329" lon="6.75969">
        <ele>397.1544</ele>
        <time>2012-09-30T07:25:58Z</time>
      </trkpt>
      <trkpt lat="47.6633" lon="6.75977">
        <ele>397.4592</ele>
        <time>2012-09-30T07:26:01Z</time>
      </trkpt>
      <trkpt lat="47.66331" lon="6.75985">
        <ele>397.764</ele>
        <time>2012-09-30T07:26:02Z</time>
      </trkpt>
      <trkpt lat="47.66332" lon="6.75993">
        <ele>397.764</ele>
        <time>2012-09-30T07:26:05Z</time>
      </trkpt>
      <trkpt lat="47.66333" lon="6.76">
        <ele>398.0688</ele>
        <time>2012-09-30T07:26:06Z</time>
      </trkpt>
      <trkpt lat="47.66335" lon="6.76008">
        <ele>398.3736</ele>
        <time>2012-09-30T07:26:09Z</time>
      </trkpt>
      <trkpt lat="47.66336" lon="6.76015">
        <ele>398.6784</ele>
        <time>2012-09-30T07:26:10Z</time>
      </trkpt>
      <trkpt lat="47.66337" lon="6.76023">
        <ele>398.9832</ele>
        <time>2012-09-30T07:26:13Z</time>
      </trkpt>
      <trkpt lat="47.66338" lon="6.7603">
        <ele>399.288</ele>
        <time>2012-09-30T07:26:14Z</time>
      </trkpt>
      <trkpt lat="47.66339" lon="6.76037">
        <ele>399.8976</ele>
        <time>2012-09-30T07:26:17Z</time>
      </trkpt>
      <trkpt lat="47.6634" lon="6.76045">
        <ele>400.2024</ele>
        <time>2012-09-30T07:26:18Z</time>
      </trkpt>
      <trkpt lat="47.66341" lon="6.76052">
        <ele>400.5072</ele>
        <time>2012-09-30T07:26:21Z</time>
      </trkpt>
      <trkpt lat="47.66342" lon="6.76059">
        <ele>400.812</ele>
        <time>2012-09-30T07:26:22Z</time>
      </trkpt>
      <trkpt lat="47.66343" lon="6.76066">
        <ele>401.4216</ele>
        <time>2012-09-30T07:26:25Z</time>
      </trkpt>
      <trkpt lat="47.66344" lon="6.76074">
        <ele>401.7264</ele>
        <time>2012-09-30T07:26:26Z</time>
      </trkpt>
      <trkpt lat="47.66345" lon="6.76081">
        <ele>402.0312</ele>
        <time>2012-09-30T07:26:29Z</time>
      </trkpt>
      <trkpt lat="47.66346" lon="6.76088">
        <ele>402.6408</ele>
        <time>2012-09-30T07:26:30Z</time>
      </trkpt>
      <trkpt lat="47.66348" lon="6.76095">
        <ele>402.9456</ele>
        <time>2012-09-30T07:26:33Z</time>
      </trkpt>
      <trkpt lat="47.66349" lon="6.76102">
        <ele>403.2504</ele>
        <time>2012-09-30T07:26:34Z</time>
      </trkpt>
      <trkpt lat="47.6635" lon="6.7611">
        <ele>403.5552</ele>
        <time>2012-09-30T07:26:37Z</time>
      </trkpt>
      <trkpt lat="47.66351" lon="6.76117">
        <ele>403.86</ele>
        <time>2012-09-30T07:26:38Z</time>
      </trkpt>
      <trkpt lat="47.66352" lon="6.76125">
        <ele>403.86</ele>
        <time>2012-09-30T07:26:41Z</time>
      </trkpt>
      <trkpt lat="47.66354" lon="6.76133">
        <ele>403.86</ele>
        <time>2012-09-30T07:26:42Z</time>
      </trkpt>
      <trkpt lat="47.66356" lon="6.76141">
        <ele>404.1648</ele>
        <time>2012-09-30T07:26:45Z</time>
      </trkpt>
      <trkpt lat="47.66357" lon="6.76149">
        <ele>404.7744</ele>
        <time>2012-09-30T07:26:46Z</time>
      </trkpt>
      <trkpt lat="47.6636" lon="6.76156">
        <ele>405.0792</ele>
        <time>2012-09-30T07:26:49Z</time>
      </trkpt>
      <trkpt lat="47.66363" lon="6.76163">
        <ele>405.384</ele>
        <time>2012-09-30T07:26:50Z</time>
      </trkpt>
      <trkpt lat="47.66367" lon="6.76169">
        <ele>405.9936</ele>
        <time>2012-09-30T07:26:52Z</time>
      </trkpt>
      <trkpt lat="47.66371" lon="6.76175">
        <ele>406.6032</ele>
        <time>2012-09-30T07:26:55Z</time>
      </trkpt>
      <trkpt lat="47.66377" lon="6.76181">
        <ele>406.908</ele>
        <time>2012-09-30T07:26:56Z</time>
      </trkpt>
      <trkpt lat="47.66382" lon="6.76186">
        <ele>406.908</ele>
        <time>2012-09-30T07:26:59Z</time>
      </trkpt>
      <trkpt lat="47.66389" lon="6.7619">
        <ele>406.908</ele>
        <time>2012-09-30T07:27:00Z</time>
      </trkpt>
      <trkpt lat="47.66396" lon="6.76193">
        <ele>406.908</ele>
        <time>2012-09-30T07:27:03Z</time>
      </trkpt>
      <trkpt lat="47.66403" lon="6.76196">
        <ele>406.908</ele>
        <time>2012-09-30T07:27:04Z</time>
      </trkpt>
      <trkpt lat="47.6641" lon="6.76198">
        <ele>406.908</ele>
        <time>2012-09-30T07:27:07Z</time>
      </trkpt>
      <trkpt lat="47.66417" lon="6.76198">
        <ele>407.2128</ele>
        <time>2012-09-30T07:27:08Z</time>
      </trkpt>
      <trkpt lat="47.66424" lon="6.76198">
        <ele>407.2128</ele>
        <time>2012-09-30T07:27:11Z</time>
      </trkpt>
      <trkpt lat="47.66431" lon="6.76198">
        <ele>407.5176</ele>
        <time>2012-09-30T07:27:12Z</time>
      </trkpt>
      <trkpt lat="47.66438" lon="6.76198">
        <ele>408.1272</ele>
        <time>2012-09-30T07:27:15Z</time>
      </trkpt>
      <trkpt lat="47.66445" lon="6.76198">
        <ele>408.432</ele>
        <time>2012-09-30T07:27:16Z</time>
      </trkpt>
      <trkpt lat="47.66451" lon="6.76198">
        <ele>408.7368</ele>
        <time>2012-09-30T07:27:19Z</time>
      </trkpt>
      <trkpt lat="47.66457" lon="6.76199">
        <ele>409.3464</ele>
        <time>2012-09-30T07:27:20Z</time>
      </trkpt>
      <trkpt lat="47.66463" lon="6.762">
        <ele>409.956</ele>
        <time>2012-09-30T07:27:23Z</time>
      </trkpt>
      <trkpt lat="47.66468" lon="6.76202">
        <ele>410.2608</ele>
        <time>2012-09-30T07:27:24Z</time>
      </trkpt>
      <trkpt lat="47.66474" lon="6.76204">
        <ele>410.8704</ele>
        <time>2012-09-30T07:27:27Z</time>
      </trkpt>
      <trkpt lat="47.66478" lon="6.76207">
        <ele>411.48</ele>
        <time>2012-09-30T07:27:28Z</time>
      </trkpt>
      <trkpt lat="47.66483" lon="6.76211">
        <ele>411.48</ele>
        <time>2012-09-30T07:27:31Z</time>
      </trkpt>
      <trkpt lat="47.66487" lon="6.76214">
        <ele>412.0896</ele>
        <time>2012-09-30T07:27:32Z</time>
      </trkpt>
      <trkpt lat="47.66492" lon="6.76218">
        <ele>412.3944</ele>
        <time>2012-09-30T07:27:35Z</time>
      </trkpt>
      <trkpt lat="47.66497" lon="6.76222">
        <ele>413.004</ele>
        <time>2012-09-30T07:27:36Z</time>
      </trkpt>
      <trkpt lat="47.66502" lon="6.76226">
        <ele>413.6136</ele>
        <time>2012-09-30T07:27:39Z</time>
      </trkpt>
      <trkpt lat="47.66507" lon="6.76231">
        <ele>414.2232</ele>
        <time>2012-09-30T07:27:40Z</time>
      </trkpt>
      <trkpt lat="47.66511" lon="6.76235">
        <ele>414.528</ele>
        <time>2012-09-30T07:27:43Z</time>
      </trkpt>
      <trkpt lat="47.66516" lon="6.76241">
        <ele>415.1376</ele>
        <time>2012-09-30T07:27:44Z</time>
      </trkpt>
      <trkpt lat="47.66521" lon="6.76246">
        <ele>415.4424</ele>
        <time>2012-09-30T07:27:46Z</time>
      </trkpt>
      <trkpt lat="47.66526" lon="6.76251">
        <ele>416.052</ele>
        <time>2012-09-30T07:27:49Z</time>
      </trkpt>
      <trkpt lat="47.6653" lon="6.76256">
        <ele>416.3568</ele>
        <time>2012-09-30T07:27:50Z</time>
      </trkpt>
      <trkpt lat="47.66535" lon="6.76261">
        <ele>416.6616</ele>
        <time>2012-09-30T07:27:53Z</time>
      </trkpt>
      <trkpt lat="47.6654" lon="6.76265">
        <ele>416.9664</ele>
        <time>2012-09-30T07:27:54Z</time>
      </trkpt>
      <trkpt lat="47.66545" lon="6.7627">
        <ele>416.9664</ele>
        <time>2012-09-30T07:27:57Z</time>
      </trkpt>
      <trkpt lat="47.66551" lon="6.76275">
        <ele>417.576</ele>
        <time>2012-09-30T07:27:58Z</time>
      </trkpt>
      <trkpt lat="47.66558" lon="6.76281">
        <ele>417.8808</ele>
        <time>2012-09-30T07:28:01Z</time>
      </trkpt>
      <trkpt lat="47.66566" lon="6.76287">
        <ele>418.1856</ele>
        <time>2012-09-30T07:28:02Z</time>
      </trkpt>
      <trkpt lat="47.66574" lon="6.76295">
        <ele>418.1856</ele>
        <time>2012-09-30T07:28:05Z</time>
      </trkpt>
      <trkpt lat="47.66582" lon="6.76304">
        <ele>418.4904</ele>
        <time>2012-09-30T07:28:06Z</time>
      </trkpt>
      <trkpt lat="47.6659" lon="6.76314">
        <ele>417.8808</ele>
        <time>2012-09-30T07:28:09Z</time>
      </trkpt>
      <trkpt lat="47.66598" lon="6.76324">
        <ele>417.576</ele>
        <time>2012-09-30T07:28:10Z</time>
      </trkpt>
      <trkpt lat="47.66606" lon="6.76334">
        <ele>417.2712</ele>
        <time>2012-09-30T07:28:13Z</time>
      </trkpt>
      <trkpt lat="47.66615" lon="6.76343">
        <ele>416.9664</ele>
        <time>2012-09-30T07:28:14Z</time>
      </trkpt>
      <trkpt lat="47.66622" lon="6.76352">
        <ele>416.9664</ele>
        <time>2012-09-30T07:28:17Z</time>
      </trkpt>
      <trkpt lat="47.6663" lon="6.76361">
        <ele>416.9664</ele>
        <time>2012-09-30T07:28:18Z</time>
      </trkpt>
      <trkpt lat="47.66638" lon="6.7637">
        <ele>416.9664</ele>
        <time>2012-09-30T07:28:21Z</time>
      </trkpt>
      <trkpt lat="47.66643" lon="6.76382">
        <ele>416.9664</ele>
        <time>2012-09-30T07:28:22Z</time>
      </trkpt>
      <trkpt lat="47.66647" lon="6.76394">
        <ele>416.9664</ele>
        <time>2012-09-30T07:28:25Z</time>
      </trkpt>
      <trkpt lat="47.6665" lon="6.76408">
        <ele>416.9664</ele>
        <time>2012-09-30T07:28:26Z</time>
      </trkpt>
      <trkpt lat="47.66653" lon="6.76421">
        <ele>417.2712</ele>
        <time>2012-09-30T07:28:29Z</time>
      </trkpt>
      <trkpt lat="47.66656" lon="6.76433">
        <ele>417.576</ele>
        <time>2012-09-30T07:28:30Z</time>
      </trkpt>
      <trkpt lat="47.66658" lon="6.76445">
        <ele>417.8808</ele>
        <time>2012-09-30T07:28:33Z</time>
      </trkpt>
      <trkpt lat="47.66661" lon="6.76456">
        <ele>418.4904</ele>
        <time>2012-09-30T07:28:34Z</time>
      </trkpt>
      <trkpt lat="47.66665" lon="6.76468">
        <ele>418.4904</ele>
        <time>2012-09-30T07:28:37Z</time>
      </trkpt>
      <trkpt lat="47.66668" lon="6.76478">
        <ele>418.1856</ele>
        <time>2012-09-30T07:28:39Z</time>
      </trkpt>
      <trkpt lat="47.66671" lon="6.76489">
        <ele>418.7952</ele>
        <time>2012-09-30T07:28:40Z</time>
      </trkpt>
      <trkpt lat="47.66674" lon="6.765">
        <ele>419.4048</ele>
        <time>2012-09-30T07:28:43Z</time>
      </trkpt>
      <trkpt lat="47.66677" lon="6.76511">
        <ele>419.4048</ele>
        <time>2012-09-30T07:28:44Z</time>
      </trkpt>
      <trkpt lat="47.66679" lon="6.76522">
        <ele>419.4048</ele>
        <time>2012-09-30T07:28:47Z</time>
      </trkpt>
      <trkpt lat="47.66682" lon="6.76534">
        <ele>419.7096</ele>
        <time>2012-09-30T07:28:48Z</time>
      </trkpt>
      <trkpt lat="47.66684" lon="6.76545">
        <ele>420.0144</ele>
        <time>2012-09-30T07:28:51Z</time>
      </trkpt>
      <trkpt lat="47.66685" lon="6.76556">
        <ele>420.3192</ele>
        <time>2012-09-30T07:28:52Z</time>
      </trkpt>
      <trkpt lat="47.66687" lon="6.76566">
        <ele>420.624</ele>
        <time>2012-09-30T07:28:55Z</time>
      </trkpt>
      <trkpt lat="47.66688" lon="6.76576">
        <ele>420.9288</ele>
        <time>2012-09-30T07:28:56Z</time>
      </trkpt>
      <trkpt lat="47.66688" lon="6.76586">
        <ele>421.5384</ele>
        <time>2012-09-30T07:28:59Z</time>
      </trkpt>
      <trkpt lat="47.66689" lon="6.76595">
        <ele>422.7576</ele>
        <time>2012-09-30T07:29:00Z</time>
      </trkpt>
      <trkpt lat="47.66691" lon="6.76605">
        <ele>423.9768</ele>
        <time>2012-09-30T07:29:03Z</time>
      </trkpt>
      <trkpt lat="47.66693" lon="6.76614">
        <ele>424.5864</ele>
        <time>2012-09-30T07:29:04Z</time>
      </trkpt>
      <trkpt lat="47.66694" lon="6.76624">
        <ele>425.5008</ele>
        <time>2012-09-30T07:29:07Z</time>
      </trkpt>
      <trkpt lat="47.66697" lon="6.76633">
        <ele>426.72</ele>
        <time>2012-09-30T07:29:08Z</time>
      </trkpt>
      <trkpt lat="47.66699" lon="6.76642">
        <ele>427.0248</ele>
        <time>2012-09-30T07:29:11Z</time>
      </trkpt>
      <trkpt lat="47.66701" lon="6.76652">
        <ele>426.4152</ele>
        <time>2012-09-30T07:29:12Z</time>
      </trkpt>
      <trkpt lat="47.66703" lon="6.76663">
        <ele>425.8056</ele>
        <time>2012-09-30T07:29:15Z</time>
      </trkpt>
      <trkpt lat="47.66706" lon="6.76673">
        <ele>425.5008</ele>
        <time>2012-09-30T07:29:16Z</time>
      </trkpt>
      <trkpt lat="47.66709" lon="6.76683">
        <ele>425.8056</ele>
        <time>2012-09-30T07:29:19Z</time>
      </trkpt>
      <trkpt lat="47.66714" lon="6.76687">
        <ele>426.1104</ele>
        <time>2012-09-30T07:29:20Z</time>
      </trkpt>
      <trkpt lat="47.66718" lon="6.76682">
        <ele>425.8056</ele>
        <time>2012-09-30T07:29:23Z</time>
      </trkpt>
      <trkpt lat="47.66719" lon="6.76672">
        <ele>425.5008</ele>
        <time>2012-09-30T07:29:24Z</time>
      </trkpt>
      <trkpt lat="47.66721" lon="6.76661">
        <ele>425.196</ele>
        <time>2012-09-30T07:29:27Z</time>
      </trkpt>
      <trkpt lat="47.66724" lon="6.76648">
        <ele>424.5864</ele>
        <time>2012-09-30T07:29:28Z</time>
      </trkpt>
      <trkpt lat="47.66728" lon="6.76634">
        <ele>423.672</ele>
        <time>2012-09-30T07:29:31Z</time>
      </trkpt>
      <trkpt lat="47.66732" lon="6.76619">
        <ele>423.3672</ele>
        <time>2012-09-30T07:29:33Z</time>
      </trkpt>
      <trkpt lat="47.66738" lon="6.76605">
        <ele>423.3672</ele>
        <time>2012-09-30T07:29:34Z</time>
      </trkpt>
      <trkpt lat="47.66745" lon="6.76591">
        <ele>423.0624</ele>
        <time>2012-09-30T07:29:37Z</time>
      </trkpt>
      <trkpt lat="47.66751" lon="6.76578">
        <ele>422.7576</ele>
        <time>2012-09-30T07:29:38Z</time>
      </trkpt>
      <trkpt lat="47.66759" lon="6.76566">
        <ele>422.7576</ele>
        <time>2012-09-30T07:29:41Z</time>
      </trkpt>
      <trkpt lat="47.66767" lon="6.76555">
        <ele>422.7576</ele>
        <time>2012-09-30T07:29:42Z</time>
      </trkpt>
      <trkpt lat="47.66775" lon="6.76546">
        <ele>422.4528</ele>
        <time>2012-09-30T07:29:45Z</time>
      </trkpt>
      <trkpt lat="47.66783" lon="6.76537">
        <ele>422.148</ele>
        <time>2012-09-30T07:29:46Z</time>
      </trkpt>
      <trkpt lat="47.66793" lon="6.76531">
        <ele>422.4528</ele>
        <time>2012-09-30T07:29:49Z</time>
      </trkpt>
      <trkpt lat="47.66803" lon="6.76528">
        <ele>422.4528</ele>
        <time>2012-09-30T07:29:50Z</time>
      </trkpt>
      <trkpt lat="47.66813" lon="6.7653">
        <ele>422.4528</ele>
        <time>2012-09-30T07:29:53Z</time>
      </trkpt>
      <trkpt lat="47.66822" lon="6.76532">
        <ele>422.7576</ele>
        <time>2012-09-30T07:29:54Z</time>
      </trkpt>
      <trkpt lat="47.66832" lon="6.76532">
        <ele>422.7576</ele>
        <time>2012-09-30T07:29:57Z</time>
      </trkpt>
      <trkpt lat="47.66842" lon="6.76532">
        <ele>422.148</ele>
        <time>2012-09-30T07:29:58Z</time>
      </trkpt>
      <trkpt lat="47.66851" lon="6.76532">
        <ele>421.8432</ele>
        <time>2012-09-30T07:30:01Z</time>
      </trkpt>
      <trkpt lat="47.66861" lon="6.76533">
        <ele>421.5384</ele>
        <time>2012-09-30T07:30:02Z</time>
      </trkpt>
      <trkpt lat="47.6687" lon="6.76526">
        <ele>421.5384</ele>
        <time>2012-09-30T07:30:05Z</time>
      </trkpt>
      <trkpt lat="47.66875" lon="6.76514">
        <ele>422.148</ele>
        <time>2012-09-30T07:30:06Z</time>
      </trkpt>
      <trkpt lat="47.66877" lon="6.76502">
        <ele>422.7576</ele>
        <time>2012-09-30T07:30:09Z</time>
      </trkpt>
      <trkpt lat="47.66877" lon="6.76491">
        <ele>423.0624</ele>
        <time>2012-09-30T07:30:10Z</time>
      </trkpt>
      <trkpt lat="47.66878" lon="6.76479">
        <ele>423.0624</ele>
        <time>2012-09-30T07:30:13Z</time>
      </trkpt>
      <trkpt lat="47.66879" lon="6.76467">
        <ele>423.3672</ele>
        <time>2012-09-30T07:30:14Z</time>
      </trkpt>
      <trkpt lat="47.6688" lon="6.76456">
        <ele>423.672</ele>
        <time>2012-09-30T07:30:17Z</time>
      </trkpt>
      <trkpt lat="47.66881" lon="6.76445">
        <ele>424.2816</ele>
        <time>2012-09-30T07:30:18Z</time>
      </trkpt>
      <trkpt lat="47.66882" lon="6.76435">
        <ele>424.2816</ele>
        <time>2012-09-30T07:30:21Z</time>
      </trkpt>
      <trkpt lat="47.66882" lon="6.76424">
        <ele>424.5864</ele>
        <time>2012-09-30T07:30:22Z</time>
      </trkpt>
      <trkpt lat="47.6688" lon="6.76413">
        <ele>424.2816</ele>
        <time>2012-09-30T07:30:25Z</time>
      </trkpt>
      <trkpt lat="47.66879" lon="6.764">
        <ele>423.672</ele>
        <time>2012-09-30T07:30:27Z</time>
      </trkpt>
      <trkpt lat="47.66877" lon="6.76385">
        <ele>422.4528</ele>
        <time>2012-09-30T07:30:28Z</time>
      </trkpt>
      <trkpt lat="47.66875" lon="6.76369">
        <ele>421.8432</ele>
        <time>2012-09-30T07:30:31Z</time>
      </trkpt>
      <trkpt lat="47.66874" lon="6.76352">
        <ele>420.3192</ele>
        <time>2012-09-30T07:30:32Z</time>
      </trkpt>
      <trkpt lat="47.66874" lon="6.76333">
        <ele>419.7096</ele>
        <time>2012-09-30T07:30:35Z</time>
      </trkpt>
      <trkpt lat="47.66875" lon="6.76313">
        <ele>419.4048</ele>
        <time>2012-09-30T07:30:36Z</time>
      </trkpt>
      <trkpt lat="47.66877" lon="6.76294">
        <ele>419.1</ele>
        <time>2012-09-30T07:30:39Z</time>
      </trkpt>
      <trkpt lat="47.66881" lon="6.76276">
        <ele>418.4904</ele>
        <time>2012-09-30T07:30:40Z</time>
      </trkpt>
      <trkpt lat="47.66886" lon="6.76259">
        <ele>418.4904</ele>
        <time>2012-09-30T07:30:43Z</time>
      </trkpt>
      <trkpt lat="47.66892" lon="6.76243">
        <ele>418.4904</ele>
        <time>2012-09-30T07:30:44Z</time>
      </trkpt>
      <trkpt lat="47.66898" lon="6.76228">
        <ele>418.7952</ele>
        <time>2012-09-30T07:30:47Z</time>
      </trkpt>
      <trkpt lat="47.66903" lon="6.76214">
        <ele>419.1</ele>
        <time>2012-09-30T07:30:48Z</time>
      </trkpt>
      <trkpt lat="47.66907" lon="6.76199">
        <ele>419.4048</ele>
        <time>2012-09-30T07:30:51Z</time>
      </trkpt>
      <trkpt lat="47.6691" lon="6.76184">
        <ele>419.4048</ele>
        <time>2012-09-30T07:30:52Z</time>
      </trkpt>
      <trkpt lat="47.66914" lon="6.7617">
        <ele>420.0144</ele>
        <time>2012-09-30T07:30:55Z</time>
      </trkpt>
      <trkpt lat="47.66916" lon="6.76156">
        <ele>420.3192</ele>
        <time>2012-09-30T07:30:56Z</time>
      </trkpt>
      <trkpt lat="47.66918" lon="6.76143">
        <ele>420.3192</ele>
        <time>2012-09-30T07:30:59Z</time>
      </trkpt>
      <trkpt lat="47.66921" lon="6.7613">
        <ele>420.624</ele>
        <time>2012-09-30T07:31:00Z</time>
      </trkpt>
      <trkpt lat="47.66923" lon="6.76117">
        <ele>420.9288</ele>
        <time>2012-09-30T07:31:03Z</time>
      </trkpt>
      <trkpt lat="47.66925" lon="6.76105">
        <ele>421.5384</ele>
        <time>2012-09-30T07:31:04Z</time>
      </trkpt>
      <trkpt lat="47.66926" lon="6.76093">
        <ele>422.4528</ele>
        <time>2012-09-30T07:31:07Z</time>
      </trkpt>
      <trkpt lat="47.66926" lon="6.76081">
        <ele>423.0624</ele>
        <time>2012-09-30T07:31:08Z</time>
      </trkpt>
      <trkpt lat="47.66927" lon="6.76068">
        <ele>423.672</ele>
        <time>2012-09-30T07:31:11Z</time>
      </trkpt>
      <trkpt lat="47.66928" lon="6.76055">
        <ele>423.9768</ele>
        <time>2012-09-30T07:31:12Z</time>
      </trkpt>
      <trkpt lat="47.66928" lon="6.76042">
        <ele>424.2816</ele>
        <time>2012-09-30T07:31:15Z</time>
      </trkpt>
      <trkpt lat="47.66929" lon="6.7603">
        <ele>424.5864</ele>
        <time>2012-09-30T07:31:16Z</time>
      </trkpt>
      <trkpt lat="47.6693" lon="6.76017">
        <ele>424.8912</ele>
        <time>2012-09-30T07:31:19Z</time>
      </trkpt>
      <trkpt lat="47.66931" lon="6.76004">
        <ele>425.196</ele>
        <time>2012-09-30T07:31:21Z</time>
      </trkpt>
      <trkpt lat="47.66932" lon="6.75992">
        <ele>425.5008</ele>
        <time>2012-09-30T07:31:22Z</time>
      </trkpt>
      <trkpt lat="47.66934" lon="6.7598">
        <ele>425.8056</ele>
        <time>2012-09-30T07:31:25Z</time>
      </trkpt>
      <trkpt lat="47.66935" lon="6.75968">
        <ele>426.1104</ele>
        <time>2012-09-30T07:31:26Z</time>
      </trkpt>
      <trkpt lat="47.66937" lon="6.75956">
        <ele>426.4152</ele>
        <time>2012-09-30T07:31:29Z</time>
      </trkpt>
      <trkpt lat="47.66939" lon="6.75943">
        <ele>426.4152</ele>
        <time>2012-09-30T07:31:30Z</time>
      </trkpt>
      <trkpt lat="47.66941" lon="6.75929">
        <ele>426.72</ele>
        <time>2012-09-30T07:31:33Z</time>
      </trkpt>
      <trkpt lat="47.66943" lon="6.75916">
        <ele>427.0248</ele>
        <time>2012-09-30T07:31:34Z</time>
      </trkpt>
      <trkpt lat="47.66944" lon="6.75902">
        <ele>427.0248</ele>
        <time>2012-09-30T07:31:37Z</time>
      </trkpt>
      <trkpt lat="47.66946" lon="6.75889">
        <ele>426.72</ele>
        <time>2012-09-30T07:31:38Z</time>
      </trkpt>
      <trkpt lat="47.66947" lon="6.75876">
        <ele>426.4152</ele>
        <time>2012-09-30T07:31:41Z</time>
      </trkpt>
      <trkpt lat="47.66949" lon="6.75863">
        <ele>426.4152</ele>
        <time>2012-09-30T07:31:42Z</time>
      </trkpt>
      <trkpt lat="47.66951" lon="6.7585">
        <ele>426.4152</ele>
        <time>2012-09-30T07:31:45Z</time>
      </trkpt>
      <trkpt lat="47.66953" lon="6.75835">
        <ele>425.196</ele>
        <time>2012-09-30T07:31:46Z</time>
      </trkpt>
      <trkpt lat="47.66955" lon="6.75819">
        <ele>424.5864</ele>
        <time>2012-09-30T07:31:49Z</time>
      </trkpt>
      <trkpt lat="47.66957" lon="6.75805">
        <ele>424.2816</ele>
        <time>2012-09-30T07:31:50Z</time>
      </trkpt>
      <trkpt lat="47.66958" lon="6.7579">
        <ele>423.9768</ele>
        <time>2012-09-30T07:31:53Z</time>
      </trkpt>
      <trkpt lat="47.66959" lon="6.75774">
        <ele>423.672</ele>
        <time>2012-09-30T07:31:54Z</time>
      </trkpt>
      <trkpt lat="47.66959" lon="6.75757">
        <ele>423.3672</ele>
        <time>2012-09-30T07:31:57Z</time>
      </trkpt>
      <trkpt lat="47.66958" lon="6.75739">
        <ele>422.7576</ele>
        <time>2012-09-30T07:31:58Z</time>
      </trkpt>
      <trkpt lat="47.66957" lon="6.7572">
        <ele>422.148</ele>
        <time>2012-09-30T07:32:01Z</time>
      </trkpt>
      <trkpt lat="47.66955" lon="6.757">
        <ele>421.8432</ele>
        <time>2012-09-30T07:32:02Z</time>
      </trkpt>
      <trkpt lat="47.66952" lon="6.7568">
        <ele>421.5384</ele>
        <time>2012-09-30T07:32:05Z</time>
      </trkpt>
      <trkpt lat="47.66949" lon="6.75661">
        <ele>421.2336</ele>
        <time>2012-09-30T07:32:06Z</time>
      </trkpt>
      <trkpt lat="47.66945" lon="6.75644">
        <ele>420.9288</ele>
        <time>2012-09-30T07:32:09Z</time>
      </trkpt>
      <trkpt lat="47.66942" lon="6.75628">
        <ele>420.9288</ele>
        <time>2012-09-30T07:32:10Z</time>
      </trkpt>
      <trkpt lat="47.66944" lon="6.75615">
        <ele>420.9288</ele>
        <time>2012-09-30T07:32:13Z</time>
      </trkpt>
      <trkpt lat="47.66953" lon="6.7561">
        <ele>420.9288</ele>
        <time>2012-09-30T07:32:15Z</time>
      </trkpt>
      <trkpt lat="47.66963" lon="6.75612">
        <ele>421.5384</ele>
        <time>2012-09-30T07:32:16Z</time>
      </trkpt>
      <trkpt lat="47.66973" lon="6.75611">
        <ele>421.5384</ele>
        <time>2012-09-30T07:32:19Z</time>
      </trkpt>
      <trkpt lat="47.66983" lon="6.75608">
        <ele>421.5384</ele>
        <time>2012-09-30T07:32:20Z</time>
      </trkpt>
      <trkpt lat="47.66994" lon="6.75604">
        <ele>421.5384</ele>
        <time>2012-09-30T07:32:23Z</time>
      </trkpt>
      <trkpt lat="47.67005" lon="6.756">
        <ele>421.5384</ele>
        <time>2012-09-30T07:32:24Z</time>
      </trkpt>
      <trkpt lat="47.67015" lon="6.75597">
        <ele>421.2336</ele>
        <time>2012-09-30T07:32:27Z</time>
      </trkpt>
      <trkpt lat="47.67027" lon="6.75594">
        <ele>421.2336</ele>
        <time>2012-09-30T07:32:28Z</time>
      </trkpt>
      <trkpt lat="47.67038" lon="6.75591">
        <ele>420.9288</ele>
        <time>2012-09-30T07:32:31Z</time>
      </trkpt>
      <trkpt lat="47.6705" lon="6.75588">
        <ele>420.9288</ele>
        <time>2012-09-30T07:32:32Z</time>
      </trkpt>
      <trkpt lat="47.67061" lon="6.7558">
        <ele>420.624</ele>
        <time>2012-09-30T07:32:35Z</time>
      </trkpt>
      <trkpt lat="47.67072" lon="6.7557">
        <ele>420.9288</ele>
        <time>2012-09-30T07:32:36Z</time>
      </trkpt>
      <trkpt lat="47.67082" lon="6.75561">
        <ele>420.9288</ele>
        <time>2012-09-30T07:32:39Z</time>
      </trkpt>
      <trkpt lat="47.67092" lon="6.75553">
        <ele>421.5384</ele>
        <time>2012-09-30T07:32:40Z</time>
      </trkpt>
      <trkpt lat="47.67102" lon="6.75546">
        <ele>421.8432</ele>
        <time>2012-09-30T07:32:43Z</time>
      </trkpt>
      <trkpt lat="47.67112" lon="6.75542">
        <ele>422.4528</ele>
        <time>2012-09-30T07:32:44Z</time>
      </trkpt>
      <trkpt lat="47.67123" lon="6.7554">
        <ele>422.4528</ele>
        <time>2012-09-30T07:32:47Z</time>
      </trkpt>
      <trkpt lat="47.67134" lon="6.75538">
        <ele>422.7576</ele>
        <time>2012-09-30T07:32:48Z</time>
      </trkpt>
      <trkpt lat="47.67145" lon="6.75537">
        <ele>422.7576</ele>
        <time>2012-09-30T07:32:51Z</time>
      </trkpt>
      <trkpt lat="47.67156" lon="6.75535">
        <ele>422.7576</ele>
        <time>2012-09-30T07:32:52Z</time>
      </trkpt>
      <trkpt lat="47.67166" lon="6.75531">
        <ele>422.4528</ele>
        <time>2012-09-30T07:32:55Z</time>
      </trkpt>
      <trkpt lat="47.67177" lon="6.75526">
        <ele>422.7576</ele>
        <time>2012-09-30T07:32:56Z</time>
      </trkpt>
      <trkpt lat="47.67187" lon="6.75521">
        <ele>422.7576</ele>
        <time>2012-09-30T07:32:59Z</time>
      </trkpt>
      <trkpt lat="47.67197" lon="6.75516">
        <ele>423.0624</ele>
        <time>2012-09-30T07:33:00Z</time>
      </trkpt>
      <trkpt lat="47.67206" lon="6.75512">
        <ele>423.3672</ele>
        <time>2012-09-30T07:33:03Z</time>
      </trkpt>
      <trkpt lat="47.67216" lon="6.75508">
        <ele>423.0624</ele>
        <time>2012-09-30T07:33:04Z</time>
      </trkpt>
      <trkpt lat="47.67225" lon="6.75502">
        <ele>422.4528</ele>
        <time>2012-09-30T07:33:07Z</time>
      </trkpt>
      <trkpt lat="47.67234" lon="6.75491">
        <ele>422.148</ele>
        <time>2012-09-30T07:33:09Z</time>
      </trkpt>
      <trkpt lat="47.67238" lon="6.75475">
        <ele>421.5384</ele>
        <time>2012-09-30T07:33:10Z</time>
      </trkpt>
      <trkpt lat="47.67237" lon="6.75456">
        <ele>421.2336</ele>
        <time>2012-09-30T07:33:13Z</time>
      </trkpt>
      <trkpt lat="47.67235" lon="6.75439">
        <ele>420.9288</ele>
        <time>2012-09-30T07:33:14Z</time>
      </trkpt>
      <trkpt lat="47.67232" lon="6.75422">
        <ele>420.624</ele>
        <time>2012-09-30T07:33:17Z</time>
      </trkpt>
      <trkpt lat="47.67231" lon="6.75405">
        <ele>420.624</ele>
        <time>2012-09-30T07:33:18Z</time>
      </trkpt>
      <trkpt lat="47.6723" lon="6.75389">
        <ele>420.624</ele>
        <time>2012-09-30T07:33:21Z</time>
      </trkpt>
      <trkpt lat="47.67231" lon="6.75374">
        <ele>420.3192</ele>
        <time>2012-09-30T07:33:22Z</time>
      </trkpt>
      <trkpt lat="47.67232" lon="6.75362">
        <ele>420.0144</ele>
        <time>2012-09-30T07:33:25Z</time>
      </trkpt>
      <trkpt lat="47.67232" lon="6.75351">
        <ele>420.0144</ele>
        <time>2012-09-30T07:33:26Z</time>
      </trkpt>
      <trkpt lat="47.67232" lon="6.75342">
        <ele>420.0144</ele>
        <time>2012-09-30T07:33:29Z</time>
      </trkpt>
      <trkpt lat="47.67233" lon="6.75336">
        <ele>420.3192</ele>
        <time>2012-09-30T07:33:30Z</time>
      </trkpt>
      <trkpt lat="47.67234" lon="6.75332">
        <ele>420.624</ele>
        <time>2012-09-30T07:33:33Z</time>
      </trkpt>
      <trkpt lat="47.67233" lon="6.7533">
        <ele>420.3192</ele>
        <time>2012-09-30T07:33:34Z</time>
      </trkpt>
      <trkpt lat="47.67232" lon="6.75328">
        <ele>421.2336</ele>
        <time>2012-09-30T07:33:41Z</time>
      </trkpt>
      <trkpt lat="47.67233" lon="6.75327">
        <ele>421.2336</ele>
        <time>2012-09-30T07:33:44Z</time>
      </trkpt>
      <trkpt lat="47.67234" lon="6.75327">
        <ele>421.2336</ele>
        <time>2012-09-30T07:33:45Z</time>
      </trkpt>
      <trkpt lat="47.67237" lon="6.75332">
        <ele>426.1104</ele>
        <time>2012-09-30T07:34:20Z</time>
      </trkpt>
      <trkpt lat="47.67238" lon="6.75329">
        <ele>423.9768</ele>
        <time>2012-09-30T07:38:31Z</time>
      </trkpt>
      <trkpt lat="47.67236" lon="6.75329">
        <ele>419.7096</ele>
        <time>2012-09-30T07:39:35Z</time>
      </trkpt>
      <trkpt lat="47.67235" lon="6.75331">
        <ele>420.624</ele>
        <time>2012-09-30T07:41:29Z</time>
      </trkpt>
      <trkpt lat="47.67236" lon="6.75334">
        <ele>420.9288</ele>
        <time>2012-09-30T07:41:32Z</time>
      </trkpt>
      <trkpt lat="47.67236" lon="6.75337">
        <ele>420.9288</ele>
        <time>2012-09-30T07:41:33Z</time>
      </trkpt>
      <trkpt lat="47.67236" lon="6.75341">
        <ele>421.2336</ele>
        <time>2012-09-30T07:41:36Z</time>
      </trkpt>
      <trkpt lat="47.67237" lon="6.75343">
        <ele>420.9288</ele>
        <time>2012-09-30T07:41:37Z</time>
      </trkpt>
      <trkpt lat="47.67239" lon="6.75346">
        <ele>419.1</ele>
        <time>2012-09-30T07:41:55Z</time>
      </trkpt>
      <trkpt lat="47.67241" lon="6.75348">
        <ele>419.4048</ele>
        <time>2012-09-30T07:41:58Z</time>
      </trkpt>
      <trkpt lat="47.67244" lon="6.75348">
        <ele>419.1</ele>
        <time>2012-09-30T07:41:59Z</time>
      </trkpt>
      <trkpt lat="47.67246" lon="6.75344">
        <ele>419.1</ele>
        <time>2012-09-30T07:42:02Z</time>
      </trkpt>
      <trkpt lat="47.67249" lon="6.75341">
        <ele>419.1</ele>
        <time>2012-09-30T07:42:03Z</time>
      </trkpt>
      <trkpt lat="47.67252" lon="6.75337">
        <ele>419.1</ele>
        <time>2012-09-30T07:42:06Z</time>
      </trkpt>
      <trkpt lat="47.67256" lon="6.75333">
        <ele>419.1</ele>
        <time>2012-09-30T07:42:07Z</time>
      </trkpt>
      <trkpt lat="47.6726" lon="6.75327">
        <ele>419.1</ele>
        <time>2012-09-30T07:42:10Z</time>
      </trkpt>
      <trkpt lat="47.67265" lon="6.75323">
        <ele>420.0144</ele>
        <time>2012-09-30T07:42:11Z</time>
      </trkpt>
      <trkpt lat="47.67269" lon="6.75321">
        <ele>422.4528</ele>
        <time>2012-09-30T07:42:14Z</time>
      </trkpt>
      <trkpt lat="47.67275" lon="6.75319">
        <ele>423.9768</ele>
        <time>2012-09-30T07:42:15Z</time>
      </trkpt>
      <trkpt lat="47.6728" lon="6.75317">
        <ele>425.5008</ele>
        <time>2012-09-30T07:42:18Z</time>
      </trkpt>
      <trkpt lat="47.67285" lon="6.75317">
        <ele>427.9392</ele>
        <time>2012-09-30T07:42:19Z</time>
      </trkpt>
      <trkpt lat="47.6729" lon="6.75317">
        <ele>428.8536</ele>
        <time>2012-09-30T07:42:22Z</time>
      </trkpt>
      <trkpt lat="47.67296" lon="6.75317">
        <ele>430.3776</ele>
        <time>2012-09-30T07:42:23Z</time>
      </trkpt>
      <trkpt lat="47.67301" lon="6.75318">
        <ele>433.1208</ele>
        <time>2012-09-30T07:42:26Z</time>
      </trkpt>
      <trkpt lat="47.67307" lon="6.75319">
        <ele>435.864</ele>
        <time>2012-09-30T07:42:27Z</time>
      </trkpt>
      <trkpt lat="47.67312" lon="6.75321">
        <ele>436.4736</ele>
        <time>2012-09-30T07:42:30Z</time>
      </trkpt>
      <trkpt lat="47.67316" lon="6.75324">
        <ele>438.3024</ele>
        <time>2012-09-30T07:42:31Z</time>
      </trkpt>
      <trkpt lat="47.67321" lon="6.75329">
        <ele>437.9976</ele>
        <time>2012-09-30T07:42:34Z</time>
      </trkpt>
      <trkpt lat="47.67325" lon="6.75335">
        <ele>438.3024</ele>
        <time>2012-09-30T07:42:36Z</time>
      </trkpt>
      <trkpt lat="47.67329" lon="6.7534">
        <ele>438.6072</ele>
        <time>2012-09-30T07:42:37Z</time>
      </trkpt>
      <trkpt lat="47.67333" lon="6.75344">
        <ele>440.1312</ele>
        <time>2012-09-30T07:42:40Z</time>
      </trkpt>
      <trkpt lat="47.67336" lon="6.75347">
        <ele>441.6552</ele>
        <time>2012-09-30T07:42:41Z</time>
      </trkpt>
      <trkpt lat="47.6734" lon="6.7535">
        <ele>442.5696</ele>
        <time>2012-09-30T07:42:44Z</time>
      </trkpt>
      <trkpt lat="47.67344" lon="6.75354">
        <ele>442.8744</ele>
        <time>2012-09-30T07:42:45Z</time>
      </trkpt>
      <trkpt lat="47.67348" lon="6.75357">
        <ele>444.0936</ele>
        <time>2012-09-30T07:42:48Z</time>
      </trkpt>
      <trkpt lat="47.67351" lon="6.7536">
        <ele>445.6176</ele>
        <time>2012-09-30T07:42:49Z</time>
      </trkpt>
      <trkpt lat="47.67355" lon="6.75364">
        <ele>446.8368</ele>
        <time>2012-09-30T07:42:52Z</time>
      </trkpt>
      <trkpt lat="47.6736" lon="6.75367">
        <ele>447.4464</ele>
        <time>2012-09-30T07:42:53Z</time>
      </trkpt>
      <trkpt lat="47.67365" lon="6.7537">
        <ele>448.056</ele>
        <time>2012-09-30T07:42:56Z</time>
      </trkpt>
      <trkpt lat="47.67371" lon="6.75372">
        <ele>449.2752</ele>
        <time>2012-09-30T07:42:57Z</time>
      </trkpt>
      <trkpt lat="47.67377" lon="6.75374">
        <ele>449.58</ele>
        <time>2012-09-30T07:43:00Z</time>
      </trkpt>
      <trkpt lat="47.67384" lon="6.75377">
        <ele>448.3608</ele>
        <time>2012-09-30T07:43:01Z</time>
      </trkpt>
      <trkpt lat="47.67391" lon="6.75378">
        <ele>447.7512</ele>
        <time>2012-09-30T07:43:04Z</time>
      </trkpt>
      <trkpt lat="47.67398" lon="6.75379">
        <ele>447.1416</ele>
        <time>2012-09-30T07:43:05Z</time>
      </trkpt>
      <trkpt lat="47.67405" lon="6.7538">
        <ele>446.532</ele>
        <time>2012-09-30T07:43:08Z</time>
      </trkpt>
      <trkpt lat="47.67411" lon="6.75381">
        <ele>446.2272</ele>
        <time>2012-09-30T07:43:09Z</time>
      </trkpt>
      <trkpt lat="47.67417" lon="6.75381">
        <ele>446.532</ele>
        <time>2012-09-30T07:43:12Z</time>
      </trkpt>
      <trkpt lat="47.67423" lon="6.75381">
        <ele>447.4464</ele>
        <time>2012-09-30T07:43:13Z</time>
      </trkpt>
      <trkpt lat="47.67429" lon="6.75381">
        <ele>448.056</ele>
        <time>2012-09-30T07:43:16Z</time>
      </trkpt>
      <trkpt lat="47.67435" lon="6.75382">
        <ele>448.6656</ele>
        <time>2012-09-30T07:43:17Z</time>
      </trkpt>
      <trkpt lat="47.6744" lon="6.75382">
        <ele>449.2752</ele>
        <time>2012-09-30T07:43:20Z</time>
      </trkpt>
      <trkpt lat="47.67445" lon="6.75382">
        <ele>450.7992</ele>
        <time>2012-09-30T07:43:21Z</time>
      </trkpt>
      <trkpt lat="47.67451" lon="6.75382">
        <ele>451.7136</ele>
        <time>2012-09-30T07:43:24Z</time>
      </trkpt>
      <trkpt lat="47.67456" lon="6.75383">
        <ele>452.628</ele>
        <time>2012-09-30T07:43:25Z</time>
      </trkpt>
      <trkpt lat="47.67463" lon="6.75383">
        <ele>453.2376</ele>
        <time>2012-09-30T07:43:28Z</time>
      </trkpt>
      <trkpt lat="47.67471" lon="6.75382">
        <ele>453.5424</ele>
        <time>2012-09-30T07:43:30Z</time>
      </trkpt>
      <trkpt lat="47.6748" lon="6.75379">
        <ele>452.628</ele>
        <time>2012-09-30T07:43:31Z</time>
      </trkpt>
      <trkpt lat="47.67488" lon="6.75371">
        <ele>452.628</ele>
        <time>2012-09-30T07:43:34Z</time>
      </trkpt>
      <trkpt lat="47.67496" lon="6.75358">
        <ele>450.1896</ele>
        <time>2012-09-30T07:43:35Z</time>
      </trkpt>
      <trkpt lat="47.67502" lon="6.75345">
        <ele>448.9704</ele>
        <time>2012-09-30T07:43:38Z</time>
      </trkpt>
      <trkpt lat="47.67508" lon="6.75327">
        <ele>446.532</ele>
        <time>2012-09-30T07:43:39Z</time>
      </trkpt>
      <trkpt lat="47.67512" lon="6.75307">
        <ele>443.7888</ele>
        <time>2012-09-30T07:43:42Z</time>
      </trkpt>
      <trkpt lat="47.67517" lon="6.75286">
        <ele>441.96</ele>
        <time>2012-09-30T07:43:43Z</time>
      </trkpt>
      <trkpt lat="47.67522" lon="6.75266">
        <ele>440.1312</ele>
        <time>2012-09-30T07:43:46Z</time>
      </trkpt>
      <trkpt lat="47.67529" lon="6.75247">
        <ele>436.4736</ele>
        <time>2012-09-30T07:43:47Z</time>
      </trkpt>
      <trkpt lat="47.67537" lon="6.75232">
        <ele>432.2064</ele>
        <time>2012-09-30T07:43:50Z</time>
      </trkpt>
      <trkpt lat="47.67548" lon="6.75226">
        <ele>428.5488</ele>
        <time>2012-09-30T07:43:51Z</time>
      </trkpt>
      <trkpt lat="47.6756" lon="6.75229">
        <ele>426.1104</ele>
        <time>2012-09-30T07:43:54Z</time>
      </trkpt>
      <trkpt lat="47.6757" lon="6.75238">
        <ele>424.5864</ele>
        <time>2012-09-30T07:43:55Z</time>
      </trkpt>
      <trkpt lat="47.67579" lon="6.7525">
        <ele>423.672</ele>
        <time>2012-09-30T07:43:58Z</time>
      </trkpt>
      <trkpt lat="47.67588" lon="6.75261">
        <ele>423.0624</ele>
        <time>2012-09-30T07:43:59Z</time>
      </trkpt>
      <trkpt lat="47.67598" lon="6.75271">
        <ele>422.4528</ele>
        <time>2012-09-30T07:44:02Z</time>
      </trkpt>
      <trkpt lat="47.67608" lon="6.75275">
        <ele>422.148</ele>
        <time>2012-09-30T07:44:03Z</time>
      </trkpt>
      <trkpt lat="47.67616" lon="6.75272">
        <ele>421.8432</ele>
        <time>2012-09-30T07:44:06Z</time>
      </trkpt>
      <trkpt lat="47.67623" lon="6.7527">
        <ele>421.5384</ele>
        <time>2012-09-30T07:44:07Z</time>
      </trkpt>
      <trkpt lat="47.67631" lon="6.75273">
        <ele>420.9288</ele>
        <time>2012-09-30T07:44:10Z</time>
      </trkpt>
      <trkpt lat="47.67636" lon="6.75279">
        <ele>421.5384</ele>
        <time>2012-09-30T07:44:11Z</time>
      </trkpt>
      <trkpt lat="47.67643" lon="6.75286">
        <ele>422.4528</ele>
        <time>2012-09-30T07:44:14Z</time>
      </trkpt>
      <trkpt lat="47.67649" lon="6.75294">
        <ele>423.3672</ele>
        <time>2012-09-30T07:44:15Z</time>
      </trkpt>
      <trkpt lat="47.67654" lon="6.75303">
        <ele>424.5864</ele>
        <time>2012-09-30T07:44:18Z</time>
      </trkpt>
      <trkpt lat="47.67659" lon="6.75313">
        <ele>425.8056</ele>
        <time>2012-09-30T07:44:19Z</time>
      </trkpt>
      <trkpt lat="47.67664" lon="6.75321">
        <ele>426.1104</ele>
        <time>2012-09-30T07:44:22Z</time>
      </trkpt>
      <trkpt lat="47.67668" lon="6.75329">
        <ele>427.3296</ele>
        <time>2012-09-30T07:44:24Z</time>
      </trkpt>
      <trkpt lat="47.67671" lon="6.75338">
        <ele>428.244</ele>
        <time>2012-09-30T07:44:25Z</time>
      </trkpt>
      <trkpt lat="47.67674" lon="6.75346">
        <ele>429.1584</ele>
        <time>2012-09-30T07:44:28Z</time>
      </trkpt>
      <trkpt lat="47.67677" lon="6.75354">
        <ele>429.768</ele>
        <time>2012-09-30T07:44:29Z</time>
      </trkpt>
      <trkpt lat="47.67679" lon="6.75362">
        <ele>430.6824</ele>
        <time>2012-09-30T07:44:32Z</time>
      </trkpt>
      <trkpt lat="47.67681" lon="6.75368">
        <ele>430.9872</ele>
        <time>2012-09-30T07:44:33Z</time>
      </trkpt>
      <trkpt lat="47.67683" lon="6.75376">
        <ele>431.9016</ele>
        <time>2012-09-30T07:44:36Z</time>
      </trkpt>
      <trkpt lat="47.67684" lon="6.75386">
        <ele>432.5112</ele>
        <time>2012-09-30T07:44:37Z</time>
      </trkpt>
      <trkpt lat="47.67686" lon="6.75395">
        <ele>433.4256</ele>
        <time>2012-09-30T07:44:40Z</time>
      </trkpt>
      <trkpt lat="47.67688" lon="6.75404">
        <ele>434.0352</ele>
        <time>2012-09-30T07:44:41Z</time>
      </trkpt>
      <trkpt lat="47.67691" lon="6.75412">
        <ele>434.34</ele>
        <time>2012-09-30T07:44:44Z</time>
      </trkpt>
      <trkpt lat="47.67694" lon="6.75423">
        <ele>434.6448</ele>
        <time>2012-09-30T07:44:45Z</time>
      </trkpt>
      <trkpt lat="47.67696" lon="6.75434">
        <ele>435.2544</ele>
        <time>2012-09-30T07:44:48Z</time>
      </trkpt>
      <trkpt lat="47.67699" lon="6.75445">
        <ele>435.5592</ele>
        <time>2012-09-30T07:44:49Z</time>
      </trkpt>
      <trkpt lat="47.67702" lon="6.75456">
        <ele>434.6448</ele>
        <time>2012-09-30T07:44:52Z</time>
      </trkpt>
      <trkpt lat="47.67705" lon="6.75468">
        <ele>433.7304</ele>
        <time>2012-09-30T07:44:53Z</time>
      </trkpt>
      <trkpt lat="47.67708" lon="6.75479">
        <ele>434.0352</ele>
        <time>2012-09-30T07:44:56Z</time>
      </trkpt>
      <trkpt lat="47.6771" lon="6.75488">
        <ele>435.2544</ele>
        <time>2012-09-30T07:44:57Z</time>
      </trkpt>
      <trkpt lat="47.67713" lon="6.75499">
        <ele>434.9496</ele>
        <time>2012-09-30T07:45:00Z</time>
      </trkpt>
      <trkpt lat="47.67715" lon="6.7551">
        <ele>434.6448</ele>
        <time>2012-09-30T07:45:01Z</time>
      </trkpt>
      <trkpt lat="47.67718" lon="6.7552">
        <ele>434.9496</ele>
        <time>2012-09-30T07:45:04Z</time>
      </trkpt>
      <trkpt lat="47.67721" lon="6.75533">
        <ele>434.0352</ele>
        <time>2012-09-30T07:45:05Z</time>
      </trkpt>
      <trkpt lat="47.67724" lon="6.75546">
        <ele>433.1208</ele>
        <time>2012-09-30T07:45:08Z</time>
      </trkpt>
      <trkpt lat="47.67727" lon="6.75558">
        <ele>432.5112</ele>
        <time>2012-09-30T07:45:09Z</time>
      </trkpt>
      <trkpt lat="47.6773" lon="6.75574">
        <ele>430.9872</ele>
        <time>2012-09-30T07:45:12Z</time>
      </trkpt>
      <trkpt lat="47.67733" lon="6.7559">
        <ele>429.1584</ele>
        <time>2012-09-30T07:45:13Z</time>
      </trkpt>
      <trkpt lat="47.67736" lon="6.75605">
        <ele>427.9392</ele>
        <time>2012-09-30T07:45:16Z</time>
      </trkpt>
      <trkpt lat="47.67739" lon="6.75621">
        <ele>427.0248</ele>
        <time>2012-09-30T07:45:18Z</time>
      </trkpt>
      <trkpt lat="47.67742" lon="6.7564">
        <ele>425.196</ele>
        <time>2012-09-30T07:45:19Z</time>
      </trkpt>
      <trkpt lat="47.67744" lon="6.75659">
        <ele>423.672</ele>
        <time>2012-09-30T07:45:22Z</time>
      </trkpt>
      <trkpt lat="47.67745" lon="6.75678">
        <ele>421.8432</ele>
        <time>2012-09-30T07:45:23Z</time>
      </trkpt>
      <trkpt lat="47.67745" lon="6.75696">
        <ele>419.4048</ele>
        <time>2012-09-30T07:45:26Z</time>
      </trkpt>
      <trkpt lat="47.67745" lon="6.75717">
        <ele>416.9664</ele>
        <time>2012-09-30T07:45:27Z</time>
      </trkpt>
      <trkpt lat="47.67745" lon="6.75738">
        <ele>413.9184</ele>
        <time>2012-09-30T07:45:30Z</time>
      </trkpt>
      <trkpt lat="47.67744" lon="6.75761">
        <ele>411.48</ele>
        <time>2012-09-30T07:45:31Z</time>
      </trkpt>
      <trkpt lat="47.67743" lon="6.75782">
        <ele>406.908</ele>
        <time>2012-09-30T07:45:34Z</time>
      </trkpt>
      <trkpt lat="47.67741" lon="6.75806">
        <ele>403.2504</ele>
        <time>2012-09-30T07:45:35Z</time>
      </trkpt>
      <trkpt lat="47.67736" lon="6.75832">
        <ele>400.2024</ele>
        <time>2012-09-30T07:45:38Z</time>
      </trkpt>
      <trkpt lat="47.6773" lon="6.75861">
        <ele>397.764</ele>
        <time>2012-09-30T07:45:39Z</time>
      </trkpt>
      <trkpt lat="47.67726" lon="6.7589">
        <ele>396.8496</ele>
        <time>2012-09-30T07:45:42Z</time>
      </trkpt>
      <trkpt lat="47.67723" lon="6.75919">
        <ele>395.3256</ele>
        <time>2012-09-30T07:45:43Z</time>
      </trkpt>
      <trkpt lat="47.67722" lon="6.75946">
        <ele>394.4112</ele>
        <time>2012-09-30T07:45:46Z</time>
      </trkpt>
      <trkpt lat="47.67724" lon="6.75971">
        <ele>393.4968</ele>
        <time>2012-09-30T07:45:47Z</time>
      </trkpt>
      <trkpt lat="47.67726" lon="6.75995">
        <ele>393.8016</ele>
        <time>2012-09-30T07:45:50Z</time>
      </trkpt>
      <trkpt lat="47.67727" lon="6.76019">
        <ele>394.716</ele>
        <time>2012-09-30T07:45:51Z</time>
      </trkpt>
      <trkpt lat="47.67727" lon="6.76042">
        <ele>395.0208</ele>
        <time>2012-09-30T07:45:54Z</time>
      </trkpt>
      <trkpt lat="47.67727" lon="6.76064">
        <ele>395.3256</ele>
        <time>2012-09-30T07:45:55Z</time>
      </trkpt>
      <trkpt lat="47.67724" lon="6.76086">
        <ele>394.4112</ele>
        <time>2012-09-30T07:45:58Z</time>
      </trkpt>
      <trkpt lat="47.67719" lon="6.7611">
        <ele>393.4968</ele>
        <time>2012-09-30T07:45:59Z</time>
      </trkpt>
      <trkpt lat="47.67713" lon="6.76136">
        <ele>391.9728</ele>
        <time>2012-09-30T07:46:02Z</time>
      </trkpt>
      <trkpt lat="47.67705" lon="6.76161">
        <ele>390.4488</ele>
        <time>2012-09-30T07:46:03Z</time>
      </trkpt>
      <trkpt lat="47.67702" lon="6.76187">
        <ele>389.5344</ele>
        <time>2012-09-30T07:46:06Z</time>
      </trkpt>
      <trkpt lat="47.67705" lon="6.76211">
        <ele>388.0104</ele>
        <time>2012-09-30T07:46:07Z</time>
      </trkpt>
      <trkpt lat="47.6771" lon="6.76237">
        <ele>386.4864</ele>
        <time>2012-09-30T07:46:10Z</time>
      </trkpt>
      <trkpt lat="47.67709" lon="6.76355">
        <ele>380.3904</ele>
        <time>2012-09-30T07:46:17Z</time>
      </trkpt>
      <trkpt lat="47.67711" lon="6.76382">
        <ele>379.476</ele>
        <time>2012-09-30T07:46:20Z</time>
      </trkpt>
      <trkpt lat="47.67716" lon="6.76406">
        <ele>378.2568</ele>
        <time>2012-09-30T07:46:21Z</time>
      </trkpt>
      <trkpt lat="47.67724" lon="6.76429">
        <ele>377.0376</ele>
        <time>2012-09-30T07:46:24Z</time>
      </trkpt>
      <trkpt lat="47.67731" lon="6.76452">
        <ele>376.428</ele>
        <time>2012-09-30T07:46:25Z</time>
      </trkpt>
      <trkpt lat="47.67739" lon="6.76475">
        <ele>375.5136</ele>
        <time>2012-09-30T07:46:28Z</time>
      </trkpt>
      <trkpt lat="47.67739" lon="6.76499">
        <ele>375.5136</ele>
        <time>2012-09-30T07:46:29Z</time>
      </trkpt>
      <trkpt lat="47.67734" lon="6.76521">
        <ele>375.8184</ele>
        <time>2012-09-30T07:46:32Z</time>
      </trkpt>
      <trkpt lat="47.67727" lon="6.76541">
        <ele>376.428</ele>
        <time>2012-09-30T07:46:33Z</time>
      </trkpt>
      <trkpt lat="47.67719" lon="6.76558">
        <ele>377.0376</ele>
        <time>2012-09-30T07:46:36Z</time>
      </trkpt>
      <trkpt lat="47.67711" lon="6.76573">
        <ele>377.952</ele>
        <time>2012-09-30T07:46:37Z</time>
      </trkpt>
      <trkpt lat="47.67704" lon="6.76584">
        <ele>378.5616</ele>
        <time>2012-09-30T07:46:40Z</time>
      </trkpt>
      <trkpt lat="47.67703" lon="6.76596">
        <ele>379.476</ele>
        <time>2012-09-30T07:46:41Z</time>
      </trkpt>
      <trkpt lat="47.67706" lon="6.76606">
        <ele>380.3904</ele>
        <time>2012-09-30T07:46:44Z</time>
      </trkpt>
      <trkpt lat="47.67711" lon="6.76613">
        <ele>381.3048</ele>
        <time>2012-09-30T07:46:45Z</time>
      </trkpt>
      <trkpt lat="47.67713" lon="6.76622">
        <ele>383.4384</ele>
        <time>2012-09-30T07:46:48Z</time>
      </trkpt>
      <trkpt lat="47.67717" lon="6.76631">
        <ele>384.048</ele>
        <time>2012-09-30T07:46:49Z</time>
      </trkpt>
      <trkpt lat="47.67725" lon="6.7664">
        <ele>384.3528</ele>
        <time>2012-09-30T07:46:52Z</time>
      </trkpt>
      <trkpt lat="47.67736" lon="6.76648">
        <ele>384.048</ele>
        <time>2012-09-30T07:46:53Z</time>
      </trkpt>
      <trkpt lat="47.67749" lon="6.76653">
        <ele>382.8288</ele>
        <time>2012-09-30T07:46:56Z</time>
      </trkpt>
      <trkpt lat="47.67764" lon="6.76654">
        <ele>381.6096</ele>
        <time>2012-09-30T07:46:57Z</time>
      </trkpt>
      <trkpt lat="47.67779" lon="6.76654">
        <ele>380.6952</ele>
        <time>2012-09-30T07:47:00Z</time>
      </trkpt>
      <trkpt lat="47.67794" lon="6.76654">
        <ele>379.7808</ele>
        <time>2012-09-30T07:47:01Z</time>
      </trkpt>
      <trkpt lat="47.6781" lon="6.76653">
        <ele>379.1712</ele>
        <time>2012-09-30T07:47:04Z</time>
      </trkpt>
      <trkpt lat="47.67824" lon="6.76653">
        <ele>378.8664</ele>
        <time>2012-09-30T07:47:05Z</time>
      </trkpt>
      <trkpt lat="47.67838" lon="6.76654">
        <ele>378.5616</ele>
        <time>2012-09-30T07:47:07Z</time>
      </trkpt>
      <trkpt lat="47.67851" lon="6.76657">
        <ele>378.8664</ele>
        <time>2012-09-30T07:47:10Z</time>
      </trkpt>
      <trkpt lat="47.67862" lon="6.7666">
        <ele>378.8664</ele>
        <time>2012-09-30T07:47:11Z</time>
      </trkpt>
      <trkpt lat="47.67871" lon="6.76664">
        <ele>379.1712</ele>
        <time>2012-09-30T07:47:14Z</time>
      </trkpt>
      <trkpt lat="47.67879" lon="6.76666">
        <ele>379.1712</ele>
        <time>2012-09-30T07:47:15Z</time>
      </trkpt>
      <trkpt lat="47.67885" lon="6.76669">
        <ele>379.476</ele>
        <time>2012-09-30T07:47:18Z</time>
      </trkpt>
      <trkpt lat="47.67889" lon="6.76674">
        <ele>379.7808</ele>
        <time>2012-09-30T07:47:19Z</time>
      </trkpt>
      <trkpt lat="47.67891" lon="6.76681">
        <ele>380.0856</ele>
        <time>2012-09-30T07:47:22Z</time>
      </trkpt>
      <trkpt lat="47.67892" lon="6.76687">
        <ele>380.0856</ele>
        <time>2012-09-30T07:47:23Z</time>
      </trkpt>
      <trkpt lat="47.67895" lon="6.7669">
        <ele>380.6952</ele>
        <time>2012-09-30T07:47:26Z</time>
      </trkpt>
      <trkpt lat="47.67899" lon="6.76691">
        <ele>381</ele>
        <time>2012-09-30T07:47:27Z</time>
      </trkpt>
      <trkpt lat="47.67902" lon="6.76693">
        <ele>381.6096</ele>
        <time>2012-09-30T07:47:30Z</time>
      </trkpt>
      <trkpt lat="47.67905" lon="6.76696">
        <ele>382.2192</ele>
        <time>2012-09-30T07:47:31Z</time>
      </trkpt>
      <trkpt lat="47.67909" lon="6.76698">
        <ele>382.8288</ele>
        <time>2012-09-30T07:47:34Z</time>
      </trkpt>
      <trkpt lat="47.67911" lon="6.767">
        <ele>384.048</ele>
        <time>2012-09-30T07:47:35Z</time>
      </trkpt>
      <trkpt lat="47.67914" lon="6.76702">
        <ele>384.6576</ele>
        <time>2012-09-30T07:47:38Z</time>
      </trkpt>
      <trkpt lat="47.67917" lon="6.76704">
        <ele>385.8768</ele>
        <time>2012-09-30T07:47:39Z</time>
      </trkpt>
      <trkpt lat="47.67919" lon="6.76705">
        <ele>386.4864</ele>
        <time>2012-09-30T07:47:42Z</time>
      </trkpt>
      <trkpt lat="47.67922" lon="6.76707">
        <ele>387.096</ele>
        <time>2012-09-30T07:47:43Z</time>
      </trkpt>
      <trkpt lat="47.67924" lon="6.76709">
        <ele>388.0104</ele>
        <time>2012-09-30T07:47:46Z</time>
      </trkpt>
      <trkpt lat="47.67926" lon="6.7671">
        <ele>388.9248</ele>
        <time>2012-09-30T07:47:47Z</time>
      </trkpt>
      <trkpt lat="47.67928" lon="6.76711">
        <ele>390.144</ele>
        <time>2012-09-30T07:47:50Z</time>
      </trkpt>
      <trkpt lat="47.6793" lon="6.76713">
        <ele>391.0584</ele>
        <time>2012-09-30T07:47:51Z</time>
      </trkpt>
      <trkpt lat="47.67932" lon="6.76714">
        <ele>391.668</ele>
        <time>2012-09-30T07:47:54Z</time>
      </trkpt>
      <trkpt lat="47.67935" lon="6.76715">
        <ele>392.5824</ele>
        <time>2012-09-30T07:47:55Z</time>
      </trkpt>
      <trkpt lat="47.67937" lon="6.76715">
        <ele>393.192</ele>
        <time>2012-09-30T07:47:58Z</time>
      </trkpt>
      <trkpt lat="47.67939" lon="6.76716">
        <ele>394.1064</ele>
        <time>2012-09-30T07:47:59Z</time>
      </trkpt>
      <trkpt lat="47.67942" lon="6.76717">
        <ele>394.716</ele>
        <time>2012-09-30T07:48:01Z</time>
      </trkpt>
      <trkpt lat="47.67944" lon="6.76717">
        <ele>395.6304</ele>
        <time>2012-09-30T07:48:04Z</time>
      </trkpt>
      <trkpt lat="47.67946" lon="6.76717">
        <ele>396.24</ele>
        <time>2012-09-30T07:48:05Z</time>
      </trkpt>
      <trkpt lat="47.67948" lon="6.76718">
        <ele>397.1544</ele>
        <time>2012-09-30T07:48:08Z</time>
      </trkpt>
      <trkpt lat="47.67951" lon="6.76718">
        <ele>397.764</ele>
        <time>2012-09-30T07:48:09Z</time>
      </trkpt>
      <trkpt lat="47.67953" lon="6.76719">
        <ele>398.0688</ele>
        <time>2012-09-30T07:48:12Z</time>
      </trkpt>
      <trkpt lat="47.67955" lon="6.76719">
        <ele>398.9832</ele>
        <time>2012-09-30T07:48:13Z</time>
      </trkpt>
      <trkpt lat="47.67957" lon="6.7672">
        <ele>399.8976</ele>
        <time>2012-09-30T07:48:16Z</time>
      </trkpt>
      <trkpt lat="47.67959" lon="6.76721">
        <ele>401.1168</ele>
        <time>2012-09-30T07:48:17Z</time>
      </trkpt>
      <trkpt lat="47.67961" lon="6.76721">
        <ele>402.0312</ele>
        <time>2012-09-30T07:48:20Z</time>
      </trkpt>
      <trkpt lat="47.67962" lon="6.76721">
        <ele>403.2504</ele>
        <time>2012-09-30T07:48:21Z</time>
      </trkpt>
      <trkpt lat="47.67964" lon="6.76722">
        <ele>404.1648</ele>
        <time>2012-09-30T07:48:24Z</time>
      </trkpt>
      <trkpt lat="47.67966" lon="6.76722">
        <ele>405.384</ele>
        <time>2012-09-30T07:48:25Z</time>
      </trkpt>
      <trkpt lat="47.67967" lon="6.76723">
        <ele>406.6032</ele>
        <time>2012-09-30T07:48:28Z</time>
      </trkpt>
      <trkpt lat="47.67968" lon="6.76724">
        <ele>407.8224</ele>
        <time>2012-09-30T07:48:29Z</time>
      </trkpt>
      <trkpt lat="47.6797" lon="6.76724">
        <ele>409.0416</ele>
        <time>2012-09-30T07:48:32Z</time>
      </trkpt>
      <trkpt lat="47.67971" lon="6.76724">
        <ele>409.956</ele>
        <time>2012-09-30T07:48:33Z</time>
      </trkpt>
      <trkpt lat="47.67973" lon="6.76724">
        <ele>410.8704</ele>
        <time>2012-09-30T07:48:36Z</time>
      </trkpt>
      <trkpt lat="47.67975" lon="6.76724">
        <ele>410.2608</ele>
        <time>2012-09-30T07:48:37Z</time>
      </trkpt>
      <trkpt lat="47.67977" lon="6.76725">
        <ele>410.8704</ele>
        <time>2012-09-30T07:48:40Z</time>
      </trkpt>
      <trkpt lat="47.67979" lon="6.76726">
        <ele>411.7848</ele>
        <time>2012-09-30T07:48:41Z</time>
      </trkpt>
      <trkpt lat="47.67981" lon="6.76726">
        <ele>412.3944</ele>
        <time>2012-09-30T07:48:44Z</time>
      </trkpt>
      <trkpt lat="47.67983" lon="6.76726">
        <ele>413.004</ele>
        <time>2012-09-30T07:48:45Z</time>
      </trkpt>
      <trkpt lat="47.67985" lon="6.76727">
        <ele>413.004</ele>
        <time>2012-09-30T07:48:48Z</time>
      </trkpt>
      <trkpt lat="47.67987" lon="6.76726">
        <ele>412.6992</ele>
        <time>2012-09-30T07:48:49Z</time>
      </trkpt>
      <trkpt lat="47.67989" lon="6.76726">
        <ele>412.6992</ele>
        <time>2012-09-30T07:48:52Z</time>
      </trkpt>
      <trkpt lat="47.67991" lon="6.76727">
        <ele>413.3088</ele>
        <time>2012-09-30T07:48:53Z</time>
      </trkpt>
      <trkpt lat="47.67993" lon="6.76727">
        <ele>413.9184</ele>
        <time>2012-09-30T07:48:55Z</time>
      </trkpt>
      <trkpt lat="47.67995" lon="6.76728">
        <ele>414.528</ele>
        <time>2012-09-30T07:48:58Z</time>
      </trkpt>
      <trkpt lat="47.67997" lon="6.76729">
        <ele>415.1376</ele>
        <time>2012-09-30T07:48:59Z</time>
      </trkpt>
      <trkpt lat="47.67999" lon="6.76729">
        <ele>416.3568</ele>
        <time>2012-09-30T07:49:02Z</time>
      </trkpt>
      <trkpt lat="47.68002" lon="6.76727">
        <ele>415.4424</ele>
        <time>2012-09-30T07:49:03Z</time>
      </trkpt>
      <trkpt lat="47.68005" lon="6.76727">
        <ele>415.4424</ele>
        <time>2012-09-30T07:49:06Z</time>
      </trkpt>
      <trkpt lat="47.68008" lon="6.76728">
        <ele>415.7472</ele>
        <time>2012-09-30T07:49:07Z</time>
      </trkpt>
      <trkpt lat="47.68011" lon="6.76728">
        <ele>416.052</ele>
        <time>2012-09-30T07:49:10Z</time>
      </trkpt>
      <trkpt lat="47.68014" lon="6.76729">
        <ele>416.6616</ele>
        <time>2012-09-30T07:49:11Z</time>
      </trkpt>
      <trkpt lat="47.68017" lon="6.76729">
        <ele>416.9664</ele>
        <time>2012-09-30T07:49:14Z</time>
      </trkpt>
      <trkpt lat="47.68021" lon="6.76729">
        <ele>416.052</ele>
        <time>2012-09-30T07:49:15Z</time>
      </trkpt>
      <trkpt lat="47.68025" lon="6.76731">
        <ele>414.528</ele>
        <time>2012-09-30T07:49:18Z</time>
      </trkpt>
      <trkpt lat="47.6803" lon="6.76733">
        <ele>413.3088</ele>
        <time>2012-09-30T07:49:19Z</time>
      </trkpt>
      <trkpt lat="47.68034" lon="6.76736">
        <ele>413.004</ele>
        <time>2012-09-30T07:49:22Z</time>
      </trkpt>
      <trkpt lat="47.68039" lon="6.76737">
        <ele>413.004</ele>
        <time>2012-09-30T07:49:23Z</time>
      </trkpt>
      <trkpt lat="47.68044" lon="6.76737">
        <ele>412.3944</ele>
        <time>2012-09-30T07:49:26Z</time>
      </trkpt>
      <trkpt lat="47.68049" lon="6.76735">
        <ele>412.0896</ele>
        <time>2012-09-30T07:49:27Z</time>
      </trkpt>
      <trkpt lat="47.68054" lon="6.76735">
        <ele>411.7848</ele>
        <time>2012-09-30T07:49:30Z</time>
      </trkpt>
      <trkpt lat="47.6806" lon="6.76735">
        <ele>411.48</ele>
        <time>2012-09-30T07:49:31Z</time>
      </trkpt>
      <trkpt lat="47.68065" lon="6.76735">
        <ele>411.1752</ele>
        <time>2012-09-30T07:49:34Z</time>
      </trkpt>
      <trkpt lat="47.6807" lon="6.76735">
        <ele>410.5656</ele>
        <time>2012-09-30T07:49:35Z</time>
      </trkpt>
      <trkpt lat="47.68075" lon="6.76735">
        <ele>409.956</ele>
        <time>2012-09-30T07:49:38Z</time>
      </trkpt>
      <trkpt lat="47.6808" lon="6.76734">
        <ele>409.6512</ele>
        <time>2012-09-30T07:49:39Z</time>
      </trkpt>
      <trkpt lat="47.68085" lon="6.76733">
        <ele>409.6512</ele>
        <time>2012-09-30T07:49:42Z</time>
      </trkpt>
      <trkpt lat="47.6809" lon="6.76732">
        <ele>409.3464</ele>
        <time>2012-09-30T07:49:43Z</time>
      </trkpt>
      <trkpt lat="47.68095" lon="6.76731">
        <ele>409.6512</ele>
        <time>2012-09-30T07:49:46Z</time>
      </trkpt>
      <trkpt lat="47.68099" lon="6.7673">
        <ele>409.6512</ele>
        <time>2012-09-30T07:49:47Z</time>
      </trkpt>
      <trkpt lat="47.68104" lon="6.76729">
        <ele>409.6512</ele>
        <time>2012-09-30T07:49:49Z</time>
      </trkpt>
      <trkpt lat="47.68109" lon="6.76728">
        <ele>409.956</ele>
        <time>2012-09-30T07:49:52Z</time>
      </trkpt>
      <trkpt lat="47.68113" lon="6.76727">
        <ele>410.5656</ele>
        <time>2012-09-30T07:49:53Z</time>
      </trkpt>
      <trkpt lat="47.68117" lon="6.76724">
        <ele>410.8704</ele>
        <time>2012-09-30T07:49:56Z</time>
      </trkpt>
      <trkpt lat="47.68121" lon="6.76722">
        <ele>411.48</ele>
        <time>2012-09-30T07:49:57Z</time>
      </trkpt>
      <trkpt lat="47.68125" lon="6.7672">
        <ele>412.3944</ele>
        <time>2012-09-30T07:50:00Z</time>
      </trkpt>
      <trkpt lat="47.68129" lon="6.76717">
        <ele>412.6992</ele>
        <time>2012-09-30T07:50:01Z</time>
      </trkpt>
      <trkpt lat="47.68133" lon="6.76714">
        <ele>413.3088</ele>
        <time>2012-09-30T07:50:04Z</time>
      </trkpt>
      <trkpt lat="47.68136" lon="6.7671">
        <ele>413.9184</ele>
        <time>2012-09-30T07:50:05Z</time>
      </trkpt>
      <trkpt lat="47.6814" lon="6.76706">
        <ele>414.528</ele>
        <time>2012-09-30T07:50:08Z</time>
      </trkpt>
      <trkpt lat="47.68143" lon="6.76703">
        <ele>414.8328</ele>
        <time>2012-09-30T07:50:09Z</time>
      </trkpt>
      <trkpt lat="47.68146" lon="6.76699">
        <ele>415.1376</ele>
        <time>2012-09-30T07:50:12Z</time>
      </trkpt>
      <trkpt lat="47.68149" lon="6.76694">
        <ele>415.4424</ele>
        <time>2012-09-30T07:50:13Z</time>
      </trkpt>
      <trkpt lat="47.68152" lon="6.7669">
        <ele>416.052</ele>
        <time>2012-09-30T07:50:16Z</time>
      </trkpt>
      <trkpt lat="47.68155" lon="6.76686">
        <ele>416.9664</ele>
        <time>2012-09-30T07:50:17Z</time>
      </trkpt>
      <trkpt lat="47.68157" lon="6.76683">
        <ele>418.1856</ele>
        <time>2012-09-30T07:50:20Z</time>
      </trkpt>
      <trkpt lat="47.6816" lon="6.76679">
        <ele>419.1</ele>
        <time>2012-09-30T07:50:21Z</time>
      </trkpt>
      <trkpt lat="47.68163" lon="6.76675">
        <ele>419.7096</ele>
        <time>2012-09-30T07:50:24Z</time>
      </trkpt>
      <trkpt lat="47.68166" lon="6.7667">
        <ele>420.0144</ele>
        <time>2012-09-30T07:50:25Z</time>
      </trkpt>
      <trkpt lat="47.68168" lon="6.76666">
        <ele>420.9288</ele>
        <time>2012-09-30T07:50:28Z</time>
      </trkpt>
      <trkpt lat="47.68171" lon="6.76662">
        <ele>421.5384</ele>
        <time>2012-09-30T07:50:29Z</time>
      </trkpt>
      <trkpt lat="47.68174" lon="6.76658">
        <ele>421.5384</ele>
        <time>2012-09-30T07:50:32Z</time>
      </trkpt>
      <trkpt lat="47.68177" lon="6.76654">
        <ele>422.4528</ele>
        <time>2012-09-30T07:50:33Z</time>
      </trkpt>
      <trkpt lat="47.6818" lon="6.76649">
        <ele>422.7576</ele>
        <time>2012-09-30T07:50:36Z</time>
      </trkpt>
      <trkpt lat="47.68183" lon="6.76645">
        <ele>423.0624</ele>
        <time>2012-09-30T07:50:37Z</time>
      </trkpt>
      <trkpt lat="47.68187" lon="6.7664">
        <ele>423.0624</ele>
        <time>2012-09-30T07:50:40Z</time>
      </trkpt>
      <trkpt lat="47.6819" lon="6.76636">
        <ele>423.672</ele>
        <time>2012-09-30T07:50:42Z</time>
      </trkpt>
      <trkpt lat="47.68194" lon="6.76631">
        <ele>424.8912</ele>
        <time>2012-09-30T07:50:43Z</time>
      </trkpt>
      <trkpt lat="47.68201" lon="6.76627">
        <ele>423.9768</ele>
        <time>2012-09-30T07:50:46Z</time>
      </trkpt>
      <trkpt lat="47.6821" lon="6.76626">
        <ele>422.7576</ele>
        <time>2012-09-30T07:50:47Z</time>
      </trkpt>
      <trkpt lat="47.68219" lon="6.76627">
        <ele>421.5384</ele>
        <time>2012-09-30T07:50:50Z</time>
      </trkpt>
      <trkpt lat="47.68229" lon="6.76631">
        <ele>420.624</ele>
        <time>2012-09-30T07:50:51Z</time>
      </trkpt>
      <trkpt lat="47.6824" lon="6.76635">
        <ele>420.0144</ele>
        <time>2012-09-30T07:50:54Z</time>
      </trkpt>
      <trkpt lat="47.68251" lon="6.76641">
        <ele>419.1</ele>
        <time>2012-09-30T07:50:55Z</time>
      </trkpt>
      <trkpt lat="47.68262" lon="6.76648">
        <ele>418.4904</ele>
        <time>2012-09-30T07:50:58Z</time>
      </trkpt>
      <trkpt lat="47.68273" lon="6.76656">
        <ele>417.8808</ele>
        <time>2012-09-30T07:50:59Z</time>
      </trkpt>
      <trkpt lat="47.68285" lon="6.76664">
        <ele>416.9664</ele>
        <time>2012-09-30T07:51:02Z</time>
      </trkpt>
      <trkpt lat="47.68295" lon="6.76674">
        <ele>416.6616</ele>
        <time>2012-09-30T07:51:03Z</time>
      </trkpt>
      <trkpt lat="47.68305" lon="6.76682">
        <ele>416.3568</ele>
        <time>2012-09-30T07:51:06Z</time>
      </trkpt>
      <trkpt lat="47.68314" lon="6.76683">
        <ele>416.052</ele>
        <time>2012-09-30T07:51:07Z</time>
      </trkpt>
      <trkpt lat="47.68322" lon="6.7668">
        <ele>415.7472</ele>
        <time>2012-09-30T07:51:10Z</time>
      </trkpt>
      <trkpt lat="47.68328" lon="6.76679">
        <ele>416.052</ele>
        <time>2012-09-30T07:51:11Z</time>
      </trkpt>
      <trkpt lat="47.68335" lon="6.76679">
        <ele>416.3568</ele>
        <time>2012-09-30T07:51:14Z</time>
      </trkpt>
      <trkpt lat="47.68341" lon="6.76679">
        <ele>416.9664</ele>
        <time>2012-09-30T07:51:15Z</time>
      </trkpt>
      <trkpt lat="47.68347" lon="6.7668">
        <ele>417.8808</ele>
        <time>2012-09-30T07:51:18Z</time>
      </trkpt>
      <trkpt lat="47.68354" lon="6.76682">
        <ele>417.576</ele>
        <time>2012-09-30T07:51:19Z</time>
      </trkpt>
      <trkpt lat="47.6836" lon="6.76684">
        <ele>418.7952</ele>
        <time>2012-09-30T07:51:22Z</time>
      </trkpt>
      <trkpt lat="47.68365" lon="6.76685">
        <ele>419.7096</ele>
        <time>2012-09-30T07:51:23Z</time>
      </trkpt>
      <trkpt lat="47.68371" lon="6.76687">
        <ele>420.3192</ele>
        <time>2012-09-30T07:51:26Z</time>
      </trkpt>
      <trkpt lat="47.68377" lon="6.76689">
        <ele>421.5384</ele>
        <time>2012-09-30T07:51:27Z</time>
      </trkpt>
      <trkpt lat="47.68383" lon="6.76692">
        <ele>422.148</ele>
        <time>2012-09-30T07:51:30Z</time>
      </trkpt>
      <trkpt lat="47.68389" lon="6.76693">
        <ele>422.7576</ele>
        <time>2012-09-30T07:51:31Z</time>
      </trkpt>
      <trkpt lat="47.68395" lon="6.76694">
        <ele>423.0624</ele>
        <time>2012-09-30T07:51:34Z</time>
      </trkpt>
      <trkpt lat="47.68402" lon="6.76693">
        <ele>423.672</ele>
        <time>2012-09-30T07:51:36Z</time>
      </trkpt>
      <trkpt lat="47.68409" lon="6.76697">
        <ele>424.8912</ele>
        <time>2012-09-30T07:51:37Z</time>
      </trkpt>
      <trkpt lat="47.68416" lon="6.76703">
        <ele>425.8056</ele>
        <time>2012-09-30T07:51:40Z</time>
      </trkpt>
      <trkpt lat="47.68424" lon="6.76706">
        <ele>426.72</ele>
        <time>2012-09-30T07:51:41Z</time>
      </trkpt>
      <trkpt lat="47.68431" lon="6.76708">
        <ele>427.0248</ele>
        <time>2012-09-30T07:51:44Z</time>
      </trkpt>
      <trkpt lat="47.68437" lon="6.7671">
        <ele>427.6344</ele>
        <time>2012-09-30T07:51:45Z</time>
      </trkpt>
      <trkpt lat="47.68442" lon="6.7671">
        <ele>425.8056</ele>
        <time>2012-09-30T07:51:48Z</time>
      </trkpt>
      <trkpt lat="47.68446" lon="6.7671">
        <ele>424.2816</ele>
        <time>2012-09-30T07:51:49Z</time>
      </trkpt>
      <trkpt lat="47.6845" lon="6.76706">
        <ele>424.5864</ele>
        <time>2012-09-30T07:51:52Z</time>
      </trkpt>
      <trkpt lat="47.68453" lon="6.76697">
        <ele>424.2816</ele>
        <time>2012-09-30T07:51:53Z</time>
      </trkpt>
      <trkpt lat="47.68456" lon="6.76685">
        <ele>424.2816</ele>
        <time>2012-09-30T07:51:56Z</time>
      </trkpt>
      <trkpt lat="47.68463" lon="6.76673">
        <ele>423.672</ele>
        <time>2012-09-30T07:51:57Z</time>
      </trkpt>
      <trkpt lat="47.68475" lon="6.76661">
        <ele>422.148</ele>
        <time>2012-09-30T07:52:00Z</time>
      </trkpt>
      <trkpt lat="47.68489" lon="6.76651">
        <ele>420.3192</ele>
        <time>2012-09-30T07:52:01Z</time>
      </trkpt>
      <trkpt lat="47.68503" lon="6.76643">
        <ele>419.4048</ele>
        <time>2012-09-30T07:52:04Z</time>
      </trkpt>
      <trkpt lat="47.68517" lon="6.76635">
        <ele>418.4904</ele>
        <time>2012-09-30T07:52:05Z</time>
      </trkpt>
      <trkpt lat="47.6853" lon="6.76627">
        <ele>417.576</ele>
        <time>2012-09-30T07:52:08Z</time>
      </trkpt>
      <trkpt lat="47.68543" lon="6.7662">
        <ele>417.2712</ele>
        <time>2012-09-30T07:52:09Z</time>
      </trkpt>
      <trkpt lat="47.68554" lon="6.76613">
        <ele>416.9664</ele>
        <time>2012-09-30T07:52:12Z</time>
      </trkpt>
      <trkpt lat="47.68565" lon="6.76606">
        <ele>416.9664</ele>
        <time>2012-09-30T07:52:13Z</time>
      </trkpt>
      <trkpt lat="47.68574" lon="6.76598">
        <ele>416.6616</ele>
        <time>2012-09-30T07:52:16Z</time>
      </trkpt>
      <trkpt lat="47.68583" lon="6.76591">
        <ele>416.9664</ele>
        <time>2012-09-30T07:52:17Z</time>
      </trkpt>
      <trkpt lat="47.68591" lon="6.76581">
        <ele>417.2712</ele>
        <time>2012-09-30T07:52:20Z</time>
      </trkpt>
      <trkpt lat="47.68599" lon="6.76571">
        <ele>417.8808</ele>
        <time>2012-09-30T07:52:21Z</time>
      </trkpt>
      <trkpt lat="47.68606" lon="6.7656">
        <ele>418.4904</ele>
        <time>2012-09-30T07:52:24Z</time>
      </trkpt>
      <trkpt lat="47.68612" lon="6.76548">
        <ele>419.1</ele>
        <time>2012-09-30T07:52:25Z</time>
      </trkpt>
      <trkpt lat="47.68618" lon="6.76535">
        <ele>419.4048</ele>
        <time>2012-09-30T07:52:28Z</time>
      </trkpt>
      <trkpt lat="47.68626" lon="6.76521">
        <ele>417.2712</ele>
        <time>2012-09-30T07:52:30Z</time>
      </trkpt>
      <trkpt lat="47.68632" lon="6.76507">
        <ele>416.3568</ele>
        <time>2012-09-30T07:52:31Z</time>
      </trkpt>
      <trkpt lat="47.68635" lon="6.76492">
        <ele>415.7472</ele>
        <time>2012-09-30T07:52:34Z</time>
      </trkpt>
      <trkpt lat="47.68635" lon="6.76477">
        <ele>414.8328</ele>
        <time>2012-09-30T07:52:35Z</time>
      </trkpt>
      <trkpt lat="47.68634" lon="6.76462">
        <ele>414.528</ele>
        <time>2012-09-30T07:52:38Z</time>
      </trkpt>
      <trkpt lat="47.68635" lon="6.76448">
        <ele>414.2232</ele>
        <time>2012-09-30T07:52:39Z</time>
      </trkpt>
      <trkpt lat="47.68637" lon="6.76434">
        <ele>414.2232</ele>
        <time>2012-09-30T07:52:42Z</time>
      </trkpt>
      <trkpt lat="47.68638" lon="6.76421">
        <ele>414.2232</ele>
        <time>2012-09-30T07:52:43Z</time>
      </trkpt>
      <trkpt lat="47.6864" lon="6.76409">
        <ele>414.528</ele>
        <time>2012-09-30T07:52:46Z</time>
      </trkpt>
      <trkpt lat="47.68641" lon="6.76398">
        <ele>414.8328</ele>
        <time>2012-09-30T07:52:47Z</time>
      </trkpt>
      <trkpt lat="47.68641" lon="6.76388">
        <ele>415.1376</ele>
        <time>2012-09-30T07:52:50Z</time>
      </trkpt>
      <trkpt lat="47.6864" lon="6.76378">
        <ele>415.4424</ele>
        <time>2012-09-30T07:52:51Z</time>
      </trkpt>
      <trkpt lat="47.68639" lon="6.7637">
        <ele>416.052</ele>
        <time>2012-09-30T07:52:54Z</time>
      </trkpt>
      <trkpt lat="47.68638" lon="6.76362">
        <ele>416.3568</ele>
        <time>2012-09-30T07:52:55Z</time>
      </trkpt>
      <trkpt lat="47.68637" lon="6.76354">
        <ele>416.6616</ele>
        <time>2012-09-30T07:52:58Z</time>
      </trkpt>
      <trkpt lat="47.68636" lon="6.76346">
        <ele>417.2712</ele>
        <time>2012-09-30T07:52:59Z</time>
      </trkpt>
      <trkpt lat="47.68634" lon="6.76338">
        <ele>417.8808</ele>
        <time>2012-09-30T07:53:02Z</time>
      </trkpt>
      <trkpt lat="47.68632" lon="6.76331">
        <ele>418.4904</ele>
        <time>2012-09-30T07:53:03Z</time>
      </trkpt>
      <trkpt lat="47.6863" lon="6.76324">
        <ele>419.1</ele>
        <time>2012-09-30T07:53:06Z</time>
      </trkpt>
      <trkpt lat="47.68629" lon="6.76318">
        <ele>419.7096</ele>
        <time>2012-09-30T07:53:07Z</time>
      </trkpt>
      <trkpt lat="47.68627" lon="6.76313">
        <ele>420.0144</ele>
        <time>2012-09-30T07:53:10Z</time>
      </trkpt>
      <trkpt lat="47.68624" lon="6.76307">
        <ele>420.624</ele>
        <time>2012-09-30T07:53:11Z</time>
      </trkpt>
      <trkpt lat="47.68621" lon="6.76301">
        <ele>420.9288</ele>
        <time>2012-09-30T07:53:14Z</time>
      </trkpt>
      <trkpt lat="47.68618" lon="6.76294">
        <ele>421.5384</ele>
        <time>2012-09-30T07:53:15Z</time>
      </trkpt>
      <trkpt lat="47.68614" lon="6.76288">
        <ele>421.8432</ele>
        <time>2012-09-30T07:53:18Z</time>
      </trkpt>
      <trkpt lat="47.68611" lon="6.7628">
        <ele>422.148</ele>
        <time>2012-09-30T07:53:19Z</time>
      </trkpt>
      <trkpt lat="47.68607" lon="6.76272">
        <ele>422.148</ele>
        <time>2012-09-30T07:53:22Z</time>
      </trkpt>
      <trkpt lat="47.68604" lon="6.76264">
        <ele>422.148</ele>
        <time>2012-09-30T07:53:24Z</time>
      </trkpt>
      <trkpt lat="47.68601" lon="6.76255">
        <ele>421.8432</ele>
        <time>2012-09-30T07:53:25Z</time>
      </trkpt>
      <trkpt lat="47.68598" lon="6.76246">
        <ele>421.8432</ele>
        <time>2012-09-30T07:53:28Z</time>
      </trkpt>
      <trkpt lat="47.68595" lon="6.76236">
        <ele>421.5384</ele>
        <time>2012-09-30T07:53:29Z</time>
      </trkpt>
      <trkpt lat="47.68593" lon="6.76223">
        <ele>420.624</ele>
        <time>2012-09-30T07:53:32Z</time>
      </trkpt>
      <trkpt lat="47.68589" lon="6.76206">
        <ele>419.4048</ele>
        <time>2012-09-30T07:53:33Z</time>
      </trkpt>
      <trkpt lat="47.68584" lon="6.76189">
        <ele>419.1</ele>
        <time>2012-09-30T07:53:36Z</time>
      </trkpt>
      <trkpt lat="47.6858" lon="6.76172">
        <ele>418.7952</ele>
        <time>2012-09-30T07:53:37Z</time>
      </trkpt>
      <trkpt lat="47.68574" lon="6.76158">
        <ele>419.1</ele>
        <time>2012-09-30T07:53:40Z</time>
      </trkpt>
      <trkpt lat="47.6857" lon="6.76144">
        <ele>419.4048</ele>
        <time>2012-09-30T07:53:41Z</time>
      </trkpt>
      <trkpt lat="47.68567" lon="6.76129">
        <ele>419.4048</ele>
        <time>2012-09-30T07:53:44Z</time>
      </trkpt>
      <trkpt lat="47.68566" lon="6.76114">
        <ele>418.7952</ele>
        <time>2012-09-30T07:53:45Z</time>
      </trkpt>
      <trkpt lat="47.68564" lon="6.76101">
        <ele>418.7952</ele>
        <time>2012-09-30T07:53:48Z</time>
      </trkpt>
      <trkpt lat="47.68563" lon="6.76085">
        <ele>416.9664</ele>
        <time>2012-09-30T07:53:49Z</time>
      </trkpt>
      <trkpt lat="47.68563" lon="6.7607">
        <ele>417.2712</ele>
        <time>2012-09-30T07:53:52Z</time>
      </trkpt>
      <trkpt lat="47.68561" lon="6.76055">
        <ele>417.2712</ele>
        <time>2012-09-30T07:53:53Z</time>
      </trkpt>
      <trkpt lat="47.68555" lon="6.76043">
        <ele>416.6616</ele>
        <time>2012-09-30T07:53:56Z</time>
      </trkpt>
      <trkpt lat="47.68547" lon="6.76035">
        <ele>416.3568</ele>
        <time>2012-09-30T07:53:57Z</time>
      </trkpt>
      <trkpt lat="47.68535" lon="6.7603">
        <ele>415.7472</ele>
        <time>2012-09-30T07:54:00Z</time>
      </trkpt>
      <trkpt lat="47.68522" lon="6.76024">
        <ele>414.528</ele>
        <time>2012-09-30T07:54:01Z</time>
      </trkpt>
      <trkpt lat="47.6851" lon="6.76017">
        <ele>416.3568</ele>
        <time>2012-09-30T07:54:04Z</time>
      </trkpt>
      <trkpt lat="47.68501" lon="6.76008">
        <ele>418.1856</ele>
        <time>2012-09-30T07:54:05Z</time>
      </trkpt>
      <trkpt lat="47.68495" lon="6.75999">
        <ele>419.4048</ele>
        <time>2012-09-30T07:54:08Z</time>
      </trkpt>
      <trkpt lat="47.68489" lon="6.75988">
        <ele>420.0144</ele>
        <time>2012-09-30T07:54:09Z</time>
      </trkpt>
      <trkpt lat="47.68483" lon="6.75977">
        <ele>420.624</ele>
        <time>2012-09-30T07:54:12Z</time>
      </trkpt>
      <trkpt lat="47.68475" lon="6.75963">
        <ele>421.2336</ele>
        <time>2012-09-30T07:54:13Z</time>
      </trkpt>
      <trkpt lat="47.68469" lon="6.75949">
        <ele>422.148</ele>
        <time>2012-09-30T07:54:16Z</time>
      </trkpt>
      <trkpt lat="47.68465" lon="6.75936">
        <ele>423.0624</ele>
        <time>2012-09-30T07:54:18Z</time>
      </trkpt>
      <trkpt lat="47.68462" lon="6.75923">
        <ele>423.3672</ele>
        <time>2012-09-30T07:54:19Z</time>
      </trkpt>
      <trkpt lat="47.68457" lon="6.7591">
        <ele>423.672</ele>
        <time>2012-09-30T07:54:22Z</time>
      </trkpt>
      <trkpt lat="47.68452" lon="6.75897">
        <ele>424.5864</ele>
        <time>2012-09-30T07:54:23Z</time>
      </trkpt>
      <trkpt lat="47.68447" lon="6.75885">
        <ele>426.1104</ele>
        <time>2012-09-30T07:54:26Z</time>
      </trkpt>
      <trkpt lat="47.68442" lon="6.75874">
        <ele>427.9392</ele>
        <time>2012-09-30T07:54:27Z</time>
      </trkpt>
      <trkpt lat="47.68438" lon="6.75863">
        <ele>428.5488</ele>
        <time>2012-09-30T07:54:30Z</time>
      </trkpt>
      <trkpt lat="47.68433" lon="6.75854">
        <ele>429.4632</ele>
        <time>2012-09-30T07:54:31Z</time>
      </trkpt>
      <trkpt lat="47.68427" lon="6.75844">
        <ele>427.3296</ele>
        <time>2012-09-30T07:54:34Z</time>
      </trkpt>
      <trkpt lat="47.68418" lon="6.75833">
        <ele>429.1584</ele>
        <time>2012-09-30T07:54:35Z</time>
      </trkpt>
      <trkpt lat="47.6841" lon="6.75826">
        <ele>429.768</ele>
        <time>2012-09-30T07:54:38Z</time>
      </trkpt>
      <trkpt lat="47.68403" lon="6.75819">
        <ele>427.0248</ele>
        <time>2012-09-30T07:54:39Z</time>
      </trkpt>
      <trkpt lat="47.68396" lon="6.75811">
        <ele>423.0624</ele>
        <time>2012-09-30T07:54:42Z</time>
      </trkpt>
      <trkpt lat="47.68387" lon="6.75804">
        <ele>420.3192</ele>
        <time>2012-09-30T07:54:43Z</time>
      </trkpt>
      <trkpt lat="47.68377" lon="6.75799">
        <ele>418.1856</ele>
        <time>2012-09-30T07:54:46Z</time>
      </trkpt>
      <trkpt lat="47.68368" lon="6.75792">
        <ele>416.9664</ele>
        <time>2012-09-30T07:54:47Z</time>
      </trkpt>
      <trkpt lat="47.6836" lon="6.75783">
        <ele>416.052</ele>
        <time>2012-09-30T07:54:50Z</time>
      </trkpt>
      <trkpt lat="47.6835" lon="6.75776">
        <ele>415.1376</ele>
        <time>2012-09-30T07:54:51Z</time>
      </trkpt>
      <trkpt lat="47.68341" lon="6.75774">
        <ele>413.3088</ele>
        <time>2012-09-30T07:54:54Z</time>
      </trkpt>
      <trkpt lat="47.68332" lon="6.75768">
        <ele>411.48</ele>
        <time>2012-09-30T07:54:55Z</time>
      </trkpt>
      <trkpt lat="47.68322" lon="6.75761">
        <ele>409.956</ele>
        <time>2012-09-30T07:54:58Z</time>
      </trkpt>
      <trkpt lat="47.68312" lon="6.75754">
        <ele>408.7368</ele>
        <time>2012-09-30T07:54:59Z</time>
      </trkpt>
      <trkpt lat="47.68304" lon="6.75744">
        <ele>407.2128</ele>
        <time>2012-09-30T07:55:02Z</time>
      </trkpt>
      <trkpt lat="47.68296" lon="6.75732">
        <ele>405.9936</ele>
        <time>2012-09-30T07:55:03Z</time>
      </trkpt>
      <trkpt lat="47.68288" lon="6.75719">
        <ele>405.0792</ele>
        <time>2012-09-30T07:55:06Z</time>
      </trkpt>
      <trkpt lat="47.68282" lon="6.75706">
        <ele>404.1648</ele>
        <time>2012-09-30T07:55:07Z</time>
      </trkpt>
      <trkpt lat="47.68276" lon="6.75693">
        <ele>403.5552</ele>
        <time>2012-09-30T07:55:10Z</time>
      </trkpt>
      <trkpt lat="47.6827" lon="6.7568">
        <ele>403.2504</ele>
        <time>2012-09-30T07:55:12Z</time>
      </trkpt>
      <trkpt lat="47.68266" lon="6.75667">
        <ele>402.9456</ele>
        <time>2012-09-30T07:55:13Z</time>
      </trkpt>
      <trkpt lat="47.68261" lon="6.75654">
        <ele>402.6408</ele>
        <time>2012-09-30T07:55:16Z</time>
      </trkpt>
      <trkpt lat="47.68257" lon="6.75641">
        <ele>402.0312</ele>
        <time>2012-09-30T07:55:17Z</time>
      </trkpt>
      <trkpt lat="47.68253" lon="6.75629">
        <ele>402.0312</ele>
        <time>2012-09-30T07:55:20Z</time>
      </trkpt>
      <trkpt lat="47.68247" lon="6.7562">
        <ele>401.4216</ele>
        <time>2012-09-30T07:55:21Z</time>
      </trkpt>
      <trkpt lat="47.68242" lon="6.75614">
        <ele>401.4216</ele>
        <time>2012-09-30T07:55:24Z</time>
      </trkpt>
      <trkpt lat="47.68236" lon="6.75609">
        <ele>401.4216</ele>
        <time>2012-09-30T07:55:25Z</time>
      </trkpt>
      <trkpt lat="47.68231" lon="6.75603">
        <ele>401.4216</ele>
        <time>2012-09-30T07:55:28Z</time>
      </trkpt>
      <trkpt lat="47.68224" lon="6.75594">
        <ele>401.4216</ele>
        <time>2012-09-30T07:55:29Z</time>
      </trkpt>
      <trkpt lat="47.68218" lon="6.75583">
        <ele>401.1168</ele>
        <time>2012-09-30T07:55:32Z</time>
      </trkpt>
      <trkpt lat="47.68211" lon="6.75571">
        <ele>399.8976</ele>
        <time>2012-09-30T07:55:33Z</time>
      </trkpt>
      <trkpt lat="47.68206" lon="6.75559">
        <ele>399.288</ele>
        <time>2012-09-30T07:55:36Z</time>
      </trkpt>
      <trkpt lat="47.68201" lon="6.75547">
        <ele>398.6784</ele>
        <time>2012-09-30T07:55:37Z</time>
      </trkpt>
      <trkpt lat="47.68197" lon="6.75534">
        <ele>398.0688</ele>
        <time>2012-09-30T07:55:40Z</time>
      </trkpt>
      <trkpt lat="47.68195" lon="6.75518">
        <ele>397.1544</ele>
        <time>2012-09-30T07:55:41Z</time>
      </trkpt>
      <trkpt lat="47.68193" lon="6.75504">
        <ele>395.9352</ele>
        <time>2012-09-30T07:55:44Z</time>
      </trkpt>
      <trkpt lat="47.68192" lon="6.75489">
        <ele>394.4112</ele>
        <time>2012-09-30T07:55:45Z</time>
      </trkpt>
      <trkpt lat="47.68192" lon="6.75475">
        <ele>392.5824</ele>
        <time>2012-09-30T07:55:48Z</time>
      </trkpt>
      <trkpt lat="47.6819" lon="6.75462">
        <ele>391.3632</ele>
        <time>2012-09-30T07:55:49Z</time>
      </trkpt>
      <trkpt lat="47.68188" lon="6.75451">
        <ele>389.8392</ele>
        <time>2012-09-30T07:55:52Z</time>
      </trkpt>
      <trkpt lat="47.68187" lon="6.75442">
        <ele>388.3152</ele>
        <time>2012-09-30T07:55:53Z</time>
      </trkpt>
      <trkpt lat="47.68184" lon="6.75433">
        <ele>387.4008</ele>
        <time>2012-09-30T07:55:56Z</time>
      </trkpt>
      <trkpt lat="47.68183" lon="6.75425">
        <ele>386.1816</ele>
        <time>2012-09-30T07:55:57Z</time>
      </trkpt>
      <trkpt lat="47.68183" lon="6.75418">
        <ele>384.9624</ele>
        <time>2012-09-30T07:56:00Z</time>
      </trkpt>
      <trkpt lat="47.68184" lon="6.75412">
        <ele>385.2672</ele>
        <time>2012-09-30T07:56:01Z</time>
      </trkpt>
      <trkpt lat="47.68185" lon="6.75404">
        <ele>385.572</ele>
        <time>2012-09-30T07:56:04Z</time>
      </trkpt>
      <trkpt lat="47.68188" lon="6.75394">
        <ele>386.1816</ele>
        <time>2012-09-30T07:56:06Z</time>
      </trkpt>
      <trkpt lat="47.68194" lon="6.75381">
        <ele>384.6576</ele>
        <time>2012-09-30T07:56:07Z</time>
      </trkpt>
      <trkpt lat="47.68201" lon="6.75368">
        <ele>383.1336</ele>
        <time>2012-09-30T07:56:10Z</time>
      </trkpt>
      <trkpt lat="47.68206" lon="6.75353">
        <ele>379.7808</ele>
        <time>2012-09-30T07:56:11Z</time>
      </trkpt>
      <trkpt lat="47.6821" lon="6.75343">
        <ele>377.0376</ele>
        <time>2012-09-30T07:56:14Z</time>
      </trkpt>
      <trkpt lat="47.68213" lon="6.75335">
        <ele>374.2944</ele>
        <time>2012-09-30T07:56:15Z</time>
      </trkpt>
      <trkpt lat="47.68214" lon="6.75328">
        <ele>373.6848</ele>
        <time>2012-09-30T07:56:18Z</time>
      </trkpt>
      <trkpt lat="47.68213" lon="6.75322">
        <ele>373.0752</ele>
        <time>2012-09-30T07:56:19Z</time>
      </trkpt>
      <trkpt lat="47.68212" lon="6.75315">
        <ele>373.0752</ele>
        <time>2012-09-30T07:56:22Z</time>
      </trkpt>
      <trkpt lat="47.68211" lon="6.75309">
        <ele>373.9896</ele>
        <time>2012-09-30T07:56:23Z</time>
      </trkpt>
      <trkpt lat="47.68213" lon="6.75302">
        <ele>374.2944</ele>
        <time>2012-09-30T07:56:26Z</time>
      </trkpt>
      <trkpt lat="47.68215" lon="6.75297">
        <ele>374.904</ele>
        <time>2012-09-30T07:56:27Z</time>
      </trkpt>
      <trkpt lat="47.68219" lon="6.75291">
        <ele>375.8184</ele>
        <time>2012-09-30T07:56:30Z</time>
      </trkpt>
      <trkpt lat="47.68224" lon="6.75287">
        <ele>376.7328</ele>
        <time>2012-09-30T07:56:31Z</time>
      </trkpt>
      <trkpt lat="47.68229" lon="6.75282">
        <ele>377.952</ele>
        <time>2012-09-30T07:56:34Z</time>
      </trkpt>
      <trkpt lat="47.68234" lon="6.75277">
        <ele>378.5616</ele>
        <time>2012-09-30T07:56:35Z</time>
      </trkpt>
      <trkpt lat="47.68239" lon="6.75272">
        <ele>379.1712</ele>
        <time>2012-09-30T07:56:38Z</time>
      </trkpt>
      <trkpt lat="47.68244" lon="6.75267">
        <ele>379.7808</ele>
        <time>2012-09-30T07:56:39Z</time>
      </trkpt>
      <trkpt lat="47.68247" lon="6.75262">
        <ele>380.0856</ele>
        <time>2012-09-30T07:56:42Z</time>
      </trkpt>
      <trkpt lat="47.68252" lon="6.75258">
        <ele>380.0856</ele>
        <time>2012-09-30T07:56:43Z</time>
      </trkpt>
      <trkpt lat="47.68257" lon="6.75255">
        <ele>380.0856</ele>
        <time>2012-09-30T07:56:46Z</time>
      </trkpt>
      <trkpt lat="47.68263" lon="6.75253">
        <ele>380.3904</ele>
        <time>2012-09-30T07:56:47Z</time>
      </trkpt>
      <trkpt lat="47.68268" lon="6.75251">
        <ele>381</ele>
        <time>2012-09-30T07:56:50Z</time>
      </trkpt>
      <trkpt lat="47.68273" lon="6.75248">
        <ele>381.3048</ele>
        <time>2012-09-30T07:56:51Z</time>
      </trkpt>
      <trkpt lat="47.68277" lon="6.75246">
        <ele>381.6096</ele>
        <time>2012-09-30T07:56:54Z</time>
      </trkpt>
      <trkpt lat="47.68281" lon="6.75243">
        <ele>382.2192</ele>
        <time>2012-09-30T07:56:55Z</time>
      </trkpt>
      <trkpt lat="47.68284" lon="6.75239">
        <ele>382.8288</ele>
        <time>2012-09-30T07:56:58Z</time>
      </trkpt>
      <trkpt lat="47.68285" lon="6.75234">
        <ele>383.4384</ele>
        <time>2012-09-30T07:57:00Z</time>
      </trkpt>
      <trkpt lat="47.68287" lon="6.75229">
        <ele>384.3528</ele>
        <time>2012-09-30T07:57:01Z</time>
      </trkpt>
      <trkpt lat="47.68287" lon="6.75225">
        <ele>381.9144</ele>
        <time>2012-09-30T07:58:52Z</time>
      </trkpt>
      <trkpt lat="47.68288" lon="6.75222">
        <ele>381.9144</ele>
        <time>2012-09-30T07:58:53Z</time>
      </trkpt>
      <trkpt lat="47.68291" lon="6.75216">
        <ele>381.9144</ele>
        <time>2012-09-30T07:58:56Z</time>
      </trkpt>
      <trkpt lat="47.68294" lon="6.7521">
        <ele>382.2192</ele>
        <time>2012-09-30T07:58:57Z</time>
      </trkpt>
      <trkpt lat="47.68297" lon="6.75201">
        <ele>382.524</ele>
        <time>2012-09-30T07:59:00Z</time>
      </trkpt>
      <trkpt lat="47.68301" lon="6.75194">
        <ele>382.8288</ele>
        <time>2012-09-30T07:59:01Z</time>
      </trkpt>
      <trkpt lat="47.68305" lon="6.75187">
        <ele>383.4384</ele>
        <time>2012-09-30T07:59:04Z</time>
      </trkpt>
      <trkpt lat="47.6831" lon="6.7518">
        <ele>383.7432</ele>
        <time>2012-09-30T07:59:05Z</time>
      </trkpt>
      <trkpt lat="47.68315" lon="6.75175">
        <ele>384.048</ele>
        <time>2012-09-30T07:59:08Z</time>
      </trkpt>
      <trkpt lat="47.6832" lon="6.75169">
        <ele>384.3528</ele>
        <time>2012-09-30T07:59:09Z</time>
      </trkpt>
      <trkpt lat="47.68326" lon="6.75164">
        <ele>384.6576</ele>
        <time>2012-09-30T07:59:12Z</time>
      </trkpt>
      <trkpt lat="47.68331" lon="6.75159">
        <ele>385.2672</ele>
        <time>2012-09-30T07:59:13Z</time>
      </trkpt>
      <trkpt lat="47.68336" lon="6.75156">
        <ele>385.2672</ele>
        <time>2012-09-30T07:59:16Z</time>
      </trkpt>
      <trkpt lat="47.68342" lon="6.75152">
        <ele>385.2672</ele>
        <time>2012-09-30T07:59:17Z</time>
      </trkpt>
      <trkpt lat="47.68349" lon="6.75147">
        <ele>384.9624</ele>
        <time>2012-09-30T07:59:20Z</time>
      </trkpt>
      <trkpt lat="47.68357" lon="6.75144">
        <ele>384.048</ele>
        <time>2012-09-30T07:59:21Z</time>
      </trkpt>
      <trkpt lat="47.68368" lon="6.75141">
        <ele>383.1336</ele>
        <time>2012-09-30T07:59:24Z</time>
      </trkpt>
      <trkpt lat="47.6838" lon="6.75141">
        <ele>381.9144</ele>
        <time>2012-09-30T07:59:25Z</time>
      </trkpt>
      <trkpt lat="47.68394" lon="6.75139">
        <ele>380.6952</ele>
        <time>2012-09-30T07:59:28Z</time>
      </trkpt>
      <trkpt lat="47.68409" lon="6.75134">
        <ele>379.7808</ele>
        <time>2012-09-30T07:59:29Z</time>
      </trkpt>
      <trkpt lat="47.68422" lon="6.75124">
        <ele>379.1712</ele>
        <time>2012-09-30T07:59:32Z</time>
      </trkpt>
      <trkpt lat="47.68433" lon="6.75111">
        <ele>379.1712</ele>
        <time>2012-09-30T07:59:33Z</time>
      </trkpt>
      <trkpt lat="47.68442" lon="6.75094">
        <ele>378.8664</ele>
        <time>2012-09-30T07:59:36Z</time>
      </trkpt>
      <trkpt lat="47.68448" lon="6.75077">
        <ele>378.8664</ele>
        <time>2012-09-30T07:59:37Z</time>
      </trkpt>
      <trkpt lat="47.68453" lon="6.7506">
        <ele>379.1712</ele>
        <time>2012-09-30T07:59:40Z</time>
      </trkpt>
      <trkpt lat="47.68458" lon="6.75045">
        <ele>379.476</ele>
        <time>2012-09-30T07:59:41Z</time>
      </trkpt>
      <trkpt lat="47.68465" lon="6.75034">
        <ele>380.0856</ele>
        <time>2012-09-30T07:59:43Z</time>
      </trkpt>
      <trkpt lat="47.68473" lon="6.7503">
        <ele>380.3904</ele>
        <time>2012-09-30T07:59:46Z</time>
      </trkpt>
      <trkpt lat="47.68481" lon="6.75031">
        <ele>381.3048</ele>
        <time>2012-09-30T07:59:47Z</time>
      </trkpt>
      <trkpt lat="47.68489" lon="6.75033">
        <ele>382.2192</ele>
        <time>2012-09-30T07:59:50Z</time>
      </trkpt>
      <trkpt lat="47.68497" lon="6.75037">
        <ele>383.1336</ele>
        <time>2012-09-30T07:59:51Z</time>
      </trkpt>
      <trkpt lat="47.68504" lon="6.7504">
        <ele>384.048</ele>
        <time>2012-09-30T07:59:54Z</time>
      </trkpt>
      <trkpt lat="47.68512" lon="6.75044">
        <ele>384.6576</ele>
        <time>2012-09-30T07:59:55Z</time>
      </trkpt>
      <trkpt lat="47.68519" lon="6.75048">
        <ele>385.2672</ele>
        <time>2012-09-30T07:59:58Z</time>
      </trkpt>
      <trkpt lat="47.68527" lon="6.75051">
        <ele>385.8768</ele>
        <time>2012-09-30T07:59:59Z</time>
      </trkpt>
      <trkpt lat="47.68534" lon="6.75054">
        <ele>386.4864</ele>
        <time>2012-09-30T08:00:02Z</time>
      </trkpt>
      <trkpt lat="47.68541" lon="6.75057">
        <ele>387.096</ele>
        <time>2012-09-30T08:00:03Z</time>
      </trkpt>
      <trkpt lat="47.68548" lon="6.75058">
        <ele>387.7056</ele>
        <time>2012-09-30T08:00:06Z</time>
      </trkpt>
      <trkpt lat="47.68555" lon="6.75059">
        <ele>388.3152</ele>
        <time>2012-09-30T08:00:07Z</time>
      </trkpt>
      <trkpt lat="47.68562" lon="6.75059">
        <ele>388.9248</ele>
        <time>2012-09-30T08:00:10Z</time>
      </trkpt>
      <trkpt lat="47.68568" lon="6.7506">
        <ele>389.5344</ele>
        <time>2012-09-30T08:00:11Z</time>
      </trkpt>
      <trkpt lat="47.68575" lon="6.75061">
        <ele>389.8392</ele>
        <time>2012-09-30T08:00:14Z</time>
      </trkpt>
      <trkpt lat="47.68581" lon="6.75062">
        <ele>390.4488</ele>
        <time>2012-09-30T08:00:15Z</time>
      </trkpt>
      <trkpt lat="47.68587" lon="6.75063">
        <ele>391.3632</ele>
        <time>2012-09-30T08:00:18Z</time>
      </trkpt>
      <trkpt lat="47.68593" lon="6.75064">
        <ele>391.9728</ele>
        <time>2012-09-30T08:00:19Z</time>
      </trkpt>
      <trkpt lat="47.68599" lon="6.75065">
        <ele>392.2776</ele>
        <time>2012-09-30T08:00:22Z</time>
      </trkpt>
      <trkpt lat="47.68605" lon="6.75068">
        <ele>392.5824</ele>
        <time>2012-09-30T08:00:23Z</time>
      </trkpt>
      <trkpt lat="47.68611" lon="6.75071">
        <ele>393.192</ele>
        <time>2012-09-30T08:00:26Z</time>
      </trkpt>
      <trkpt lat="47.68617" lon="6.75075">
        <ele>393.4968</ele>
        <time>2012-09-30T08:00:27Z</time>
      </trkpt>
      <trkpt lat="47.68623" lon="6.75079">
        <ele>393.8016</ele>
        <time>2012-09-30T08:00:30Z</time>
      </trkpt>
      <trkpt lat="47.68629" lon="6.75084">
        <ele>394.4112</ele>
        <time>2012-09-30T08:00:31Z</time>
      </trkpt>
      <trkpt lat="47.68635" lon="6.75089">
        <ele>394.716</ele>
        <time>2012-09-30T08:00:34Z</time>
      </trkpt>
      <trkpt lat="47.6864" lon="6.75094">
        <ele>395.3256</ele>
        <time>2012-09-30T08:00:35Z</time>
      </trkpt>
      <trkpt lat="47.68645" lon="6.75099">
        <ele>395.6304</ele>
        <time>2012-09-30T08:00:37Z</time>
      </trkpt>
      <trkpt lat="47.6865" lon="6.75102">
        <ele>395.6304</ele>
        <time>2012-09-30T08:00:40Z</time>
      </trkpt>
      <trkpt lat="47.68657" lon="6.75107">
        <ele>395.3256</ele>
        <time>2012-09-30T08:00:41Z</time>
      </trkpt>
      <trkpt lat="47.68665" lon="6.75112">
        <ele>394.716</ele>
        <time>2012-09-30T08:00:44Z</time>
      </trkpt>
      <trkpt lat="47.68676" lon="6.75117">
        <ele>393.8016</ele>
        <time>2012-09-30T08:00:45Z</time>
      </trkpt>
      <trkpt lat="47.68688" lon="6.75122">
        <ele>392.8872</ele>
        <time>2012-09-30T08:00:48Z</time>
      </trkpt>
      <trkpt lat="47.68701" lon="6.75126">
        <ele>392.2776</ele>
        <time>2012-09-30T08:00:49Z</time>
      </trkpt>
      <trkpt lat="47.68714" lon="6.75128">
        <ele>391.668</ele>
        <time>2012-09-30T08:00:52Z</time>
      </trkpt>
      <trkpt lat="47.68727" lon="6.75129">
        <ele>391.3632</ele>
        <time>2012-09-30T08:00:53Z</time>
      </trkpt>
      <trkpt lat="47.6874" lon="6.75128">
        <ele>391.3632</ele>
        <time>2012-09-30T08:00:56Z</time>
      </trkpt>
      <trkpt lat="47.68751" lon="6.75127">
        <ele>391.668</ele>
        <time>2012-09-30T08:00:57Z</time>
      </trkpt>
      <trkpt lat="47.6876" lon="6.75126">
        <ele>391.9728</ele>
        <time>2012-09-30T08:01:00Z</time>
      </trkpt>
      <trkpt lat="47.68769" lon="6.75124">
        <ele>392.5824</ele>
        <time>2012-09-30T08:01:01Z</time>
      </trkpt>
      <trkpt lat="47.68777" lon="6.75123">
        <ele>393.192</ele>
        <time>2012-09-30T08:01:04Z</time>
      </trkpt>
      <trkpt lat="47.68784" lon="6.75123">
        <ele>394.1064</ele>
        <time>2012-09-30T08:01:05Z</time>
      </trkpt>
      <trkpt lat="47.68791" lon="6.75125">
        <ele>394.716</ele>
        <time>2012-09-30T08:01:08Z</time>
      </trkpt>
      <trkpt lat="47.68798" lon="6.75127">
        <ele>395.6304</ele>
        <time>2012-09-30T08:01:09Z</time>
      </trkpt>
      <trkpt lat="47.68805" lon="6.75128">
        <ele>395.9352</ele>
        <time>2012-09-30T08:01:12Z</time>
      </trkpt>
      <trkpt lat="47.68812" lon="6.75129">
        <ele>396.5448</ele>
        <time>2012-09-30T08:01:13Z</time>
      </trkpt>
      <trkpt lat="47.68819" lon="6.7513">
        <ele>397.1544</ele>
        <time>2012-09-30T08:01:16Z</time>
      </trkpt>
      <trkpt lat="47.68825" lon="6.7513">
        <ele>397.764</ele>
        <time>2012-09-30T08:01:17Z</time>
      </trkpt>
      <trkpt lat="47.6883" lon="6.75131">
        <ele>398.3736</ele>
        <time>2012-09-30T08:01:20Z</time>
      </trkpt>
      <trkpt lat="47.68836" lon="6.75131">
        <ele>398.9832</ele>
        <time>2012-09-30T08:01:21Z</time>
      </trkpt>
      <trkpt lat="47.68842" lon="6.75131">
        <ele>398.9832</ele>
        <time>2012-09-30T08:01:24Z</time>
      </trkpt>
      <trkpt lat="47.68848" lon="6.75131">
        <ele>399.288</ele>
        <time>2012-09-30T08:01:25Z</time>
      </trkpt>
      <trkpt lat="47.68854" lon="6.7513">
        <ele>399.5928</ele>
        <time>2012-09-30T08:01:28Z</time>
      </trkpt>
      <trkpt lat="47.6886" lon="6.7513">
        <ele>399.8976</ele>
        <time>2012-09-30T08:01:29Z</time>
      </trkpt>
      <trkpt lat="47.68867" lon="6.75129">
        <ele>399.5928</ele>
        <time>2012-09-30T08:01:31Z</time>
      </trkpt>
      <trkpt lat="47.68874" lon="6.75127">
        <ele>399.288</ele>
        <time>2012-09-30T08:01:34Z</time>
      </trkpt>
      <trkpt lat="47.68883" lon="6.75125">
        <ele>398.6784</ele>
        <time>2012-09-30T08:01:35Z</time>
      </trkpt>
      <trkpt lat="47.68893" lon="6.75122">
        <ele>397.4592</ele>
        <time>2012-09-30T08:01:38Z</time>
      </trkpt>
      <trkpt lat="47.68905" lon="6.75117">
        <ele>396.5448</ele>
        <time>2012-09-30T08:01:39Z</time>
      </trkpt>
      <trkpt lat="47.68917" lon="6.75112">
        <ele>395.9352</ele>
        <time>2012-09-30T08:01:42Z</time>
      </trkpt>
      <trkpt lat="47.68929" lon="6.75108">
        <ele>395.6304</ele>
        <time>2012-09-30T08:01:43Z</time>
      </trkpt>
      <trkpt lat="47.6894" lon="6.75106">
        <ele>395.6304</ele>
        <time>2012-09-30T08:01:46Z</time>
      </trkpt>
      <trkpt lat="47.68951" lon="6.75108">
        <ele>395.6304</ele>
        <time>2012-09-30T08:01:47Z</time>
      </trkpt>
      <trkpt lat="47.6896" lon="6.75112">
        <ele>395.9352</ele>
        <time>2012-09-30T08:01:50Z</time>
      </trkpt>
      <trkpt lat="47.68968" lon="6.75118">
        <ele>396.5448</ele>
        <time>2012-09-30T08:01:51Z</time>
      </trkpt>
      <trkpt lat="47.68974" lon="6.75124">
        <ele>397.1544</ele>
        <time>2012-09-30T08:01:54Z</time>
      </trkpt>
      <trkpt lat="47.68981" lon="6.7513">
        <ele>398.0688</ele>
        <time>2012-09-30T08:01:55Z</time>
      </trkpt>
      <trkpt lat="47.68987" lon="6.75134">
        <ele>398.6784</ele>
        <time>2012-09-30T08:01:58Z</time>
      </trkpt>
      <trkpt lat="47.68993" lon="6.75137">
        <ele>399.288</ele>
        <time>2012-09-30T08:01:59Z</time>
      </trkpt>
      <trkpt lat="47.68999" lon="6.75138">
        <ele>399.8976</ele>
        <time>2012-09-30T08:02:02Z</time>
      </trkpt>
      <trkpt lat="47.69006" lon="6.75139">
        <ele>400.5072</ele>
        <time>2012-09-30T08:02:03Z</time>
      </trkpt>
      <trkpt lat="47.69012" lon="6.75139">
        <ele>400.812</ele>
        <time>2012-09-30T08:02:06Z</time>
      </trkpt>
      <trkpt lat="47.69019" lon="6.75139">
        <ele>401.1168</ele>
        <time>2012-09-30T08:02:07Z</time>
      </trkpt>
      <trkpt lat="47.69026" lon="6.75141">
        <ele>401.4216</ele>
        <time>2012-09-30T08:02:10Z</time>
      </trkpt>
      <trkpt lat="47.69032" lon="6.75142">
        <ele>401.7264</ele>
        <time>2012-09-30T08:02:11Z</time>
      </trkpt>
      <trkpt lat="47.69038" lon="6.75144">
        <ele>402.0312</ele>
        <time>2012-09-30T08:02:14Z</time>
      </trkpt>
      <trkpt lat="47.69044" lon="6.75145">
        <ele>402.336</ele>
        <time>2012-09-30T08:02:15Z</time>
      </trkpt>
      <trkpt lat="47.6905" lon="6.75145">
        <ele>402.9456</ele>
        <time>2012-09-30T08:02:18Z</time>
      </trkpt>
      <trkpt lat="47.69056" lon="6.75144">
        <ele>403.2504</ele>
        <time>2012-09-30T08:02:19Z</time>
      </trkpt>
      <trkpt lat="47.69063" lon="6.75142">
        <ele>403.5552</ele>
        <time>2012-09-30T08:02:22Z</time>
      </trkpt>
      <trkpt lat="47.6907" lon="6.75141">
        <ele>403.5552</ele>
        <time>2012-09-30T08:02:24Z</time>
      </trkpt>
      <trkpt lat="47.69078" lon="6.75141">
        <ele>403.5552</ele>
        <time>2012-09-30T08:02:25Z</time>
      </trkpt>
      <trkpt lat="47.69086" lon="6.75142">
        <ele>403.5552</ele>
        <time>2012-09-30T08:02:28Z</time>
      </trkpt>
      <trkpt lat="47.69094" lon="6.75145">
        <ele>403.5552</ele>
        <time>2012-09-30T08:02:29Z</time>
      </trkpt>
      <trkpt lat="47.69101" lon="6.75148">
        <ele>403.86</ele>
        <time>2012-09-30T08:02:32Z</time>
      </trkpt>
      <trkpt lat="47.69109" lon="6.75151">
        <ele>404.1648</ele>
        <time>2012-09-30T08:02:33Z</time>
      </trkpt>
      <trkpt lat="47.69116" lon="6.75155">
        <ele>404.4696</ele>
        <time>2012-09-30T08:02:36Z</time>
      </trkpt>
      <trkpt lat="47.69124" lon="6.75158">
        <ele>404.4696</ele>
        <time>2012-09-30T08:02:37Z</time>
      </trkpt>
      <trkpt lat="47.69132" lon="6.75161">
        <ele>404.4696</ele>
        <time>2012-09-30T08:02:40Z</time>
      </trkpt>
      <trkpt lat="47.6914" lon="6.75163">
        <ele>404.7744</ele>
        <time>2012-09-30T08:02:41Z</time>
      </trkpt>
      <trkpt lat="47.69147" lon="6.75164">
        <ele>404.7744</ele>
        <time>2012-09-30T08:02:44Z</time>
      </trkpt>
      <trkpt lat="47.69155" lon="6.75166">
        <ele>404.7744</ele>
        <time>2012-09-30T08:02:45Z</time>
      </trkpt>
      <trkpt lat="47.69162" lon="6.75168">
        <ele>405.0792</ele>
        <time>2012-09-30T08:02:48Z</time>
      </trkpt>
      <trkpt lat="47.6917" lon="6.75171">
        <ele>405.384</ele>
        <time>2012-09-30T08:02:49Z</time>
      </trkpt>
      <trkpt lat="47.69177" lon="6.75174">
        <ele>405.6888</ele>
        <time>2012-09-30T08:02:52Z</time>
      </trkpt>
      <trkpt lat="47.69184" lon="6.75177">
        <ele>406.2984</ele>
        <time>2012-09-30T08:02:53Z</time>
      </trkpt>
      <trkpt lat="47.6919" lon="6.75179">
        <ele>406.908</ele>
        <time>2012-09-30T08:02:56Z</time>
      </trkpt>
      <trkpt lat="47.69196" lon="6.75181">
        <ele>407.8224</ele>
        <time>2012-09-30T08:02:57Z</time>
      </trkpt>
      <trkpt lat="47.69201" lon="6.75182">
        <ele>408.432</ele>
        <time>2012-09-30T08:03:00Z</time>
      </trkpt>
      <trkpt lat="47.69206" lon="6.75184">
        <ele>409.3464</ele>
        <time>2012-09-30T08:03:01Z</time>
      </trkpt>
      <trkpt lat="47.69211" lon="6.75184">
        <ele>409.6512</ele>
        <time>2012-09-30T08:03:04Z</time>
      </trkpt>
      <trkpt lat="47.69216" lon="6.75182">
        <ele>409.956</ele>
        <time>2012-09-30T08:03:05Z</time>
      </trkpt>
      <trkpt lat="47.69222" lon="6.7518">
        <ele>410.2608</ele>
        <time>2012-09-30T08:03:08Z</time>
      </trkpt>
      <trkpt lat="47.69227" lon="6.75178">
        <ele>410.5656</ele>
        <time>2012-09-30T08:03:09Z</time>
      </trkpt>
      <trkpt lat="47.69233" lon="6.75176">
        <ele>411.1752</ele>
        <time>2012-09-30T08:03:12Z</time>
      </trkpt>
      <trkpt lat="47.69238" lon="6.75175">
        <ele>411.48</ele>
        <time>2012-09-30T08:03:13Z</time>
      </trkpt>
      <trkpt lat="47.69243" lon="6.75174">
        <ele>411.7848</ele>
        <time>2012-09-30T08:03:16Z</time>
      </trkpt>
      <trkpt lat="47.69249" lon="6.75173">
        <ele>412.3944</ele>
        <time>2012-09-30T08:03:18Z</time>
      </trkpt>
      <trkpt lat="47.69254" lon="6.75173">
        <ele>412.6992</ele>
        <time>2012-09-30T08:03:19Z</time>
      </trkpt>
      <trkpt lat="47.69259" lon="6.75173">
        <ele>413.3088</ele>
        <time>2012-09-30T08:03:22Z</time>
      </trkpt>
      <trkpt lat="47.69264" lon="6.75174">
        <ele>413.9184</ele>
        <time>2012-09-30T08:03:23Z</time>
      </trkpt>
      <trkpt lat="47.69268" lon="6.75174">
        <ele>414.2232</ele>
        <time>2012-09-30T08:03:26Z</time>
      </trkpt>
      <trkpt lat="47.69272" lon="6.75175">
        <ele>414.528</ele>
        <time>2012-09-30T08:03:27Z</time>
      </trkpt>
      <trkpt lat="47.69276" lon="6.75176">
        <ele>414.8328</ele>
        <time>2012-09-30T08:03:30Z</time>
      </trkpt>
      <trkpt lat="47.6928" lon="6.75177">
        <ele>415.4424</ele>
        <time>2012-09-30T08:03:31Z</time>
      </trkpt>
      <trkpt lat="47.69284" lon="6.75179">
        <ele>415.7472</ele>
        <time>2012-09-30T08:03:34Z</time>
      </trkpt>
      <trkpt lat="47.69288" lon="6.75182">
        <ele>416.3568</ele>
        <time>2012-09-30T08:03:35Z</time>
      </trkpt>
      <trkpt lat="47.69292" lon="6.75186">
        <ele>417.2712</ele>
        <time>2012-09-30T08:03:38Z</time>
      </trkpt>
      <trkpt lat="47.69295" lon="6.75189">
        <ele>417.8808</ele>
        <time>2012-09-30T08:03:39Z</time>
      </trkpt>
      <trkpt lat="47.69298" lon="6.75193">
        <ele>418.4904</ele>
        <time>2012-09-30T08:03:42Z</time>
      </trkpt>
      <trkpt lat="47.69301" lon="6.75197">
        <ele>418.4904</ele>
        <time>2012-09-30T08:03:43Z</time>
      </trkpt>
      <trkpt lat="47.69303" lon="6.75201">
        <ele>419.7096</ele>
        <time>2012-09-30T08:03:46Z</time>
      </trkpt>
      <trkpt lat="47.69306" lon="6.75205">
        <ele>420.9288</ele>
        <time>2012-09-30T08:03:47Z</time>
      </trkpt>
      <trkpt lat="47.69308" lon="6.75209">
        <ele>421.8432</ele>
        <time>2012-09-30T08:03:50Z</time>
      </trkpt>
      <trkpt lat="47.69309" lon="6.75214">
        <ele>423.0624</ele>
        <time>2012-09-30T08:03:51Z</time>
      </trkpt>
      <trkpt lat="47.6931" lon="6.75218">
        <ele>424.2816</ele>
        <time>2012-09-30T08:03:54Z</time>
      </trkpt>
      <trkpt lat="47.69312" lon="6.75223">
        <ele>424.8912</ele>
        <time>2012-09-30T08:03:55Z</time>
      </trkpt>
      <trkpt lat="47.69314" lon="6.75227">
        <ele>425.196</ele>
        <time>2012-09-30T08:03:58Z</time>
      </trkpt>
      <trkpt lat="47.69317" lon="6.75231">
        <ele>425.8056</ele>
        <time>2012-09-30T08:03:59Z</time>
      </trkpt>
      <trkpt lat="47.6932" lon="6.75233">
        <ele>426.72</ele>
        <time>2012-09-30T08:04:02Z</time>
      </trkpt>
      <trkpt lat="47.69324" lon="6.75234">
        <ele>427.6344</ele>
        <time>2012-09-30T08:04:03Z</time>
      </trkpt>
      <trkpt lat="47.69327" lon="6.75232">
        <ele>428.8536</ele>
        <time>2012-09-30T08:04:06Z</time>
      </trkpt>
      <trkpt lat="47.69328" lon="6.75228">
        <ele>430.3776</ele>
        <time>2012-09-30T08:04:07Z</time>
      </trkpt>
      <trkpt lat="47.6933" lon="6.75223">
        <ele>430.9872</ele>
        <time>2012-09-30T08:04:10Z</time>
      </trkpt>
      <trkpt lat="47.69332" lon="6.75204">
        <ele>431.5968</ele>
        <time>2012-09-30T08:04:17Z</time>
      </trkpt>
      <trkpt lat="47.69331" lon="6.75198">
        <ele>430.6824</ele>
        <time>2012-09-30T08:04:18Z</time>
      </trkpt>
      <trkpt lat="47.69331" lon="6.75192">
        <ele>431.292</ele>
        <time>2012-09-30T08:04:21Z</time>
      </trkpt>
      <trkpt lat="47.69332" lon="6.75187">
        <ele>432.2064</ele>
        <time>2012-09-30T08:04:22Z</time>
      </trkpt>
      <trkpt lat="47.69335" lon="6.75183">
        <ele>432.2064</ele>
        <time>2012-09-30T08:04:25Z</time>
      </trkpt>
      <trkpt lat="47.69338" lon="6.75182">
        <ele>432.816</ele>
        <time>2012-09-30T08:04:26Z</time>
      </trkpt>
      <trkpt lat="47.69342" lon="6.75181">
        <ele>433.1208</ele>
        <time>2012-09-30T08:04:29Z</time>
      </trkpt>
      <trkpt lat="47.69345" lon="6.7518">
        <ele>433.1208</ele>
        <time>2012-09-30T08:04:30Z</time>
      </trkpt>
      <trkpt lat="47.69349" lon="6.75179">
        <ele>433.1208</ele>
        <time>2012-09-30T08:04:33Z</time>
      </trkpt>
      <trkpt lat="47.69352" lon="6.7518">
        <ele>433.7304</ele>
        <time>2012-09-30T08:04:34Z</time>
      </trkpt>
      <trkpt lat="47.69355" lon="6.75179">
        <ele>434.34</ele>
        <time>2012-09-30T08:04:37Z</time>
      </trkpt>
      <trkpt lat="47.69358" lon="6.75179">
        <ele>434.0352</ele>
        <time>2012-09-30T08:04:39Z</time>
      </trkpt>
      <trkpt lat="47.69361" lon="6.75178">
        <ele>434.34</ele>
        <time>2012-09-30T08:04:40Z</time>
      </trkpt>
      <trkpt lat="47.69364" lon="6.75179">
        <ele>434.9496</ele>
        <time>2012-09-30T08:04:43Z</time>
      </trkpt>
      <trkpt lat="47.69366" lon="6.75179">
        <ele>435.5592</ele>
        <time>2012-09-30T08:04:44Z</time>
      </trkpt>
      <trkpt lat="47.69369" lon="6.75179">
        <ele>436.4736</ele>
        <time>2012-09-30T08:04:47Z</time>
      </trkpt>
      <trkpt lat="47.69371" lon="6.75179">
        <ele>437.9976</ele>
        <time>2012-09-30T08:04:48Z</time>
      </trkpt>
      <trkpt lat="47.69374" lon="6.75178">
        <ele>437.9976</ele>
        <time>2012-09-30T08:04:51Z</time>
      </trkpt>
      <trkpt lat="47.69377" lon="6.75177">
        <ele>437.9976</ele>
        <time>2012-09-30T08:04:52Z</time>
      </trkpt>
      <trkpt lat="47.69379" lon="6.75176">
        <ele>437.9976</ele>
        <time>2012-09-30T08:04:55Z</time>
      </trkpt>
      <trkpt lat="47.69382" lon="6.75176">
        <ele>437.6928</ele>
        <time>2012-09-30T08:04:56Z</time>
      </trkpt>
      <trkpt lat="47.69384" lon="6.75175">
        <ele>437.0832</ele>
        <time>2012-09-30T08:04:59Z</time>
      </trkpt>
      <trkpt lat="47.69387" lon="6.75175">
        <ele>437.6928</ele>
        <time>2012-09-30T08:05:00Z</time>
      </trkpt>
      <trkpt lat="47.6939" lon="6.75175">
        <ele>438.912</ele>
        <time>2012-09-30T08:05:03Z</time>
      </trkpt>
      <trkpt lat="47.69391" lon="6.75177">
        <ele>441.0456</ele>
        <time>2012-09-30T08:05:04Z</time>
      </trkpt>
      <trkpt lat="47.69393" lon="6.75177">
        <ele>443.484</ele>
        <time>2012-09-30T08:05:07Z</time>
      </trkpt>
      <trkpt lat="47.69395" lon="6.75177">
        <ele>445.3128</ele>
        <time>2012-09-30T08:05:08Z</time>
      </trkpt>
      <trkpt lat="47.69397" lon="6.75177">
        <ele>447.1416</ele>
        <time>2012-09-30T08:05:11Z</time>
      </trkpt>
      <trkpt lat="47.694" lon="6.75178">
        <ele>448.6656</ele>
        <time>2012-09-30T08:05:12Z</time>
      </trkpt>
      <trkpt lat="47.69402" lon="6.75178">
        <ele>450.1896</ele>
        <time>2012-09-30T08:05:15Z</time>
      </trkpt>
      <trkpt lat="47.69404" lon="6.75178">
        <ele>451.7136</ele>
        <time>2012-09-30T08:05:18Z</time>
      </trkpt>
      <trkpt lat="47.69406" lon="6.75178">
        <ele>453.5424</ele>
        <time>2012-09-30T08:05:19Z</time>
      </trkpt>
      <trkpt lat="47.69408" lon="6.75178">
        <ele>454.7616</ele>
        <time>2012-09-30T08:05:22Z</time>
      </trkpt>
      <trkpt lat="47.69411" lon="6.75178">
        <ele>455.9808</ele>
        <time>2012-09-30T08:05:23Z</time>
      </trkpt>
      <trkpt lat="47.69413" lon="6.75177">
        <ele>457.8096</ele>
        <time>2012-09-30T08:05:26Z</time>
      </trkpt>
      <trkpt lat="47.69415" lon="6.75177">
        <ele>458.4192</ele>
        <time>2012-09-30T08:05:27Z</time>
      </trkpt>
      <trkpt lat="47.69418" lon="6.75177">
        <ele>458.4192</ele>
        <time>2012-09-30T08:05:30Z</time>
      </trkpt>
      <trkpt lat="47.6942" lon="6.75177">
        <ele>457.8096</ele>
        <time>2012-09-30T08:05:31Z</time>
      </trkpt>
      <trkpt lat="47.69423" lon="6.75177">
        <ele>458.4192</ele>
        <time>2012-09-30T08:05:34Z</time>
      </trkpt>
      <trkpt lat="47.69425" lon="6.75178">
        <ele>459.3336</ele>
        <time>2012-09-30T08:05:35Z</time>
      </trkpt>
      <trkpt lat="47.69428" lon="6.75179">
        <ele>459.9432</ele>
        <time>2012-09-30T08:05:38Z</time>
      </trkpt>
      <trkpt lat="47.6943" lon="6.75179">
        <ele>460.5528</ele>
        <time>2012-09-30T08:05:39Z</time>
      </trkpt>
      <trkpt lat="47.69432" lon="6.75179">
        <ele>461.4672</ele>
        <time>2012-09-30T08:05:42Z</time>
      </trkpt>
      <trkpt lat="47.69434" lon="6.75179">
        <ele>462.0768</ele>
        <time>2012-09-30T08:05:43Z</time>
      </trkpt>
      <trkpt lat="47.69435" lon="6.75178">
        <ele>463.6008</ele>
        <time>2012-09-30T08:05:46Z</time>
      </trkpt>
      <trkpt lat="47.69438" lon="6.75177">
        <ele>464.5152</ele>
        <time>2012-09-30T08:05:47Z</time>
      </trkpt>
      <trkpt lat="47.6944" lon="6.75176">
        <ele>464.5152</ele>
        <time>2012-09-30T08:05:50Z</time>
      </trkpt>
      <trkpt lat="47.69444" lon="6.75176">
        <ele>464.82</ele>
        <time>2012-09-30T08:05:51Z</time>
      </trkpt>
      <trkpt lat="47.69447" lon="6.75176">
        <ele>464.5152</ele>
        <time>2012-09-30T08:05:54Z</time>
      </trkpt>
      <trkpt lat="47.6945" lon="6.75175">
        <ele>464.2104</ele>
        <time>2012-09-30T08:05:55Z</time>
      </trkpt>
      <trkpt lat="47.69453" lon="6.75176">
        <ele>463.9056</ele>
        <time>2012-09-30T08:05:58Z</time>
      </trkpt>
      <trkpt lat="47.69457" lon="6.75175">
        <ele>463.6008</ele>
        <time>2012-09-30T08:06:00Z</time>
      </trkpt>
      <trkpt lat="47.69462" lon="6.75174">
        <ele>462.9912</ele>
        <time>2012-09-30T08:06:01Z</time>
      </trkpt>
      <trkpt lat="47.69466" lon="6.75171">
        <ele>462.9912</ele>
        <time>2012-09-30T08:06:04Z</time>
      </trkpt>
      <trkpt lat="47.6947" lon="6.75169">
        <ele>463.296</ele>
        <time>2012-09-30T08:06:05Z</time>
      </trkpt>
      <trkpt lat="47.69475" lon="6.75166">
        <ele>462.3816</ele>
        <time>2012-09-30T08:06:08Z</time>
      </trkpt>
      <trkpt lat="47.69479" lon="6.75163">
        <ele>462.3816</ele>
        <time>2012-09-30T08:06:09Z</time>
      </trkpt>
      <trkpt lat="47.69483" lon="6.7516">
        <ele>462.6864</ele>
        <time>2012-09-30T08:06:12Z</time>
      </trkpt>
      <trkpt lat="47.69488" lon="6.75157">
        <ele>462.0768</ele>
        <time>2012-09-30T08:06:13Z</time>
      </trkpt>
      <trkpt lat="47.69491" lon="6.75156">
        <ele>462.6864</ele>
        <time>2012-09-30T08:06:16Z</time>
      </trkpt>
      <trkpt lat="47.69496" lon="6.75154">
        <ele>461.772</ele>
        <time>2012-09-30T08:06:17Z</time>
      </trkpt>
      <trkpt lat="47.695" lon="6.75151">
        <ele>461.4672</ele>
        <time>2012-09-30T08:06:20Z</time>
      </trkpt>
      <trkpt lat="47.69506" lon="6.75149">
        <ele>461.4672</ele>
        <time>2012-09-30T08:06:21Z</time>
      </trkpt>
      <trkpt lat="47.69513" lon="6.75146">
        <ele>458.4192</ele>
        <time>2012-09-30T08:06:24Z</time>
      </trkpt>
      <trkpt lat="47.6952" lon="6.75143">
        <ele>459.0288</ele>
        <time>2012-09-30T08:06:25Z</time>
      </trkpt>
      <trkpt lat="47.69526" lon="6.7514">
        <ele>459.3336</ele>
        <time>2012-09-30T08:06:28Z</time>
      </trkpt>
      <trkpt lat="47.69532" lon="6.75136">
        <ele>459.3336</ele>
        <time>2012-09-30T08:06:29Z</time>
      </trkpt>
      <trkpt lat="47.69538" lon="6.75134">
        <ele>459.0288</ele>
        <time>2012-09-30T08:06:32Z</time>
      </trkpt>
      <trkpt lat="47.69544" lon="6.75133">
        <ele>457.8096</ele>
        <time>2012-09-30T08:06:33Z</time>
      </trkpt>
      <trkpt lat="47.6955" lon="6.7513">
        <ele>458.1144</ele>
        <time>2012-09-30T08:06:36Z</time>
      </trkpt>
      <trkpt lat="47.69554" lon="6.75126">
        <ele>457.2</ele>
        <time>2012-09-30T08:06:37Z</time>
      </trkpt>
      <trkpt lat="47.69557" lon="6.75122">
        <ele>457.2</ele>
        <time>2012-09-30T08:06:40Z</time>
      </trkpt>
      <trkpt lat="47.69561" lon="6.75119">
        <ele>457.5048</ele>
        <time>2012-09-30T08:06:41Z</time>
      </trkpt>
      <trkpt lat="47.69564" lon="6.75117">
        <ele>457.2</ele>
        <time>2012-09-30T08:06:44Z</time>
      </trkpt>
      <trkpt lat="47.69568" lon="6.75115">
        <ele>457.2</ele>
        <time>2012-09-30T08:06:45Z</time>
      </trkpt>
      <trkpt lat="47.6957" lon="6.75112">
        <ele>457.2</ele>
        <time>2012-09-30T08:06:48Z</time>
      </trkpt>
      <trkpt lat="47.69573" lon="6.75108">
        <ele>456.8952</ele>
        <time>2012-09-30T08:06:49Z</time>
      </trkpt>
      <trkpt lat="47.69577" lon="6.75102">
        <ele>457.2</ele>
        <time>2012-09-30T08:06:52Z</time>
      </trkpt>
      <trkpt lat="47.69581" lon="6.75098">
        <ele>457.2</ele>
        <time>2012-09-30T08:06:54Z</time>
      </trkpt>
      <trkpt lat="47.69586" lon="6.75098">
        <ele>458.1144</ele>
        <time>2012-09-30T08:06:55Z</time>
      </trkpt>
      <trkpt lat="47.69589" lon="6.75096">
        <ele>458.1144</ele>
        <time>2012-09-30T08:06:58Z</time>
      </trkpt>
      <trkpt lat="47.69593" lon="6.75096">
        <ele>458.4192</ele>
        <time>2012-09-30T08:06:59Z</time>
      </trkpt>
      <trkpt lat="47.69597" lon="6.75095">
        <ele>458.724</ele>
        <time>2012-09-30T08:07:02Z</time>
      </trkpt>
      <trkpt lat="47.696" lon="6.75093">
        <ele>458.724</ele>
        <time>2012-09-30T08:07:03Z</time>
      </trkpt>
      <trkpt lat="47.69603" lon="6.75092">
        <ele>459.0288</ele>
        <time>2012-09-30T08:07:06Z</time>
      </trkpt>
      <trkpt lat="47.69605" lon="6.75091">
        <ele>459.6384</ele>
        <time>2012-09-30T08:07:07Z</time>
      </trkpt>
      <trkpt lat="47.69608" lon="6.7509">
        <ele>460.5528</ele>
        <time>2012-09-30T08:07:10Z</time>
      </trkpt>
      <trkpt lat="47.69611" lon="6.75089">
        <ele>461.4672</ele>
        <time>2012-09-30T08:07:11Z</time>
      </trkpt>
      <trkpt lat="47.69614" lon="6.75088">
        <ele>462.3816</ele>
        <time>2012-09-30T08:07:14Z</time>
      </trkpt>
      <trkpt lat="47.69616" lon="6.75087">
        <ele>463.6008</ele>
        <time>2012-09-30T08:07:15Z</time>
      </trkpt>
      <trkpt lat="47.69619" lon="6.75087">
        <ele>465.1248</ele>
        <time>2012-09-30T08:07:18Z</time>
      </trkpt>
      <trkpt lat="47.69622" lon="6.75087">
        <ele>466.344</ele>
        <time>2012-09-30T08:07:19Z</time>
      </trkpt>
      <trkpt lat="47.69625" lon="6.75086">
        <ele>466.344</ele>
        <time>2012-09-30T08:07:22Z</time>
      </trkpt>
      <trkpt lat="47.69628" lon="6.75085">
        <ele>466.9536</ele>
        <time>2012-09-30T08:07:23Z</time>
      </trkpt>
      <trkpt lat="47.69631" lon="6.75085">
        <ele>467.5632</ele>
        <time>2012-09-30T08:07:26Z</time>
      </trkpt>
      <trkpt lat="47.69633" lon="6.75084">
        <ele>468.1728</ele>
        <time>2012-09-30T08:07:27Z</time>
      </trkpt>
      <trkpt lat="47.69636" lon="6.75083">
        <ele>468.4776</ele>
        <time>2012-09-30T08:07:30Z</time>
      </trkpt>
      <trkpt lat="47.69639" lon="6.75083">
        <ele>469.6968</ele>
        <time>2012-09-30T08:07:31Z</time>
      </trkpt>
      <trkpt lat="47.69641" lon="6.75082">
        <ele>470.6112</ele>
        <time>2012-09-30T08:07:34Z</time>
      </trkpt>
      <trkpt lat="47.69644" lon="6.75081">
        <ele>471.2208</ele>
        <time>2012-09-30T08:07:35Z</time>
      </trkpt>
      <trkpt lat="47.69648" lon="6.7508">
        <ele>471.2208</ele>
        <time>2012-09-30T08:07:38Z</time>
      </trkpt>
      <trkpt lat="47.69652" lon="6.7508">
        <ele>470.916</ele>
        <time>2012-09-30T08:07:39Z</time>
      </trkpt>
      <trkpt lat="47.69654" lon="6.7508">
        <ele>472.1352</ele>
        <time>2012-09-30T08:07:42Z</time>
      </trkpt>
      <trkpt lat="47.69657" lon="6.75081">
        <ele>473.0496</ele>
        <time>2012-09-30T08:07:43Z</time>
      </trkpt>
      <trkpt lat="47.6966" lon="6.7508">
        <ele>473.3544</ele>
        <time>2012-09-30T08:07:46Z</time>
      </trkpt>
      <trkpt lat="47.69663" lon="6.7508">
        <ele>473.6592</ele>
        <time>2012-09-30T08:07:48Z</time>
      </trkpt>
      <trkpt lat="47.69666" lon="6.75078">
        <ele>474.5736</ele>
        <time>2012-09-30T08:07:49Z</time>
      </trkpt>
      <trkpt lat="47.69669" lon="6.75077">
        <ele>475.1832</ele>
        <time>2012-09-30T08:07:52Z</time>
      </trkpt>
      <trkpt lat="47.69671" lon="6.75076">
        <ele>476.0976</ele>
        <time>2012-09-30T08:07:53Z</time>
      </trkpt>
      <trkpt lat="47.69674" lon="6.75075">
        <ele>476.7072</ele>
        <time>2012-09-30T08:07:56Z</time>
      </trkpt>
      <trkpt lat="47.69677" lon="6.75073">
        <ele>477.3168</ele>
        <time>2012-09-30T08:07:57Z</time>
      </trkpt>
      <trkpt lat="47.6968" lon="6.75072">
        <ele>477.3168</ele>
        <time>2012-09-30T08:08:00Z</time>
      </trkpt>
      <trkpt lat="47.69682" lon="6.75071">
        <ele>477.9264</ele>
        <time>2012-09-30T08:08:01Z</time>
      </trkpt>
      <trkpt lat="47.69685" lon="6.7507">
        <ele>478.8408</ele>
        <time>2012-09-30T08:08:04Z</time>
      </trkpt>
      <trkpt lat="47.69687" lon="6.75067">
        <ele>479.1456</ele>
        <time>2012-09-30T08:08:05Z</time>
      </trkpt>
      <trkpt lat="47.69689" lon="6.75065">
        <ele>478.8408</ele>
        <time>2012-09-30T08:08:08Z</time>
      </trkpt>
      <trkpt lat="47.69692" lon="6.75062">
        <ele>477.9264</ele>
        <time>2012-09-30T08:08:09Z</time>
      </trkpt>
      <trkpt lat="47.69695" lon="6.75061">
        <ele>476.7072</ele>
        <time>2012-09-30T08:08:12Z</time>
      </trkpt>
      <trkpt lat="47.69698" lon="6.75062">
        <ele>475.1832</ele>
        <time>2012-09-30T08:08:13Z</time>
      </trkpt>
      <trkpt lat="47.69701" lon="6.75067">
        <ele>473.964</ele>
        <time>2012-09-30T08:08:16Z</time>
      </trkpt>
      <trkpt lat="47.69702" lon="6.75075">
        <ele>472.7448</ele>
        <time>2012-09-30T08:08:17Z</time>
      </trkpt>
      <trkpt lat="47.69706" lon="6.75084">
        <ele>471.2208</ele>
        <time>2012-09-30T08:08:20Z</time>
      </trkpt>
      <trkpt lat="47.69713" lon="6.75092">
        <ele>470.6112</ele>
        <time>2012-09-30T08:08:21Z</time>
      </trkpt>
      <trkpt lat="47.69723" lon="6.75097">
        <ele>470.0016</ele>
        <time>2012-09-30T08:08:24Z</time>
      </trkpt>
      <trkpt lat="47.69732" lon="6.751">
        <ele>470.0016</ele>
        <time>2012-09-30T08:08:25Z</time>
      </trkpt>
      <trkpt lat="47.69741" lon="6.75104">
        <ele>469.6968</ele>
        <time>2012-09-30T08:08:28Z</time>
      </trkpt>
      <trkpt lat="47.69751" lon="6.75108">
        <ele>469.0872</ele>
        <time>2012-09-30T08:08:29Z</time>
      </trkpt>
      <trkpt lat="47.69761" lon="6.75115">
        <ele>468.4776</ele>
        <time>2012-09-30T08:08:32Z</time>
      </trkpt>
      <trkpt lat="47.6977" lon="6.75126">
        <ele>467.2584</ele>
        <time>2012-09-30T08:08:33Z</time>
      </trkpt>
      <trkpt lat="47.69774" lon="6.75142">
        <ele>465.4296</ele>
        <time>2012-09-30T08:08:36Z</time>
      </trkpt>
      <trkpt lat="47.69773" lon="6.75163">
        <ele>463.296</ele>
        <time>2012-09-30T08:08:37Z</time>
      </trkpt>
      <trkpt lat="47.69769" lon="6.75185">
        <ele>461.4672</ele>
        <time>2012-09-30T08:08:40Z</time>
      </trkpt>
      <trkpt lat="47.69766" lon="6.7521">
        <ele>459.0288</ele>
        <time>2012-09-30T08:08:42Z</time>
      </trkpt>
      <trkpt lat="47.69765" lon="6.75236">
        <ele>456.8952</ele>
        <time>2012-09-30T08:08:43Z</time>
      </trkpt>
      <trkpt lat="47.69767" lon="6.75258">
        <ele>455.0664</ele>
        <time>2012-09-30T08:08:46Z</time>
      </trkpt>
      <trkpt lat="47.69775" lon="6.75272">
        <ele>453.5424</ele>
        <time>2012-09-30T08:08:47Z</time>
      </trkpt>
      <trkpt lat="47.69788" lon="6.75277">
        <ele>451.4088</ele>
        <time>2012-09-30T08:08:50Z</time>
      </trkpt>
      <trkpt lat="47.69801" lon="6.75275">
        <ele>449.58</ele>
        <time>2012-09-30T08:08:51Z</time>
      </trkpt>
      <trkpt lat="47.69812" lon="6.75273">
        <ele>447.7512</ele>
        <time>2012-09-30T08:08:54Z</time>
      </trkpt>
      <trkpt lat="47.6982" lon="6.75276">
        <ele>446.532</ele>
        <time>2012-09-30T08:08:55Z</time>
      </trkpt>
      <trkpt lat="47.69824" lon="6.75285">
        <ele>445.6176</ele>
        <time>2012-09-30T08:08:58Z</time>
      </trkpt>
      <trkpt lat="47.69822" lon="6.75296">
        <ele>445.9224</ele>
        <time>2012-09-30T08:08:59Z</time>
      </trkpt>
      <trkpt lat="47.69821" lon="6.75305">
        <ele>446.532</ele>
        <time>2012-09-30T08:09:02Z</time>
      </trkpt>
      <trkpt lat="47.69819" lon="6.75314">
        <ele>447.4464</ele>
        <time>2012-09-30T08:09:03Z</time>
      </trkpt>
      <trkpt lat="47.69817" lon="6.75322">
        <ele>448.6656</ele>
        <time>2012-09-30T08:09:06Z</time>
      </trkpt>
      <trkpt lat="47.69815" lon="6.75329">
        <ele>449.8848</ele>
        <time>2012-09-30T08:09:07Z</time>
      </trkpt>
      <trkpt lat="47.69813" lon="6.75336">
        <ele>451.104</ele>
        <time>2012-09-30T08:09:10Z</time>
      </trkpt>
      <trkpt lat="47.69811" lon="6.75342">
        <ele>452.3232</ele>
        <time>2012-09-30T08:09:11Z</time>
      </trkpt>
      <trkpt lat="47.69808" lon="6.75348">
        <ele>453.5424</ele>
        <time>2012-09-30T08:09:14Z</time>
      </trkpt>
      <trkpt lat="47.69806" lon="6.75354">
        <ele>454.4568</ele>
        <time>2012-09-30T08:09:15Z</time>
      </trkpt>
      <trkpt lat="47.69803" lon="6.75361">
        <ele>455.0664</ele>
        <time>2012-09-30T08:09:18Z</time>
      </trkpt>
      <trkpt lat="47.69801" lon="6.75368">
        <ele>455.676</ele>
        <time>2012-09-30T08:09:19Z</time>
      </trkpt>
      <trkpt lat="47.69797" lon="6.75374">
        <ele>456.2856</ele>
        <time>2012-09-30T08:09:22Z</time>
      </trkpt>
      <trkpt lat="47.69794" lon="6.7538">
        <ele>456.5904</ele>
        <time>2012-09-30T08:09:23Z</time>
      </trkpt>
      <trkpt lat="47.69791" lon="6.75386">
        <ele>457.2</ele>
        <time>2012-09-30T08:09:26Z</time>
      </trkpt>
      <trkpt lat="47.69788" lon="6.75392">
        <ele>457.8096</ele>
        <time>2012-09-30T08:09:27Z</time>
      </trkpt>
      <trkpt lat="47.69785" lon="6.75398">
        <ele>458.4192</ele>
        <time>2012-09-30T08:09:30Z</time>
      </trkpt>
      <trkpt lat="47.69782" lon="6.75404">
        <ele>459.0288</ele>
        <time>2012-09-30T08:09:31Z</time>
      </trkpt>
      <trkpt lat="47.69779" lon="6.75409">
        <ele>459.3336</ele>
        <time>2012-09-30T08:09:34Z</time>
      </trkpt>
      <trkpt lat="47.69776" lon="6.75415">
        <ele>459.6384</ele>
        <time>2012-09-30T08:09:35Z</time>
      </trkpt>
      <trkpt lat="47.69773" lon="6.75421">
        <ele>460.248</ele>
        <time>2012-09-30T08:09:37Z</time>
      </trkpt>
      <trkpt lat="47.69771" lon="6.75426">
        <ele>460.8576</ele>
        <time>2012-09-30T08:09:40Z</time>
      </trkpt>
      <trkpt lat="47.69768" lon="6.75432">
        <ele>461.1624</ele>
        <time>2012-09-30T08:09:41Z</time>
      </trkpt>
      <trkpt lat="47.69766" lon="6.75438">
        <ele>461.4672</ele>
        <time>2012-09-30T08:09:44Z</time>
      </trkpt>
      <trkpt lat="47.69764" lon="6.75444">
        <ele>461.772</ele>
        <time>2012-09-30T08:09:45Z</time>
      </trkpt>
      <trkpt lat="47.69762" lon="6.7545">
        <ele>462.0768</ele>
        <time>2012-09-30T08:09:48Z</time>
      </trkpt>
      <trkpt lat="47.69761" lon="6.75456">
        <ele>462.3816</ele>
        <time>2012-09-30T08:09:49Z</time>
      </trkpt>
      <trkpt lat="47.69759" lon="6.75462">
        <ele>462.6864</ele>
        <time>2012-09-30T08:09:52Z</time>
      </trkpt>
      <trkpt lat="47.69758" lon="6.75468">
        <ele>462.9912</ele>
        <time>2012-09-30T08:09:53Z</time>
      </trkpt>
      <trkpt lat="47.69757" lon="6.75475">
        <ele>462.9912</ele>
        <time>2012-09-30T08:09:56Z</time>
      </trkpt>
      <trkpt lat="47.69755" lon="6.75481">
        <ele>463.296</ele>
        <time>2012-09-30T08:09:57Z</time>
      </trkpt>
      <trkpt lat="47.69754" lon="6.75488">
        <ele>463.6008</ele>
        <time>2012-09-30T08:10:00Z</time>
      </trkpt>
      <trkpt lat="47.69754" lon="6.75494">
        <ele>463.9056</ele>
        <time>2012-09-30T08:10:01Z</time>
      </trkpt>
      <trkpt lat="47.69753" lon="6.75501">
        <ele>464.2104</ele>
        <time>2012-09-30T08:10:04Z</time>
      </trkpt>
      <trkpt lat="47.69752" lon="6.75508">
        <ele>464.82</ele>
        <time>2012-09-30T08:10:05Z</time>
      </trkpt>
      <trkpt lat="47.69751" lon="6.75515">
        <ele>465.4296</ele>
        <time>2012-09-30T08:10:08Z</time>
      </trkpt>
      <trkpt lat="47.69751" lon="6.75521">
        <ele>466.0392</ele>
        <time>2012-09-30T08:10:09Z</time>
      </trkpt>
      <trkpt lat="47.6975" lon="6.75528">
        <ele>466.6488</ele>
        <time>2012-09-30T08:10:12Z</time>
      </trkpt>
      <trkpt lat="47.69749" lon="6.75534">
        <ele>467.2584</ele>
        <time>2012-09-30T08:10:13Z</time>
      </trkpt>
      <trkpt lat="47.69748" lon="6.7554">
        <ele>467.5632</ele>
        <time>2012-09-30T08:10:16Z</time>
      </trkpt>
      <trkpt lat="47.69748" lon="6.75546">
        <ele>468.4776</ele>
        <time>2012-09-30T08:10:17Z</time>
      </trkpt>
      <trkpt lat="47.69747" lon="6.75552">
        <ele>469.6968</ele>
        <time>2012-09-30T08:10:20Z</time>
      </trkpt>
      <trkpt lat="47.69746" lon="6.75559">
        <ele>470.0016</ele>
        <time>2012-09-30T08:10:21Z</time>
      </trkpt>
      <trkpt lat="47.69745" lon="6.75566">
        <ele>470.916</ele>
        <time>2012-09-30T08:10:24Z</time>
      </trkpt>
      <trkpt lat="47.69744" lon="6.75572">
        <ele>471.5256</ele>
        <time>2012-09-30T08:10:25Z</time>
      </trkpt>
      <trkpt lat="47.69743" lon="6.75579">
        <ele>472.1352</ele>
        <time>2012-09-30T08:10:28Z</time>
      </trkpt>
      <trkpt lat="47.69742" lon="6.75586">
        <ele>472.7448</ele>
        <time>2012-09-30T08:10:29Z</time>
      </trkpt>
      <trkpt lat="47.69741" lon="6.75592">
        <ele>473.3544</ele>
        <time>2012-09-30T08:10:31Z</time>
      </trkpt>
      <trkpt lat="47.69739" lon="6.75598">
        <ele>474.2688</ele>
        <time>2012-09-30T08:10:34Z</time>
      </trkpt>
      <trkpt lat="47.69737" lon="6.75603">
        <ele>475.1832</ele>
        <time>2012-09-30T08:10:35Z</time>
      </trkpt>
      <trkpt lat="47.69734" lon="6.75609">
        <ele>475.488</ele>
        <time>2012-09-30T08:10:38Z</time>
      </trkpt>
      <trkpt lat="47.69732" lon="6.75615">
        <ele>476.0976</ele>
        <time>2012-09-30T08:10:39Z</time>
      </trkpt>
      <trkpt lat="47.69731" lon="6.7562">
        <ele>476.7072</ele>
        <time>2012-09-30T08:10:42Z</time>
      </trkpt>
      <trkpt lat="47.6973" lon="6.75627">
        <ele>477.012</ele>
        <time>2012-09-30T08:10:43Z</time>
      </trkpt>
      <trkpt lat="47.6973" lon="6.75634">
        <ele>477.6216</ele>
        <time>2012-09-30T08:10:46Z</time>
      </trkpt>
      <trkpt lat="47.6973" lon="6.75641">
        <ele>477.9264</ele>
        <time>2012-09-30T08:10:47Z</time>
      </trkpt>
      <trkpt lat="47.69729" lon="6.75649">
        <ele>478.2312</ele>
        <time>2012-09-30T08:10:50Z</time>
      </trkpt>
      <trkpt lat="47.69729" lon="6.75657">
        <ele>477.6216</ele>
        <time>2012-09-30T08:10:51Z</time>
      </trkpt>
      <trkpt lat="47.6973" lon="6.75666">
        <ele>477.6216</ele>
        <time>2012-09-30T08:10:54Z</time>
      </trkpt>
      <trkpt lat="47.6973" lon="6.75673">
        <ele>477.6216</ele>
        <time>2012-09-30T08:10:55Z</time>
      </trkpt>
      <trkpt lat="47.69731" lon="6.75681">
        <ele>478.536</ele>
        <time>2012-09-30T08:10:58Z</time>
      </trkpt>
      <trkpt lat="47.69732" lon="6.75688">
        <ele>479.4504</ele>
        <time>2012-09-30T08:10:59Z</time>
      </trkpt>
      <trkpt lat="47.69734" lon="6.75693">
        <ele>480.3648</ele>
        <time>2012-09-30T08:11:02Z</time>
      </trkpt>
      <trkpt lat="47.69735" lon="6.75699">
        <ele>481.2792</ele>
        <time>2012-09-30T08:11:03Z</time>
      </trkpt>
      <trkpt lat="47.69736" lon="6.75704">
        <ele>482.4984</ele>
        <time>2012-09-30T08:11:06Z</time>
      </trkpt>
      <trkpt lat="47.69737" lon="6.75707">
        <ele>484.3272</ele>
        <time>2012-09-30T08:11:07Z</time>
      </trkpt>
      <trkpt lat="47.69738" lon="6.75712">
        <ele>486.156</ele>
        <time>2012-09-30T08:11:10Z</time>
      </trkpt>
      <trkpt lat="47.69738" lon="6.75716">
        <ele>487.3752</ele>
        <time>2012-09-30T08:11:11Z</time>
      </trkpt>
      <trkpt lat="47.69738" lon="6.75721">
        <ele>488.5944</ele>
        <time>2012-09-30T08:11:14Z</time>
      </trkpt>
      <trkpt lat="47.69739" lon="6.75725">
        <ele>489.8136</ele>
        <time>2012-09-30T08:11:15Z</time>
      </trkpt>
      <trkpt lat="47.6974" lon="6.7573">
        <ele>489.8136</ele>
        <time>2012-09-30T08:11:18Z</time>
      </trkpt>
      <trkpt lat="47.69741" lon="6.75735">
        <ele>491.6424</ele>
        <time>2012-09-30T08:11:19Z</time>
      </trkpt>
      <trkpt lat="47.69742" lon="6.75739">
        <ele>493.4712</ele>
        <time>2012-09-30T08:11:22Z</time>
      </trkpt>
      <trkpt lat="47.69742" lon="6.75743">
        <ele>494.3856</ele>
        <time>2012-09-30T08:11:23Z</time>
      </trkpt>
      <trkpt lat="47.69743" lon="6.75748">
        <ele>495.9096</ele>
        <time>2012-09-30T08:11:25Z</time>
      </trkpt>
      <trkpt lat="47.69743" lon="6.75753">
        <ele>496.824</ele>
        <time>2012-09-30T08:11:28Z</time>
      </trkpt>
      <trkpt lat="47.69743" lon="6.75757">
        <ele>497.7384</ele>
        <time>2012-09-30T08:11:29Z</time>
      </trkpt>
      <trkpt lat="47.69744" lon="6.75762">
        <ele>498.348</ele>
        <time>2012-09-30T08:11:32Z</time>
      </trkpt>
      <trkpt lat="47.69744" lon="6.75767">
        <ele>498.9576</ele>
        <time>2012-09-30T08:11:33Z</time>
      </trkpt>
      <trkpt lat="47.69745" lon="6.75772">
        <ele>500.1768</ele>
        <time>2012-09-30T08:11:36Z</time>
      </trkpt>
      <trkpt lat="47.69745" lon="6.75777">
        <ele>501.7008</ele>
        <time>2012-09-30T08:11:37Z</time>
      </trkpt>
      <trkpt lat="47.69746" lon="6.75781">
        <ele>502.92</ele>
        <time>2012-09-30T08:11:40Z</time>
      </trkpt>
      <trkpt lat="47.69747" lon="6.75786">
        <ele>504.444</ele>
        <time>2012-09-30T08:11:41Z</time>
      </trkpt>
      <trkpt lat="47.69747" lon="6.75791">
        <ele>505.968</ele>
        <time>2012-09-30T08:11:44Z</time>
      </trkpt>
      <trkpt lat="47.69748" lon="6.75796">
        <ele>506.8824</ele>
        <time>2012-09-30T08:11:45Z</time>
      </trkpt>
      <trkpt lat="47.6975" lon="6.75801">
        <ele>507.7968</ele>
        <time>2012-09-30T08:11:48Z</time>
      </trkpt>
      <trkpt lat="47.69751" lon="6.75806">
        <ele>508.7112</ele>
        <time>2012-09-30T08:11:49Z</time>
      </trkpt>
      <trkpt lat="47.69752" lon="6.7581">
        <ele>509.3208</ele>
        <time>2012-09-30T08:11:52Z</time>
      </trkpt>
      <trkpt lat="47.69753" lon="6.75815">
        <ele>509.9304</ele>
        <time>2012-09-30T08:11:53Z</time>
      </trkpt>
      <trkpt lat="47.69754" lon="6.7582">
        <ele>510.54</ele>
        <time>2012-09-30T08:11:56Z</time>
      </trkpt>
      <trkpt lat="47.69755" lon="6.75824">
        <ele>510.8448</ele>
        <time>2012-09-30T08:11:57Z</time>
      </trkpt>
      <trkpt lat="47.69756" lon="6.75829">
        <ele>511.1496</ele>
        <time>2012-09-30T08:12:00Z</time>
      </trkpt>
      <trkpt lat="47.69757" lon="6.75834">
        <ele>511.1496</ele>
        <time>2012-09-30T08:12:01Z</time>
      </trkpt>
      <trkpt lat="47.69758" lon="6.75839">
        <ele>511.4544</ele>
        <time>2012-09-30T08:12:04Z</time>
      </trkpt>
      <trkpt lat="47.6976" lon="6.75844">
        <ele>511.4544</ele>
        <time>2012-09-30T08:12:05Z</time>
      </trkpt>
      <trkpt lat="47.6976" lon="6.75849">
        <ele>511.7592</ele>
        <time>2012-09-30T08:12:08Z</time>
      </trkpt>
      <trkpt lat="47.69762" lon="6.75854">
        <ele>512.064</ele>
        <time>2012-09-30T08:12:09Z</time>
      </trkpt>
      <trkpt lat="47.69763" lon="6.75859">
        <ele>512.3688</ele>
        <time>2012-09-30T08:12:12Z</time>
      </trkpt>
      <trkpt lat="47.69764" lon="6.75865">
        <ele>512.9784</ele>
        <time>2012-09-30T08:12:13Z</time>
      </trkpt>
      <trkpt lat="47.69765" lon="6.75871">
        <ele>513.588</ele>
        <time>2012-09-30T08:12:16Z</time>
      </trkpt>
      <trkpt lat="47.69767" lon="6.75878">
        <ele>513.588</ele>
        <time>2012-09-30T08:12:17Z</time>
      </trkpt>
      <trkpt lat="47.69768" lon="6.75885">
        <ele>513.2832</ele>
        <time>2012-09-30T08:12:19Z</time>
      </trkpt>
      <trkpt lat="47.6977" lon="6.75893">
        <ele>510.8448</ele>
        <time>2012-09-30T08:12:22Z</time>
      </trkpt>
      <trkpt lat="47.69772" lon="6.75901">
        <ele>508.7112</ele>
        <time>2012-09-30T08:12:23Z</time>
      </trkpt>
      <trkpt lat="47.69773" lon="6.75908">
        <ele>508.1016</ele>
        <time>2012-09-30T08:12:26Z</time>
      </trkpt>
      <trkpt lat="47.69775" lon="6.75914">
        <ele>509.3208</ele>
        <time>2012-09-30T08:12:27Z</time>
      </trkpt>
      <trkpt lat="47.69776" lon="6.75921">
        <ele>510.8448</ele>
        <time>2012-09-30T08:12:30Z</time>
      </trkpt>
      <trkpt lat="47.69777" lon="6.75928">
        <ele>512.064</ele>
        <time>2012-09-30T08:12:31Z</time>
      </trkpt>
      <trkpt lat="47.69778" lon="6.75935">
        <ele>513.8928</ele>
        <time>2012-09-30T08:12:34Z</time>
      </trkpt>
      <trkpt lat="47.6978" lon="6.75941">
        <ele>514.8072</ele>
        <time>2012-09-30T08:12:35Z</time>
      </trkpt>
      <trkpt lat="47.69782" lon="6.75947">
        <ele>516.0264</ele>
        <time>2012-09-30T08:12:38Z</time>
      </trkpt>
      <trkpt lat="47.69785" lon="6.75954">
        <ele>516.9408</ele>
        <time>2012-09-30T08:12:39Z</time>
      </trkpt>
      <trkpt lat="47.69787" lon="6.75961">
        <ele>518.16</ele>
        <time>2012-09-30T08:12:42Z</time>
      </trkpt>
      <trkpt lat="47.6979" lon="6.75966">
        <ele>519.684</ele>
        <time>2012-09-30T08:12:43Z</time>
      </trkpt>
      <trkpt lat="47.69793" lon="6.75972">
        <ele>520.2936</ele>
        <time>2012-09-30T08:12:46Z</time>
      </trkpt>
      <trkpt lat="47.69796" lon="6.7598">
        <ele>520.2936</ele>
        <time>2012-09-30T08:12:47Z</time>
      </trkpt>
      <trkpt lat="47.69799" lon="6.75987">
        <ele>519.0744</ele>
        <time>2012-09-30T08:12:50Z</time>
      </trkpt>
      <trkpt lat="47.69802" lon="6.75997">
        <ele>518.4648</ele>
        <time>2012-09-30T08:12:51Z</time>
      </trkpt>
      <trkpt lat="47.69805" lon="6.76004">
        <ele>518.7696</ele>
        <time>2012-09-30T08:12:54Z</time>
      </trkpt>
      <trkpt lat="47.69808" lon="6.76011">
        <ele>519.0744</ele>
        <time>2012-09-30T08:12:55Z</time>
      </trkpt>
      <trkpt lat="47.69811" lon="6.7602">
        <ele>518.4648</ele>
        <time>2012-09-30T08:12:58Z</time>
      </trkpt>
      <trkpt lat="47.69813" lon="6.76028">
        <ele>518.16</ele>
        <time>2012-09-30T08:12:59Z</time>
      </trkpt>
      <trkpt lat="47.69816" lon="6.76035">
        <ele>518.7696</ele>
        <time>2012-09-30T08:13:02Z</time>
      </trkpt>
      <trkpt lat="47.69818" lon="6.76044">
        <ele>519.0744</ele>
        <time>2012-09-30T08:13:03Z</time>
      </trkpt>
      <trkpt lat="47.69821" lon="6.76053">
        <ele>519.0744</ele>
        <time>2012-09-30T08:13:06Z</time>
      </trkpt>
      <trkpt lat="47.69823" lon="6.76062">
        <ele>519.3792</ele>
        <time>2012-09-30T08:13:07Z</time>
      </trkpt>
      <trkpt lat="47.69826" lon="6.7607">
        <ele>519.3792</ele>
        <time>2012-09-30T08:13:10Z</time>
      </trkpt>
      <trkpt lat="47.69828" lon="6.76078">
        <ele>519.684</ele>
        <time>2012-09-30T08:13:12Z</time>
      </trkpt>
      <trkpt lat="47.6983" lon="6.76086">
        <ele>519.684</ele>
        <time>2012-09-30T08:13:13Z</time>
      </trkpt>
      <trkpt lat="47.69832" lon="6.76095">
        <ele>519.3792</ele>
        <time>2012-09-30T08:13:16Z</time>
      </trkpt>
      <trkpt lat="47.69834" lon="6.76103">
        <ele>519.3792</ele>
        <time>2012-09-30T08:13:17Z</time>
      </trkpt>
      <trkpt lat="47.69835" lon="6.76112">
        <ele>519.684</ele>
        <time>2012-09-30T08:13:20Z</time>
      </trkpt>
      <trkpt lat="47.69837" lon="6.7612">
        <ele>519.684</ele>
        <time>2012-09-30T08:13:21Z</time>
      </trkpt>
      <trkpt lat="47.6984" lon="6.76128">
        <ele>520.2936</ele>
        <time>2012-09-30T08:13:24Z</time>
      </trkpt>
      <trkpt lat="47.69842" lon="6.76136">
        <ele>519.684</ele>
        <time>2012-09-30T08:13:25Z</time>
      </trkpt>
      <trkpt lat="47.69844" lon="6.76144">
        <ele>519.3792</ele>
        <time>2012-09-30T08:13:28Z</time>
      </trkpt>
      <trkpt lat="47.69848" lon="6.76154">
        <ele>519.0744</ele>
        <time>2012-09-30T08:13:29Z</time>
      </trkpt>
      <trkpt lat="47.6985" lon="6.76164">
        <ele>516.0264</ele>
        <time>2012-09-30T08:13:32Z</time>
      </trkpt>
      <trkpt lat="47.69852" lon="6.76173">
        <ele>516.0264</ele>
        <time>2012-09-30T08:13:33Z</time>
      </trkpt>
      <trkpt lat="47.69854" lon="6.76182">
        <ele>516.3312</ele>
        <time>2012-09-30T08:13:36Z</time>
      </trkpt>
      <trkpt lat="47.69856" lon="6.76191">
        <ele>516.9408</ele>
        <time>2012-09-30T08:13:37Z</time>
      </trkpt>
      <trkpt lat="47.69857" lon="6.762">
        <ele>517.2456</ele>
        <time>2012-09-30T08:13:40Z</time>
      </trkpt>
      <trkpt lat="47.69857" lon="6.7621">
        <ele>517.5504</ele>
        <time>2012-09-30T08:13:41Z</time>
      </trkpt>
      <trkpt lat="47.69857" lon="6.76218">
        <ele>517.8552</ele>
        <time>2012-09-30T08:13:44Z</time>
      </trkpt>
      <trkpt lat="47.69855" lon="6.76226">
        <ele>519.3792</ele>
        <time>2012-09-30T08:13:45Z</time>
      </trkpt>
      <trkpt lat="47.69853" lon="6.76233">
        <ele>519.9888</ele>
        <time>2012-09-30T08:13:48Z</time>
      </trkpt>
      <trkpt lat="47.69851" lon="6.76241">
        <ele>521.208</ele>
        <time>2012-09-30T08:13:49Z</time>
      </trkpt>
      <trkpt lat="47.6985" lon="6.7625">
        <ele>521.8176</ele>
        <time>2012-09-30T08:13:52Z</time>
      </trkpt>
      <trkpt lat="47.69849" lon="6.76258">
        <ele>522.732</ele>
        <time>2012-09-30T08:13:53Z</time>
      </trkpt>
      <trkpt lat="47.69849" lon="6.76269">
        <ele>520.5984</ele>
        <time>2012-09-30T08:13:56Z</time>
      </trkpt>
      <trkpt lat="47.69848" lon="6.76281">
        <ele>517.2456</ele>
        <time>2012-09-30T08:13:57Z</time>
      </trkpt>
      <trkpt lat="47.69847" lon="6.7629">
        <ele>517.2456</ele>
        <time>2012-09-30T08:14:00Z</time>
      </trkpt>
      <trkpt lat="47.69847" lon="6.76297">
        <ele>518.16</ele>
        <time>2012-09-30T08:14:01Z</time>
      </trkpt>
      <trkpt lat="47.69848" lon="6.76305">
        <ele>518.4648</ele>
        <time>2012-09-30T08:14:04Z</time>
      </trkpt>
      <trkpt lat="47.69848" lon="6.76314">
        <ele>517.8552</ele>
        <time>2012-09-30T08:14:06Z</time>
      </trkpt>
      <trkpt lat="47.6985" lon="6.76324">
        <ele>516.0264</ele>
        <time>2012-09-30T08:14:07Z</time>
      </trkpt>
      <trkpt lat="47.69852" lon="6.76335">
        <ele>513.588</ele>
        <time>2012-09-30T08:14:10Z</time>
      </trkpt>
      <trkpt lat="47.69854" lon="6.76346">
        <ele>511.4544</ele>
        <time>2012-09-30T08:14:11Z</time>
      </trkpt>
      <trkpt lat="47.69855" lon="6.76356">
        <ele>509.3208</ele>
        <time>2012-09-30T08:14:14Z</time>
      </trkpt>
      <trkpt lat="47.69857" lon="6.76367">
        <ele>508.1016</ele>
        <time>2012-09-30T08:14:15Z</time>
      </trkpt>
      <trkpt lat="47.69858" lon="6.76377">
        <ele>507.492</ele>
        <time>2012-09-30T08:14:18Z</time>
      </trkpt>
      <trkpt lat="47.69859" lon="6.76387">
        <ele>506.2728</ele>
        <time>2012-09-30T08:14:19Z</time>
      </trkpt>
      <trkpt lat="47.69859" lon="6.76397">
        <ele>506.2728</ele>
        <time>2012-09-30T08:14:22Z</time>
      </trkpt>
      <trkpt lat="47.69861" lon="6.76406">
        <ele>505.6632</ele>
        <time>2012-09-30T08:14:23Z</time>
      </trkpt>
      <trkpt lat="47.69862" lon="6.76415">
        <ele>505.968</ele>
        <time>2012-09-30T08:14:26Z</time>
      </trkpt>
      <trkpt lat="47.69864" lon="6.76421">
        <ele>504.7488</ele>
        <time>2012-09-30T08:14:27Z</time>
      </trkpt>
      <trkpt lat="47.69869" lon="6.76427">
        <ele>504.1392</ele>
        <time>2012-09-30T08:14:30Z</time>
      </trkpt>
      <trkpt lat="47.69873" lon="6.76431">
        <ele>503.8344</ele>
        <time>2012-09-30T08:14:31Z</time>
      </trkpt>
      <trkpt lat="47.69878" lon="6.76437">
        <ele>504.1392</ele>
        <time>2012-09-30T08:14:34Z</time>
      </trkpt>
      <trkpt lat="47.69883" lon="6.76443">
        <ele>504.444</ele>
        <time>2012-09-30T08:14:35Z</time>
      </trkpt>
      <trkpt lat="47.69887" lon="6.76448">
        <ele>505.0536</ele>
        <time>2012-09-30T08:14:38Z</time>
      </trkpt>
      <trkpt lat="47.69892" lon="6.76454">
        <ele>505.0536</ele>
        <time>2012-09-30T08:14:39Z</time>
      </trkpt>
      <trkpt lat="47.69897" lon="6.7646">
        <ele>505.6632</ele>
        <time>2012-09-30T08:14:42Z</time>
      </trkpt>
      <trkpt lat="47.69901" lon="6.76466">
        <ele>506.5776</ele>
        <time>2012-09-30T08:14:43Z</time>
      </trkpt>
      <trkpt lat="47.69904" lon="6.76472">
        <ele>508.1016</ele>
        <time>2012-09-30T08:14:46Z</time>
      </trkpt>
      <trkpt lat="47.69906" lon="6.76478">
        <ele>509.3208</ele>
        <time>2012-09-30T08:14:47Z</time>
      </trkpt>
      <trkpt lat="47.6991" lon="6.76485">
        <ele>508.1016</ele>
        <time>2012-09-30T08:14:50Z</time>
      </trkpt>
      <trkpt lat="47.69914" lon="6.76491">
        <ele>508.7112</ele>
        <time>2012-09-30T08:14:51Z</time>
      </trkpt>
      <trkpt lat="47.69917" lon="6.76498">
        <ele>509.6256</ele>
        <time>2012-09-30T08:14:54Z</time>
      </trkpt>
      <trkpt lat="47.6992" lon="6.76504">
        <ele>511.1496</ele>
        <time>2012-09-30T08:14:55Z</time>
      </trkpt>
      <trkpt lat="47.69923" lon="6.7651">
        <ele>512.064</ele>
        <time>2012-09-30T08:14:58Z</time>
      </trkpt>
      <trkpt lat="47.69927" lon="6.76516">
        <ele>512.064</ele>
        <time>2012-09-30T08:15:00Z</time>
      </trkpt>
      <trkpt lat="47.69931" lon="6.76521">
        <ele>512.3688</ele>
        <time>2012-09-30T08:15:01Z</time>
      </trkpt>
      <trkpt lat="47.69935" lon="6.76527">
        <ele>512.9784</ele>
        <time>2012-09-30T08:15:04Z</time>
      </trkpt>
      <trkpt lat="47.69939" lon="6.76532">
        <ele>514.5024</ele>
        <time>2012-09-30T08:15:05Z</time>
      </trkpt>
      <trkpt lat="47.69944" lon="6.76536">
        <ele>515.112</ele>
        <time>2012-09-30T08:15:08Z</time>
      </trkpt>
      <trkpt lat="47.69949" lon="6.76539">
        <ele>515.4168</ele>
        <time>2012-09-30T08:15:09Z</time>
      </trkpt>
      <trkpt lat="47.69953" lon="6.76543">
        <ele>515.7216</ele>
        <time>2012-09-30T08:15:12Z</time>
      </trkpt>
      <trkpt lat="47.69957" lon="6.76546">
        <ele>514.8072</ele>
        <time>2012-09-30T08:15:13Z</time>
      </trkpt>
      <trkpt lat="47.69962" lon="6.76549">
        <ele>514.1976</ele>
        <time>2012-09-30T08:15:16Z</time>
      </trkpt>
      <trkpt lat="47.69966" lon="6.76552">
        <ele>514.5024</ele>
        <time>2012-09-30T08:15:17Z</time>
      </trkpt>
      <trkpt lat="47.6997" lon="6.76554">
        <ele>515.112</ele>
        <time>2012-09-30T08:15:20Z</time>
      </trkpt>
      <trkpt lat="47.69974" lon="6.76557">
        <ele>514.5024</ele>
        <time>2012-09-30T08:15:21Z</time>
      </trkpt>
      <trkpt lat="47.69979" lon="6.76558">
        <ele>513.8928</ele>
        <time>2012-09-30T08:15:24Z</time>
      </trkpt>
      <trkpt lat="47.69983" lon="6.76558">
        <ele>512.6736</ele>
        <time>2012-09-30T08:15:25Z</time>
      </trkpt>
      <trkpt lat="47.69985" lon="6.7656">
        <ele>512.6736</ele>
        <time>2012-09-30T08:15:28Z</time>
      </trkpt>
      <trkpt lat="47.69988" lon="6.76562">
        <ele>514.1976</ele>
        <time>2012-09-30T08:15:29Z</time>
      </trkpt>
      <trkpt lat="47.69991" lon="6.76565">
        <ele>514.8072</ele>
        <time>2012-09-30T08:15:32Z</time>
      </trkpt>
      <trkpt lat="47.69994" lon="6.76568">
        <ele>516.3312</ele>
        <time>2012-09-30T08:15:33Z</time>
      </trkpt>
      <trkpt lat="47.69997" lon="6.76571">
        <ele>515.7216</ele>
        <time>2012-09-30T08:15:36Z</time>
      </trkpt>
      <trkpt lat="47.70001" lon="6.76574">
        <ele>515.112</ele>
        <time>2012-09-30T08:15:37Z</time>
      </trkpt>
      <trkpt lat="47.70004" lon="6.76576">
        <ele>514.5024</ele>
        <time>2012-09-30T08:15:40Z</time>
      </trkpt>
      <trkpt lat="47.70007" lon="6.76578">
        <ele>514.5024</ele>
        <time>2012-09-30T08:15:41Z</time>
      </trkpt>
      <trkpt lat="47.7001" lon="6.76579">
        <ele>514.8072</ele>
        <time>2012-09-30T08:15:44Z</time>
      </trkpt>
      <trkpt lat="47.70014" lon="6.76579">
        <ele>515.112</ele>
        <time>2012-09-30T08:15:45Z</time>
      </trkpt>
      <trkpt lat="47.70018" lon="6.7658">
        <ele>515.112</ele>
        <time>2012-09-30T08:15:48Z</time>
      </trkpt>
      <trkpt lat="47.70022" lon="6.76581">
        <ele>515.7216</ele>
        <time>2012-09-30T08:15:49Z</time>
      </trkpt>
      <trkpt lat="47.70025" lon="6.7658">
        <ele>516.3312</ele>
        <time>2012-09-30T08:15:52Z</time>
      </trkpt>
      <trkpt lat="47.70029" lon="6.7658">
        <ele>517.5504</ele>
        <time>2012-09-30T08:15:54Z</time>
      </trkpt>
      <trkpt lat="47.70033" lon="6.76579">
        <ele>518.4648</ele>
        <time>2012-09-30T08:15:55Z</time>
      </trkpt>
      <trkpt lat="47.70036" lon="6.76579">
        <ele>519.3792</ele>
        <time>2012-09-30T08:15:58Z</time>
      </trkpt>
      <trkpt lat="47.70039" lon="6.76578">
        <ele>519.3792</ele>
        <time>2012-09-30T08:15:59Z</time>
      </trkpt>
      <trkpt lat="47.70043" lon="6.76577">
        <ele>520.2936</ele>
        <time>2012-09-30T08:16:02Z</time>
      </trkpt>
      <trkpt lat="47.70046" lon="6.76576">
        <ele>520.9032</ele>
        <time>2012-09-30T08:16:03Z</time>
      </trkpt>
      <trkpt lat="47.70049" lon="6.76575">
        <ele>521.5128</ele>
        <time>2012-09-30T08:16:06Z</time>
      </trkpt>
      <trkpt lat="47.70052" lon="6.76576">
        <ele>522.732</ele>
        <time>2012-09-30T08:16:07Z</time>
      </trkpt>
      <trkpt lat="47.70055" lon="6.76576">
        <ele>522.732</ele>
        <time>2012-09-30T08:16:10Z</time>
      </trkpt>
      <trkpt lat="47.70058" lon="6.76575">
        <ele>523.3416</ele>
        <time>2012-09-30T08:16:11Z</time>
      </trkpt>
      <trkpt lat="47.70062" lon="6.76574">
        <ele>523.9512</ele>
        <time>2012-09-30T08:16:14Z</time>
      </trkpt>
      <trkpt lat="47.70065" lon="6.76572">
        <ele>523.9512</ele>
        <time>2012-09-30T08:16:15Z</time>
      </trkpt>
      <trkpt lat="47.70068" lon="6.76571">
        <ele>523.9512</ele>
        <time>2012-09-30T08:16:18Z</time>
      </trkpt>
      <trkpt lat="47.70071" lon="6.76569">
        <ele>524.5608</ele>
        <time>2012-09-30T08:16:19Z</time>
      </trkpt>
      <trkpt lat="47.70074" lon="6.76568">
        <ele>525.78</ele>
        <time>2012-09-30T08:16:22Z</time>
      </trkpt>
      <trkpt lat="47.70079" lon="6.76567">
        <ele>525.1704</ele>
        <time>2012-09-30T08:16:23Z</time>
      </trkpt>
      <trkpt lat="47.70084" lon="6.76567">
        <ele>522.732</ele>
        <time>2012-09-30T08:16:26Z</time>
      </trkpt>
      <trkpt lat="47.70088" lon="6.76567">
        <ele>521.8176</ele>
        <time>2012-09-30T08:16:27Z</time>
      </trkpt>
      <trkpt lat="47.70092" lon="6.76568">
        <ele>520.5984</ele>
        <time>2012-09-30T08:16:30Z</time>
      </trkpt>
      <trkpt lat="47.70095" lon="6.76568">
        <ele>520.2936</ele>
        <time>2012-09-30T08:16:31Z</time>
      </trkpt>
      <trkpt lat="47.70098" lon="6.76569">
        <ele>520.5984</ele>
        <time>2012-09-30T08:16:34Z</time>
      </trkpt>
      <trkpt lat="47.70102" lon="6.7657">
        <ele>520.5984</ele>
        <time>2012-09-30T08:16:35Z</time>
      </trkpt>
      <trkpt lat="47.70106" lon="6.76572">
        <ele>521.208</ele>
        <time>2012-09-30T08:16:38Z</time>
      </trkpt>
      <trkpt lat="47.70109" lon="6.76574">
        <ele>521.5128</ele>
        <time>2012-09-30T08:16:39Z</time>
      </trkpt>
      <trkpt lat="47.70112" lon="6.76577">
        <ele>523.0368</ele>
        <time>2012-09-30T08:16:42Z</time>
      </trkpt>
      <trkpt lat="47.70115" lon="6.7658">
        <ele>523.3416</ele>
        <time>2012-09-30T08:16:43Z</time>
      </trkpt>
      <trkpt lat="47.70117" lon="6.76584">
        <ele>524.5608</ele>
        <time>2012-09-30T08:16:46Z</time>
      </trkpt>
      <trkpt lat="47.7012" lon="6.76588">
        <ele>524.8656</ele>
        <time>2012-09-30T08:16:48Z</time>
      </trkpt>
      <trkpt lat="47.70123" lon="6.76592">
        <ele>525.1704</ele>
        <time>2012-09-30T08:16:49Z</time>
      </trkpt>
      <trkpt lat="47.70126" lon="6.76595">
        <ele>525.4752</ele>
        <time>2012-09-30T08:16:52Z</time>
      </trkpt>
      <trkpt lat="47.7013" lon="6.76598">
        <ele>526.6944</ele>
        <time>2012-09-30T08:16:53Z</time>
      </trkpt>
      <trkpt lat="47.70133" lon="6.76601">
        <ele>527.9136</ele>
        <time>2012-09-30T08:16:56Z</time>
      </trkpt>
      <trkpt lat="47.70137" lon="6.76605">
        <ele>528.828</ele>
        <time>2012-09-30T08:16:57Z</time>
      </trkpt>
      <trkpt lat="47.7014" lon="6.76608">
        <ele>529.7424</ele>
        <time>2012-09-30T08:17:00Z</time>
      </trkpt>
      <trkpt lat="47.70144" lon="6.76612">
        <ele>530.0472</ele>
        <time>2012-09-30T08:17:01Z</time>
      </trkpt>
      <trkpt lat="47.70148" lon="6.76614">
        <ele>530.352</ele>
        <time>2012-09-30T08:17:04Z</time>
      </trkpt>
      <trkpt lat="47.70151" lon="6.76617">
        <ele>531.5712</ele>
        <time>2012-09-30T08:17:05Z</time>
      </trkpt>
      <trkpt lat="47.70154" lon="6.76621">
        <ele>531.2664</ele>
        <time>2012-09-30T08:17:08Z</time>
      </trkpt>
      <trkpt lat="47.70157" lon="6.76625">
        <ele>531.876</ele>
        <time>2012-09-30T08:17:09Z</time>
      </trkpt>
      <trkpt lat="47.7016" lon="6.7663">
        <ele>532.4856</ele>
        <time>2012-09-30T08:17:12Z</time>
      </trkpt>
      <trkpt lat="47.70162" lon="6.76634">
        <ele>532.4856</ele>
        <time>2012-09-30T08:17:13Z</time>
      </trkpt>
      <trkpt lat="47.70165" lon="6.76639">
        <ele>533.4</ele>
        <time>2012-09-30T08:17:16Z</time>
      </trkpt>
      <trkpt lat="47.70168" lon="6.76643">
        <ele>533.4</ele>
        <time>2012-09-30T08:17:17Z</time>
      </trkpt>
      <trkpt lat="47.70171" lon="6.76647">
        <ele>534.0096</ele>
        <time>2012-09-30T08:17:20Z</time>
      </trkpt>
      <trkpt lat="47.70175" lon="6.7665">
        <ele>534.3144</ele>
        <time>2012-09-30T08:17:21Z</time>
      </trkpt>
      <trkpt lat="47.70178" lon="6.76652">
        <ele>534.924</ele>
        <time>2012-09-30T08:17:24Z</time>
      </trkpt>
      <trkpt lat="47.70183" lon="6.76655">
        <ele>533.7048</ele>
        <time>2012-09-30T08:17:25Z</time>
      </trkpt>
      <trkpt lat="47.70186" lon="6.76658">
        <ele>534.3144</ele>
        <time>2012-09-30T08:17:28Z</time>
      </trkpt>
      <trkpt lat="47.7019" lon="6.76661">
        <ele>535.2288</ele>
        <time>2012-09-30T08:17:29Z</time>
      </trkpt>
      <trkpt lat="47.70193" lon="6.76666">
        <ele>535.5336</ele>
        <time>2012-09-30T08:17:32Z</time>
      </trkpt>
      <trkpt lat="47.70195" lon="6.76671">
        <ele>535.8384</ele>
        <time>2012-09-30T08:17:33Z</time>
      </trkpt>
      <trkpt lat="47.70198" lon="6.76677">
        <ele>536.448</ele>
        <time>2012-09-30T08:17:36Z</time>
      </trkpt>
      <trkpt lat="47.70202" lon="6.76682">
        <ele>537.0576</ele>
        <time>2012-09-30T08:17:37Z</time>
      </trkpt>
      <trkpt lat="47.70206" lon="6.76687">
        <ele>536.448</ele>
        <time>2012-09-30T08:17:40Z</time>
      </trkpt>
      <trkpt lat="47.7021" lon="6.76692">
        <ele>536.7528</ele>
        <time>2012-09-30T08:17:42Z</time>
      </trkpt>
      <trkpt lat="47.70214" lon="6.76697">
        <ele>536.7528</ele>
        <time>2012-09-30T08:17:43Z</time>
      </trkpt>
      <trkpt lat="47.70217" lon="6.76703">
        <ele>536.448</ele>
        <time>2012-09-30T08:17:46Z</time>
      </trkpt>
      <trkpt lat="47.70221" lon="6.76709">
        <ele>536.1432</ele>
        <time>2012-09-30T08:17:47Z</time>
      </trkpt>
      <trkpt lat="47.70226" lon="6.76714">
        <ele>535.8384</ele>
        <time>2012-09-30T08:17:50Z</time>
      </trkpt>
      <trkpt lat="47.7023" lon="6.76718">
        <ele>536.448</ele>
        <time>2012-09-30T08:17:51Z</time>
      </trkpt>
      <trkpt lat="47.70234" lon="6.76722">
        <ele>536.1432</ele>
        <time>2012-09-30T08:17:54Z</time>
      </trkpt>
      <trkpt lat="47.70238" lon="6.76726">
        <ele>536.7528</ele>
        <time>2012-09-30T08:17:55Z</time>
      </trkpt>
      <trkpt lat="47.70242" lon="6.76729">
        <ele>536.1432</ele>
        <time>2012-09-30T08:17:58Z</time>
      </trkpt>
      <trkpt lat="47.70247" lon="6.76732">
        <ele>536.1432</ele>
        <time>2012-09-30T08:17:59Z</time>
      </trkpt>
      <trkpt lat="47.70252" lon="6.76735">
        <ele>534.6192</ele>
        <time>2012-09-30T08:18:02Z</time>
      </trkpt>
      <trkpt lat="47.70257" lon="6.76739">
        <ele>534.3144</ele>
        <time>2012-09-30T08:18:03Z</time>
      </trkpt>
      <trkpt lat="47.70261" lon="6.76744">
        <ele>534.6192</ele>
        <time>2012-09-30T08:18:06Z</time>
      </trkpt>
      <trkpt lat="47.70265" lon="6.76748">
        <ele>534.6192</ele>
        <time>2012-09-30T08:18:07Z</time>
      </trkpt>
      <trkpt lat="47.70267" lon="6.76752">
        <ele>534.6192</ele>
        <time>2012-09-30T08:18:10Z</time>
      </trkpt>
      <trkpt lat="47.70271" lon="6.76756">
        <ele>535.2288</ele>
        <time>2012-09-30T08:18:11Z</time>
      </trkpt>
      <trkpt lat="47.70273" lon="6.7676">
        <ele>536.7528</ele>
        <time>2012-09-30T08:18:14Z</time>
      </trkpt>
      <trkpt lat="47.70277" lon="6.76764">
        <ele>537.6672</ele>
        <time>2012-09-30T08:18:15Z</time>
      </trkpt>
      <trkpt lat="47.7028" lon="6.76768">
        <ele>537.6672</ele>
        <time>2012-09-30T08:18:18Z</time>
      </trkpt>
      <trkpt lat="47.70284" lon="6.76771">
        <ele>538.2768</ele>
        <time>2012-09-30T08:18:19Z</time>
      </trkpt>
      <trkpt lat="47.70289" lon="6.76775">
        <ele>538.2768</ele>
        <time>2012-09-30T08:18:22Z</time>
      </trkpt>
      <trkpt lat="47.70293" lon="6.7678">
        <ele>538.2768</ele>
        <time>2012-09-30T08:18:23Z</time>
      </trkpt>
      <trkpt lat="47.70297" lon="6.76784">
        <ele>538.5816</ele>
        <time>2012-09-30T08:18:26Z</time>
      </trkpt>
      <trkpt lat="47.70302" lon="6.76788">
        <ele>539.496</ele>
        <time>2012-09-30T08:18:27Z</time>
      </trkpt>
      <trkpt lat="47.70306" lon="6.7679">
        <ele>538.8864</ele>
        <time>2012-09-30T08:18:30Z</time>
      </trkpt>
      <trkpt lat="47.70311" lon="6.76793">
        <ele>539.496</ele>
        <time>2012-09-30T08:18:31Z</time>
      </trkpt>
      <trkpt lat="47.70315" lon="6.76797">
        <ele>539.496</ele>
        <time>2012-09-30T08:18:34Z</time>
      </trkpt>
      <trkpt lat="47.70319" lon="6.768">
        <ele>539.496</ele>
        <time>2012-09-30T08:18:36Z</time>
      </trkpt>
      <trkpt lat="47.70323" lon="6.76804">
        <ele>538.8864</ele>
        <time>2012-09-30T08:18:37Z</time>
      </trkpt>
      <trkpt lat="47.70327" lon="6.76808">
        <ele>539.496</ele>
        <time>2012-09-30T08:18:40Z</time>
      </trkpt>
      <trkpt lat="47.7033" lon="6.76812">
        <ele>540.7152</ele>
        <time>2012-09-30T08:18:41Z</time>
      </trkpt>
      <trkpt lat="47.70334" lon="6.76818">
        <ele>540.7152</ele>
        <time>2012-09-30T08:18:44Z</time>
      </trkpt>
      <trkpt lat="47.70338" lon="6.76822">
        <ele>540.1056</ele>
        <time>2012-09-30T08:18:45Z</time>
      </trkpt>
      <trkpt lat="47.70342" lon="6.76827">
        <ele>539.1912</ele>
        <time>2012-09-30T08:18:48Z</time>
      </trkpt>
      <trkpt lat="47.70347" lon="6.7683">
        <ele>538.5816</ele>
        <time>2012-09-30T08:18:49Z</time>
      </trkpt>
      <trkpt lat="47.70352" lon="6.76835">
        <ele>538.8864</ele>
        <time>2012-09-30T08:18:52Z</time>
      </trkpt>
      <trkpt lat="47.70357" lon="6.76841">
        <ele>538.5816</ele>
        <time>2012-09-30T08:18:53Z</time>
      </trkpt>
      <trkpt lat="47.70361" lon="6.76847">
        <ele>539.496</ele>
        <time>2012-09-30T08:18:56Z</time>
      </trkpt>
      <trkpt lat="47.70365" lon="6.76853">
        <ele>540.7152</ele>
        <time>2012-09-30T08:18:57Z</time>
      </trkpt>
      <trkpt lat="47.70367" lon="6.76861">
        <ele>541.6296</ele>
        <time>2012-09-30T08:19:00Z</time>
      </trkpt>
      <trkpt lat="47.7037" lon="6.7687">
        <ele>541.9344</ele>
        <time>2012-09-30T08:19:01Z</time>
      </trkpt>
      <trkpt lat="47.70373" lon="6.76877">
        <ele>543.4584</ele>
        <time>2012-09-30T08:19:04Z</time>
      </trkpt>
      <trkpt lat="47.70377" lon="6.76884">
        <ele>544.3728</ele>
        <time>2012-09-30T08:19:05Z</time>
      </trkpt>
      <trkpt lat="47.70382" lon="6.76892">
        <ele>542.8488</ele>
        <time>2012-09-30T08:19:08Z</time>
      </trkpt>
      <trkpt lat="47.70387" lon="6.76901">
        <ele>542.2392</ele>
        <time>2012-09-30T08:19:09Z</time>
      </trkpt>
      <trkpt lat="47.70391" lon="6.76908">
        <ele>541.02</ele>
        <time>2012-09-30T08:19:12Z</time>
      </trkpt>
      <trkpt lat="47.70396" lon="6.76914">
        <ele>541.02</ele>
        <time>2012-09-30T08:19:13Z</time>
      </trkpt>
      <trkpt lat="47.704" lon="6.76921">
        <ele>540.1056</ele>
        <time>2012-09-30T08:19:16Z</time>
      </trkpt>
      <trkpt lat="47.70404" lon="6.76928">
        <ele>539.8008</ele>
        <time>2012-09-30T08:19:17Z</time>
      </trkpt>
      <trkpt lat="47.70407" lon="6.76935">
        <ele>539.496</ele>
        <time>2012-09-30T08:19:20Z</time>
      </trkpt>
      <trkpt lat="47.70411" lon="6.76943">
        <ele>539.8008</ele>
        <time>2012-09-30T08:19:21Z</time>
      </trkpt>
      <trkpt lat="47.70415" lon="6.7695">
        <ele>539.8008</ele>
        <time>2012-09-30T08:19:24Z</time>
      </trkpt>
      <trkpt lat="47.70419" lon="6.76957">
        <ele>540.1056</ele>
        <time>2012-09-30T08:19:25Z</time>
      </trkpt>
      <trkpt lat="47.70421" lon="6.76965">
        <ele>540.4104</ele>
        <time>2012-09-30T08:19:28Z</time>
      </trkpt>
      <trkpt lat="47.70423" lon="6.76973">
        <ele>541.02</ele>
        <time>2012-09-30T08:19:30Z</time>
      </trkpt>
      <trkpt lat="47.70423" lon="6.76981">
        <ele>541.02</ele>
        <time>2012-09-30T08:19:31Z</time>
      </trkpt>
      <trkpt lat="47.70421" lon="6.76987">
        <ele>542.2392</ele>
        <time>2012-09-30T08:19:34Z</time>
      </trkpt>
      <trkpt lat="47.70417" lon="6.76994">
        <ele>541.3248</ele>
        <time>2012-09-30T08:19:35Z</time>
      </trkpt>
      <trkpt lat="47.70414" lon="6.77001">
        <ele>541.3248</ele>
        <time>2012-09-30T08:19:38Z</time>
      </trkpt>
      <trkpt lat="47.70413" lon="6.77007">
        <ele>541.6296</ele>
        <time>2012-09-30T08:19:39Z</time>
      </trkpt>
      <trkpt lat="47.70412" lon="6.77014">
        <ele>541.9344</ele>
        <time>2012-09-30T08:19:42Z</time>
      </trkpt>
      <trkpt lat="47.70412" lon="6.77021">
        <ele>542.544</ele>
        <time>2012-09-30T08:19:43Z</time>
      </trkpt>
      <trkpt lat="47.70413" lon="6.77028">
        <ele>544.068</ele>
        <time>2012-09-30T08:19:46Z</time>
      </trkpt>
      <trkpt lat="47.70414" lon="6.77035">
        <ele>545.2872</ele>
        <time>2012-09-30T08:19:47Z</time>
      </trkpt>
      <trkpt lat="47.70416" lon="6.77042">
        <ele>545.8968</ele>
        <time>2012-09-30T08:19:50Z</time>
      </trkpt>
      <trkpt lat="47.70417" lon="6.77047">
        <ele>547.4208</ele>
        <time>2012-09-30T08:19:51Z</time>
      </trkpt>
      <trkpt lat="47.70419" lon="6.77053">
        <ele>548.0304</ele>
        <time>2012-09-30T08:19:54Z</time>
      </trkpt>
      <trkpt lat="47.7042" lon="6.77059">
        <ele>549.5544</ele>
        <time>2012-09-30T08:19:55Z</time>
      </trkpt>
      <trkpt lat="47.70422" lon="6.77066">
        <ele>549.5544</ele>
        <time>2012-09-30T08:19:58Z</time>
      </trkpt>
      <trkpt lat="47.70423" lon="6.77073">
        <ele>548.64</ele>
        <time>2012-09-30T08:19:59Z</time>
      </trkpt>
      <trkpt lat="47.70423" lon="6.77079">
        <ele>549.2496</ele>
        <time>2012-09-30T08:20:02Z</time>
      </trkpt>
      <trkpt lat="47.70424" lon="6.77084">
        <ele>551.0784</ele>
        <time>2012-09-30T08:20:03Z</time>
      </trkpt>
      <trkpt lat="47.70424" lon="6.7709">
        <ele>551.9928</ele>
        <time>2012-09-30T08:20:06Z</time>
      </trkpt>
      <trkpt lat="47.70424" lon="6.77097">
        <ele>552.6024</ele>
        <time>2012-09-30T08:20:07Z</time>
      </trkpt>
      <trkpt lat="47.70424" lon="6.77104">
        <ele>553.212</ele>
        <time>2012-09-30T08:20:10Z</time>
      </trkpt>
      <trkpt lat="47.70424" lon="6.77114">
        <ele>553.5168</ele>
        <time>2012-09-30T08:20:11Z</time>
      </trkpt>
      <trkpt lat="47.70423" lon="6.77123">
        <ele>554.736</ele>
        <time>2012-09-30T08:20:14Z</time>
      </trkpt>
      <trkpt lat="47.70422" lon="6.77132">
        <ele>556.26</ele>
        <time>2012-09-30T08:20:15Z</time>
      </trkpt>
      <trkpt lat="47.7042" lon="6.77141">
        <ele>557.784</ele>
        <time>2012-09-30T08:20:18Z</time>
      </trkpt>
      <trkpt lat="47.70418" lon="6.7715">
        <ele>559.0032</ele>
        <time>2012-09-30T08:20:19Z</time>
      </trkpt>
      <trkpt lat="47.70417" lon="6.77158">
        <ele>560.832</ele>
        <time>2012-09-30T08:20:22Z</time>
      </trkpt>
      <trkpt lat="47.70417" lon="6.77165">
        <ele>562.0512</ele>
        <time>2012-09-30T08:20:24Z</time>
      </trkpt>
      <trkpt lat="47.70415" lon="6.77173">
        <ele>562.6608</ele>
        <time>2012-09-30T08:20:25Z</time>
      </trkpt>
      <trkpt lat="47.70413" lon="6.77179">
        <ele>563.5752</ele>
        <time>2012-09-30T08:20:28Z</time>
      </trkpt>
      <trkpt lat="47.70413" lon="6.77187">
        <ele>564.7944</ele>
        <time>2012-09-30T08:20:29Z</time>
      </trkpt>
      <trkpt lat="47.70415" lon="6.77193">
        <ele>564.4896</ele>
        <time>2012-09-30T08:20:32Z</time>
      </trkpt>
      <trkpt lat="47.70419" lon="6.77196">
        <ele>565.7088</ele>
        <time>2012-09-30T08:20:33Z</time>
      </trkpt>
      <trkpt lat="47.70423" lon="6.77199">
        <ele>565.404</ele>
        <time>2012-09-30T08:20:36Z</time>
      </trkpt>
      <trkpt lat="47.70437" lon="6.77205">
        <ele>562.6608</ele>
        <time>2012-09-30T08:20:44Z</time>
      </trkpt>
      <trkpt lat="47.70441" lon="6.77206">
        <ele>563.88</ele>
        <time>2012-09-30T08:20:45Z</time>
      </trkpt>
      <trkpt lat="47.70445" lon="6.77206">
        <ele>565.7088</ele>
        <time>2012-09-30T08:20:48Z</time>
      </trkpt>
      <trkpt lat="47.70448" lon="6.77207">
        <ele>566.6232</ele>
        <time>2012-09-30T08:20:49Z</time>
      </trkpt>
      <trkpt lat="47.70452" lon="6.77209">
        <ele>567.5376</ele>
        <time>2012-09-30T08:20:52Z</time>
      </trkpt>
      <trkpt lat="47.70455" lon="6.77211">
        <ele>568.7568</ele>
        <time>2012-09-30T08:20:53Z</time>
      </trkpt>
      <trkpt lat="47.70459" lon="6.77211">
        <ele>568.7568</ele>
        <time>2012-09-30T08:20:56Z</time>
      </trkpt>
      <trkpt lat="47.70463" lon="6.77211">
        <ele>568.7568</ele>
        <time>2012-09-30T08:20:57Z</time>
      </trkpt>
      <trkpt lat="47.70468" lon="6.77211">
        <ele>569.6712</ele>
        <time>2012-09-30T08:21:00Z</time>
      </trkpt>
      <trkpt lat="47.70472" lon="6.7721">
        <ele>568.452</ele>
        <time>2012-09-30T08:21:01Z</time>
      </trkpt>
      <trkpt lat="47.70476" lon="6.77211">
        <ele>567.8424</ele>
        <time>2012-09-30T08:21:04Z</time>
      </trkpt>
      <trkpt lat="47.7048" lon="6.77214">
        <ele>567.2328</ele>
        <time>2012-09-30T08:21:05Z</time>
      </trkpt>
      <trkpt lat="47.70484" lon="6.77215">
        <ele>567.2328</ele>
        <time>2012-09-30T08:21:08Z</time>
      </trkpt>
      <trkpt lat="47.70487" lon="6.77217">
        <ele>568.1472</ele>
        <time>2012-09-30T08:21:09Z</time>
      </trkpt>
      <trkpt lat="47.70491" lon="6.77217">
        <ele>568.1472</ele>
        <time>2012-09-30T08:21:12Z</time>
      </trkpt>
      <trkpt lat="47.70493" lon="6.77219">
        <ele>569.0616</ele>
        <time>2012-09-30T08:21:13Z</time>
      </trkpt>
      <trkpt lat="47.70497" lon="6.77219">
        <ele>569.0616</ele>
        <time>2012-09-30T08:21:16Z</time>
      </trkpt>
      <trkpt lat="47.705" lon="6.7722">
        <ele>570.2808</ele>
        <time>2012-09-30T08:21:17Z</time>
      </trkpt>
      <trkpt lat="47.70503" lon="6.7722">
        <ele>569.3664</ele>
        <time>2012-09-30T08:21:19Z</time>
      </trkpt>
      <trkpt lat="47.70507" lon="6.7722">
        <ele>569.3664</ele>
        <time>2012-09-30T08:21:22Z</time>
      </trkpt>
      <trkpt lat="47.70511" lon="6.7722">
        <ele>570.2808</ele>
        <time>2012-09-30T08:21:23Z</time>
      </trkpt>
      <trkpt lat="47.70514" lon="6.7722">
        <ele>571.1952</ele>
        <time>2012-09-30T08:21:26Z</time>
      </trkpt>
      <trkpt lat="47.70518" lon="6.7722">
        <ele>571.5</ele>
        <time>2012-09-30T08:21:27Z</time>
      </trkpt>
      <trkpt lat="47.70521" lon="6.77219">
        <ele>573.3288</ele>
        <time>2012-09-30T08:21:30Z</time>
      </trkpt>
      <trkpt lat="47.70525" lon="6.77219">
        <ele>573.9384</ele>
        <time>2012-09-30T08:21:31Z</time>
      </trkpt>
      <trkpt lat="47.70529" lon="6.77216">
        <ele>573.024</ele>
        <time>2012-09-30T08:21:34Z</time>
      </trkpt>
      <trkpt lat="47.70534" lon="6.77215">
        <ele>572.4144</ele>
        <time>2012-09-30T08:21:35Z</time>
      </trkpt>
      <trkpt lat="47.70538" lon="6.77213">
        <ele>572.4144</ele>
        <time>2012-09-30T08:21:38Z</time>
      </trkpt>
      <trkpt lat="47.70542" lon="6.77211">
        <ele>572.1096</ele>
        <time>2012-09-30T08:21:39Z</time>
      </trkpt>
      <trkpt lat="47.70545" lon="6.7721">
        <ele>573.3288</ele>
        <time>2012-09-30T08:21:42Z</time>
      </trkpt>
      <trkpt lat="47.70549" lon="6.7721">
        <ele>573.9384</ele>
        <time>2012-09-30T08:21:43Z</time>
      </trkpt>
      <trkpt lat="47.70553" lon="6.77209">
        <ele>573.3288</ele>
        <time>2012-09-30T08:21:46Z</time>
      </trkpt>
      <trkpt lat="47.70556" lon="6.77208">
        <ele>573.9384</ele>
        <time>2012-09-30T08:21:47Z</time>
      </trkpt>
      <trkpt lat="47.7056" lon="6.77207">
        <ele>573.9384</ele>
        <time>2012-09-30T08:21:50Z</time>
      </trkpt>
      <trkpt lat="47.70564" lon="6.77206">
        <ele>573.9384</ele>
        <time>2012-09-30T08:21:51Z</time>
      </trkpt>
      <trkpt lat="47.70567" lon="6.77204">
        <ele>574.2432</ele>
        <time>2012-09-30T08:21:54Z</time>
      </trkpt>
      <trkpt lat="47.70571" lon="6.77203">
        <ele>574.2432</ele>
        <time>2012-09-30T08:21:55Z</time>
      </trkpt>
      <trkpt lat="47.70575" lon="6.77203">
        <ele>575.1576</ele>
        <time>2012-09-30T08:21:58Z</time>
      </trkpt>
      <trkpt lat="47.70578" lon="6.77204">
        <ele>574.548</ele>
        <time>2012-09-30T08:21:59Z</time>
      </trkpt>
      <trkpt lat="47.7058" lon="6.77204">
        <ele>574.2432</ele>
        <time>2012-09-30T08:22:02Z</time>
      </trkpt>
      <trkpt lat="47.70583" lon="6.77203">
        <ele>573.9384</ele>
        <time>2012-09-30T08:22:03Z</time>
      </trkpt>
      <trkpt lat="47.70588" lon="6.77201">
        <ele>571.5</ele>
        <time>2012-09-30T08:22:06Z</time>
      </trkpt>
      <trkpt lat="47.70594" lon="6.77199">
        <ele>568.7568</ele>
        <time>2012-09-30T08:22:07Z</time>
      </trkpt>
      <trkpt lat="47.70598" lon="6.77199">
        <ele>567.5376</ele>
        <time>2012-09-30T08:22:10Z</time>
      </trkpt>
      <trkpt lat="47.70602" lon="6.77199">
        <ele>568.7568</ele>
        <time>2012-09-30T08:22:11Z</time>
      </trkpt>
      <trkpt lat="47.70605" lon="6.772">
        <ele>569.976</ele>
        <time>2012-09-30T08:22:13Z</time>
      </trkpt>
      <trkpt lat="47.70608" lon="6.77201">
        <ele>569.976</ele>
        <time>2012-09-30T08:22:16Z</time>
      </trkpt>
      <trkpt lat="47.70612" lon="6.77203">
        <ele>570.5856</ele>
        <time>2012-09-30T08:22:17Z</time>
      </trkpt>
      <trkpt lat="47.70616" lon="6.77204">
        <ele>572.4144</ele>
        <time>2012-09-30T08:22:20Z</time>
      </trkpt>
      <trkpt lat="47.70618" lon="6.77207">
        <ele>573.6336</ele>
        <time>2012-09-30T08:22:21Z</time>
      </trkpt>
      <trkpt lat="47.70621" lon="6.77209">
        <ele>573.024</ele>
        <time>2012-09-30T08:22:24Z</time>
      </trkpt>
      <trkpt lat="47.70625" lon="6.77211">
        <ele>574.548</ele>
        <time>2012-09-30T08:22:25Z</time>
      </trkpt>
      <trkpt lat="47.70629" lon="6.77212">
        <ele>575.4624</ele>
        <time>2012-09-30T08:22:28Z</time>
      </trkpt>
      <trkpt lat="47.70632" lon="6.77213">
        <ele>576.3768</ele>
        <time>2012-09-30T08:22:29Z</time>
      </trkpt>
      <trkpt lat="47.70636" lon="6.77214">
        <ele>575.7672</ele>
        <time>2012-09-30T08:22:32Z</time>
      </trkpt>
      <trkpt lat="47.7064" lon="6.77216">
        <ele>575.7672</ele>
        <time>2012-09-30T08:22:33Z</time>
      </trkpt>
      <trkpt lat="47.70644" lon="6.77217">
        <ele>576.3768</ele>
        <time>2012-09-30T08:22:36Z</time>
      </trkpt>
      <trkpt lat="47.70648" lon="6.7722">
        <ele>577.596</ele>
        <time>2012-09-30T08:22:37Z</time>
      </trkpt>
      <trkpt lat="47.70652" lon="6.77223">
        <ele>578.8152</ele>
        <time>2012-09-30T08:22:40Z</time>
      </trkpt>
      <trkpt lat="47.70656" lon="6.77227">
        <ele>579.4248</ele>
        <time>2012-09-30T08:22:41Z</time>
      </trkpt>
      <trkpt lat="47.70662" lon="6.7723">
        <ele>579.12</ele>
        <time>2012-09-30T08:22:44Z</time>
      </trkpt>
      <trkpt lat="47.70665" lon="6.77236">
        <ele>584.9112</ele>
        <time>2012-09-30T08:22:45Z</time>
      </trkpt>
      <trkpt lat="47.7067" lon="6.77239">
        <ele>585.8256</ele>
        <time>2012-09-30T08:22:48Z</time>
      </trkpt>
      <trkpt lat="47.70676" lon="6.77241">
        <ele>585.216</ele>
        <time>2012-09-30T08:22:49Z</time>
      </trkpt>
      <trkpt lat="47.70682" lon="6.77244">
        <ele>583.0824</ele>
        <time>2012-09-30T08:22:52Z</time>
      </trkpt>
      <trkpt lat="47.70687" lon="6.77248">
        <ele>583.692</ele>
        <time>2012-09-30T08:22:53Z</time>
      </trkpt>
      <trkpt lat="47.70692" lon="6.77252">
        <ele>583.9968</ele>
        <time>2012-09-30T08:22:56Z</time>
      </trkpt>
      <trkpt lat="47.70696" lon="6.77256">
        <ele>583.9968</ele>
        <time>2012-09-30T08:22:57Z</time>
      </trkpt>
      <trkpt lat="47.70701" lon="6.7726">
        <ele>585.216</ele>
        <time>2012-09-30T08:23:00Z</time>
      </trkpt>
      <trkpt lat="47.70705" lon="6.77263">
        <ele>586.1304</ele>
        <time>2012-09-30T08:23:01Z</time>
      </trkpt>
      <trkpt lat="47.70709" lon="6.77268">
        <ele>585.8256</ele>
        <time>2012-09-30T08:23:04Z</time>
      </trkpt>
      <trkpt lat="47.70713" lon="6.77273">
        <ele>585.8256</ele>
        <time>2012-09-30T08:23:05Z</time>
      </trkpt>
      <trkpt lat="47.70718" lon="6.77279">
        <ele>584.9112</ele>
        <time>2012-09-30T08:23:07Z</time>
      </trkpt>
      <trkpt lat="47.70722" lon="6.77284">
        <ele>584.3016</ele>
        <time>2012-09-30T08:23:10Z</time>
      </trkpt>
      <trkpt lat="47.70727" lon="6.7729">
        <ele>583.9968</ele>
        <time>2012-09-30T08:23:11Z</time>
      </trkpt>
      <trkpt lat="47.70732" lon="6.77295">
        <ele>584.3016</ele>
        <time>2012-09-30T08:23:14Z</time>
      </trkpt>
      <trkpt lat="47.70737" lon="6.773">
        <ele>583.9968</ele>
        <time>2012-09-30T08:23:15Z</time>
      </trkpt>
      <trkpt lat="47.70742" lon="6.77301">
        <ele>584.6064</ele>
        <time>2012-09-30T08:23:18Z</time>
      </trkpt>
      <trkpt lat="47.70747" lon="6.77307">
        <ele>585.8256</ele>
        <time>2012-09-30T08:23:19Z</time>
      </trkpt>
      <trkpt lat="47.70752" lon="6.77311">
        <ele>586.4352</ele>
        <time>2012-09-30T08:23:22Z</time>
      </trkpt>
      <trkpt lat="47.70757" lon="6.77318">
        <ele>587.0448</ele>
        <time>2012-09-30T08:23:23Z</time>
      </trkpt>
      <trkpt lat="47.70762" lon="6.77325">
        <ele>586.74</ele>
        <time>2012-09-30T08:23:26Z</time>
      </trkpt>
      <trkpt lat="47.70768" lon="6.77332">
        <ele>587.6544</ele>
        <time>2012-09-30T08:23:27Z</time>
      </trkpt>
      <trkpt lat="47.70773" lon="6.77338">
        <ele>587.9592</ele>
        <time>2012-09-30T08:23:30Z</time>
      </trkpt>
      <trkpt lat="47.70778" lon="6.77345">
        <ele>588.264</ele>
        <time>2012-09-30T08:23:31Z</time>
      </trkpt>
      <trkpt lat="47.70781" lon="6.77353">
        <ele>589.788</ele>
        <time>2012-09-30T08:23:34Z</time>
      </trkpt>
      <trkpt lat="47.70783" lon="6.77359">
        <ele>592.5312</ele>
        <time>2012-09-30T08:23:35Z</time>
      </trkpt>
      <trkpt lat="47.70784" lon="6.77365">
        <ele>594.36</ele>
        <time>2012-09-30T08:23:38Z</time>
      </trkpt>
      <trkpt lat="47.70783" lon="6.77373">
        <ele>595.884</ele>
        <time>2012-09-30T08:23:39Z</time>
      </trkpt>
      <trkpt lat="47.70782" lon="6.7738">
        <ele>597.408</ele>
        <time>2012-09-30T08:23:42Z</time>
      </trkpt>
      <trkpt lat="47.70782" lon="6.77385">
        <ele>599.5416</ele>
        <time>2012-09-30T08:23:43Z</time>
      </trkpt>
      <trkpt lat="47.70781" lon="6.77392">
        <ele>600.7608</ele>
        <time>2012-09-30T08:23:46Z</time>
      </trkpt>
      <trkpt lat="47.7078" lon="6.77399">
        <ele>602.5896</ele>
        <time>2012-09-30T08:23:47Z</time>
      </trkpt>
      <trkpt lat="47.7078" lon="6.77405">
        <ele>603.1992</ele>
        <time>2012-09-30T08:23:50Z</time>
      </trkpt>
      <trkpt lat="47.70779" lon="6.77414">
        <ele>603.1992</ele>
        <time>2012-09-30T08:23:51Z</time>
      </trkpt>
      <trkpt lat="47.70779" lon="6.77423">
        <ele>602.5896</ele>
        <time>2012-09-30T08:23:54Z</time>
      </trkpt>
      <trkpt lat="47.70778" lon="6.77435">
        <ele>601.3704</ele>
        <time>2012-09-30T08:23:55Z</time>
      </trkpt>
      <trkpt lat="47.70778" lon="6.77448">
        <ele>598.3224</ele>
        <time>2012-09-30T08:23:58Z</time>
      </trkpt>
      <trkpt lat="47.70778" lon="6.77461">
        <ele>594.6648</ele>
        <time>2012-09-30T08:23:59Z</time>
      </trkpt>
      <trkpt lat="47.70778" lon="6.77474">
        <ele>591.312</ele>
        <time>2012-09-30T08:24:01Z</time>
      </trkpt>
      <trkpt lat="47.70778" lon="6.77486">
        <ele>588.5688</ele>
        <time>2012-09-30T08:24:04Z</time>
      </trkpt>
      <trkpt lat="47.70779" lon="6.77497">
        <ele>586.4352</ele>
        <time>2012-09-30T08:24:05Z</time>
      </trkpt>
      <trkpt lat="47.7078" lon="6.77509">
        <ele>584.6064</ele>
        <time>2012-09-30T08:24:08Z</time>
      </trkpt>
      <trkpt lat="47.70781" lon="6.7752">
        <ele>583.0824</ele>
        <time>2012-09-30T08:24:09Z</time>
      </trkpt>
      <trkpt lat="47.70782" lon="6.77531">
        <ele>581.8632</ele>
        <time>2012-09-30T08:24:12Z</time>
      </trkpt>
      <trkpt lat="47.70783" lon="6.77542">
        <ele>581.2536</ele>
        <time>2012-09-30T08:24:13Z</time>
      </trkpt>
      <trkpt lat="47.70784" lon="6.77554">
        <ele>580.644</ele>
        <time>2012-09-30T08:24:16Z</time>
      </trkpt>
      <trkpt lat="47.70785" lon="6.77565">
        <ele>579.4248</ele>
        <time>2012-09-30T08:24:17Z</time>
      </trkpt>
      <trkpt lat="47.70786" lon="6.77576">
        <ele>578.5104</ele>
        <time>2012-09-30T08:24:20Z</time>
      </trkpt>
      <trkpt lat="47.70788" lon="6.77587">
        <ele>577.596</ele>
        <time>2012-09-30T08:24:21Z</time>
      </trkpt>
      <trkpt lat="47.7079" lon="6.77599">
        <ele>576.6816</ele>
        <time>2012-09-30T08:24:24Z</time>
      </trkpt>
      <trkpt lat="47.70792" lon="6.77611">
        <ele>575.7672</ele>
        <time>2012-09-30T08:24:25Z</time>
      </trkpt>
      <trkpt lat="47.70794" lon="6.77622">
        <ele>575.7672</ele>
        <time>2012-09-30T08:24:28Z</time>
      </trkpt>
      <trkpt lat="47.70796" lon="6.77634">
        <ele>575.7672</ele>
        <time>2012-09-30T08:24:29Z</time>
      </trkpt>
      <trkpt lat="47.70799" lon="6.77645">
        <ele>575.4624</ele>
        <time>2012-09-30T08:24:32Z</time>
      </trkpt>
      <trkpt lat="47.70802" lon="6.77654">
        <ele>575.4624</ele>
        <time>2012-09-30T08:24:33Z</time>
      </trkpt>
      <trkpt lat="47.70805" lon="6.77664">
        <ele>575.4624</ele>
        <time>2012-09-30T08:24:36Z</time>
      </trkpt>
      <trkpt lat="47.70807" lon="6.77675">
        <ele>574.8528</ele>
        <time>2012-09-30T08:24:37Z</time>
      </trkpt>
      <trkpt lat="47.7081" lon="6.77684">
        <ele>574.8528</ele>
        <time>2012-09-30T08:24:40Z</time>
      </trkpt>
      <trkpt lat="47.70812" lon="6.77695">
        <ele>575.4624</ele>
        <time>2012-09-30T08:24:41Z</time>
      </trkpt>
      <trkpt lat="47.70814" lon="6.77705">
        <ele>574.8528</ele>
        <time>2012-09-30T08:24:44Z</time>
      </trkpt>
      <trkpt lat="47.70817" lon="6.77716">
        <ele>575.1576</ele>
        <time>2012-09-30T08:24:45Z</time>
      </trkpt>
      <trkpt lat="47.70821" lon="6.77726">
        <ele>575.1576</ele>
        <time>2012-09-30T08:24:48Z</time>
      </trkpt>
      <trkpt lat="47.70824" lon="6.77735">
        <ele>574.8528</ele>
        <time>2012-09-30T08:24:49Z</time>
      </trkpt>
      <trkpt lat="47.70826" lon="6.77745">
        <ele>575.4624</ele>
        <time>2012-09-30T08:24:52Z</time>
      </trkpt>
      <trkpt lat="47.7083" lon="6.77754">
        <ele>575.4624</ele>
        <time>2012-09-30T08:24:54Z</time>
      </trkpt>
      <trkpt lat="47.70833" lon="6.77764">
        <ele>576.072</ele>
        <time>2012-09-30T08:24:55Z</time>
      </trkpt>
      <trkpt lat="47.70836" lon="6.77773">
        <ele>576.3768</ele>
        <time>2012-09-30T08:24:58Z</time>
      </trkpt>
      <trkpt lat="47.7084" lon="6.77782">
        <ele>576.9864</ele>
        <time>2012-09-30T08:24:59Z</time>
      </trkpt>
      <trkpt lat="47.70843" lon="6.77791">
        <ele>578.8152</ele>
        <time>2012-09-30T08:25:02Z</time>
      </trkpt>
      <trkpt lat="47.70845" lon="6.778">
        <ele>579.4248</ele>
        <time>2012-09-30T08:25:03Z</time>
      </trkpt>
      <trkpt lat="47.70848" lon="6.77809">
        <ele>580.0344</ele>
        <time>2012-09-30T08:25:06Z</time>
      </trkpt>
      <trkpt lat="47.70852" lon="6.77818">
        <ele>581.2536</ele>
        <time>2012-09-30T08:25:07Z</time>
      </trkpt>
      <trkpt lat="47.70854" lon="6.77825">
        <ele>582.7776</ele>
        <time>2012-09-30T08:25:10Z</time>
      </trkpt>
      <trkpt lat="47.70856" lon="6.77833">
        <ele>583.692</ele>
        <time>2012-09-30T08:25:11Z</time>
      </trkpt>
      <trkpt lat="47.70859" lon="6.77841">
        <ele>584.6064</ele>
        <time>2012-09-30T08:25:14Z</time>
      </trkpt>
      <trkpt lat="47.70861" lon="6.77849">
        <ele>584.6064</ele>
        <time>2012-09-30T08:25:15Z</time>
      </trkpt>
      <trkpt lat="47.70865" lon="6.77858">
        <ele>583.692</ele>
        <time>2012-09-30T08:25:18Z</time>
      </trkpt>
      <trkpt lat="47.70868" lon="6.77867">
        <ele>583.3872</ele>
        <time>2012-09-30T08:25:19Z</time>
      </trkpt>
      <trkpt lat="47.70871" lon="6.77876">
        <ele>583.0824</ele>
        <time>2012-09-30T08:25:22Z</time>
      </trkpt>
      <trkpt lat="47.70873" lon="6.77886">
        <ele>582.7776</ele>
        <time>2012-09-30T08:25:23Z</time>
      </trkpt>
      <trkpt lat="47.70876" lon="6.77894">
        <ele>583.3872</ele>
        <time>2012-09-30T08:25:26Z</time>
      </trkpt>
      <trkpt lat="47.70878" lon="6.77904">
        <ele>584.3016</ele>
        <time>2012-09-30T08:25:27Z</time>
      </trkpt>
      <trkpt lat="47.7088" lon="6.77913">
        <ele>585.216</ele>
        <time>2012-09-30T08:25:30Z</time>
      </trkpt>
      <trkpt lat="47.70882" lon="6.77922">
        <ele>585.216</ele>
        <time>2012-09-30T08:25:31Z</time>
      </trkpt>
      <trkpt lat="47.70885" lon="6.7793">
        <ele>584.9112</ele>
        <time>2012-09-30T08:25:34Z</time>
      </trkpt>
      <trkpt lat="47.70888" lon="6.77939">
        <ele>584.3016</ele>
        <time>2012-09-30T08:25:35Z</time>
      </trkpt>
      <trkpt lat="47.7089" lon="6.77948">
        <ele>584.6064</ele>
        <time>2012-09-30T08:25:38Z</time>
      </trkpt>
      <trkpt lat="47.70892" lon="6.77957">
        <ele>585.5208</ele>
        <time>2012-09-30T08:25:39Z</time>
      </trkpt>
      <trkpt lat="47.70895" lon="6.77965">
        <ele>586.4352</ele>
        <time>2012-09-30T08:25:42Z</time>
      </trkpt>
      <trkpt lat="47.70898" lon="6.77974">
        <ele>587.0448</ele>
        <time>2012-09-30T08:25:43Z</time>
      </trkpt>
      <trkpt lat="47.709" lon="6.77983">
        <ele>587.0448</ele>
        <time>2012-09-30T08:25:46Z</time>
      </trkpt>
      <trkpt lat="47.70903" lon="6.77992">
        <ele>586.4352</ele>
        <time>2012-09-30T08:25:48Z</time>
      </trkpt>
      <trkpt lat="47.70907" lon="6.78002">
        <ele>586.1304</ele>
        <time>2012-09-30T08:25:49Z</time>
      </trkpt>
      <trkpt lat="47.70909" lon="6.78013">
        <ele>586.74</ele>
        <time>2012-09-30T08:25:52Z</time>
      </trkpt>
      <trkpt lat="47.70913" lon="6.78023">
        <ele>586.4352</ele>
        <time>2012-09-30T08:25:53Z</time>
      </trkpt>
      <trkpt lat="47.70916" lon="6.78033">
        <ele>586.1304</ele>
        <time>2012-09-30T08:25:56Z</time>
      </trkpt>
      <trkpt lat="47.7092" lon="6.78042">
        <ele>586.1304</ele>
        <time>2012-09-30T08:25:57Z</time>
      </trkpt>
      <trkpt lat="47.70924" lon="6.78049">
        <ele>586.4352</ele>
        <time>2012-09-30T08:26:00Z</time>
      </trkpt>
      <trkpt lat="47.70928" lon="6.78054">
        <ele>587.0448</ele>
        <time>2012-09-30T08:26:01Z</time>
      </trkpt>
      <trkpt lat="47.70932" lon="6.78056">
        <ele>587.6544</ele>
        <time>2012-09-30T08:26:04Z</time>
      </trkpt>
      <trkpt lat="47.70935" lon="6.78056">
        <ele>588.5688</ele>
        <time>2012-09-30T08:26:05Z</time>
      </trkpt>
      <trkpt lat="47.70939" lon="6.78056">
        <ele>588.8736</ele>
        <time>2012-09-30T08:26:08Z</time>
      </trkpt>
      <trkpt lat="47.70941" lon="6.78055">
        <ele>589.1784</ele>
        <time>2012-09-30T08:26:09Z</time>
      </trkpt>
      <trkpt lat="47.70944" lon="6.78054">
        <ele>589.788</ele>
        <time>2012-09-30T08:26:12Z</time>
      </trkpt>
      <trkpt lat="47.70947" lon="6.78051">
        <ele>590.0928</ele>
        <time>2012-09-30T08:26:13Z</time>
      </trkpt>
      <trkpt lat="47.70949" lon="6.7805">
        <ele>590.7024</ele>
        <time>2012-09-30T08:26:16Z</time>
      </trkpt>
      <trkpt lat="47.70952" lon="6.78049">
        <ele>591.6168</ele>
        <time>2012-09-30T08:26:17Z</time>
      </trkpt>
      <trkpt lat="47.70954" lon="6.78049">
        <ele>592.836</ele>
        <time>2012-09-30T08:26:20Z</time>
      </trkpt>
      <trkpt lat="47.70956" lon="6.78049">
        <ele>594.0552</ele>
        <time>2012-09-30T08:26:21Z</time>
      </trkpt>
      <trkpt lat="47.70958" lon="6.78048">
        <ele>594.6648</ele>
        <time>2012-09-30T08:26:24Z</time>
      </trkpt>
      <trkpt lat="47.70961" lon="6.78047">
        <ele>594.9696</ele>
        <time>2012-09-30T08:26:25Z</time>
      </trkpt>
      <trkpt lat="47.70963" lon="6.78046">
        <ele>595.5792</ele>
        <time>2012-09-30T08:26:28Z</time>
      </trkpt>
      <trkpt lat="47.70964" lon="6.78046">
        <ele>597.1032</ele>
        <time>2012-09-30T08:26:29Z</time>
      </trkpt>
      <trkpt lat="47.70966" lon="6.78046">
        <ele>597.7128</ele>
        <time>2012-09-30T08:26:32Z</time>
      </trkpt>
      <trkpt lat="47.70968" lon="6.78045">
        <ele>598.0176</ele>
        <time>2012-09-30T08:26:33Z</time>
      </trkpt>
      <trkpt lat="47.7097" lon="6.78044">
        <ele>598.6272</ele>
        <time>2012-09-30T08:26:36Z</time>
      </trkpt>
      <trkpt lat="47.70973" lon="6.78043">
        <ele>599.5416</ele>
        <time>2012-09-30T08:26:37Z</time>
      </trkpt>
      <trkpt lat="47.70975" lon="6.78042">
        <ele>600.456</ele>
        <time>2012-09-30T08:26:40Z</time>
      </trkpt>
      <trkpt lat="47.70977" lon="6.78041">
        <ele>601.3704</ele>
        <time>2012-09-30T08:26:42Z</time>
      </trkpt>
      <trkpt lat="47.7098" lon="6.7804">
        <ele>602.2848</ele>
        <time>2012-09-30T08:26:43Z</time>
      </trkpt>
      <trkpt lat="47.70982" lon="6.78039">
        <ele>603.1992</ele>
        <time>2012-09-30T08:26:46Z</time>
      </trkpt>
      <trkpt lat="47.70984" lon="6.78038">
        <ele>603.8088</ele>
        <time>2012-09-30T08:26:47Z</time>
      </trkpt>
      <trkpt lat="47.70986" lon="6.78036">
        <ele>604.7232</ele>
        <time>2012-09-30T08:26:50Z</time>
      </trkpt>
      <trkpt lat="47.70988" lon="6.78035">
        <ele>605.6376</ele>
        <time>2012-09-30T08:26:51Z</time>
      </trkpt>
      <trkpt lat="47.70989" lon="6.78035">
        <ele>606.2472</ele>
        <time>2012-09-30T08:26:54Z</time>
      </trkpt>
      <trkpt lat="47.70991" lon="6.78035">
        <ele>607.4664</ele>
        <time>2012-09-30T08:26:55Z</time>
      </trkpt>
      <trkpt lat="47.70993" lon="6.78034">
        <ele>608.076</ele>
        <time>2012-09-30T08:26:58Z</time>
      </trkpt>
      <trkpt lat="47.70997" lon="6.78024">
        <ele>612.3432</ele>
        <time>2012-09-30T08:27:30Z</time>
      </trkpt>
      <trkpt lat="47.70996" lon="6.78025">
        <ele>612.0384</ele>
        <time>2012-09-30T08:27:33Z</time>
      </trkpt>
      <trkpt lat="47.70995" lon="6.78027">
        <ele>612.0384</ele>
        <time>2012-09-30T08:27:34Z</time>
      </trkpt>
      <trkpt lat="47.70995" lon="6.78028">
        <ele>612.0384</ele>
        <time>2012-09-30T08:27:37Z</time>
      </trkpt>
      <trkpt lat="47.70994" lon="6.78029">
        <ele>613.2576</ele>
        <time>2012-09-30T08:27:38Z</time>
      </trkpt>
      <trkpt lat="47.70994" lon="6.78032">
        <ele>612.0384</ele>
        <time>2012-09-30T08:27:41Z</time>
      </trkpt>
      <trkpt lat="47.71" lon="6.78047">
        <ele>608.3808</ele>
        <time>2012-09-30T08:31:21Z</time>
      </trkpt>
      <trkpt lat="47.71001" lon="6.78042">
        <ele>608.9904</ele>
        <time>2012-09-30T08:31:24Z</time>
      </trkpt>
      <trkpt lat="47.71001" lon="6.78038">
        <ele>608.9904</ele>
        <time>2012-09-30T08:31:25Z</time>
      </trkpt>
      <trkpt lat="47.71" lon="6.7803">
        <ele>608.3808</ele>
        <time>2012-09-30T08:31:29Z</time>
      </trkpt>
      <trkpt lat="47.71001" lon="6.78024">
        <ele>608.9904</ele>
        <time>2012-09-30T08:31:30Z</time>
      </trkpt>
      <trkpt lat="47.71001" lon="6.78019">
        <ele>609.6</ele>
        <time>2012-09-30T08:31:33Z</time>
      </trkpt>
      <trkpt lat="47.71001" lon="6.78013">
        <ele>608.6856</ele>
        <time>2012-09-30T08:31:34Z</time>
      </trkpt>
      <trkpt lat="47.71001" lon="6.78008">
        <ele>609.6</ele>
        <time>2012-09-30T08:31:37Z</time>
      </trkpt>
      <trkpt lat="47.71002" lon="6.78002">
        <ele>610.5144</ele>
        <time>2012-09-30T08:31:39Z</time>
      </trkpt>
      <trkpt lat="47.71002" lon="6.77996">
        <ele>609.9048</ele>
        <time>2012-09-30T08:31:40Z</time>
      </trkpt>
      <trkpt lat="47.71001" lon="6.7799">
        <ele>608.6856</ele>
        <time>2012-09-30T08:31:43Z</time>
      </trkpt>
      <trkpt lat="47.71" lon="6.77987">
        <ele>608.6856</ele>
        <time>2012-09-30T08:31:44Z</time>
      </trkpt>
      <trkpt lat="47.70998" lon="6.77979">
        <ele>608.3808</ele>
        <time>2012-09-30T08:31:47Z</time>
      </trkpt>
      <trkpt lat="47.70997" lon="6.77977">
        <ele>608.3808</ele>
        <time>2012-09-30T08:31:48Z</time>
      </trkpt>
      <trkpt lat="47.70995" lon="6.77972">
        <ele>607.4664</ele>
        <time>2012-09-30T08:31:49Z</time>
      </trkpt>
      <trkpt lat="47.70994" lon="6.77968">
        <ele>608.076</ele>
        <time>2012-09-30T08:31:52Z</time>
      </trkpt>
      <trkpt lat="47.70994" lon="6.77964">
        <ele>609.6</ele>
        <time>2012-09-30T08:31:53Z</time>
      </trkpt>
      <trkpt lat="47.70993" lon="6.77959">
        <ele>611.124</ele>
        <time>2012-09-30T08:31:56Z</time>
      </trkpt>
      <trkpt lat="47.70992" lon="6.77953">
        <ele>610.8192</ele>
        <time>2012-09-30T08:31:57Z</time>
      </trkpt>
      <trkpt lat="47.70992" lon="6.77948">
        <ele>610.8192</ele>
        <time>2012-09-30T08:32:00Z</time>
      </trkpt>
      <trkpt lat="47.70993" lon="6.7794">
        <ele>610.8192</ele>
        <time>2012-09-30T08:32:03Z</time>
      </trkpt>
      <trkpt lat="47.70991" lon="6.77934">
        <ele>608.3808</ele>
        <time>2012-09-30T08:32:04Z</time>
      </trkpt>
      <trkpt lat="47.7099" lon="6.77931">
        <ele>607.7712</ele>
        <time>2012-09-30T08:32:05Z</time>
      </trkpt>
      <trkpt lat="47.7099" lon="6.77926">
        <ele>608.076</ele>
        <time>2012-09-30T08:32:07Z</time>
      </trkpt>
      <trkpt lat="47.70991" lon="6.77921">
        <ele>607.4664</ele>
        <time>2012-09-30T08:32:10Z</time>
      </trkpt>
      <trkpt lat="47.70989" lon="6.77914">
        <ele>608.3808</ele>
        <time>2012-09-30T08:32:12Z</time>
      </trkpt>
      <trkpt lat="47.70989" lon="6.77912">
        <ele>608.3808</ele>
        <time>2012-09-30T08:32:14Z</time>
      </trkpt>
      <trkpt lat="47.70988" lon="6.77907">
        <ele>608.6856</ele>
        <time>2012-09-30T08:32:15Z</time>
      </trkpt>
      <trkpt lat="47.70987" lon="6.77901">
        <ele>608.6856</ele>
        <time>2012-09-30T08:32:18Z</time>
      </trkpt>
      <trkpt lat="47.70986" lon="6.77896">
        <ele>608.9904</ele>
        <time>2012-09-30T08:32:19Z</time>
      </trkpt>
      <trkpt lat="47.70985" lon="6.7789">
        <ele>608.9904</ele>
        <time>2012-09-30T08:32:22Z</time>
      </trkpt>
      <trkpt lat="47.70984" lon="6.77882">
        <ele>608.076</ele>
        <time>2012-09-30T08:32:24Z</time>
      </trkpt>
      <trkpt lat="47.70983" lon="6.77879">
        <ele>607.7712</ele>
        <time>2012-09-30T08:32:26Z</time>
      </trkpt>
      <trkpt lat="47.70982" lon="6.77873">
        <ele>608.076</ele>
        <time>2012-09-30T08:32:27Z</time>
      </trkpt>
      <trkpt lat="47.70982" lon="6.77869">
        <ele>608.6856</ele>
        <time>2012-09-30T08:32:30Z</time>
      </trkpt>
      <trkpt lat="47.70981" lon="6.77864">
        <ele>609.2952</ele>
        <time>2012-09-30T08:32:31Z</time>
      </trkpt>
      <trkpt lat="47.7098" lon="6.77859">
        <ele>609.6</ele>
        <time>2012-09-30T08:32:34Z</time>
      </trkpt>
      <trkpt lat="47.70979" lon="6.77854">
        <ele>609.2952</ele>
        <time>2012-09-30T08:32:35Z</time>
      </trkpt>
      <trkpt lat="47.70976" lon="6.77846">
        <ele>608.9904</ele>
        <time>2012-09-30T08:32:38Z</time>
      </trkpt>
      <trkpt lat="47.70974" lon="6.7784">
        <ele>608.3808</ele>
        <time>2012-09-30T08:32:41Z</time>
      </trkpt>
      <trkpt lat="47.70974" lon="6.77837">
        <ele>608.3808</ele>
        <time>2012-09-30T08:32:42Z</time>
      </trkpt>
      <trkpt lat="47.70973" lon="6.77832">
        <ele>608.6856</ele>
        <time>2012-09-30T08:32:43Z</time>
      </trkpt>
      <trkpt lat="47.70971" lon="6.77824">
        <ele>608.3808</ele>
        <time>2012-09-30T08:32:46Z</time>
      </trkpt>
      <trkpt lat="47.7097" lon="6.77818">
        <ele>609.2952</ele>
        <time>2012-09-30T08:32:49Z</time>
      </trkpt>
      <trkpt lat="47.7097" lon="6.77813">
        <ele>609.2952</ele>
        <time>2012-09-30T08:32:50Z</time>
      </trkpt>
      <trkpt lat="47.7097" lon="6.7781">
        <ele>609.9048</ele>
        <time>2012-09-30T08:32:51Z</time>
      </trkpt>
      <trkpt lat="47.70971" lon="6.77801">
        <ele>610.8192</ele>
        <time>2012-09-30T08:32:54Z</time>
      </trkpt>
      <trkpt lat="47.70971" lon="6.77798">
        <ele>611.124</ele>
        <time>2012-09-30T08:32:55Z</time>
      </trkpt>
      <trkpt lat="47.7097" lon="6.77793">
        <ele>612.3432</ele>
        <time>2012-09-30T08:32:58Z</time>
      </trkpt>
      <trkpt lat="47.7097" lon="6.77787">
        <ele>613.2576</ele>
        <time>2012-09-30T08:32:59Z</time>
      </trkpt>
      <trkpt lat="47.70969" lon="6.77777">
        <ele>614.4768</ele>
        <time>2012-09-30T08:33:02Z</time>
      </trkpt>
      <trkpt lat="47.70969" lon="6.77774">
        <ele>615.0864</ele>
        <time>2012-09-30T08:33:04Z</time>
      </trkpt>
      <trkpt lat="47.70968" lon="6.77767">
        <ele>616.0008</ele>
        <time>2012-09-30T08:33:05Z</time>
      </trkpt>
      <trkpt lat="47.70968" lon="6.77761">
        <ele>616.3056</ele>
        <time>2012-09-30T08:33:08Z</time>
      </trkpt>
      <trkpt lat="47.70967" lon="6.77755">
        <ele>617.8296</ele>
        <time>2012-09-30T08:33:09Z</time>
      </trkpt>
      <trkpt lat="47.70966" lon="6.77749">
        <ele>618.744</ele>
        <time>2012-09-30T08:33:12Z</time>
      </trkpt>
      <trkpt lat="47.70963" lon="6.77741">
        <ele>619.3536</ele>
        <time>2012-09-30T08:33:14Z</time>
      </trkpt>
      <trkpt lat="47.70962" lon="6.77737">
        <ele>619.3536</ele>
        <time>2012-09-30T08:33:16Z</time>
      </trkpt>
      <trkpt lat="47.70961" lon="6.77726">
        <ele>619.0488</ele>
        <time>2012-09-30T08:33:18Z</time>
      </trkpt>
      <trkpt lat="47.70961" lon="6.77722">
        <ele>619.0488</ele>
        <time>2012-09-30T08:33:20Z</time>
      </trkpt>
      <trkpt lat="47.70959" lon="6.77708">
        <ele>619.0488</ele>
        <time>2012-09-30T08:33:22Z</time>
      </trkpt>
      <trkpt lat="47.70958" lon="6.77703">
        <ele>619.0488</ele>
        <time>2012-09-30T08:33:24Z</time>
      </trkpt>
      <trkpt lat="47.70953" lon="6.77686">
        <ele>616.3056</ele>
        <time>2012-09-30T08:33:26Z</time>
      </trkpt>
      <trkpt lat="47.70951" lon="6.77681">
        <ele>616.0008</ele>
        <time>2012-09-30T08:33:28Z</time>
      </trkpt>
      <trkpt lat="47.70949" lon="6.77667">
        <ele>614.172</ele>
        <time>2012-09-30T08:33:29Z</time>
      </trkpt>
      <trkpt lat="47.70948" lon="6.77648">
        <ele>614.172</ele>
        <time>2012-09-30T08:33:32Z</time>
      </trkpt>
      <trkpt lat="47.70948" lon="6.77642">
        <ele>613.5624</ele>
        <time>2012-09-30T08:33:33Z</time>
      </trkpt>
      <trkpt lat="47.70949" lon="6.77629">
        <ele>612.9528</ele>
        <time>2012-09-30T08:33:36Z</time>
      </trkpt>
      <trkpt lat="47.70949" lon="6.77619">
        <ele>614.172</ele>
        <time>2012-09-30T08:33:37Z</time>
      </trkpt>
      <trkpt lat="47.70949" lon="6.77608">
        <ele>615.0864</ele>
        <time>2012-09-30T08:33:40Z</time>
      </trkpt>
      <trkpt lat="47.7095" lon="6.77598">
        <ele>616.6104</ele>
        <time>2012-09-30T08:33:41Z</time>
      </trkpt>
      <trkpt lat="47.70954" lon="6.77583">
        <ele>616.3056</ele>
        <time>2012-09-30T08:33:44Z</time>
      </trkpt>
      <trkpt lat="47.70955" lon="6.77578">
        <ele>616.3056</ele>
        <time>2012-09-30T08:33:45Z</time>
      </trkpt>
      <trkpt lat="47.70955" lon="6.77561">
        <ele>615.0864</ele>
        <time>2012-09-30T08:33:48Z</time>
      </trkpt>
      <trkpt lat="47.70955" lon="6.77555">
        <ele>615.0864</ele>
        <time>2012-09-30T08:33:49Z</time>
      </trkpt>
      <trkpt lat="47.70956" lon="6.77534">
        <ele>613.2576</ele>
        <time>2012-09-30T08:33:52Z</time>
      </trkpt>
      <trkpt lat="47.70956" lon="6.77527">
        <ele>612.648</ele>
        <time>2012-09-30T08:33:53Z</time>
      </trkpt>
      <trkpt lat="47.70958" lon="6.77505">
        <ele>612.0384</ele>
        <time>2012-09-30T08:33:56Z</time>
      </trkpt>
      <trkpt lat="47.70958" lon="6.77497">
        <ele>611.124</ele>
        <time>2012-09-30T08:33:58Z</time>
      </trkpt>
      <trkpt lat="47.70959" lon="6.77483">
        <ele>611.124</ele>
        <time>2012-09-30T08:33:59Z</time>
      </trkpt>
      <trkpt lat="47.70959" lon="6.7747">
        <ele>610.5144</ele>
        <time>2012-09-30T08:34:02Z</time>
      </trkpt>
      <trkpt lat="47.70954" lon="6.77451">
        <ele>610.5144</ele>
        <time>2012-09-30T08:34:04Z</time>
      </trkpt>
      <trkpt lat="47.70952" lon="6.77445">
        <ele>610.5144</ele>
        <time>2012-09-30T08:34:06Z</time>
      </trkpt>
      <trkpt lat="47.70946" lon="6.77427">
        <ele>611.4288</ele>
        <time>2012-09-30T08:34:08Z</time>
      </trkpt>
      <trkpt lat="47.70945" lon="6.77421">
        <ele>611.7336</ele>
        <time>2012-09-30T08:34:10Z</time>
      </trkpt>
      <trkpt lat="47.70941" lon="6.77402">
        <ele>611.4288</ele>
        <time>2012-09-30T08:34:12Z</time>
      </trkpt>
      <trkpt lat="47.70941" lon="6.77396">
        <ele>611.7336</ele>
        <time>2012-09-30T08:34:14Z</time>
      </trkpt>
      <trkpt lat="47.70938" lon="6.77385">
        <ele>613.5624</ele>
        <time>2012-09-30T08:34:16Z</time>
      </trkpt>
      <trkpt lat="47.70937" lon="6.77382">
        <ele>613.5624</ele>
        <time>2012-09-30T08:34:18Z</time>
      </trkpt>
      <trkpt lat="47.70933" lon="6.77367">
        <ele>613.2576</ele>
        <time>2012-09-30T08:34:20Z</time>
      </trkpt>
      <trkpt lat="47.70932" lon="6.77361">
        <ele>613.2576</ele>
        <time>2012-09-30T08:34:22Z</time>
      </trkpt>
      <trkpt lat="47.70933" lon="6.77348">
        <ele>613.8672</ele>
        <time>2012-09-30T08:34:23Z</time>
      </trkpt>
      <trkpt lat="47.70932" lon="6.77337">
        <ele>614.4768</ele>
        <time>2012-09-30T08:34:26Z</time>
      </trkpt>
      <trkpt lat="47.70931" lon="6.77325">
        <ele>614.7816</ele>
        <time>2012-09-30T08:34:27Z</time>
      </trkpt>
      <trkpt lat="47.70931" lon="6.77314">
        <ele>614.7816</ele>
        <time>2012-09-30T08:34:30Z</time>
      </trkpt>
      <trkpt lat="47.7093" lon="6.77303">
        <ele>614.4768</ele>
        <time>2012-09-30T08:34:31Z</time>
      </trkpt>
      <trkpt lat="47.70928" lon="6.77293">
        <ele>616.3056</ele>
        <time>2012-09-30T08:34:34Z</time>
      </trkpt>
      <trkpt lat="47.70926" lon="6.77282">
        <ele>616.6104</ele>
        <time>2012-09-30T08:34:35Z</time>
      </trkpt>
      <trkpt lat="47.70923" lon="6.77272">
        <ele>616.0008</ele>
        <time>2012-09-30T08:34:38Z</time>
      </trkpt>
      <trkpt lat="47.70918" lon="6.77263">
        <ele>616.3056</ele>
        <time>2012-09-30T08:34:39Z</time>
      </trkpt>
      <trkpt lat="47.70916" lon="6.77254">
        <ele>617.22</ele>
        <time>2012-09-30T08:34:42Z</time>
      </trkpt>
      <trkpt lat="47.70915" lon="6.77242">
        <ele>617.22</ele>
        <time>2012-09-30T08:34:43Z</time>
      </trkpt>
      <trkpt lat="47.70918" lon="6.7723">
        <ele>615.696</ele>
        <time>2012-09-30T08:34:46Z</time>
      </trkpt>
      <trkpt lat="47.70918" lon="6.77218">
        <ele>615.696</ele>
        <time>2012-09-30T08:34:47Z</time>
      </trkpt>
      <trkpt lat="47.70915" lon="6.77206">
        <ele>616.0008</ele>
        <time>2012-09-30T08:34:49Z</time>
      </trkpt>
      <trkpt lat="47.70912" lon="6.77193">
        <ele>615.696</ele>
        <time>2012-09-30T08:34:52Z</time>
      </trkpt>
      <trkpt lat="47.7091" lon="6.77181">
        <ele>615.696</ele>
        <time>2012-09-30T08:34:53Z</time>
      </trkpt>
      <trkpt lat="47.70907" lon="6.77169">
        <ele>615.696</ele>
        <time>2012-09-30T08:34:56Z</time>
      </trkpt>
      <trkpt lat="47.70906" lon="6.77157">
        <ele>616.0008</ele>
        <time>2012-09-30T08:34:57Z</time>
      </trkpt>
      <trkpt lat="47.70904" lon="6.77147">
        <ele>616.3056</ele>
        <time>2012-09-30T08:35:00Z</time>
      </trkpt>
      <trkpt lat="47.70899" lon="6.77137">
        <ele>615.3912</ele>
        <time>2012-09-30T08:35:01Z</time>
      </trkpt>
      <trkpt lat="47.70891" lon="6.7713">
        <ele>615.696</ele>
        <time>2012-09-30T08:35:04Z</time>
      </trkpt>
      <trkpt lat="47.70885" lon="6.77121">
        <ele>617.22</ele>
        <time>2012-09-30T08:35:05Z</time>
      </trkpt>
      <trkpt lat="47.70882" lon="6.77109">
        <ele>615.696</ele>
        <time>2012-09-30T08:35:08Z</time>
      </trkpt>
      <trkpt lat="47.70877" lon="6.77099">
        <ele>615.3912</ele>
        <time>2012-09-30T08:35:09Z</time>
      </trkpt>
      <trkpt lat="47.7087" lon="6.77089">
        <ele>614.172</ele>
        <time>2012-09-30T08:35:12Z</time>
      </trkpt>
      <trkpt lat="47.70861" lon="6.77079">
        <ele>612.648</ele>
        <time>2012-09-30T08:35:13Z</time>
      </trkpt>
      <trkpt lat="47.70851" lon="6.77069">
        <ele>610.8192</ele>
        <time>2012-09-30T08:35:16Z</time>
      </trkpt>
      <trkpt lat="47.7084" lon="6.77057">
        <ele>608.9904</ele>
        <time>2012-09-30T08:35:17Z</time>
      </trkpt>
      <trkpt lat="47.7083" lon="6.77044">
        <ele>606.552</ele>
        <time>2012-09-30T08:35:20Z</time>
      </trkpt>
      <trkpt lat="47.70821" lon="6.77031">
        <ele>604.1136</ele>
        <time>2012-09-30T08:35:21Z</time>
      </trkpt>
      <trkpt lat="47.70808" lon="6.77023">
        <ele>603.504</ele>
        <time>2012-09-30T08:35:24Z</time>
      </trkpt>
      <trkpt lat="47.70794" lon="6.77019">
        <ele>602.5896</ele>
        <time>2012-09-30T08:35:25Z</time>
      </trkpt>
      <trkpt lat="47.70783" lon="6.77015">
        <ele>602.2848</ele>
        <time>2012-09-30T08:35:28Z</time>
      </trkpt>
      <trkpt lat="47.70775" lon="6.77008">
        <ele>601.6752</ele>
        <time>2012-09-30T08:35:29Z</time>
      </trkpt>
      <trkpt lat="47.70772" lon="6.77001">
        <ele>600.7608</ele>
        <time>2012-09-30T08:35:32Z</time>
      </trkpt>
      <trkpt lat="47.70768" lon="6.76997">
        <ele>600.1512</ele>
        <time>2012-09-30T08:35:33Z</time>
      </trkpt>
      <trkpt lat="47.70761" lon="6.76991">
        <ele>599.8464</ele>
        <time>2012-09-30T08:35:36Z</time>
      </trkpt>
      <trkpt lat="47.70753" lon="6.76983">
        <ele>599.5416</ele>
        <time>2012-09-30T08:35:37Z</time>
      </trkpt>
      <trkpt lat="47.70742" lon="6.76973">
        <ele>598.932</ele>
        <time>2012-09-30T08:35:40Z</time>
      </trkpt>
      <trkpt lat="47.70731" lon="6.76963">
        <ele>597.7128</ele>
        <time>2012-09-30T08:35:42Z</time>
      </trkpt>
      <trkpt lat="47.70722" lon="6.76954">
        <ele>596.4936</ele>
        <time>2012-09-30T08:35:43Z</time>
      </trkpt>
      <trkpt lat="47.70713" lon="6.76942">
        <ele>593.7504</ele>
        <time>2012-09-30T08:35:46Z</time>
      </trkpt>
      <trkpt lat="47.7071" lon="6.76931">
        <ele>593.7504</ele>
        <time>2012-09-30T08:35:47Z</time>
      </trkpt>
      <trkpt lat="47.70711" lon="6.7692">
        <ele>594.6648</ele>
        <time>2012-09-30T08:35:50Z</time>
      </trkpt>
      <trkpt lat="47.70714" lon="6.76912">
        <ele>593.1408</ele>
        <time>2012-09-30T08:35:51Z</time>
      </trkpt>
      <trkpt lat="47.70718" lon="6.76904">
        <ele>592.2264</ele>
        <time>2012-09-30T08:35:54Z</time>
      </trkpt>
      <trkpt lat="47.70723" lon="6.76896">
        <ele>591.9216</ele>
        <time>2012-09-30T08:35:55Z</time>
      </trkpt>
      <trkpt lat="47.70726" lon="6.76887">
        <ele>590.0928</ele>
        <time>2012-09-30T08:35:58Z</time>
      </trkpt>
      <trkpt lat="47.70732" lon="6.76877">
        <ele>589.1784</ele>
        <time>2012-09-30T08:35:59Z</time>
      </trkpt>
      <trkpt lat="47.70738" lon="6.76866">
        <ele>588.5688</ele>
        <time>2012-09-30T08:36:02Z</time>
      </trkpt>
      <trkpt lat="47.70744" lon="6.76855">
        <ele>586.74</ele>
        <time>2012-09-30T08:36:03Z</time>
      </trkpt>
      <trkpt lat="47.70749" lon="6.76847">
        <ele>587.0448</ele>
        <time>2012-09-30T08:36:06Z</time>
      </trkpt>
      <trkpt lat="47.70754" lon="6.76842">
        <ele>587.0448</ele>
        <time>2012-09-30T08:36:07Z</time>
      </trkpt>
      <trkpt lat="47.70761" lon="6.7684">
        <ele>587.0448</ele>
        <time>2012-09-30T08:36:10Z</time>
      </trkpt>
      <trkpt lat="47.70766" lon="6.76839">
        <ele>587.0448</ele>
        <time>2012-09-30T08:36:11Z</time>
      </trkpt>
      <trkpt lat="47.7077" lon="6.7684">
        <ele>587.3496</ele>
        <time>2012-09-30T08:36:14Z</time>
      </trkpt>
      <trkpt lat="47.70774" lon="6.76841">
        <ele>587.9592</ele>
        <time>2012-09-30T08:36:15Z</time>
      </trkpt>
      <trkpt lat="47.70779" lon="6.76838">
        <ele>588.8736</ele>
        <time>2012-09-30T08:36:18Z</time>
      </trkpt>
      <trkpt lat="47.70783" lon="6.76835">
        <ele>589.4832</ele>
        <time>2012-09-30T08:36:19Z</time>
      </trkpt>
      <trkpt lat="47.70787" lon="6.76833">
        <ele>589.788</ele>
        <time>2012-09-30T08:36:22Z</time>
      </trkpt>
      <trkpt lat="47.70791" lon="6.7683">
        <ele>590.3976</ele>
        <time>2012-09-30T08:36:23Z</time>
      </trkpt>
      <trkpt lat="47.70795" lon="6.76828">
        <ele>591.0072</ele>
        <time>2012-09-30T08:36:26Z</time>
      </trkpt>
      <trkpt lat="47.70798" lon="6.76826">
        <ele>591.312</ele>
        <time>2012-09-30T08:36:27Z</time>
      </trkpt>
      <trkpt lat="47.70802" lon="6.76824">
        <ele>591.6168</ele>
        <time>2012-09-30T08:36:30Z</time>
      </trkpt>
      <trkpt lat="47.70806" lon="6.76823">
        <ele>591.6168</ele>
        <time>2012-09-30T08:36:31Z</time>
      </trkpt>
      <trkpt lat="47.7081" lon="6.76821">
        <ele>591.6168</ele>
        <time>2012-09-30T08:36:34Z</time>
      </trkpt>
      <trkpt lat="47.70814" lon="6.76821">
        <ele>591.9216</ele>
        <time>2012-09-30T08:36:36Z</time>
      </trkpt>
      <trkpt lat="47.70819" lon="6.7682">
        <ele>591.9216</ele>
        <time>2012-09-30T08:36:37Z</time>
      </trkpt>
      <trkpt lat="47.70823" lon="6.7682">
        <ele>591.9216</ele>
        <time>2012-09-30T08:36:40Z</time>
      </trkpt>
      <trkpt lat="47.70828" lon="6.76821">
        <ele>592.2264</ele>
        <time>2012-09-30T08:36:41Z</time>
      </trkpt>
      <trkpt lat="47.70832" lon="6.76821">
        <ele>592.836</ele>
        <time>2012-09-30T08:36:44Z</time>
      </trkpt>
      <trkpt lat="47.70837" lon="6.76822">
        <ele>592.836</ele>
        <time>2012-09-30T08:36:45Z</time>
      </trkpt>
      <trkpt lat="47.70842" lon="6.76823">
        <ele>592.836</ele>
        <time>2012-09-30T08:36:48Z</time>
      </trkpt>
      <trkpt lat="47.70847" lon="6.76823">
        <ele>593.1408</ele>
        <time>2012-09-30T08:36:49Z</time>
      </trkpt>
      <trkpt lat="47.70853" lon="6.76824">
        <ele>593.7504</ele>
        <time>2012-09-30T08:36:52Z</time>
      </trkpt>
      <trkpt lat="47.70858" lon="6.76824">
        <ele>593.7504</ele>
        <time>2012-09-30T08:36:53Z</time>
      </trkpt>
      <trkpt lat="47.70863" lon="6.76826">
        <ele>594.6648</ele>
        <time>2012-09-30T08:36:56Z</time>
      </trkpt>
      <trkpt lat="47.70868" lon="6.76828">
        <ele>595.2744</ele>
        <time>2012-09-30T08:36:57Z</time>
      </trkpt>
      <trkpt lat="47.70874" lon="6.76829">
        <ele>596.1888</ele>
        <time>2012-09-30T08:37:00Z</time>
      </trkpt>
      <trkpt lat="47.7088" lon="6.7683">
        <ele>598.0176</ele>
        <time>2012-09-30T08:37:01Z</time>
      </trkpt>
      <trkpt lat="47.70886" lon="6.76833">
        <ele>598.932</ele>
        <time>2012-09-30T08:37:04Z</time>
      </trkpt>
      <trkpt lat="47.70892" lon="6.76835">
        <ele>599.8464</ele>
        <time>2012-09-30T08:37:05Z</time>
      </trkpt>
      <trkpt lat="47.70898" lon="6.76839">
        <ele>600.1512</ele>
        <time>2012-09-30T08:37:08Z</time>
      </trkpt>
      <trkpt lat="47.70904" lon="6.76843">
        <ele>599.2368</ele>
        <time>2012-09-30T08:37:09Z</time>
      </trkpt>
      <trkpt lat="47.7091" lon="6.76845">
        <ele>599.2368</ele>
        <time>2012-09-30T08:37:12Z</time>
      </trkpt>
      <trkpt lat="47.70916" lon="6.76846">
        <ele>599.5416</ele>
        <time>2012-09-30T08:37:13Z</time>
      </trkpt>
      <trkpt lat="47.70922" lon="6.76847">
        <ele>600.1512</ele>
        <time>2012-09-30T08:37:16Z</time>
      </trkpt>
      <trkpt lat="47.70928" lon="6.76847">
        <ele>601.0656</ele>
        <time>2012-09-30T08:37:17Z</time>
      </trkpt>
      <trkpt lat="47.70933" lon="6.76848">
        <ele>601.98</ele>
        <time>2012-09-30T08:37:20Z</time>
      </trkpt>
      <trkpt lat="47.70939" lon="6.7685">
        <ele>601.3704</ele>
        <time>2012-09-30T08:37:21Z</time>
      </trkpt>
      <trkpt lat="47.70945" lon="6.76852">
        <ele>600.7608</ele>
        <time>2012-09-30T08:37:24Z</time>
      </trkpt>
      <trkpt lat="47.70951" lon="6.76856">
        <ele>601.0656</ele>
        <time>2012-09-30T08:37:25Z</time>
      </trkpt>
      <trkpt lat="47.70957" lon="6.76861">
        <ele>601.0656</ele>
        <time>2012-09-30T08:37:28Z</time>
      </trkpt>
      <trkpt lat="47.70962" lon="6.76866">
        <ele>600.456</ele>
        <time>2012-09-30T08:37:30Z</time>
      </trkpt>
      <trkpt lat="47.70967" lon="6.76873">
        <ele>598.6272</ele>
        <time>2012-09-30T08:37:31Z</time>
      </trkpt>
      <trkpt lat="47.70971" lon="6.76881">
        <ele>596.1888</ele>
        <time>2012-09-30T08:37:34Z</time>
      </trkpt>
      <trkpt lat="47.70975" lon="6.76889">
        <ele>595.2744</ele>
        <time>2012-09-30T08:37:35Z</time>
      </trkpt>
      <trkpt lat="47.70982" lon="6.76898">
        <ele>594.6648</ele>
        <time>2012-09-30T08:37:38Z</time>
      </trkpt>
      <trkpt lat="47.70989" lon="6.76907">
        <ele>594.9696</ele>
        <time>2012-09-30T08:37:39Z</time>
      </trkpt>
      <trkpt lat="47.70995" lon="6.76918">
        <ele>593.7504</ele>
        <time>2012-09-30T08:37:42Z</time>
      </trkpt>
      <trkpt lat="47.71" lon="6.76931">
        <ele>591.6168</ele>
        <time>2012-09-30T08:37:43Z</time>
      </trkpt>
      <trkpt lat="47.71005" lon="6.76947">
        <ele>589.788</ele>
        <time>2012-09-30T08:37:46Z</time>
      </trkpt>
      <trkpt lat="47.71011" lon="6.76963">
        <ele>587.3496</ele>
        <time>2012-09-30T08:37:47Z</time>
      </trkpt>
      <trkpt lat="47.71016" lon="6.76979">
        <ele>584.6064</ele>
        <time>2012-09-30T08:37:50Z</time>
      </trkpt>
      <trkpt lat="47.7102" lon="6.76993">
        <ele>580.9488</ele>
        <time>2012-09-30T08:37:51Z</time>
      </trkpt>
      <trkpt lat="47.71024" lon="6.77001">
        <ele>578.8152</ele>
        <time>2012-09-30T08:37:54Z</time>
      </trkpt>
      <trkpt lat="47.7103" lon="6.77001">
        <ele>576.6816</ele>
        <time>2012-09-30T08:37:55Z</time>
      </trkpt>
      <trkpt lat="47.71039" lon="6.76994">
        <ele>576.6816</ele>
        <time>2012-09-30T08:37:58Z</time>
      </trkpt>
      <trkpt lat="47.71049" lon="6.76989">
        <ele>575.4624</ele>
        <time>2012-09-30T08:37:59Z</time>
      </trkpt>
      <trkpt lat="47.71058" lon="6.76984">
        <ele>573.6336</ele>
        <time>2012-09-30T08:38:02Z</time>
      </trkpt>
      <trkpt lat="47.71064" lon="6.76984">
        <ele>571.8048</ele>
        <time>2012-09-30T08:38:03Z</time>
      </trkpt>
      <trkpt lat="47.71069" lon="6.76988">
        <ele>571.5</ele>
        <time>2012-09-30T08:38:06Z</time>
      </trkpt>
      <trkpt lat="47.71074" lon="6.76996">
        <ele>572.4144</ele>
        <time>2012-09-30T08:38:07Z</time>
      </trkpt>
      <trkpt lat="47.71074" lon="6.7701">
        <ele>573.3288</ele>
        <time>2012-09-30T08:38:10Z</time>
      </trkpt>
      <trkpt lat="47.71074" lon="6.77023">
        <ele>573.024</ele>
        <time>2012-09-30T08:38:11Z</time>
      </trkpt>
      <trkpt lat="47.71075" lon="6.77035">
        <ele>572.7192</ele>
        <time>2012-09-30T08:38:14Z</time>
      </trkpt>
      <trkpt lat="47.71075" lon="6.77048">
        <ele>573.024</ele>
        <time>2012-09-30T08:38:15Z</time>
      </trkpt>
      <trkpt lat="47.71075" lon="6.7706">
        <ele>571.5</ele>
        <time>2012-09-30T08:38:18Z</time>
      </trkpt>
      <trkpt lat="47.71076" lon="6.77071">
        <ele>570.5856</ele>
        <time>2012-09-30T08:38:19Z</time>
      </trkpt>
      <trkpt lat="47.71078" lon="6.77084">
        <ele>569.0616</ele>
        <time>2012-09-30T08:38:22Z</time>
      </trkpt>
      <trkpt lat="47.7108" lon="6.77098">
        <ele>568.452</ele>
        <time>2012-09-30T08:38:24Z</time>
      </trkpt>
      <trkpt lat="47.71081" lon="6.77108">
        <ele>567.8424</ele>
        <time>2012-09-30T08:38:25Z</time>
      </trkpt>
      <trkpt lat="47.71081" lon="6.77119">
        <ele>566.6232</ele>
        <time>2012-09-30T08:38:28Z</time>
      </trkpt>
      <trkpt lat="47.71082" lon="6.77129">
        <ele>565.7088</ele>
        <time>2012-09-30T08:38:29Z</time>
      </trkpt>
      <trkpt lat="47.71084" lon="6.77139">
        <ele>564.4896</ele>
        <time>2012-09-30T08:38:32Z</time>
      </trkpt>
      <trkpt lat="47.71086" lon="6.77152">
        <ele>563.5752</ele>
        <time>2012-09-30T08:38:33Z</time>
      </trkpt>
      <trkpt lat="47.71087" lon="6.77161">
        <ele>565.0992</ele>
        <time>2012-09-30T08:38:36Z</time>
      </trkpt>
      <trkpt lat="47.71086" lon="6.7717">
        <ele>566.3184</ele>
        <time>2012-09-30T08:38:37Z</time>
      </trkpt>
      <trkpt lat="47.71086" lon="6.77179">
        <ele>568.7568</ele>
        <time>2012-09-30T08:38:40Z</time>
      </trkpt>
      <trkpt lat="47.71086" lon="6.77186">
        <ele>570.8904</ele>
        <time>2012-09-30T08:38:41Z</time>
      </trkpt>
      <trkpt lat="47.71086" lon="6.77194">
        <ele>572.4144</ele>
        <time>2012-09-30T08:38:44Z</time>
      </trkpt>
      <trkpt lat="47.71085" lon="6.77202">
        <ele>572.7192</ele>
        <time>2012-09-30T08:38:45Z</time>
      </trkpt>
      <trkpt lat="47.71085" lon="6.77211">
        <ele>573.3288</ele>
        <time>2012-09-30T08:38:48Z</time>
      </trkpt>
      <trkpt lat="47.71084" lon="6.77219">
        <ele>574.548</ele>
        <time>2012-09-30T08:38:49Z</time>
      </trkpt>
      <trkpt lat="47.71084" lon="6.77227">
        <ele>574.2432</ele>
        <time>2012-09-30T08:38:52Z</time>
      </trkpt>
      <trkpt lat="47.71084" lon="6.77235">
        <ele>574.8528</ele>
        <time>2012-09-30T08:38:53Z</time>
      </trkpt>
      <trkpt lat="47.71083" lon="6.77243">
        <ele>575.7672</ele>
        <time>2012-09-30T08:38:56Z</time>
      </trkpt>
      <trkpt lat="47.71083" lon="6.77252">
        <ele>575.1576</ele>
        <time>2012-09-30T08:38:57Z</time>
      </trkpt>
      <trkpt lat="47.71085" lon="6.7726">
        <ele>575.4624</ele>
        <time>2012-09-30T08:39:00Z</time>
      </trkpt>
      <trkpt lat="47.71087" lon="6.77266">
        <ele>575.1576</ele>
        <time>2012-09-30T08:39:01Z</time>
      </trkpt>
      <trkpt lat="47.7109" lon="6.77276">
        <ele>574.548</ele>
        <time>2012-09-30T08:39:04Z</time>
      </trkpt>
      <trkpt lat="47.71095" lon="6.77288">
        <ele>573.3288</ele>
        <time>2012-09-30T08:39:05Z</time>
      </trkpt>
      <trkpt lat="47.71102" lon="6.77303">
        <ele>572.1096</ele>
        <time>2012-09-30T08:39:08Z</time>
      </trkpt>
      <trkpt lat="47.7111" lon="6.77312">
        <ele>572.1096</ele>
        <time>2012-09-30T08:39:09Z</time>
      </trkpt>
      <trkpt lat="47.71119" lon="6.77319">
        <ele>571.1952</ele>
        <time>2012-09-30T08:39:12Z</time>
      </trkpt>
      <trkpt lat="47.71129" lon="6.77321">
        <ele>570.5856</ele>
        <time>2012-09-30T08:39:13Z</time>
      </trkpt>
      <trkpt lat="47.71142" lon="6.77322">
        <ele>568.7568</ele>
        <time>2012-09-30T08:39:16Z</time>
      </trkpt>
      <trkpt lat="47.71154" lon="6.77325">
        <ele>568.452</ele>
        <time>2012-09-30T08:39:18Z</time>
      </trkpt>
      <trkpt lat="47.71165" lon="6.77329">
        <ele>567.8424</ele>
        <time>2012-09-30T08:39:19Z</time>
      </trkpt>
      <trkpt lat="47.71176" lon="6.77331">
        <ele>567.2328</ele>
        <time>2012-09-30T08:39:22Z</time>
      </trkpt>
      <trkpt lat="47.71189" lon="6.7733">
        <ele>566.6232</ele>
        <time>2012-09-30T08:39:23Z</time>
      </trkpt>
      <trkpt lat="47.712" lon="6.7733">
        <ele>565.7088</ele>
        <time>2012-09-30T08:39:26Z</time>
      </trkpt>
      <trkpt lat="47.7121" lon="6.77331">
        <ele>563.88</ele>
        <time>2012-09-30T08:39:27Z</time>
      </trkpt>
      <trkpt lat="47.71222" lon="6.77335">
        <ele>561.4416</ele>
        <time>2012-09-30T08:39:30Z</time>
      </trkpt>
      <trkpt lat="47.71236" lon="6.77341">
        <ele>560.832</ele>
        <time>2012-09-30T08:39:31Z</time>
      </trkpt>
      <trkpt lat="47.71251" lon="6.77344">
        <ele>559.0032</ele>
        <time>2012-09-30T08:39:34Z</time>
      </trkpt>
      <trkpt lat="47.71265" lon="6.77345">
        <ele>558.0888</ele>
        <time>2012-09-30T08:39:35Z</time>
      </trkpt>
      <trkpt lat="47.71277" lon="6.7734">
        <ele>556.8696</ele>
        <time>2012-09-30T08:39:38Z</time>
      </trkpt>
      <trkpt lat="47.71286" lon="6.77328">
        <ele>556.26</ele>
        <time>2012-09-30T08:39:39Z</time>
      </trkpt>
      <trkpt lat="47.71296" lon="6.7731">
        <ele>555.9552</ele>
        <time>2012-09-30T08:39:42Z</time>
      </trkpt>
      <trkpt lat="47.71303" lon="6.77293">
        <ele>555.3456</ele>
        <time>2012-09-30T08:39:43Z</time>
      </trkpt>
      <trkpt lat="47.71313" lon="6.77279">
        <ele>555.0408</ele>
        <time>2012-09-30T08:39:46Z</time>
      </trkpt>
      <trkpt lat="47.71325" lon="6.7727">
        <ele>555.9552</ele>
        <time>2012-09-30T08:39:47Z</time>
      </trkpt>
      <trkpt lat="47.71336" lon="6.77264">
        <ele>554.736</ele>
        <time>2012-09-30T08:39:50Z</time>
      </trkpt>
      <trkpt lat="47.71346" lon="6.77257">
        <ele>555.3456</ele>
        <time>2012-09-30T08:39:51Z</time>
      </trkpt>
      <trkpt lat="47.71354" lon="6.77251">
        <ele>555.6504</ele>
        <time>2012-09-30T08:39:54Z</time>
      </trkpt>
      <trkpt lat="47.71364" lon="6.77245">
        <ele>555.3456</ele>
        <time>2012-09-30T08:39:55Z</time>
      </trkpt>
      <trkpt lat="47.71373" lon="6.77237">
        <ele>554.4312</ele>
        <time>2012-09-30T08:39:58Z</time>
      </trkpt>
      <trkpt lat="47.71383" lon="6.77228">
        <ele>553.8216</ele>
        <time>2012-09-30T08:39:59Z</time>
      </trkpt>
      <trkpt lat="47.71396" lon="6.77223">
        <ele>553.212</ele>
        <time>2012-09-30T08:40:02Z</time>
      </trkpt>
      <trkpt lat="47.71409" lon="6.77219">
        <ele>553.212</ele>
        <time>2012-09-30T08:40:03Z</time>
      </trkpt>
      <trkpt lat="47.71423" lon="6.77216">
        <ele>553.212</ele>
        <time>2012-09-30T08:40:06Z</time>
      </trkpt>
      <trkpt lat="47.71438" lon="6.77215">
        <ele>552.2976</ele>
        <time>2012-09-30T08:40:07Z</time>
      </trkpt>
      <trkpt lat="47.71451" lon="6.77215">
        <ele>552.6024</ele>
        <time>2012-09-30T08:40:10Z</time>
      </trkpt>
      <trkpt lat="47.71462" lon="6.7721">
        <ele>552.9072</ele>
        <time>2012-09-30T08:40:12Z</time>
      </trkpt>
      <trkpt lat="47.71474" lon="6.77205">
        <ele>552.6024</ele>
        <time>2012-09-30T08:40:13Z</time>
      </trkpt>
      <trkpt lat="47.71485" lon="6.772">
        <ele>550.7736</ele>
        <time>2012-09-30T08:40:16Z</time>
      </trkpt>
      <trkpt lat="47.71496" lon="6.77193">
        <ele>550.4688</ele>
        <time>2012-09-30T08:40:17Z</time>
      </trkpt>
      <trkpt lat="47.71507" lon="6.77187">
        <ele>551.0784</ele>
        <time>2012-09-30T08:40:20Z</time>
      </trkpt>
      <trkpt lat="47.71517" lon="6.77178">
        <ele>551.3832</ele>
        <time>2012-09-30T08:40:21Z</time>
      </trkpt>
      <trkpt lat="47.71528" lon="6.77171">
        <ele>550.4688</ele>
        <time>2012-09-30T08:40:24Z</time>
      </trkpt>
      <trkpt lat="47.7154" lon="6.77164">
        <ele>549.2496</ele>
        <time>2012-09-30T08:40:25Z</time>
      </trkpt>
      <trkpt lat="47.71554" lon="6.7716">
        <ele>548.0304</ele>
        <time>2012-09-30T08:40:28Z</time>
      </trkpt>
      <trkpt lat="47.71567" lon="6.77163">
        <ele>546.5064</ele>
        <time>2012-09-30T08:40:29Z</time>
      </trkpt>
      <trkpt lat="47.71582" lon="6.77165">
        <ele>544.6776</ele>
        <time>2012-09-30T08:40:32Z</time>
      </trkpt>
      <trkpt lat="47.71599" lon="6.77163">
        <ele>542.8488</ele>
        <time>2012-09-30T08:40:33Z</time>
      </trkpt>
      <trkpt lat="47.71617" lon="6.77154">
        <ele>541.9344</ele>
        <time>2012-09-30T08:40:36Z</time>
      </trkpt>
      <trkpt lat="47.71636" lon="6.77145">
        <ele>541.02</ele>
        <time>2012-09-30T08:40:37Z</time>
      </trkpt>
      <trkpt lat="47.71653" lon="6.77138">
        <ele>540.7152</ele>
        <time>2012-09-30T08:40:40Z</time>
      </trkpt>
      <trkpt lat="47.71669" lon="6.77137">
        <ele>539.496</ele>
        <time>2012-09-30T08:40:41Z</time>
      </trkpt>
      <trkpt lat="47.71682" lon="6.77142">
        <ele>537.972</ele>
        <time>2012-09-30T08:40:44Z</time>
      </trkpt>
      <trkpt lat="47.71692" lon="6.77147">
        <ele>536.7528</ele>
        <time>2012-09-30T08:40:45Z</time>
      </trkpt>
      <trkpt lat="47.71703" lon="6.77152">
        <ele>534.3144</ele>
        <time>2012-09-30T08:40:48Z</time>
      </trkpt>
      <trkpt lat="47.71715" lon="6.77157">
        <ele>531.5712</ele>
        <time>2012-09-30T08:40:49Z</time>
      </trkpt>
      <trkpt lat="47.71727" lon="6.77164">
        <ele>529.1328</ele>
        <time>2012-09-30T08:40:52Z</time>
      </trkpt>
      <trkpt lat="47.71735" lon="6.77171">
        <ele>526.3896</ele>
        <time>2012-09-30T08:40:53Z</time>
      </trkpt>
      <trkpt lat="47.71743" lon="6.77182">
        <ele>523.9512</ele>
        <time>2012-09-30T08:40:56Z</time>
      </trkpt>
      <trkpt lat="47.71752" lon="6.77197">
        <ele>520.9032</ele>
        <time>2012-09-30T08:40:57Z</time>
      </trkpt>
      <trkpt lat="47.71761" lon="6.77213">
        <ele>517.8552</ele>
        <time>2012-09-30T08:41:00Z</time>
      </trkpt>
      <trkpt lat="47.71769" lon="6.77229">
        <ele>515.112</ele>
        <time>2012-09-30T08:41:01Z</time>
      </trkpt>
      <trkpt lat="47.71777" lon="6.77247">
        <ele>512.3688</ele>
        <time>2012-09-30T08:41:04Z</time>
      </trkpt>
      <trkpt lat="47.71786" lon="6.77268">
        <ele>509.9304</ele>
        <time>2012-09-30T08:41:06Z</time>
      </trkpt>
      <trkpt lat="47.71793" lon="6.77288">
        <ele>507.7968</ele>
        <time>2012-09-30T08:41:07Z</time>
      </trkpt>
      <trkpt lat="47.71806" lon="6.77305">
        <ele>505.3584</ele>
        <time>2012-09-30T08:41:10Z</time>
      </trkpt>
      <trkpt lat="47.71819" lon="6.77325">
        <ele>503.2248</ele>
        <time>2012-09-30T08:41:11Z</time>
      </trkpt>
      <trkpt lat="47.71829" lon="6.77351">
        <ele>501.0912</ele>
        <time>2012-09-30T08:41:14Z</time>
      </trkpt>
      <trkpt lat="47.71838" lon="6.77377">
        <ele>499.2624</ele>
        <time>2012-09-30T08:41:15Z</time>
      </trkpt>
      <trkpt lat="47.7185" lon="6.774">
        <ele>497.7384</ele>
        <time>2012-09-30T08:41:18Z</time>
      </trkpt>
      <trkpt lat="47.71864" lon="6.7742">
        <ele>496.2144</ele>
        <time>2012-09-30T08:41:19Z</time>
      </trkpt>
      <trkpt lat="47.71878" lon="6.7744">
        <ele>494.6904</ele>
        <time>2012-09-30T08:41:22Z</time>
      </trkpt>
      <trkpt lat="47.71891" lon="6.7746">
        <ele>493.4712</ele>
        <time>2012-09-30T08:41:23Z</time>
      </trkpt>
      <trkpt lat="47.71905" lon="6.77479">
        <ele>492.5568</ele>
        <time>2012-09-30T08:41:26Z</time>
      </trkpt>
      <trkpt lat="47.71935" lon="6.77546">
        <ele>491.3376</ele>
        <time>2012-09-30T08:41:33Z</time>
      </trkpt>
      <trkpt lat="47.71938" lon="6.77554">
        <ele>491.6424</ele>
        <time>2012-09-30T08:41:34Z</time>
      </trkpt>
      <trkpt lat="47.71944" lon="6.77569">
        <ele>492.252</ele>
        <time>2012-09-30T08:41:35Z</time>
      </trkpt>
      <trkpt lat="47.71951" lon="6.77583">
        <ele>493.4712</ele>
        <time>2012-09-30T08:41:38Z</time>
      </trkpt>
      <trkpt lat="47.71958" lon="6.77594">
        <ele>495.3</ele>
        <time>2012-09-30T08:41:39Z</time>
      </trkpt>
      <trkpt lat="47.71964" lon="6.77601">
        <ele>497.4336</ele>
        <time>2012-09-30T08:41:42Z</time>
      </trkpt>
      <trkpt lat="47.71969" lon="6.77608">
        <ele>498.9576</ele>
        <time>2012-09-30T08:41:43Z</time>
      </trkpt>
      <trkpt lat="47.71973" lon="6.77618">
        <ele>499.872</ele>
        <time>2012-09-30T08:41:46Z</time>
      </trkpt>
      <trkpt lat="47.71978" lon="6.77625">
        <ele>501.396</ele>
        <time>2012-09-30T08:41:47Z</time>
      </trkpt>
      <trkpt lat="47.71982" lon="6.77632">
        <ele>502.3104</ele>
        <time>2012-09-30T08:41:50Z</time>
      </trkpt>
      <trkpt lat="47.71987" lon="6.77639">
        <ele>504.444</ele>
        <time>2012-09-30T08:41:51Z</time>
      </trkpt>
      <trkpt lat="47.71992" lon="6.77646">
        <ele>506.2728</ele>
        <time>2012-09-30T08:41:54Z</time>
      </trkpt>
      <trkpt lat="47.71996" lon="6.77654">
        <ele>506.5776</ele>
        <time>2012-09-30T08:41:55Z</time>
      </trkpt>
      <trkpt lat="47.71999" lon="6.77661">
        <ele>508.1016</ele>
        <time>2012-09-30T08:41:58Z</time>
      </trkpt>
      <trkpt lat="47.72004" lon="6.77665">
        <ele>509.3208</ele>
        <time>2012-09-30T08:42:00Z</time>
      </trkpt>
      <trkpt lat="47.72009" lon="6.7767">
        <ele>509.9304</ele>
        <time>2012-09-30T08:42:01Z</time>
      </trkpt>
      <trkpt lat="47.72014" lon="6.77675">
        <ele>509.6256</ele>
        <time>2012-09-30T08:42:04Z</time>
      </trkpt>
      <trkpt lat="47.72018" lon="6.77682">
        <ele>509.6256</ele>
        <time>2012-09-30T08:42:05Z</time>
      </trkpt>
      <trkpt lat="47.7202" lon="6.77691">
        <ele>508.4064</ele>
        <time>2012-09-30T08:42:08Z</time>
      </trkpt>
      <trkpt lat="47.72023" lon="6.77699">
        <ele>508.1016</ele>
        <time>2012-09-30T08:42:09Z</time>
      </trkpt>
      <trkpt lat="47.72026" lon="6.77709">
        <ele>507.7968</ele>
        <time>2012-09-30T08:42:12Z</time>
      </trkpt>
      <trkpt lat="47.72028" lon="6.77719">
        <ele>507.7968</ele>
        <time>2012-09-30T08:42:13Z</time>
      </trkpt>
      <trkpt lat="47.72031" lon="6.77726">
        <ele>508.1016</ele>
        <time>2012-09-30T08:42:16Z</time>
      </trkpt>
      <trkpt lat="47.72034" lon="6.77736">
        <ele>507.7968</ele>
        <time>2012-09-30T08:42:17Z</time>
      </trkpt>
      <trkpt lat="47.72037" lon="6.77747">
        <ele>507.492</ele>
        <time>2012-09-30T08:42:20Z</time>
      </trkpt>
      <trkpt lat="47.72038" lon="6.7776">
        <ele>506.8824</ele>
        <time>2012-09-30T08:42:21Z</time>
      </trkpt>
      <trkpt lat="47.72038" lon="6.77772">
        <ele>506.5776</ele>
        <time>2012-09-30T08:42:24Z</time>
      </trkpt>
      <trkpt lat="47.72039" lon="6.77784">
        <ele>505.968</ele>
        <time>2012-09-30T08:42:25Z</time>
      </trkpt>
      <trkpt lat="47.72039" lon="6.77798">
        <ele>505.6632</ele>
        <time>2012-09-30T08:42:28Z</time>
      </trkpt>
      <trkpt lat="47.7204" lon="6.77811">
        <ele>505.0536</ele>
        <time>2012-09-30T08:42:29Z</time>
      </trkpt>
      <trkpt lat="47.72041" lon="6.77824">
        <ele>504.1392</ele>
        <time>2012-09-30T08:42:32Z</time>
      </trkpt>
      <trkpt lat="47.72043" lon="6.77839">
        <ele>502.92</ele>
        <time>2012-09-30T08:42:33Z</time>
      </trkpt>
      <trkpt lat="47.72046" lon="6.77855">
        <ele>501.0912</ele>
        <time>2012-09-30T08:42:36Z</time>
      </trkpt>
      <trkpt lat="47.72049" lon="6.77873">
        <ele>499.2624</ele>
        <time>2012-09-30T08:42:37Z</time>
      </trkpt>
      <trkpt lat="47.72053" lon="6.77891">
        <ele>497.7384</ele>
        <time>2012-09-30T08:42:40Z</time>
      </trkpt>
      <trkpt lat="47.72058" lon="6.77907">
        <ele>496.5192</ele>
        <time>2012-09-30T08:42:41Z</time>
      </trkpt>
      <trkpt lat="47.72063" lon="6.77919">
        <ele>495.9096</ele>
        <time>2012-09-30T08:42:44Z</time>
      </trkpt>
      <trkpt lat="47.7207" lon="6.7793">
        <ele>495.6048</ele>
        <time>2012-09-30T08:42:45Z</time>
      </trkpt>
      <trkpt lat="47.72075" lon="6.7794">
        <ele>494.6904</ele>
        <time>2012-09-30T08:42:48Z</time>
      </trkpt>
      <trkpt lat="47.72082" lon="6.77949">
        <ele>494.0808</ele>
        <time>2012-09-30T08:42:49Z</time>
      </trkpt>
      <trkpt lat="47.72089" lon="6.77957">
        <ele>493.776</ele>
        <time>2012-09-30T08:42:52Z</time>
      </trkpt>
      <trkpt lat="47.72097" lon="6.77965">
        <ele>493.4712</ele>
        <time>2012-09-30T08:42:54Z</time>
      </trkpt>
      <trkpt lat="47.72105" lon="6.77973">
        <ele>493.1664</ele>
        <time>2012-09-30T08:42:55Z</time>
      </trkpt>
      <trkpt lat="47.72114" lon="6.7798">
        <ele>492.5568</ele>
        <time>2012-09-30T08:42:58Z</time>
      </trkpt>
      <trkpt lat="47.72123" lon="6.77986">
        <ele>492.5568</ele>
        <time>2012-09-30T08:42:59Z</time>
      </trkpt>
      <trkpt lat="47.72131" lon="6.77992">
        <ele>492.5568</ele>
        <time>2012-09-30T08:43:02Z</time>
      </trkpt>
      <trkpt lat="47.7214" lon="6.77997">
        <ele>493.1664</ele>
        <time>2012-09-30T08:43:03Z</time>
      </trkpt>
      <trkpt lat="47.72149" lon="6.78">
        <ele>493.4712</ele>
        <time>2012-09-30T08:43:06Z</time>
      </trkpt>
      <trkpt lat="47.72158" lon="6.78002">
        <ele>494.9952</ele>
        <time>2012-09-30T08:43:07Z</time>
      </trkpt>
      <trkpt lat="47.72167" lon="6.78003">
        <ele>495.6048</ele>
        <time>2012-09-30T08:43:10Z</time>
      </trkpt>
      <trkpt lat="47.72176" lon="6.78005">
        <ele>496.824</ele>
        <time>2012-09-30T08:43:11Z</time>
      </trkpt>
      <trkpt lat="47.72184" lon="6.78006">
        <ele>498.0432</ele>
        <time>2012-09-30T08:43:14Z</time>
      </trkpt>
      <trkpt lat="47.72194" lon="6.78008">
        <ele>499.2624</ele>
        <time>2012-09-30T08:43:15Z</time>
      </trkpt>
      <trkpt lat="47.72204" lon="6.78012">
        <ele>499.872</ele>
        <time>2012-09-30T08:43:18Z</time>
      </trkpt>
      <trkpt lat="47.72214" lon="6.78018">
        <ele>500.4816</ele>
        <time>2012-09-30T08:43:19Z</time>
      </trkpt>
      <trkpt lat="47.72224" lon="6.78024">
        <ele>501.396</ele>
        <time>2012-09-30T08:43:22Z</time>
      </trkpt>
      <trkpt lat="47.72233" lon="6.7803">
        <ele>503.2248</ele>
        <time>2012-09-30T08:43:23Z</time>
      </trkpt>
      <trkpt lat="47.7224" lon="6.78038">
        <ele>504.7488</ele>
        <time>2012-09-30T08:43:26Z</time>
      </trkpt>
      <trkpt lat="47.72247" lon="6.78046">
        <ele>505.968</ele>
        <time>2012-09-30T08:43:27Z</time>
      </trkpt>
      <trkpt lat="47.72253" lon="6.78057">
        <ele>506.2728</ele>
        <time>2012-09-30T08:43:30Z</time>
      </trkpt>
      <trkpt lat="47.72258" lon="6.78071">
        <ele>504.444</ele>
        <time>2012-09-30T08:43:31Z</time>
      </trkpt>
      <trkpt lat="47.72263" lon="6.78083">
        <ele>504.444</ele>
        <time>2012-09-30T08:43:34Z</time>
      </trkpt>
      <trkpt lat="47.72268" lon="6.78094">
        <ele>504.1392</ele>
        <time>2012-09-30T08:43:35Z</time>
      </trkpt>
      <trkpt lat="47.72274" lon="6.78102">
        <ele>504.1392</ele>
        <time>2012-09-30T08:43:38Z</time>
      </trkpt>
      <trkpt lat="47.72282" lon="6.78111">
        <ele>503.2248</ele>
        <time>2012-09-30T08:43:39Z</time>
      </trkpt>
      <trkpt lat="47.72289" lon="6.78122">
        <ele>502.92</ele>
        <time>2012-09-30T08:43:42Z</time>
      </trkpt>
      <trkpt lat="47.72297" lon="6.78135">
        <ele>499.872</ele>
        <time>2012-09-30T08:43:43Z</time>
      </trkpt>
      <trkpt lat="47.72306" lon="6.78146">
        <ele>498.9576</ele>
        <time>2012-09-30T08:43:46Z</time>
      </trkpt>
      <trkpt lat="47.72316" lon="6.78157">
        <ele>496.824</ele>
        <time>2012-09-30T08:43:47Z</time>
      </trkpt>
      <trkpt lat="47.72326" lon="6.78169">
        <ele>495.6048</ele>
        <time>2012-09-30T08:43:49Z</time>
      </trkpt>
      <trkpt lat="47.72336" lon="6.78179">
        <ele>494.6904</ele>
        <time>2012-09-30T08:43:52Z</time>
      </trkpt>
      <trkpt lat="47.72347" lon="6.78191">
        <ele>493.4712</ele>
        <time>2012-09-30T08:43:53Z</time>
      </trkpt>
      <trkpt lat="47.72358" lon="6.78204">
        <ele>492.5568</ele>
        <time>2012-09-30T08:43:56Z</time>
      </trkpt>
      <trkpt lat="47.72366" lon="6.78221">
        <ele>489.8136</ele>
        <time>2012-09-30T08:43:57Z</time>
      </trkpt>
      <trkpt lat="47.72373" lon="6.78238">
        <ele>488.2896</ele>
        <time>2012-09-30T08:44:00Z</time>
      </trkpt>
      <trkpt lat="47.72381" lon="6.78255">
        <ele>486.156</ele>
        <time>2012-09-30T08:44:01Z</time>
      </trkpt>
      <trkpt lat="47.7239" lon="6.7827">
        <ele>483.4128</ele>
        <time>2012-09-30T08:44:04Z</time>
      </trkpt>
      <trkpt lat="47.72397" lon="6.78289">
        <ele>481.584</ele>
        <time>2012-09-30T08:44:05Z</time>
      </trkpt>
      <trkpt lat="47.72402" lon="6.78308">
        <ele>480.06</ele>
        <time>2012-09-30T08:44:08Z</time>
      </trkpt>
      <trkpt lat="47.72404" lon="6.78326">
        <ele>478.2312</ele>
        <time>2012-09-30T08:44:09Z</time>
      </trkpt>
      <trkpt lat="47.72407" lon="6.78345">
        <ele>476.7072</ele>
        <time>2012-09-30T08:44:12Z</time>
      </trkpt>
      <trkpt lat="47.7241" lon="6.78365">
        <ele>474.8784</ele>
        <time>2012-09-30T08:44:13Z</time>
      </trkpt>
      <trkpt lat="47.72413" lon="6.78382">
        <ele>473.0496</ele>
        <time>2012-09-30T08:44:16Z</time>
      </trkpt>
      <trkpt lat="47.72416" lon="6.78395">
        <ele>471.8304</ele>
        <time>2012-09-30T08:44:17Z</time>
      </trkpt>
      <trkpt lat="47.72421" lon="6.78402">
        <ele>470.3064</ele>
        <time>2012-09-30T08:44:20Z</time>
      </trkpt>
      <trkpt lat="47.72429" lon="6.78401">
        <ele>468.7824</ele>
        <time>2012-09-30T08:44:21Z</time>
      </trkpt>
      <trkpt lat="47.72435" lon="6.7839">
        <ele>467.868</ele>
        <time>2012-09-30T08:44:24Z</time>
      </trkpt>
      <trkpt lat="47.72439" lon="6.78375">
        <ele>466.9536</ele>
        <time>2012-09-30T08:44:25Z</time>
      </trkpt>
      <trkpt lat="47.72445" lon="6.78361">
        <ele>466.0392</ele>
        <time>2012-09-30T08:44:28Z</time>
      </trkpt>
      <trkpt lat="47.72455" lon="6.78355">
        <ele>464.82</ele>
        <time>2012-09-30T08:44:29Z</time>
      </trkpt>
      <trkpt lat="47.72466" lon="6.78357">
        <ele>464.2104</ele>
        <time>2012-09-30T08:44:32Z</time>
      </trkpt>
      <trkpt lat="47.72475" lon="6.78361">
        <ele>463.296</ele>
        <time>2012-09-30T08:44:33Z</time>
      </trkpt>
      <trkpt lat="47.72483" lon="6.78367">
        <ele>462.9912</ele>
        <time>2012-09-30T08:44:36Z</time>
      </trkpt>
      <trkpt lat="47.7249" lon="6.78372">
        <ele>462.6864</ele>
        <time>2012-09-30T08:44:37Z</time>
      </trkpt>
      <trkpt lat="47.72498" lon="6.78376">
        <ele>462.3816</ele>
        <time>2012-09-30T08:44:40Z</time>
      </trkpt>
      <trkpt lat="47.72507" lon="6.78377">
        <ele>463.9056</ele>
        <time>2012-09-30T08:44:41Z</time>
      </trkpt>
      <trkpt lat="47.72514" lon="6.78378">
        <ele>466.344</ele>
        <time>2012-09-30T08:44:43Z</time>
      </trkpt>
      <trkpt lat="47.72523" lon="6.78377">
        <ele>467.5632</ele>
        <time>2012-09-30T08:44:46Z</time>
      </trkpt>
      <trkpt lat="47.72532" lon="6.78374">
        <ele>469.0872</ele>
        <time>2012-09-30T08:44:47Z</time>
      </trkpt>
      <trkpt lat="47.7254" lon="6.78371">
        <ele>470.6112</ele>
        <time>2012-09-30T08:44:50Z</time>
      </trkpt>
      <trkpt lat="47.72548" lon="6.78366">
        <ele>471.2208</ele>
        <time>2012-09-30T08:44:51Z</time>
      </trkpt>
      <trkpt lat="47.72555" lon="6.78358">
        <ele>472.1352</ele>
        <time>2012-09-30T08:44:54Z</time>
      </trkpt>
      <trkpt lat="47.72562" lon="6.78351">
        <ele>473.6592</ele>
        <time>2012-09-30T08:44:55Z</time>
      </trkpt>
      <trkpt lat="47.72569" lon="6.78344">
        <ele>475.1832</ele>
        <time>2012-09-30T08:44:58Z</time>
      </trkpt>
      <trkpt lat="47.72576" lon="6.78338">
        <ele>476.7072</ele>
        <time>2012-09-30T08:44:59Z</time>
      </trkpt>
      <trkpt lat="47.72582" lon="6.78332">
        <ele>477.9264</ele>
        <time>2012-09-30T08:45:02Z</time>
      </trkpt>
      <trkpt lat="47.72587" lon="6.78327">
        <ele>478.8408</ele>
        <time>2012-09-30T08:45:03Z</time>
      </trkpt>
      <trkpt lat="47.72592" lon="6.78322">
        <ele>479.1456</ele>
        <time>2012-09-30T08:45:06Z</time>
      </trkpt>
      <trkpt lat="47.726" lon="6.78316">
        <ele>478.8408</ele>
        <time>2012-09-30T08:45:07Z</time>
      </trkpt>
      <trkpt lat="47.72607" lon="6.78311">
        <ele>478.8408</ele>
        <time>2012-09-30T08:45:10Z</time>
      </trkpt>
      <trkpt lat="47.72614" lon="6.78307">
        <ele>478.8408</ele>
        <time>2012-09-30T08:45:11Z</time>
      </trkpt>
      <trkpt lat="47.7262" lon="6.78305">
        <ele>478.8408</ele>
        <time>2012-09-30T08:45:14Z</time>
      </trkpt>
      <trkpt lat="47.72624" lon="6.78305">
        <ele>479.7552</ele>
        <time>2012-09-30T08:45:15Z</time>
      </trkpt>
      <trkpt lat="47.72627" lon="6.78303">
        <ele>480.3648</ele>
        <time>2012-09-30T08:45:22Z</time>
      </trkpt>
      <trkpt lat="47.7263" lon="6.78304">
        <ele>480.6696</ele>
        <time>2012-09-30T08:45:25Z</time>
      </trkpt>
      <trkpt lat="47.72633" lon="6.78306">
        <ele>480.9744</ele>
        <time>2012-09-30T08:45:26Z</time>
      </trkpt>
      <trkpt lat="47.72637" lon="6.78311">
        <ele>481.8888</ele>
        <time>2012-09-30T08:45:29Z</time>
      </trkpt>
      <trkpt lat="47.7264" lon="6.78316">
        <ele>482.1936</ele>
        <time>2012-09-30T08:45:30Z</time>
      </trkpt>
      <trkpt lat="47.72644" lon="6.78321">
        <ele>482.4984</ele>
        <time>2012-09-30T08:45:33Z</time>
      </trkpt>
      <trkpt lat="47.72646" lon="6.78328">
        <ele>482.8032</ele>
        <time>2012-09-30T08:45:34Z</time>
      </trkpt>
      <trkpt lat="47.72649" lon="6.78332">
        <ele>483.7176</ele>
        <time>2012-09-30T08:45:37Z</time>
      </trkpt>
      <trkpt lat="47.72652" lon="6.78336">
        <ele>483.4128</ele>
        <time>2012-09-30T08:45:38Z</time>
      </trkpt>
      <trkpt lat="47.72656" lon="6.78339">
        <ele>484.3272</ele>
        <time>2012-09-30T08:45:41Z</time>
      </trkpt>
      <trkpt lat="47.7266" lon="6.7834">
        <ele>484.9368</ele>
        <time>2012-09-30T08:45:42Z</time>
      </trkpt>
      <trkpt lat="47.72665" lon="6.78341">
        <ele>485.8512</ele>
        <time>2012-09-30T08:45:45Z</time>
      </trkpt>
      <trkpt lat="47.72669" lon="6.78342">
        <ele>486.156</ele>
        <time>2012-09-30T08:45:46Z</time>
      </trkpt>
      <trkpt lat="47.72672" lon="6.78343">
        <ele>486.4608</ele>
        <time>2012-09-30T08:45:49Z</time>
      </trkpt>
      <trkpt lat="47.72678" lon="6.78342">
        <ele>487.3752</ele>
        <time>2012-09-30T08:45:52Z</time>
      </trkpt>
      <trkpt lat="47.72681" lon="6.78341">
        <ele>487.0704</ele>
        <time>2012-09-30T08:45:53Z</time>
      </trkpt>
      <trkpt lat="47.72685" lon="6.78338">
        <ele>487.68</ele>
        <time>2012-09-30T08:45:54Z</time>
      </trkpt>
      <trkpt lat="47.72689" lon="6.78335">
        <ele>487.3752</ele>
        <time>2012-09-30T08:45:57Z</time>
      </trkpt>
      <trkpt lat="47.72692" lon="6.78332">
        <ele>487.68</ele>
        <time>2012-09-30T08:45:58Z</time>
      </trkpt>
      <trkpt lat="47.72697" lon="6.78329">
        <ele>487.9848</ele>
        <time>2012-09-30T08:46:01Z</time>
      </trkpt>
      <trkpt lat="47.72701" lon="6.78325">
        <ele>488.8992</ele>
        <time>2012-09-30T08:46:02Z</time>
      </trkpt>
      <trkpt lat="47.72704" lon="6.78323">
        <ele>490.1184</ele>
        <time>2012-09-30T08:46:04Z</time>
      </trkpt>
      <trkpt lat="47.72708" lon="6.7832">
        <ele>490.728</ele>
        <time>2012-09-30T08:46:07Z</time>
      </trkpt>
      <trkpt lat="47.72712" lon="6.78318">
        <ele>491.9472</ele>
        <time>2012-09-30T08:46:08Z</time>
      </trkpt>
      <trkpt lat="47.72717" lon="6.78316">
        <ele>491.9472</ele>
        <time>2012-09-30T08:46:11Z</time>
      </trkpt>
      <trkpt lat="47.72724" lon="6.78313">
        <ele>492.5568</ele>
        <time>2012-09-30T08:46:13Z</time>
      </trkpt>
      <trkpt lat="47.72726" lon="6.78313">
        <ele>492.5568</ele>
        <time>2012-09-30T08:46:15Z</time>
      </trkpt>
      <trkpt lat="47.7273" lon="6.78312">
        <ele>492.5568</ele>
        <time>2012-09-30T08:46:16Z</time>
      </trkpt>
      <trkpt lat="47.72734" lon="6.7831">
        <ele>492.5568</ele>
        <time>2012-09-30T08:46:19Z</time>
      </trkpt>
      <trkpt lat="47.72738" lon="6.78309">
        <ele>493.4712</ele>
        <time>2012-09-30T08:46:20Z</time>
      </trkpt>
      <trkpt lat="47.72743" lon="6.78308">
        <ele>493.776</ele>
        <time>2012-09-30T08:46:23Z</time>
      </trkpt>
      <trkpt lat="47.72747" lon="6.78307">
        <ele>493.4712</ele>
        <time>2012-09-30T08:46:24Z</time>
      </trkpt>
      <trkpt lat="47.72752" lon="6.78306">
        <ele>492.8616</ele>
        <time>2012-09-30T08:46:27Z</time>
      </trkpt>
      <trkpt lat="47.72757" lon="6.78305">
        <ele>492.8616</ele>
        <time>2012-09-30T08:46:28Z</time>
      </trkpt>
      <trkpt lat="47.72761" lon="6.78304">
        <ele>492.8616</ele>
        <time>2012-09-30T08:46:31Z</time>
      </trkpt>
      <trkpt lat="47.72767" lon="6.78301">
        <ele>493.776</ele>
        <time>2012-09-30T08:46:32Z</time>
      </trkpt>
      <trkpt lat="47.72772" lon="6.78299">
        <ele>493.4712</ele>
        <time>2012-09-30T08:46:35Z</time>
      </trkpt>
      <trkpt lat="47.72776" lon="6.78298">
        <ele>494.0808</ele>
        <time>2012-09-30T08:46:36Z</time>
      </trkpt>
      <trkpt lat="47.7278" lon="6.78298">
        <ele>495.6048</ele>
        <time>2012-09-30T08:46:39Z</time>
      </trkpt>
      <trkpt lat="47.72785" lon="6.78295">
        <ele>496.2144</ele>
        <time>2012-09-30T08:46:40Z</time>
      </trkpt>
      <trkpt lat="47.7279" lon="6.78293">
        <ele>497.1288</ele>
        <time>2012-09-30T08:46:43Z</time>
      </trkpt>
      <trkpt lat="47.72794" lon="6.78293">
        <ele>497.1288</ele>
        <time>2012-09-30T08:46:44Z</time>
      </trkpt>
      <trkpt lat="47.72799" lon="6.78292">
        <ele>497.1288</ele>
        <time>2012-09-30T08:46:47Z</time>
      </trkpt>
      <trkpt lat="47.72804" lon="6.7829">
        <ele>497.7384</ele>
        <time>2012-09-30T08:46:48Z</time>
      </trkpt>
      <trkpt lat="47.72811" lon="6.78289">
        <ele>499.2624</ele>
        <time>2012-09-30T08:46:51Z</time>
      </trkpt>
      <trkpt lat="47.72813" lon="6.78288">
        <ele>499.5672</ele>
        <time>2012-09-30T08:46:52Z</time>
      </trkpt>
      <trkpt lat="47.72818" lon="6.78286">
        <ele>499.5672</ele>
        <time>2012-09-30T08:46:55Z</time>
      </trkpt>
      <trkpt lat="47.72822" lon="6.78284">
        <ele>498.9576</ele>
        <time>2012-09-30T08:46:57Z</time>
      </trkpt>
      <trkpt lat="47.72827" lon="6.78282">
        <ele>498.9576</ele>
        <time>2012-09-30T08:46:58Z</time>
      </trkpt>
      <trkpt lat="47.72831" lon="6.7828">
        <ele>499.872</ele>
        <time>2012-09-30T08:47:01Z</time>
      </trkpt>
      <trkpt lat="47.72836" lon="6.78279">
        <ele>499.5672</ele>
        <time>2012-09-30T08:47:02Z</time>
      </trkpt>
      <trkpt lat="47.7284" lon="6.78278">
        <ele>499.5672</ele>
        <time>2012-09-30T08:47:05Z</time>
      </trkpt>
      <trkpt lat="47.72845" lon="6.78278">
        <ele>499.2624</ele>
        <time>2012-09-30T08:47:06Z</time>
      </trkpt>
      <trkpt lat="47.7285" lon="6.78277">
        <ele>499.2624</ele>
        <time>2012-09-30T08:47:09Z</time>
      </trkpt>
      <trkpt lat="47.72855" lon="6.78277">
        <ele>499.5672</ele>
        <time>2012-09-30T08:47:10Z</time>
      </trkpt>
      <trkpt lat="47.72859" lon="6.78277">
        <ele>499.872</ele>
        <time>2012-09-30T08:47:13Z</time>
      </trkpt>
      <trkpt lat="47.72864" lon="6.78277">
        <ele>500.4816</ele>
        <time>2012-09-30T08:47:14Z</time>
      </trkpt>
      <trkpt lat="47.72868" lon="6.78276">
        <ele>501.0912</ele>
        <time>2012-09-30T08:47:17Z</time>
      </trkpt>
      <trkpt lat="47.72873" lon="6.78275">
        <ele>501.7008</ele>
        <time>2012-09-30T08:47:18Z</time>
      </trkpt>
      <trkpt lat="47.72877" lon="6.78276">
        <ele>501.7008</ele>
        <time>2012-09-30T08:47:21Z</time>
      </trkpt>
      <trkpt lat="47.72881" lon="6.78275">
        <ele>501.7008</ele>
        <time>2012-09-30T08:47:22Z</time>
      </trkpt>
      <trkpt lat="47.72886" lon="6.78275">
        <ele>502.0056</ele>
        <time>2012-09-30T08:47:25Z</time>
      </trkpt>
      <trkpt lat="47.72891" lon="6.78275">
        <ele>501.7008</ele>
        <time>2012-09-30T08:47:26Z</time>
      </trkpt>
      <trkpt lat="47.72896" lon="6.78274">
        <ele>502.3104</ele>
        <time>2012-09-30T08:47:29Z</time>
      </trkpt>
      <trkpt lat="47.72901" lon="6.78273">
        <ele>502.0056</ele>
        <time>2012-09-30T08:47:30Z</time>
      </trkpt>
      <trkpt lat="47.72907" lon="6.78272">
        <ele>501.7008</ele>
        <time>2012-09-30T08:47:33Z</time>
      </trkpt>
      <trkpt lat="47.72912" lon="6.78271">
        <ele>502.0056</ele>
        <time>2012-09-30T08:47:34Z</time>
      </trkpt>
      <trkpt lat="47.72917" lon="6.7827">
        <ele>502.3104</ele>
        <time>2012-09-30T08:47:37Z</time>
      </trkpt>
      <trkpt lat="47.72922" lon="6.78268">
        <ele>502.3104</ele>
        <time>2012-09-30T08:47:38Z</time>
      </trkpt>
      <trkpt lat="47.72929" lon="6.78266">
        <ele>502.6152</ele>
        <time>2012-09-30T08:47:41Z</time>
      </trkpt>
      <trkpt lat="47.72932" lon="6.78265">
        <ele>502.6152</ele>
        <time>2012-09-30T08:47:42Z</time>
      </trkpt>
      <trkpt lat="47.72938" lon="6.78262">
        <ele>502.6152</ele>
        <time>2012-09-30T08:47:45Z</time>
      </trkpt>
      <trkpt lat="47.72943" lon="6.7826">
        <ele>503.2248</ele>
        <time>2012-09-30T08:47:46Z</time>
      </trkpt>
      <trkpt lat="47.72948" lon="6.78258">
        <ele>503.2248</ele>
        <time>2012-09-30T08:47:49Z</time>
      </trkpt>
      <trkpt lat="47.72955" lon="6.78256">
        <ele>504.1392</ele>
        <time>2012-09-30T08:47:51Z</time>
      </trkpt>
      <trkpt lat="47.72961" lon="6.78253">
        <ele>503.8344</ele>
        <time>2012-09-30T08:47:52Z</time>
      </trkpt>
      <trkpt lat="47.72968" lon="6.78251">
        <ele>503.8344</ele>
        <time>2012-09-30T08:47:55Z</time>
      </trkpt>
      <trkpt lat="47.72974" lon="6.78248">
        <ele>503.8344</ele>
        <time>2012-09-30T08:47:56Z</time>
      </trkpt>
      <trkpt lat="47.7298" lon="6.78246">
        <ele>503.5296</ele>
        <time>2012-09-30T08:47:59Z</time>
      </trkpt>
      <trkpt lat="47.72985" lon="6.78244">
        <ele>503.8344</ele>
        <time>2012-09-30T08:48:00Z</time>
      </trkpt>
      <trkpt lat="47.72991" lon="6.78241">
        <ele>504.1392</ele>
        <time>2012-09-30T08:48:03Z</time>
      </trkpt>
      <trkpt lat="47.72998" lon="6.78238">
        <ele>504.7488</ele>
        <time>2012-09-30T08:48:04Z</time>
      </trkpt>
      <trkpt lat="47.73004" lon="6.78236">
        <ele>505.3584</ele>
        <time>2012-09-30T08:48:07Z</time>
      </trkpt>
      <trkpt lat="47.73011" lon="6.78234">
        <ele>505.6632</ele>
        <time>2012-09-30T08:48:08Z</time>
      </trkpt>
      <trkpt lat="47.73018" lon="6.78231">
        <ele>506.2728</ele>
        <time>2012-09-30T08:48:11Z</time>
      </trkpt>
      <trkpt lat="47.73025" lon="6.78229">
        <ele>506.8824</ele>
        <time>2012-09-30T08:48:12Z</time>
      </trkpt>
      <trkpt lat="47.73038" lon="6.78225">
        <ele>508.7112</ele>
        <time>2012-09-30T08:48:16Z</time>
      </trkpt>
      <trkpt lat="47.73042" lon="6.78224">
        <ele>509.016</ele>
        <time>2012-09-30T08:48:16Z</time>
      </trkpt>
      <trkpt lat="47.7305" lon="6.78223">
        <ele>509.3208</ele>
        <time>2012-09-30T08:48:19Z</time>
      </trkpt>
      <trkpt lat="47.73057" lon="6.78223">
        <ele>509.3208</ele>
        <time>2012-09-30T08:48:20Z</time>
      </trkpt>
      <trkpt lat="47.73064" lon="6.78224">
        <ele>508.4064</ele>
        <time>2012-09-30T08:48:23Z</time>
      </trkpt>
      <trkpt lat="47.73072" lon="6.78225">
        <ele>507.7968</ele>
        <time>2012-09-30T08:48:24Z</time>
      </trkpt>
      <trkpt lat="47.7308" lon="6.78226">
        <ele>507.492</ele>
        <time>2012-09-30T08:48:27Z</time>
      </trkpt>
      <trkpt lat="47.73089" lon="6.78226">
        <ele>507.1872</ele>
        <time>2012-09-30T08:48:28Z</time>
      </trkpt>
      <trkpt lat="47.73097" lon="6.78226">
        <ele>506.8824</ele>
        <time>2012-09-30T08:48:31Z</time>
      </trkpt>
      <trkpt lat="47.73107" lon="6.78227">
        <ele>506.5776</ele>
        <time>2012-09-30T08:48:32Z</time>
      </trkpt>
      <trkpt lat="47.73117" lon="6.78226">
        <ele>505.968</ele>
        <time>2012-09-30T08:48:35Z</time>
      </trkpt>
      <trkpt lat="47.73128" lon="6.78225">
        <ele>504.7488</ele>
        <time>2012-09-30T08:48:36Z</time>
      </trkpt>
      <trkpt lat="47.73139" lon="6.78223">
        <ele>504.1392</ele>
        <time>2012-09-30T08:48:39Z</time>
      </trkpt>
      <trkpt lat="47.7315" lon="6.78221">
        <ele>503.8344</ele>
        <time>2012-09-30T08:48:40Z</time>
      </trkpt>
      <trkpt lat="47.73164" lon="6.78219">
        <ele>503.5296</ele>
        <time>2012-09-30T08:48:43Z</time>
      </trkpt>
      <trkpt lat="47.73178" lon="6.78218">
        <ele>502.3104</ele>
        <time>2012-09-30T08:48:45Z</time>
      </trkpt>
      <trkpt lat="47.73192" lon="6.78219">
        <ele>501.396</ele>
        <time>2012-09-30T08:48:46Z</time>
      </trkpt>
      <trkpt lat="47.73205" lon="6.78222">
        <ele>500.7864</ele>
        <time>2012-09-30T08:48:49Z</time>
      </trkpt>
      <trkpt lat="47.73212" lon="6.78226">
        <ele>500.1768</ele>
        <time>2012-09-30T08:48:50Z</time>
      </trkpt>
      <trkpt lat="47.73217" lon="6.78229">
        <ele>499.872</ele>
        <time>2012-09-30T08:48:53Z</time>
      </trkpt>
      <trkpt lat="47.73222" lon="6.78234">
        <ele>499.2624</ele>
        <time>2012-09-30T08:48:54Z</time>
      </trkpt>
      <trkpt lat="47.7323" lon="6.78233">
        <ele>498.348</ele>
        <time>2012-09-30T08:48:57Z</time>
      </trkpt>
      <trkpt lat="47.7324" lon="6.78229">
        <ele>497.4336</ele>
        <time>2012-09-30T08:48:58Z</time>
      </trkpt>
      <trkpt lat="47.73252" lon="6.78225">
        <ele>496.5192</ele>
        <time>2012-09-30T08:49:01Z</time>
      </trkpt>
      <trkpt lat="47.73264" lon="6.78221">
        <ele>496.2144</ele>
        <time>2012-09-30T08:49:02Z</time>
      </trkpt>
      <trkpt lat="47.73277" lon="6.7822">
        <ele>495.6048</ele>
        <time>2012-09-30T08:49:05Z</time>
      </trkpt>
      <trkpt lat="47.7329" lon="6.78218">
        <ele>495.3</ele>
        <time>2012-09-30T08:49:06Z</time>
      </trkpt>
      <trkpt lat="47.73303" lon="6.78216">
        <ele>495.3</ele>
        <time>2012-09-30T08:49:09Z</time>
      </trkpt>
      <trkpt lat="47.73314" lon="6.78216">
        <ele>495.3</ele>
        <time>2012-09-30T08:49:10Z</time>
      </trkpt>
      <trkpt lat="47.73323" lon="6.78208">
        <ele>495.3</ele>
        <time>2012-09-30T08:49:13Z</time>
      </trkpt>
      <trkpt lat="47.7333" lon="6.78194">
        <ele>494.6904</ele>
        <time>2012-09-30T08:49:14Z</time>
      </trkpt>
      <trkpt lat="47.73342" lon="6.78184">
        <ele>494.3856</ele>
        <time>2012-09-30T08:49:17Z</time>
      </trkpt>
      <trkpt lat="47.73354" lon="6.78177">
        <ele>494.3856</ele>
        <time>2012-09-30T08:49:18Z</time>
      </trkpt>
      <trkpt lat="47.73365" lon="6.78171">
        <ele>494.6904</ele>
        <time>2012-09-30T08:49:21Z</time>
      </trkpt>
      <trkpt lat="47.73376" lon="6.78166">
        <ele>494.9952</ele>
        <time>2012-09-30T08:49:22Z</time>
      </trkpt>
      <trkpt lat="47.73386" lon="6.7816">
        <ele>494.9952</ele>
        <time>2012-09-30T08:49:25Z</time>
      </trkpt>
      <trkpt lat="47.73397" lon="6.78154">
        <ele>494.9952</ele>
        <time>2012-09-30T08:49:26Z</time>
      </trkpt>
      <trkpt lat="47.73408" lon="6.78149">
        <ele>494.9952</ele>
        <time>2012-09-30T08:49:29Z</time>
      </trkpt>
      <trkpt lat="47.73418" lon="6.78146">
        <ele>495.6048</ele>
        <time>2012-09-30T08:49:30Z</time>
      </trkpt>
      <trkpt lat="47.73429" lon="6.78144">
        <ele>495.9096</ele>
        <time>2012-09-30T08:49:33Z</time>
      </trkpt>
      <trkpt lat="47.73438" lon="6.78142">
        <ele>496.2144</ele>
        <time>2012-09-30T08:49:34Z</time>
      </trkpt>
      <trkpt lat="47.73448" lon="6.78141">
        <ele>496.824</ele>
        <time>2012-09-30T08:49:37Z</time>
      </trkpt>
      <trkpt lat="47.73458" lon="6.78139">
        <ele>497.7384</ele>
        <time>2012-09-30T08:49:39Z</time>
      </trkpt>
      <trkpt lat="47.73467" lon="6.78138">
        <ele>497.1288</ele>
        <time>2012-09-30T08:49:40Z</time>
      </trkpt>
      <trkpt lat="47.73476" lon="6.78138">
        <ele>497.4336</ele>
        <time>2012-09-30T08:49:43Z</time>
      </trkpt>
      <trkpt lat="47.73485" lon="6.78135">
        <ele>498.6528</ele>
        <time>2012-09-30T08:49:44Z</time>
      </trkpt>
      <trkpt lat="47.73494" lon="6.78135">
        <ele>499.5672</ele>
        <time>2012-09-30T08:49:47Z</time>
      </trkpt>
      <trkpt lat="47.735" lon="6.78144">
        <ele>499.2624</ele>
        <time>2012-09-30T08:49:48Z</time>
      </trkpt>
      <trkpt lat="47.73504" lon="6.78157">
        <ele>498.9576</ele>
        <time>2012-09-30T08:49:51Z</time>
      </trkpt>
      <trkpt lat="47.73506" lon="6.7817">
        <ele>499.2624</ele>
        <time>2012-09-30T08:49:52Z</time>
      </trkpt>
      <trkpt lat="47.73508" lon="6.78182">
        <ele>498.9576</ele>
        <time>2012-09-30T08:49:55Z</time>
      </trkpt>
      <trkpt lat="47.73509" lon="6.78195">
        <ele>498.9576</ele>
        <time>2012-09-30T08:49:56Z</time>
      </trkpt>
      <trkpt lat="47.73511" lon="6.78207">
        <ele>498.9576</ele>
        <time>2012-09-30T08:49:59Z</time>
      </trkpt>
      <trkpt lat="47.73513" lon="6.78219">
        <ele>498.9576</ele>
        <time>2012-09-30T08:50:00Z</time>
      </trkpt>
      <trkpt lat="47.73515" lon="6.7823">
        <ele>499.2624</ele>
        <time>2012-09-30T08:50:03Z</time>
      </trkpt>
      <trkpt lat="47.73519" lon="6.78239">
        <ele>499.5672</ele>
        <time>2012-09-30T08:50:04Z</time>
      </trkpt>
      <trkpt lat="47.73522" lon="6.78248">
        <ele>499.872</ele>
        <time>2012-09-30T08:50:07Z</time>
      </trkpt>
      <trkpt lat="47.73525" lon="6.78256">
        <ele>500.4816</ele>
        <time>2012-09-30T08:50:08Z</time>
      </trkpt>
      <trkpt lat="47.73529" lon="6.78263">
        <ele>500.7864</ele>
        <time>2012-09-30T08:50:11Z</time>
      </trkpt>
      <trkpt lat="47.73533" lon="6.7827">
        <ele>501.396</ele>
        <time>2012-09-30T08:50:12Z</time>
      </trkpt>
      <trkpt lat="47.73536" lon="6.78276">
        <ele>502.0056</ele>
        <time>2012-09-30T08:50:15Z</time>
      </trkpt>
      <trkpt lat="47.7354" lon="6.78281">
        <ele>502.6152</ele>
        <time>2012-09-30T08:50:16Z</time>
      </trkpt>
      <trkpt lat="47.73543" lon="6.78286">
        <ele>503.5296</ele>
        <time>2012-09-30T08:50:19Z</time>
      </trkpt>
      <trkpt lat="47.73546" lon="6.78292">
        <ele>504.444</ele>
        <time>2012-09-30T08:50:20Z</time>
      </trkpt>
      <trkpt lat="47.73548" lon="6.78297">
        <ele>504.7488</ele>
        <time>2012-09-30T08:50:23Z</time>
      </trkpt>
      <trkpt lat="47.73551" lon="6.78302">
        <ele>505.3584</ele>
        <time>2012-09-30T08:50:24Z</time>
      </trkpt>
      <trkpt lat="47.73554" lon="6.78306">
        <ele>505.968</ele>
        <time>2012-09-30T08:50:27Z</time>
      </trkpt>
      <trkpt lat="47.73558" lon="6.78311">
        <ele>506.5776</ele>
        <time>2012-09-30T08:50:28Z</time>
      </trkpt>
      <trkpt lat="47.73561" lon="6.78317">
        <ele>507.7968</ele>
        <time>2012-09-30T08:50:31Z</time>
      </trkpt>
      <trkpt lat="47.73564" lon="6.78322">
        <ele>508.4064</ele>
        <time>2012-09-30T08:50:33Z</time>
      </trkpt>
      <trkpt lat="47.73569" lon="6.78328">
        <ele>509.016</ele>
        <time>2012-09-30T08:50:35Z</time>
      </trkpt>
      <trkpt lat="47.73571" lon="6.78329">
        <ele>509.3208</ele>
        <time>2012-09-30T08:50:37Z</time>
      </trkpt>
      <trkpt lat="47.73575" lon="6.78327">
        <ele>509.3208</ele>
        <time>2012-09-30T08:50:38Z</time>
      </trkpt>
      <trkpt lat="47.7358" lon="6.78324">
        <ele>509.6256</ele>
        <time>2012-09-30T08:50:41Z</time>
      </trkpt>
      <trkpt lat="47.73584" lon="6.7832">
        <ele>510.54</ele>
        <time>2012-09-30T08:50:42Z</time>
      </trkpt>
      <trkpt lat="47.73589" lon="6.78316">
        <ele>510.2352</ele>
        <time>2012-09-30T08:50:45Z</time>
      </trkpt>
      <trkpt lat="47.73593" lon="6.78312">
        <ele>510.8448</ele>
        <time>2012-09-30T08:50:46Z</time>
      </trkpt>
      <trkpt lat="47.73597" lon="6.78307">
        <ele>511.1496</ele>
        <time>2012-09-30T08:50:49Z</time>
      </trkpt>
      <trkpt lat="47.736" lon="6.78302">
        <ele>511.1496</ele>
        <time>2012-09-30T08:50:50Z</time>
      </trkpt>
      <trkpt lat="47.73603" lon="6.78295">
        <ele>511.1496</ele>
        <time>2012-09-30T08:50:53Z</time>
      </trkpt>
      <trkpt lat="47.73605" lon="6.78289">
        <ele>511.7592</ele>
        <time>2012-09-30T08:50:54Z</time>
      </trkpt>
      <trkpt lat="47.73607" lon="6.78282">
        <ele>512.064</ele>
        <time>2012-09-30T08:50:57Z</time>
      </trkpt>
      <trkpt lat="47.73609" lon="6.78275">
        <ele>512.3688</ele>
        <time>2012-09-30T08:50:58Z</time>
      </trkpt>
      <trkpt lat="47.73611" lon="6.78268">
        <ele>512.9784</ele>
        <time>2012-09-30T08:51:01Z</time>
      </trkpt>
      <trkpt lat="47.73614" lon="6.78262">
        <ele>513.8928</ele>
        <time>2012-09-30T08:51:02Z</time>
      </trkpt>
      <trkpt lat="47.73616" lon="6.78256">
        <ele>515.112</ele>
        <time>2012-09-30T08:51:05Z</time>
      </trkpt>
      <trkpt lat="47.73621" lon="6.78248">
        <ele>517.2456</ele>
        <time>2012-09-30T08:51:08Z</time>
      </trkpt>
      <trkpt lat="47.73623" lon="6.78246">
        <ele>518.16</ele>
        <time>2012-09-30T08:51:09Z</time>
      </trkpt>
      <trkpt lat="47.73626" lon="6.7824">
        <ele>519.3792</ele>
        <time>2012-09-30T08:51:10Z</time>
      </trkpt>
      <trkpt lat="47.73629" lon="6.78235">
        <ele>519.9888</ele>
        <time>2012-09-30T08:51:13Z</time>
      </trkpt>
      <trkpt lat="47.73633" lon="6.78231">
        <ele>520.2936</ele>
        <time>2012-09-30T08:51:14Z</time>
      </trkpt>
      <trkpt lat="47.73636" lon="6.78227">
        <ele>520.2936</ele>
        <time>2012-09-30T08:51:17Z</time>
      </trkpt>
      <trkpt lat="47.73639" lon="6.78225">
        <ele>520.2936</ele>
        <time>2012-09-30T08:51:18Z</time>
      </trkpt>
      <trkpt lat="47.73643" lon="6.78223">
        <ele>520.5984</ele>
        <time>2012-09-30T08:51:21Z</time>
      </trkpt>
      <trkpt lat="47.73646" lon="6.78222">
        <ele>521.208</ele>
        <time>2012-09-30T08:51:22Z</time>
      </trkpt>
      <trkpt lat="47.73651" lon="6.7822">
        <ele>522.4272</ele>
        <time>2012-09-30T08:51:25Z</time>
      </trkpt>
      <trkpt lat="47.73656" lon="6.78217">
        <ele>523.3416</ele>
        <time>2012-09-30T08:51:27Z</time>
      </trkpt>
      <trkpt lat="47.73659" lon="6.78215">
        <ele>523.6464</ele>
        <time>2012-09-30T08:51:28Z</time>
      </trkpt>
      <trkpt lat="47.73662" lon="6.78214">
        <ele>524.5608</ele>
        <time>2012-09-30T08:51:31Z</time>
      </trkpt>
      <trkpt lat="47.73667" lon="6.78211">
        <ele>525.1704</ele>
        <time>2012-09-30T08:51:32Z</time>
      </trkpt>
      <trkpt lat="47.73671" lon="6.78209">
        <ele>526.0848</ele>
        <time>2012-09-30T08:51:35Z</time>
      </trkpt>
      <trkpt lat="47.73675" lon="6.78207">
        <ele>526.3896</ele>
        <time>2012-09-30T08:51:36Z</time>
      </trkpt>
      <trkpt lat="47.73679" lon="6.78205">
        <ele>526.6944</ele>
        <time>2012-09-30T08:51:39Z</time>
      </trkpt>
      <trkpt lat="47.73683" lon="6.78204">
        <ele>527.304</ele>
        <time>2012-09-30T08:51:40Z</time>
      </trkpt>
      <trkpt lat="47.73688" lon="6.78203">
        <ele>527.9136</ele>
        <time>2012-09-30T08:51:43Z</time>
      </trkpt>
      <trkpt lat="47.73692" lon="6.78203">
        <ele>529.1328</ele>
        <time>2012-09-30T08:51:44Z</time>
      </trkpt>
      <trkpt lat="47.73697" lon="6.78204">
        <ele>529.4376</ele>
        <time>2012-09-30T08:51:47Z</time>
      </trkpt>
      <trkpt lat="47.737" lon="6.78205">
        <ele>530.352</ele>
        <time>2012-09-30T08:51:48Z</time>
      </trkpt>
      <trkpt lat="47.73704" lon="6.78206">
        <ele>530.9616</ele>
        <time>2012-09-30T08:51:51Z</time>
      </trkpt>
      <trkpt lat="47.73709" lon="6.78207">
        <ele>530.9616</ele>
        <time>2012-09-30T08:51:52Z</time>
      </trkpt>
      <trkpt lat="47.73714" lon="6.78207">
        <ele>531.5712</ele>
        <time>2012-09-30T08:51:55Z</time>
      </trkpt>
      <trkpt lat="47.73718" lon="6.78205">
        <ele>533.0952</ele>
        <time>2012-09-30T08:51:56Z</time>
      </trkpt>
      <trkpt lat="47.73722" lon="6.78204">
        <ele>534.6192</ele>
        <time>2012-09-30T08:51:59Z</time>
      </trkpt>
      <trkpt lat="47.73726" lon="6.78202">
        <ele>535.5336</ele>
        <time>2012-09-30T08:52:00Z</time>
      </trkpt>
      <trkpt lat="47.7373" lon="6.782">
        <ele>536.1432</ele>
        <time>2012-09-30T08:52:03Z</time>
      </trkpt>
      <trkpt lat="47.73734" lon="6.78197">
        <ele>536.448</ele>
        <time>2012-09-30T08:52:04Z</time>
      </trkpt>
      <trkpt lat="47.73736" lon="6.78194">
        <ele>537.0576</ele>
        <time>2012-09-30T08:52:07Z</time>
      </trkpt>
      <trkpt lat="47.73739" lon="6.7819">
        <ele>537.3624</ele>
        <time>2012-09-30T08:52:08Z</time>
      </trkpt>
      <trkpt lat="47.73743" lon="6.78187">
        <ele>537.0576</ele>
        <time>2012-09-30T08:52:11Z</time>
      </trkpt>
      <trkpt lat="47.73746" lon="6.78184">
        <ele>537.6672</ele>
        <time>2012-09-30T08:52:12Z</time>
      </trkpt>
      <trkpt lat="47.73751" lon="6.7818">
        <ele>538.8864</ele>
        <time>2012-09-30T08:52:15Z</time>
      </trkpt>
      <trkpt lat="47.73758" lon="6.78176">
        <ele>539.1912</ele>
        <time>2012-09-30T08:52:16Z</time>
      </trkpt>
      <trkpt lat="47.73764" lon="6.78171">
        <ele>538.8864</ele>
        <time>2012-09-30T08:52:19Z</time>
      </trkpt>
      <trkpt lat="47.73769" lon="6.78166">
        <ele>538.2768</ele>
        <time>2012-09-30T08:52:21Z</time>
      </trkpt>
      <trkpt lat="47.73775" lon="6.78162">
        <ele>538.2768</ele>
        <time>2012-09-30T08:52:22Z</time>
      </trkpt>
      <trkpt lat="47.7378" lon="6.78159">
        <ele>537.972</ele>
        <time>2012-09-30T08:52:25Z</time>
      </trkpt>
      <trkpt lat="47.73785" lon="6.78157">
        <ele>537.972</ele>
        <time>2012-09-30T08:52:26Z</time>
      </trkpt>
      <trkpt lat="47.7379" lon="6.78154">
        <ele>537.972</ele>
        <time>2012-09-30T08:52:29Z</time>
      </trkpt>
      <trkpt lat="47.73795" lon="6.78154">
        <ele>537.3624</ele>
        <time>2012-09-30T08:52:30Z</time>
      </trkpt>
      <trkpt lat="47.73798" lon="6.78154">
        <ele>537.0576</ele>
        <time>2012-09-30T08:52:33Z</time>
      </trkpt>
      <trkpt lat="47.73802" lon="6.78153">
        <ele>537.0576</ele>
        <time>2012-09-30T08:52:34Z</time>
      </trkpt>
      <trkpt lat="47.73807" lon="6.78151">
        <ele>537.0576</ele>
        <time>2012-09-30T08:52:37Z</time>
      </trkpt>
      <trkpt lat="47.73814" lon="6.78147">
        <ele>536.7528</ele>
        <time>2012-09-30T08:52:38Z</time>
      </trkpt>
      <trkpt lat="47.73819" lon="6.7814">
        <ele>537.0576</ele>
        <time>2012-09-30T08:52:41Z</time>
      </trkpt>
      <trkpt lat="47.73824" lon="6.78132">
        <ele>536.448</ele>
        <time>2012-09-30T08:52:42Z</time>
      </trkpt>
      <trkpt lat="47.73825" lon="6.78126">
        <ele>538.2768</ele>
        <time>2012-09-30T08:52:45Z</time>
      </trkpt>
      <trkpt lat="47.73825" lon="6.78119">
        <ele>541.02</ele>
        <time>2012-09-30T08:52:46Z</time>
      </trkpt>
      <trkpt lat="47.73825" lon="6.78109">
        <ele>541.02</ele>
        <time>2012-09-30T08:52:49Z</time>
      </trkpt>
      <trkpt lat="47.73825" lon="6.781">
        <ele>540.4104</ele>
        <time>2012-09-30T08:52:50Z</time>
      </trkpt>
      <trkpt lat="47.73824" lon="6.78093">
        <ele>539.8008</ele>
        <time>2012-09-30T08:52:53Z</time>
      </trkpt>
      <trkpt lat="47.73822" lon="6.78086">
        <ele>540.1056</ele>
        <time>2012-09-30T08:52:54Z</time>
      </trkpt>
      <trkpt lat="47.73821" lon="6.78079">
        <ele>540.7152</ele>
        <time>2012-09-30T08:52:57Z</time>
      </trkpt>
      <trkpt lat="47.73819" lon="6.78071">
        <ele>539.496</ele>
        <time>2012-09-30T08:52:58Z</time>
      </trkpt>
      <trkpt lat="47.73817" lon="6.78062">
        <ele>538.5816</ele>
        <time>2012-09-30T08:53:01Z</time>
      </trkpt>
      <trkpt lat="47.73814" lon="6.78053">
        <ele>536.7528</ele>
        <time>2012-09-30T08:53:02Z</time>
      </trkpt>
      <trkpt lat="47.73811" lon="6.78044">
        <ele>535.5336</ele>
        <time>2012-09-30T08:53:05Z</time>
      </trkpt>
      <trkpt lat="47.73809" lon="6.78035">
        <ele>534.6192</ele>
        <time>2012-09-30T08:53:06Z</time>
      </trkpt>
      <trkpt lat="47.73809" lon="6.78026">
        <ele>534.0096</ele>
        <time>2012-09-30T08:53:09Z</time>
      </trkpt>
      <trkpt lat="47.73812" lon="6.7802">
        <ele>533.7048</ele>
        <time>2012-09-30T08:53:10Z</time>
      </trkpt>
      <trkpt lat="47.73817" lon="6.78017">
        <ele>533.4</ele>
        <time>2012-09-30T08:53:13Z</time>
      </trkpt>
      <trkpt lat="47.73822" lon="6.78015">
        <ele>533.4</ele>
        <time>2012-09-30T08:53:15Z</time>
      </trkpt>
      <trkpt lat="47.73826" lon="6.78014">
        <ele>533.4</ele>
        <time>2012-09-30T08:53:16Z</time>
      </trkpt>
      <trkpt lat="47.73831" lon="6.78013">
        <ele>533.7048</ele>
        <time>2012-09-30T08:53:19Z</time>
      </trkpt>
      <trkpt lat="47.73836" lon="6.78013">
        <ele>533.7048</ele>
        <time>2012-09-30T08:53:20Z</time>
      </trkpt>
      <trkpt lat="47.7384" lon="6.78012">
        <ele>534.0096</ele>
        <time>2012-09-30T08:53:23Z</time>
      </trkpt>
      <trkpt lat="47.73845" lon="6.78011">
        <ele>534.3144</ele>
        <time>2012-09-30T08:53:24Z</time>
      </trkpt>
      <trkpt lat="47.7385" lon="6.7801">
        <ele>534.3144</ele>
        <time>2012-09-30T08:53:27Z</time>
      </trkpt>
      <trkpt lat="47.73854" lon="6.7801">
        <ele>534.6192</ele>
        <time>2012-09-30T08:53:28Z</time>
      </trkpt>
      <trkpt lat="47.73858" lon="6.78009">
        <ele>534.924</ele>
        <time>2012-09-30T08:53:31Z</time>
      </trkpt>
      <trkpt lat="47.73862" lon="6.78009">
        <ele>535.2288</ele>
        <time>2012-09-30T08:53:32Z</time>
      </trkpt>
      <trkpt lat="47.73866" lon="6.78008">
        <ele>535.5336</ele>
        <time>2012-09-30T08:53:35Z</time>
      </trkpt>
      <trkpt lat="47.7387" lon="6.78007">
        <ele>535.8384</ele>
        <time>2012-09-30T08:53:36Z</time>
      </trkpt>
      <trkpt lat="47.73874" lon="6.78007">
        <ele>535.8384</ele>
        <time>2012-09-30T08:53:39Z</time>
      </trkpt>
      <trkpt lat="47.73878" lon="6.78006">
        <ele>536.448</ele>
        <time>2012-09-30T08:53:40Z</time>
      </trkpt>
      <trkpt lat="47.73882" lon="6.78006">
        <ele>536.7528</ele>
        <time>2012-09-30T08:53:43Z</time>
      </trkpt>
      <trkpt lat="47.73885" lon="6.78005">
        <ele>537.0576</ele>
        <time>2012-09-30T08:53:44Z</time>
      </trkpt>
      <trkpt lat="47.73889" lon="6.78004">
        <ele>537.3624</ele>
        <time>2012-09-30T08:53:47Z</time>
      </trkpt>
      <trkpt lat="47.73892" lon="6.78002">
        <ele>537.6672</ele>
        <time>2012-09-30T08:53:48Z</time>
      </trkpt>
      <trkpt lat="47.73895" lon="6.78">
        <ele>537.972</ele>
        <time>2012-09-30T08:53:51Z</time>
      </trkpt>
      <trkpt lat="47.73899" lon="6.77998">
        <ele>537.972</ele>
        <time>2012-09-30T08:53:52Z</time>
      </trkpt>
      <trkpt lat="47.73903" lon="6.77996">
        <ele>538.2768</ele>
        <time>2012-09-30T08:53:55Z</time>
      </trkpt>
      <trkpt lat="47.73906" lon="6.77993">
        <ele>538.5816</ele>
        <time>2012-09-30T08:53:56Z</time>
      </trkpt>
      <trkpt lat="47.7391" lon="6.77991">
        <ele>538.8864</ele>
        <time>2012-09-30T08:53:59Z</time>
      </trkpt>
      <trkpt lat="47.73914" lon="6.77989">
        <ele>538.8864</ele>
        <time>2012-09-30T08:54:00Z</time>
      </trkpt>
      <trkpt lat="47.73917" lon="6.77987">
        <ele>539.1912</ele>
        <time>2012-09-30T08:54:03Z</time>
      </trkpt>
      <trkpt lat="47.73921" lon="6.77986">
        <ele>539.496</ele>
        <time>2012-09-30T08:54:04Z</time>
      </trkpt>
      <trkpt lat="47.73925" lon="6.77985">
        <ele>539.8008</ele>
        <time>2012-09-30T08:54:07Z</time>
      </trkpt>
      <trkpt lat="47.73929" lon="6.77984">
        <ele>540.1056</ele>
        <time>2012-09-30T08:54:09Z</time>
      </trkpt>
      <trkpt lat="47.73932" lon="6.77983">
        <ele>540.1056</ele>
        <time>2012-09-30T08:54:10Z</time>
      </trkpt>
      <trkpt lat="47.73936" lon="6.77982">
        <ele>540.4104</ele>
        <time>2012-09-30T08:54:13Z</time>
      </trkpt>
      <trkpt lat="47.73939" lon="6.77979">
        <ele>540.7152</ele>
        <time>2012-09-30T08:54:14Z</time>
      </trkpt>
      <trkpt lat="47.73942" lon="6.77977">
        <ele>540.7152</ele>
        <time>2012-09-30T08:54:17Z</time>
      </trkpt>
      <trkpt lat="47.73945" lon="6.77974">
        <ele>541.02</ele>
        <time>2012-09-30T08:54:18Z</time>
      </trkpt>
      <trkpt lat="47.73949" lon="6.77971">
        <ele>541.3248</ele>
        <time>2012-09-30T08:54:21Z</time>
      </trkpt>
      <trkpt lat="47.73951" lon="6.77968">
        <ele>541.6296</ele>
        <time>2012-09-30T08:54:22Z</time>
      </trkpt>
      <trkpt lat="47.73954" lon="6.77965">
        <ele>541.6296</ele>
        <time>2012-09-30T08:54:25Z</time>
      </trkpt>
      <trkpt lat="47.73958" lon="6.77963">
        <ele>541.9344</ele>
        <time>2012-09-30T08:54:26Z</time>
      </trkpt>
      <trkpt lat="47.73961" lon="6.7796">
        <ele>542.2392</ele>
        <time>2012-09-30T08:54:29Z</time>
      </trkpt>
      <trkpt lat="47.73964" lon="6.77958">
        <ele>542.544</ele>
        <time>2012-09-30T08:54:30Z</time>
      </trkpt>
      <trkpt lat="47.73967" lon="6.77955">
        <ele>542.8488</ele>
        <time>2012-09-30T08:54:33Z</time>
      </trkpt>
      <trkpt lat="47.73971" lon="6.77953">
        <ele>543.1536</ele>
        <time>2012-09-30T08:54:34Z</time>
      </trkpt>
      <trkpt lat="47.73974" lon="6.77951">
        <ele>543.4584</ele>
        <time>2012-09-30T08:54:37Z</time>
      </trkpt>
      <trkpt lat="47.73977" lon="6.77948">
        <ele>543.4584</ele>
        <time>2012-09-30T08:54:38Z</time>
      </trkpt>
      <trkpt lat="47.73981" lon="6.77946">
        <ele>543.7632</ele>
        <time>2012-09-30T08:54:41Z</time>
      </trkpt>
      <trkpt lat="47.73984" lon="6.77945">
        <ele>543.7632</ele>
        <time>2012-09-30T08:54:42Z</time>
      </trkpt>
      <trkpt lat="47.73987" lon="6.77945">
        <ele>544.068</ele>
        <time>2012-09-30T08:54:45Z</time>
      </trkpt>
      <trkpt lat="47.73988" lon="6.77946">
        <ele>544.3728</ele>
        <time>2012-09-30T08:54:49Z</time>
      </trkpt>
      <trkpt lat="47.73988" lon="6.77948">
        <ele>544.6776</ele>
        <time>2012-09-30T08:54:50Z</time>
      </trkpt>
      <trkpt lat="47.73987" lon="6.7795">
        <ele>544.6776</ele>
        <time>2012-09-30T08:54:53Z</time>
      </trkpt>
      <trkpt lat="47.73987" lon="6.77952">
        <ele>545.2872</ele>
        <time>2012-09-30T08:54:57Z</time>
      </trkpt>
      <trkpt lat="47.73983" lon="6.77949">
        <ele>536.448</ele>
        <time>2012-09-30T08:55:47Z</time>
      </trkpt>
      <trkpt lat="47.73987" lon="6.77954">
        <ele>546.8112</ele>
        <time>2012-09-30T08:57:46Z</time>
      </trkpt>
      <trkpt lat="47.73989" lon="6.77949">
        <ele>546.5064</ele>
        <time>2012-09-30T08:57:49Z</time>
      </trkpt>
      <trkpt lat="47.73993" lon="6.77944">
        <ele>546.2016</ele>
        <time>2012-09-30T08:57:50Z</time>
      </trkpt>
      <trkpt lat="47.73998" lon="6.77939">
        <ele>546.2016</ele>
        <time>2012-09-30T08:57:53Z</time>
      </trkpt>
      <trkpt lat="47.74003" lon="6.77936">
        <ele>546.5064</ele>
        <time>2012-09-30T08:57:54Z</time>
      </trkpt>
      <trkpt lat="47.74007" lon="6.77933">
        <ele>546.8112</ele>
        <time>2012-09-30T08:57:57Z</time>
      </trkpt>
      <trkpt lat="47.74011" lon="6.77929">
        <ele>547.116</ele>
        <time>2012-09-30T08:57:58Z</time>
      </trkpt>
      <trkpt lat="47.74016" lon="6.77925">
        <ele>547.7256</ele>
        <time>2012-09-30T08:58:01Z</time>
      </trkpt>
      <trkpt lat="47.7402" lon="6.77921">
        <ele>548.0304</ele>
        <time>2012-09-30T08:58:02Z</time>
      </trkpt>
      <trkpt lat="47.74024" lon="6.77917">
        <ele>548.64</ele>
        <time>2012-09-30T08:58:05Z</time>
      </trkpt>
      <trkpt lat="47.74027" lon="6.77914">
        <ele>548.9448</ele>
        <time>2012-09-30T08:58:06Z</time>
      </trkpt>
      <trkpt lat="47.7403" lon="6.77909">
        <ele>549.2496</ele>
        <time>2012-09-30T08:58:09Z</time>
      </trkpt>
      <trkpt lat="47.74033" lon="6.77905">
        <ele>549.5544</ele>
        <time>2012-09-30T08:58:10Z</time>
      </trkpt>
      <trkpt lat="47.74035" lon="6.77901">
        <ele>549.8592</ele>
        <time>2012-09-30T08:58:13Z</time>
      </trkpt>
      <trkpt lat="47.74038" lon="6.77897">
        <ele>550.164</ele>
        <time>2012-09-30T08:58:14Z</time>
      </trkpt>
      <trkpt lat="47.74041" lon="6.77894">
        <ele>550.4688</ele>
        <time>2012-09-30T08:58:17Z</time>
      </trkpt>
      <trkpt lat="47.74043" lon="6.7789">
        <ele>551.0784</ele>
        <time>2012-09-30T08:58:18Z</time>
      </trkpt>
      <trkpt lat="47.74045" lon="6.77885">
        <ele>551.3832</ele>
        <time>2012-09-30T08:58:21Z</time>
      </trkpt>
      <trkpt lat="47.74048" lon="6.77881">
        <ele>551.688</ele>
        <time>2012-09-30T08:58:22Z</time>
      </trkpt>
      <trkpt lat="47.7405" lon="6.77876">
        <ele>551.688</ele>
        <time>2012-09-30T08:58:25Z</time>
      </trkpt>
      <trkpt lat="47.74053" lon="6.77871">
        <ele>551.9928</ele>
        <time>2012-09-30T08:58:26Z</time>
      </trkpt>
      <trkpt lat="47.74055" lon="6.77867">
        <ele>551.9928</ele>
        <time>2012-09-30T08:58:29Z</time>
      </trkpt>
      <trkpt lat="47.74057" lon="6.77862">
        <ele>552.2976</ele>
        <time>2012-09-30T08:58:30Z</time>
      </trkpt>
      <trkpt lat="47.7406" lon="6.77857">
        <ele>552.6024</ele>
        <time>2012-09-30T08:58:33Z</time>
      </trkpt>
      <trkpt lat="47.74063" lon="6.77851">
        <ele>552.6024</ele>
        <time>2012-09-30T08:58:34Z</time>
      </trkpt>
      <trkpt lat="47.74067" lon="6.77846">
        <ele>552.9072</ele>
        <time>2012-09-30T08:58:37Z</time>
      </trkpt>
      <trkpt lat="47.7407" lon="6.77841">
        <ele>553.212</ele>
        <time>2012-09-30T08:58:39Z</time>
      </trkpt>
      <trkpt lat="47.74074" lon="6.77836">
        <ele>553.212</ele>
        <time>2012-09-30T08:58:40Z</time>
      </trkpt>
      <trkpt lat="47.74078" lon="6.77831">
        <ele>553.5168</ele>
        <time>2012-09-30T08:58:43Z</time>
      </trkpt>
      <trkpt lat="47.74081" lon="6.77826">
        <ele>553.8216</ele>
        <time>2012-09-30T08:58:44Z</time>
      </trkpt>
      <trkpt lat="47.74085" lon="6.77822">
        <ele>554.1264</ele>
        <time>2012-09-30T08:58:47Z</time>
      </trkpt>
      <trkpt lat="47.74088" lon="6.77818">
        <ele>554.4312</ele>
        <time>2012-09-30T08:58:48Z</time>
      </trkpt>
      <trkpt lat="47.74092" lon="6.77814">
        <ele>554.736</ele>
        <time>2012-09-30T08:58:51Z</time>
      </trkpt>
      <trkpt lat="47.74095" lon="6.7781">
        <ele>555.0408</ele>
        <time>2012-09-30T08:58:52Z</time>
      </trkpt>
      <trkpt lat="47.74098" lon="6.77807">
        <ele>555.6504</ele>
        <time>2012-09-30T08:58:55Z</time>
      </trkpt>
      <trkpt lat="47.74101" lon="6.77804">
        <ele>555.9552</ele>
        <time>2012-09-30T08:58:56Z</time>
      </trkpt>
      <trkpt lat="47.74104" lon="6.77801">
        <ele>556.5648</ele>
        <time>2012-09-30T08:58:59Z</time>
      </trkpt>
      <trkpt lat="47.74107" lon="6.77798">
        <ele>557.1744</ele>
        <time>2012-09-30T08:59:00Z</time>
      </trkpt>
      <trkpt lat="47.74111" lon="6.77795">
        <ele>557.4792</ele>
        <time>2012-09-30T08:59:03Z</time>
      </trkpt>
      <trkpt lat="47.74114" lon="6.77792">
        <ele>558.0888</ele>
        <time>2012-09-30T08:59:04Z</time>
      </trkpt>
      <trkpt lat="47.74118" lon="6.77789">
        <ele>558.3936</ele>
        <time>2012-09-30T08:59:07Z</time>
      </trkpt>
      <trkpt lat="47.74121" lon="6.77786">
        <ele>558.6984</ele>
        <time>2012-09-30T08:59:08Z</time>
      </trkpt>
      <trkpt lat="47.74125" lon="6.77784">
        <ele>559.308</ele>
        <time>2012-09-30T08:59:11Z</time>
      </trkpt>
      <trkpt lat="47.74129" lon="6.77781">
        <ele>559.6128</ele>
        <time>2012-09-30T08:59:12Z</time>
      </trkpt>
      <trkpt lat="47.74132" lon="6.77778">
        <ele>560.2224</ele>
        <time>2012-09-30T08:59:15Z</time>
      </trkpt>
      <trkpt lat="47.74136" lon="6.77775">
        <ele>560.832</ele>
        <time>2012-09-30T08:59:16Z</time>
      </trkpt>
      <trkpt lat="47.74139" lon="6.77773">
        <ele>561.4416</ele>
        <time>2012-09-30T08:59:19Z</time>
      </trkpt>
      <trkpt lat="47.74142" lon="6.77772">
        <ele>562.0512</ele>
        <time>2012-09-30T08:59:20Z</time>
      </trkpt>
      <trkpt lat="47.74145" lon="6.7777">
        <ele>562.6608</ele>
        <time>2012-09-30T08:59:23Z</time>
      </trkpt>
      <trkpt lat="47.74147" lon="6.7777">
        <ele>562.9656</ele>
        <time>2012-09-30T08:59:24Z</time>
      </trkpt>
      <trkpt lat="47.74149" lon="6.77773">
        <ele>562.9656</ele>
        <time>2012-09-30T08:59:27Z</time>
      </trkpt>
      <trkpt lat="47.74149" lon="6.77778">
        <ele>562.9656</ele>
        <time>2012-09-30T08:59:28Z</time>
      </trkpt>
      <trkpt lat="47.74148" lon="6.77783">
        <ele>562.9656</ele>
        <time>2012-09-30T08:59:31Z</time>
      </trkpt>
      <trkpt lat="47.74147" lon="6.77789">
        <ele>562.9656</ele>
        <time>2012-09-30T08:59:33Z</time>
      </trkpt>
      <trkpt lat="47.74145" lon="6.77795">
        <ele>563.2704</ele>
        <time>2012-09-30T08:59:34Z</time>
      </trkpt>
      <trkpt lat="47.74144" lon="6.77801">
        <ele>563.5752</ele>
        <time>2012-09-30T08:59:37Z</time>
      </trkpt>
      <trkpt lat="47.74143" lon="6.77807">
        <ele>563.5752</ele>
        <time>2012-09-30T08:59:38Z</time>
      </trkpt>
      <trkpt lat="47.74141" lon="6.77813">
        <ele>563.88</ele>
        <time>2012-09-30T08:59:41Z</time>
      </trkpt>
      <trkpt lat="47.7414" lon="6.7782">
        <ele>563.88</ele>
        <time>2012-09-30T08:59:42Z</time>
      </trkpt>
      <trkpt lat="47.74139" lon="6.77826">
        <ele>564.1848</ele>
        <time>2012-09-30T08:59:45Z</time>
      </trkpt>
      <trkpt lat="47.74138" lon="6.77833">
        <ele>564.1848</ele>
        <time>2012-09-30T08:59:46Z</time>
      </trkpt>
      <trkpt lat="47.74137" lon="6.7784">
        <ele>564.4896</ele>
        <time>2012-09-30T08:59:49Z</time>
      </trkpt>
      <trkpt lat="47.74136" lon="6.77846">
        <ele>564.4896</ele>
        <time>2012-09-30T08:59:50Z</time>
      </trkpt>
      <trkpt lat="47.74135" lon="6.77853">
        <ele>564.7944</ele>
        <time>2012-09-30T08:59:53Z</time>
      </trkpt>
      <trkpt lat="47.74134" lon="6.7786">
        <ele>565.0992</ele>
        <time>2012-09-30T08:59:54Z</time>
      </trkpt>
      <trkpt lat="47.74133" lon="6.77867">
        <ele>565.0992</ele>
        <time>2012-09-30T08:59:57Z</time>
      </trkpt>
      <trkpt lat="47.74132" lon="6.77873">
        <ele>565.404</ele>
        <time>2012-09-30T08:59:58Z</time>
      </trkpt>
      <trkpt lat="47.74131" lon="6.7788">
        <ele>565.7088</ele>
        <time>2012-09-30T09:00:01Z</time>
      </trkpt>
      <trkpt lat="47.74129" lon="6.77887">
        <ele>565.7088</ele>
        <time>2012-09-30T09:00:02Z</time>
      </trkpt>
      <trkpt lat="47.74127" lon="6.77893">
        <ele>565.7088</ele>
        <time>2012-09-30T09:00:05Z</time>
      </trkpt>
      <trkpt lat="47.74126" lon="6.779">
        <ele>566.3184</ele>
        <time>2012-09-30T09:00:06Z</time>
      </trkpt>
      <trkpt lat="47.74124" lon="6.77907">
        <ele>566.6232</ele>
        <time>2012-09-30T09:00:09Z</time>
      </trkpt>
      <trkpt lat="47.74121" lon="6.77914">
        <ele>566.928</ele>
        <time>2012-09-30T09:00:10Z</time>
      </trkpt>
      <trkpt lat="47.74119" lon="6.7792">
        <ele>567.2328</ele>
        <time>2012-09-30T09:00:13Z</time>
      </trkpt>
      <trkpt lat="47.74117" lon="6.77927">
        <ele>567.5376</ele>
        <time>2012-09-30T09:00:14Z</time>
      </trkpt>
      <trkpt lat="47.74114" lon="6.77934">
        <ele>567.8424</ele>
        <time>2012-09-30T09:00:17Z</time>
      </trkpt>
      <trkpt lat="47.74112" lon="6.77941">
        <ele>568.452</ele>
        <time>2012-09-30T09:00:18Z</time>
      </trkpt>
      <trkpt lat="47.7411" lon="6.77948">
        <ele>568.7568</ele>
        <time>2012-09-30T09:00:21Z</time>
      </trkpt>
      <trkpt lat="47.74109" lon="6.77955">
        <ele>569.0616</ele>
        <time>2012-09-30T09:00:22Z</time>
      </trkpt>
      <trkpt lat="47.74108" lon="6.77963">
        <ele>569.3664</ele>
        <time>2012-09-30T09:00:25Z</time>
      </trkpt>
      <trkpt lat="47.74106" lon="6.7797">
        <ele>569.6712</ele>
        <time>2012-09-30T09:00:27Z</time>
      </trkpt>
      <trkpt lat="47.74105" lon="6.77977">
        <ele>569.6712</ele>
        <time>2012-09-30T09:00:28Z</time>
      </trkpt>
      <trkpt lat="47.74105" lon="6.77985">
        <ele>570.2808</ele>
        <time>2012-09-30T09:00:31Z</time>
      </trkpt>
      <trkpt lat="47.74105" lon="6.77993">
        <ele>570.5856</ele>
        <time>2012-09-30T09:00:32Z</time>
      </trkpt>
      <trkpt lat="47.74106" lon="6.78001">
        <ele>570.5856</ele>
        <time>2012-09-30T09:00:35Z</time>
      </trkpt>
      <trkpt lat="47.74108" lon="6.78009">
        <ele>570.8904</ele>
        <time>2012-09-30T09:00:36Z</time>
      </trkpt>
      <trkpt lat="47.74109" lon="6.78017">
        <ele>571.1952</ele>
        <time>2012-09-30T09:00:39Z</time>
      </trkpt>
      <trkpt lat="47.74111" lon="6.78024">
        <ele>571.1952</ele>
        <time>2012-09-30T09:00:40Z</time>
      </trkpt>
      <trkpt lat="47.74113" lon="6.78032">
        <ele>571.5</ele>
        <time>2012-09-30T09:00:43Z</time>
      </trkpt>
      <trkpt lat="47.74115" lon="6.78039">
        <ele>571.8048</ele>
        <time>2012-09-30T09:00:44Z</time>
      </trkpt>
      <trkpt lat="47.74116" lon="6.78047">
        <ele>572.1096</ele>
        <time>2012-09-30T09:00:47Z</time>
      </trkpt>
      <trkpt lat="47.7412" lon="6.78079">
        <ele>572.4144</ele>
        <time>2012-09-30T09:00:55Z</time>
      </trkpt>
      <trkpt lat="47.7412" lon="6.78083">
        <ele>572.4144</ele>
        <time>2012-09-30T09:00:55Z</time>
      </trkpt>
      <trkpt lat="47.7412" lon="6.78091">
        <ele>572.7192</ele>
        <time>2012-09-30T09:00:58Z</time>
      </trkpt>
      <trkpt lat="47.74122" lon="6.78099">
        <ele>572.7192</ele>
        <time>2012-09-30T09:00:59Z</time>
      </trkpt>
      <trkpt lat="47.74125" lon="6.78105">
        <ele>573.3288</ele>
        <time>2012-09-30T09:01:02Z</time>
      </trkpt>
      <trkpt lat="47.74128" lon="6.78111">
        <ele>573.6336</ele>
        <time>2012-09-30T09:01:03Z</time>
      </trkpt>
      <trkpt lat="47.74131" lon="6.78116">
        <ele>573.9384</ele>
        <time>2012-09-30T09:01:06Z</time>
      </trkpt>
      <trkpt lat="47.74134" lon="6.78122">
        <ele>574.2432</ele>
        <time>2012-09-30T09:01:07Z</time>
      </trkpt>
      <trkpt lat="47.74137" lon="6.78128">
        <ele>574.8528</ele>
        <time>2012-09-30T09:01:10Z</time>
      </trkpt>
      <trkpt lat="47.74139" lon="6.78134">
        <ele>575.1576</ele>
        <time>2012-09-30T09:01:11Z</time>
      </trkpt>
      <trkpt lat="47.74142" lon="6.7814">
        <ele>575.7672</ele>
        <time>2012-09-30T09:01:14Z</time>
      </trkpt>
      <trkpt lat="47.74144" lon="6.78146">
        <ele>576.072</ele>
        <time>2012-09-30T09:01:15Z</time>
      </trkpt>
      <trkpt lat="47.74147" lon="6.78152">
        <ele>576.6816</ele>
        <time>2012-09-30T09:01:18Z</time>
      </trkpt>
      <trkpt lat="47.74149" lon="6.78157">
        <ele>577.2912</ele>
        <time>2012-09-30T09:01:19Z</time>
      </trkpt>
      <trkpt lat="47.74151" lon="6.78163">
        <ele>577.9008</ele>
        <time>2012-09-30T09:01:22Z</time>
      </trkpt>
      <trkpt lat="47.74152" lon="6.7817">
        <ele>578.5104</ele>
        <time>2012-09-30T09:01:23Z</time>
      </trkpt>
      <trkpt lat="47.74154" lon="6.78176">
        <ele>579.4248</ele>
        <time>2012-09-30T09:01:26Z</time>
      </trkpt>
      <trkpt lat="47.74156" lon="6.78181">
        <ele>580.0344</ele>
        <time>2012-09-30T09:01:27Z</time>
      </trkpt>
      <trkpt lat="47.74157" lon="6.78186">
        <ele>580.9488</ele>
        <time>2012-09-30T09:01:30Z</time>
      </trkpt>
      <trkpt lat="47.74159" lon="6.78192">
        <ele>581.5584</ele>
        <time>2012-09-30T09:01:31Z</time>
      </trkpt>
      <trkpt lat="47.7416" lon="6.78198">
        <ele>582.4728</ele>
        <time>2012-09-30T09:01:34Z</time>
      </trkpt>
      <trkpt lat="47.74162" lon="6.78204">
        <ele>583.0824</ele>
        <time>2012-09-30T09:01:35Z</time>
      </trkpt>
      <trkpt lat="47.74162" lon="6.7821">
        <ele>584.3016</ele>
        <time>2012-09-30T09:01:38Z</time>
      </trkpt>
      <trkpt lat="47.74164" lon="6.78216">
        <ele>584.6064</ele>
        <time>2012-09-30T09:01:39Z</time>
      </trkpt>
      <trkpt lat="47.74165" lon="6.78222">
        <ele>584.9112</ele>
        <time>2012-09-30T09:01:42Z</time>
      </trkpt>
      <trkpt lat="47.74166" lon="6.78228">
        <ele>585.216</ele>
        <time>2012-09-30T09:01:43Z</time>
      </trkpt>
      <trkpt lat="47.74167" lon="6.78233">
        <ele>585.8256</ele>
        <time>2012-09-30T09:01:46Z</time>
      </trkpt>
      <trkpt lat="47.74167" lon="6.78239">
        <ele>586.1304</ele>
        <time>2012-09-30T09:01:48Z</time>
      </trkpt>
      <trkpt lat="47.74166" lon="6.78245">
        <ele>586.1304</ele>
        <time>2012-09-30T09:01:49Z</time>
      </trkpt>
      <trkpt lat="47.74165" lon="6.78252">
        <ele>586.1304</ele>
        <time>2012-09-30T09:01:52Z</time>
      </trkpt>
      <trkpt lat="47.74163" lon="6.7826">
        <ele>586.1304</ele>
        <time>2012-09-30T09:01:53Z</time>
      </trkpt>
      <trkpt lat="47.74161" lon="6.78267">
        <ele>586.1304</ele>
        <time>2012-09-30T09:01:56Z</time>
      </trkpt>
      <trkpt lat="47.74159" lon="6.78275">
        <ele>586.4352</ele>
        <time>2012-09-30T09:01:57Z</time>
      </trkpt>
      <trkpt lat="47.74156" lon="6.78282">
        <ele>586.74</ele>
        <time>2012-09-30T09:02:00Z</time>
      </trkpt>
      <trkpt lat="47.74155" lon="6.7829">
        <ele>587.0448</ele>
        <time>2012-09-30T09:02:01Z</time>
      </trkpt>
      <trkpt lat="47.74154" lon="6.78297">
        <ele>587.6544</ele>
        <time>2012-09-30T09:02:04Z</time>
      </trkpt>
      <trkpt lat="47.74153" lon="6.78304">
        <ele>587.9592</ele>
        <time>2012-09-30T09:02:05Z</time>
      </trkpt>
      <trkpt lat="47.74152" lon="6.78311">
        <ele>588.5688</ele>
        <time>2012-09-30T09:02:08Z</time>
      </trkpt>
      <trkpt lat="47.74151" lon="6.78318">
        <ele>589.1784</ele>
        <time>2012-09-30T09:02:09Z</time>
      </trkpt>
      <trkpt lat="47.7415" lon="6.78325">
        <ele>589.788</ele>
        <time>2012-09-30T09:02:12Z</time>
      </trkpt>
      <trkpt lat="47.74151" lon="6.78334">
        <ele>589.788</ele>
        <time>2012-09-30T09:02:13Z</time>
      </trkpt>
      <trkpt lat="47.74151" lon="6.78342">
        <ele>590.0928</ele>
        <time>2012-09-30T09:02:16Z</time>
      </trkpt>
      <trkpt lat="47.74151" lon="6.78351">
        <ele>590.3976</ele>
        <time>2012-09-30T09:02:17Z</time>
      </trkpt>
      <trkpt lat="47.74152" lon="6.78359">
        <ele>591.0072</ele>
        <time>2012-09-30T09:02:20Z</time>
      </trkpt>
      <trkpt lat="47.74154" lon="6.78369">
        <ele>591.312</ele>
        <time>2012-09-30T09:02:21Z</time>
      </trkpt>
      <trkpt lat="47.74156" lon="6.78377">
        <ele>591.6168</ele>
        <time>2012-09-30T09:02:24Z</time>
      </trkpt>
      <trkpt lat="47.74158" lon="6.78386">
        <ele>591.9216</ele>
        <time>2012-09-30T09:02:25Z</time>
      </trkpt>
      <trkpt lat="47.74157" lon="6.78395">
        <ele>592.5312</ele>
        <time>2012-09-30T09:02:28Z</time>
      </trkpt>
      <trkpt lat="47.74157" lon="6.78404">
        <ele>592.836</ele>
        <time>2012-09-30T09:02:29Z</time>
      </trkpt>
      <trkpt lat="47.74156" lon="6.78412">
        <ele>593.1408</ele>
        <time>2012-09-30T09:02:32Z</time>
      </trkpt>
      <trkpt lat="47.74156" lon="6.78421">
        <ele>593.1408</ele>
        <time>2012-09-30T09:02:33Z</time>
      </trkpt>
      <trkpt lat="47.74157" lon="6.78429">
        <ele>594.0552</ele>
        <time>2012-09-30T09:02:36Z</time>
      </trkpt>
      <trkpt lat="47.74157" lon="6.78436">
        <ele>594.0552</ele>
        <time>2012-09-30T09:02:37Z</time>
      </trkpt>
      <trkpt lat="47.74157" lon="6.78445">
        <ele>594.0552</ele>
        <time>2012-09-30T09:02:40Z</time>
      </trkpt>
      <trkpt lat="47.74157" lon="6.78454">
        <ele>594.0552</ele>
        <time>2012-09-30T09:02:42Z</time>
      </trkpt>
      <trkpt lat="47.74157" lon="6.78463">
        <ele>594.0552</ele>
        <time>2012-09-30T09:02:43Z</time>
      </trkpt>
      <trkpt lat="47.74157" lon="6.78471">
        <ele>594.36</ele>
        <time>2012-09-30T09:02:46Z</time>
      </trkpt>
      <trkpt lat="47.74157" lon="6.78479">
        <ele>594.6648</ele>
        <time>2012-09-30T09:02:47Z</time>
      </trkpt>
      <trkpt lat="47.74158" lon="6.78487">
        <ele>595.2744</ele>
        <time>2012-09-30T09:02:50Z</time>
      </trkpt>
      <trkpt lat="47.74158" lon="6.78494">
        <ele>595.2744</ele>
        <time>2012-09-30T09:02:51Z</time>
      </trkpt>
      <trkpt lat="47.74158" lon="6.78501">
        <ele>595.5792</ele>
        <time>2012-09-30T09:02:54Z</time>
      </trkpt>
      <trkpt lat="47.74158" lon="6.78508">
        <ele>596.1888</ele>
        <time>2012-09-30T09:02:55Z</time>
      </trkpt>
      <trkpt lat="47.74159" lon="6.78514">
        <ele>596.4936</ele>
        <time>2012-09-30T09:02:58Z</time>
      </trkpt>
      <trkpt lat="47.74159" lon="6.78521">
        <ele>596.7984</ele>
        <time>2012-09-30T09:02:59Z</time>
      </trkpt>
      <trkpt lat="47.74159" lon="6.78527">
        <ele>597.408</ele>
        <time>2012-09-30T09:03:02Z</time>
      </trkpt>
      <trkpt lat="47.74158" lon="6.78533">
        <ele>597.7128</ele>
        <time>2012-09-30T09:03:03Z</time>
      </trkpt>
      <trkpt lat="47.74159" lon="6.78539">
        <ele>598.3224</ele>
        <time>2012-09-30T09:03:06Z</time>
      </trkpt>
      <trkpt lat="47.74159" lon="6.78544">
        <ele>598.6272</ele>
        <time>2012-09-30T09:03:07Z</time>
      </trkpt>
      <trkpt lat="47.7416" lon="6.78549">
        <ele>599.2368</ele>
        <time>2012-09-30T09:03:10Z</time>
      </trkpt>
      <trkpt lat="47.7416" lon="6.78555">
        <ele>599.2368</ele>
        <time>2012-09-30T09:03:11Z</time>
      </trkpt>
      <trkpt lat="47.74161" lon="6.78562">
        <ele>599.5416</ele>
        <time>2012-09-30T09:03:14Z</time>
      </trkpt>
      <trkpt lat="47.74163" lon="6.78567">
        <ele>599.5416</ele>
        <time>2012-09-30T09:03:15Z</time>
      </trkpt>
      <trkpt lat="47.74164" lon="6.78573">
        <ele>599.8464</ele>
        <time>2012-09-30T09:03:18Z</time>
      </trkpt>
      <trkpt lat="47.74166" lon="6.78578">
        <ele>600.1512</ele>
        <time>2012-09-30T09:03:19Z</time>
      </trkpt>
      <trkpt lat="47.74169" lon="6.78582">
        <ele>601.0656</ele>
        <time>2012-09-30T09:03:22Z</time>
      </trkpt>
      <trkpt lat="47.74172" lon="6.78585">
        <ele>601.6752</ele>
        <time>2012-09-30T09:03:23Z</time>
      </trkpt>
      <trkpt lat="47.74174" lon="6.78589">
        <ele>602.5896</ele>
        <time>2012-09-30T09:03:26Z</time>
      </trkpt>
      <trkpt lat="47.74175" lon="6.78595">
        <ele>602.8944</ele>
        <time>2012-09-30T09:03:27Z</time>
      </trkpt>
      <trkpt lat="47.74176" lon="6.786">
        <ele>602.8944</ele>
        <time>2012-09-30T09:03:30Z</time>
      </trkpt>
      <trkpt lat="47.74176" lon="6.78605">
        <ele>602.8944</ele>
        <time>2012-09-30T09:03:31Z</time>
      </trkpt>
      <trkpt lat="47.74176" lon="6.7861">
        <ele>603.504</ele>
        <time>2012-09-30T09:03:34Z</time>
      </trkpt>
      <trkpt lat="47.74175" lon="6.78616">
        <ele>603.504</ele>
        <time>2012-09-30T09:03:36Z</time>
      </trkpt>
      <trkpt lat="47.74173" lon="6.78623">
        <ele>604.1136</ele>
        <time>2012-09-30T09:03:37Z</time>
      </trkpt>
      <trkpt lat="47.74173" lon="6.78631">
        <ele>603.8088</ele>
        <time>2012-09-30T09:03:40Z</time>
      </trkpt>
      <trkpt lat="47.74174" lon="6.7864">
        <ele>604.1136</ele>
        <time>2012-09-30T09:03:41Z</time>
      </trkpt>
      <trkpt lat="47.74174" lon="6.78649">
        <ele>603.8088</ele>
        <time>2012-09-30T09:03:44Z</time>
      </trkpt>
      <trkpt lat="47.74175" lon="6.78658">
        <ele>604.4184</ele>
        <time>2012-09-30T09:03:45Z</time>
      </trkpt>
      <trkpt lat="47.74175" lon="6.78666">
        <ele>605.028</ele>
        <time>2012-09-30T09:03:48Z</time>
      </trkpt>
      <trkpt lat="47.74174" lon="6.78673">
        <ele>605.6376</ele>
        <time>2012-09-30T09:03:49Z</time>
      </trkpt>
      <trkpt lat="47.74172" lon="6.78681">
        <ele>606.552</ele>
        <time>2012-09-30T09:03:52Z</time>
      </trkpt>
      <trkpt lat="47.7417" lon="6.7869">
        <ele>608.076</ele>
        <time>2012-09-30T09:03:53Z</time>
      </trkpt>
      <trkpt lat="47.7417" lon="6.78699">
        <ele>609.6</ele>
        <time>2012-09-30T09:03:56Z</time>
      </trkpt>
      <trkpt lat="47.74171" lon="6.78707">
        <ele>611.124</ele>
        <time>2012-09-30T09:03:57Z</time>
      </trkpt>
      <trkpt lat="47.74173" lon="6.78716">
        <ele>611.7336</ele>
        <time>2012-09-30T09:04:00Z</time>
      </trkpt>
      <trkpt lat="47.74174" lon="6.78726">
        <ele>611.4288</ele>
        <time>2012-09-30T09:04:01Z</time>
      </trkpt>
      <trkpt lat="47.74175" lon="6.78735">
        <ele>612.0384</ele>
        <time>2012-09-30T09:04:04Z</time>
      </trkpt>
      <trkpt lat="47.74176" lon="6.78746">
        <ele>612.0384</ele>
        <time>2012-09-30T09:04:05Z</time>
      </trkpt>
      <trkpt lat="47.74177" lon="6.78756">
        <ele>611.7336</ele>
        <time>2012-09-30T09:04:08Z</time>
      </trkpt>
      <trkpt lat="47.74178" lon="6.78765">
        <ele>612.3432</ele>
        <time>2012-09-30T09:04:09Z</time>
      </trkpt>
      <trkpt lat="47.7418" lon="6.78773">
        <ele>610.8192</ele>
        <time>2012-09-30T09:04:12Z</time>
      </trkpt>
      <trkpt lat="47.74181" lon="6.78779">
        <ele>610.5144</ele>
        <time>2012-09-30T09:04:13Z</time>
      </trkpt>
      <trkpt lat="47.74183" lon="6.78786">
        <ele>610.2096</ele>
        <time>2012-09-30T09:04:16Z</time>
      </trkpt>
      <trkpt lat="47.74183" lon="6.78792">
        <ele>610.2096</ele>
        <time>2012-09-30T09:04:17Z</time>
      </trkpt>
      <trkpt lat="47.74184" lon="6.78799">
        <ele>610.5144</ele>
        <time>2012-09-30T09:04:20Z</time>
      </trkpt>
      <trkpt lat="47.74185" lon="6.78806">
        <ele>611.7336</ele>
        <time>2012-09-30T09:04:21Z</time>
      </trkpt>
      <trkpt lat="47.74187" lon="6.78813">
        <ele>612.9528</ele>
        <time>2012-09-30T09:04:24Z</time>
      </trkpt>
      <trkpt lat="47.74188" lon="6.78819">
        <ele>614.7816</ele>
        <time>2012-09-30T09:04:25Z</time>
      </trkpt>
      <trkpt lat="47.7419" lon="6.78825">
        <ele>616.0008</ele>
        <time>2012-09-30T09:04:28Z</time>
      </trkpt>
      <trkpt lat="47.74191" lon="6.78832">
        <ele>616.6104</ele>
        <time>2012-09-30T09:04:30Z</time>
      </trkpt>
      <trkpt lat="47.74192" lon="6.78838">
        <ele>617.8296</ele>
        <time>2012-09-30T09:04:31Z</time>
      </trkpt>
      <trkpt lat="47.74193" lon="6.78843">
        <ele>618.744</ele>
        <time>2012-09-30T09:04:34Z</time>
      </trkpt>
      <trkpt lat="47.74194" lon="6.78848">
        <ele>619.6584</ele>
        <time>2012-09-30T09:04:35Z</time>
      </trkpt>
      <trkpt lat="47.74196" lon="6.78853">
        <ele>619.9632</ele>
        <time>2012-09-30T09:04:38Z</time>
      </trkpt>
      <trkpt lat="47.74198" lon="6.78858">
        <ele>621.1824</ele>
        <time>2012-09-30T09:04:39Z</time>
      </trkpt>
      <trkpt lat="47.742" lon="6.78864">
        <ele>622.4016</ele>
        <time>2012-09-30T09:04:42Z</time>
      </trkpt>
      <trkpt lat="47.74201" lon="6.78869">
        <ele>623.0112</ele>
        <time>2012-09-30T09:04:43Z</time>
      </trkpt>
      <trkpt lat="47.74203" lon="6.78876">
        <ele>622.7064</ele>
        <time>2012-09-30T09:04:46Z</time>
      </trkpt>
      <trkpt lat="47.74204" lon="6.78884">
        <ele>623.0112</ele>
        <time>2012-09-30T09:04:47Z</time>
      </trkpt>
      <trkpt lat="47.74205" lon="6.78892">
        <ele>623.316</ele>
        <time>2012-09-30T09:04:50Z</time>
      </trkpt>
      <trkpt lat="47.74207" lon="6.78899">
        <ele>622.7064</ele>
        <time>2012-09-30T09:04:51Z</time>
      </trkpt>
      <trkpt lat="47.74208" lon="6.78907">
        <ele>620.8776</ele>
        <time>2012-09-30T09:04:54Z</time>
      </trkpt>
      <trkpt lat="47.74208" lon="6.78915">
        <ele>619.9632</ele>
        <time>2012-09-30T09:04:55Z</time>
      </trkpt>
      <trkpt lat="47.74209" lon="6.78922">
        <ele>619.9632</ele>
        <time>2012-09-30T09:04:58Z</time>
      </trkpt>
      <trkpt lat="47.74212" lon="6.78927">
        <ele>620.5728</ele>
        <time>2012-09-30T09:04:59Z</time>
      </trkpt>
      <trkpt lat="47.74214" lon="6.78932">
        <ele>619.6584</ele>
        <time>2012-09-30T09:05:02Z</time>
      </trkpt>
      <trkpt lat="47.74217" lon="6.78935">
        <ele>620.268</ele>
        <time>2012-09-30T09:05:03Z</time>
      </trkpt>
      <trkpt lat="47.74222" lon="6.78938">
        <ele>621.4872</ele>
        <time>2012-09-30T09:05:06Z</time>
      </trkpt>
      <trkpt lat="47.74226" lon="6.78942">
        <ele>621.1824</ele>
        <time>2012-09-30T09:05:07Z</time>
      </trkpt>
      <trkpt lat="47.7423" lon="6.78945">
        <ele>620.8776</ele>
        <time>2012-09-30T09:05:10Z</time>
      </trkpt>
      <trkpt lat="47.74232" lon="6.7895">
        <ele>621.1824</ele>
        <time>2012-09-30T09:05:11Z</time>
      </trkpt>
      <trkpt lat="47.74235" lon="6.78958">
        <ele>621.4872</ele>
        <time>2012-09-30T09:05:14Z</time>
      </trkpt>
      <trkpt lat="47.74237" lon="6.78965">
        <ele>621.792</ele>
        <time>2012-09-30T09:05:15Z</time>
      </trkpt>
      <trkpt lat="47.74238" lon="6.78972">
        <ele>622.7064</ele>
        <time>2012-09-30T09:05:18Z</time>
      </trkpt>
      <trkpt lat="47.7424" lon="6.78979">
        <ele>623.0112</ele>
        <time>2012-09-30T09:05:19Z</time>
      </trkpt>
      <trkpt lat="47.74242" lon="6.78985">
        <ele>623.6208</ele>
        <time>2012-09-30T09:05:22Z</time>
      </trkpt>
      <trkpt lat="47.74244" lon="6.78992">
        <ele>623.9256</ele>
        <time>2012-09-30T09:05:24Z</time>
      </trkpt>
      <trkpt lat="47.74246" lon="6.78998">
        <ele>623.9256</ele>
        <time>2012-09-30T09:05:25Z</time>
      </trkpt>
      <trkpt lat="47.74247" lon="6.79007">
        <ele>623.9256</ele>
        <time>2012-09-30T09:05:28Z</time>
      </trkpt>
      <trkpt lat="47.74251" lon="6.79018">
        <ele>623.6208</ele>
        <time>2012-09-30T09:05:29Z</time>
      </trkpt>
      <trkpt lat="47.74254" lon="6.79027">
        <ele>623.6208</ele>
        <time>2012-09-30T09:05:32Z</time>
      </trkpt>
      <trkpt lat="47.74259" lon="6.79037">
        <ele>623.316</ele>
        <time>2012-09-30T09:05:33Z</time>
      </trkpt>
      <trkpt lat="47.74261" lon="6.79047">
        <ele>621.792</ele>
        <time>2012-09-30T09:05:36Z</time>
      </trkpt>
      <trkpt lat="47.74261" lon="6.79055">
        <ele>622.0968</ele>
        <time>2012-09-30T09:05:37Z</time>
      </trkpt>
      <trkpt lat="47.7426" lon="6.79063">
        <ele>622.0968</ele>
        <time>2012-09-30T09:05:40Z</time>
      </trkpt>
      <trkpt lat="47.74259" lon="6.79071">
        <ele>622.7064</ele>
        <time>2012-09-30T09:05:41Z</time>
      </trkpt>
      <trkpt lat="47.74259" lon="6.7908">
        <ele>623.0112</ele>
        <time>2012-09-30T09:05:44Z</time>
      </trkpt>
      <trkpt lat="47.74259" lon="6.79088">
        <ele>622.7064</ele>
        <time>2012-09-30T09:05:45Z</time>
      </trkpt>
      <trkpt lat="47.7426" lon="6.79097">
        <ele>623.0112</ele>
        <time>2012-09-30T09:05:48Z</time>
      </trkpt>
      <trkpt lat="47.74262" lon="6.79107">
        <ele>622.7064</ele>
        <time>2012-09-30T09:05:49Z</time>
      </trkpt>
      <trkpt lat="47.74263" lon="6.79115">
        <ele>624.2304</ele>
        <time>2012-09-30T09:05:52Z</time>
      </trkpt>
      <trkpt lat="47.74264" lon="6.79122">
        <ele>625.4496</ele>
        <time>2012-09-30T09:05:53Z</time>
      </trkpt>
      <trkpt lat="47.74266" lon="6.79131">
        <ele>627.888</ele>
        <time>2012-09-30T09:05:56Z</time>
      </trkpt>
      <trkpt lat="47.74267" lon="6.7914">
        <ele>628.8024</ele>
        <time>2012-09-30T09:05:57Z</time>
      </trkpt>
      <trkpt lat="47.7427" lon="6.79148">
        <ele>628.8024</ele>
        <time>2012-09-30T09:06:00Z</time>
      </trkpt>
      <trkpt lat="47.74271" lon="6.79155">
        <ele>628.8024</ele>
        <time>2012-09-30T09:06:01Z</time>
      </trkpt>
      <trkpt lat="47.74273" lon="6.79163">
        <ele>629.7168</ele>
        <time>2012-09-30T09:06:04Z</time>
      </trkpt>
      <trkpt lat="47.74274" lon="6.79171">
        <ele>629.7168</ele>
        <time>2012-09-30T09:06:05Z</time>
      </trkpt>
      <trkpt lat="47.74276" lon="6.79179">
        <ele>629.7168</ele>
        <time>2012-09-30T09:06:08Z</time>
      </trkpt>
      <trkpt lat="47.74277" lon="6.79187">
        <ele>628.4976</ele>
        <time>2012-09-30T09:06:09Z</time>
      </trkpt>
      <trkpt lat="47.74278" lon="6.79195">
        <ele>627.888</ele>
        <time>2012-09-30T09:06:12Z</time>
      </trkpt>
      <trkpt lat="47.74279" lon="6.79205">
        <ele>627.2784</ele>
        <time>2012-09-30T09:06:13Z</time>
      </trkpt>
      <trkpt lat="47.7428" lon="6.79215">
        <ele>626.9736</ele>
        <time>2012-09-30T09:06:16Z</time>
      </trkpt>
      <trkpt lat="47.74281" lon="6.79224">
        <ele>626.364</ele>
        <time>2012-09-30T09:06:17Z</time>
      </trkpt>
      <trkpt lat="47.74284" lon="6.79233">
        <ele>625.7544</ele>
        <time>2012-09-30T09:06:19Z</time>
      </trkpt>
      <trkpt lat="47.74288" lon="6.79242">
        <ele>624.84</ele>
        <time>2012-09-30T09:06:22Z</time>
      </trkpt>
      <trkpt lat="47.74292" lon="6.79251">
        <ele>624.2304</ele>
        <time>2012-09-30T09:06:23Z</time>
      </trkpt>
      <trkpt lat="47.74296" lon="6.79259">
        <ele>623.6208</ele>
        <time>2012-09-30T09:06:26Z</time>
      </trkpt>
      <trkpt lat="47.743" lon="6.79269">
        <ele>623.6208</ele>
        <time>2012-09-30T09:06:27Z</time>
      </trkpt>
      <trkpt lat="47.74304" lon="6.79278">
        <ele>623.9256</ele>
        <time>2012-09-30T09:06:30Z</time>
      </trkpt>
      <trkpt lat="47.74307" lon="6.79288">
        <ele>624.2304</ele>
        <time>2012-09-30T09:06:31Z</time>
      </trkpt>
      <trkpt lat="47.74308" lon="6.79302">
        <ele>624.2304</ele>
        <time>2012-09-30T09:06:34Z</time>
      </trkpt>
      <trkpt lat="47.7431" lon="6.79317">
        <ele>623.0112</ele>
        <time>2012-09-30T09:06:35Z</time>
      </trkpt>
      <trkpt lat="47.74313" lon="6.79336">
        <ele>621.792</ele>
        <time>2012-09-30T09:06:38Z</time>
      </trkpt>
      <trkpt lat="47.74319" lon="6.79354">
        <ele>620.268</ele>
        <time>2012-09-30T09:06:39Z</time>
      </trkpt>
      <trkpt lat="47.74329" lon="6.79371">
        <ele>619.3536</ele>
        <time>2012-09-30T09:06:42Z</time>
      </trkpt>
      <trkpt lat="47.74341" lon="6.79385">
        <ele>618.4392</ele>
        <time>2012-09-30T09:06:43Z</time>
      </trkpt>
      <trkpt lat="47.74355" lon="6.79397">
        <ele>617.22</ele>
        <time>2012-09-30T09:06:46Z</time>
      </trkpt>
      <trkpt lat="47.74367" lon="6.79412">
        <ele>616.9152</ele>
        <time>2012-09-30T09:06:47Z</time>
      </trkpt>
      <trkpt lat="47.74375" lon="6.79428">
        <ele>617.22</ele>
        <time>2012-09-30T09:06:50Z</time>
      </trkpt>
      <trkpt lat="47.74379" lon="6.79442">
        <ele>616.9152</ele>
        <time>2012-09-30T09:06:51Z</time>
      </trkpt>
      <trkpt lat="47.74383" lon="6.79454">
        <ele>617.8296</ele>
        <time>2012-09-30T09:06:54Z</time>
      </trkpt>
      <trkpt lat="47.74387" lon="6.79467">
        <ele>618.1344</ele>
        <time>2012-09-30T09:06:55Z</time>
      </trkpt>
      <trkpt lat="47.7439" lon="6.79479">
        <ele>618.1344</ele>
        <time>2012-09-30T09:06:58Z</time>
      </trkpt>
      <trkpt lat="47.74393" lon="6.79491">
        <ele>618.4392</ele>
        <time>2012-09-30T09:06:59Z</time>
      </trkpt>
      <trkpt lat="47.74398" lon="6.79503">
        <ele>618.1344</ele>
        <time>2012-09-30T09:07:02Z</time>
      </trkpt>
      <trkpt lat="47.74403" lon="6.79515">
        <ele>617.8296</ele>
        <time>2012-09-30T09:07:03Z</time>
      </trkpt>
      <trkpt lat="47.74408" lon="6.79529">
        <ele>617.5248</ele>
        <time>2012-09-30T09:07:06Z</time>
      </trkpt>
      <trkpt lat="47.74413" lon="6.79541">
        <ele>617.22</ele>
        <time>2012-09-30T09:07:07Z</time>
      </trkpt>
      <trkpt lat="47.74417" lon="6.79555">
        <ele>617.22</ele>
        <time>2012-09-30T09:07:10Z</time>
      </trkpt>
      <trkpt lat="47.7442" lon="6.79569">
        <ele>618.1344</ele>
        <time>2012-09-30T09:07:11Z</time>
      </trkpt>
      <trkpt lat="47.74423" lon="6.79583">
        <ele>618.4392</ele>
        <time>2012-09-30T09:07:13Z</time>
      </trkpt>
      <trkpt lat="47.74426" lon="6.79596">
        <ele>618.4392</ele>
        <time>2012-09-30T09:07:16Z</time>
      </trkpt>
      <trkpt lat="47.7443" lon="6.79609">
        <ele>618.4392</ele>
        <time>2012-09-30T09:07:17Z</time>
      </trkpt>
      <trkpt lat="47.74434" lon="6.79622">
        <ele>619.0488</ele>
        <time>2012-09-30T09:07:20Z</time>
      </trkpt>
      <trkpt lat="47.74437" lon="6.79634">
        <ele>619.6584</ele>
        <time>2012-09-30T09:07:21Z</time>
      </trkpt>
      <trkpt lat="47.74441" lon="6.79644">
        <ele>619.9632</ele>
        <time>2012-09-30T09:07:24Z</time>
      </trkpt>
      <trkpt lat="47.74444" lon="6.79654">
        <ele>620.5728</ele>
        <time>2012-09-30T09:07:25Z</time>
      </trkpt>
      <trkpt lat="47.74448" lon="6.79664">
        <ele>621.1824</ele>
        <time>2012-09-30T09:07:28Z</time>
      </trkpt>
      <trkpt lat="47.74452" lon="6.79673">
        <ele>621.1824</ele>
        <time>2012-09-30T09:07:29Z</time>
      </trkpt>
      <trkpt lat="47.74456" lon="6.79682">
        <ele>621.4872</ele>
        <time>2012-09-30T09:07:32Z</time>
      </trkpt>
      <trkpt lat="47.74461" lon="6.79691">
        <ele>621.1824</ele>
        <time>2012-09-30T09:07:33Z</time>
      </trkpt>
      <trkpt lat="47.74467" lon="6.79699">
        <ele>621.1824</ele>
        <time>2012-09-30T09:07:36Z</time>
      </trkpt>
      <trkpt lat="47.74473" lon="6.79708">
        <ele>621.1824</ele>
        <time>2012-09-30T09:07:37Z</time>
      </trkpt>
      <trkpt lat="47.74477" lon="6.79717">
        <ele>621.1824</ele>
        <time>2012-09-30T09:07:40Z</time>
      </trkpt>
      <trkpt lat="47.74482" lon="6.79727">
        <ele>621.4872</ele>
        <time>2012-09-30T09:07:41Z</time>
      </trkpt>
      <trkpt lat="47.74486" lon="6.79739">
        <ele>621.4872</ele>
        <time>2012-09-30T09:07:44Z</time>
      </trkpt>
      <trkpt lat="47.7449" lon="6.7975">
        <ele>621.1824</ele>
        <time>2012-09-30T09:07:45Z</time>
      </trkpt>
      <trkpt lat="47.74492" lon="6.79762">
        <ele>620.5728</ele>
        <time>2012-09-30T09:07:48Z</time>
      </trkpt>
      <trkpt lat="47.74496" lon="6.79776">
        <ele>620.268</ele>
        <time>2012-09-30T09:07:49Z</time>
      </trkpt>
      <trkpt lat="47.745" lon="6.79791">
        <ele>619.9632</ele>
        <time>2012-09-30T09:07:52Z</time>
      </trkpt>
      <trkpt lat="47.74503" lon="6.79806">
        <ele>619.3536</ele>
        <time>2012-09-30T09:07:53Z</time>
      </trkpt>
      <trkpt lat="47.74506" lon="6.79825">
        <ele>618.4392</ele>
        <time>2012-09-30T09:07:56Z</time>
      </trkpt>
      <trkpt lat="47.74509" lon="6.79844">
        <ele>617.8296</ele>
        <time>2012-09-30T09:07:57Z</time>
      </trkpt>
      <trkpt lat="47.74517" lon="6.79865">
        <ele>616.3056</ele>
        <time>2012-09-30T09:08:00Z</time>
      </trkpt>
      <trkpt lat="47.74528" lon="6.79886">
        <ele>614.172</ele>
        <time>2012-09-30T09:08:01Z</time>
      </trkpt>
      <trkpt lat="47.7454" lon="6.79907">
        <ele>612.0384</ele>
        <time>2012-09-30T09:08:04Z</time>
      </trkpt>
      <trkpt lat="47.74551" lon="6.7993">
        <ele>611.124</ele>
        <time>2012-09-30T09:08:05Z</time>
      </trkpt>
      <trkpt lat="47.74557" lon="6.79953">
        <ele>610.8192</ele>
        <time>2012-09-30T09:08:07Z</time>
      </trkpt>
      <trkpt lat="47.7456" lon="6.79976">
        <ele>610.5144</ele>
        <time>2012-09-30T09:08:10Z</time>
      </trkpt>
      <trkpt lat="47.7456" lon="6.79999">
        <ele>611.4288</ele>
        <time>2012-09-30T09:08:11Z</time>
      </trkpt>
      <trkpt lat="47.7456" lon="6.80019">
        <ele>612.0384</ele>
        <time>2012-09-30T09:08:14Z</time>
      </trkpt>
      <trkpt lat="47.7456" lon="6.80038">
        <ele>612.3432</ele>
        <time>2012-09-30T09:08:15Z</time>
      </trkpt>
      <trkpt lat="47.74561" lon="6.80057">
        <ele>612.9528</ele>
        <time>2012-09-30T09:08:18Z</time>
      </trkpt>
      <trkpt lat="47.74561" lon="6.80074">
        <ele>614.172</ele>
        <time>2012-09-30T09:08:19Z</time>
      </trkpt>
      <trkpt lat="47.74562" lon="6.8009">
        <ele>614.4768</ele>
        <time>2012-09-30T09:08:22Z</time>
      </trkpt>
      <trkpt lat="47.74561" lon="6.80105">
        <ele>615.3912</ele>
        <time>2012-09-30T09:08:23Z</time>
      </trkpt>
      <trkpt lat="47.74556" lon="6.80119">
        <ele>616.3056</ele>
        <time>2012-09-30T09:08:26Z</time>
      </trkpt>
      <trkpt lat="47.74549" lon="6.80129">
        <ele>616.9152</ele>
        <time>2012-09-30T09:08:27Z</time>
      </trkpt>
      <trkpt lat="47.7454" lon="6.80135">
        <ele>619.3536</ele>
        <time>2012-09-30T09:08:30Z</time>
      </trkpt>
      <trkpt lat="47.7453" lon="6.80141">
        <ele>621.4872</ele>
        <time>2012-09-30T09:08:31Z</time>
      </trkpt>
      <trkpt lat="47.74521" lon="6.80149">
        <ele>621.792</ele>
        <time>2012-09-30T09:08:34Z</time>
      </trkpt>
      <trkpt lat="47.7451" lon="6.80159">
        <ele>621.4872</ele>
        <time>2012-09-30T09:08:35Z</time>
      </trkpt>
      <trkpt lat="47.74498" lon="6.80164">
        <ele>621.792</ele>
        <time>2012-09-30T09:08:38Z</time>
      </trkpt>
      <trkpt lat="47.74486" lon="6.80166">
        <ele>620.5728</ele>
        <time>2012-09-30T09:08:39Z</time>
      </trkpt>
      <trkpt lat="47.74473" lon="6.8017">
        <ele>619.0488</ele>
        <time>2012-09-30T09:08:42Z</time>
      </trkpt>
      <trkpt lat="47.7446" lon="6.80174">
        <ele>619.0488</ele>
        <time>2012-09-30T09:08:43Z</time>
      </trkpt>
      <trkpt lat="47.74444" lon="6.80188">
        <ele>617.22</ele>
        <time>2012-09-30T09:08:46Z</time>
      </trkpt>
      <trkpt lat="47.74427" lon="6.80198">
        <ele>615.3912</ele>
        <time>2012-09-30T09:08:47Z</time>
      </trkpt>
      <trkpt lat="47.74411" lon="6.80206">
        <ele>614.172</ele>
        <time>2012-09-30T09:08:50Z</time>
      </trkpt>
      <trkpt lat="47.74396" lon="6.8022">
        <ele>611.7336</ele>
        <time>2012-09-30T09:08:51Z</time>
      </trkpt>
      <trkpt lat="47.74386" lon="6.80239">
        <ele>609.6</ele>
        <time>2012-09-30T09:08:54Z</time>
      </trkpt>
      <trkpt lat="47.74379" lon="6.80261">
        <ele>607.7712</ele>
        <time>2012-09-30T09:08:55Z</time>
      </trkpt>
      <trkpt lat="47.74375" lon="6.80286">
        <ele>605.6376</ele>
        <time>2012-09-30T09:08:58Z</time>
      </trkpt>
      <trkpt lat="47.74375" lon="6.80312">
        <ele>604.1136</ele>
        <time>2012-09-30T09:08:59Z</time>
      </trkpt>
      <trkpt lat="47.74378" lon="6.80338">
        <ele>601.98</ele>
        <time>2012-09-30T09:09:01Z</time>
      </trkpt>
      <trkpt lat="47.74386" lon="6.80358">
        <ele>601.3704</ele>
        <time>2012-09-30T09:09:04Z</time>
      </trkpt>
      <trkpt lat="47.74398" lon="6.80369">
        <ele>600.7608</ele>
        <time>2012-09-30T09:09:05Z</time>
      </trkpt>
      <trkpt lat="47.7441" lon="6.8038">
        <ele>600.1512</ele>
        <time>2012-09-30T09:09:08Z</time>
      </trkpt>
      <trkpt lat="47.74421" lon="6.80391">
        <ele>599.5416</ele>
        <time>2012-09-30T09:09:09Z</time>
      </trkpt>
      <trkpt lat="47.74434" lon="6.80402">
        <ele>598.932</ele>
        <time>2012-09-30T09:09:12Z</time>
      </trkpt>
      <trkpt lat="47.74448" lon="6.80416">
        <ele>597.7128</ele>
        <time>2012-09-30T09:09:13Z</time>
      </trkpt>
      <trkpt lat="47.74461" lon="6.80434">
        <ele>596.1888</ele>
        <time>2012-09-30T09:09:16Z</time>
      </trkpt>
      <trkpt lat="47.74474" lon="6.80448">
        <ele>595.2744</ele>
        <time>2012-09-30T09:09:17Z</time>
      </trkpt>
      <trkpt lat="47.74484" lon="6.80461">
        <ele>594.0552</ele>
        <time>2012-09-30T09:09:20Z</time>
      </trkpt>
      <trkpt lat="47.74486" lon="6.80477">
        <ele>592.2264</ele>
        <time>2012-09-30T09:09:21Z</time>
      </trkpt>
      <trkpt lat="47.7448" lon="6.80492">
        <ele>592.836</ele>
        <time>2012-09-30T09:09:24Z</time>
      </trkpt>
      <trkpt lat="47.74466" lon="6.80506">
        <ele>592.5312</ele>
        <time>2012-09-30T09:09:25Z</time>
      </trkpt>
      <trkpt lat="47.74449" lon="6.80517">
        <ele>589.788</ele>
        <time>2012-09-30T09:09:28Z</time>
      </trkpt>
      <trkpt lat="47.74432" lon="6.80527">
        <ele>587.6544</ele>
        <time>2012-09-30T09:09:29Z</time>
      </trkpt>
      <trkpt lat="47.74421" lon="6.80542">
        <ele>586.1304</ele>
        <time>2012-09-30T09:09:32Z</time>
      </trkpt>
      <trkpt lat="47.74416" lon="6.80564">
        <ele>583.9968</ele>
        <time>2012-09-30T09:09:33Z</time>
      </trkpt>
      <trkpt lat="47.74415" lon="6.80588">
        <ele>582.168</ele>
        <time>2012-09-30T09:09:36Z</time>
      </trkpt>
      <trkpt lat="47.74413" lon="6.80613">
        <ele>579.7296</ele>
        <time>2012-09-30T09:09:37Z</time>
      </trkpt>
      <trkpt lat="47.74409" lon="6.80639">
        <ele>577.596</ele>
        <time>2012-09-30T09:09:40Z</time>
      </trkpt>
      <trkpt lat="47.74401" lon="6.80663">
        <ele>575.7672</ele>
        <time>2012-09-30T09:09:41Z</time>
      </trkpt>
      <trkpt lat="47.74395" lon="6.80687">
        <ele>573.9384</ele>
        <time>2012-09-30T09:09:44Z</time>
      </trkpt>
      <trkpt lat="47.74396" lon="6.80709">
        <ele>573.024</ele>
        <time>2012-09-30T09:09:45Z</time>
      </trkpt>
      <trkpt lat="47.74397" lon="6.80726">
        <ele>572.4144</ele>
        <time>2012-09-30T09:09:48Z</time>
      </trkpt>
      <trkpt lat="47.74394" lon="6.80735">
        <ele>571.8048</ele>
        <time>2012-09-30T09:09:49Z</time>
      </trkpt>
      <trkpt lat="47.74387" lon="6.80735">
        <ele>570.5856</ele>
        <time>2012-09-30T09:09:52Z</time>
      </trkpt>
      <trkpt lat="47.74381" lon="6.80725">
        <ele>569.6712</ele>
        <time>2012-09-30T09:09:54Z</time>
      </trkpt>
      <trkpt lat="47.74379" lon="6.8071">
        <ele>569.6712</ele>
        <time>2012-09-30T09:09:55Z</time>
      </trkpt>
      <trkpt lat="47.74377" lon="6.80694">
        <ele>569.0616</ele>
        <time>2012-09-30T09:09:58Z</time>
      </trkpt>
      <trkpt lat="47.74373" lon="6.80678">
        <ele>567.8424</ele>
        <time>2012-09-30T09:09:59Z</time>
      </trkpt>
      <trkpt lat="47.74367" lon="6.80661">
        <ele>566.928</ele>
        <time>2012-09-30T09:10:02Z</time>
      </trkpt>
      <trkpt lat="47.7436" lon="6.80644">
        <ele>566.0136</ele>
        <time>2012-09-30T09:10:03Z</time>
      </trkpt>
      <trkpt lat="47.74352" lon="6.80626">
        <ele>564.7944</ele>
        <time>2012-09-30T09:10:06Z</time>
      </trkpt>
      <trkpt lat="47.74342" lon="6.80611">
        <ele>563.5752</ele>
        <time>2012-09-30T09:10:07Z</time>
      </trkpt>
      <trkpt lat="47.74331" lon="6.80596">
        <ele>562.356</ele>
        <time>2012-09-30T09:10:10Z</time>
      </trkpt>
      <trkpt lat="47.74318" lon="6.80583">
        <ele>560.832</ele>
        <time>2012-09-30T09:10:11Z</time>
      </trkpt>
      <trkpt lat="47.74307" lon="6.8057">
        <ele>559.0032</ele>
        <time>2012-09-30T09:10:14Z</time>
      </trkpt>
      <trkpt lat="47.74296" lon="6.80567">
        <ele>557.1744</ele>
        <time>2012-09-30T09:10:15Z</time>
      </trkpt>
      <trkpt lat="47.74282" lon="6.8058">
        <ele>555.6504</ele>
        <time>2012-09-30T09:10:18Z</time>
      </trkpt>
      <trkpt lat="47.74271" lon="6.80595">
        <ele>553.8216</ele>
        <time>2012-09-30T09:10:19Z</time>
      </trkpt>
      <trkpt lat="47.74262" lon="6.80607">
        <ele>552.6024</ele>
        <time>2012-09-30T09:10:22Z</time>
      </trkpt>
      <trkpt lat="47.74246" lon="6.80621">
        <ele>551.0784</ele>
        <time>2012-09-30T09:10:23Z</time>
      </trkpt>
      <trkpt lat="47.74232" lon="6.80636">
        <ele>549.2496</ele>
        <time>2012-09-30T09:10:26Z</time>
      </trkpt>
      <trkpt lat="47.74218" lon="6.80654">
        <ele>546.8112</ele>
        <time>2012-09-30T09:10:27Z</time>
      </trkpt>
      <trkpt lat="47.7421" lon="6.80676">
        <ele>545.2872</ele>
        <time>2012-09-30T09:10:30Z</time>
      </trkpt>
      <trkpt lat="47.74207" lon="6.80699">
        <ele>544.6776</ele>
        <time>2012-09-30T09:10:31Z</time>
      </trkpt>
      <trkpt lat="47.74207" lon="6.80715">
        <ele>544.068</ele>
        <time>2012-09-30T09:10:34Z</time>
      </trkpt>
      <trkpt lat="47.74201" lon="6.80723">
        <ele>543.7632</ele>
        <time>2012-09-30T09:10:35Z</time>
      </trkpt>
      <trkpt lat="47.74193" lon="6.80722">
        <ele>543.1536</ele>
        <time>2012-09-30T09:10:38Z</time>
      </trkpt>
      <trkpt lat="47.74187" lon="6.80714">
        <ele>542.2392</ele>
        <time>2012-09-30T09:10:39Z</time>
      </trkpt>
      <trkpt lat="47.74186" lon="6.80702">
        <ele>540.7152</ele>
        <time>2012-09-30T09:10:42Z</time>
      </trkpt>
      <trkpt lat="47.74185" lon="6.80687">
        <ele>539.8008</ele>
        <time>2012-09-30T09:10:43Z</time>
      </trkpt>
      <trkpt lat="47.74182" lon="6.8067">
        <ele>538.2768</ele>
        <time>2012-09-30T09:10:46Z</time>
      </trkpt>
      <trkpt lat="47.74179" lon="6.80651">
        <ele>536.7528</ele>
        <time>2012-09-30T09:10:48Z</time>
      </trkpt>
      <trkpt lat="47.74175" lon="6.8063">
        <ele>536.1432</ele>
        <time>2012-09-30T09:10:49Z</time>
      </trkpt>
      <trkpt lat="47.74173" lon="6.80607">
        <ele>534.6192</ele>
        <time>2012-09-30T09:10:52Z</time>
      </trkpt>
      <trkpt lat="47.74171" lon="6.80584">
        <ele>533.7048</ele>
        <time>2012-09-30T09:10:53Z</time>
      </trkpt>
      <trkpt lat="47.74171" lon="6.80562">
        <ele>532.4856</ele>
        <time>2012-09-30T09:10:56Z</time>
      </trkpt>
      <trkpt lat="47.7417" lon="6.80546">
        <ele>530.9616</ele>
        <time>2012-09-30T09:10:57Z</time>
      </trkpt>
      <trkpt lat="47.74166" lon="6.80538">
        <ele>529.7424</ele>
        <time>2012-09-30T09:11:00Z</time>
      </trkpt>
      <trkpt lat="47.74159" lon="6.80538">
        <ele>529.1328</ele>
        <time>2012-09-30T09:11:01Z</time>
      </trkpt>
      <trkpt lat="47.74154" lon="6.80546">
        <ele>528.828</ele>
        <time>2012-09-30T09:11:04Z</time>
      </trkpt>
      <trkpt lat="47.74152" lon="6.80558">
        <ele>528.5232</ele>
        <time>2012-09-30T09:11:05Z</time>
      </trkpt>
      <trkpt lat="47.74152" lon="6.80573">
        <ele>528.5232</ele>
        <time>2012-09-30T09:11:08Z</time>
      </trkpt>
      <trkpt lat="47.74152" lon="6.80588">
        <ele>528.5232</ele>
        <time>2012-09-30T09:11:09Z</time>
      </trkpt>
      <trkpt lat="47.74152" lon="6.80603">
        <ele>528.5232</ele>
        <time>2012-09-30T09:11:12Z</time>
      </trkpt>
      <trkpt lat="47.74152" lon="6.80618">
        <ele>528.828</ele>
        <time>2012-09-30T09:11:13Z</time>
      </trkpt>
      <trkpt lat="47.74153" lon="6.80634">
        <ele>529.4376</ele>
        <time>2012-09-30T09:11:16Z</time>
      </trkpt>
      <trkpt lat="47.74153" lon="6.80648">
        <ele>529.4376</ele>
        <time>2012-09-30T09:11:17Z</time>
      </trkpt>
      <trkpt lat="47.74153" lon="6.80663">
        <ele>530.0472</ele>
        <time>2012-09-30T09:11:20Z</time>
      </trkpt>
      <trkpt lat="47.74154" lon="6.80678">
        <ele>530.352</ele>
        <time>2012-09-30T09:11:21Z</time>
      </trkpt>
      <trkpt lat="47.74154" lon="6.80693">
        <ele>530.9616</ele>
        <time>2012-09-30T09:11:24Z</time>
      </trkpt>
      <trkpt lat="47.74154" lon="6.80708">
        <ele>530.9616</ele>
        <time>2012-09-30T09:11:25Z</time>
      </trkpt>
      <trkpt lat="47.74155" lon="6.80723">
        <ele>531.2664</ele>
        <time>2012-09-30T09:11:28Z</time>
      </trkpt>
      <trkpt lat="47.74156" lon="6.80738">
        <ele>531.2664</ele>
        <time>2012-09-30T09:11:29Z</time>
      </trkpt>
      <trkpt lat="47.74157" lon="6.80753">
        <ele>531.2664</ele>
        <time>2012-09-30T09:11:32Z</time>
      </trkpt>
      <trkpt lat="47.74159" lon="6.80768">
        <ele>531.2664</ele>
        <time>2012-09-30T09:11:33Z</time>
      </trkpt>
      <trkpt lat="47.74161" lon="6.80784">
        <ele>530.6568</ele>
        <time>2012-09-30T09:11:36Z</time>
      </trkpt>
      <trkpt lat="47.74164" lon="6.80801">
        <ele>530.0472</ele>
        <time>2012-09-30T09:11:37Z</time>
      </trkpt>
      <trkpt lat="47.74168" lon="6.80819">
        <ele>529.4376</ele>
        <time>2012-09-30T09:11:40Z</time>
      </trkpt>
      <trkpt lat="47.7417" lon="6.80837">
        <ele>528.828</ele>
        <time>2012-09-30T09:11:42Z</time>
      </trkpt>
      <trkpt lat="47.74169" lon="6.80856">
        <ele>528.828</ele>
        <time>2012-09-30T09:11:43Z</time>
      </trkpt>
      <trkpt lat="47.74168" lon="6.80873">
        <ele>528.828</ele>
        <time>2012-09-30T09:11:46Z</time>
      </trkpt>
      <trkpt lat="47.74166" lon="6.80889">
        <ele>529.1328</ele>
        <time>2012-09-30T09:11:47Z</time>
      </trkpt>
      <trkpt lat="47.74163" lon="6.80904">
        <ele>529.1328</ele>
        <time>2012-09-30T09:11:50Z</time>
      </trkpt>
      <trkpt lat="47.74161" lon="6.80918">
        <ele>529.4376</ele>
        <time>2012-09-30T09:11:51Z</time>
      </trkpt>
      <trkpt lat="47.74158" lon="6.80929">
        <ele>529.4376</ele>
        <time>2012-09-30T09:11:54Z</time>
      </trkpt>
      <trkpt lat="47.74152" lon="6.80935">
        <ele>529.1328</ele>
        <time>2012-09-30T09:11:55Z</time>
      </trkpt>
      <trkpt lat="47.74145" lon="6.80933">
        <ele>528.5232</ele>
        <time>2012-09-30T09:11:58Z</time>
      </trkpt>
      <trkpt lat="47.74138" lon="6.80932">
        <ele>527.304</ele>
        <time>2012-09-30T09:11:59Z</time>
      </trkpt>
      <trkpt lat="47.74132" lon="6.80934">
        <ele>526.3896</ele>
        <time>2012-09-30T09:12:02Z</time>
      </trkpt>
      <trkpt lat="47.74127" lon="6.8094">
        <ele>525.4752</ele>
        <time>2012-09-30T09:12:03Z</time>
      </trkpt>
      <trkpt lat="47.74122" lon="6.80949">
        <ele>524.8656</ele>
        <time>2012-09-30T09:12:06Z</time>
      </trkpt>
      <trkpt lat="47.74118" lon="6.80959">
        <ele>524.8656</ele>
        <time>2012-09-30T09:12:07Z</time>
      </trkpt>
      <trkpt lat="47.74114" lon="6.80969">
        <ele>524.256</ele>
        <time>2012-09-30T09:12:10Z</time>
      </trkpt>
      <trkpt lat="47.7411" lon="6.80979">
        <ele>523.9512</ele>
        <time>2012-09-30T09:12:11Z</time>
      </trkpt>
      <trkpt lat="47.74105" lon="6.80988">
        <ele>524.256</ele>
        <time>2012-09-30T09:12:14Z</time>
      </trkpt>
      <trkpt lat="47.74099" lon="6.80996">
        <ele>524.256</ele>
        <time>2012-09-30T09:12:15Z</time>
      </trkpt>
      <trkpt lat="47.74092" lon="6.81003">
        <ele>524.256</ele>
        <time>2012-09-30T09:12:18Z</time>
      </trkpt>
      <trkpt lat="47.74085" lon="6.81011">
        <ele>524.256</ele>
        <time>2012-09-30T09:12:19Z</time>
      </trkpt>
      <trkpt lat="47.74077" lon="6.81019">
        <ele>524.256</ele>
        <time>2012-09-30T09:12:22Z</time>
      </trkpt>
      <trkpt lat="47.74069" lon="6.81028">
        <ele>523.9512</ele>
        <time>2012-09-30T09:12:23Z</time>
      </trkpt>
      <trkpt lat="47.74061" lon="6.81036">
        <ele>523.6464</ele>
        <time>2012-09-30T09:12:26Z</time>
      </trkpt>
      <trkpt lat="47.74052" lon="6.81042">
        <ele>523.0368</ele>
        <time>2012-09-30T09:12:27Z</time>
      </trkpt>
      <trkpt lat="47.74041" lon="6.81047">
        <ele>522.4272</ele>
        <time>2012-09-30T09:12:30Z</time>
      </trkpt>
      <trkpt lat="47.7403" lon="6.8105">
        <ele>521.5128</ele>
        <time>2012-09-30T09:12:31Z</time>
      </trkpt>
      <trkpt lat="47.74018" lon="6.81053">
        <ele>520.5984</ele>
        <time>2012-09-30T09:12:34Z</time>
      </trkpt>
      <trkpt lat="47.74005" lon="6.81055">
        <ele>519.684</ele>
        <time>2012-09-30T09:12:36Z</time>
      </trkpt>
      <trkpt lat="47.73992" lon="6.81055">
        <ele>518.7696</ele>
        <time>2012-09-30T09:12:37Z</time>
      </trkpt>
      <trkpt lat="47.73978" lon="6.81057">
        <ele>517.8552</ele>
        <time>2012-09-30T09:12:40Z</time>
      </trkpt>
      <trkpt lat="47.73966" lon="6.81063">
        <ele>516.9408</ele>
        <time>2012-09-30T09:12:41Z</time>
      </trkpt>
      <trkpt lat="47.73953" lon="6.81069">
        <ele>515.4168</ele>
        <time>2012-09-30T09:12:44Z</time>
      </trkpt>
      <trkpt lat="47.73939" lon="6.81073">
        <ele>514.1976</ele>
        <time>2012-09-30T09:12:45Z</time>
      </trkpt>
      <trkpt lat="47.73927" lon="6.81079">
        <ele>512.9784</ele>
        <time>2012-09-30T09:12:48Z</time>
      </trkpt>
      <trkpt lat="47.73918" lon="6.81091">
        <ele>511.1496</ele>
        <time>2012-09-30T09:12:49Z</time>
      </trkpt>
      <trkpt lat="47.73911" lon="6.81108">
        <ele>509.6256</ele>
        <time>2012-09-30T09:12:52Z</time>
      </trkpt>
      <trkpt lat="47.73909" lon="6.8113">
        <ele>508.4064</ele>
        <time>2012-09-30T09:12:53Z</time>
      </trkpt>
      <trkpt lat="47.73907" lon="6.81151">
        <ele>507.7968</ele>
        <time>2012-09-30T09:12:56Z</time>
      </trkpt>
      <trkpt lat="47.73904" lon="6.81171">
        <ele>507.7968</ele>
        <time>2012-09-30T09:12:57Z</time>
      </trkpt>
      <trkpt lat="47.73903" lon="6.81187">
        <ele>508.1016</ele>
        <time>2012-09-30T09:13:00Z</time>
      </trkpt>
      <trkpt lat="47.73905" lon="6.81201">
        <ele>508.4064</ele>
        <time>2012-09-30T09:13:01Z</time>
      </trkpt>
      <trkpt lat="47.73908" lon="6.81213">
        <ele>508.7112</ele>
        <time>2012-09-30T09:13:04Z</time>
      </trkpt>
      <trkpt lat="47.73913" lon="6.81225">
        <ele>509.016</ele>
        <time>2012-09-30T09:13:05Z</time>
      </trkpt>
      <trkpt lat="47.73917" lon="6.81237">
        <ele>509.3208</ele>
        <time>2012-09-30T09:13:08Z</time>
      </trkpt>
      <trkpt lat="47.73921" lon="6.81247">
        <ele>509.6256</ele>
        <time>2012-09-30T09:13:09Z</time>
      </trkpt>
      <trkpt lat="47.73925" lon="6.81258">
        <ele>509.9304</ele>
        <time>2012-09-30T09:13:12Z</time>
      </trkpt>
      <trkpt lat="47.73929" lon="6.81268">
        <ele>510.2352</ele>
        <time>2012-09-30T09:13:13Z</time>
      </trkpt>
      <trkpt lat="47.73934" lon="6.81277">
        <ele>510.54</ele>
        <time>2012-09-30T09:13:16Z</time>
      </trkpt>
      <trkpt lat="47.73938" lon="6.81286">
        <ele>510.8448</ele>
        <time>2012-09-30T09:13:17Z</time>
      </trkpt>
      <trkpt lat="47.73942" lon="6.81295">
        <ele>511.1496</ele>
        <time>2012-09-30T09:13:20Z</time>
      </trkpt>
      <trkpt lat="47.73946" lon="6.81304">
        <ele>511.4544</ele>
        <time>2012-09-30T09:13:21Z</time>
      </trkpt>
      <trkpt lat="47.7395" lon="6.81313">
        <ele>511.7592</ele>
        <time>2012-09-30T09:13:24Z</time>
      </trkpt>
      <trkpt lat="47.73954" lon="6.81321">
        <ele>512.064</ele>
        <time>2012-09-30T09:13:25Z</time>
      </trkpt>
      <trkpt lat="47.73956" lon="6.81328">
        <ele>512.3688</ele>
        <time>2012-09-30T09:13:28Z</time>
      </trkpt>
      <trkpt lat="47.73954" lon="6.81332">
        <ele>512.3688</ele>
        <time>2012-09-30T09:13:30Z</time>
      </trkpt>
      <trkpt lat="47.7395" lon="6.8133">
        <ele>512.3688</ele>
        <time>2012-09-30T09:13:31Z</time>
      </trkpt>
      <trkpt lat="47.73943" lon="6.81326">
        <ele>512.3688</ele>
        <time>2012-09-30T09:13:34Z</time>
      </trkpt>
      <trkpt lat="47.73935" lon="6.81323">
        <ele>512.064</ele>
        <time>2012-09-30T09:13:35Z</time>
      </trkpt>
      <trkpt lat="47.73925" lon="6.81319">
        <ele>511.7592</ele>
        <time>2012-09-30T09:13:38Z</time>
      </trkpt>
      <trkpt lat="47.73914" lon="6.81316">
        <ele>511.1496</ele>
        <time>2012-09-30T09:13:39Z</time>
      </trkpt>
      <trkpt lat="47.73903" lon="6.81311">
        <ele>510.8448</ele>
        <time>2012-09-30T09:13:42Z</time>
      </trkpt>
      <trkpt lat="47.73892" lon="6.81305">
        <ele>510.2352</ele>
        <time>2012-09-30T09:13:43Z</time>
      </trkpt>
      <trkpt lat="47.73881" lon="6.81296">
        <ele>509.6256</ele>
        <time>2012-09-30T09:13:46Z</time>
      </trkpt>
      <trkpt lat="47.73869" lon="6.81287">
        <ele>509.3208</ele>
        <time>2012-09-30T09:13:47Z</time>
      </trkpt>
      <trkpt lat="47.73858" lon="6.81278">
        <ele>509.016</ele>
        <time>2012-09-30T09:13:50Z</time>
      </trkpt>
      <trkpt lat="47.73847" lon="6.81269">
        <ele>509.016</ele>
        <time>2012-09-30T09:13:51Z</time>
      </trkpt>
      <trkpt lat="47.73836" lon="6.81261">
        <ele>508.7112</ele>
        <time>2012-09-30T09:13:54Z</time>
      </trkpt>
      <trkpt lat="47.73824" lon="6.81256">
        <ele>508.7112</ele>
        <time>2012-09-30T09:13:55Z</time>
      </trkpt>
      <trkpt lat="47.73812" lon="6.81252">
        <ele>508.7112</ele>
        <time>2012-09-30T09:13:58Z</time>
      </trkpt>
      <trkpt lat="47.738" lon="6.81252">
        <ele>508.7112</ele>
        <time>2012-09-30T09:13:59Z</time>
      </trkpt>
      <trkpt lat="47.73788" lon="6.81254">
        <ele>508.7112</ele>
        <time>2012-09-30T09:14:02Z</time>
      </trkpt>
      <trkpt lat="47.73777" lon="6.81256">
        <ele>509.016</ele>
        <time>2012-09-30T09:14:03Z</time>
      </trkpt>
      <trkpt lat="47.73766" lon="6.81259">
        <ele>509.3208</ele>
        <time>2012-09-30T09:14:06Z</time>
      </trkpt>
      <trkpt lat="47.73756" lon="6.81261">
        <ele>509.9304</ele>
        <time>2012-09-30T09:14:07Z</time>
      </trkpt>
      <trkpt lat="47.73746" lon="6.81264">
        <ele>510.2352</ele>
        <time>2012-09-30T09:14:10Z</time>
      </trkpt>
      <trkpt lat="47.73736" lon="6.81267">
        <ele>510.8448</ele>
        <time>2012-09-30T09:14:11Z</time>
      </trkpt>
      <trkpt lat="47.73727" lon="6.81269">
        <ele>511.7592</ele>
        <time>2012-09-30T09:14:14Z</time>
      </trkpt>
      <trkpt lat="47.73718" lon="6.81272">
        <ele>512.3688</ele>
        <time>2012-09-30T09:14:15Z</time>
      </trkpt>
      <trkpt lat="47.73709" lon="6.81275">
        <ele>512.9784</ele>
        <time>2012-09-30T09:14:18Z</time>
      </trkpt>
      <trkpt lat="47.737" lon="6.81277">
        <ele>513.588</ele>
        <time>2012-09-30T09:14:19Z</time>
      </trkpt>
      <trkpt lat="47.73692" lon="6.8128">
        <ele>514.1976</ele>
        <time>2012-09-30T09:14:22Z</time>
      </trkpt>
      <trkpt lat="47.73684" lon="6.81283">
        <ele>515.112</ele>
        <time>2012-09-30T09:14:24Z</time>
      </trkpt>
      <trkpt lat="47.73673" lon="6.81286">
        <ele>516.3312</ele>
        <time>2012-09-30T09:14:26Z</time>
      </trkpt>
      <trkpt lat="47.7367" lon="6.81287">
        <ele>516.636</ele>
        <time>2012-09-30T09:14:28Z</time>
      </trkpt>
      <trkpt lat="47.73663" lon="6.8129">
        <ele>517.2456</ele>
        <time>2012-09-30T09:14:29Z</time>
      </trkpt>
      <trkpt lat="47.73656" lon="6.81292">
        <ele>517.8552</ele>
        <time>2012-09-30T09:14:32Z</time>
      </trkpt>
      <trkpt lat="47.7365" lon="6.81294">
        <ele>518.7696</ele>
        <time>2012-09-30T09:14:33Z</time>
      </trkpt>
      <trkpt lat="47.73643" lon="6.81296">
        <ele>519.3792</ele>
        <time>2012-09-30T09:14:36Z</time>
      </trkpt>
      <trkpt lat="47.73637" lon="6.81298">
        <ele>519.9888</ele>
        <time>2012-09-30T09:14:37Z</time>
      </trkpt>
      <trkpt lat="47.73631" lon="6.813">
        <ele>519.9888</ele>
        <time>2012-09-30T09:14:40Z</time>
      </trkpt>
      <trkpt lat="47.73625" lon="6.81302">
        <ele>520.5984</ele>
        <time>2012-09-30T09:14:41Z</time>
      </trkpt>
      <trkpt lat="47.73619" lon="6.81304">
        <ele>520.5984</ele>
        <time>2012-09-30T09:14:44Z</time>
      </trkpt>
      <trkpt lat="47.73613" lon="6.81305">
        <ele>520.9032</ele>
        <time>2012-09-30T09:14:45Z</time>
      </trkpt>
      <trkpt lat="47.73607" lon="6.81306">
        <ele>521.208</ele>
        <time>2012-09-30T09:14:48Z</time>
      </trkpt>
      <trkpt lat="47.73602" lon="6.81305">
        <ele>521.5128</ele>
        <time>2012-09-30T09:14:49Z</time>
      </trkpt>
      <trkpt lat="47.73596" lon="6.81304">
        <ele>521.8176</ele>
        <time>2012-09-30T09:14:52Z</time>
      </trkpt>
      <trkpt lat="47.73591" lon="6.81302">
        <ele>522.1224</ele>
        <time>2012-09-30T09:14:53Z</time>
      </trkpt>
      <trkpt lat="47.73586" lon="6.81299">
        <ele>522.732</ele>
        <time>2012-09-30T09:14:56Z</time>
      </trkpt>
      <trkpt lat="47.73581" lon="6.81295">
        <ele>523.0368</ele>
        <time>2012-09-30T09:14:57Z</time>
      </trkpt>
      <trkpt lat="47.73577" lon="6.81289">
        <ele>523.3416</ele>
        <time>2012-09-30T09:15:00Z</time>
      </trkpt>
      <trkpt lat="47.73573" lon="6.81283">
        <ele>523.9512</ele>
        <time>2012-09-30T09:15:01Z</time>
      </trkpt>
      <trkpt lat="47.73569" lon="6.81277">
        <ele>523.9512</ele>
        <time>2012-09-30T09:15:04Z</time>
      </trkpt>
      <trkpt lat="47.73565" lon="6.81271">
        <ele>524.256</ele>
        <time>2012-09-30T09:15:05Z</time>
      </trkpt>
      <trkpt lat="47.73561" lon="6.81265">
        <ele>524.5608</ele>
        <time>2012-09-30T09:15:08Z</time>
      </trkpt>
      <trkpt lat="47.73557" lon="6.81259">
        <ele>524.8656</ele>
        <time>2012-09-30T09:15:09Z</time>
      </trkpt>
      <trkpt lat="47.73553" lon="6.81253">
        <ele>525.4752</ele>
        <time>2012-09-30T09:15:12Z</time>
      </trkpt>
      <trkpt lat="47.73549" lon="6.81247">
        <ele>525.78</ele>
        <time>2012-09-30T09:15:13Z</time>
      </trkpt>
      <trkpt lat="47.73545" lon="6.8124">
        <ele>526.6944</ele>
        <time>2012-09-30T09:15:16Z</time>
      </trkpt>
      <trkpt lat="47.73542" lon="6.81234">
        <ele>527.6088</ele>
        <time>2012-09-30T09:15:18Z</time>
      </trkpt>
      <trkpt lat="47.73539" lon="6.81228">
        <ele>528.828</ele>
        <time>2012-09-30T09:15:19Z</time>
      </trkpt>
      <trkpt lat="47.73536" lon="6.81222">
        <ele>530.352</ele>
        <time>2012-09-30T09:15:22Z</time>
      </trkpt>
      <trkpt lat="47.73534" lon="6.81216">
        <ele>532.1808</ele>
        <time>2012-09-30T09:15:23Z</time>
      </trkpt>
      <trkpt lat="47.7353" lon="6.81207">
        <ele>534.924</ele>
        <time>2012-09-30T09:15:27Z</time>
      </trkpt>
      <trkpt lat="47.73528" lon="6.81204">
        <ele>535.2288</ele>
        <time>2012-09-30T09:15:27Z</time>
      </trkpt>
      <trkpt lat="47.73525" lon="6.81197">
        <ele>535.5336</ele>
        <time>2012-09-30T09:15:30Z</time>
      </trkpt>
      <trkpt lat="47.73523" lon="6.81191">
        <ele>536.448</ele>
        <time>2012-09-30T09:15:31Z</time>
      </trkpt>
      <trkpt lat="47.7352" lon="6.81185">
        <ele>537.6672</ele>
        <time>2012-09-30T09:15:34Z</time>
      </trkpt>
      <trkpt lat="47.73519" lon="6.81179">
        <ele>539.8008</ele>
        <time>2012-09-30T09:15:35Z</time>
      </trkpt>
      <trkpt lat="47.73516" lon="6.81174">
        <ele>541.02</ele>
        <time>2012-09-30T09:15:38Z</time>
      </trkpt>
      <trkpt lat="47.73514" lon="6.81168">
        <ele>542.544</ele>
        <time>2012-09-30T09:15:39Z</time>
      </trkpt>
      <trkpt lat="47.73513" lon="6.81163">
        <ele>544.6776</ele>
        <time>2012-09-30T09:15:42Z</time>
      </trkpt>
      <trkpt lat="47.73511" lon="6.81158">
        <ele>547.116</ele>
        <time>2012-09-30T09:15:43Z</time>
      </trkpt>
      <trkpt lat="47.7351" lon="6.81153">
        <ele>548.9448</ele>
        <time>2012-09-30T09:15:46Z</time>
      </trkpt>
      <trkpt lat="47.73507" lon="6.81148">
        <ele>549.8592</ele>
        <time>2012-09-30T09:15:47Z</time>
      </trkpt>
      <trkpt lat="47.73505" lon="6.81143">
        <ele>549.8592</ele>
        <time>2012-09-30T09:15:50Z</time>
      </trkpt>
      <trkpt lat="47.73502" lon="6.81138">
        <ele>549.8592</ele>
        <time>2012-09-30T09:15:51Z</time>
      </trkpt>
      <trkpt lat="47.735" lon="6.81132">
        <ele>550.164</ele>
        <time>2012-09-30T09:15:54Z</time>
      </trkpt>
      <trkpt lat="47.73499" lon="6.81127">
        <ele>551.3832</ele>
        <time>2012-09-30T09:15:55Z</time>
      </trkpt>
      <trkpt lat="47.73496" lon="6.81122">
        <ele>552.9072</ele>
        <time>2012-09-30T09:15:58Z</time>
      </trkpt>
      <trkpt lat="47.73493" lon="6.81118">
        <ele>553.8216</ele>
        <time>2012-09-30T09:15:59Z</time>
      </trkpt>
      <trkpt lat="47.7349" lon="6.81113">
        <ele>554.1264</ele>
        <time>2012-09-30T09:16:02Z</time>
      </trkpt>
      <trkpt lat="47.73487" lon="6.81108">
        <ele>554.4312</ele>
        <time>2012-09-30T09:16:03Z</time>
      </trkpt>
      <trkpt lat="47.73484" lon="6.81103">
        <ele>554.1264</ele>
        <time>2012-09-30T09:16:06Z</time>
      </trkpt>
      <trkpt lat="47.73482" lon="6.81098">
        <ele>554.1264</ele>
        <time>2012-09-30T09:16:07Z</time>
      </trkpt>
      <trkpt lat="47.73478" lon="6.81093">
        <ele>553.8216</ele>
        <time>2012-09-30T09:16:10Z</time>
      </trkpt>
      <trkpt lat="47.73476" lon="6.81087">
        <ele>554.1264</ele>
        <time>2012-09-30T09:16:12Z</time>
      </trkpt>
      <trkpt lat="47.73473" lon="6.81081">
        <ele>553.8216</ele>
        <time>2012-09-30T09:16:13Z</time>
      </trkpt>
      <trkpt lat="47.7347" lon="6.81075">
        <ele>553.212</ele>
        <time>2012-09-30T09:16:16Z</time>
      </trkpt>
      <trkpt lat="47.73468" lon="6.8107">
        <ele>553.212</ele>
        <time>2012-09-30T09:16:17Z</time>
      </trkpt>
      <trkpt lat="47.73465" lon="6.81064">
        <ele>553.8216</ele>
        <time>2012-09-30T09:16:20Z</time>
      </trkpt>
      <trkpt lat="47.73462" lon="6.81058">
        <ele>553.8216</ele>
        <time>2012-09-30T09:16:21Z</time>
      </trkpt>
      <trkpt lat="47.7346" lon="6.81053">
        <ele>554.4312</ele>
        <time>2012-09-30T09:16:24Z</time>
      </trkpt>
      <trkpt lat="47.73456" lon="6.81047">
        <ele>553.8216</ele>
        <time>2012-09-30T09:16:25Z</time>
      </trkpt>
      <trkpt lat="47.73453" lon="6.81042">
        <ele>553.5168</ele>
        <time>2012-09-30T09:16:28Z</time>
      </trkpt>
      <trkpt lat="47.73449" lon="6.81038">
        <ele>554.1264</ele>
        <time>2012-09-30T09:16:29Z</time>
      </trkpt>
      <trkpt lat="47.73444" lon="6.81035">
        <ele>554.4312</ele>
        <time>2012-09-30T09:16:32Z</time>
      </trkpt>
      <trkpt lat="47.7344" lon="6.81033">
        <ele>554.736</ele>
        <time>2012-09-30T09:16:33Z</time>
      </trkpt>
      <trkpt lat="47.73436" lon="6.81031">
        <ele>555.6504</ele>
        <time>2012-09-30T09:16:36Z</time>
      </trkpt>
      <trkpt lat="47.73432" lon="6.81031">
        <ele>555.9552</ele>
        <time>2012-09-30T09:16:37Z</time>
      </trkpt>
      <trkpt lat="47.73428" lon="6.81031">
        <ele>556.8696</ele>
        <time>2012-09-30T09:16:40Z</time>
      </trkpt>
      <trkpt lat="47.73424" lon="6.81033">
        <ele>557.1744</ele>
        <time>2012-09-30T09:16:41Z</time>
      </trkpt>
      <trkpt lat="47.7342" lon="6.81035">
        <ele>558.0888</ele>
        <time>2012-09-30T09:16:44Z</time>
      </trkpt>
      <trkpt lat="47.73414" lon="6.81037">
        <ele>559.6128</ele>
        <time>2012-09-30T09:16:45Z</time>
      </trkpt>
      <trkpt lat="47.73409" lon="6.81041">
        <ele>559.9176</ele>
        <time>2012-09-30T09:16:48Z</time>
      </trkpt>
      <trkpt lat="47.73403" lon="6.81046">
        <ele>559.9176</ele>
        <time>2012-09-30T09:16:49Z</time>
      </trkpt>
      <trkpt lat="47.73397" lon="6.81051">
        <ele>558.6984</ele>
        <time>2012-09-30T09:16:52Z</time>
      </trkpt>
      <trkpt lat="47.73391" lon="6.81055">
        <ele>557.4792</ele>
        <time>2012-09-30T09:16:53Z</time>
      </trkpt>
      <trkpt lat="47.73385" lon="6.81059">
        <ele>557.4792</ele>
        <time>2012-09-30T09:16:56Z</time>
      </trkpt>
      <trkpt lat="47.73379" lon="6.81062">
        <ele>557.784</ele>
        <time>2012-09-30T09:16:57Z</time>
      </trkpt>
      <trkpt lat="47.73374" lon="6.81065">
        <ele>557.4792</ele>
        <time>2012-09-30T09:17:00Z</time>
      </trkpt>
      <trkpt lat="47.73368" lon="6.81069">
        <ele>556.5648</ele>
        <time>2012-09-30T09:17:01Z</time>
      </trkpt>
      <trkpt lat="47.73363" lon="6.81071">
        <ele>555.6504</ele>
        <time>2012-09-30T09:17:04Z</time>
      </trkpt>
      <trkpt lat="47.73363" lon="6.81072">
        <ele>555.3456</ele>
        <time>2012-09-30T09:17:07Z</time>
      </trkpt>
      <trkpt lat="47.73364" lon="6.81071">
        <ele>554.736</ele>
        <time>2012-09-30T09:17:08Z</time>
      </trkpt>
      <trkpt lat="47.73365" lon="6.81075">
        <ele>554.736</ele>
        <time>2012-09-30T09:17:11Z</time>
      </trkpt>
      <trkpt lat="47.73365" lon="6.81081">
        <ele>555.0408</ele>
        <time>2012-09-30T09:17:12Z</time>
      </trkpt>
      <trkpt lat="47.73365" lon="6.81086">
        <ele>555.3456</ele>
        <time>2012-09-30T09:17:15Z</time>
      </trkpt>
      <trkpt lat="47.73365" lon="6.81092">
        <ele>555.0408</ele>
        <time>2012-09-30T09:17:16Z</time>
      </trkpt>
      <trkpt lat="47.73371" lon="6.81115">
        <ele>555.6504</ele>
        <time>2012-09-30T09:17:26Z</time>
      </trkpt>
      <trkpt lat="47.73372" lon="6.81117">
        <ele>555.3456</ele>
        <time>2012-09-30T09:17:27Z</time>
      </trkpt>
      <trkpt lat="47.73374" lon="6.81122">
        <ele>555.3456</ele>
        <time>2012-09-30T09:17:28Z</time>
      </trkpt>
      <trkpt lat="47.73376" lon="6.81127">
        <ele>555.3456</ele>
        <time>2012-09-30T09:17:31Z</time>
      </trkpt>
      <trkpt lat="47.73378" lon="6.81132">
        <ele>555.0408</ele>
        <time>2012-09-30T09:17:32Z</time>
      </trkpt>
      <trkpt lat="47.73379" lon="6.81137">
        <ele>555.0408</ele>
        <time>2012-09-30T09:17:34Z</time>
      </trkpt>
      <trkpt lat="47.73381" lon="6.81142">
        <ele>555.0408</ele>
        <time>2012-09-30T09:17:37Z</time>
      </trkpt>
      <trkpt lat="47.73382" lon="6.81147">
        <ele>555.0408</ele>
        <time>2012-09-30T09:17:38Z</time>
      </trkpt>
      <trkpt lat="47.73384" lon="6.81153">
        <ele>555.0408</ele>
        <time>2012-09-30T09:17:41Z</time>
      </trkpt>
      <trkpt lat="47.73386" lon="6.81159">
        <ele>554.736</ele>
        <time>2012-09-30T09:17:42Z</time>
      </trkpt>
      <trkpt lat="47.73388" lon="6.81165">
        <ele>554.736</ele>
        <time>2012-09-30T09:17:45Z</time>
      </trkpt>
      <trkpt lat="47.7339" lon="6.81171">
        <ele>555.0408</ele>
        <time>2012-09-30T09:17:46Z</time>
      </trkpt>
      <trkpt lat="47.73391" lon="6.81177">
        <ele>555.0408</ele>
        <time>2012-09-30T09:17:49Z</time>
      </trkpt>
      <trkpt lat="47.73393" lon="6.81185">
        <ele>555.0408</ele>
        <time>2012-09-30T09:17:50Z</time>
      </trkpt>
      <trkpt lat="47.73393" lon="6.81192">
        <ele>554.736</ele>
        <time>2012-09-30T09:17:53Z</time>
      </trkpt>
      <trkpt lat="47.73393" lon="6.81199">
        <ele>555.0408</ele>
        <time>2012-09-30T09:17:54Z</time>
      </trkpt>
      <trkpt lat="47.73392" lon="6.81206">
        <ele>555.0408</ele>
        <time>2012-09-30T09:17:57Z</time>
      </trkpt>
      <trkpt lat="47.73391" lon="6.81213">
        <ele>555.0408</ele>
        <time>2012-09-30T09:17:58Z</time>
      </trkpt>
      <trkpt lat="47.73388" lon="6.81219">
        <ele>555.0408</ele>
        <time>2012-09-30T09:18:01Z</time>
      </trkpt>
      <trkpt lat="47.73384" lon="6.81224">
        <ele>554.736</ele>
        <time>2012-09-30T09:18:02Z</time>
      </trkpt>
      <trkpt lat="47.7338" lon="6.8123">
        <ele>554.736</ele>
        <time>2012-09-30T09:18:05Z</time>
      </trkpt>
      <trkpt lat="47.73375" lon="6.81236">
        <ele>555.0408</ele>
        <time>2012-09-30T09:18:06Z</time>
      </trkpt>
      <trkpt lat="47.7337" lon="6.81241">
        <ele>555.3456</ele>
        <time>2012-09-30T09:18:09Z</time>
      </trkpt>
      <trkpt lat="47.73366" lon="6.81246">
        <ele>556.26</ele>
        <time>2012-09-30T09:18:10Z</time>
      </trkpt>
      <trkpt lat="47.73361" lon="6.81249">
        <ele>556.8696</ele>
        <time>2012-09-30T09:18:13Z</time>
      </trkpt>
      <trkpt lat="47.73356" lon="6.8125">
        <ele>557.4792</ele>
        <time>2012-09-30T09:18:14Z</time>
      </trkpt>
      <trkpt lat="47.73351" lon="6.81248">
        <ele>558.0888</ele>
        <time>2012-09-30T09:18:17Z</time>
      </trkpt>
      <trkpt lat="47.73346" lon="6.81245">
        <ele>559.308</ele>
        <time>2012-09-30T09:18:18Z</time>
      </trkpt>
      <trkpt lat="47.7334" lon="6.81242">
        <ele>561.4416</ele>
        <time>2012-09-30T09:18:21Z</time>
      </trkpt>
      <trkpt lat="47.73335" lon="6.8124">
        <ele>562.9656</ele>
        <time>2012-09-30T09:18:22Z</time>
      </trkpt>
      <trkpt lat="47.7333" lon="6.81238">
        <ele>563.88</ele>
        <time>2012-09-30T09:18:25Z</time>
      </trkpt>
      <trkpt lat="47.73325" lon="6.81237">
        <ele>564.4896</ele>
        <time>2012-09-30T09:18:26Z</time>
      </trkpt>
      <trkpt lat="47.7332" lon="6.81233">
        <ele>564.7944</ele>
        <time>2012-09-30T09:18:28Z</time>
      </trkpt>
      <trkpt lat="47.73317" lon="6.81227">
        <ele>565.404</ele>
        <time>2012-09-30T09:18:31Z</time>
      </trkpt>
      <trkpt lat="47.73314" lon="6.81222">
        <ele>566.3184</ele>
        <time>2012-09-30T09:18:32Z</time>
      </trkpt>
      <trkpt lat="47.73308" lon="6.81217">
        <ele>566.928</ele>
        <time>2012-09-30T09:18:35Z</time>
      </trkpt>
      <trkpt lat="47.73301" lon="6.81213">
        <ele>566.928</ele>
        <time>2012-09-30T09:18:36Z</time>
      </trkpt>
      <trkpt lat="47.73295" lon="6.8121">
        <ele>567.8424</ele>
        <time>2012-09-30T09:18:39Z</time>
      </trkpt>
      <trkpt lat="47.73288" lon="6.81208">
        <ele>567.5376</ele>
        <time>2012-09-30T09:18:40Z</time>
      </trkpt>
      <trkpt lat="47.73279" lon="6.81207">
        <ele>566.3184</ele>
        <time>2012-09-30T09:18:43Z</time>
      </trkpt>
      <trkpt lat="47.73271" lon="6.81208">
        <ele>565.0992</ele>
        <time>2012-09-30T09:18:44Z</time>
      </trkpt>
      <trkpt lat="47.73264" lon="6.81209">
        <ele>563.88</ele>
        <time>2012-09-30T09:18:47Z</time>
      </trkpt>
      <trkpt lat="47.73258" lon="6.8121">
        <ele>562.9656</ele>
        <time>2012-09-30T09:18:48Z</time>
      </trkpt>
      <trkpt lat="47.73252" lon="6.81211">
        <ele>562.6608</ele>
        <time>2012-09-30T09:18:51Z</time>
      </trkpt>
      <trkpt lat="47.73245" lon="6.81214">
        <ele>562.6608</ele>
        <time>2012-09-30T09:18:52Z</time>
      </trkpt>
      <trkpt lat="47.73239" lon="6.81219">
        <ele>562.356</ele>
        <time>2012-09-30T09:18:55Z</time>
      </trkpt>
      <trkpt lat="47.73235" lon="6.81225">
        <ele>562.0512</ele>
        <time>2012-09-30T09:18:56Z</time>
      </trkpt>
      <trkpt lat="47.73231" lon="6.81232">
        <ele>562.0512</ele>
        <time>2012-09-30T09:18:59Z</time>
      </trkpt>
      <trkpt lat="47.73227" lon="6.81236">
        <ele>562.6608</ele>
        <time>2012-09-30T09:19:00Z</time>
      </trkpt>
      <trkpt lat="47.73223" lon="6.81242">
        <ele>564.1848</ele>
        <time>2012-09-30T09:19:03Z</time>
      </trkpt>
      <trkpt lat="47.73219" lon="6.81248">
        <ele>566.0136</ele>
        <time>2012-09-30T09:19:04Z</time>
      </trkpt>
      <trkpt lat="47.73215" lon="6.81253">
        <ele>567.5376</ele>
        <time>2012-09-30T09:19:07Z</time>
      </trkpt>
      <trkpt lat="47.73211" lon="6.81258">
        <ele>569.0616</ele>
        <time>2012-09-30T09:19:08Z</time>
      </trkpt>
      <trkpt lat="47.73207" lon="6.81264">
        <ele>569.0616</ele>
        <time>2012-09-30T09:19:11Z</time>
      </trkpt>
      <trkpt lat="47.73205" lon="6.8127">
        <ele>569.0616</ele>
        <time>2012-09-30T09:19:12Z</time>
      </trkpt>
      <trkpt lat="47.73204" lon="6.81276">
        <ele>568.452</ele>
        <time>2012-09-30T09:19:15Z</time>
      </trkpt>
      <trkpt lat="47.73203" lon="6.81281">
        <ele>569.3664</ele>
        <time>2012-09-30T09:19:16Z</time>
      </trkpt>
      <trkpt lat="47.73199" lon="6.81284">
        <ele>569.6712</ele>
        <time>2012-09-30T09:19:19Z</time>
      </trkpt>
      <trkpt lat="47.73197" lon="6.81284">
        <ele>569.976</ele>
        <time>2012-09-30T09:19:20Z</time>
      </trkpt>
      <trkpt lat="47.73194" lon="6.81286">
        <ele>569.976</ele>
        <time>2012-09-30T09:19:22Z</time>
      </trkpt>
      <trkpt lat="47.73191" lon="6.81288">
        <ele>570.5856</ele>
        <time>2012-09-30T09:19:25Z</time>
      </trkpt>
      <trkpt lat="47.73189" lon="6.8129">
        <ele>571.8048</ele>
        <time>2012-09-30T09:19:26Z</time>
      </trkpt>
      <trkpt lat="47.73187" lon="6.81292">
        <ele>572.7192</ele>
        <time>2012-09-30T09:19:29Z</time>
      </trkpt>
      <trkpt lat="47.73184" lon="6.81292">
        <ele>573.3288</ele>
        <time>2012-09-30T09:19:30Z</time>
      </trkpt>
      <trkpt lat="47.73181" lon="6.81292">
        <ele>573.6336</ele>
        <time>2012-09-30T09:19:33Z</time>
      </trkpt>
      <trkpt lat="47.73178" lon="6.81293">
        <ele>574.548</ele>
        <time>2012-09-30T09:19:34Z</time>
      </trkpt>
      <trkpt lat="47.73176" lon="6.81295">
        <ele>576.3768</ele>
        <time>2012-09-30T09:19:38Z</time>
      </trkpt>
      <trkpt lat="47.73175" lon="6.81294">
        <ele>578.2056</ele>
        <time>2012-09-30T09:19:45Z</time>
      </trkpt>
      <trkpt lat="47.73175" lon="6.81291">
        <ele>578.5104</ele>
        <time>2012-09-30T09:19:46Z</time>
      </trkpt>
      <trkpt lat="47.73176" lon="6.81285">
        <ele>578.5104</ele>
        <time>2012-09-30T09:19:49Z</time>
      </trkpt>
      <trkpt lat="47.73176" lon="6.81278">
        <ele>578.2056</ele>
        <time>2012-09-30T09:19:50Z</time>
      </trkpt>
      <trkpt lat="47.73177" lon="6.81271">
        <ele>577.596</ele>
        <time>2012-09-30T09:19:53Z</time>
      </trkpt>
      <trkpt lat="47.73177" lon="6.81262">
        <ele>577.596</ele>
        <time>2012-09-30T09:19:54Z</time>
      </trkpt>
      <trkpt lat="47.73178" lon="6.81252">
        <ele>578.2056</ele>
        <time>2012-09-30T09:19:57Z</time>
      </trkpt>
      <trkpt lat="47.73178" lon="6.8124">
        <ele>578.2056</ele>
        <time>2012-09-30T09:19:58Z</time>
      </trkpt>
      <trkpt lat="47.73178" lon="6.81228">
        <ele>576.9864</ele>
        <time>2012-09-30T09:20:01Z</time>
      </trkpt>
      <trkpt lat="47.73176" lon="6.81217">
        <ele>576.3768</ele>
        <time>2012-09-30T09:20:02Z</time>
      </trkpt>
      <trkpt lat="47.73174" lon="6.81207">
        <ele>575.7672</ele>
        <time>2012-09-30T09:20:05Z</time>
      </trkpt>
      <trkpt lat="47.7317" lon="6.81197">
        <ele>574.2432</ele>
        <time>2012-09-30T09:20:06Z</time>
      </trkpt>
      <trkpt lat="47.73165" lon="6.81191">
        <ele>573.9384</ele>
        <time>2012-09-30T09:20:09Z</time>
      </trkpt>
      <trkpt lat="47.73159" lon="6.81187">
        <ele>573.9384</ele>
        <time>2012-09-30T09:20:10Z</time>
      </trkpt>
      <trkpt lat="47.73152" lon="6.81184">
        <ele>573.9384</ele>
        <time>2012-09-30T09:20:13Z</time>
      </trkpt>
      <trkpt lat="47.73145" lon="6.81185">
        <ele>573.3288</ele>
        <time>2012-09-30T09:20:14Z</time>
      </trkpt>
      <trkpt lat="47.7314" lon="6.81187">
        <ele>573.6336</ele>
        <time>2012-09-30T09:20:16Z</time>
      </trkpt>
      <trkpt lat="47.73135" lon="6.81187">
        <ele>574.2432</ele>
        <time>2012-09-30T09:20:19Z</time>
      </trkpt>
      <trkpt lat="47.7313" lon="6.81184">
        <ele>575.1576</ele>
        <time>2012-09-30T09:20:20Z</time>
      </trkpt>
      <trkpt lat="47.73124" lon="6.81181">
        <ele>576.072</ele>
        <time>2012-09-30T09:20:23Z</time>
      </trkpt>
      <trkpt lat="47.73117" lon="6.81178">
        <ele>576.3768</ele>
        <time>2012-09-30T09:20:24Z</time>
      </trkpt>
      <trkpt lat="47.7311" lon="6.81175">
        <ele>576.9864</ele>
        <time>2012-09-30T09:20:27Z</time>
      </trkpt>
      <trkpt lat="47.73104" lon="6.81172">
        <ele>577.596</ele>
        <time>2012-09-30T09:20:28Z</time>
      </trkpt>
      <trkpt lat="47.73097" lon="6.81168">
        <ele>577.596</ele>
        <time>2012-09-30T09:20:31Z</time>
      </trkpt>
      <trkpt lat="47.73091" lon="6.81165">
        <ele>577.9008</ele>
        <time>2012-09-30T09:20:32Z</time>
      </trkpt>
      <trkpt lat="47.73084" lon="6.8116">
        <ele>578.2056</ele>
        <time>2012-09-30T09:20:35Z</time>
      </trkpt>
      <trkpt lat="47.73078" lon="6.81157">
        <ele>578.5104</ele>
        <time>2012-09-30T09:20:36Z</time>
      </trkpt>
      <trkpt lat="47.73071" lon="6.81154">
        <ele>578.5104</ele>
        <time>2012-09-30T09:20:39Z</time>
      </trkpt>
      <trkpt lat="47.73065" lon="6.81151">
        <ele>578.5104</ele>
        <time>2012-09-30T09:20:40Z</time>
      </trkpt>
      <trkpt lat="47.73058" lon="6.81147">
        <ele>578.5104</ele>
        <time>2012-09-30T09:20:43Z</time>
      </trkpt>
      <trkpt lat="47.73051" lon="6.81144">
        <ele>578.5104</ele>
        <time>2012-09-30T09:20:44Z</time>
      </trkpt>
      <trkpt lat="47.73045" lon="6.81143">
        <ele>578.5104</ele>
        <time>2012-09-30T09:20:47Z</time>
      </trkpt>
      <trkpt lat="47.73037" lon="6.81142">
        <ele>576.9864</ele>
        <time>2012-09-30T09:20:48Z</time>
      </trkpt>
      <trkpt lat="47.73031" lon="6.81149">
        <ele>574.548</ele>
        <time>2012-09-30T09:20:51Z</time>
      </trkpt>
      <trkpt lat="47.73028" lon="6.81158">
        <ele>572.4144</ele>
        <time>2012-09-30T09:20:52Z</time>
      </trkpt>
      <trkpt lat="47.73027" lon="6.81169">
        <ele>570.8904</ele>
        <time>2012-09-30T09:20:55Z</time>
      </trkpt>
      <trkpt lat="47.73027" lon="6.8118">
        <ele>569.976</ele>
        <time>2012-09-30T09:20:56Z</time>
      </trkpt>
      <trkpt lat="47.73026" lon="6.81192">
        <ele>569.3664</ele>
        <time>2012-09-30T09:20:59Z</time>
      </trkpt>
      <trkpt lat="47.73026" lon="6.81204">
        <ele>568.7568</ele>
        <time>2012-09-30T09:21:00Z</time>
      </trkpt>
      <trkpt lat="47.73025" lon="6.81214">
        <ele>568.452</ele>
        <time>2012-09-30T09:21:03Z</time>
      </trkpt>
      <trkpt lat="47.73026" lon="6.81225">
        <ele>568.1472</ele>
        <time>2012-09-30T09:21:04Z</time>
      </trkpt>
      <trkpt lat="47.73025" lon="6.81236">
        <ele>568.1472</ele>
        <time>2012-09-30T09:21:07Z</time>
      </trkpt>
      <trkpt lat="47.73025" lon="6.81247">
        <ele>567.8424</ele>
        <time>2012-09-30T09:21:09Z</time>
      </trkpt>
      <trkpt lat="47.73025" lon="6.81257">
        <ele>567.8424</ele>
        <time>2012-09-30T09:21:10Z</time>
      </trkpt>
      <trkpt lat="47.73023" lon="6.81267">
        <ele>567.2328</ele>
        <time>2012-09-30T09:21:13Z</time>
      </trkpt>
      <trkpt lat="47.73021" lon="6.81278">
        <ele>567.2328</ele>
        <time>2012-09-30T09:21:14Z</time>
      </trkpt>
      <trkpt lat="47.73019" lon="6.81289">
        <ele>567.2328</ele>
        <time>2012-09-30T09:21:17Z</time>
      </trkpt>
      <trkpt lat="47.73018" lon="6.81301">
        <ele>567.5376</ele>
        <time>2012-09-30T09:21:18Z</time>
      </trkpt>
      <trkpt lat="47.73018" lon="6.81312">
        <ele>567.5376</ele>
        <time>2012-09-30T09:21:21Z</time>
      </trkpt>
      <trkpt lat="47.73018" lon="6.81324">
        <ele>567.2328</ele>
        <time>2012-09-30T09:21:22Z</time>
      </trkpt>
      <trkpt lat="47.73018" lon="6.81336">
        <ele>567.2328</ele>
        <time>2012-09-30T09:21:25Z</time>
      </trkpt>
      <trkpt lat="47.73017" lon="6.81348">
        <ele>567.2328</ele>
        <time>2012-09-30T09:21:26Z</time>
      </trkpt>
      <trkpt lat="47.73016" lon="6.8136">
        <ele>566.928</ele>
        <time>2012-09-30T09:21:29Z</time>
      </trkpt>
      <trkpt lat="47.73015" lon="6.81372">
        <ele>566.6232</ele>
        <time>2012-09-30T09:21:30Z</time>
      </trkpt>
      <trkpt lat="47.73014" lon="6.81391">
        <ele>566.3184</ele>
        <time>2012-09-30T09:21:34Z</time>
      </trkpt>
      <trkpt lat="47.73014" lon="6.81397">
        <ele>566.0136</ele>
        <time>2012-09-30T09:21:34Z</time>
      </trkpt>
      <trkpt lat="47.73012" lon="6.81408">
        <ele>565.7088</ele>
        <time>2012-09-30T09:21:37Z</time>
      </trkpt>
      <trkpt lat="47.73008" lon="6.81416">
        <ele>565.404</ele>
        <time>2012-09-30T09:21:40Z</time>
      </trkpt>
      <trkpt lat="47.73006" lon="6.81417">
        <ele>565.0992</ele>
        <time>2012-09-30T09:21:41Z</time>
      </trkpt>
      <trkpt lat="47.73005" lon="6.81419">
        <ele>564.1848</ele>
        <time>2012-09-30T09:21:50Z</time>
      </trkpt>
      <trkpt lat="47.73006" lon="6.81423">
        <ele>560.832</ele>
        <time>2012-09-30T09:27:35Z</time>
      </trkpt>
      <trkpt lat="47.73008" lon="6.81422">
        <ele>563.5752</ele>
        <time>2012-09-30T09:28:11Z</time>
      </trkpt>
      <trkpt lat="47.73007" lon="6.81426">
        <ele>562.9656</ele>
        <time>2012-09-30T09:28:50Z</time>
      </trkpt>
      <trkpt lat="47.73009" lon="6.8142">
        <ele>564.1848</ele>
        <time>2012-09-30T09:32:15Z</time>
      </trkpt>
      <trkpt lat="47.73007" lon="6.81418">
        <ele>564.1848</ele>
        <time>2012-09-30T09:32:19Z</time>
      </trkpt>
      <trkpt lat="47.73007" lon="6.81417">
        <ele>563.2704</ele>
        <time>2012-09-30T09:33:22Z</time>
      </trkpt>
      <trkpt lat="47.73009" lon="6.81419">
        <ele>563.2704</ele>
        <time>2012-09-30T09:33:23Z</time>
      </trkpt>
      <trkpt lat="47.73009" lon="6.81423">
        <ele>563.2704</ele>
        <time>2012-09-30T09:33:26Z</time>
      </trkpt>
      <trkpt lat="47.7301" lon="6.81428">
        <ele>563.5752</ele>
        <time>2012-09-30T09:33:27Z</time>
      </trkpt>
      <trkpt lat="47.73012" lon="6.81436">
        <ele>563.5752</ele>
        <time>2012-09-30T09:33:30Z</time>
      </trkpt>
      <trkpt lat="47.73014" lon="6.81443">
        <ele>563.88</ele>
        <time>2012-09-30T09:33:31Z</time>
      </trkpt>
      <trkpt lat="47.73015" lon="6.81449">
        <ele>563.88</ele>
        <time>2012-09-30T09:33:34Z</time>
      </trkpt>
      <trkpt lat="47.73016" lon="6.81455">
        <ele>563.88</ele>
        <time>2012-09-30T09:33:35Z</time>
      </trkpt>
      <trkpt lat="47.73015" lon="6.81461">
        <ele>563.2704</ele>
        <time>2012-09-30T09:33:38Z</time>
      </trkpt>
      <trkpt lat="47.73012" lon="6.8147">
        <ele>562.356</ele>
        <time>2012-09-30T09:33:39Z</time>
      </trkpt>
      <trkpt lat="47.73009" lon="6.81481">
        <ele>561.1368</ele>
        <time>2012-09-30T09:33:42Z</time>
      </trkpt>
      <trkpt lat="47.73008" lon="6.81487">
        <ele>560.2224</ele>
        <time>2012-09-30T09:33:43Z</time>
      </trkpt>
      <trkpt lat="47.73004" lon="6.81493">
        <ele>559.308</ele>
        <time>2012-09-30T09:33:46Z</time>
      </trkpt>
      <trkpt lat="47.73002" lon="6.81498">
        <ele>558.6984</ele>
        <time>2012-09-30T09:33:47Z</time>
      </trkpt>
      <trkpt lat="47.72999" lon="6.81504">
        <ele>557.784</ele>
        <time>2012-09-30T09:33:50Z</time>
      </trkpt>
      <trkpt lat="47.72998" lon="6.81514">
        <ele>556.26</ele>
        <time>2012-09-30T09:33:51Z</time>
      </trkpt>
      <trkpt lat="47.72995" lon="6.81526">
        <ele>555.0408</ele>
        <time>2012-09-30T09:33:54Z</time>
      </trkpt>
      <trkpt lat="47.72991" lon="6.81533">
        <ele>553.8216</ele>
        <time>2012-09-30T09:33:55Z</time>
      </trkpt>
      <trkpt lat="47.72985" lon="6.81534">
        <ele>551.9928</ele>
        <time>2012-09-30T09:33:58Z</time>
      </trkpt>
      <trkpt lat="47.72978" lon="6.81532">
        <ele>549.8592</ele>
        <time>2012-09-30T09:33:59Z</time>
      </trkpt>
      <trkpt lat="47.72972" lon="6.81531">
        <ele>547.116</ele>
        <time>2012-09-30T09:34:02Z</time>
      </trkpt>
      <trkpt lat="47.72961" lon="6.81536">
        <ele>544.9824</ele>
        <time>2012-09-30T09:34:03Z</time>
      </trkpt>
      <trkpt lat="47.72953" lon="6.81545">
        <ele>543.1536</ele>
        <time>2012-09-30T09:34:06Z</time>
      </trkpt>
      <trkpt lat="47.72947" lon="6.81553">
        <ele>541.6296</ele>
        <time>2012-09-30T09:34:07Z</time>
      </trkpt>
      <trkpt lat="47.72942" lon="6.81556">
        <ele>540.1056</ele>
        <time>2012-09-30T09:34:10Z</time>
      </trkpt>
      <trkpt lat="47.72937" lon="6.81553">
        <ele>538.5816</ele>
        <time>2012-09-30T09:34:12Z</time>
      </trkpt>
      <trkpt lat="47.72931" lon="6.8155">
        <ele>537.3624</ele>
        <time>2012-09-30T09:34:13Z</time>
      </trkpt>
      <trkpt lat="47.72926" lon="6.81549">
        <ele>537.3624</ele>
        <time>2012-09-30T09:34:16Z</time>
      </trkpt>
      <trkpt lat="47.72922" lon="6.81547">
        <ele>535.8384</ele>
        <time>2012-09-30T09:34:18Z</time>
      </trkpt>
      <trkpt lat="47.72914" lon="6.81547">
        <ele>536.1432</ele>
        <time>2012-09-30T09:34:21Z</time>
      </trkpt>
      <trkpt lat="47.72906" lon="6.81546">
        <ele>536.1432</ele>
        <time>2012-09-30T09:34:22Z</time>
      </trkpt>
      <trkpt lat="47.72901" lon="6.81546">
        <ele>536.1432</ele>
        <time>2012-09-30T09:34:25Z</time>
      </trkpt>
      <trkpt lat="47.72893" lon="6.81546">
        <ele>536.448</ele>
        <time>2012-09-30T09:34:26Z</time>
      </trkpt>
      <trkpt lat="47.72886" lon="6.81541">
        <ele>537.6672</ele>
        <time>2012-09-30T09:34:29Z</time>
      </trkpt>
      <trkpt lat="47.72882" lon="6.81533">
        <ele>536.7528</ele>
        <time>2012-09-30T09:34:30Z</time>
      </trkpt>
      <trkpt lat="47.72879" lon="6.81519">
        <ele>537.0576</ele>
        <time>2012-09-30T09:34:33Z</time>
      </trkpt>
      <trkpt lat="47.72876" lon="6.81504">
        <ele>536.7528</ele>
        <time>2012-09-30T09:34:34Z</time>
      </trkpt>
      <trkpt lat="47.72871" lon="6.81489">
        <ele>536.448</ele>
        <time>2012-09-30T09:34:37Z</time>
      </trkpt>
      <trkpt lat="47.72865" lon="6.81478">
        <ele>536.1432</ele>
        <time>2012-09-30T09:34:39Z</time>
      </trkpt>
      <trkpt lat="47.7286" lon="6.81476">
        <ele>536.1432</ele>
        <time>2012-09-30T09:34:40Z</time>
      </trkpt>
      <trkpt lat="47.72852" lon="6.81476">
        <ele>537.0576</ele>
        <time>2012-09-30T09:34:43Z</time>
      </trkpt>
      <trkpt lat="47.72844" lon="6.8147">
        <ele>537.3624</ele>
        <time>2012-09-30T09:34:44Z</time>
      </trkpt>
      <trkpt lat="47.72837" lon="6.81459">
        <ele>537.3624</ele>
        <time>2012-09-30T09:34:47Z</time>
      </trkpt>
      <trkpt lat="47.72834" lon="6.81446">
        <ele>538.2768</ele>
        <time>2012-09-30T09:34:48Z</time>
      </trkpt>
      <trkpt lat="47.72829" lon="6.81433">
        <ele>538.5816</ele>
        <time>2012-09-30T09:34:51Z</time>
      </trkpt>
      <trkpt lat="47.72825" lon="6.81422">
        <ele>538.8864</ele>
        <time>2012-09-30T09:34:52Z</time>
      </trkpt>
      <trkpt lat="47.72821" lon="6.81413">
        <ele>539.496</ele>
        <time>2012-09-30T09:34:55Z</time>
      </trkpt>
      <trkpt lat="47.72817" lon="6.81402">
        <ele>539.496</ele>
        <time>2012-09-30T09:34:56Z</time>
      </trkpt>
      <trkpt lat="47.72811" lon="6.81391">
        <ele>537.6672</ele>
        <time>2012-09-30T09:34:59Z</time>
      </trkpt>
      <trkpt lat="47.72806" lon="6.81379">
        <ele>537.6672</ele>
        <time>2012-09-30T09:35:00Z</time>
      </trkpt>
      <trkpt lat="47.72802" lon="6.81367">
        <ele>537.3624</ele>
        <time>2012-09-30T09:35:03Z</time>
      </trkpt>
      <trkpt lat="47.72796" lon="6.81354">
        <ele>537.0576</ele>
        <time>2012-09-30T09:35:04Z</time>
      </trkpt>
      <trkpt lat="47.72788" lon="6.8134">
        <ele>536.7528</ele>
        <time>2012-09-30T09:35:07Z</time>
      </trkpt>
      <trkpt lat="47.72778" lon="6.81331">
        <ele>536.448</ele>
        <time>2012-09-30T09:35:08Z</time>
      </trkpt>
      <trkpt lat="47.72767" lon="6.81326">
        <ele>536.7528</ele>
        <time>2012-09-30T09:35:11Z</time>
      </trkpt>
      <trkpt lat="47.72758" lon="6.81317">
        <ele>537.6672</ele>
        <time>2012-09-30T09:35:12Z</time>
      </trkpt>
      <trkpt lat="47.7275" lon="6.81307">
        <ele>536.7528</ele>
        <time>2012-09-30T09:35:15Z</time>
      </trkpt>
      <trkpt lat="47.72744" lon="6.81293">
        <ele>536.7528</ele>
        <time>2012-09-30T09:35:16Z</time>
      </trkpt>
      <trkpt lat="47.72737" lon="6.81277">
        <ele>535.8384</ele>
        <time>2012-09-30T09:35:19Z</time>
      </trkpt>
      <trkpt lat="47.7273" lon="6.81261">
        <ele>533.7048</ele>
        <time>2012-09-30T09:35:20Z</time>
      </trkpt>
      <trkpt lat="47.72723" lon="6.81245">
        <ele>531.876</ele>
        <time>2012-09-30T09:35:23Z</time>
      </trkpt>
      <trkpt lat="47.72713" lon="6.81234">
        <ele>530.352</ele>
        <time>2012-09-30T09:35:24Z</time>
      </trkpt>
      <trkpt lat="47.727" lon="6.8123">
        <ele>528.828</ele>
        <time>2012-09-30T09:35:27Z</time>
      </trkpt>
      <trkpt lat="47.72691" lon="6.81224">
        <ele>527.304</ele>
        <time>2012-09-30T09:35:28Z</time>
      </trkpt>
      <trkpt lat="47.72683" lon="6.81212">
        <ele>526.0848</ele>
        <time>2012-09-30T09:35:31Z</time>
      </trkpt>
      <trkpt lat="47.72677" lon="6.81201">
        <ele>525.4752</ele>
        <time>2012-09-30T09:35:33Z</time>
      </trkpt>
      <trkpt lat="47.72669" lon="6.81188">
        <ele>524.8656</ele>
        <time>2012-09-30T09:35:34Z</time>
      </trkpt>
      <trkpt lat="47.72664" lon="6.81174">
        <ele>525.4752</ele>
        <time>2012-09-30T09:35:37Z</time>
      </trkpt>
      <trkpt lat="47.72663" lon="6.81161">
        <ele>526.0848</ele>
        <time>2012-09-30T09:35:38Z</time>
      </trkpt>
      <trkpt lat="47.72658" lon="6.8115">
        <ele>526.9992</ele>
        <time>2012-09-30T09:35:41Z</time>
      </trkpt>
      <trkpt lat="47.72651" lon="6.81138">
        <ele>527.6088</ele>
        <time>2012-09-30T09:35:42Z</time>
      </trkpt>
      <trkpt lat="47.72644" lon="6.81126">
        <ele>528.5232</ele>
        <time>2012-09-30T09:35:45Z</time>
      </trkpt>
      <trkpt lat="47.72636" lon="6.81114">
        <ele>529.4376</ele>
        <time>2012-09-30T09:35:46Z</time>
      </trkpt>
      <trkpt lat="47.72629" lon="6.81105">
        <ele>530.0472</ele>
        <time>2012-09-30T09:35:49Z</time>
      </trkpt>
      <trkpt lat="47.72619" lon="6.81103">
        <ele>529.4376</ele>
        <time>2012-09-30T09:35:50Z</time>
      </trkpt>
      <trkpt lat="47.72606" lon="6.8111">
        <ele>527.304</ele>
        <time>2012-09-30T09:35:53Z</time>
      </trkpt>
      <trkpt lat="47.72596" lon="6.81117">
        <ele>524.256</ele>
        <time>2012-09-30T09:35:54Z</time>
      </trkpt>
      <trkpt lat="47.72584" lon="6.8112">
        <ele>520.9032</ele>
        <time>2012-09-30T09:35:57Z</time>
      </trkpt>
      <trkpt lat="47.72574" lon="6.81124">
        <ele>517.5504</ele>
        <time>2012-09-30T09:35:58Z</time>
      </trkpt>
      <trkpt lat="47.72563" lon="6.81134">
        <ele>515.4168</ele>
        <time>2012-09-30T09:36:01Z</time>
      </trkpt>
      <trkpt lat="47.72557" lon="6.81148">
        <ele>513.588</ele>
        <time>2012-09-30T09:36:02Z</time>
      </trkpt>
      <trkpt lat="47.72556" lon="6.81164">
        <ele>512.9784</ele>
        <time>2012-09-30T09:36:05Z</time>
      </trkpt>
      <trkpt lat="47.72559" lon="6.81179">
        <ele>512.3688</ele>
        <time>2012-09-30T09:36:06Z</time>
      </trkpt>
      <trkpt lat="47.72561" lon="6.81195">
        <ele>511.1496</ele>
        <time>2012-09-30T09:36:09Z</time>
      </trkpt>
      <trkpt lat="47.72561" lon="6.81214">
        <ele>509.6256</ele>
        <time>2012-09-30T09:36:10Z</time>
      </trkpt>
      <trkpt lat="47.72563" lon="6.81232">
        <ele>507.492</ele>
        <time>2012-09-30T09:36:13Z</time>
      </trkpt>
      <trkpt lat="47.72565" lon="6.81248">
        <ele>505.6632</ele>
        <time>2012-09-30T09:36:14Z</time>
      </trkpt>
      <trkpt lat="47.72565" lon="6.81266">
        <ele>503.5296</ele>
        <time>2012-09-30T09:36:17Z</time>
      </trkpt>
      <trkpt lat="47.72564" lon="6.81278">
        <ele>502.0056</ele>
        <time>2012-09-30T09:36:18Z</time>
      </trkpt>
      <trkpt lat="47.72563" lon="6.81288">
        <ele>499.872</ele>
        <time>2012-09-30T09:36:21Z</time>
      </trkpt>
      <trkpt lat="47.72561" lon="6.81301">
        <ele>498.0432</ele>
        <time>2012-09-30T09:36:22Z</time>
      </trkpt>
      <trkpt lat="47.72557" lon="6.81309">
        <ele>496.824</ele>
        <time>2012-09-30T09:36:25Z</time>
      </trkpt>
      <trkpt lat="47.72556" lon="6.81319">
        <ele>495.9096</ele>
        <time>2012-09-30T09:36:27Z</time>
      </trkpt>
      <trkpt lat="47.72557" lon="6.81331">
        <ele>495.6048</ele>
        <time>2012-09-30T09:36:28Z</time>
      </trkpt>
      <trkpt lat="47.7256" lon="6.81344">
        <ele>495.9096</ele>
        <time>2012-09-30T09:36:31Z</time>
      </trkpt>
      <trkpt lat="47.72564" lon="6.81357">
        <ele>497.1288</ele>
        <time>2012-09-30T09:36:32Z</time>
      </trkpt>
      <trkpt lat="47.72572" lon="6.81372">
        <ele>496.824</ele>
        <time>2012-09-30T09:36:35Z</time>
      </trkpt>
      <trkpt lat="47.7258" lon="6.81388">
        <ele>496.2144</ele>
        <time>2012-09-30T09:36:36Z</time>
      </trkpt>
      <trkpt lat="47.72587" lon="6.81405">
        <ele>495.3</ele>
        <time>2012-09-30T09:36:39Z</time>
      </trkpt>
      <trkpt lat="47.72592" lon="6.81422">
        <ele>495.3</ele>
        <time>2012-09-30T09:36:40Z</time>
      </trkpt>
      <trkpt lat="47.72601" lon="6.81439">
        <ele>493.776</ele>
        <time>2012-09-30T09:36:43Z</time>
      </trkpt>
      <trkpt lat="47.72609" lon="6.81457">
        <ele>492.252</ele>
        <time>2012-09-30T09:36:44Z</time>
      </trkpt>
      <trkpt lat="47.72616" lon="6.81475">
        <ele>491.3376</ele>
        <time>2012-09-30T09:36:47Z</time>
      </trkpt>
      <trkpt lat="47.72624" lon="6.81493">
        <ele>489.5088</ele>
        <time>2012-09-30T09:36:48Z</time>
      </trkpt>
      <trkpt lat="47.72632" lon="6.81511">
        <ele>488.8992</ele>
        <time>2012-09-30T09:36:51Z</time>
      </trkpt>
      <trkpt lat="47.72638" lon="6.81529">
        <ele>488.8992</ele>
        <time>2012-09-30T09:36:52Z</time>
      </trkpt>
      <trkpt lat="47.72646" lon="6.81548">
        <ele>487.9848</ele>
        <time>2012-09-30T09:36:55Z</time>
      </trkpt>
      <trkpt lat="47.72653" lon="6.81566">
        <ele>487.3752</ele>
        <time>2012-09-30T09:36:56Z</time>
      </trkpt>
      <trkpt lat="47.72659" lon="6.81584">
        <ele>487.9848</ele>
        <time>2012-09-30T09:36:59Z</time>
      </trkpt>
      <trkpt lat="47.72664" lon="6.81603">
        <ele>488.8992</ele>
        <time>2012-09-30T09:37:00Z</time>
      </trkpt>
      <trkpt lat="47.72669" lon="6.81622">
        <ele>490.1184</ele>
        <time>2012-09-30T09:37:03Z</time>
      </trkpt>
      <trkpt lat="47.7267" lon="6.81643">
        <ele>491.9472</ele>
        <time>2012-09-30T09:37:04Z</time>
      </trkpt>
      <trkpt lat="47.72663" lon="6.8166">
        <ele>493.4712</ele>
        <time>2012-09-30T09:37:07Z</time>
      </trkpt>
      <trkpt lat="47.72652" lon="6.8167">
        <ele>495.3</ele>
        <time>2012-09-30T09:37:08Z</time>
      </trkpt>
      <trkpt lat="47.72645" lon="6.81674">
        <ele>496.824</ele>
        <time>2012-09-30T09:37:11Z</time>
      </trkpt>
      <trkpt lat="47.72641" lon="6.81678">
        <ele>496.5192</ele>
        <time>2012-09-30T09:37:12Z</time>
      </trkpt>
      <trkpt lat="47.72643" lon="6.81681">
        <ele>494.3856</ele>
        <time>2012-09-30T09:37:15Z</time>
      </trkpt>
      <trkpt lat="47.72644" lon="6.81684">
        <ele>494.9952</ele>
        <time>2012-09-30T09:37:16Z</time>
      </trkpt>
      <trkpt lat="47.72647" lon="6.81688">
        <ele>494.3856</ele>
        <time>2012-09-30T09:37:19Z</time>
      </trkpt>
      <trkpt lat="47.7265" lon="6.81694">
        <ele>494.6904</ele>
        <time>2012-09-30T09:37:21Z</time>
      </trkpt>
      <trkpt lat="47.72653" lon="6.81698">
        <ele>494.6904</ele>
        <time>2012-09-30T09:37:22Z</time>
      </trkpt>
      <trkpt lat="47.7266" lon="6.81703">
        <ele>494.0808</ele>
        <time>2012-09-30T09:37:30Z</time>
      </trkpt>
      <trkpt lat="47.72661" lon="6.81704">
        <ele>493.776</ele>
        <time>2012-09-30T09:37:31Z</time>
      </trkpt>
      <trkpt lat="47.72663" lon="6.81706">
        <ele>493.776</ele>
        <time>2012-09-30T09:37:34Z</time>
      </trkpt>
      <trkpt lat="47.72666" lon="6.81707">
        <ele>493.776</ele>
        <time>2012-09-30T09:37:35Z</time>
      </trkpt>
      <trkpt lat="47.72669" lon="6.81713">
        <ele>495.3</ele>
        <time>2012-09-30T09:37:38Z</time>
      </trkpt>
      <trkpt lat="47.7267" lon="6.81714">
        <ele>495.6048</ele>
        <time>2012-09-30T09:37:39Z</time>
      </trkpt>
      <trkpt lat="47.7267" lon="6.81718">
        <ele>496.5192</ele>
        <time>2012-09-30T09:37:42Z</time>
      </trkpt>
      <trkpt lat="47.7267" lon="6.81722">
        <ele>497.4336</ele>
        <time>2012-09-30T09:37:43Z</time>
      </trkpt>
      <trkpt lat="47.72671" lon="6.81726">
        <ele>499.5672</ele>
        <time>2012-09-30T09:37:46Z</time>
      </trkpt>
      <trkpt lat="47.72672" lon="6.8173">
        <ele>500.1768</ele>
        <time>2012-09-30T09:37:48Z</time>
      </trkpt>
      <trkpt lat="47.72674" lon="6.81735">
        <ele>501.7008</ele>
        <time>2012-09-30T09:37:49Z</time>
      </trkpt>
      <trkpt lat="47.72675" lon="6.8174">
        <ele>502.0056</ele>
        <time>2012-09-30T09:37:52Z</time>
      </trkpt>
      <trkpt lat="47.72677" lon="6.81745">
        <ele>502.92</ele>
        <time>2012-09-30T09:37:53Z</time>
      </trkpt>
      <trkpt lat="47.72679" lon="6.8175">
        <ele>503.5296</ele>
        <time>2012-09-30T09:37:56Z</time>
      </trkpt>
      <trkpt lat="47.7268" lon="6.81753">
        <ele>504.444</ele>
        <time>2012-09-30T09:37:57Z</time>
      </trkpt>
      <trkpt lat="47.72681" lon="6.81757">
        <ele>505.6632</ele>
        <time>2012-09-30T09:38:00Z</time>
      </trkpt>
      <trkpt lat="47.72681" lon="6.81762">
        <ele>506.8824</ele>
        <time>2012-09-30T09:38:01Z</time>
      </trkpt>
      <trkpt lat="47.72682" lon="6.81766">
        <ele>507.1872</ele>
        <time>2012-09-30T09:38:04Z</time>
      </trkpt>
      <trkpt lat="47.72683" lon="6.81769">
        <ele>508.4064</ele>
        <time>2012-09-30T09:38:05Z</time>
      </trkpt>
      <trkpt lat="47.72684" lon="6.81772">
        <ele>509.6256</ele>
        <time>2012-09-30T09:38:08Z</time>
      </trkpt>
      <trkpt lat="47.72684" lon="6.81776">
        <ele>510.54</ele>
        <time>2012-09-30T09:38:09Z</time>
      </trkpt>
      <trkpt lat="47.72685" lon="6.8178">
        <ele>510.8448</ele>
        <time>2012-09-30T09:38:12Z</time>
      </trkpt>
      <trkpt lat="47.72685" lon="6.81784">
        <ele>512.3688</ele>
        <time>2012-09-30T09:38:13Z</time>
      </trkpt>
      <trkpt lat="47.72686" lon="6.81788">
        <ele>512.9784</ele>
        <time>2012-09-30T09:38:16Z</time>
      </trkpt>
      <trkpt lat="47.72686" lon="6.81792">
        <ele>513.8928</ele>
        <time>2012-09-30T09:38:17Z</time>
      </trkpt>
      <trkpt lat="47.72686" lon="6.81795">
        <ele>515.4168</ele>
        <time>2012-09-30T09:38:20Z</time>
      </trkpt>
      <trkpt lat="47.72689" lon="6.818">
        <ele>515.112</ele>
        <time>2012-09-30T09:38:21Z</time>
      </trkpt>
      <trkpt lat="47.7269" lon="6.81804">
        <ele>514.5024</ele>
        <time>2012-09-30T09:38:24Z</time>
      </trkpt>
      <trkpt lat="47.7269" lon="6.81807">
        <ele>514.5024</ele>
        <time>2012-09-30T09:38:25Z</time>
      </trkpt>
      <trkpt lat="47.72691" lon="6.81811">
        <ele>514.8072</ele>
        <time>2012-09-30T09:38:28Z</time>
      </trkpt>
      <trkpt lat="47.72691" lon="6.81815">
        <ele>515.112</ele>
        <time>2012-09-30T09:38:29Z</time>
      </trkpt>
      <trkpt lat="47.72692" lon="6.8182">
        <ele>514.8072</ele>
        <time>2012-09-30T09:38:32Z</time>
      </trkpt>
      <trkpt lat="47.72692" lon="6.81824">
        <ele>513.8928</ele>
        <time>2012-09-30T09:38:33Z</time>
      </trkpt>
      <trkpt lat="47.72693" lon="6.81828">
        <ele>513.8928</ele>
        <time>2012-09-30T09:38:36Z</time>
      </trkpt>
      <trkpt lat="47.72693" lon="6.81832">
        <ele>513.8928</ele>
        <time>2012-09-30T09:38:37Z</time>
      </trkpt>
      <trkpt lat="47.72693" lon="6.81836">
        <ele>513.8928</ele>
        <time>2012-09-30T09:38:40Z</time>
      </trkpt>
      <trkpt lat="47.72694" lon="6.81839">
        <ele>514.1976</ele>
        <time>2012-09-30T09:38:42Z</time>
      </trkpt>
      <trkpt lat="47.72695" lon="6.81845">
        <ele>513.2832</ele>
        <time>2012-09-30T09:38:43Z</time>
      </trkpt>
      <trkpt lat="47.72696" lon="6.8185">
        <ele>512.6736</ele>
        <time>2012-09-30T09:38:46Z</time>
      </trkpt>
      <trkpt lat="47.72697" lon="6.81855">
        <ele>512.9784</ele>
        <time>2012-09-30T09:38:47Z</time>
      </trkpt>
      <trkpt lat="47.72697" lon="6.8186">
        <ele>513.2832</ele>
        <time>2012-09-30T09:38:50Z</time>
      </trkpt>
      <trkpt lat="47.72698" lon="6.81865">
        <ele>512.9784</ele>
        <time>2012-09-30T09:38:51Z</time>
      </trkpt>
      <trkpt lat="47.727" lon="6.81871">
        <ele>513.2832</ele>
        <time>2012-09-30T09:38:54Z</time>
      </trkpt>
      <trkpt lat="47.727" lon="6.81876">
        <ele>513.2832</ele>
        <time>2012-09-30T09:38:55Z</time>
      </trkpt>
      <trkpt lat="47.72701" lon="6.81882">
        <ele>513.2832</ele>
        <time>2012-09-30T09:38:58Z</time>
      </trkpt>
      <trkpt lat="47.72702" lon="6.81887">
        <ele>513.588</ele>
        <time>2012-09-30T09:38:59Z</time>
      </trkpt>
      <trkpt lat="47.72703" lon="6.81894">
        <ele>512.6736</ele>
        <time>2012-09-30T09:39:02Z</time>
      </trkpt>
      <trkpt lat="47.72703" lon="6.819">
        <ele>512.9784</ele>
        <time>2012-09-30T09:39:03Z</time>
      </trkpt>
      <trkpt lat="47.72703" lon="6.81907">
        <ele>512.6736</ele>
        <time>2012-09-30T09:39:06Z</time>
      </trkpt>
      <trkpt lat="47.72703" lon="6.81913">
        <ele>512.9784</ele>
        <time>2012-09-30T09:39:07Z</time>
      </trkpt>
      <trkpt lat="47.72702" lon="6.81921">
        <ele>512.3688</ele>
        <time>2012-09-30T09:39:10Z</time>
      </trkpt>
      <trkpt lat="47.72701" lon="6.81929">
        <ele>512.6736</ele>
        <time>2012-09-30T09:39:11Z</time>
      </trkpt>
      <trkpt lat="47.72698" lon="6.81936">
        <ele>512.9784</ele>
        <time>2012-09-30T09:39:14Z</time>
      </trkpt>
      <trkpt lat="47.72697" lon="6.81943">
        <ele>512.9784</ele>
        <time>2012-09-30T09:39:15Z</time>
      </trkpt>
      <trkpt lat="47.72697" lon="6.81948">
        <ele>512.6736</ele>
        <time>2012-09-30T09:39:18Z</time>
      </trkpt>
      <trkpt lat="47.72697" lon="6.81953">
        <ele>512.9784</ele>
        <time>2012-09-30T09:39:19Z</time>
      </trkpt>
      <trkpt lat="47.72696" lon="6.8196">
        <ele>512.9784</ele>
        <time>2012-09-30T09:39:22Z</time>
      </trkpt>
      <trkpt lat="47.72693" lon="6.8197">
        <ele>512.3688</ele>
        <time>2012-09-30T09:39:23Z</time>
      </trkpt>
      <trkpt lat="47.72692" lon="6.81981">
        <ele>511.1496</ele>
        <time>2012-09-30T09:39:26Z</time>
      </trkpt>
      <trkpt lat="47.72691" lon="6.81993">
        <ele>509.6256</ele>
        <time>2012-09-30T09:39:27Z</time>
      </trkpt>
      <trkpt lat="47.72689" lon="6.82005">
        <ele>508.7112</ele>
        <time>2012-09-30T09:39:30Z</time>
      </trkpt>
      <trkpt lat="47.72684" lon="6.82017">
        <ele>507.7968</ele>
        <time>2012-09-30T09:39:31Z</time>
      </trkpt>
      <trkpt lat="47.72679" lon="6.82029">
        <ele>507.7968</ele>
        <time>2012-09-30T09:39:34Z</time>
      </trkpt>
      <trkpt lat="47.72673" lon="6.82041">
        <ele>507.7968</ele>
        <time>2012-09-30T09:39:35Z</time>
      </trkpt>
      <trkpt lat="47.72665" lon="6.82051">
        <ele>508.1016</ele>
        <time>2012-09-30T09:39:37Z</time>
      </trkpt>
      <trkpt lat="47.72658" lon="6.82063">
        <ele>506.5776</ele>
        <time>2012-09-30T09:39:40Z</time>
      </trkpt>
      <trkpt lat="47.72649" lon="6.82076">
        <ele>505.3584</ele>
        <time>2012-09-30T09:39:41Z</time>
      </trkpt>
      <trkpt lat="47.72641" lon="6.82089">
        <ele>505.0536</ele>
        <time>2012-09-30T09:39:44Z</time>
      </trkpt>
      <trkpt lat="47.72635" lon="6.82102">
        <ele>505.6632</ele>
        <time>2012-09-30T09:39:45Z</time>
      </trkpt>
      <trkpt lat="47.72631" lon="6.82115">
        <ele>505.6632</ele>
        <time>2012-09-30T09:39:48Z</time>
      </trkpt>
      <trkpt lat="47.72628" lon="6.82128">
        <ele>505.6632</ele>
        <time>2012-09-30T09:39:49Z</time>
      </trkpt>
      <trkpt lat="47.72624" lon="6.8214">
        <ele>505.3584</ele>
        <time>2012-09-30T09:39:52Z</time>
      </trkpt>
      <trkpt lat="47.72621" lon="6.82154">
        <ele>503.2248</ele>
        <time>2012-09-30T09:39:53Z</time>
      </trkpt>
      <trkpt lat="47.72618" lon="6.82169">
        <ele>502.92</ele>
        <time>2012-09-30T09:39:56Z</time>
      </trkpt>
      <trkpt lat="47.72614" lon="6.82182">
        <ele>502.6152</ele>
        <time>2012-09-30T09:39:57Z</time>
      </trkpt>
      <trkpt lat="47.72608" lon="6.82193">
        <ele>501.396</ele>
        <time>2012-09-30T09:40:00Z</time>
      </trkpt>
      <trkpt lat="47.72602" lon="6.82204">
        <ele>501.396</ele>
        <time>2012-09-30T09:40:01Z</time>
      </trkpt>
      <trkpt lat="47.72593" lon="6.82214">
        <ele>500.1768</ele>
        <time>2012-09-30T09:40:04Z</time>
      </trkpt>
      <trkpt lat="47.72582" lon="6.82227">
        <ele>499.5672</ele>
        <time>2012-09-30T09:40:05Z</time>
      </trkpt>
      <trkpt lat="47.72574" lon="6.82241">
        <ele>498.348</ele>
        <time>2012-09-30T09:40:08Z</time>
      </trkpt>
      <trkpt lat="47.72568" lon="6.82258">
        <ele>496.5192</ele>
        <time>2012-09-30T09:40:09Z</time>
      </trkpt>
      <trkpt lat="47.72561" lon="6.82277">
        <ele>494.9952</ele>
        <time>2012-09-30T09:40:12Z</time>
      </trkpt>
      <trkpt lat="47.72556" lon="6.82297">
        <ele>493.1664</ele>
        <time>2012-09-30T09:40:13Z</time>
      </trkpt>
      <trkpt lat="47.72551" lon="6.82315">
        <ele>492.252</ele>
        <time>2012-09-30T09:40:16Z</time>
      </trkpt>
      <trkpt lat="47.72545" lon="6.82334">
        <ele>491.3376</ele>
        <time>2012-09-30T09:40:17Z</time>
      </trkpt>
      <trkpt lat="47.7254" lon="6.82347">
        <ele>490.4232</ele>
        <time>2012-09-30T09:40:20Z</time>
      </trkpt>
      <trkpt lat="47.72536" lon="6.82356">
        <ele>489.204</ele>
        <time>2012-09-30T09:40:21Z</time>
      </trkpt>
      <trkpt lat="47.72533" lon="6.82365">
        <ele>488.5944</ele>
        <time>2012-09-30T09:40:24Z</time>
      </trkpt>
      <trkpt lat="47.72529" lon="6.82376">
        <ele>488.8992</ele>
        <time>2012-09-30T09:40:25Z</time>
      </trkpt>
      <trkpt lat="47.72523" lon="6.82387">
        <ele>487.9848</ele>
        <time>2012-09-30T09:40:28Z</time>
      </trkpt>
      <trkpt lat="47.72518" lon="6.824">
        <ele>486.156</ele>
        <time>2012-09-30T09:40:29Z</time>
      </trkpt>
      <trkpt lat="47.72514" lon="6.82414">
        <ele>484.632</ele>
        <time>2012-09-30T09:40:31Z</time>
      </trkpt>
      <trkpt lat="47.72507" lon="6.82426">
        <ele>484.0224</ele>
        <time>2012-09-30T09:40:34Z</time>
      </trkpt>
      <trkpt lat="47.72501" lon="6.82437">
        <ele>483.108</ele>
        <time>2012-09-30T09:40:35Z</time>
      </trkpt>
      <trkpt lat="47.72496" lon="6.82444">
        <ele>482.4984</ele>
        <time>2012-09-30T09:40:38Z</time>
      </trkpt>
      <trkpt lat="47.72491" lon="6.8245">
        <ele>482.1936</ele>
        <time>2012-09-30T09:40:39Z</time>
      </trkpt>
      <trkpt lat="47.72484" lon="6.82458">
        <ele>480.9744</ele>
        <time>2012-09-30T09:40:42Z</time>
      </trkpt>
      <trkpt lat="47.72477" lon="6.82465">
        <ele>480.3648</ele>
        <time>2012-09-30T09:40:43Z</time>
      </trkpt>
      <trkpt lat="47.72473" lon="6.82469">
        <ele>480.06</ele>
        <time>2012-09-30T09:40:46Z</time>
      </trkpt>
      <trkpt lat="47.72465" lon="6.82474">
        <ele>479.7552</ele>
        <time>2012-09-30T09:40:47Z</time>
      </trkpt>
      <trkpt lat="47.72455" lon="6.82481">
        <ele>480.3648</ele>
        <time>2012-09-30T09:40:50Z</time>
      </trkpt>
      <trkpt lat="47.72445" lon="6.82489">
        <ele>478.536</ele>
        <time>2012-09-30T09:40:51Z</time>
      </trkpt>
      <trkpt lat="47.72437" lon="6.82501">
        <ele>477.6216</ele>
        <time>2012-09-30T09:40:54Z</time>
      </trkpt>
      <trkpt lat="47.72431" lon="6.82514">
        <ele>476.4024</ele>
        <time>2012-09-30T09:40:55Z</time>
      </trkpt>
      <trkpt lat="47.72425" lon="6.82524">
        <ele>475.488</ele>
        <time>2012-09-30T09:40:58Z</time>
      </trkpt>
      <trkpt lat="47.72418" lon="6.82532">
        <ele>475.488</ele>
        <time>2012-09-30T09:40:59Z</time>
      </trkpt>
      <trkpt lat="47.72408" lon="6.82539">
        <ele>473.964</ele>
        <time>2012-09-30T09:41:02Z</time>
      </trkpt>
      <trkpt lat="47.72395" lon="6.82543">
        <ele>472.7448</ele>
        <time>2012-09-30T09:41:03Z</time>
      </trkpt>
      <trkpt lat="47.7238" lon="6.82547">
        <ele>472.1352</ele>
        <time>2012-09-30T09:41:06Z</time>
      </trkpt>
      <trkpt lat="47.72367" lon="6.82548">
        <ele>470.3064</ele>
        <time>2012-09-30T09:41:07Z</time>
      </trkpt>
      <trkpt lat="47.72352" lon="6.82548">
        <ele>468.7824</ele>
        <time>2012-09-30T09:41:10Z</time>
      </trkpt>
      <trkpt lat="47.72337" lon="6.82551">
        <ele>467.2584</ele>
        <time>2012-09-30T09:41:11Z</time>
      </trkpt>
      <trkpt lat="47.72321" lon="6.82555">
        <ele>465.7344</ele>
        <time>2012-09-30T09:41:14Z</time>
      </trkpt>
      <trkpt lat="47.72305" lon="6.8256">
        <ele>464.2104</ele>
        <time>2012-09-30T09:41:15Z</time>
      </trkpt>
      <trkpt lat="47.72289" lon="6.82567">
        <ele>463.296</ele>
        <time>2012-09-30T09:41:18Z</time>
      </trkpt>
      <trkpt lat="47.72274" lon="6.82575">
        <ele>462.6864</ele>
        <time>2012-09-30T09:41:19Z</time>
      </trkpt>
      <trkpt lat="47.72259" lon="6.82584">
        <ele>462.0768</ele>
        <time>2012-09-30T09:41:22Z</time>
      </trkpt>
      <trkpt lat="47.72245" lon="6.82592">
        <ele>461.4672</ele>
        <time>2012-09-30T09:41:23Z</time>
      </trkpt>
      <trkpt lat="47.72231" lon="6.82599">
        <ele>460.8576</ele>
        <time>2012-09-30T09:41:25Z</time>
      </trkpt>
      <trkpt lat="47.72217" lon="6.82605">
        <ele>460.248</ele>
        <time>2012-09-30T09:41:28Z</time>
      </trkpt>
      <trkpt lat="47.72202" lon="6.8261">
        <ele>459.6384</ele>
        <time>2012-09-30T09:41:29Z</time>
      </trkpt>
      <trkpt lat="47.72187" lon="6.82612">
        <ele>459.3336</ele>
        <time>2012-09-30T09:41:32Z</time>
      </trkpt>
      <trkpt lat="47.72172" lon="6.82611">
        <ele>459.0288</ele>
        <time>2012-09-30T09:41:33Z</time>
      </trkpt>
      <trkpt lat="47.72157" lon="6.8261">
        <ele>458.4192</ele>
        <time>2012-09-30T09:41:36Z</time>
      </trkpt>
      <trkpt lat="47.72142" lon="6.8261">
        <ele>458.4192</ele>
        <time>2012-09-30T09:41:37Z</time>
      </trkpt>
      <trkpt lat="47.72128" lon="6.82609">
        <ele>458.1144</ele>
        <time>2012-09-30T09:41:40Z</time>
      </trkpt>
      <trkpt lat="47.72113" lon="6.82608">
        <ele>457.5048</ele>
        <time>2012-09-30T09:41:41Z</time>
      </trkpt>
      <trkpt lat="47.721" lon="6.82604">
        <ele>457.2</ele>
        <time>2012-09-30T09:41:44Z</time>
      </trkpt>
      <trkpt lat="47.72086" lon="6.82603">
        <ele>456.8952</ele>
        <time>2012-09-30T09:41:45Z</time>
      </trkpt>
      <trkpt lat="47.72073" lon="6.82603">
        <ele>455.9808</ele>
        <time>2012-09-30T09:41:48Z</time>
      </trkpt>
      <trkpt lat="47.72059" lon="6.82604">
        <ele>455.3712</ele>
        <time>2012-09-30T09:41:49Z</time>
      </trkpt>
      <trkpt lat="47.72045" lon="6.82603">
        <ele>454.7616</ele>
        <time>2012-09-30T09:41:52Z</time>
      </trkpt>
      <trkpt lat="47.72032" lon="6.82602">
        <ele>454.4568</ele>
        <time>2012-09-30T09:41:53Z</time>
      </trkpt>
      <trkpt lat="47.72019" lon="6.82603">
        <ele>454.152</ele>
        <time>2012-09-30T09:41:56Z</time>
      </trkpt>
      <trkpt lat="47.72007" lon="6.82605">
        <ele>453.8472</ele>
        <time>2012-09-30T09:41:57Z</time>
      </trkpt>
      <trkpt lat="47.71994" lon="6.82606">
        <ele>453.8472</ele>
        <time>2012-09-30T09:42:00Z</time>
      </trkpt>
      <trkpt lat="47.71982" lon="6.82608">
        <ele>453.8472</ele>
        <time>2012-09-30T09:42:01Z</time>
      </trkpt>
      <trkpt lat="47.71969" lon="6.8261">
        <ele>453.8472</ele>
        <time>2012-09-30T09:42:04Z</time>
      </trkpt>
      <trkpt lat="47.71957" lon="6.82611">
        <ele>453.5424</ele>
        <time>2012-09-30T09:42:05Z</time>
      </trkpt>
      <trkpt lat="47.71946" lon="6.82612">
        <ele>453.2376</ele>
        <time>2012-09-30T09:42:08Z</time>
      </trkpt>
      <trkpt lat="47.71934" lon="6.82615">
        <ele>452.628</ele>
        <time>2012-09-30T09:42:09Z</time>
      </trkpt>
      <trkpt lat="47.71922" lon="6.82616">
        <ele>452.9328</ele>
        <time>2012-09-30T09:42:12Z</time>
      </trkpt>
      <trkpt lat="47.71911" lon="6.82619">
        <ele>452.3232</ele>
        <time>2012-09-30T09:42:13Z</time>
      </trkpt>
      <trkpt lat="47.719" lon="6.82619">
        <ele>452.9328</ele>
        <time>2012-09-30T09:42:16Z</time>
      </trkpt>
      <trkpt lat="47.71889" lon="6.82619">
        <ele>453.2376</ele>
        <time>2012-09-30T09:42:17Z</time>
      </trkpt>
      <trkpt lat="47.71879" lon="6.82621">
        <ele>453.5424</ele>
        <time>2012-09-30T09:42:19Z</time>
      </trkpt>
      <trkpt lat="47.71869" lon="6.82623">
        <ele>453.8472</ele>
        <time>2012-09-30T09:42:22Z</time>
      </trkpt>
      <trkpt lat="47.71859" lon="6.82623">
        <ele>454.4568</ele>
        <time>2012-09-30T09:42:23Z</time>
      </trkpt>
      <trkpt lat="47.7185" lon="6.82624">
        <ele>454.7616</ele>
        <time>2012-09-30T09:42:26Z</time>
      </trkpt>
      <trkpt lat="47.7184" lon="6.82625">
        <ele>454.7616</ele>
        <time>2012-09-30T09:42:27Z</time>
      </trkpt>
      <trkpt lat="47.71829" lon="6.82628">
        <ele>453.8472</ele>
        <time>2012-09-30T09:42:30Z</time>
      </trkpt>
      <trkpt lat="47.71817" lon="6.82632">
        <ele>453.2376</ele>
        <time>2012-09-30T09:42:31Z</time>
      </trkpt>
      <trkpt lat="47.71805" lon="6.82638">
        <ele>452.9328</ele>
        <time>2012-09-30T09:42:34Z</time>
      </trkpt>
      <trkpt lat="47.71794" lon="6.82645">
        <ele>452.3232</ele>
        <time>2012-09-30T09:42:35Z</time>
      </trkpt>
      <trkpt lat="47.7178" lon="6.82651">
        <ele>451.4088</ele>
        <time>2012-09-30T09:42:38Z</time>
      </trkpt>
      <trkpt lat="47.71768" lon="6.82656">
        <ele>450.1896</ele>
        <time>2012-09-30T09:42:39Z</time>
      </trkpt>
      <trkpt lat="47.71755" lon="6.82662">
        <ele>449.58</ele>
        <time>2012-09-30T09:42:42Z</time>
      </trkpt>
      <trkpt lat="47.71742" lon="6.82667">
        <ele>448.9704</ele>
        <time>2012-09-30T09:42:43Z</time>
      </trkpt>
      <trkpt lat="47.7173" lon="6.82671">
        <ele>448.6656</ele>
        <time>2012-09-30T09:42:46Z</time>
      </trkpt>
      <trkpt lat="47.71719" lon="6.82673">
        <ele>448.056</ele>
        <time>2012-09-30T09:42:47Z</time>
      </trkpt>
      <trkpt lat="47.71712" lon="6.82669">
        <ele>447.7512</ele>
        <time>2012-09-30T09:42:50Z</time>
      </trkpt>
      <trkpt lat="47.71707" lon="6.82657">
        <ele>447.7512</ele>
        <time>2012-09-30T09:42:51Z</time>
      </trkpt>
      <trkpt lat="47.71704" lon="6.82644">
        <ele>448.056</ele>
        <time>2012-09-30T09:42:54Z</time>
      </trkpt>
      <trkpt lat="47.71702" lon="6.82631">
        <ele>448.056</ele>
        <time>2012-09-30T09:42:55Z</time>
      </trkpt>
      <trkpt lat="47.717" lon="6.82618">
        <ele>448.6656</ele>
        <time>2012-09-30T09:42:58Z</time>
      </trkpt>
      <trkpt lat="47.71697" lon="6.82604">
        <ele>448.9704</ele>
        <time>2012-09-30T09:42:59Z</time>
      </trkpt>
      <trkpt lat="47.71695" lon="6.82591">
        <ele>449.2752</ele>
        <time>2012-09-30T09:43:02Z</time>
      </trkpt>
      <trkpt lat="47.71693" lon="6.82577">
        <ele>449.58</ele>
        <time>2012-09-30T09:43:03Z</time>
      </trkpt>
      <trkpt lat="47.71692" lon="6.82564">
        <ele>449.58</ele>
        <time>2012-09-30T09:43:06Z</time>
      </trkpt>
      <trkpt lat="47.71689" lon="6.82551">
        <ele>449.8848</ele>
        <time>2012-09-30T09:43:07Z</time>
      </trkpt>
      <trkpt lat="47.71687" lon="6.82538">
        <ele>450.1896</ele>
        <time>2012-09-30T09:43:10Z</time>
      </trkpt>
      <trkpt lat="47.71684" lon="6.82526">
        <ele>450.1896</ele>
        <time>2012-09-30T09:43:12Z</time>
      </trkpt>
      <trkpt lat="47.7168" lon="6.82514">
        <ele>450.4944</ele>
        <time>2012-09-30T09:43:13Z</time>
      </trkpt>
      <trkpt lat="47.71677" lon="6.825">
        <ele>451.104</ele>
        <time>2012-09-30T09:43:16Z</time>
      </trkpt>
      <trkpt lat="47.71673" lon="6.82487">
        <ele>451.4088</ele>
        <time>2012-09-30T09:43:17Z</time>
      </trkpt>
      <trkpt lat="47.7167" lon="6.82473">
        <ele>450.7992</ele>
        <time>2012-09-30T09:43:20Z</time>
      </trkpt>
      <trkpt lat="47.71667" lon="6.82459">
        <ele>450.4944</ele>
        <time>2012-09-30T09:43:21Z</time>
      </trkpt>
      <trkpt lat="47.71664" lon="6.82444">
        <ele>450.4944</ele>
        <time>2012-09-30T09:43:24Z</time>
      </trkpt>
      <trkpt lat="47.71662" lon="6.8243">
        <ele>450.1896</ele>
        <time>2012-09-30T09:43:25Z</time>
      </trkpt>
      <trkpt lat="47.7166" lon="6.82415">
        <ele>450.1896</ele>
        <time>2012-09-30T09:43:28Z</time>
      </trkpt>
      <trkpt lat="47.71658" lon="6.82401">
        <ele>449.8848</ele>
        <time>2012-09-30T09:43:29Z</time>
      </trkpt>
      <trkpt lat="47.71656" lon="6.82386">
        <ele>449.2752</ele>
        <time>2012-09-30T09:43:32Z</time>
      </trkpt>
      <trkpt lat="47.71653" lon="6.82371">
        <ele>448.3608</ele>
        <time>2012-09-30T09:43:33Z</time>
      </trkpt>
      <trkpt lat="47.7165" lon="6.82355">
        <ele>447.7512</ele>
        <time>2012-09-30T09:43:36Z</time>
      </trkpt>
      <trkpt lat="47.71647" lon="6.82339">
        <ele>447.4464</ele>
        <time>2012-09-30T09:43:37Z</time>
      </trkpt>
      <trkpt lat="47.71643" lon="6.82324">
        <ele>446.8368</ele>
        <time>2012-09-30T09:43:40Z</time>
      </trkpt>
      <trkpt lat="47.7164" lon="6.8231">
        <ele>446.2272</ele>
        <time>2012-09-30T09:43:41Z</time>
      </trkpt>
      <trkpt lat="47.71637" lon="6.82294">
        <ele>445.3128</ele>
        <time>2012-09-30T09:43:44Z</time>
      </trkpt>
      <trkpt lat="47.71634" lon="6.82277">
        <ele>444.0936</ele>
        <time>2012-09-30T09:43:45Z</time>
      </trkpt>
      <trkpt lat="47.71631" lon="6.8226">
        <ele>443.7888</ele>
        <time>2012-09-30T09:43:48Z</time>
      </trkpt>
      <trkpt lat="47.71629" lon="6.82242">
        <ele>442.8744</ele>
        <time>2012-09-30T09:43:49Z</time>
      </trkpt>
      <trkpt lat="47.71626" lon="6.82225">
        <ele>442.5696</ele>
        <time>2012-09-30T09:43:52Z</time>
      </trkpt>
      <trkpt lat="47.71622" lon="6.82209">
        <ele>441.0456</ele>
        <time>2012-09-30T09:43:53Z</time>
      </trkpt>
      <trkpt lat="47.71617" lon="6.82192">
        <ele>439.8264</ele>
        <time>2012-09-30T09:43:56Z</time>
      </trkpt>
      <trkpt lat="47.71613" lon="6.82174">
        <ele>439.5216</ele>
        <time>2012-09-30T09:43:57Z</time>
      </trkpt>
      <trkpt lat="47.71609" lon="6.82155">
        <ele>438.6072</ele>
        <time>2012-09-30T09:44:00Z</time>
      </trkpt>
      <trkpt lat="47.71604" lon="6.82136">
        <ele>437.6928</ele>
        <time>2012-09-30T09:44:01Z</time>
      </trkpt>
      <trkpt lat="47.716" lon="6.82114">
        <ele>436.7784</ele>
        <time>2012-09-30T09:44:04Z</time>
      </trkpt>
      <trkpt lat="47.71596" lon="6.82094">
        <ele>435.864</ele>
        <time>2012-09-30T09:44:06Z</time>
      </trkpt>
      <trkpt lat="47.71591" lon="6.82075">
        <ele>434.6448</ele>
        <time>2012-09-30T09:44:07Z</time>
      </trkpt>
      <trkpt lat="47.71586" lon="6.82056">
        <ele>433.7304</ele>
        <time>2012-09-30T09:44:10Z</time>
      </trkpt>
      <trkpt lat="47.71579" lon="6.8204">
        <ele>432.816</ele>
        <time>2012-09-30T09:44:11Z</time>
      </trkpt>
      <trkpt lat="47.71572" lon="6.82023">
        <ele>432.5112</ele>
        <time>2012-09-30T09:44:14Z</time>
      </trkpt>
      <trkpt lat="47.71565" lon="6.82007">
        <ele>432.5112</ele>
        <time>2012-09-30T09:44:15Z</time>
      </trkpt>
      <trkpt lat="47.71558" lon="6.8198">
        <ele>432.5112</ele>
        <time>2012-09-30T09:44:19Z</time>
      </trkpt>
      <trkpt lat="47.71556" lon="6.81971">
        <ele>432.2064</ele>
        <time>2012-09-30T09:44:19Z</time>
      </trkpt>
      <trkpt lat="47.71553" lon="6.81952">
        <ele>432.2064</ele>
        <time>2012-09-30T09:44:22Z</time>
      </trkpt>
      <trkpt lat="47.7155" lon="6.81934">
        <ele>431.9016</ele>
        <time>2012-09-30T09:44:23Z</time>
      </trkpt>
      <trkpt lat="47.71546" lon="6.81916">
        <ele>431.9016</ele>
        <time>2012-09-30T09:44:26Z</time>
      </trkpt>
      <trkpt lat="47.71543" lon="6.81899">
        <ele>431.9016</ele>
        <time>2012-09-30T09:44:27Z</time>
      </trkpt>
      <trkpt lat="47.71538" lon="6.81883">
        <ele>431.5968</ele>
        <time>2012-09-30T09:44:30Z</time>
      </trkpt>
      <trkpt lat="47.71534" lon="6.81868">
        <ele>431.5968</ele>
        <time>2012-09-30T09:44:31Z</time>
      </trkpt>
      <trkpt lat="47.71526" lon="6.81858">
        <ele>431.5968</ele>
        <time>2012-09-30T09:44:34Z</time>
      </trkpt>
      <trkpt lat="47.71516" lon="6.81855">
        <ele>431.9016</ele>
        <time>2012-09-30T09:44:35Z</time>
      </trkpt>
      <trkpt lat="47.71505" lon="6.81854">
        <ele>432.2064</ele>
        <time>2012-09-30T09:44:38Z</time>
      </trkpt>
      <trkpt lat="47.71497" lon="6.81849">
        <ele>433.1208</ele>
        <time>2012-09-30T09:44:39Z</time>
      </trkpt>
      <trkpt lat="47.71492" lon="6.81839">
        <ele>434.0352</ele>
        <time>2012-09-30T09:44:42Z</time>
      </trkpt>
      <trkpt lat="47.71489" lon="6.81828">
        <ele>435.2544</ele>
        <time>2012-09-30T09:44:43Z</time>
      </trkpt>
      <trkpt lat="47.71487" lon="6.81818">
        <ele>435.864</ele>
        <time>2012-09-30T09:44:46Z</time>
      </trkpt>
      <trkpt lat="47.71484" lon="6.81808">
        <ele>436.1688</ele>
        <time>2012-09-30T09:44:47Z</time>
      </trkpt>
      <trkpt lat="47.71481" lon="6.81798">
        <ele>436.4736</ele>
        <time>2012-09-30T09:44:50Z</time>
      </trkpt>
      <trkpt lat="47.71478" lon="6.81788">
        <ele>436.7784</ele>
        <time>2012-09-30T09:44:51Z</time>
      </trkpt>
      <trkpt lat="47.71475" lon="6.81777">
        <ele>437.0832</ele>
        <time>2012-09-30T09:44:54Z</time>
      </trkpt>
      <trkpt lat="47.7147" lon="6.81769">
        <ele>437.388</ele>
        <time>2012-09-30T09:44:55Z</time>
      </trkpt>
      <trkpt lat="47.71462" lon="6.81766">
        <ele>437.388</ele>
        <time>2012-09-30T09:44:58Z</time>
      </trkpt>
      <trkpt lat="47.71454" lon="6.81767">
        <ele>437.388</ele>
        <time>2012-09-30T09:45:00Z</time>
      </trkpt>
      <trkpt lat="47.71445" lon="6.81768">
        <ele>437.388</ele>
        <time>2012-09-30T09:45:01Z</time>
      </trkpt>
      <trkpt lat="47.71401" lon="6.81769">
        <ele>436.4736</ele>
        <time>2012-09-30T09:45:10Z</time>
      </trkpt>
      <trkpt lat="47.71395" lon="6.81767">
        <ele>436.1688</ele>
        <time>2012-09-30T09:45:12Z</time>
      </trkpt>
      <trkpt lat="47.71385" lon="6.81762">
        <ele>435.864</ele>
        <time>2012-09-30T09:45:13Z</time>
      </trkpt>
      <trkpt lat="47.71374" lon="6.81758">
        <ele>435.5592</ele>
        <time>2012-09-30T09:45:16Z</time>
      </trkpt>
      <trkpt lat="47.71364" lon="6.81752">
        <ele>435.2544</ele>
        <time>2012-09-30T09:45:17Z</time>
      </trkpt>
      <trkpt lat="47.71353" lon="6.81747">
        <ele>434.6448</ele>
        <time>2012-09-30T09:45:20Z</time>
      </trkpt>
      <trkpt lat="47.71342" lon="6.81743">
        <ele>434.34</ele>
        <time>2012-09-30T09:45:21Z</time>
      </trkpt>
      <trkpt lat="47.71332" lon="6.81738">
        <ele>434.0352</ele>
        <time>2012-09-30T09:45:24Z</time>
      </trkpt>
      <trkpt lat="47.71322" lon="6.81734">
        <ele>434.34</ele>
        <time>2012-09-30T09:45:25Z</time>
      </trkpt>
      <trkpt lat="47.71312" lon="6.81729">
        <ele>434.9496</ele>
        <time>2012-09-30T09:45:28Z</time>
      </trkpt>
      <trkpt lat="47.71302" lon="6.81723">
        <ele>434.6448</ele>
        <time>2012-09-30T09:45:29Z</time>
      </trkpt>
      <trkpt lat="47.71292" lon="6.8172">
        <ele>434.34</ele>
        <time>2012-09-30T09:45:32Z</time>
      </trkpt>
      <trkpt lat="47.71282" lon="6.81723">
        <ele>434.34</ele>
        <time>2012-09-30T09:45:33Z</time>
      </trkpt>
      <trkpt lat="47.71271" lon="6.81729">
        <ele>434.0352</ele>
        <time>2012-09-30T09:45:36Z</time>
      </trkpt>
      <trkpt lat="47.7126" lon="6.81737">
        <ele>433.7304</ele>
        <time>2012-09-30T09:45:37Z</time>
      </trkpt>
      <trkpt lat="47.7125" lon="6.81745">
        <ele>433.7304</ele>
        <time>2012-09-30T09:45:40Z</time>
      </trkpt>
      <trkpt lat="47.71239" lon="6.81753">
        <ele>433.1208</ele>
        <time>2012-09-30T09:45:41Z</time>
      </trkpt>
      <trkpt lat="47.71227" lon="6.81761">
        <ele>432.816</ele>
        <time>2012-09-30T09:45:44Z</time>
      </trkpt>
      <trkpt lat="47.71215" lon="6.8177">
        <ele>432.5112</ele>
        <time>2012-09-30T09:45:45Z</time>
      </trkpt>
      <trkpt lat="47.71203" lon="6.81779">
        <ele>432.2064</ele>
        <time>2012-09-30T09:45:48Z</time>
      </trkpt>
      <trkpt lat="47.71191" lon="6.81788">
        <ele>431.9016</ele>
        <time>2012-09-30T09:45:49Z</time>
      </trkpt>
      <trkpt lat="47.7118" lon="6.81797">
        <ele>431.5968</ele>
        <time>2012-09-30T09:45:52Z</time>
      </trkpt>
      <trkpt lat="47.71168" lon="6.81805">
        <ele>431.292</ele>
        <time>2012-09-30T09:45:54Z</time>
      </trkpt>
      <trkpt lat="47.71155" lon="6.81804">
        <ele>430.6824</ele>
        <time>2012-09-30T09:45:55Z</time>
      </trkpt>
      <trkpt lat="47.71142" lon="6.81797">
        <ele>430.3776</ele>
        <time>2012-09-30T09:45:58Z</time>
      </trkpt>
      <trkpt lat="47.71129" lon="6.81789">
        <ele>429.4632</ele>
        <time>2012-09-30T09:45:59Z</time>
      </trkpt>
      <trkpt lat="47.71116" lon="6.81781">
        <ele>429.4632</ele>
        <time>2012-09-30T09:46:02Z</time>
      </trkpt>
      <trkpt lat="47.71102" lon="6.81773">
        <ele>428.5488</ele>
        <time>2012-09-30T09:46:03Z</time>
      </trkpt>
      <trkpt lat="47.71088" lon="6.81764">
        <ele>428.244</ele>
        <time>2012-09-30T09:46:06Z</time>
      </trkpt>
      <trkpt lat="47.71075" lon="6.81757">
        <ele>428.244</ele>
        <time>2012-09-30T09:46:07Z</time>
      </trkpt>
      <trkpt lat="47.71061" lon="6.81752">
        <ele>427.6344</ele>
        <time>2012-09-30T09:46:10Z</time>
      </trkpt>
      <trkpt lat="47.71046" lon="6.81746">
        <ele>426.4152</ele>
        <time>2012-09-30T09:46:11Z</time>
      </trkpt>
      <trkpt lat="47.7103" lon="6.8174">
        <ele>425.5008</ele>
        <time>2012-09-30T09:46:14Z</time>
      </trkpt>
      <trkpt lat="47.71014" lon="6.81734">
        <ele>425.196</ele>
        <time>2012-09-30T09:46:15Z</time>
      </trkpt>
      <trkpt lat="47.70999" lon="6.81728">
        <ele>424.2816</ele>
        <time>2012-09-30T09:46:18Z</time>
      </trkpt>
      <trkpt lat="47.70986" lon="6.81716">
        <ele>423.672</ele>
        <time>2012-09-30T09:46:19Z</time>
      </trkpt>
      <trkpt lat="47.70975" lon="6.81701">
        <ele>423.0624</ele>
        <time>2012-09-30T09:46:22Z</time>
      </trkpt>
      <trkpt lat="47.70962" lon="6.81687">
        <ele>422.148</ele>
        <time>2012-09-30T09:46:23Z</time>
      </trkpt>
      <trkpt lat="47.70948" lon="6.81676">
        <ele>421.2336</ele>
        <time>2012-09-30T09:46:26Z</time>
      </trkpt>
      <trkpt lat="47.70933" lon="6.81666">
        <ele>420.9288</ele>
        <time>2012-09-30T09:46:27Z</time>
      </trkpt>
      <trkpt lat="47.70919" lon="6.81657">
        <ele>420.624</ele>
        <time>2012-09-30T09:46:30Z</time>
      </trkpt>
      <trkpt lat="47.70904" lon="6.81648">
        <ele>420.3192</ele>
        <time>2012-09-30T09:46:31Z</time>
      </trkpt>
      <trkpt lat="47.70889" lon="6.81645">
        <ele>420.0144</ele>
        <time>2012-09-30T09:46:34Z</time>
      </trkpt>
      <trkpt lat="47.70875" lon="6.81647">
        <ele>420.0144</ele>
        <time>2012-09-30T09:46:35Z</time>
      </trkpt>
      <trkpt lat="47.70862" lon="6.81655">
        <ele>420.0144</ele>
        <time>2012-09-30T09:46:38Z</time>
      </trkpt>
      <trkpt lat="47.7085" lon="6.81666">
        <ele>420.0144</ele>
        <time>2012-09-30T09:46:39Z</time>
      </trkpt>
      <trkpt lat="47.70839" lon="6.81679">
        <ele>420.0144</ele>
        <time>2012-09-30T09:46:42Z</time>
      </trkpt>
      <trkpt lat="47.7083" lon="6.81693">
        <ele>420.3192</ele>
        <time>2012-09-30T09:46:43Z</time>
      </trkpt>
      <trkpt lat="47.7082" lon="6.81706">
        <ele>420.9288</ele>
        <time>2012-09-30T09:46:46Z</time>
      </trkpt>
      <trkpt lat="47.7081" lon="6.81716">
        <ele>420.9288</ele>
        <time>2012-09-30T09:46:48Z</time>
      </trkpt>
      <trkpt lat="47.70799" lon="6.81724">
        <ele>420.9288</ele>
        <time>2012-09-30T09:46:49Z</time>
      </trkpt>
      <trkpt lat="47.70787" lon="6.81729">
        <ele>420.9288</ele>
        <time>2012-09-30T09:46:52Z</time>
      </trkpt>
      <trkpt lat="47.70775" lon="6.81733">
        <ele>420.9288</ele>
        <time>2012-09-30T09:46:53Z</time>
      </trkpt>
      <trkpt lat="47.70762" lon="6.81736">
        <ele>420.9288</ele>
        <time>2012-09-30T09:46:56Z</time>
      </trkpt>
      <trkpt lat="47.7075" lon="6.8174">
        <ele>420.624</ele>
        <time>2012-09-30T09:46:57Z</time>
      </trkpt>
      <trkpt lat="47.70738" lon="6.81744">
        <ele>420.624</ele>
        <time>2012-09-30T09:47:00Z</time>
      </trkpt>
      <trkpt lat="47.70726" lon="6.81747">
        <ele>420.624</ele>
        <time>2012-09-30T09:47:01Z</time>
      </trkpt>
      <trkpt lat="47.70713" lon="6.81752">
        <ele>420.624</ele>
        <time>2012-09-30T09:47:04Z</time>
      </trkpt>
      <trkpt lat="47.70701" lon="6.81758">
        <ele>420.3192</ele>
        <time>2012-09-30T09:47:05Z</time>
      </trkpt>
      <trkpt lat="47.70689" lon="6.81765">
        <ele>420.3192</ele>
        <time>2012-09-30T09:47:08Z</time>
      </trkpt>
      <trkpt lat="47.70678" lon="6.81774">
        <ele>420.3192</ele>
        <time>2012-09-30T09:47:09Z</time>
      </trkpt>
      <trkpt lat="47.70667" lon="6.81783">
        <ele>420.3192</ele>
        <time>2012-09-30T09:47:12Z</time>
      </trkpt>
      <trkpt lat="47.70656" lon="6.81793">
        <ele>420.3192</ele>
        <time>2012-09-30T09:47:13Z</time>
      </trkpt>
      <trkpt lat="47.70647" lon="6.81804">
        <ele>420.3192</ele>
        <time>2012-09-30T09:47:16Z</time>
      </trkpt>
      <trkpt lat="47.70638" lon="6.81815">
        <ele>420.624</ele>
        <time>2012-09-30T09:47:17Z</time>
      </trkpt>
      <trkpt lat="47.70628" lon="6.81826">
        <ele>420.624</ele>
        <time>2012-09-30T09:47:20Z</time>
      </trkpt>
      <trkpt lat="47.70619" lon="6.81837">
        <ele>420.9288</ele>
        <time>2012-09-30T09:47:21Z</time>
      </trkpt>
      <trkpt lat="47.70611" lon="6.81849">
        <ele>420.9288</ele>
        <time>2012-09-30T09:47:24Z</time>
      </trkpt>
      <trkpt lat="47.70602" lon="6.8186">
        <ele>420.9288</ele>
        <time>2012-09-30T09:47:25Z</time>
      </trkpt>
      <trkpt lat="47.70593" lon="6.8187">
        <ele>420.9288</ele>
        <time>2012-09-30T09:47:28Z</time>
      </trkpt>
      <trkpt lat="47.70584" lon="6.81878">
        <ele>420.9288</ele>
        <time>2012-09-30T09:47:29Z</time>
      </trkpt>
      <trkpt lat="47.70576" lon="6.81876">
        <ele>420.9288</ele>
        <time>2012-09-30T09:47:32Z</time>
      </trkpt>
      <trkpt lat="47.70572" lon="6.81862">
        <ele>420.9288</ele>
        <time>2012-09-30T09:47:33Z</time>
      </trkpt>
      <trkpt lat="47.70569" lon="6.81846">
        <ele>420.624</ele>
        <time>2012-09-30T09:47:36Z</time>
      </trkpt>
      <trkpt lat="47.70565" lon="6.81828">
        <ele>420.3192</ele>
        <time>2012-09-30T09:47:37Z</time>
      </trkpt>
      <trkpt lat="47.70561" lon="6.81809">
        <ele>420.0144</ele>
        <time>2012-09-30T09:47:40Z</time>
      </trkpt>
      <trkpt lat="47.70557" lon="6.8179">
        <ele>419.7096</ele>
        <time>2012-09-30T09:47:42Z</time>
      </trkpt>
      <trkpt lat="47.70554" lon="6.8177">
        <ele>419.4048</ele>
        <time>2012-09-30T09:47:43Z</time>
      </trkpt>
      <trkpt lat="47.70552" lon="6.81748">
        <ele>418.7952</ele>
        <time>2012-09-30T09:47:46Z</time>
      </trkpt>
      <trkpt lat="47.70549" lon="6.81727">
        <ele>418.4904</ele>
        <time>2012-09-30T09:47:47Z</time>
      </trkpt>
      <trkpt lat="47.70545" lon="6.81706">
        <ele>418.1856</ele>
        <time>2012-09-30T09:47:50Z</time>
      </trkpt>
      <trkpt lat="47.70539" lon="6.81686">
        <ele>418.1856</ele>
        <time>2012-09-30T09:47:51Z</time>
      </trkpt>
      <trkpt lat="47.70532" lon="6.81667">
        <ele>418.4904</ele>
        <time>2012-09-30T09:47:54Z</time>
      </trkpt>
      <trkpt lat="47.70524" lon="6.81651">
        <ele>418.4904</ele>
        <time>2012-09-30T09:47:55Z</time>
      </trkpt>
      <trkpt lat="47.70517" lon="6.81635">
        <ele>418.4904</ele>
        <time>2012-09-30T09:47:58Z</time>
      </trkpt>
      <trkpt lat="47.7051" lon="6.81618">
        <ele>417.8808</ele>
        <time>2012-09-30T09:47:59Z</time>
      </trkpt>
      <trkpt lat="47.70511" lon="6.81598">
        <ele>417.576</ele>
        <time>2012-09-30T09:48:02Z</time>
      </trkpt>
      <trkpt lat="47.70519" lon="6.8158">
        <ele>417.576</ele>
        <time>2012-09-30T09:48:03Z</time>
      </trkpt>
      <trkpt lat="47.70528" lon="6.81565">
        <ele>417.576</ele>
        <time>2012-09-30T09:48:06Z</time>
      </trkpt>
      <trkpt lat="47.70535" lon="6.81548">
        <ele>417.576</ele>
        <time>2012-09-30T09:48:07Z</time>
      </trkpt>
      <trkpt lat="47.70541" lon="6.81529">
        <ele>417.576</ele>
        <time>2012-09-30T09:48:10Z</time>
      </trkpt>
      <trkpt lat="47.70545" lon="6.8151">
        <ele>417.576</ele>
        <time>2012-09-30T09:48:11Z</time>
      </trkpt>
      <trkpt lat="47.70547" lon="6.8149">
        <ele>417.576</ele>
        <time>2012-09-30T09:48:14Z</time>
      </trkpt>
      <trkpt lat="47.70547" lon="6.8147">
        <ele>417.576</ele>
        <time>2012-09-30T09:48:15Z</time>
      </trkpt>
      <trkpt lat="47.70546" lon="6.8145">
        <ele>416.9664</ele>
        <time>2012-09-30T09:48:18Z</time>
      </trkpt>
      <trkpt lat="47.70545" lon="6.81431">
        <ele>416.6616</ele>
        <time>2012-09-30T09:48:19Z</time>
      </trkpt>
      <trkpt lat="47.70545" lon="6.81411">
        <ele>416.3568</ele>
        <time>2012-09-30T09:48:22Z</time>
      </trkpt>
      <trkpt lat="47.70546" lon="6.81392">
        <ele>416.052</ele>
        <time>2012-09-30T09:48:23Z</time>
      </trkpt>
      <trkpt lat="47.70548" lon="6.81372">
        <ele>416.052</ele>
        <time>2012-09-30T09:48:26Z</time>
      </trkpt>
      <trkpt lat="47.70551" lon="6.81354">
        <ele>416.052</ele>
        <time>2012-09-30T09:48:27Z</time>
      </trkpt>
      <trkpt lat="47.70555" lon="6.81335">
        <ele>416.052</ele>
        <time>2012-09-30T09:48:30Z</time>
      </trkpt>
      <trkpt lat="47.70562" lon="6.81319">
        <ele>416.052</ele>
        <time>2012-09-30T09:48:31Z</time>
      </trkpt>
      <trkpt lat="47.70568" lon="6.81303">
        <ele>416.3568</ele>
        <time>2012-09-30T09:48:34Z</time>
      </trkpt>
      <trkpt lat="47.70573" lon="6.81286">
        <ele>416.9664</ele>
        <time>2012-09-30T09:48:36Z</time>
      </trkpt>
      <trkpt lat="47.70576" lon="6.81268">
        <ele>416.9664</ele>
        <time>2012-09-30T09:48:37Z</time>
      </trkpt>
      <trkpt lat="47.7058" lon="6.8125">
        <ele>417.2712</ele>
        <time>2012-09-30T09:48:40Z</time>
      </trkpt>
      <trkpt lat="47.70582" lon="6.81233">
        <ele>417.576</ele>
        <time>2012-09-30T09:48:41Z</time>
      </trkpt>
      <trkpt lat="47.70583" lon="6.81215">
        <ele>417.8808</ele>
        <time>2012-09-30T09:48:44Z</time>
      </trkpt>
      <trkpt lat="47.70585" lon="6.812">
        <ele>418.1856</ele>
        <time>2012-09-30T09:48:45Z</time>
      </trkpt>
      <trkpt lat="47.70588" lon="6.81185">
        <ele>418.4904</ele>
        <time>2012-09-30T09:48:48Z</time>
      </trkpt>
      <trkpt lat="47.70591" lon="6.8117">
        <ele>418.7952</ele>
        <time>2012-09-30T09:48:49Z</time>
      </trkpt>
      <trkpt lat="47.70594" lon="6.81156">
        <ele>419.1</ele>
        <time>2012-09-30T09:48:52Z</time>
      </trkpt>
      <trkpt lat="47.70598" lon="6.81144">
        <ele>419.7096</ele>
        <time>2012-09-30T09:48:53Z</time>
      </trkpt>
      <trkpt lat="47.706" lon="6.81131">
        <ele>420.3192</ele>
        <time>2012-09-30T09:48:56Z</time>
      </trkpt>
      <trkpt lat="47.70603" lon="6.81118">
        <ele>420.9288</ele>
        <time>2012-09-30T09:48:57Z</time>
      </trkpt>
      <trkpt lat="47.70605" lon="6.81105">
        <ele>421.5384</ele>
        <time>2012-09-30T09:49:00Z</time>
      </trkpt>
      <trkpt lat="47.70608" lon="6.81092">
        <ele>422.148</ele>
        <time>2012-09-30T09:49:01Z</time>
      </trkpt>
      <trkpt lat="47.7061" lon="6.81079">
        <ele>422.148</ele>
        <time>2012-09-30T09:49:04Z</time>
      </trkpt>
      <trkpt lat="47.70613" lon="6.81065">
        <ele>422.148</ele>
        <time>2012-09-30T09:49:05Z</time>
      </trkpt>
      <trkpt lat="47.70614" lon="6.81051">
        <ele>422.7576</ele>
        <time>2012-09-30T09:49:08Z</time>
      </trkpt>
      <trkpt lat="47.70615" lon="6.81038">
        <ele>422.7576</ele>
        <time>2012-09-30T09:49:09Z</time>
      </trkpt>
      <trkpt lat="47.70615" lon="6.81024">
        <ele>423.0624</ele>
        <time>2012-09-30T09:49:12Z</time>
      </trkpt>
      <trkpt lat="47.70616" lon="6.8101">
        <ele>423.3672</ele>
        <time>2012-09-30T09:49:13Z</time>
      </trkpt>
      <trkpt lat="47.70617" lon="6.80997">
        <ele>423.3672</ele>
        <time>2012-09-30T09:49:16Z</time>
      </trkpt>
      <trkpt lat="47.70618" lon="6.80984">
        <ele>423.672</ele>
        <time>2012-09-30T09:49:17Z</time>
      </trkpt>
      <trkpt lat="47.70618" lon="6.80971">
        <ele>423.9768</ele>
        <time>2012-09-30T09:49:20Z</time>
      </trkpt>
      <trkpt lat="47.70618" lon="6.80958">
        <ele>424.5864</ele>
        <time>2012-09-30T09:49:21Z</time>
      </trkpt>
      <trkpt lat="47.70618" lon="6.80945">
        <ele>424.8912</ele>
        <time>2012-09-30T09:49:24Z</time>
      </trkpt>
      <trkpt lat="47.70617" lon="6.80933">
        <ele>424.8912</ele>
        <time>2012-09-30T09:49:25Z</time>
      </trkpt>
      <trkpt lat="47.70616" lon="6.8092">
        <ele>425.196</ele>
        <time>2012-09-30T09:49:28Z</time>
      </trkpt>
      <trkpt lat="47.70614" lon="6.80908">
        <ele>426.1104</ele>
        <time>2012-09-30T09:49:30Z</time>
      </trkpt>
      <trkpt lat="47.70613" lon="6.80896">
        <ele>426.1104</ele>
        <time>2012-09-30T09:49:31Z</time>
      </trkpt>
      <trkpt lat="47.70612" lon="6.80883">
        <ele>426.1104</ele>
        <time>2012-09-30T09:49:34Z</time>
      </trkpt>
      <trkpt lat="47.70611" lon="6.80871">
        <ele>425.8056</ele>
        <time>2012-09-30T09:49:35Z</time>
      </trkpt>
      <trkpt lat="47.7061" lon="6.80859">
        <ele>427.0248</ele>
        <time>2012-09-30T09:49:38Z</time>
      </trkpt>
      <trkpt lat="47.70609" lon="6.80846">
        <ele>427.3296</ele>
        <time>2012-09-30T09:49:39Z</time>
      </trkpt>
      <trkpt lat="47.70609" lon="6.80833">
        <ele>428.5488</ele>
        <time>2012-09-30T09:49:42Z</time>
      </trkpt>
      <trkpt lat="47.70607" lon="6.8082">
        <ele>429.1584</ele>
        <time>2012-09-30T09:49:43Z</time>
      </trkpt>
      <trkpt lat="47.70605" lon="6.80808">
        <ele>430.0728</ele>
        <time>2012-09-30T09:49:46Z</time>
      </trkpt>
      <trkpt lat="47.70603" lon="6.80796">
        <ele>431.5968</ele>
        <time>2012-09-30T09:49:47Z</time>
      </trkpt>
      <trkpt lat="47.70602" lon="6.80783">
        <ele>432.5112</ele>
        <time>2012-09-30T09:49:50Z</time>
      </trkpt>
      <trkpt lat="47.70601" lon="6.80772">
        <ele>433.1208</ele>
        <time>2012-09-30T09:49:51Z</time>
      </trkpt>
      <trkpt lat="47.70599" lon="6.80761">
        <ele>433.1208</ele>
        <time>2012-09-30T09:49:54Z</time>
      </trkpt>
      <trkpt lat="47.70597" lon="6.8075">
        <ele>434.0352</ele>
        <time>2012-09-30T09:49:55Z</time>
      </trkpt>
      <trkpt lat="47.70596" lon="6.80739">
        <ele>434.0352</ele>
        <time>2012-09-30T09:49:58Z</time>
      </trkpt>
      <trkpt lat="47.70598" lon="6.80727">
        <ele>433.7304</ele>
        <time>2012-09-30T09:49:59Z</time>
      </trkpt>
      <trkpt lat="47.706" lon="6.80716">
        <ele>434.0352</ele>
        <time>2012-09-30T09:50:02Z</time>
      </trkpt>
      <trkpt lat="47.70602" lon="6.80706">
        <ele>434.6448</ele>
        <time>2012-09-30T09:50:03Z</time>
      </trkpt>
      <trkpt lat="47.70605" lon="6.80695">
        <ele>434.9496</ele>
        <time>2012-09-30T09:50:06Z</time>
      </trkpt>
      <trkpt lat="47.70609" lon="6.80684">
        <ele>435.864</ele>
        <time>2012-09-30T09:50:07Z</time>
      </trkpt>
      <trkpt lat="47.70612" lon="6.80672">
        <ele>436.4736</ele>
        <time>2012-09-30T09:50:10Z</time>
      </trkpt>
      <trkpt lat="47.70615" lon="6.80661">
        <ele>437.0832</ele>
        <time>2012-09-30T09:50:11Z</time>
      </trkpt>
      <trkpt lat="47.70616" lon="6.8065">
        <ele>437.388</ele>
        <time>2012-09-30T09:50:14Z</time>
      </trkpt>
      <trkpt lat="47.70618" lon="6.80638">
        <ele>437.9976</ele>
        <time>2012-09-30T09:50:15Z</time>
      </trkpt>
      <trkpt lat="47.70621" lon="6.80627">
        <ele>437.9976</ele>
        <time>2012-09-30T09:50:18Z</time>
      </trkpt>
      <trkpt lat="47.70624" lon="6.80615">
        <ele>438.6072</ele>
        <time>2012-09-30T09:50:19Z</time>
      </trkpt>
      <trkpt lat="47.70627" lon="6.80603">
        <ele>438.912</ele>
        <time>2012-09-30T09:50:22Z</time>
      </trkpt>
      <trkpt lat="47.70629" lon="6.80591">
        <ele>438.3024</ele>
        <time>2012-09-30T09:50:24Z</time>
      </trkpt>
      <trkpt lat="47.7063" lon="6.80578">
        <ele>438.6072</ele>
        <time>2012-09-30T09:50:25Z</time>
      </trkpt>
      <trkpt lat="47.7063" lon="6.80566">
        <ele>439.2168</ele>
        <time>2012-09-30T09:50:28Z</time>
      </trkpt>
      <trkpt lat="47.70631" lon="6.80554">
        <ele>439.2168</ele>
        <time>2012-09-30T09:50:29Z</time>
      </trkpt>
      <trkpt lat="47.70631" lon="6.80542">
        <ele>439.2168</ele>
        <time>2012-09-30T09:50:32Z</time>
      </trkpt>
      <trkpt lat="47.70631" lon="6.8053">
        <ele>439.2168</ele>
        <time>2012-09-30T09:50:33Z</time>
      </trkpt>
      <trkpt lat="47.7063" lon="6.80516">
        <ele>439.2168</ele>
        <time>2012-09-30T09:50:36Z</time>
      </trkpt>
      <trkpt lat="47.7063" lon="6.80503">
        <ele>439.5216</ele>
        <time>2012-09-30T09:50:37Z</time>
      </trkpt>
      <trkpt lat="47.70629" lon="6.80489">
        <ele>439.8264</ele>
        <time>2012-09-30T09:50:40Z</time>
      </trkpt>
      <trkpt lat="47.7063" lon="6.80476">
        <ele>438.912</ele>
        <time>2012-09-30T09:50:41Z</time>
      </trkpt>
      <trkpt lat="47.70629" lon="6.80463">
        <ele>438.912</ele>
        <time>2012-09-30T09:50:44Z</time>
      </trkpt>
      <trkpt lat="47.7063" lon="6.80449">
        <ele>438.6072</ele>
        <time>2012-09-30T09:50:45Z</time>
      </trkpt>
      <trkpt lat="47.70629" lon="6.80436">
        <ele>438.912</ele>
        <time>2012-09-30T09:50:48Z</time>
      </trkpt>
      <trkpt lat="47.70629" lon="6.80423">
        <ele>438.912</ele>
        <time>2012-09-30T09:50:49Z</time>
      </trkpt>
      <trkpt lat="47.70629" lon="6.8041">
        <ele>438.6072</ele>
        <time>2012-09-30T09:50:52Z</time>
      </trkpt>
      <trkpt lat="47.70629" lon="6.80397">
        <ele>439.2168</ele>
        <time>2012-09-30T09:50:53Z</time>
      </trkpt>
      <trkpt lat="47.70627" lon="6.80384">
        <ele>440.436</ele>
        <time>2012-09-30T09:50:56Z</time>
      </trkpt>
      <trkpt lat="47.70628" lon="6.80371">
        <ele>441.0456</ele>
        <time>2012-09-30T09:50:57Z</time>
      </trkpt>
      <trkpt lat="47.70628" lon="6.80359">
        <ele>441.3504</ele>
        <time>2012-09-30T09:51:00Z</time>
      </trkpt>
      <trkpt lat="47.70628" lon="6.80347">
        <ele>441.0456</ele>
        <time>2012-09-30T09:51:01Z</time>
      </trkpt>
      <trkpt lat="47.70628" lon="6.80335">
        <ele>440.7408</ele>
        <time>2012-09-30T09:51:04Z</time>
      </trkpt>
      <trkpt lat="47.70628" lon="6.80323">
        <ele>441.3504</ele>
        <time>2012-09-30T09:51:05Z</time>
      </trkpt>
      <trkpt lat="47.70628" lon="6.80312">
        <ele>440.436</ele>
        <time>2012-09-30T09:51:08Z</time>
      </trkpt>
      <trkpt lat="47.70628" lon="6.803">
        <ele>440.1312</ele>
        <time>2012-09-30T09:51:09Z</time>
      </trkpt>
      <trkpt lat="47.70627" lon="6.80289">
        <ele>440.1312</ele>
        <time>2012-09-30T09:51:12Z</time>
      </trkpt>
      <trkpt lat="47.70626" lon="6.80277">
        <ele>439.8264</ele>
        <time>2012-09-30T09:51:13Z</time>
      </trkpt>
      <trkpt lat="47.70625" lon="6.80266">
        <ele>440.1312</ele>
        <time>2012-09-30T09:51:16Z</time>
      </trkpt>
      <trkpt lat="47.70624" lon="6.80254">
        <ele>440.1312</ele>
        <time>2012-09-30T09:51:17Z</time>
      </trkpt>
      <trkpt lat="47.70624" lon="6.80243">
        <ele>440.7408</ele>
        <time>2012-09-30T09:51:19Z</time>
      </trkpt>
      <trkpt lat="47.70623" lon="6.80231">
        <ele>440.436</ele>
        <time>2012-09-30T09:51:22Z</time>
      </trkpt>
      <trkpt lat="47.70621" lon="6.8022">
        <ele>440.436</ele>
        <time>2012-09-30T09:51:23Z</time>
      </trkpt>
      <trkpt lat="47.7062" lon="6.80209">
        <ele>440.1312</ele>
        <time>2012-09-30T09:51:26Z</time>
      </trkpt>
      <trkpt lat="47.70619" lon="6.80198">
        <ele>439.8264</ele>
        <time>2012-09-30T09:51:27Z</time>
      </trkpt>
      <trkpt lat="47.70617" lon="6.80187">
        <ele>440.1312</ele>
        <time>2012-09-30T09:51:30Z</time>
      </trkpt>
      <trkpt lat="47.70615" lon="6.80176">
        <ele>439.8264</ele>
        <time>2012-09-30T09:51:31Z</time>
      </trkpt>
      <trkpt lat="47.70613" lon="6.80165">
        <ele>439.8264</ele>
        <time>2012-09-30T09:51:34Z</time>
      </trkpt>
      <trkpt lat="47.7061" lon="6.80154">
        <ele>439.8264</ele>
        <time>2012-09-30T09:51:35Z</time>
      </trkpt>
      <trkpt lat="47.70609" lon="6.80143">
        <ele>440.1312</ele>
        <time>2012-09-30T09:51:38Z</time>
      </trkpt>
      <trkpt lat="47.70607" lon="6.80132">
        <ele>440.1312</ele>
        <time>2012-09-30T09:51:39Z</time>
      </trkpt>
      <trkpt lat="47.70605" lon="6.80123">
        <ele>440.7408</ele>
        <time>2012-09-30T09:51:42Z</time>
      </trkpt>
      <trkpt lat="47.70603" lon="6.80114">
        <ele>441.3504</ele>
        <time>2012-09-30T09:51:43Z</time>
      </trkpt>
      <trkpt lat="47.70602" lon="6.80105">
        <ele>441.96</ele>
        <time>2012-09-30T09:51:46Z</time>
      </trkpt>
      <trkpt lat="47.70601" lon="6.80097">
        <ele>442.2648</ele>
        <time>2012-09-30T09:51:47Z</time>
      </trkpt>
      <trkpt lat="47.70597" lon="6.80089">
        <ele>442.8744</ele>
        <time>2012-09-30T09:51:50Z</time>
      </trkpt>
      <trkpt lat="47.70595" lon="6.8008">
        <ele>443.7888</ele>
        <time>2012-09-30T09:51:51Z</time>
      </trkpt>
      <trkpt lat="47.70593" lon="6.8007">
        <ele>444.0936</ele>
        <time>2012-09-30T09:51:54Z</time>
      </trkpt>
      <trkpt lat="47.70591" lon="6.80061">
        <ele>443.7888</ele>
        <time>2012-09-30T09:51:55Z</time>
      </trkpt>
      <trkpt lat="47.70589" lon="6.80051">
        <ele>443.7888</ele>
        <time>2012-09-30T09:51:58Z</time>
      </trkpt>
      <trkpt lat="47.70587" lon="6.80042">
        <ele>443.7888</ele>
        <time>2012-09-30T09:51:59Z</time>
      </trkpt>
      <trkpt lat="47.70584" lon="6.80032">
        <ele>443.7888</ele>
        <time>2012-09-30T09:52:02Z</time>
      </trkpt>
      <trkpt lat="47.70582" lon="6.80022">
        <ele>443.1792</ele>
        <time>2012-09-30T09:52:03Z</time>
      </trkpt>
      <trkpt lat="47.70579" lon="6.80012">
        <ele>442.8744</ele>
        <time>2012-09-30T09:52:06Z</time>
      </trkpt>
      <trkpt lat="47.70578" lon="6.80002">
        <ele>442.8744</ele>
        <time>2012-09-30T09:52:07Z</time>
      </trkpt>
      <trkpt lat="47.70576" lon="6.7999">
        <ele>442.5696</ele>
        <time>2012-09-30T09:52:10Z</time>
      </trkpt>
      <trkpt lat="47.70574" lon="6.79978">
        <ele>443.1792</ele>
        <time>2012-09-30T09:52:11Z</time>
      </trkpt>
      <trkpt lat="47.70573" lon="6.79966">
        <ele>444.0936</ele>
        <time>2012-09-30T09:52:13Z</time>
      </trkpt>
      <trkpt lat="47.70572" lon="6.79954">
        <ele>444.3984</ele>
        <time>2012-09-30T09:52:16Z</time>
      </trkpt>
      <trkpt lat="47.70572" lon="6.79943">
        <ele>444.7032</ele>
        <time>2012-09-30T09:52:17Z</time>
      </trkpt>
      <trkpt lat="47.70571" lon="6.79931">
        <ele>446.2272</ele>
        <time>2012-09-30T09:52:20Z</time>
      </trkpt>
      <trkpt lat="47.7057" lon="6.7992">
        <ele>447.4464</ele>
        <time>2012-09-30T09:52:21Z</time>
      </trkpt>
      <trkpt lat="47.70569" lon="6.79909">
        <ele>448.6656</ele>
        <time>2012-09-30T09:52:24Z</time>
      </trkpt>
      <trkpt lat="47.70568" lon="6.79898">
        <ele>449.58</ele>
        <time>2012-09-30T09:52:25Z</time>
      </trkpt>
      <trkpt lat="47.70568" lon="6.79886">
        <ele>449.2752</ele>
        <time>2012-09-30T09:52:28Z</time>
      </trkpt>
      <trkpt lat="47.70569" lon="6.79874">
        <ele>449.2752</ele>
        <time>2012-09-30T09:52:29Z</time>
      </trkpt>
      <trkpt lat="47.70569" lon="6.79862">
        <ele>449.8848</ele>
        <time>2012-09-30T09:52:32Z</time>
      </trkpt>
      <trkpt lat="47.70571" lon="6.79851">
        <ele>450.4944</ele>
        <time>2012-09-30T09:52:33Z</time>
      </trkpt>
      <trkpt lat="47.70573" lon="6.79839">
        <ele>450.4944</ele>
        <time>2012-09-30T09:52:36Z</time>
      </trkpt>
      <trkpt lat="47.70574" lon="6.79827">
        <ele>451.104</ele>
        <time>2012-09-30T09:52:37Z</time>
      </trkpt>
      <trkpt lat="47.70576" lon="6.79815">
        <ele>450.4944</ele>
        <time>2012-09-30T09:52:40Z</time>
      </trkpt>
      <trkpt lat="47.70578" lon="6.79803">
        <ele>450.1896</ele>
        <time>2012-09-30T09:52:41Z</time>
      </trkpt>
      <trkpt lat="47.7058" lon="6.79789">
        <ele>449.2752</ele>
        <time>2012-09-30T09:52:44Z</time>
      </trkpt>
      <trkpt lat="47.70582" lon="6.79776">
        <ele>448.3608</ele>
        <time>2012-09-30T09:52:45Z</time>
      </trkpt>
      <trkpt lat="47.70584" lon="6.79762">
        <ele>448.3608</ele>
        <time>2012-09-30T09:52:48Z</time>
      </trkpt>
      <trkpt lat="47.70587" lon="6.79749">
        <ele>448.056</ele>
        <time>2012-09-30T09:52:49Z</time>
      </trkpt>
      <trkpt lat="47.7059" lon="6.79736">
        <ele>447.7512</ele>
        <time>2012-09-30T09:52:52Z</time>
      </trkpt>
      <trkpt lat="47.70594" lon="6.79722">
        <ele>447.1416</ele>
        <time>2012-09-30T09:52:53Z</time>
      </trkpt>
      <trkpt lat="47.70597" lon="6.79709">
        <ele>446.8368</ele>
        <time>2012-09-30T09:52:56Z</time>
      </trkpt>
      <trkpt lat="47.70601" lon="6.79695">
        <ele>446.532</ele>
        <time>2012-09-30T09:52:57Z</time>
      </trkpt>
      <trkpt lat="47.70604" lon="6.7968">
        <ele>446.2272</ele>
        <time>2012-09-30T09:53:00Z</time>
      </trkpt>
      <trkpt lat="47.70608" lon="6.79665">
        <ele>445.3128</ele>
        <time>2012-09-30T09:53:01Z</time>
      </trkpt>
      <trkpt lat="47.70611" lon="6.79648">
        <ele>444.3984</ele>
        <time>2012-09-30T09:53:04Z</time>
      </trkpt>
      <trkpt lat="47.70616" lon="6.79631">
        <ele>443.7888</ele>
        <time>2012-09-30T09:53:05Z</time>
      </trkpt>
      <trkpt lat="47.70623" lon="6.79616">
        <ele>443.484</ele>
        <time>2012-09-30T09:53:07Z</time>
      </trkpt>
      <trkpt lat="47.70631" lon="6.79603">
        <ele>443.7888</ele>
        <time>2012-09-30T09:53:10Z</time>
      </trkpt>
      <trkpt lat="47.70638" lon="6.79591">
        <ele>443.7888</ele>
        <time>2012-09-30T09:53:11Z</time>
      </trkpt>
      <trkpt lat="47.70643" lon="6.79578">
        <ele>444.0936</ele>
        <time>2012-09-30T09:53:14Z</time>
      </trkpt>
      <trkpt lat="47.70646" lon="6.79564">
        <ele>444.3984</ele>
        <time>2012-09-30T09:53:15Z</time>
      </trkpt>
      <trkpt lat="47.70648" lon="6.79551">
        <ele>444.7032</ele>
        <time>2012-09-30T09:53:18Z</time>
      </trkpt>
      <trkpt lat="47.70649" lon="6.79538">
        <ele>444.7032</ele>
        <time>2012-09-30T09:53:19Z</time>
      </trkpt>
      <trkpt lat="47.70649" lon="6.79523">
        <ele>444.7032</ele>
        <time>2012-09-30T09:53:22Z</time>
      </trkpt>
      <trkpt lat="47.7065" lon="6.79507">
        <ele>444.3984</ele>
        <time>2012-09-30T09:53:23Z</time>
      </trkpt>
      <trkpt lat="47.70651" lon="6.79491">
        <ele>444.3984</ele>
        <time>2012-09-30T09:53:26Z</time>
      </trkpt>
      <trkpt lat="47.70651" lon="6.79476">
        <ele>444.3984</ele>
        <time>2012-09-30T09:53:27Z</time>
      </trkpt>
      <trkpt lat="47.70651" lon="6.79461">
        <ele>445.008</ele>
        <time>2012-09-30T09:53:30Z</time>
      </trkpt>
      <trkpt lat="47.70651" lon="6.79446">
        <ele>445.9224</ele>
        <time>2012-09-30T09:53:31Z</time>
      </trkpt>
      <trkpt lat="47.70651" lon="6.79431">
        <ele>446.532</ele>
        <time>2012-09-30T09:53:34Z</time>
      </trkpt>
      <trkpt lat="47.70652" lon="6.79417">
        <ele>447.1416</ele>
        <time>2012-09-30T09:53:35Z</time>
      </trkpt>
      <trkpt lat="47.70653" lon="6.79402">
        <ele>447.1416</ele>
        <time>2012-09-30T09:53:38Z</time>
      </trkpt>
      <trkpt lat="47.70654" lon="6.79388">
        <ele>447.4464</ele>
        <time>2012-09-30T09:53:39Z</time>
      </trkpt>
      <trkpt lat="47.70654" lon="6.79374">
        <ele>448.056</ele>
        <time>2012-09-30T09:53:42Z</time>
      </trkpt>
      <trkpt lat="47.70656" lon="6.79361">
        <ele>448.6656</ele>
        <time>2012-09-30T09:53:43Z</time>
      </trkpt>
      <trkpt lat="47.70657" lon="6.79348">
        <ele>449.2752</ele>
        <time>2012-09-30T09:53:46Z</time>
      </trkpt>
      <trkpt lat="47.70659" lon="6.79335">
        <ele>449.2752</ele>
        <time>2012-09-30T09:53:47Z</time>
      </trkpt>
      <trkpt lat="47.70663" lon="6.79322">
        <ele>448.3608</ele>
        <time>2012-09-30T09:53:50Z</time>
      </trkpt>
      <trkpt lat="47.70667" lon="6.79309">
        <ele>448.3608</ele>
        <time>2012-09-30T09:53:51Z</time>
      </trkpt>
      <trkpt lat="47.70669" lon="6.79297">
        <ele>448.3608</ele>
        <time>2012-09-30T09:53:54Z</time>
      </trkpt>
      <trkpt lat="47.70672" lon="6.79286">
        <ele>448.6656</ele>
        <time>2012-09-30T09:53:55Z</time>
      </trkpt>
      <trkpt lat="47.70676" lon="6.79276">
        <ele>448.9704</ele>
        <time>2012-09-30T09:53:58Z</time>
      </trkpt>
      <trkpt lat="47.70681" lon="6.79266">
        <ele>449.2752</ele>
        <time>2012-09-30T09:53:59Z</time>
      </trkpt>
      <trkpt lat="47.70685" lon="6.79257">
        <ele>450.1896</ele>
        <time>2012-09-30T09:54:01Z</time>
      </trkpt>
      <trkpt lat="47.70689" lon="6.79248">
        <ele>450.4944</ele>
        <time>2012-09-30T09:54:04Z</time>
      </trkpt>
      <trkpt lat="47.70694" lon="6.79239">
        <ele>451.4088</ele>
        <time>2012-09-30T09:54:05Z</time>
      </trkpt>
      <trkpt lat="47.707" lon="6.7923">
        <ele>451.7136</ele>
        <time>2012-09-30T09:54:08Z</time>
      </trkpt>
      <trkpt lat="47.70706" lon="6.7922">
        <ele>452.0184</ele>
        <time>2012-09-30T09:54:09Z</time>
      </trkpt>
      <trkpt lat="47.70711" lon="6.7921">
        <ele>452.0184</ele>
        <time>2012-09-30T09:54:12Z</time>
      </trkpt>
      <trkpt lat="47.70715" lon="6.79199">
        <ele>452.9328</ele>
        <time>2012-09-30T09:54:13Z</time>
      </trkpt>
      <trkpt lat="47.70718" lon="6.79187">
        <ele>453.8472</ele>
        <time>2012-09-30T09:54:16Z</time>
      </trkpt>
      <trkpt lat="47.70721" lon="6.79175">
        <ele>454.152</ele>
        <time>2012-09-30T09:54:17Z</time>
      </trkpt>
      <trkpt lat="47.70719" lon="6.79164">
        <ele>453.8472</ele>
        <time>2012-09-30T09:54:20Z</time>
      </trkpt>
      <trkpt lat="47.70714" lon="6.79155">
        <ele>454.4568</ele>
        <time>2012-09-30T09:54:21Z</time>
      </trkpt>
      <trkpt lat="47.70706" lon="6.79151">
        <ele>456.5904</ele>
        <time>2012-09-30T09:54:24Z</time>
      </trkpt>
      <trkpt lat="47.70697" lon="6.7915">
        <ele>460.8576</ele>
        <time>2012-09-30T09:54:25Z</time>
      </trkpt>
      <trkpt lat="47.70689" lon="6.79152">
        <ele>463.296</ele>
        <time>2012-09-30T09:54:28Z</time>
      </trkpt>
      <trkpt lat="47.70681" lon="6.79155">
        <ele>466.6488</ele>
        <time>2012-09-30T09:54:29Z</time>
      </trkpt>
      <trkpt lat="47.70673" lon="6.79159">
        <ele>469.392</ele>
        <time>2012-09-30T09:54:32Z</time>
      </trkpt>
      <trkpt lat="47.70666" lon="6.79165">
        <ele>471.5256</ele>
        <time>2012-09-30T09:54:33Z</time>
      </trkpt>
      <trkpt lat="47.7066" lon="6.79171">
        <ele>473.6592</ele>
        <time>2012-09-30T09:54:36Z</time>
      </trkpt>
      <trkpt lat="47.70657" lon="6.79175">
        <ele>473.964</ele>
        <time>2012-09-30T09:54:37Z</time>
      </trkpt>
      <trkpt lat="47.70651" lon="6.79181">
        <ele>475.488</ele>
        <time>2012-09-30T09:54:40Z</time>
      </trkpt>
      <trkpt lat="47.70647" lon="6.79188">
        <ele>476.0976</ele>
        <time>2012-09-30T09:54:41Z</time>
      </trkpt>
      <trkpt lat="47.7064" lon="6.79195">
        <ele>475.7928</ele>
        <time>2012-09-30T09:54:44Z</time>
      </trkpt>
      <trkpt lat="47.70632" lon="6.79203">
        <ele>477.012</ele>
        <time>2012-09-30T09:54:45Z</time>
      </trkpt>
      <trkpt lat="47.70628" lon="6.79211">
        <ele>476.7072</ele>
        <time>2012-09-30T09:54:48Z</time>
      </trkpt>
      <trkpt lat="47.70624" lon="6.79219">
        <ele>476.0976</ele>
        <time>2012-09-30T09:54:49Z</time>
      </trkpt>
      <trkpt lat="47.70621" lon="6.79228">
        <ele>474.5736</ele>
        <time>2012-09-30T09:54:52Z</time>
      </trkpt>
      <trkpt lat="47.70616" lon="6.79239">
        <ele>473.3544</ele>
        <time>2012-09-30T09:54:54Z</time>
      </trkpt>
      <trkpt lat="47.70611" lon="6.79251">
        <ele>471.5256</ele>
        <time>2012-09-30T09:54:55Z</time>
      </trkpt>
      <trkpt lat="47.70606" lon="6.7926">
        <ele>470.6112</ele>
        <time>2012-09-30T09:54:58Z</time>
      </trkpt>
      <trkpt lat="47.70601" lon="6.79273">
        <ele>469.392</ele>
        <time>2012-09-30T09:54:59Z</time>
      </trkpt>
      <trkpt lat="47.70596" lon="6.79286">
        <ele>469.6968</ele>
        <time>2012-09-30T09:55:02Z</time>
      </trkpt>
      <trkpt lat="47.70591" lon="6.793">
        <ele>468.1728</ele>
        <time>2012-09-30T09:55:03Z</time>
      </trkpt>
      <trkpt lat="47.70585" lon="6.79313">
        <ele>466.344</ele>
        <time>2012-09-30T09:55:06Z</time>
      </trkpt>
      <trkpt lat="47.70581" lon="6.79325">
        <ele>466.0392</ele>
        <time>2012-09-30T09:55:07Z</time>
      </trkpt>
      <trkpt lat="47.70577" lon="6.79338">
        <ele>464.82</ele>
        <time>2012-09-30T09:55:10Z</time>
      </trkpt>
      <trkpt lat="47.70571" lon="6.79352">
        <ele>463.6008</ele>
        <time>2012-09-30T09:55:11Z</time>
      </trkpt>
      <trkpt lat="47.70567" lon="6.79366">
        <ele>462.3816</ele>
        <time>2012-09-30T09:55:14Z</time>
      </trkpt>
      <trkpt lat="47.70562" lon="6.7938">
        <ele>461.772</ele>
        <time>2012-09-30T09:55:15Z</time>
      </trkpt>
      <trkpt lat="47.70557" lon="6.79392">
        <ele>462.0768</ele>
        <time>2012-09-30T09:55:18Z</time>
      </trkpt>
      <trkpt lat="47.70552" lon="6.79404">
        <ele>461.4672</ele>
        <time>2012-09-30T09:55:19Z</time>
      </trkpt>
      <trkpt lat="47.70547" lon="6.79416">
        <ele>461.4672</ele>
        <time>2012-09-30T09:55:22Z</time>
      </trkpt>
      <trkpt lat="47.70542" lon="6.79427">
        <ele>461.4672</ele>
        <time>2012-09-30T09:55:23Z</time>
      </trkpt>
      <trkpt lat="47.70538" lon="6.79437">
        <ele>460.8576</ele>
        <time>2012-09-30T09:55:26Z</time>
      </trkpt>
      <trkpt lat="47.70535" lon="6.79446">
        <ele>461.4672</ele>
        <time>2012-09-30T09:55:27Z</time>
      </trkpt>
      <trkpt lat="47.70531" lon="6.79455">
        <ele>460.8576</ele>
        <time>2012-09-30T09:55:30Z</time>
      </trkpt>
      <trkpt lat="47.70527" lon="6.79462">
        <ele>461.1624</ele>
        <time>2012-09-30T09:55:31Z</time>
      </trkpt>
      <trkpt lat="47.70523" lon="6.7947">
        <ele>460.5528</ele>
        <time>2012-09-30T09:55:34Z</time>
      </trkpt>
      <trkpt lat="47.70519" lon="6.79475">
        <ele>460.8576</ele>
        <time>2012-09-30T09:55:35Z</time>
      </trkpt>
      <trkpt lat="47.70514" lon="6.79478">
        <ele>461.1624</ele>
        <time>2012-09-30T09:55:38Z</time>
      </trkpt>
      <trkpt lat="47.70509" lon="6.79478">
        <ele>462.0768</ele>
        <time>2012-09-30T09:55:39Z</time>
      </trkpt>
      <trkpt lat="47.70504" lon="6.79473">
        <ele>462.3816</ele>
        <time>2012-09-30T09:55:42Z</time>
      </trkpt>
      <trkpt lat="47.70501" lon="6.79466">
        <ele>461.4672</ele>
        <time>2012-09-30T09:55:43Z</time>
      </trkpt>
      <trkpt lat="47.70498" lon="6.79459">
        <ele>461.4672</ele>
        <time>2012-09-30T09:55:46Z</time>
      </trkpt>
      <trkpt lat="47.70497" lon="6.79454">
        <ele>461.772</ele>
        <time>2012-09-30T09:55:48Z</time>
      </trkpt>
      <trkpt lat="47.70495" lon="6.79449">
        <ele>462.3816</ele>
        <time>2012-09-30T09:55:49Z</time>
      </trkpt>
      <trkpt lat="47.70496" lon="6.79443">
        <ele>463.6008</ele>
        <time>2012-09-30T09:55:52Z</time>
      </trkpt>
      <trkpt lat="47.70496" lon="6.79434">
        <ele>463.9056</ele>
        <time>2012-09-30T09:55:54Z</time>
      </trkpt>
      <trkpt lat="47.70496" lon="6.79431">
        <ele>463.9056</ele>
        <time>2012-09-30T09:55:56Z</time>
      </trkpt>
      <trkpt lat="47.70497" lon="6.79426">
        <ele>463.6008</ele>
        <time>2012-09-30T09:55:57Z</time>
      </trkpt>
      <trkpt lat="47.70497" lon="6.79422">
        <ele>463.9056</ele>
        <time>2012-09-30T09:56:00Z</time>
      </trkpt>
      <trkpt lat="47.70496" lon="6.79417">
        <ele>463.6008</ele>
        <time>2012-09-30T09:56:01Z</time>
      </trkpt>
      <trkpt lat="47.70496" lon="6.79413">
        <ele>463.9056</ele>
        <time>2012-09-30T09:56:04Z</time>
      </trkpt>
      <trkpt lat="47.70495" lon="6.79408">
        <ele>464.5152</ele>
        <time>2012-09-30T09:56:05Z</time>
      </trkpt>
      <trkpt lat="47.70495" lon="6.79404">
        <ele>464.82</ele>
        <time>2012-09-30T09:56:08Z</time>
      </trkpt>
      <trkpt lat="47.70495" lon="6.794">
        <ele>464.5152</ele>
        <time>2012-09-30T09:56:09Z</time>
      </trkpt>
      <trkpt lat="47.70493" lon="6.79396">
        <ele>465.4296</ele>
        <time>2012-09-30T09:56:12Z</time>
      </trkpt>
      <trkpt lat="47.70491" lon="6.79388">
        <ele>466.9536</ele>
        <time>2012-09-30T09:56:15Z</time>
      </trkpt>
      <trkpt lat="47.70491" lon="6.79386">
        <ele>467.2584</ele>
        <time>2012-09-30T09:56:16Z</time>
      </trkpt>
      <trkpt lat="47.7049" lon="6.79381">
        <ele>468.1728</ele>
        <time>2012-09-30T09:56:17Z</time>
      </trkpt>
      <trkpt lat="47.70489" lon="6.79377">
        <ele>468.4776</ele>
        <time>2012-09-30T09:56:20Z</time>
      </trkpt>
      <trkpt lat="47.70489" lon="6.79372">
        <ele>468.4776</ele>
        <time>2012-09-30T09:56:21Z</time>
      </trkpt>
      <trkpt lat="47.70489" lon="6.79368">
        <ele>469.0872</ele>
        <time>2012-09-30T09:56:24Z</time>
      </trkpt>
      <trkpt lat="47.70489" lon="6.79364">
        <ele>469.392</ele>
        <time>2012-09-30T09:56:25Z</time>
      </trkpt>
      <trkpt lat="47.70489" lon="6.79361">
        <ele>469.6968</ele>
        <time>2012-09-30T09:56:28Z</time>
      </trkpt>
      <trkpt lat="47.7049" lon="6.79357">
        <ele>470.0016</ele>
        <time>2012-09-30T09:56:29Z</time>
      </trkpt>
      <trkpt lat="47.70491" lon="6.79354">
        <ele>470.3064</ele>
        <time>2012-09-30T09:56:32Z</time>
      </trkpt>
      <trkpt lat="47.70491" lon="6.7935">
        <ele>470.3064</ele>
        <time>2012-09-30T09:56:33Z</time>
      </trkpt>
      <trkpt lat="47.70491" lon="6.79347">
        <ele>470.6112</ele>
        <time>2012-09-30T09:56:36Z</time>
      </trkpt>
      <trkpt lat="47.70491" lon="6.79344">
        <ele>471.2208</ele>
        <time>2012-09-30T09:56:37Z</time>
      </trkpt>
      <trkpt lat="47.70492" lon="6.79341">
        <ele>471.5256</ele>
        <time>2012-09-30T09:56:40Z</time>
      </trkpt>
      <trkpt lat="47.70492" lon="6.79337">
        <ele>471.8304</ele>
        <time>2012-09-30T09:56:42Z</time>
      </trkpt>
      <trkpt lat="47.70492" lon="6.79334">
        <ele>472.1352</ele>
        <time>2012-09-30T09:56:43Z</time>
      </trkpt>
      <trkpt lat="47.70492" lon="6.79331">
        <ele>472.1352</ele>
        <time>2012-09-30T09:56:46Z</time>
      </trkpt>
      <trkpt lat="47.70493" lon="6.79327">
        <ele>472.44</ele>
        <time>2012-09-30T09:56:47Z</time>
      </trkpt>
      <trkpt lat="47.70493" lon="6.79323">
        <ele>473.3544</ele>
        <time>2012-09-30T09:56:50Z</time>
      </trkpt>
      <trkpt lat="47.70494" lon="6.7932">
        <ele>473.6592</ele>
        <time>2012-09-30T09:56:51Z</time>
      </trkpt>
      <trkpt lat="47.70493" lon="6.79316">
        <ele>474.2688</ele>
        <time>2012-09-30T09:56:54Z</time>
      </trkpt>
      <trkpt lat="47.70493" lon="6.79312">
        <ele>474.2688</ele>
        <time>2012-09-30T09:56:55Z</time>
      </trkpt>
      <trkpt lat="47.70493" lon="6.79309">
        <ele>475.488</ele>
        <time>2012-09-30T09:56:58Z</time>
      </trkpt>
      <trkpt lat="47.70493" lon="6.79305">
        <ele>475.7928</ele>
        <time>2012-09-30T09:56:59Z</time>
      </trkpt>
      <trkpt lat="47.70494" lon="6.79301">
        <ele>476.0976</ele>
        <time>2012-09-30T09:57:02Z</time>
      </trkpt>
      <trkpt lat="47.70494" lon="6.79297">
        <ele>477.3168</ele>
        <time>2012-09-30T09:57:03Z</time>
      </trkpt>
      <trkpt lat="47.70495" lon="6.79294">
        <ele>477.9264</ele>
        <time>2012-09-30T09:57:06Z</time>
      </trkpt>
      <trkpt lat="47.70496" lon="6.7929">
        <ele>478.2312</ele>
        <time>2012-09-30T09:57:07Z</time>
      </trkpt>
      <trkpt lat="47.70496" lon="6.79285">
        <ele>477.9264</ele>
        <time>2012-09-30T09:57:10Z</time>
      </trkpt>
      <trkpt lat="47.70496" lon="6.79281">
        <ele>478.2312</ele>
        <time>2012-09-30T09:57:11Z</time>
      </trkpt>
      <trkpt lat="47.70493" lon="6.79277">
        <ele>478.2312</ele>
        <time>2012-09-30T09:57:14Z</time>
      </trkpt>
      <trkpt lat="47.70494" lon="6.79273">
        <ele>479.1456</ele>
        <time>2012-09-30T09:57:15Z</time>
      </trkpt>
      <trkpt lat="47.70494" lon="6.79269">
        <ele>480.06</ele>
        <time>2012-09-30T09:57:18Z</time>
      </trkpt>
      <trkpt lat="47.70493" lon="6.79266">
        <ele>481.2792</ele>
        <time>2012-09-30T09:57:19Z</time>
      </trkpt>
      <trkpt lat="47.70494" lon="6.79262">
        <ele>481.8888</ele>
        <time>2012-09-30T09:57:22Z</time>
      </trkpt>
      <trkpt lat="47.70493" lon="6.79258">
        <ele>482.4984</ele>
        <time>2012-09-30T09:57:23Z</time>
      </trkpt>
      <trkpt lat="47.70493" lon="6.79253">
        <ele>482.8032</ele>
        <time>2012-09-30T09:57:26Z</time>
      </trkpt>
      <trkpt lat="47.70494" lon="6.79249">
        <ele>483.4128</ele>
        <time>2012-09-30T09:57:27Z</time>
      </trkpt>
      <trkpt lat="47.70494" lon="6.79245">
        <ele>483.7176</ele>
        <time>2012-09-30T09:57:30Z</time>
      </trkpt>
      <trkpt lat="47.70494" lon="6.79241">
        <ele>483.4128</ele>
        <time>2012-09-30T09:57:31Z</time>
      </trkpt>
      <trkpt lat="47.70495" lon="6.79238">
        <ele>483.4128</ele>
        <time>2012-09-30T09:57:34Z</time>
      </trkpt>
      <trkpt lat="47.70496" lon="6.79235">
        <ele>483.7176</ele>
        <time>2012-09-30T09:57:36Z</time>
      </trkpt>
      <trkpt lat="47.70497" lon="6.79233">
        <ele>484.632</ele>
        <time>2012-09-30T09:57:37Z</time>
      </trkpt>
      <trkpt lat="47.70498" lon="6.7923">
        <ele>484.9368</ele>
        <time>2012-09-30T09:57:40Z</time>
      </trkpt>
      <trkpt lat="47.70499" lon="6.79226">
        <ele>484.632</ele>
        <time>2012-09-30T09:57:41Z</time>
      </trkpt>
      <trkpt lat="47.705" lon="6.79221">
        <ele>485.2416</ele>
        <time>2012-09-30T09:57:44Z</time>
      </trkpt>
      <trkpt lat="47.705" lon="6.79217">
        <ele>484.9368</ele>
        <time>2012-09-30T09:57:45Z</time>
      </trkpt>
      <trkpt lat="47.70501" lon="6.79212">
        <ele>485.2416</ele>
        <time>2012-09-30T09:57:48Z</time>
      </trkpt>
      <trkpt lat="47.70501" lon="6.79207">
        <ele>484.9368</ele>
        <time>2012-09-30T09:57:49Z</time>
      </trkpt>
      <trkpt lat="47.70501" lon="6.79203">
        <ele>485.5464</ele>
        <time>2012-09-30T09:57:52Z</time>
      </trkpt>
      <trkpt lat="47.70502" lon="6.79199">
        <ele>485.2416</ele>
        <time>2012-09-30T09:57:53Z</time>
      </trkpt>
      <trkpt lat="47.70503" lon="6.79195">
        <ele>485.8512</ele>
        <time>2012-09-30T09:57:56Z</time>
      </trkpt>
      <trkpt lat="47.70504" lon="6.7919">
        <ele>486.4608</ele>
        <time>2012-09-30T09:57:57Z</time>
      </trkpt>
      <trkpt lat="47.70505" lon="6.79185">
        <ele>486.7656</ele>
        <time>2012-09-30T09:58:00Z</time>
      </trkpt>
      <trkpt lat="47.70505" lon="6.79181">
        <ele>487.3752</ele>
        <time>2012-09-30T09:58:01Z</time>
      </trkpt>
      <trkpt lat="47.70506" lon="6.79176">
        <ele>487.9848</ele>
        <time>2012-09-30T09:58:04Z</time>
      </trkpt>
      <trkpt lat="47.70507" lon="6.79172">
        <ele>487.9848</ele>
        <time>2012-09-30T09:58:05Z</time>
      </trkpt>
      <trkpt lat="47.70508" lon="6.79168">
        <ele>487.9848</ele>
        <time>2012-09-30T09:58:08Z</time>
      </trkpt>
      <trkpt lat="47.70509" lon="6.79164">
        <ele>488.2896</ele>
        <time>2012-09-30T09:58:09Z</time>
      </trkpt>
      <trkpt lat="47.7051" lon="6.7916">
        <ele>488.5944</ele>
        <time>2012-09-30T09:58:12Z</time>
      </trkpt>
      <trkpt lat="47.70511" lon="6.79156">
        <ele>489.5088</ele>
        <time>2012-09-30T09:58:13Z</time>
      </trkpt>
      <trkpt lat="47.70511" lon="6.79152">
        <ele>489.5088</ele>
        <time>2012-09-30T09:58:16Z</time>
      </trkpt>
      <trkpt lat="47.70511" lon="6.79148">
        <ele>490.1184</ele>
        <time>2012-09-30T09:58:17Z</time>
      </trkpt>
      <trkpt lat="47.70511" lon="6.79145">
        <ele>491.0328</ele>
        <time>2012-09-30T09:58:20Z</time>
      </trkpt>
      <trkpt lat="47.70513" lon="6.79142">
        <ele>491.6424</ele>
        <time>2012-09-30T09:58:21Z</time>
      </trkpt>
      <trkpt lat="47.70514" lon="6.79138">
        <ele>491.9472</ele>
        <time>2012-09-30T09:58:24Z</time>
      </trkpt>
      <trkpt lat="47.70515" lon="6.79135">
        <ele>492.252</ele>
        <time>2012-09-30T09:58:25Z</time>
      </trkpt>
      <trkpt lat="47.70517" lon="6.79131">
        <ele>492.5568</ele>
        <time>2012-09-30T09:58:28Z</time>
      </trkpt>
      <trkpt lat="47.70518" lon="6.7913">
        <ele>492.8616</ele>
        <time>2012-09-30T09:58:30Z</time>
      </trkpt>
      <trkpt lat="47.7052" lon="6.79127">
        <ele>493.1664</ele>
        <time>2012-09-30T09:58:31Z</time>
      </trkpt>
      <trkpt lat="47.70522" lon="6.79124">
        <ele>493.776</ele>
        <time>2012-09-30T09:58:34Z</time>
      </trkpt>
      <trkpt lat="47.70524" lon="6.79121">
        <ele>494.6904</ele>
        <time>2012-09-30T09:58:35Z</time>
      </trkpt>
      <trkpt lat="47.70525" lon="6.79117">
        <ele>495.3</ele>
        <time>2012-09-30T09:58:38Z</time>
      </trkpt>
      <trkpt lat="47.70526" lon="6.79114">
        <ele>495.3</ele>
        <time>2012-09-30T09:58:39Z</time>
      </trkpt>
      <trkpt lat="47.70527" lon="6.79111">
        <ele>495.3</ele>
        <time>2012-09-30T09:58:42Z</time>
      </trkpt>
      <trkpt lat="47.70529" lon="6.79108">
        <ele>495.9096</ele>
        <time>2012-09-30T09:58:43Z</time>
      </trkpt>
      <trkpt lat="47.70531" lon="6.79105">
        <ele>496.2144</ele>
        <time>2012-09-30T09:58:46Z</time>
      </trkpt>
      <trkpt lat="47.70532" lon="6.79101">
        <ele>496.824</ele>
        <time>2012-09-30T09:58:47Z</time>
      </trkpt>
      <trkpt lat="47.70534" lon="6.79098">
        <ele>496.824</ele>
        <time>2012-09-30T09:58:50Z</time>
      </trkpt>
      <trkpt lat="47.70535" lon="6.79094">
        <ele>496.824</ele>
        <time>2012-09-30T09:58:51Z</time>
      </trkpt>
      <trkpt lat="47.70537" lon="6.79089">
        <ele>497.4336</ele>
        <time>2012-09-30T09:58:55Z</time>
      </trkpt>
      <trkpt lat="47.70537" lon="6.79088">
        <ele>497.7384</ele>
        <time>2012-09-30T09:58:55Z</time>
      </trkpt>
      <trkpt lat="47.70538" lon="6.79084">
        <ele>498.348</ele>
        <time>2012-09-30T09:58:58Z</time>
      </trkpt>
      <trkpt lat="47.70539" lon="6.79081">
        <ele>498.6528</ele>
        <time>2012-09-30T09:58:59Z</time>
      </trkpt>
      <trkpt lat="47.70541" lon="6.79077">
        <ele>498.6528</ele>
        <time>2012-09-30T09:59:02Z</time>
      </trkpt>
      <trkpt lat="47.70542" lon="6.79073">
        <ele>498.9576</ele>
        <time>2012-09-30T09:59:03Z</time>
      </trkpt>
      <trkpt lat="47.70543" lon="6.79067">
        <ele>499.872</ele>
        <time>2012-09-30T09:59:06Z</time>
      </trkpt>
      <trkpt lat="47.70544" lon="6.79066">
        <ele>500.1768</ele>
        <time>2012-09-30T09:59:07Z</time>
      </trkpt>
      <trkpt lat="47.70545" lon="6.79062">
        <ele>501.396</ele>
        <time>2012-09-30T09:59:10Z</time>
      </trkpt>
      <trkpt lat="47.70545" lon="6.79058">
        <ele>501.7008</ele>
        <time>2012-09-30T09:59:11Z</time>
      </trkpt>
      <trkpt lat="47.70546" lon="6.79054">
        <ele>501.396</ele>
        <time>2012-09-30T09:59:14Z</time>
      </trkpt>
      <trkpt lat="47.70546" lon="6.79051">
        <ele>502.0056</ele>
        <time>2012-09-30T09:59:15Z</time>
      </trkpt>
      <trkpt lat="47.70546" lon="6.79048">
        <ele>502.92</ele>
        <time>2012-09-30T09:59:18Z</time>
      </trkpt>
      <trkpt lat="47.70546" lon="6.79044">
        <ele>503.8344</ele>
        <time>2012-09-30T09:59:19Z</time>
      </trkpt>
      <trkpt lat="47.70546" lon="6.7904">
        <ele>503.8344</ele>
        <time>2012-09-30T09:59:22Z</time>
      </trkpt>
      <trkpt lat="47.70547" lon="6.79036">
        <ele>504.444</ele>
        <time>2012-09-30T09:59:24Z</time>
      </trkpt>
      <trkpt lat="47.70547" lon="6.79032">
        <ele>504.7488</ele>
        <time>2012-09-30T09:59:25Z</time>
      </trkpt>
      <trkpt lat="47.70547" lon="6.79028">
        <ele>504.1392</ele>
        <time>2012-09-30T09:59:28Z</time>
      </trkpt>
      <trkpt lat="47.70546" lon="6.79024">
        <ele>504.1392</ele>
        <time>2012-09-30T09:59:29Z</time>
      </trkpt>
      <trkpt lat="47.70545" lon="6.79021">
        <ele>503.8344</ele>
        <time>2012-09-30T09:59:32Z</time>
      </trkpt>
      <trkpt lat="47.70546" lon="6.79018">
        <ele>505.0536</ele>
        <time>2012-09-30T09:59:33Z</time>
      </trkpt>
      <trkpt lat="47.70545" lon="6.79014">
        <ele>505.6632</ele>
        <time>2012-09-30T09:59:36Z</time>
      </trkpt>
      <trkpt lat="47.70545" lon="6.7901">
        <ele>506.5776</ele>
        <time>2012-09-30T09:59:37Z</time>
      </trkpt>
      <trkpt lat="47.70546" lon="6.79006">
        <ele>506.8824</ele>
        <time>2012-09-30T09:59:40Z</time>
      </trkpt>
      <trkpt lat="47.70546" lon="6.79002">
        <ele>506.8824</ele>
        <time>2012-09-30T09:59:41Z</time>
      </trkpt>
      <trkpt lat="47.70545" lon="6.78997">
        <ele>506.8824</ele>
        <time>2012-09-30T09:59:44Z</time>
      </trkpt>
      <trkpt lat="47.70544" lon="6.78992">
        <ele>506.2728</ele>
        <time>2012-09-30T09:59:45Z</time>
      </trkpt>
      <trkpt lat="47.70544" lon="6.78988">
        <ele>505.3584</ele>
        <time>2012-09-30T09:59:48Z</time>
      </trkpt>
      <trkpt lat="47.70543" lon="6.78983">
        <ele>505.0536</ele>
        <time>2012-09-30T09:59:49Z</time>
      </trkpt>
      <trkpt lat="47.70542" lon="6.78979">
        <ele>505.3584</ele>
        <time>2012-09-30T09:59:52Z</time>
      </trkpt>
      <trkpt lat="47.70541" lon="6.78975">
        <ele>505.3584</ele>
        <time>2012-09-30T09:59:53Z</time>
      </trkpt>
      <trkpt lat="47.7054" lon="6.7897">
        <ele>505.0536</ele>
        <time>2012-09-30T09:59:56Z</time>
      </trkpt>
      <trkpt lat="47.70539" lon="6.78966">
        <ele>504.7488</ele>
        <time>2012-09-30T09:59:57Z</time>
      </trkpt>
      <trkpt lat="47.70538" lon="6.78961">
        <ele>505.0536</ele>
        <time>2012-09-30T10:00:00Z</time>
      </trkpt>
      <trkpt lat="47.70538" lon="6.78957">
        <ele>505.968</ele>
        <time>2012-09-30T10:00:01Z</time>
      </trkpt>
      <trkpt lat="47.70537" lon="6.78952">
        <ele>506.5776</ele>
        <time>2012-09-30T10:00:04Z</time>
      </trkpt>
      <trkpt lat="47.70537" lon="6.78948">
        <ele>506.8824</ele>
        <time>2012-09-30T10:00:05Z</time>
      </trkpt>
      <trkpt lat="47.70536" lon="6.78943">
        <ele>506.8824</ele>
        <time>2012-09-30T10:00:08Z</time>
      </trkpt>
      <trkpt lat="47.70535" lon="6.78938">
        <ele>506.8824</ele>
        <time>2012-09-30T10:00:09Z</time>
      </trkpt>
      <trkpt lat="47.70535" lon="6.78933">
        <ele>507.492</ele>
        <time>2012-09-30T10:00:12Z</time>
      </trkpt>
      <trkpt lat="47.70535" lon="6.78927">
        <ele>506.8824</ele>
        <time>2012-09-30T10:00:13Z</time>
      </trkpt>
      <trkpt lat="47.70534" lon="6.78922">
        <ele>505.968</ele>
        <time>2012-09-30T10:00:16Z</time>
      </trkpt>
      <trkpt lat="47.70533" lon="6.78917">
        <ele>505.3584</ele>
        <time>2012-09-30T10:00:18Z</time>
      </trkpt>
      <trkpt lat="47.70533" lon="6.78914">
        <ele>505.0536</ele>
        <time>2012-09-30T10:00:19Z</time>
      </trkpt>
      <trkpt lat="47.70532" lon="6.78909">
        <ele>505.3584</ele>
        <time>2012-09-30T10:00:22Z</time>
      </trkpt>
      <trkpt lat="47.70532" lon="6.78904">
        <ele>506.5776</ele>
        <time>2012-09-30T10:00:23Z</time>
      </trkpt>
      <trkpt lat="47.70532" lon="6.78899">
        <ele>507.492</ele>
        <time>2012-09-30T10:00:26Z</time>
      </trkpt>
      <trkpt lat="47.70532" lon="6.78894">
        <ele>507.492</ele>
        <time>2012-09-30T10:00:27Z</time>
      </trkpt>
      <trkpt lat="47.70533" lon="6.7889">
        <ele>508.1016</ele>
        <time>2012-09-30T10:00:30Z</time>
      </trkpt>
      <trkpt lat="47.70534" lon="6.78886">
        <ele>509.016</ele>
        <time>2012-09-30T10:00:31Z</time>
      </trkpt>
      <trkpt lat="47.70534" lon="6.78882">
        <ele>509.3208</ele>
        <time>2012-09-30T10:00:34Z</time>
      </trkpt>
      <trkpt lat="47.70535" lon="6.78877">
        <ele>509.9304</ele>
        <time>2012-09-30T10:00:35Z</time>
      </trkpt>
      <trkpt lat="47.70536" lon="6.78873">
        <ele>510.54</ele>
        <time>2012-09-30T10:00:38Z</time>
      </trkpt>
      <trkpt lat="47.70536" lon="6.78868">
        <ele>511.1496</ele>
        <time>2012-09-30T10:00:39Z</time>
      </trkpt>
      <trkpt lat="47.70536" lon="6.78864">
        <ele>512.3688</ele>
        <time>2012-09-30T10:00:42Z</time>
      </trkpt>
      <trkpt lat="47.70537" lon="6.78857">
        <ele>512.064</ele>
        <time>2012-09-30T10:00:43Z</time>
      </trkpt>
      <trkpt lat="47.70537" lon="6.78852">
        <ele>512.3688</ele>
        <time>2012-09-30T10:00:46Z</time>
      </trkpt>
      <trkpt lat="47.70537" lon="6.78835">
        <ele>512.3688</ele>
        <time>2012-09-30T10:00:53Z</time>
      </trkpt>
      <trkpt lat="47.70536" lon="6.7883">
        <ele>512.064</ele>
        <time>2012-09-30T10:00:54Z</time>
      </trkpt>
      <trkpt lat="47.70536" lon="6.78825">
        <ele>512.064</ele>
        <time>2012-09-30T10:00:57Z</time>
      </trkpt>
      <trkpt lat="47.70536" lon="6.7882">
        <ele>511.7592</ele>
        <time>2012-09-30T10:00:58Z</time>
      </trkpt>
      <trkpt lat="47.70536" lon="6.78815">
        <ele>511.7592</ele>
        <time>2012-09-30T10:01:01Z</time>
      </trkpt>
      <trkpt lat="47.70536" lon="6.78811">
        <ele>512.064</ele>
        <time>2012-09-30T10:01:02Z</time>
      </trkpt>
      <trkpt lat="47.70536" lon="6.78805">
        <ele>511.4544</ele>
        <time>2012-09-30T10:01:05Z</time>
      </trkpt>
      <trkpt lat="47.70537" lon="6.788">
        <ele>510.8448</ele>
        <time>2012-09-30T10:01:06Z</time>
      </trkpt>
      <trkpt lat="47.70538" lon="6.78795">
        <ele>511.1496</ele>
        <time>2012-09-30T10:01:09Z</time>
      </trkpt>
      <trkpt lat="47.70538" lon="6.78789">
        <ele>510.8448</ele>
        <time>2012-09-30T10:01:10Z</time>
      </trkpt>
      <trkpt lat="47.70538" lon="6.78784">
        <ele>511.1496</ele>
        <time>2012-09-30T10:01:13Z</time>
      </trkpt>
      <trkpt lat="47.70537" lon="6.78779">
        <ele>512.064</ele>
        <time>2012-09-30T10:01:14Z</time>
      </trkpt>
      <trkpt lat="47.70537" lon="6.78774">
        <ele>511.4544</ele>
        <time>2012-09-30T10:01:17Z</time>
      </trkpt>
      <trkpt lat="47.70536" lon="6.78768">
        <ele>512.3688</ele>
        <time>2012-09-30T10:01:18Z</time>
      </trkpt>
      <trkpt lat="47.70534" lon="6.78764">
        <ele>511.4544</ele>
        <time>2012-09-30T10:01:21Z</time>
      </trkpt>
      <trkpt lat="47.70533" lon="6.78758">
        <ele>511.1496</ele>
        <time>2012-09-30T10:01:22Z</time>
      </trkpt>
      <trkpt lat="47.70533" lon="6.78753">
        <ele>511.7592</ele>
        <time>2012-09-30T10:01:25Z</time>
      </trkpt>
      <trkpt lat="47.70532" lon="6.78748">
        <ele>512.064</ele>
        <time>2012-09-30T10:01:26Z</time>
      </trkpt>
      <trkpt lat="47.70531" lon="6.78743">
        <ele>513.2832</ele>
        <time>2012-09-30T10:01:29Z</time>
      </trkpt>
      <trkpt lat="47.70532" lon="6.78737">
        <ele>513.588</ele>
        <time>2012-09-30T10:01:30Z</time>
      </trkpt>
      <trkpt lat="47.70531" lon="6.78728">
        <ele>513.8928</ele>
        <time>2012-09-30T10:01:33Z</time>
      </trkpt>
      <trkpt lat="47.70531" lon="6.78725">
        <ele>513.588</ele>
        <time>2012-09-30T10:01:34Z</time>
      </trkpt>
      <trkpt lat="47.7053" lon="6.78719">
        <ele>513.2832</ele>
        <time>2012-09-30T10:01:37Z</time>
      </trkpt>
      <trkpt lat="47.70529" lon="6.78713">
        <ele>512.6736</ele>
        <time>2012-09-30T10:01:39Z</time>
      </trkpt>
      <trkpt lat="47.70529" lon="6.78707">
        <ele>512.6736</ele>
        <time>2012-09-30T10:01:40Z</time>
      </trkpt>
      <trkpt lat="47.70528" lon="6.78701">
        <ele>512.3688</ele>
        <time>2012-09-30T10:01:43Z</time>
      </trkpt>
      <trkpt lat="47.70527" lon="6.78695">
        <ele>512.3688</ele>
        <time>2012-09-30T10:01:44Z</time>
      </trkpt>
      <trkpt lat="47.70526" lon="6.78689">
        <ele>512.6736</ele>
        <time>2012-09-30T10:01:47Z</time>
      </trkpt>
      <trkpt lat="47.70525" lon="6.78682">
        <ele>512.6736</ele>
        <time>2012-09-30T10:01:48Z</time>
      </trkpt>
      <trkpt lat="47.70523" lon="6.78676">
        <ele>512.6736</ele>
        <time>2012-09-30T10:01:51Z</time>
      </trkpt>
      <trkpt lat="47.70522" lon="6.78669">
        <ele>512.9784</ele>
        <time>2012-09-30T10:01:52Z</time>
      </trkpt>
      <trkpt lat="47.70521" lon="6.78663">
        <ele>512.9784</ele>
        <time>2012-09-30T10:01:55Z</time>
      </trkpt>
      <trkpt lat="47.70519" lon="6.78657">
        <ele>513.2832</ele>
        <time>2012-09-30T10:01:56Z</time>
      </trkpt>
      <trkpt lat="47.70516" lon="6.78652">
        <ele>514.8072</ele>
        <time>2012-09-30T10:01:59Z</time>
      </trkpt>
      <trkpt lat="47.70514" lon="6.78646">
        <ele>515.4168</ele>
        <time>2012-09-30T10:02:00Z</time>
      </trkpt>
      <trkpt lat="47.70512" lon="6.7864">
        <ele>516.3312</ele>
        <time>2012-09-30T10:02:03Z</time>
      </trkpt>
      <trkpt lat="47.70511" lon="6.78635">
        <ele>516.636</ele>
        <time>2012-09-30T10:02:04Z</time>
      </trkpt>
      <trkpt lat="47.70508" lon="6.78629">
        <ele>517.2456</ele>
        <time>2012-09-30T10:02:07Z</time>
      </trkpt>
      <trkpt lat="47.70506" lon="6.78623">
        <ele>518.16</ele>
        <time>2012-09-30T10:02:08Z</time>
      </trkpt>
      <trkpt lat="47.70504" lon="6.78618">
        <ele>518.4648</ele>
        <time>2012-09-30T10:02:11Z</time>
      </trkpt>
      <trkpt lat="47.70502" lon="6.78613">
        <ele>519.0744</ele>
        <time>2012-09-30T10:02:12Z</time>
      </trkpt>
      <trkpt lat="47.70501" lon="6.78607">
        <ele>519.684</ele>
        <time>2012-09-30T10:02:15Z</time>
      </trkpt>
      <trkpt lat="47.705" lon="6.78601">
        <ele>519.684</ele>
        <time>2012-09-30T10:02:16Z</time>
      </trkpt>
      <trkpt lat="47.705" lon="6.78594">
        <ele>519.684</ele>
        <time>2012-09-30T10:02:19Z</time>
      </trkpt>
      <trkpt lat="47.705" lon="6.78588">
        <ele>519.684</ele>
        <time>2012-09-30T10:02:20Z</time>
      </trkpt>
      <trkpt lat="47.705" lon="6.78582">
        <ele>520.2936</ele>
        <time>2012-09-30T10:02:23Z</time>
      </trkpt>
      <trkpt lat="47.70498" lon="6.78576">
        <ele>520.5984</ele>
        <time>2012-09-30T10:02:24Z</time>
      </trkpt>
      <trkpt lat="47.70497" lon="6.78569">
        <ele>521.208</ele>
        <time>2012-09-30T10:02:27Z</time>
      </trkpt>
      <trkpt lat="47.70495" lon="6.78564">
        <ele>521.5128</ele>
        <time>2012-09-30T10:02:28Z</time>
      </trkpt>
      <trkpt lat="47.70493" lon="6.78558">
        <ele>521.5128</ele>
        <time>2012-09-30T10:02:31Z</time>
      </trkpt>
      <trkpt lat="47.70492" lon="6.78552">
        <ele>521.5128</ele>
        <time>2012-09-30T10:02:32Z</time>
      </trkpt>
      <trkpt lat="47.7049" lon="6.78548">
        <ele>522.1224</ele>
        <time>2012-09-30T10:02:34Z</time>
      </trkpt>
      <trkpt lat="47.70489" lon="6.78542">
        <ele>522.4272</ele>
        <time>2012-09-30T10:02:37Z</time>
      </trkpt>
      <trkpt lat="47.70487" lon="6.78536">
        <ele>522.4272</ele>
        <time>2012-09-30T10:02:38Z</time>
      </trkpt>
      <trkpt lat="47.70485" lon="6.78531">
        <ele>522.4272</ele>
        <time>2012-09-30T10:02:41Z</time>
      </trkpt>
      <trkpt lat="47.70484" lon="6.78525">
        <ele>522.4272</ele>
        <time>2012-09-30T10:02:42Z</time>
      </trkpt>
      <trkpt lat="47.70482" lon="6.7852">
        <ele>522.4272</ele>
        <time>2012-09-30T10:02:45Z</time>
      </trkpt>
      <trkpt lat="47.70481" lon="6.78516">
        <ele>522.4272</ele>
        <time>2012-09-30T10:02:46Z</time>
      </trkpt>
      <trkpt lat="47.7048" lon="6.7851">
        <ele>521.5128</ele>
        <time>2012-09-30T10:02:49Z</time>
      </trkpt>
      <trkpt lat="47.7048" lon="6.78504">
        <ele>520.9032</ele>
        <time>2012-09-30T10:02:50Z</time>
      </trkpt>
      <trkpt lat="47.70478" lon="6.78496">
        <ele>520.5984</ele>
        <time>2012-09-30T10:02:54Z</time>
      </trkpt>
      <trkpt lat="47.70477" lon="6.78494">
        <ele>520.5984</ele>
        <time>2012-09-30T10:02:54Z</time>
      </trkpt>
      <trkpt lat="47.70476" lon="6.78489">
        <ele>520.9032</ele>
        <time>2012-09-30T10:02:57Z</time>
      </trkpt>
      <trkpt lat="47.70474" lon="6.78484">
        <ele>519.9888</ele>
        <time>2012-09-30T10:02:58Z</time>
      </trkpt>
      <trkpt lat="47.70472" lon="6.78479">
        <ele>519.9888</ele>
        <time>2012-09-30T10:03:01Z</time>
      </trkpt>
      <trkpt lat="47.7047" lon="6.78474">
        <ele>519.684</ele>
        <time>2012-09-30T10:03:02Z</time>
      </trkpt>
      <trkpt lat="47.70468" lon="6.7847">
        <ele>520.2936</ele>
        <time>2012-09-30T10:03:05Z</time>
      </trkpt>
      <trkpt lat="47.70466" lon="6.78466">
        <ele>520.5984</ele>
        <time>2012-09-30T10:03:06Z</time>
      </trkpt>
      <trkpt lat="47.70464" lon="6.7846">
        <ele>521.5128</ele>
        <time>2012-09-30T10:03:09Z</time>
      </trkpt>
      <trkpt lat="47.70461" lon="6.78455">
        <ele>522.4272</ele>
        <time>2012-09-30T10:03:10Z</time>
      </trkpt>
      <trkpt lat="47.70459" lon="6.7845">
        <ele>523.0368</ele>
        <time>2012-09-30T10:03:13Z</time>
      </trkpt>
      <trkpt lat="47.70457" lon="6.78445">
        <ele>523.6464</ele>
        <time>2012-09-30T10:03:14Z</time>
      </trkpt>
      <trkpt lat="47.70456" lon="6.7844">
        <ele>523.3416</ele>
        <time>2012-09-30T10:03:17Z</time>
      </trkpt>
      <trkpt lat="47.70454" lon="6.78433">
        <ele>523.3416</ele>
        <time>2012-09-30T10:03:18Z</time>
      </trkpt>
      <trkpt lat="47.70452" lon="6.78427">
        <ele>523.6464</ele>
        <time>2012-09-30T10:03:21Z</time>
      </trkpt>
      <trkpt lat="47.70451" lon="6.78421">
        <ele>523.3416</ele>
        <time>2012-09-30T10:03:22Z</time>
      </trkpt>
      <trkpt lat="47.70449" lon="6.78415">
        <ele>524.5608</ele>
        <time>2012-09-30T10:03:25Z</time>
      </trkpt>
      <trkpt lat="47.70449" lon="6.78409">
        <ele>524.8656</ele>
        <time>2012-09-30T10:03:26Z</time>
      </trkpt>
      <trkpt lat="47.70448" lon="6.78403">
        <ele>526.3896</ele>
        <time>2012-09-30T10:03:28Z</time>
      </trkpt>
      <trkpt lat="47.70448" lon="6.78398">
        <ele>527.304</ele>
        <time>2012-09-30T10:03:31Z</time>
      </trkpt>
      <trkpt lat="47.70448" lon="6.78392">
        <ele>528.2184</ele>
        <time>2012-09-30T10:03:32Z</time>
      </trkpt>
      <trkpt lat="47.70447" lon="6.78386">
        <ele>528.828</ele>
        <time>2012-09-30T10:03:35Z</time>
      </trkpt>
      <trkpt lat="47.70445" lon="6.7838">
        <ele>528.828</ele>
        <time>2012-09-30T10:03:36Z</time>
      </trkpt>
      <trkpt lat="47.70444" lon="6.78375">
        <ele>528.828</ele>
        <time>2012-09-30T10:03:39Z</time>
      </trkpt>
      <trkpt lat="47.70441" lon="6.7837">
        <ele>528.828</ele>
        <time>2012-09-30T10:03:40Z</time>
      </trkpt>
      <trkpt lat="47.70438" lon="6.78364">
        <ele>529.4376</ele>
        <time>2012-09-30T10:03:43Z</time>
      </trkpt>
      <trkpt lat="47.70435" lon="6.78358">
        <ele>529.7424</ele>
        <time>2012-09-30T10:03:44Z</time>
      </trkpt>
      <trkpt lat="47.70432" lon="6.78352">
        <ele>529.4376</ele>
        <time>2012-09-30T10:03:47Z</time>
      </trkpt>
      <trkpt lat="47.70429" lon="6.78346">
        <ele>529.1328</ele>
        <time>2012-09-30T10:03:48Z</time>
      </trkpt>
      <trkpt lat="47.70425" lon="6.7834">
        <ele>529.1328</ele>
        <time>2012-09-30T10:03:51Z</time>
      </trkpt>
      <trkpt lat="47.70422" lon="6.78334">
        <ele>529.4376</ele>
        <time>2012-09-30T10:03:52Z</time>
      </trkpt>
      <trkpt lat="47.70419" lon="6.78329">
        <ele>529.4376</ele>
        <time>2012-09-30T10:03:55Z</time>
      </trkpt>
      <trkpt lat="47.70416" lon="6.78324">
        <ele>529.7424</ele>
        <time>2012-09-30T10:03:56Z</time>
      </trkpt>
      <trkpt lat="47.70412" lon="6.78318">
        <ele>529.1328</ele>
        <time>2012-09-30T10:03:59Z</time>
      </trkpt>
      <trkpt lat="47.70408" lon="6.78313">
        <ele>530.352</ele>
        <time>2012-09-30T10:04:00Z</time>
      </trkpt>
      <trkpt lat="47.70405" lon="6.78307">
        <ele>530.352</ele>
        <time>2012-09-30T10:04:03Z</time>
      </trkpt>
      <trkpt lat="47.70402" lon="6.783">
        <ele>530.352</ele>
        <time>2012-09-30T10:04:04Z</time>
      </trkpt>
      <trkpt lat="47.70398" lon="6.78292">
        <ele>530.352</ele>
        <time>2012-09-30T10:04:07Z</time>
      </trkpt>
      <trkpt lat="47.70394" lon="6.78283">
        <ele>530.9616</ele>
        <time>2012-09-30T10:04:08Z</time>
      </trkpt>
      <trkpt lat="47.70391" lon="6.78275">
        <ele>530.0472</ele>
        <time>2012-09-30T10:04:11Z</time>
      </trkpt>
      <trkpt lat="47.70387" lon="6.78266">
        <ele>529.7424</ele>
        <time>2012-09-30T10:04:12Z</time>
      </trkpt>
      <trkpt lat="47.70384" lon="6.78255">
        <ele>529.4376</ele>
        <time>2012-09-30T10:04:15Z</time>
      </trkpt>
      <trkpt lat="47.70381" lon="6.78244">
        <ele>529.1328</ele>
        <time>2012-09-30T10:04:16Z</time>
      </trkpt>
      <trkpt lat="47.70378" lon="6.78232">
        <ele>528.2184</ele>
        <time>2012-09-30T10:04:19Z</time>
      </trkpt>
      <trkpt lat="47.70374" lon="6.7822">
        <ele>527.9136</ele>
        <time>2012-09-30T10:04:20Z</time>
      </trkpt>
      <trkpt lat="47.70368" lon="6.78206">
        <ele>526.6944</ele>
        <time>2012-09-30T10:04:22Z</time>
      </trkpt>
      <trkpt lat="47.70362" lon="6.78192">
        <ele>525.78</ele>
        <time>2012-09-30T10:04:25Z</time>
      </trkpt>
      <trkpt lat="47.70355" lon="6.78181">
        <ele>526.0848</ele>
        <time>2012-09-30T10:04:26Z</time>
      </trkpt>
      <trkpt lat="47.70347" lon="6.78173">
        <ele>525.4752</ele>
        <time>2012-09-30T10:04:29Z</time>
      </trkpt>
      <trkpt lat="47.70342" lon="6.78161">
        <ele>524.8656</ele>
        <time>2012-09-30T10:04:30Z</time>
      </trkpt>
      <trkpt lat="47.70341" lon="6.7815">
        <ele>523.6464</ele>
        <time>2012-09-30T10:04:33Z</time>
      </trkpt>
      <trkpt lat="47.70345" lon="6.78139">
        <ele>523.9512</ele>
        <time>2012-09-30T10:04:34Z</time>
      </trkpt>
      <trkpt lat="47.70347" lon="6.78126">
        <ele>522.1224</ele>
        <time>2012-09-30T10:04:37Z</time>
      </trkpt>
      <trkpt lat="47.70343" lon="6.78116">
        <ele>520.5984</ele>
        <time>2012-09-30T10:04:38Z</time>
      </trkpt>
      <trkpt lat="47.70337" lon="6.78107">
        <ele>519.9888</ele>
        <time>2012-09-30T10:04:41Z</time>
      </trkpt>
      <trkpt lat="47.70333" lon="6.78096">
        <ele>518.16</ele>
        <time>2012-09-30T10:04:42Z</time>
      </trkpt>
      <trkpt lat="47.7033" lon="6.78084">
        <ele>516.3312</ele>
        <time>2012-09-30T10:04:45Z</time>
      </trkpt>
      <trkpt lat="47.70326" lon="6.78072">
        <ele>516.3312</ele>
        <time>2012-09-30T10:04:46Z</time>
      </trkpt>
      <trkpt lat="47.70323" lon="6.7806">
        <ele>517.5504</ele>
        <time>2012-09-30T10:04:49Z</time>
      </trkpt>
      <trkpt lat="47.70321" lon="6.78048">
        <ele>516.9408</ele>
        <time>2012-09-30T10:04:50Z</time>
      </trkpt>
      <trkpt lat="47.70319" lon="6.78037">
        <ele>516.0264</ele>
        <time>2012-09-30T10:04:53Z</time>
      </trkpt>
      <trkpt lat="47.70318" lon="6.78026">
        <ele>516.0264</ele>
        <time>2012-09-30T10:04:54Z</time>
      </trkpt>
      <trkpt lat="47.70315" lon="6.78018">
        <ele>518.4648</ele>
        <time>2012-09-30T10:04:57Z</time>
      </trkpt>
      <trkpt lat="47.70311" lon="6.78014">
        <ele>517.8552</ele>
        <time>2012-09-30T10:04:58Z</time>
      </trkpt>
      <trkpt lat="47.70306" lon="6.78009">
        <ele>516.9408</ele>
        <time>2012-09-30T10:05:01Z</time>
      </trkpt>
      <trkpt lat="47.70301" lon="6.78001">
        <ele>518.16</ele>
        <time>2012-09-30T10:05:02Z</time>
      </trkpt>
      <trkpt lat="47.70298" lon="6.7799">
        <ele>516.9408</ele>
        <time>2012-09-30T10:05:05Z</time>
      </trkpt>
      <trkpt lat="47.70296" lon="6.77976">
        <ele>516.0264</ele>
        <time>2012-09-30T10:05:06Z</time>
      </trkpt>
      <trkpt lat="47.70293" lon="6.77961">
        <ele>518.4648</ele>
        <time>2012-09-30T10:05:09Z</time>
      </trkpt>
      <trkpt lat="47.70291" lon="6.77946">
        <ele>518.16</ele>
        <time>2012-09-30T10:05:10Z</time>
      </trkpt>
      <trkpt lat="47.70289" lon="6.77931">
        <ele>518.16</ele>
        <time>2012-09-30T10:05:13Z</time>
      </trkpt>
      <trkpt lat="47.70284" lon="6.77917">
        <ele>517.8552</ele>
        <time>2012-09-30T10:05:14Z</time>
      </trkpt>
      <trkpt lat="47.70279" lon="6.77902">
        <ele>517.8552</ele>
        <time>2012-09-30T10:05:16Z</time>
      </trkpt>
      <trkpt lat="47.70275" lon="6.77887">
        <ele>516.636</ele>
        <time>2012-09-30T10:05:19Z</time>
      </trkpt>
      <trkpt lat="47.7027" lon="6.77872">
        <ele>517.5504</ele>
        <time>2012-09-30T10:05:20Z</time>
      </trkpt>
      <trkpt lat="47.70267" lon="6.77857">
        <ele>516.3312</ele>
        <time>2012-09-30T10:05:23Z</time>
      </trkpt>
      <trkpt lat="47.70265" lon="6.77842">
        <ele>515.7216</ele>
        <time>2012-09-30T10:05:24Z</time>
      </trkpt>
      <trkpt lat="47.70262" lon="6.77827">
        <ele>515.112</ele>
        <time>2012-09-30T10:05:27Z</time>
      </trkpt>
      <trkpt lat="47.70259" lon="6.77812">
        <ele>513.2832</ele>
        <time>2012-09-30T10:05:28Z</time>
      </trkpt>
      <trkpt lat="47.70256" lon="6.77798">
        <ele>513.2832</ele>
        <time>2012-09-30T10:05:31Z</time>
      </trkpt>
      <trkpt lat="47.70253" lon="6.77783">
        <ele>511.4544</ele>
        <time>2012-09-30T10:05:32Z</time>
      </trkpt>
      <trkpt lat="47.7025" lon="6.77769">
        <ele>513.2832</ele>
        <time>2012-09-30T10:05:35Z</time>
      </trkpt>
      <trkpt lat="47.70247" lon="6.77756">
        <ele>513.8928</ele>
        <time>2012-09-30T10:05:36Z</time>
      </trkpt>
      <trkpt lat="47.70243" lon="6.77743">
        <ele>516.0264</ele>
        <time>2012-09-30T10:05:39Z</time>
      </trkpt>
      <trkpt lat="47.7024" lon="6.7773">
        <ele>516.3312</ele>
        <time>2012-09-30T10:05:40Z</time>
      </trkpt>
      <trkpt lat="47.70236" lon="6.77716">
        <ele>515.4168</ele>
        <time>2012-09-30T10:05:43Z</time>
      </trkpt>
      <trkpt lat="47.70234" lon="6.77702">
        <ele>514.1976</ele>
        <time>2012-09-30T10:05:44Z</time>
      </trkpt>
      <trkpt lat="47.70233" lon="6.77689">
        <ele>512.9784</ele>
        <time>2012-09-30T10:05:47Z</time>
      </trkpt>
      <trkpt lat="47.7023" lon="6.77674">
        <ele>511.7592</ele>
        <time>2012-09-30T10:05:48Z</time>
      </trkpt>
      <trkpt lat="47.70226" lon="6.77657">
        <ele>510.54</ele>
        <time>2012-09-30T10:05:51Z</time>
      </trkpt>
      <trkpt lat="47.70222" lon="6.77639">
        <ele>508.7112</ele>
        <time>2012-09-30T10:05:52Z</time>
      </trkpt>
      <trkpt lat="47.70219" lon="6.77621">
        <ele>508.4064</ele>
        <time>2012-09-30T10:05:55Z</time>
      </trkpt>
      <trkpt lat="47.70218" lon="6.77603">
        <ele>508.1016</ele>
        <time>2012-09-30T10:05:56Z</time>
      </trkpt>
      <trkpt lat="47.70217" lon="6.77586">
        <ele>509.6256</ele>
        <time>2012-09-30T10:05:59Z</time>
      </trkpt>
      <trkpt lat="47.70216" lon="6.7757">
        <ele>511.1496</ele>
        <time>2012-09-30T10:06:00Z</time>
      </trkpt>
      <trkpt lat="47.70214" lon="6.77555">
        <ele>510.8448</ele>
        <time>2012-09-30T10:06:03Z</time>
      </trkpt>
      <trkpt lat="47.70212" lon="6.77541">
        <ele>509.6256</ele>
        <time>2012-09-30T10:06:04Z</time>
      </trkpt>
      <trkpt lat="47.7021" lon="6.77526">
        <ele>508.4064</ele>
        <time>2012-09-30T10:06:07Z</time>
      </trkpt>
      <trkpt lat="47.70209" lon="6.7751">
        <ele>507.7968</ele>
        <time>2012-09-30T10:06:09Z</time>
      </trkpt>
      <trkpt lat="47.70209" lon="6.77493">
        <ele>507.1872</ele>
        <time>2012-09-30T10:06:10Z</time>
      </trkpt>
      <trkpt lat="47.7021" lon="6.77477">
        <ele>506.8824</ele>
        <time>2012-09-30T10:06:13Z</time>
      </trkpt>
      <trkpt lat="47.70211" lon="6.77462">
        <ele>507.1872</ele>
        <time>2012-09-30T10:06:14Z</time>
      </trkpt>
      <trkpt lat="47.70214" lon="6.77448">
        <ele>507.7968</ele>
        <time>2012-09-30T10:06:17Z</time>
      </trkpt>
      <trkpt lat="47.70217" lon="6.77434">
        <ele>508.7112</ele>
        <time>2012-09-30T10:06:18Z</time>
      </trkpt>
      <trkpt lat="47.70219" lon="6.77421">
        <ele>509.6256</ele>
        <time>2012-09-30T10:06:21Z</time>
      </trkpt>
      <trkpt lat="47.70222" lon="6.7741">
        <ele>510.54</ele>
        <time>2012-09-30T10:06:22Z</time>
      </trkpt>
      <trkpt lat="47.70224" lon="6.77398">
        <ele>511.7592</ele>
        <time>2012-09-30T10:06:25Z</time>
      </trkpt>
      <trkpt lat="47.70226" lon="6.77386">
        <ele>513.2832</ele>
        <time>2012-09-30T10:06:26Z</time>
      </trkpt>
      <trkpt lat="47.70229" lon="6.77375">
        <ele>514.8072</ele>
        <time>2012-09-30T10:06:29Z</time>
      </trkpt>
      <trkpt lat="47.70231" lon="6.77364">
        <ele>516.0264</ele>
        <time>2012-09-30T10:06:30Z</time>
      </trkpt>
      <trkpt lat="47.70232" lon="6.77354">
        <ele>515.7216</ele>
        <time>2012-09-30T10:06:33Z</time>
      </trkpt>
      <trkpt lat="47.70233" lon="6.77342">
        <ele>515.4168</ele>
        <time>2012-09-30T10:06:34Z</time>
      </trkpt>
      <trkpt lat="47.70233" lon="6.77331">
        <ele>515.7216</ele>
        <time>2012-09-30T10:06:37Z</time>
      </trkpt>
      <trkpt lat="47.70235" lon="6.7732">
        <ele>515.112</ele>
        <time>2012-09-30T10:06:38Z</time>
      </trkpt>
      <trkpt lat="47.70237" lon="6.7731">
        <ele>514.5024</ele>
        <time>2012-09-30T10:06:41Z</time>
      </trkpt>
      <trkpt lat="47.7024" lon="6.773">
        <ele>514.5024</ele>
        <time>2012-09-30T10:06:42Z</time>
      </trkpt>
      <trkpt lat="47.70242" lon="6.7729">
        <ele>513.588</ele>
        <time>2012-09-30T10:06:45Z</time>
      </trkpt>
      <trkpt lat="47.70244" lon="6.77281">
        <ele>513.8928</ele>
        <time>2012-09-30T10:06:46Z</time>
      </trkpt>
      <trkpt lat="47.70245" lon="6.77271">
        <ele>514.5024</ele>
        <time>2012-09-30T10:06:49Z</time>
      </trkpt>
      <trkpt lat="47.70246" lon="6.77261">
        <ele>514.5024</ele>
        <time>2012-09-30T10:06:50Z</time>
      </trkpt>
      <trkpt lat="47.70247" lon="6.77251">
        <ele>515.112</ele>
        <time>2012-09-30T10:06:53Z</time>
      </trkpt>
      <trkpt lat="47.70248" lon="6.77242">
        <ele>515.112</ele>
        <time>2012-09-30T10:06:54Z</time>
      </trkpt>
      <trkpt lat="47.70248" lon="6.77234">
        <ele>515.4168</ele>
        <time>2012-09-30T10:06:57Z</time>
      </trkpt>
      <trkpt lat="47.70249" lon="6.77226">
        <ele>516.0264</ele>
        <time>2012-09-30T10:06:58Z</time>
      </trkpt>
      <trkpt lat="47.7025" lon="6.77219">
        <ele>516.636</ele>
        <time>2012-09-30T10:07:01Z</time>
      </trkpt>
      <trkpt lat="47.70252" lon="6.77213">
        <ele>517.2456</ele>
        <time>2012-09-30T10:07:03Z</time>
      </trkpt>
      <trkpt lat="47.70253" lon="6.77207">
        <ele>517.2456</ele>
        <time>2012-09-30T10:07:04Z</time>
      </trkpt>
      <trkpt lat="47.70254" lon="6.77201">
        <ele>516.9408</ele>
        <time>2012-09-30T10:07:07Z</time>
      </trkpt>
      <trkpt lat="47.70255" lon="6.77194">
        <ele>517.8552</ele>
        <time>2012-09-30T10:07:08Z</time>
      </trkpt>
      <trkpt lat="47.70255" lon="6.77187">
        <ele>517.8552</ele>
        <time>2012-09-30T10:07:11Z</time>
      </trkpt>
      <trkpt lat="47.70254" lon="6.77176">
        <ele>516.9408</ele>
        <time>2012-09-30T10:07:12Z</time>
      </trkpt>
      <trkpt lat="47.70253" lon="6.77165">
        <ele>516.3312</ele>
        <time>2012-09-30T10:07:15Z</time>
      </trkpt>
      <trkpt lat="47.70254" lon="6.77153">
        <ele>515.7216</ele>
        <time>2012-09-30T10:07:16Z</time>
      </trkpt>
      <trkpt lat="47.70255" lon="6.77141">
        <ele>514.1976</ele>
        <time>2012-09-30T10:07:19Z</time>
      </trkpt>
      <trkpt lat="47.70255" lon="6.77129">
        <ele>512.9784</ele>
        <time>2012-09-30T10:07:20Z</time>
      </trkpt>
      <trkpt lat="47.70253" lon="6.77116">
        <ele>512.064</ele>
        <time>2012-09-30T10:07:23Z</time>
      </trkpt>
      <trkpt lat="47.70253" lon="6.77104">
        <ele>511.4544</ele>
        <time>2012-09-30T10:07:24Z</time>
      </trkpt>
      <trkpt lat="47.70252" lon="6.77091">
        <ele>509.9304</ele>
        <time>2012-09-30T10:07:27Z</time>
      </trkpt>
      <trkpt lat="47.7025" lon="6.77079">
        <ele>509.6256</ele>
        <time>2012-09-30T10:07:28Z</time>
      </trkpt>
      <trkpt lat="47.70247" lon="6.77067">
        <ele>509.6256</ele>
        <time>2012-09-30T10:07:31Z</time>
      </trkpt>
      <trkpt lat="47.70244" lon="6.77058">
        <ele>509.016</ele>
        <time>2012-09-30T10:07:32Z</time>
      </trkpt>
      <trkpt lat="47.70242" lon="6.77054">
        <ele>508.4064</ele>
        <time>2012-09-30T10:07:36Z</time>
      </trkpt>
      <trkpt lat="47.70238" lon="6.77053">
        <ele>508.1016</ele>
        <time>2012-09-30T10:07:39Z</time>
      </trkpt>
      <trkpt lat="47.70233" lon="6.77053">
        <ele>508.1016</ele>
        <time>2012-09-30T10:07:40Z</time>
      </trkpt>
      <trkpt lat="47.70226" lon="6.77052">
        <ele>508.1016</ele>
        <time>2012-09-30T10:07:43Z</time>
      </trkpt>
      <trkpt lat="47.70218" lon="6.77049">
        <ele>509.3208</ele>
        <time>2012-09-30T10:07:44Z</time>
      </trkpt>
      <trkpt lat="47.70212" lon="6.77044">
        <ele>509.6256</ele>
        <time>2012-09-30T10:07:47Z</time>
      </trkpt>
      <trkpt lat="47.70207" lon="6.77032">
        <ele>510.2352</ele>
        <time>2012-09-30T10:07:48Z</time>
      </trkpt>
      <trkpt lat="47.70202" lon="6.77018">
        <ele>510.2352</ele>
        <time>2012-09-30T10:07:51Z</time>
      </trkpt>
      <trkpt lat="47.70194" lon="6.77006">
        <ele>510.2352</ele>
        <time>2012-09-30T10:07:52Z</time>
      </trkpt>
      <trkpt lat="47.70185" lon="6.76996">
        <ele>511.1496</ele>
        <time>2012-09-30T10:07:55Z</time>
      </trkpt>
      <trkpt lat="47.70178" lon="6.76986">
        <ele>512.064</ele>
        <time>2012-09-30T10:07:57Z</time>
      </trkpt>
      <trkpt lat="47.7017" lon="6.76978">
        <ele>513.8928</ele>
        <time>2012-09-30T10:07:58Z</time>
      </trkpt>
      <trkpt lat="47.70163" lon="6.76972">
        <ele>514.1976</ele>
        <time>2012-09-30T10:08:01Z</time>
      </trkpt>
      <trkpt lat="47.70155" lon="6.76965">
        <ele>514.5024</ele>
        <time>2012-09-30T10:08:02Z</time>
      </trkpt>
      <trkpt lat="47.70148" lon="6.76958">
        <ele>514.5024</ele>
        <time>2012-09-30T10:08:05Z</time>
      </trkpt>
      <trkpt lat="47.7014" lon="6.76951">
        <ele>514.1976</ele>
        <time>2012-09-30T10:08:06Z</time>
      </trkpt>
      <trkpt lat="47.70133" lon="6.76943">
        <ele>514.5024</ele>
        <time>2012-09-30T10:08:09Z</time>
      </trkpt>
      <trkpt lat="47.70124" lon="6.76933">
        <ele>513.8928</ele>
        <time>2012-09-30T10:08:10Z</time>
      </trkpt>
      <trkpt lat="47.70115" lon="6.7692">
        <ele>513.8928</ele>
        <time>2012-09-30T10:08:13Z</time>
      </trkpt>
      <trkpt lat="47.70105" lon="6.76907">
        <ele>513.588</ele>
        <time>2012-09-30T10:08:14Z</time>
      </trkpt>
      <trkpt lat="47.70091" lon="6.76899">
        <ele>512.3688</ele>
        <time>2012-09-30T10:08:17Z</time>
      </trkpt>
      <trkpt lat="47.70075" lon="6.76893">
        <ele>509.9304</ele>
        <time>2012-09-30T10:08:18Z</time>
      </trkpt>
      <trkpt lat="47.70058" lon="6.76888">
        <ele>509.016</ele>
        <time>2012-09-30T10:08:21Z</time>
      </trkpt>
      <trkpt lat="47.70045" lon="6.76893">
        <ele>509.3208</ele>
        <time>2012-09-30T10:08:22Z</time>
      </trkpt>
      <trkpt lat="47.70031" lon="6.769">
        <ele>509.016</ele>
        <time>2012-09-30T10:08:25Z</time>
      </trkpt>
      <trkpt lat="47.70015" lon="6.76907">
        <ele>508.7112</ele>
        <time>2012-09-30T10:08:26Z</time>
      </trkpt>
      <trkpt lat="47.7" lon="6.76914">
        <ele>508.1016</ele>
        <time>2012-09-30T10:08:29Z</time>
      </trkpt>
      <trkpt lat="47.69985" lon="6.76922">
        <ele>506.5776</ele>
        <time>2012-09-30T10:08:30Z</time>
      </trkpt>
      <trkpt lat="47.69971" lon="6.76932">
        <ele>505.3584</ele>
        <time>2012-09-30T10:08:33Z</time>
      </trkpt>
      <trkpt lat="47.69958" lon="6.76941">
        <ele>504.7488</ele>
        <time>2012-09-30T10:08:34Z</time>
      </trkpt>
      <trkpt lat="47.69946" lon="6.76946">
        <ele>503.5296</ele>
        <time>2012-09-30T10:08:37Z</time>
      </trkpt>
      <trkpt lat="47.69935" lon="6.76949">
        <ele>502.0056</ele>
        <time>2012-09-30T10:08:38Z</time>
      </trkpt>
      <trkpt lat="47.69923" lon="6.76956">
        <ele>500.7864</ele>
        <time>2012-09-30T10:08:41Z</time>
      </trkpt>
      <trkpt lat="47.6991" lon="6.76968">
        <ele>498.9576</ele>
        <time>2012-09-30T10:08:42Z</time>
      </trkpt>
      <trkpt lat="47.699" lon="6.76985">
        <ele>497.1288</ele>
        <time>2012-09-30T10:08:45Z</time>
      </trkpt>
      <trkpt lat="47.6989" lon="6.77002">
        <ele>495.9096</ele>
        <time>2012-09-30T10:08:46Z</time>
      </trkpt>
      <trkpt lat="47.69879" lon="6.77018">
        <ele>494.9952</ele>
        <time>2012-09-30T10:08:49Z</time>
      </trkpt>
      <trkpt lat="47.69869" lon="6.77027">
        <ele>493.1664</ele>
        <time>2012-09-30T10:08:51Z</time>
      </trkpt>
      <trkpt lat="47.69861" lon="6.77021">
        <ele>492.5568</ele>
        <time>2012-09-30T10:08:52Z</time>
      </trkpt>
      <trkpt lat="47.69856" lon="6.77009">
        <ele>491.0328</ele>
        <time>2012-09-30T10:08:55Z</time>
      </trkpt>
      <trkpt lat="47.69852" lon="6.76993">
        <ele>490.1184</ele>
        <time>2012-09-30T10:08:56Z</time>
      </trkpt>
      <trkpt lat="47.69848" lon="6.76976">
        <ele>488.8992</ele>
        <time>2012-09-30T10:08:59Z</time>
      </trkpt>
      <trkpt lat="47.69843" lon="6.76957">
        <ele>487.68</ele>
        <time>2012-09-30T10:09:00Z</time>
      </trkpt>
      <trkpt lat="47.69837" lon="6.76939">
        <ele>486.7656</ele>
        <time>2012-09-30T10:09:03Z</time>
      </trkpt>
      <trkpt lat="47.69831" lon="6.76921">
        <ele>485.8512</ele>
        <time>2012-09-30T10:09:04Z</time>
      </trkpt>
      <trkpt lat="47.69825" lon="6.76903">
        <ele>485.5464</ele>
        <time>2012-09-30T10:09:07Z</time>
      </trkpt>
      <trkpt lat="47.69819" lon="6.76885">
        <ele>484.632</ele>
        <time>2012-09-30T10:09:08Z</time>
      </trkpt>
      <trkpt lat="47.69813" lon="6.76866">
        <ele>483.7176</ele>
        <time>2012-09-30T10:09:11Z</time>
      </trkpt>
      <trkpt lat="47.69807" lon="6.76846">
        <ele>483.4128</ele>
        <time>2012-09-30T10:09:12Z</time>
      </trkpt>
      <trkpt lat="47.698" lon="6.76827">
        <ele>482.4984</ele>
        <time>2012-09-30T10:09:15Z</time>
      </trkpt>
      <trkpt lat="47.69793" lon="6.76807">
        <ele>481.2792</ele>
        <time>2012-09-30T10:09:16Z</time>
      </trkpt>
      <trkpt lat="47.69786" lon="6.76786">
        <ele>479.4504</ele>
        <time>2012-09-30T10:09:19Z</time>
      </trkpt>
      <trkpt lat="47.69777" lon="6.76767">
        <ele>477.9264</ele>
        <time>2012-09-30T10:09:20Z</time>
      </trkpt>
      <trkpt lat="47.69767" lon="6.76752">
        <ele>476.0976</ele>
        <time>2012-09-30T10:09:23Z</time>
      </trkpt>
      <trkpt lat="47.69754" lon="6.76745">
        <ele>474.5736</ele>
        <time>2012-09-30T10:09:24Z</time>
      </trkpt>
      <trkpt lat="47.69738" lon="6.76743">
        <ele>473.0496</ele>
        <time>2012-09-30T10:09:27Z</time>
      </trkpt>
      <trkpt lat="47.69722" lon="6.76742">
        <ele>471.2208</ele>
        <time>2012-09-30T10:09:28Z</time>
      </trkpt>
      <trkpt lat="47.69705" lon="6.76745">
        <ele>469.0872</ele>
        <time>2012-09-30T10:09:31Z</time>
      </trkpt>
      <trkpt lat="47.69689" lon="6.76754">
        <ele>466.6488</ele>
        <time>2012-09-30T10:09:32Z</time>
      </trkpt>
      <trkpt lat="47.69673" lon="6.76767">
        <ele>465.1248</ele>
        <time>2012-09-30T10:09:35Z</time>
      </trkpt>
      <trkpt lat="47.69658" lon="6.76781">
        <ele>463.6008</ele>
        <time>2012-09-30T10:09:36Z</time>
      </trkpt>
      <trkpt lat="47.69637" lon="6.76803">
        <ele>460.5528</ele>
        <time>2012-09-30T10:09:39Z</time>
      </trkpt>
      <trkpt lat="47.69632" lon="6.76813">
        <ele>459.9432</ele>
        <time>2012-09-30T10:09:40Z</time>
      </trkpt>
      <trkpt lat="47.69625" lon="6.76837">
        <ele>459.3336</ele>
        <time>2012-09-30T10:09:43Z</time>
      </trkpt>
      <trkpt lat="47.69623" lon="6.76861">
        <ele>458.1144</ele>
        <time>2012-09-30T10:09:45Z</time>
      </trkpt>
      <trkpt lat="47.69624" lon="6.76881">
        <ele>457.5048</ele>
        <time>2012-09-30T10:09:46Z</time>
      </trkpt>
      <trkpt lat="47.69626" lon="6.76899">
        <ele>456.5904</ele>
        <time>2012-09-30T10:09:49Z</time>
      </trkpt>
      <trkpt lat="47.69626" lon="6.76919">
        <ele>457.8096</ele>
        <time>2012-09-30T10:09:50Z</time>
      </trkpt>
      <trkpt lat="47.69626" lon="6.7694">
        <ele>459.0288</ele>
        <time>2012-09-30T10:09:53Z</time>
      </trkpt>
      <trkpt lat="47.69627" lon="6.76959">
        <ele>458.4192</ele>
        <time>2012-09-30T10:09:54Z</time>
      </trkpt>
      <trkpt lat="47.69627" lon="6.7698">
        <ele>459.3336</ele>
        <time>2012-09-30T10:09:57Z</time>
      </trkpt>
      <trkpt lat="47.69625" lon="6.77">
        <ele>459.0288</ele>
        <time>2012-09-30T10:09:58Z</time>
      </trkpt>
      <trkpt lat="47.69622" lon="6.77018">
        <ele>459.0288</ele>
        <time>2012-09-30T10:10:01Z</time>
      </trkpt>
      <trkpt lat="47.69617" lon="6.77035">
        <ele>459.6384</ele>
        <time>2012-09-30T10:10:02Z</time>
      </trkpt>
      <trkpt lat="47.69611" lon="6.77051">
        <ele>460.248</ele>
        <time>2012-09-30T10:10:05Z</time>
      </trkpt>
      <trkpt lat="47.69606" lon="6.77069">
        <ele>459.3336</ele>
        <time>2012-09-30T10:10:06Z</time>
      </trkpt>
      <trkpt lat="47.69601" lon="6.77086">
        <ele>459.3336</ele>
        <time>2012-09-30T10:10:09Z</time>
      </trkpt>
      <trkpt lat="47.69596" lon="6.77105">
        <ele>458.1144</ele>
        <time>2012-09-30T10:10:10Z</time>
      </trkpt>
      <trkpt lat="47.69591" lon="6.77124">
        <ele>458.4192</ele>
        <time>2012-09-30T10:10:13Z</time>
      </trkpt>
      <trkpt lat="47.69587" lon="6.77144">
        <ele>459.0288</ele>
        <time>2012-09-30T10:10:14Z</time>
      </trkpt>
      <trkpt lat="47.69585" lon="6.77164">
        <ele>459.0288</ele>
        <time>2012-09-30T10:10:17Z</time>
      </trkpt>
      <trkpt lat="47.69583" lon="6.77184">
        <ele>458.724</ele>
        <time>2012-09-30T10:10:18Z</time>
      </trkpt>
      <trkpt lat="47.69582" lon="6.77205">
        <ele>458.1144</ele>
        <time>2012-09-30T10:10:21Z</time>
      </trkpt>
      <trkpt lat="47.6958" lon="6.77226">
        <ele>458.1144</ele>
        <time>2012-09-30T10:10:22Z</time>
      </trkpt>
      <trkpt lat="47.69576" lon="6.77248">
        <ele>458.4192</ele>
        <time>2012-09-30T10:10:25Z</time>
      </trkpt>
      <trkpt lat="47.69572" lon="6.77271">
        <ele>458.4192</ele>
        <time>2012-09-30T10:10:26Z</time>
      </trkpt>
      <trkpt lat="47.69569" lon="6.77294">
        <ele>457.2</ele>
        <time>2012-09-30T10:10:29Z</time>
      </trkpt>
      <trkpt lat="47.69566" lon="6.77319">
        <ele>456.5904</ele>
        <time>2012-09-30T10:10:30Z</time>
      </trkpt>
      <trkpt lat="47.69563" lon="6.77343">
        <ele>455.9808</ele>
        <time>2012-09-30T10:10:33Z</time>
      </trkpt>
      <trkpt lat="47.69561" lon="6.77368">
        <ele>454.4568</ele>
        <time>2012-09-30T10:10:34Z</time>
      </trkpt>
      <trkpt lat="47.69558" lon="6.77394">
        <ele>452.9328</ele>
        <time>2012-09-30T10:10:37Z</time>
      </trkpt>
      <trkpt lat="47.69554" lon="6.7742">
        <ele>451.104</ele>
        <time>2012-09-30T10:10:39Z</time>
      </trkpt>
      <trkpt lat="47.69549" lon="6.77448">
        <ele>448.6656</ele>
        <time>2012-09-30T10:10:40Z</time>
      </trkpt>
      <trkpt lat="47.69544" lon="6.77475">
        <ele>446.8368</ele>
        <time>2012-09-30T10:10:43Z</time>
      </trkpt>
      <trkpt lat="47.69538" lon="6.77501">
        <ele>445.6176</ele>
        <time>2012-09-30T10:10:44Z</time>
      </trkpt>
      <trkpt lat="47.69536" lon="6.77525">
        <ele>443.484</ele>
        <time>2012-09-30T10:10:47Z</time>
      </trkpt>
      <trkpt lat="47.69538" lon="6.7755">
        <ele>441.0456</ele>
        <time>2012-09-30T10:10:48Z</time>
      </trkpt>
      <trkpt lat="47.6954" lon="6.77574">
        <ele>439.5216</ele>
        <time>2012-09-30T10:10:51Z</time>
      </trkpt>
      <trkpt lat="47.6954" lon="6.77595">
        <ele>437.0832</ele>
        <time>2012-09-30T10:10:52Z</time>
      </trkpt>
      <trkpt lat="47.69532" lon="6.77611">
        <ele>435.2544</ele>
        <time>2012-09-30T10:10:55Z</time>
      </trkpt>
      <trkpt lat="47.69521" lon="6.77619">
        <ele>433.7304</ele>
        <time>2012-09-30T10:10:56Z</time>
      </trkpt>
      <trkpt lat="47.69509" lon="6.77624">
        <ele>432.5112</ele>
        <time>2012-09-30T10:10:59Z</time>
      </trkpt>
      <trkpt lat="47.69497" lon="6.7763">
        <ele>430.6824</ele>
        <time>2012-09-30T10:11:00Z</time>
      </trkpt>
      <trkpt lat="47.69483" lon="6.77635">
        <ele>428.8536</ele>
        <time>2012-09-30T10:11:03Z</time>
      </trkpt>
      <trkpt lat="47.69461" lon="6.77642">
        <ele>426.72</ele>
        <time>2012-09-30T10:11:06Z</time>
      </trkpt>
      <trkpt lat="47.69454" lon="6.77643">
        <ele>426.1104</ele>
        <time>2012-09-30T10:11:07Z</time>
      </trkpt>
      <trkpt lat="47.69439" lon="6.77648">
        <ele>424.8912</ele>
        <time>2012-09-30T10:11:08Z</time>
      </trkpt>
      <trkpt lat="47.69424" lon="6.77653">
        <ele>423.9768</ele>
        <time>2012-09-30T10:11:11Z</time>
      </trkpt>
      <trkpt lat="47.69408" lon="6.77658">
        <ele>423.3672</ele>
        <time>2012-09-30T10:11:12Z</time>
      </trkpt>
      <trkpt lat="47.69393" lon="6.77662">
        <ele>422.4528</ele>
        <time>2012-09-30T10:11:15Z</time>
      </trkpt>
      <trkpt lat="47.69377" lon="6.77662">
        <ele>421.8432</ele>
        <time>2012-09-30T10:11:16Z</time>
      </trkpt>
      <trkpt lat="47.69361" lon="6.77661">
        <ele>421.5384</ele>
        <time>2012-09-30T10:11:19Z</time>
      </trkpt>
      <trkpt lat="47.69346" lon="6.77661">
        <ele>421.2336</ele>
        <time>2012-09-30T10:11:20Z</time>
      </trkpt>
      <trkpt lat="47.69331" lon="6.7766">
        <ele>420.9288</ele>
        <time>2012-09-30T10:11:23Z</time>
      </trkpt>
      <trkpt lat="47.69317" lon="6.77658">
        <ele>420.3192</ele>
        <time>2012-09-30T10:11:24Z</time>
      </trkpt>
      <trkpt lat="47.69301" lon="6.77659">
        <ele>419.4048</ele>
        <time>2012-09-30T10:11:27Z</time>
      </trkpt>
      <trkpt lat="47.69285" lon="6.7766">
        <ele>418.4904</ele>
        <time>2012-09-30T10:11:28Z</time>
      </trkpt>
      <trkpt lat="47.69272" lon="6.77659">
        <ele>418.1856</ele>
        <time>2012-09-30T10:11:31Z</time>
      </trkpt>
      <trkpt lat="47.69263" lon="6.77665">
        <ele>418.1856</ele>
        <time>2012-09-30T10:11:33Z</time>
      </trkpt>
      <trkpt lat="47.6926" lon="6.77677">
        <ele>418.1856</ele>
        <time>2012-09-30T10:11:34Z</time>
      </trkpt>
      <trkpt lat="47.6926" lon="6.77693">
        <ele>418.4904</ele>
        <time>2012-09-30T10:11:37Z</time>
      </trkpt>
      <trkpt lat="47.69259" lon="6.77712">
        <ele>418.1856</ele>
        <time>2012-09-30T10:11:38Z</time>
      </trkpt>
      <trkpt lat="47.69259" lon="6.77733">
        <ele>417.2712</ele>
        <time>2012-09-30T10:11:41Z</time>
      </trkpt>
      <trkpt lat="47.69257" lon="6.77755">
        <ele>416.6616</ele>
        <time>2012-09-30T10:11:42Z</time>
      </trkpt>
      <trkpt lat="47.69256" lon="6.77778">
        <ele>416.052</ele>
        <time>2012-09-30T10:11:45Z</time>
      </trkpt>
      <trkpt lat="47.69256" lon="6.77801">
        <ele>415.7472</ele>
        <time>2012-09-30T10:11:46Z</time>
      </trkpt>
      <trkpt lat="47.69255" lon="6.77824">
        <ele>415.4424</ele>
        <time>2012-09-30T10:11:49Z</time>
      </trkpt>
      <trkpt lat="47.69256" lon="6.77845">
        <ele>415.4424</ele>
        <time>2012-09-30T10:11:50Z</time>
      </trkpt>
      <trkpt lat="47.69256" lon="6.77867">
        <ele>415.1376</ele>
        <time>2012-09-30T10:11:53Z</time>
      </trkpt>
      <trkpt lat="47.69257" lon="6.77888">
        <ele>414.8328</ele>
        <time>2012-09-30T10:11:54Z</time>
      </trkpt>
      <trkpt lat="47.69258" lon="6.77909">
        <ele>414.528</ele>
        <time>2012-09-30T10:11:57Z</time>
      </trkpt>
      <trkpt lat="47.69258" lon="6.7793">
        <ele>414.528</ele>
        <time>2012-09-30T10:11:58Z</time>
      </trkpt>
      <trkpt lat="47.69258" lon="6.77952">
        <ele>414.2232</ele>
        <time>2012-09-30T10:12:01Z</time>
      </trkpt>
      <trkpt lat="47.69259" lon="6.77973">
        <ele>414.2232</ele>
        <time>2012-09-30T10:12:02Z</time>
      </trkpt>
      <trkpt lat="47.69261" lon="6.77994">
        <ele>414.2232</ele>
        <time>2012-09-30T10:12:05Z</time>
      </trkpt>
      <trkpt lat="47.69263" lon="6.78015">
        <ele>414.2232</ele>
        <time>2012-09-30T10:12:06Z</time>
      </trkpt>
      <trkpt lat="47.69264" lon="6.78035">
        <ele>414.2232</ele>
        <time>2012-09-30T10:12:09Z</time>
      </trkpt>
      <trkpt lat="47.69265" lon="6.78055">
        <ele>414.2232</ele>
        <time>2012-09-30T10:12:10Z</time>
      </trkpt>
      <trkpt lat="47.69266" lon="6.78076">
        <ele>414.2232</ele>
        <time>2012-09-30T10:12:13Z</time>
      </trkpt>
      <trkpt lat="47.69267" lon="6.78096">
        <ele>414.2232</ele>
        <time>2012-09-30T10:12:14Z</time>
      </trkpt>
      <trkpt lat="47.69268" lon="6.78118">
        <ele>413.6136</ele>
        <time>2012-09-30T10:12:17Z</time>
      </trkpt>
      <trkpt lat="47.69269" lon="6.7814">
        <ele>413.9184</ele>
        <time>2012-09-30T10:12:18Z</time>
      </trkpt>
      <trkpt lat="47.69272" lon="6.78161">
        <ele>413.6136</ele>
        <time>2012-09-30T10:12:21Z</time>
      </trkpt>
      <trkpt lat="47.69277" lon="6.78181">
        <ele>413.6136</ele>
        <time>2012-09-30T10:12:22Z</time>
      </trkpt>
      <trkpt lat="47.69284" lon="6.78195">
        <ele>413.9184</ele>
        <time>2012-09-30T10:12:25Z</time>
      </trkpt>
      <trkpt lat="47.69289" lon="6.78206">
        <ele>414.2232</ele>
        <time>2012-09-30T10:12:27Z</time>
      </trkpt>
      <trkpt lat="47.69295" lon="6.78215">
        <ele>415.1376</ele>
        <time>2012-09-30T10:12:28Z</time>
      </trkpt>
      <trkpt lat="47.69301" lon="6.78225">
        <ele>416.052</ele>
        <time>2012-09-30T10:12:31Z</time>
      </trkpt>
      <trkpt lat="47.69307" lon="6.78237">
        <ele>417.2712</ele>
        <time>2012-09-30T10:12:32Z</time>
      </trkpt>
      <trkpt lat="47.69313" lon="6.7825">
        <ele>418.1856</ele>
        <time>2012-09-30T10:12:35Z</time>
      </trkpt>
      <trkpt lat="47.69319" lon="6.78263">
        <ele>419.7096</ele>
        <time>2012-09-30T10:12:36Z</time>
      </trkpt>
      <trkpt lat="47.69324" lon="6.78277">
        <ele>419.7096</ele>
        <time>2012-09-30T10:12:39Z</time>
      </trkpt>
      <trkpt lat="47.69326" lon="6.78289">
        <ele>420.9288</ele>
        <time>2012-09-30T10:12:40Z</time>
      </trkpt>
      <trkpt lat="47.69329" lon="6.78301">
        <ele>421.2336</ele>
        <time>2012-09-30T10:12:43Z</time>
      </trkpt>
      <trkpt lat="47.69332" lon="6.78314">
        <ele>422.148</ele>
        <time>2012-09-30T10:12:44Z</time>
      </trkpt>
      <trkpt lat="47.69336" lon="6.78326">
        <ele>422.7576</ele>
        <time>2012-09-30T10:12:47Z</time>
      </trkpt>
      <trkpt lat="47.69339" lon="6.78341">
        <ele>425.196</ele>
        <time>2012-09-30T10:12:48Z</time>
      </trkpt>
      <trkpt lat="47.69342" lon="6.78357">
        <ele>427.0248</ele>
        <time>2012-09-30T10:12:51Z</time>
      </trkpt>
      <trkpt lat="47.69346" lon="6.78374">
        <ele>428.5488</ele>
        <time>2012-09-30T10:12:52Z</time>
      </trkpt>
      <trkpt lat="47.6935" lon="6.7839">
        <ele>429.4632</ele>
        <time>2012-09-30T10:12:55Z</time>
      </trkpt>
      <trkpt lat="47.69354" lon="6.78407">
        <ele>430.6824</ele>
        <time>2012-09-30T10:12:56Z</time>
      </trkpt>
      <trkpt lat="47.69358" lon="6.78424">
        <ele>431.292</ele>
        <time>2012-09-30T10:12:59Z</time>
      </trkpt>
      <trkpt lat="47.69362" lon="6.78442">
        <ele>431.292</ele>
        <time>2012-09-30T10:13:00Z</time>
      </trkpt>
      <trkpt lat="47.69365" lon="6.78459">
        <ele>430.6824</ele>
        <time>2012-09-30T10:13:03Z</time>
      </trkpt>
      <trkpt lat="47.69366" lon="6.78477">
        <ele>430.6824</ele>
        <time>2012-09-30T10:13:04Z</time>
      </trkpt>
      <trkpt lat="47.69369" lon="6.78492">
        <ele>429.768</ele>
        <time>2012-09-30T10:13:07Z</time>
      </trkpt>
      <trkpt lat="47.6937" lon="6.78508">
        <ele>427.9392</ele>
        <time>2012-09-30T10:13:08Z</time>
      </trkpt>
      <trkpt lat="47.69371" lon="6.78525">
        <ele>427.6344</ele>
        <time>2012-09-30T10:13:11Z</time>
      </trkpt>
      <trkpt lat="47.69374" lon="6.78543">
        <ele>425.8056</ele>
        <time>2012-09-30T10:13:12Z</time>
      </trkpt>
      <trkpt lat="47.69376" lon="6.78561">
        <ele>424.2816</ele>
        <time>2012-09-30T10:13:15Z</time>
      </trkpt>
      <trkpt lat="47.69378" lon="6.78579">
        <ele>422.4528</ele>
        <time>2012-09-30T10:13:16Z</time>
      </trkpt>
      <trkpt lat="47.69382" lon="6.786">
        <ele>420.3192</ele>
        <time>2012-09-30T10:13:19Z</time>
      </trkpt>
      <trkpt lat="47.69386" lon="6.78621">
        <ele>419.1</ele>
        <time>2012-09-30T10:13:20Z</time>
      </trkpt>
      <trkpt lat="47.6939" lon="6.78641">
        <ele>418.1856</ele>
        <time>2012-09-30T10:13:22Z</time>
      </trkpt>
      <trkpt lat="47.69393" lon="6.7866">
        <ele>416.3568</ele>
        <time>2012-09-30T10:13:25Z</time>
      </trkpt>
      <trkpt lat="47.69396" lon="6.78678">
        <ele>415.7472</ele>
        <time>2012-09-30T10:13:26Z</time>
      </trkpt>
      <trkpt lat="47.69399" lon="6.78697">
        <ele>415.1376</ele>
        <time>2012-09-30T10:13:29Z</time>
      </trkpt>
      <trkpt lat="47.69401" lon="6.78715">
        <ele>415.4424</ele>
        <time>2012-09-30T10:13:30Z</time>
      </trkpt>
      <trkpt lat="47.69403" lon="6.78732">
        <ele>415.4424</ele>
        <time>2012-09-30T10:13:33Z</time>
      </trkpt>
      <trkpt lat="47.69406" lon="6.78748">
        <ele>415.7472</ele>
        <time>2012-09-30T10:13:34Z</time>
      </trkpt>
      <trkpt lat="47.69409" lon="6.78763">
        <ele>416.052</ele>
        <time>2012-09-30T10:13:37Z</time>
      </trkpt>
      <trkpt lat="47.69413" lon="6.78778">
        <ele>416.3568</ele>
        <time>2012-09-30T10:13:38Z</time>
      </trkpt>
      <trkpt lat="47.69417" lon="6.78792">
        <ele>417.8808</ele>
        <time>2012-09-30T10:13:41Z</time>
      </trkpt>
      <trkpt lat="47.69423" lon="6.78801">
        <ele>418.7952</ele>
        <time>2012-09-30T10:13:42Z</time>
      </trkpt>
      <trkpt lat="47.69429" lon="6.78808">
        <ele>419.7096</ele>
        <time>2012-09-30T10:13:45Z</time>
      </trkpt>
      <trkpt lat="47.69435" lon="6.78817">
        <ele>421.2336</ele>
        <time>2012-09-30T10:13:46Z</time>
      </trkpt>
      <trkpt lat="47.69439" lon="6.78827">
        <ele>422.4528</ele>
        <time>2012-09-30T10:13:49Z</time>
      </trkpt>
      <trkpt lat="47.69443" lon="6.78838">
        <ele>423.9768</ele>
        <time>2012-09-30T10:13:50Z</time>
      </trkpt>
      <trkpt lat="47.69449" lon="6.78847">
        <ele>425.5008</ele>
        <time>2012-09-30T10:13:53Z</time>
      </trkpt>
      <trkpt lat="47.69455" lon="6.78856">
        <ele>426.72</ele>
        <time>2012-09-30T10:13:54Z</time>
      </trkpt>
      <trkpt lat="47.69462" lon="6.78864">
        <ele>427.6344</ele>
        <time>2012-09-30T10:13:57Z</time>
      </trkpt>
      <trkpt lat="47.69468" lon="6.78871">
        <ele>428.8536</ele>
        <time>2012-09-30T10:13:58Z</time>
      </trkpt>
      <trkpt lat="47.69472" lon="6.78879">
        <ele>430.6824</ele>
        <time>2012-09-30T10:14:01Z</time>
      </trkpt>
      <trkpt lat="47.69477" lon="6.78887">
        <ele>431.292</ele>
        <time>2012-09-30T10:14:02Z</time>
      </trkpt>
      <trkpt lat="47.69482" lon="6.78894">
        <ele>432.2064</ele>
        <time>2012-09-30T10:14:05Z</time>
      </trkpt>
      <trkpt lat="47.69487" lon="6.789">
        <ele>432.5112</ele>
        <time>2012-09-30T10:14:06Z</time>
      </trkpt>
      <trkpt lat="47.69492" lon="6.78908">
        <ele>432.2064</ele>
        <time>2012-09-30T10:14:09Z</time>
      </trkpt>
      <trkpt lat="47.69496" lon="6.78915">
        <ele>432.816</ele>
        <time>2012-09-30T10:14:10Z</time>
      </trkpt>
      <trkpt lat="47.695" lon="6.78922">
        <ele>433.4256</ele>
        <time>2012-09-30T10:14:13Z</time>
      </trkpt>
      <trkpt lat="47.69504" lon="6.78927">
        <ele>433.7304</ele>
        <time>2012-09-30T10:14:14Z</time>
      </trkpt>
      <trkpt lat="47.69509" lon="6.78933">
        <ele>433.7304</ele>
        <time>2012-09-30T10:14:16Z</time>
      </trkpt>
      <trkpt lat="47.69514" lon="6.78939">
        <ele>434.34</ele>
        <time>2012-09-30T10:14:19Z</time>
      </trkpt>
      <trkpt lat="47.69519" lon="6.78942">
        <ele>434.9496</ele>
        <time>2012-09-30T10:14:20Z</time>
      </trkpt>
      <trkpt lat="47.69523" lon="6.78948">
        <ele>436.7784</ele>
        <time>2012-09-30T10:14:23Z</time>
      </trkpt>
      <trkpt lat="47.69527" lon="6.78953">
        <ele>437.388</ele>
        <time>2012-09-30T10:14:24Z</time>
      </trkpt>
      <trkpt lat="47.69531" lon="6.78958">
        <ele>437.9976</ele>
        <time>2012-09-30T10:14:27Z</time>
      </trkpt>
      <trkpt lat="47.69536" lon="6.78964">
        <ele>437.388</ele>
        <time>2012-09-30T10:14:28Z</time>
      </trkpt>
      <trkpt lat="47.69541" lon="6.78969">
        <ele>436.7784</ele>
        <time>2012-09-30T10:14:31Z</time>
      </trkpt>
      <trkpt lat="47.69545" lon="6.78975">
        <ele>436.7784</ele>
        <time>2012-09-30T10:14:32Z</time>
      </trkpt>
      <trkpt lat="47.69549" lon="6.7898">
        <ele>437.388</ele>
        <time>2012-09-30T10:14:35Z</time>
      </trkpt>
      <trkpt lat="47.69553" lon="6.78985">
        <ele>437.0832</ele>
        <time>2012-09-30T10:14:36Z</time>
      </trkpt>
      <trkpt lat="47.69557" lon="6.78989">
        <ele>436.1688</ele>
        <time>2012-09-30T10:14:39Z</time>
      </trkpt>
      <trkpt lat="47.69562" lon="6.78993">
        <ele>434.9496</ele>
        <time>2012-09-30T10:14:40Z</time>
      </trkpt>
      <trkpt lat="47.69566" lon="6.78997">
        <ele>434.0352</ele>
        <time>2012-09-30T10:14:43Z</time>
      </trkpt>
      <trkpt lat="47.6957" lon="6.79002">
        <ele>433.7304</ele>
        <time>2012-09-30T10:14:44Z</time>
      </trkpt>
      <trkpt lat="47.69574" lon="6.79008">
        <ele>432.816</ele>
        <time>2012-09-30T10:14:47Z</time>
      </trkpt>
      <trkpt lat="47.69578" lon="6.79013">
        <ele>432.2064</ele>
        <time>2012-09-30T10:14:48Z</time>
      </trkpt>
      <trkpt lat="47.69581" lon="6.79018">
        <ele>431.5968</ele>
        <time>2012-09-30T10:14:51Z</time>
      </trkpt>
      <trkpt lat="47.69585" lon="6.79024">
        <ele>431.292</ele>
        <time>2012-09-30T10:14:52Z</time>
      </trkpt>
      <trkpt lat="47.69589" lon="6.7903">
        <ele>430.9872</ele>
        <time>2012-09-30T10:14:55Z</time>
      </trkpt>
      <trkpt lat="47.69593" lon="6.79036">
        <ele>430.6824</ele>
        <time>2012-09-30T10:14:56Z</time>
      </trkpt>
      <trkpt lat="47.69597" lon="6.79042">
        <ele>430.0728</ele>
        <time>2012-09-30T10:14:59Z</time>
      </trkpt>
      <trkpt lat="47.69601" lon="6.79047">
        <ele>430.0728</ele>
        <time>2012-09-30T10:15:00Z</time>
      </trkpt>
      <trkpt lat="47.69606" lon="6.79052">
        <ele>429.4632</ele>
        <time>2012-09-30T10:15:03Z</time>
      </trkpt>
      <trkpt lat="47.69611" lon="6.79057">
        <ele>429.1584</ele>
        <time>2012-09-30T10:15:04Z</time>
      </trkpt>
      <trkpt lat="47.69615" lon="6.79062">
        <ele>429.768</ele>
        <time>2012-09-30T10:15:07Z</time>
      </trkpt>
      <trkpt lat="47.69621" lon="6.79067">
        <ele>430.0728</ele>
        <time>2012-09-30T10:15:08Z</time>
      </trkpt>
      <trkpt lat="47.69627" lon="6.79074">
        <ele>430.0728</ele>
        <time>2012-09-30T10:15:10Z</time>
      </trkpt>
      <trkpt lat="47.69632" lon="6.79081">
        <ele>430.6824</ele>
        <time>2012-09-30T10:15:13Z</time>
      </trkpt>
      <trkpt lat="47.69638" lon="6.79089">
        <ele>430.9872</ele>
        <time>2012-09-30T10:15:14Z</time>
      </trkpt>
      <trkpt lat="47.69643" lon="6.79097">
        <ele>431.292</ele>
        <time>2012-09-30T10:15:17Z</time>
      </trkpt>
      <trkpt lat="47.69648" lon="6.79105">
        <ele>431.9016</ele>
        <time>2012-09-30T10:15:18Z</time>
      </trkpt>
      <trkpt lat="47.69653" lon="6.79113">
        <ele>431.9016</ele>
        <time>2012-09-30T10:15:21Z</time>
      </trkpt>
      <trkpt lat="47.69658" lon="6.79122">
        <ele>432.2064</ele>
        <time>2012-09-30T10:15:22Z</time>
      </trkpt>
      <trkpt lat="47.69664" lon="6.79131">
        <ele>432.5112</ele>
        <time>2012-09-30T10:15:25Z</time>
      </trkpt>
      <trkpt lat="47.6967" lon="6.79139">
        <ele>432.2064</ele>
        <time>2012-09-30T10:15:26Z</time>
      </trkpt>
      <trkpt lat="47.69676" lon="6.79148">
        <ele>432.816</ele>
        <time>2012-09-30T10:15:29Z</time>
      </trkpt>
      <trkpt lat="47.69682" lon="6.79156">
        <ele>433.4256</ele>
        <time>2012-09-30T10:15:30Z</time>
      </trkpt>
      <trkpt lat="47.69687" lon="6.79164">
        <ele>434.0352</ele>
        <time>2012-09-30T10:15:33Z</time>
      </trkpt>
      <trkpt lat="47.69692" lon="6.79172">
        <ele>434.9496</ele>
        <time>2012-09-30T10:15:34Z</time>
      </trkpt>
      <trkpt lat="47.69698" lon="6.79181">
        <ele>435.864</ele>
        <time>2012-09-30T10:15:37Z</time>
      </trkpt>
      <trkpt lat="47.69703" lon="6.7919">
        <ele>436.7784</ele>
        <time>2012-09-30T10:15:38Z</time>
      </trkpt>
      <trkpt lat="47.69708" lon="6.792">
        <ele>437.9976</ele>
        <time>2012-09-30T10:15:41Z</time>
      </trkpt>
      <trkpt lat="47.69713" lon="6.79209">
        <ele>438.3024</ele>
        <time>2012-09-30T10:15:42Z</time>
      </trkpt>
      <trkpt lat="47.69718" lon="6.79217">
        <ele>439.5216</ele>
        <time>2012-09-30T10:15:45Z</time>
      </trkpt>
      <trkpt lat="47.69722" lon="6.79225">
        <ele>441.6552</ele>
        <time>2012-09-30T10:15:46Z</time>
      </trkpt>
      <trkpt lat="47.69725" lon="6.79234">
        <ele>443.7888</ele>
        <time>2012-09-30T10:15:49Z</time>
      </trkpt>
      <trkpt lat="47.69729" lon="6.79243">
        <ele>446.2272</ele>
        <time>2012-09-30T10:15:50Z</time>
      </trkpt>
      <trkpt lat="47.69733" lon="6.79252">
        <ele>447.1416</ele>
        <time>2012-09-30T10:15:53Z</time>
      </trkpt>
      <trkpt lat="47.69737" lon="6.79261">
        <ele>447.7512</ele>
        <time>2012-09-30T10:15:54Z</time>
      </trkpt>
      <trkpt lat="47.69741" lon="6.7927">
        <ele>448.056</ele>
        <time>2012-09-30T10:15:57Z</time>
      </trkpt>
      <trkpt lat="47.69745" lon="6.7928">
        <ele>448.9704</ele>
        <time>2012-09-30T10:15:58Z</time>
      </trkpt>
      <trkpt lat="47.69749" lon="6.79289">
        <ele>449.8848</ele>
        <time>2012-09-30T10:16:01Z</time>
      </trkpt>
      <trkpt lat="47.69754" lon="6.79298">
        <ele>450.1896</ele>
        <time>2012-09-30T10:16:02Z</time>
      </trkpt>
      <trkpt lat="47.6976" lon="6.79306">
        <ele>450.7992</ele>
        <time>2012-09-30T10:16:04Z</time>
      </trkpt>
      <trkpt lat="47.69766" lon="6.79314">
        <ele>450.7992</ele>
        <time>2012-09-30T10:16:07Z</time>
      </trkpt>
      <trkpt lat="47.69772" lon="6.79323">
        <ele>449.8848</ele>
        <time>2012-09-30T10:16:08Z</time>
      </trkpt>
      <trkpt lat="47.69777" lon="6.79331">
        <ele>450.4944</ele>
        <time>2012-09-30T10:16:11Z</time>
      </trkpt>
      <trkpt lat="47.69783" lon="6.79339">
        <ele>449.58</ele>
        <time>2012-09-30T10:16:12Z</time>
      </trkpt>
      <trkpt lat="47.69789" lon="6.79346">
        <ele>449.58</ele>
        <time>2012-09-30T10:16:15Z</time>
      </trkpt>
      <trkpt lat="47.69794" lon="6.79354">
        <ele>449.58</ele>
        <time>2012-09-30T10:16:16Z</time>
      </trkpt>
      <trkpt lat="47.69799" lon="6.7936">
        <ele>449.2752</ele>
        <time>2012-09-30T10:16:19Z</time>
      </trkpt>
      <trkpt lat="47.69805" lon="6.79367">
        <ele>448.3608</ele>
        <time>2012-09-30T10:16:20Z</time>
      </trkpt>
      <trkpt lat="47.69811" lon="6.79373">
        <ele>448.3608</ele>
        <time>2012-09-30T10:16:23Z</time>
      </trkpt>
      <trkpt lat="47.69816" lon="6.79382">
        <ele>448.6656</ele>
        <time>2012-09-30T10:16:24Z</time>
      </trkpt>
      <trkpt lat="47.69822" lon="6.79391">
        <ele>448.056</ele>
        <time>2012-09-30T10:16:27Z</time>
      </trkpt>
      <trkpt lat="47.69827" lon="6.79399">
        <ele>447.1416</ele>
        <time>2012-09-30T10:16:28Z</time>
      </trkpt>
      <trkpt lat="47.69832" lon="6.79407">
        <ele>445.9224</ele>
        <time>2012-09-30T10:16:31Z</time>
      </trkpt>
      <trkpt lat="47.69837" lon="6.79417">
        <ele>446.2272</ele>
        <time>2012-09-30T10:16:32Z</time>
      </trkpt>
      <trkpt lat="47.69842" lon="6.79427">
        <ele>446.2272</ele>
        <time>2012-09-30T10:16:35Z</time>
      </trkpt>
      <trkpt lat="47.6987" lon="6.79475">
        <ele>443.484</ele>
        <time>2012-09-30T10:16:43Z</time>
      </trkpt>
      <trkpt lat="47.69874" lon="6.79482">
        <ele>443.484</ele>
        <time>2012-09-30T10:16:43Z</time>
      </trkpt>
      <trkpt lat="47.69882" lon="6.79494">
        <ele>443.1792</ele>
        <time>2012-09-30T10:16:46Z</time>
      </trkpt>
      <trkpt lat="47.69891" lon="6.79507">
        <ele>443.1792</ele>
        <time>2012-09-30T10:16:47Z</time>
      </trkpt>
      <trkpt lat="47.69899" lon="6.7952">
        <ele>443.1792</ele>
        <time>2012-09-30T10:16:50Z</time>
      </trkpt>
      <trkpt lat="47.69907" lon="6.79534">
        <ele>442.8744</ele>
        <time>2012-09-30T10:16:51Z</time>
      </trkpt>
      <trkpt lat="47.69914" lon="6.79548">
        <ele>443.1792</ele>
        <time>2012-09-30T10:16:54Z</time>
      </trkpt>
      <trkpt lat="47.69921" lon="6.79562">
        <ele>442.8744</ele>
        <time>2012-09-30T10:16:55Z</time>
      </trkpt>
      <trkpt lat="47.69929" lon="6.79576">
        <ele>442.5696</ele>
        <time>2012-09-30T10:16:58Z</time>
      </trkpt>
      <trkpt lat="47.69937" lon="6.7959">
        <ele>442.8744</ele>
        <time>2012-09-30T10:16:59Z</time>
      </trkpt>
      <trkpt lat="47.69943" lon="6.79606">
        <ele>442.8744</ele>
        <time>2012-09-30T10:17:02Z</time>
      </trkpt>
      <trkpt lat="47.69947" lon="6.79623">
        <ele>443.1792</ele>
        <time>2012-09-30T10:17:03Z</time>
      </trkpt>
      <trkpt lat="47.69951" lon="6.7964">
        <ele>442.5696</ele>
        <time>2012-09-30T10:17:06Z</time>
      </trkpt>
      <trkpt lat="47.69955" lon="6.79657">
        <ele>440.7408</ele>
        <time>2012-09-30T10:17:07Z</time>
      </trkpt>
      <trkpt lat="47.69959" lon="6.79674">
        <ele>439.8264</ele>
        <time>2012-09-30T10:17:10Z</time>
      </trkpt>
      <trkpt lat="47.69962" lon="6.79692">
        <ele>438.912</ele>
        <time>2012-09-30T10:17:11Z</time>
      </trkpt>
      <trkpt lat="47.69966" lon="6.79711">
        <ele>438.3024</ele>
        <time>2012-09-30T10:17:14Z</time>
      </trkpt>
      <trkpt lat="47.69969" lon="6.79731">
        <ele>437.388</ele>
        <time>2012-09-30T10:17:15Z</time>
      </trkpt>
      <trkpt lat="47.69972" lon="6.79751">
        <ele>436.4736</ele>
        <time>2012-09-30T10:17:18Z</time>
      </trkpt>
      <trkpt lat="47.69976" lon="6.7977">
        <ele>435.2544</ele>
        <time>2012-09-30T10:17:19Z</time>
      </trkpt>
      <trkpt lat="47.69981" lon="6.79788">
        <ele>434.6448</ele>
        <time>2012-09-30T10:17:22Z</time>
      </trkpt>
      <trkpt lat="47.69985" lon="6.79805">
        <ele>434.34</ele>
        <time>2012-09-30T10:17:24Z</time>
      </trkpt>
      <trkpt lat="47.69991" lon="6.79822">
        <ele>433.7304</ele>
        <time>2012-09-30T10:17:25Z</time>
      </trkpt>
      <trkpt lat="47.69996" lon="6.7984">
        <ele>433.1208</ele>
        <time>2012-09-30T10:17:28Z</time>
      </trkpt>
      <trkpt lat="47.70001" lon="6.79857">
        <ele>432.5112</ele>
        <time>2012-09-30T10:17:29Z</time>
      </trkpt>
      <trkpt lat="47.70005" lon="6.79875">
        <ele>431.9016</ele>
        <time>2012-09-30T10:17:32Z</time>
      </trkpt>
      <trkpt lat="47.70011" lon="6.79891">
        <ele>431.292</ele>
        <time>2012-09-30T10:17:33Z</time>
      </trkpt>
      <trkpt lat="47.70016" lon="6.79908">
        <ele>430.0728</ele>
        <time>2012-09-30T10:17:36Z</time>
      </trkpt>
      <trkpt lat="47.70021" lon="6.79924">
        <ele>429.768</ele>
        <time>2012-09-30T10:17:37Z</time>
      </trkpt>
      <trkpt lat="47.70025" lon="6.79941">
        <ele>429.768</ele>
        <time>2012-09-30T10:17:40Z</time>
      </trkpt>
      <trkpt lat="47.7003" lon="6.79957">
        <ele>429.768</ele>
        <time>2012-09-30T10:17:41Z</time>
      </trkpt>
      <trkpt lat="47.70035" lon="6.79973">
        <ele>430.3776</ele>
        <time>2012-09-30T10:17:44Z</time>
      </trkpt>
      <trkpt lat="47.70038" lon="6.79989">
        <ele>430.6824</ele>
        <time>2012-09-30T10:17:45Z</time>
      </trkpt>
      <trkpt lat="47.70039" lon="6.80005">
        <ele>430.9872</ele>
        <time>2012-09-30T10:17:48Z</time>
      </trkpt>
      <trkpt lat="47.70041" lon="6.8002">
        <ele>431.5968</ele>
        <time>2012-09-30T10:17:49Z</time>
      </trkpt>
      <trkpt lat="47.70043" lon="6.80034">
        <ele>431.9016</ele>
        <time>2012-09-30T10:17:52Z</time>
      </trkpt>
      <trkpt lat="47.70046" lon="6.80047">
        <ele>432.2064</ele>
        <time>2012-09-30T10:17:53Z</time>
      </trkpt>
      <trkpt lat="47.70049" lon="6.80061">
        <ele>432.816</ele>
        <time>2012-09-30T10:17:56Z</time>
      </trkpt>
      <trkpt lat="47.70052" lon="6.80074">
        <ele>432.816</ele>
        <time>2012-09-30T10:17:57Z</time>
      </trkpt>
      <trkpt lat="47.70055" lon="6.80088">
        <ele>432.816</ele>
        <time>2012-09-30T10:18:00Z</time>
      </trkpt>
      <trkpt lat="47.70057" lon="6.80102">
        <ele>432.816</ele>
        <time>2012-09-30T10:18:01Z</time>
      </trkpt>
      <trkpt lat="47.70058" lon="6.80116">
        <ele>432.5112</ele>
        <time>2012-09-30T10:18:04Z</time>
      </trkpt>
      <trkpt lat="47.70057" lon="6.80131">
        <ele>432.816</ele>
        <time>2012-09-30T10:18:05Z</time>
      </trkpt>
      <trkpt lat="47.70054" lon="6.80145">
        <ele>432.816</ele>
        <time>2012-09-30T10:18:08Z</time>
      </trkpt>
      <trkpt lat="47.70051" lon="6.80159">
        <ele>432.816</ele>
        <time>2012-09-30T10:18:09Z</time>
      </trkpt>
      <trkpt lat="47.70048" lon="6.80174">
        <ele>433.1208</ele>
        <time>2012-09-30T10:18:12Z</time>
      </trkpt>
      <trkpt lat="47.70047" lon="6.8019">
        <ele>433.1208</ele>
        <time>2012-09-30T10:18:13Z</time>
      </trkpt>
      <trkpt lat="47.70048" lon="6.80205">
        <ele>433.4256</ele>
        <time>2012-09-30T10:18:16Z</time>
      </trkpt>
      <trkpt lat="47.70049" lon="6.8022">
        <ele>433.7304</ele>
        <time>2012-09-30T10:18:18Z</time>
      </trkpt>
      <trkpt lat="47.70051" lon="6.80235">
        <ele>434.0352</ele>
        <time>2012-09-30T10:18:19Z</time>
      </trkpt>
      <trkpt lat="47.70052" lon="6.80249">
        <ele>434.34</ele>
        <time>2012-09-30T10:18:22Z</time>
      </trkpt>
      <trkpt lat="47.70054" lon="6.80263">
        <ele>434.6448</ele>
        <time>2012-09-30T10:18:23Z</time>
      </trkpt>
      <trkpt lat="47.70054" lon="6.80277">
        <ele>434.9496</ele>
        <time>2012-09-30T10:18:26Z</time>
      </trkpt>
      <trkpt lat="47.70055" lon="6.80291">
        <ele>435.5592</ele>
        <time>2012-09-30T10:18:27Z</time>
      </trkpt>
      <trkpt lat="47.70056" lon="6.80305">
        <ele>435.864</ele>
        <time>2012-09-30T10:18:30Z</time>
      </trkpt>
      <trkpt lat="47.70058" lon="6.80319">
        <ele>436.1688</ele>
        <time>2012-09-30T10:18:31Z</time>
      </trkpt>
      <trkpt lat="47.7006" lon="6.80334">
        <ele>436.1688</ele>
        <time>2012-09-30T10:18:34Z</time>
      </trkpt>
      <trkpt lat="47.70059" lon="6.80349">
        <ele>436.1688</ele>
        <time>2012-09-30T10:18:35Z</time>
      </trkpt>
      <trkpt lat="47.70055" lon="6.80363">
        <ele>436.1688</ele>
        <time>2012-09-30T10:18:38Z</time>
      </trkpt>
      <trkpt lat="47.70048" lon="6.80375">
        <ele>436.4736</ele>
        <time>2012-09-30T10:18:39Z</time>
      </trkpt>
      <trkpt lat="47.70039" lon="6.80384">
        <ele>436.4736</ele>
        <time>2012-09-30T10:18:42Z</time>
      </trkpt>
      <trkpt lat="47.7003" lon="6.80391">
        <ele>436.7784</ele>
        <time>2012-09-30T10:18:43Z</time>
      </trkpt>
      <trkpt lat="47.7002" lon="6.804">
        <ele>437.388</ele>
        <time>2012-09-30T10:18:46Z</time>
      </trkpt>
      <trkpt lat="47.7001" lon="6.80408">
        <ele>437.6928</ele>
        <time>2012-09-30T10:18:47Z</time>
      </trkpt>
      <trkpt lat="47.7" lon="6.80414">
        <ele>437.9976</ele>
        <time>2012-09-30T10:18:50Z</time>
      </trkpt>
      <trkpt lat="47.6999" lon="6.8042">
        <ele>438.3024</ele>
        <time>2012-09-30T10:18:51Z</time>
      </trkpt>
      <trkpt lat="47.6998" lon="6.80427">
        <ele>438.912</ele>
        <time>2012-09-30T10:18:54Z</time>
      </trkpt>
      <trkpt lat="47.69971" lon="6.80434">
        <ele>438.912</ele>
        <time>2012-09-30T10:18:55Z</time>
      </trkpt>
      <trkpt lat="47.69962" lon="6.80443">
        <ele>438.912</ele>
        <time>2012-09-30T10:18:58Z</time>
      </trkpt>
      <trkpt lat="47.69952" lon="6.80453">
        <ele>438.912</ele>
        <time>2012-09-30T10:18:59Z</time>
      </trkpt>
      <trkpt lat="47.69944" lon="6.80463">
        <ele>438.912</ele>
        <time>2012-09-30T10:19:02Z</time>
      </trkpt>
      <trkpt lat="47.69935" lon="6.80475">
        <ele>438.6072</ele>
        <time>2012-09-30T10:19:03Z</time>
      </trkpt>
      <trkpt lat="47.69928" lon="6.80489">
        <ele>438.3024</ele>
        <time>2012-09-30T10:19:06Z</time>
      </trkpt>
      <trkpt lat="47.6992" lon="6.80503">
        <ele>438.3024</ele>
        <time>2012-09-30T10:19:07Z</time>
      </trkpt>
      <trkpt lat="47.69914" lon="6.80518">
        <ele>438.3024</ele>
        <time>2012-09-30T10:19:10Z</time>
      </trkpt>
      <trkpt lat="47.69908" lon="6.80532">
        <ele>438.3024</ele>
        <time>2012-09-30T10:19:12Z</time>
      </trkpt>
      <trkpt lat="47.69902" lon="6.80546">
        <ele>438.3024</ele>
        <time>2012-09-30T10:19:13Z</time>
      </trkpt>
      <trkpt lat="47.69894" lon="6.80554">
        <ele>438.3024</ele>
        <time>2012-09-30T10:19:16Z</time>
      </trkpt>
      <trkpt lat="47.69883" lon="6.80557">
        <ele>437.6928</ele>
        <time>2012-09-30T10:19:17Z</time>
      </trkpt>
      <trkpt lat="47.69872" lon="6.80556">
        <ele>437.0832</ele>
        <time>2012-09-30T10:19:20Z</time>
      </trkpt>
      <trkpt lat="47.69861" lon="6.80553">
        <ele>436.4736</ele>
        <time>2012-09-30T10:19:21Z</time>
      </trkpt>
      <trkpt lat="47.69847" lon="6.80546">
        <ele>435.2544</ele>
        <time>2012-09-30T10:19:24Z</time>
      </trkpt>
      <trkpt lat="47.69832" lon="6.80541">
        <ele>433.7304</ele>
        <time>2012-09-30T10:19:25Z</time>
      </trkpt>
      <trkpt lat="47.69815" lon="6.80535">
        <ele>432.5112</ele>
        <time>2012-09-30T10:19:28Z</time>
      </trkpt>
      <trkpt lat="47.69799" lon="6.80529">
        <ele>431.5968</ele>
        <time>2012-09-30T10:19:29Z</time>
      </trkpt>
      <trkpt lat="47.69783" lon="6.80521">
        <ele>430.9872</ele>
        <time>2012-09-30T10:19:32Z</time>
      </trkpt>
      <trkpt lat="47.69769" lon="6.80516">
        <ele>430.6824</ele>
        <time>2012-09-30T10:19:33Z</time>
      </trkpt>
      <trkpt lat="47.69753" lon="6.80507">
        <ele>429.4632</ele>
        <time>2012-09-30T10:19:36Z</time>
      </trkpt>
      <trkpt lat="47.69738" lon="6.80494">
        <ele>427.6344</ele>
        <time>2012-09-30T10:19:37Z</time>
      </trkpt>
      <trkpt lat="47.69722" lon="6.80483">
        <ele>426.72</ele>
        <time>2012-09-30T10:19:40Z</time>
      </trkpt>
      <trkpt lat="47.69708" lon="6.8047">
        <ele>424.2816</ele>
        <time>2012-09-30T10:19:41Z</time>
      </trkpt>
      <trkpt lat="47.69691" lon="6.80464">
        <ele>423.672</ele>
        <time>2012-09-30T10:19:44Z</time>
      </trkpt>
      <trkpt lat="47.69675" lon="6.80464">
        <ele>422.148</ele>
        <time>2012-09-30T10:19:45Z</time>
      </trkpt>
      <trkpt lat="47.69657" lon="6.80465">
        <ele>420.3192</ele>
        <time>2012-09-30T10:19:48Z</time>
      </trkpt>
      <trkpt lat="47.69637" lon="6.80462">
        <ele>418.4904</ele>
        <time>2012-09-30T10:19:49Z</time>
      </trkpt>
      <trkpt lat="47.69617" lon="6.80455">
        <ele>416.3568</ele>
        <time>2012-09-30T10:19:52Z</time>
      </trkpt>
      <trkpt lat="47.69596" lon="6.80447">
        <ele>414.2232</ele>
        <time>2012-09-30T10:19:53Z</time>
      </trkpt>
      <trkpt lat="47.69575" lon="6.80437">
        <ele>412.0896</ele>
        <time>2012-09-30T10:19:56Z</time>
      </trkpt>
      <trkpt lat="47.69554" lon="6.80425">
        <ele>410.8704</ele>
        <time>2012-09-30T10:19:57Z</time>
      </trkpt>
      <trkpt lat="47.69534" lon="6.80413">
        <ele>409.6512</ele>
        <time>2012-09-30T10:20:00Z</time>
      </trkpt>
      <trkpt lat="47.69514" lon="6.80403">
        <ele>408.7368</ele>
        <time>2012-09-30T10:20:01Z</time>
      </trkpt>
      <trkpt lat="47.69494" lon="6.80398">
        <ele>408.1272</ele>
        <time>2012-09-30T10:20:04Z</time>
      </trkpt>
      <trkpt lat="47.69474" lon="6.80394">
        <ele>407.5176</ele>
        <time>2012-09-30T10:20:06Z</time>
      </trkpt>
      <trkpt lat="47.69454" lon="6.80388">
        <ele>407.2128</ele>
        <time>2012-09-30T10:20:07Z</time>
      </trkpt>
      <trkpt lat="47.69435" lon="6.80386">
        <ele>406.908</ele>
        <time>2012-09-30T10:20:10Z</time>
      </trkpt>
      <trkpt lat="47.69417" lon="6.80383">
        <ele>406.908</ele>
        <time>2012-09-30T10:20:11Z</time>
      </trkpt>
      <trkpt lat="47.69399" lon="6.80379">
        <ele>406.6032</ele>
        <time>2012-09-30T10:20:14Z</time>
      </trkpt>
      <trkpt lat="47.69381" lon="6.80375">
        <ele>406.908</ele>
        <time>2012-09-30T10:20:15Z</time>
      </trkpt>
      <trkpt lat="47.69364" lon="6.8037">
        <ele>406.908</ele>
        <time>2012-09-30T10:20:18Z</time>
      </trkpt>
      <trkpt lat="47.69349" lon="6.80365">
        <ele>406.908</ele>
        <time>2012-09-30T10:20:19Z</time>
      </trkpt>
      <trkpt lat="47.69333" lon="6.8036">
        <ele>406.6032</ele>
        <time>2012-09-30T10:20:22Z</time>
      </trkpt>
      <trkpt lat="47.69318" lon="6.80359">
        <ele>406.2984</ele>
        <time>2012-09-30T10:20:23Z</time>
      </trkpt>
      <trkpt lat="47.69302" lon="6.8036">
        <ele>405.6888</ele>
        <time>2012-09-30T10:20:26Z</time>
      </trkpt>
      <trkpt lat="47.69287" lon="6.80363">
        <ele>404.7744</ele>
        <time>2012-09-30T10:20:27Z</time>
      </trkpt>
      <trkpt lat="47.69271" lon="6.80365">
        <ele>404.4696</ele>
        <time>2012-09-30T10:20:30Z</time>
      </trkpt>
      <trkpt lat="47.69256" lon="6.80365">
        <ele>404.4696</ele>
        <time>2012-09-30T10:20:31Z</time>
      </trkpt>
      <trkpt lat="47.69242" lon="6.80367">
        <ele>404.7744</ele>
        <time>2012-09-30T10:20:34Z</time>
      </trkpt>
      <trkpt lat="47.69228" lon="6.80368">
        <ele>404.7744</ele>
        <time>2012-09-30T10:20:35Z</time>
      </trkpt>
      <trkpt lat="47.69215" lon="6.80369">
        <ele>404.7744</ele>
        <time>2012-09-30T10:20:38Z</time>
      </trkpt>
      <trkpt lat="47.69202" lon="6.8037">
        <ele>404.7744</ele>
        <time>2012-09-30T10:20:39Z</time>
      </trkpt>
      <trkpt lat="47.69189" lon="6.8037">
        <ele>404.7744</ele>
        <time>2012-09-30T10:20:42Z</time>
      </trkpt>
      <trkpt lat="47.69176" lon="6.8037">
        <ele>404.4696</ele>
        <time>2012-09-30T10:20:43Z</time>
      </trkpt>
      <trkpt lat="47.69163" lon="6.80368">
        <ele>404.4696</ele>
        <time>2012-09-30T10:20:46Z</time>
      </trkpt>
      <trkpt lat="47.6915" lon="6.80365">
        <ele>404.7744</ele>
        <time>2012-09-30T10:20:47Z</time>
      </trkpt>
      <trkpt lat="47.69137" lon="6.80363">
        <ele>404.4696</ele>
        <time>2012-09-30T10:20:50Z</time>
      </trkpt>
      <trkpt lat="47.69123" lon="6.8036">
        <ele>404.1648</ele>
        <time>2012-09-30T10:20:51Z</time>
      </trkpt>
      <trkpt lat="47.69111" lon="6.80354">
        <ele>403.86</ele>
        <time>2012-09-30T10:20:54Z</time>
      </trkpt>
      <trkpt lat="47.69099" lon="6.80347">
        <ele>403.5552</ele>
        <time>2012-09-30T10:20:55Z</time>
      </trkpt>
      <trkpt lat="47.69086" lon="6.80348">
        <ele>403.5552</ele>
        <time>2012-09-30T10:20:58Z</time>
      </trkpt>
      <trkpt lat="47.69073" lon="6.80354">
        <ele>403.5552</ele>
        <time>2012-09-30T10:21:00Z</time>
      </trkpt>
      <trkpt lat="47.69062" lon="6.80363">
        <ele>403.86</ele>
        <time>2012-09-30T10:21:01Z</time>
      </trkpt>
      <trkpt lat="47.69052" lon="6.80377">
        <ele>403.86</ele>
        <time>2012-09-30T10:21:04Z</time>
      </trkpt>
      <trkpt lat="47.69046" lon="6.80393">
        <ele>404.1648</ele>
        <time>2012-09-30T10:21:05Z</time>
      </trkpt>
      <trkpt lat="47.69043" lon="6.80411">
        <ele>404.4696</ele>
        <time>2012-09-30T10:21:08Z</time>
      </trkpt>
      <trkpt lat="47.6904" lon="6.8043">
        <ele>405.0792</ele>
        <time>2012-09-30T10:21:09Z</time>
      </trkpt>
      <trkpt lat="47.69038" lon="6.80447">
        <ele>405.0792</ele>
        <time>2012-09-30T10:21:12Z</time>
      </trkpt>
      <trkpt lat="47.69034" lon="6.80464">
        <ele>405.6888</ele>
        <time>2012-09-30T10:21:13Z</time>
      </trkpt>
      <trkpt lat="47.69029" lon="6.8048">
        <ele>406.2984</ele>
        <time>2012-09-30T10:21:16Z</time>
      </trkpt>
      <trkpt lat="47.69023" lon="6.80495">
        <ele>407.2128</ele>
        <time>2012-09-30T10:21:17Z</time>
      </trkpt>
      <trkpt lat="47.69014" lon="6.8051">
        <ele>407.8224</ele>
        <time>2012-09-30T10:21:20Z</time>
      </trkpt>
      <trkpt lat="47.69001" lon="6.80521">
        <ele>408.432</ele>
        <time>2012-09-30T10:21:21Z</time>
      </trkpt>
      <trkpt lat="47.68988" lon="6.80528">
        <ele>408.432</ele>
        <time>2012-09-30T10:21:24Z</time>
      </trkpt>
      <trkpt lat="47.68977" lon="6.80539">
        <ele>409.3464</ele>
        <time>2012-09-30T10:21:25Z</time>
      </trkpt>
      <trkpt lat="47.68968" lon="6.80554">
        <ele>409.3464</ele>
        <time>2012-09-30T10:21:28Z</time>
      </trkpt>
      <trkpt lat="47.68962" lon="6.80573">
        <ele>409.956</ele>
        <time>2012-09-30T10:21:29Z</time>
      </trkpt>
      <trkpt lat="47.68955" lon="6.80591">
        <ele>409.6512</ele>
        <time>2012-09-30T10:21:32Z</time>
      </trkpt>
      <trkpt lat="47.68945" lon="6.80606">
        <ele>410.2608</ele>
        <time>2012-09-30T10:21:33Z</time>
      </trkpt>
      <trkpt lat="47.68936" lon="6.80622">
        <ele>410.2608</ele>
        <time>2012-09-30T10:21:36Z</time>
      </trkpt>
      <trkpt lat="47.68928" lon="6.8064">
        <ele>410.2608</ele>
        <time>2012-09-30T10:21:37Z</time>
      </trkpt>
      <trkpt lat="47.6892" lon="6.80657">
        <ele>409.6512</ele>
        <time>2012-09-30T10:21:40Z</time>
      </trkpt>
      <trkpt lat="47.68912" lon="6.80674">
        <ele>409.956</ele>
        <time>2012-09-30T10:21:41Z</time>
      </trkpt>
      <trkpt lat="47.68902" lon="6.80686">
        <ele>411.1752</ele>
        <time>2012-09-30T10:21:44Z</time>
      </trkpt>
      <trkpt lat="47.68889" lon="6.80694">
        <ele>411.48</ele>
        <time>2012-09-30T10:21:45Z</time>
      </trkpt>
      <trkpt lat="47.68876" lon="6.807">
        <ele>411.48</ele>
        <time>2012-09-30T10:21:48Z</time>
      </trkpt>
      <trkpt lat="47.68862" lon="6.80706">
        <ele>411.7848</ele>
        <time>2012-09-30T10:21:49Z</time>
      </trkpt>
      <trkpt lat="47.68849" lon="6.80713">
        <ele>411.7848</ele>
        <time>2012-09-30T10:21:52Z</time>
      </trkpt>
      <trkpt lat="47.68836" lon="6.80719">
        <ele>411.7848</ele>
        <time>2012-09-30T10:21:54Z</time>
      </trkpt>
      <trkpt lat="47.68824" lon="6.80726">
        <ele>412.3944</ele>
        <time>2012-09-30T10:21:55Z</time>
      </trkpt>
      <trkpt lat="47.68812" lon="6.80734">
        <ele>409.956</ele>
        <time>2012-09-30T10:21:58Z</time>
      </trkpt>
      <trkpt lat="47.68801" lon="6.80743">
        <ele>408.7368</ele>
        <time>2012-09-30T10:21:59Z</time>
      </trkpt>
      <trkpt lat="47.6879" lon="6.80753">
        <ele>408.7368</ele>
        <time>2012-09-30T10:22:02Z</time>
      </trkpt>
      <trkpt lat="47.68779" lon="6.80763">
        <ele>407.8224</ele>
        <time>2012-09-30T10:22:03Z</time>
      </trkpt>
      <trkpt lat="47.68769" lon="6.80775">
        <ele>407.2128</ele>
        <time>2012-09-30T10:22:06Z</time>
      </trkpt>
      <trkpt lat="47.68758" lon="6.80787">
        <ele>407.5176</ele>
        <time>2012-09-30T10:22:07Z</time>
      </trkpt>
      <trkpt lat="47.68747" lon="6.808">
        <ele>407.5176</ele>
        <time>2012-09-30T10:22:10Z</time>
      </trkpt>
      <trkpt lat="47.68737" lon="6.80813">
        <ele>407.5176</ele>
        <time>2012-09-30T10:22:11Z</time>
      </trkpt>
      <trkpt lat="47.68726" lon="6.80825">
        <ele>407.5176</ele>
        <time>2012-09-30T10:22:14Z</time>
      </trkpt>
      <trkpt lat="47.68715" lon="6.80837">
        <ele>407.8224</ele>
        <time>2012-09-30T10:22:15Z</time>
      </trkpt>
      <trkpt lat="47.68704" lon="6.80849">
        <ele>407.5176</ele>
        <time>2012-09-30T10:22:18Z</time>
      </trkpt>
      <trkpt lat="47.68692" lon="6.8086">
        <ele>407.5176</ele>
        <time>2012-09-30T10:22:19Z</time>
      </trkpt>
      <trkpt lat="47.68681" lon="6.80871">
        <ele>407.2128</ele>
        <time>2012-09-30T10:22:22Z</time>
      </trkpt>
      <trkpt lat="47.68669" lon="6.80881">
        <ele>406.908</ele>
        <time>2012-09-30T10:22:23Z</time>
      </trkpt>
      <trkpt lat="47.68657" lon="6.8089">
        <ele>406.908</ele>
        <time>2012-09-30T10:22:26Z</time>
      </trkpt>
      <trkpt lat="47.68644" lon="6.80898">
        <ele>406.6032</ele>
        <time>2012-09-30T10:22:27Z</time>
      </trkpt>
      <trkpt lat="47.68632" lon="6.80907">
        <ele>406.908</ele>
        <time>2012-09-30T10:22:30Z</time>
      </trkpt>
      <trkpt lat="47.68621" lon="6.80916">
        <ele>406.2984</ele>
        <time>2012-09-30T10:22:31Z</time>
      </trkpt>
      <trkpt lat="47.6861" lon="6.80927">
        <ele>405.9936</ele>
        <time>2012-09-30T10:22:34Z</time>
      </trkpt>
      <trkpt lat="47.68599" lon="6.80938">
        <ele>405.6888</ele>
        <time>2012-09-30T10:22:35Z</time>
      </trkpt>
      <trkpt lat="47.68589" lon="6.80949">
        <ele>405.6888</ele>
        <time>2012-09-30T10:22:38Z</time>
      </trkpt>
      <trkpt lat="47.68579" lon="6.80959">
        <ele>405.9936</ele>
        <time>2012-09-30T10:22:39Z</time>
      </trkpt>
      <trkpt lat="47.68568" lon="6.80969">
        <ele>406.2984</ele>
        <time>2012-09-30T10:22:42Z</time>
      </trkpt>
      <trkpt lat="47.68558" lon="6.80978">
        <ele>406.6032</ele>
        <time>2012-09-30T10:22:43Z</time>
      </trkpt>
      <trkpt lat="47.68548" lon="6.80986">
        <ele>406.6032</ele>
        <time>2012-09-30T10:22:46Z</time>
      </trkpt>
      <trkpt lat="47.68536" lon="6.80992">
        <ele>406.2984</ele>
        <time>2012-09-30T10:22:48Z</time>
      </trkpt>
      <trkpt lat="47.68525" lon="6.80998">
        <ele>406.2984</ele>
        <time>2012-09-30T10:22:49Z</time>
      </trkpt>
      <trkpt lat="47.68515" lon="6.81004">
        <ele>405.9936</ele>
        <time>2012-09-30T10:22:52Z</time>
      </trkpt>
      <trkpt lat="47.68506" lon="6.81006">
        <ele>405.9936</ele>
        <time>2012-09-30T10:22:53Z</time>
      </trkpt>
      <trkpt lat="47.68501" lon="6.81001">
        <ele>405.9936</ele>
        <time>2012-09-30T10:22:56Z</time>
      </trkpt>
      <trkpt lat="47.685" lon="6.80994">
        <ele>405.6888</ele>
        <time>2012-09-30T10:22:57Z</time>
      </trkpt>
      <trkpt lat="47.68499" lon="6.80986">
        <ele>405.384</ele>
        <time>2012-09-30T10:23:00Z</time>
      </trkpt>
      <trkpt lat="47.68497" lon="6.80976">
        <ele>405.384</ele>
        <time>2012-09-30T10:23:01Z</time>
      </trkpt>
      <trkpt lat="47.68494" lon="6.80968">
        <ele>405.384</ele>
        <time>2012-09-30T10:23:04Z</time>
      </trkpt>
      <trkpt lat="47.68488" lon="6.80963">
        <ele>405.384</ele>
        <time>2012-09-30T10:23:05Z</time>
      </trkpt>
      <trkpt lat="47.68483" lon="6.80956">
        <ele>405.384</ele>
        <time>2012-09-30T10:23:08Z</time>
      </trkpt>
      <trkpt lat="47.68479" lon="6.80953">
        <ele>405.6888</ele>
        <time>2012-09-30T10:23:09Z</time>
      </trkpt>
      <trkpt lat="47.68474" lon="6.80951">
        <ele>405.384</ele>
        <time>2012-09-30T10:23:12Z</time>
      </trkpt>
      <trkpt lat="47.68471" lon="6.80952">
        <ele>405.384</ele>
        <time>2012-09-30T10:23:13Z</time>
      </trkpt>
      <trkpt lat="47.6847" lon="6.80958">
        <ele>406.2984</ele>
        <time>2012-09-30T10:23:47Z</time>
      </trkpt>
      <trkpt lat="47.68472" lon="6.80957">
        <ele>405.384</ele>
        <time>2012-09-30T10:24:34Z</time>
      </trkpt>
      <trkpt lat="47.6847" lon="6.80953">
        <ele>402.9456</ele>
        <time>2012-09-30T10:28:45Z</time>
      </trkpt>
      <trkpt lat="47.68471" lon="6.80953">
        <ele>400.812</ele>
        <time>2012-09-30T10:30:54Z</time>
      </trkpt>
      <trkpt lat="47.68473" lon="6.8095">
        <ele>400.812</ele>
        <time>2012-09-30T10:30:55Z</time>
      </trkpt>
      <trkpt lat="47.68475" lon="6.80947">
        <ele>400.812</ele>
        <time>2012-09-30T10:30:58Z</time>
      </trkpt>
      <trkpt lat="47.68478" lon="6.80945">
        <ele>400.812</ele>
        <time>2012-09-30T10:30:59Z</time>
      </trkpt>
      <trkpt lat="47.68482" lon="6.80946">
        <ele>400.812</ele>
        <time>2012-09-30T10:31:02Z</time>
      </trkpt>
      <trkpt lat="47.68487" lon="6.80949">
        <ele>400.812</ele>
        <time>2012-09-30T10:31:03Z</time>
      </trkpt>
      <trkpt lat="47.68491" lon="6.80955">
        <ele>400.5072</ele>
        <time>2012-09-30T10:31:06Z</time>
      </trkpt>
      <trkpt lat="47.68495" lon="6.80962">
        <ele>400.5072</ele>
        <time>2012-09-30T10:31:07Z</time>
      </trkpt>
      <trkpt lat="47.68497" lon="6.8097">
        <ele>400.2024</ele>
        <time>2012-09-30T10:31:10Z</time>
      </trkpt>
      <trkpt lat="47.685" lon="6.80977">
        <ele>400.2024</ele>
        <time>2012-09-30T10:31:11Z</time>
      </trkpt>
      <trkpt lat="47.68501" lon="6.80986">
        <ele>400.2024</ele>
        <time>2012-09-30T10:31:14Z</time>
      </trkpt>
      <trkpt lat="47.68501" lon="6.80995">
        <ele>399.8976</ele>
        <time>2012-09-30T10:31:15Z</time>
      </trkpt>
      <trkpt lat="47.68502" lon="6.81004">
        <ele>399.8976</ele>
        <time>2012-09-30T10:31:18Z</time>
      </trkpt>
      <trkpt lat="47.68499" lon="6.81012">
        <ele>399.8976</ele>
        <time>2012-09-30T10:31:19Z</time>
      </trkpt>
      <trkpt lat="47.68493" lon="6.81018">
        <ele>399.5928</ele>
        <time>2012-09-30T10:31:22Z</time>
      </trkpt>
      <trkpt lat="47.68485" lon="6.81025">
        <ele>399.5928</ele>
        <time>2012-09-30T10:31:23Z</time>
      </trkpt>
      <trkpt lat="47.68478" lon="6.81034">
        <ele>399.288</ele>
        <time>2012-09-30T10:31:26Z</time>
      </trkpt>
      <trkpt lat="47.68472" lon="6.81045">
        <ele>399.288</ele>
        <time>2012-09-30T10:31:27Z</time>
      </trkpt>
      <trkpt lat="47.68467" lon="6.81058">
        <ele>399.5928</ele>
        <time>2012-09-30T10:31:30Z</time>
      </trkpt>
      <trkpt lat="47.68463" lon="6.81072">
        <ele>399.5928</ele>
        <time>2012-09-30T10:31:31Z</time>
      </trkpt>
      <trkpt lat="47.6846" lon="6.81088">
        <ele>399.5928</ele>
        <time>2012-09-30T10:31:34Z</time>
      </trkpt>
      <trkpt lat="47.68457" lon="6.81105">
        <ele>399.8976</ele>
        <time>2012-09-30T10:31:35Z</time>
      </trkpt>
      <trkpt lat="47.68455" lon="6.81122">
        <ele>399.8976</ele>
        <time>2012-09-30T10:31:38Z</time>
      </trkpt>
      <trkpt lat="47.68453" lon="6.8114">
        <ele>400.2024</ele>
        <time>2012-09-30T10:31:39Z</time>
      </trkpt>
      <trkpt lat="47.68452" lon="6.81157">
        <ele>400.5072</ele>
        <time>2012-09-30T10:31:42Z</time>
      </trkpt>
      <trkpt lat="47.68452" lon="6.81174">
        <ele>400.2024</ele>
        <time>2012-09-30T10:31:43Z</time>
      </trkpt>
      <trkpt lat="47.68452" lon="6.81193">
        <ele>400.2024</ele>
        <time>2012-09-30T10:31:46Z</time>
      </trkpt>
      <trkpt lat="47.68452" lon="6.81211">
        <ele>399.8976</ele>
        <time>2012-09-30T10:31:48Z</time>
      </trkpt>
      <trkpt lat="47.6845" lon="6.81229">
        <ele>399.288</ele>
        <time>2012-09-30T10:31:49Z</time>
      </trkpt>
      <trkpt lat="47.68444" lon="6.81246">
        <ele>398.9832</ele>
        <time>2012-09-30T10:31:52Z</time>
      </trkpt>
      <trkpt lat="47.68435" lon="6.81262">
        <ele>398.3736</ele>
        <time>2012-09-30T10:31:53Z</time>
      </trkpt>
      <trkpt lat="47.68426" lon="6.81277">
        <ele>398.3736</ele>
        <time>2012-09-30T10:31:56Z</time>
      </trkpt>
      <trkpt lat="47.68418" lon="6.81291">
        <ele>398.0688</ele>
        <time>2012-09-30T10:31:57Z</time>
      </trkpt>
      <trkpt lat="47.6841" lon="6.81305">
        <ele>397.764</ele>
        <time>2012-09-30T10:32:00Z</time>
      </trkpt>
      <trkpt lat="47.68402" lon="6.81317">
        <ele>397.764</ele>
        <time>2012-09-30T10:32:01Z</time>
      </trkpt>
      <trkpt lat="47.68394" lon="6.81328">
        <ele>397.764</ele>
        <time>2012-09-30T10:32:04Z</time>
      </trkpt>
      <trkpt lat="47.68385" lon="6.81339">
        <ele>397.4592</ele>
        <time>2012-09-30T10:32:05Z</time>
      </trkpt>
      <trkpt lat="47.68376" lon="6.81349">
        <ele>397.4592</ele>
        <time>2012-09-30T10:32:08Z</time>
      </trkpt>
      <trkpt lat="47.68369" lon="6.8136">
        <ele>397.4592</ele>
        <time>2012-09-30T10:32:09Z</time>
      </trkpt>
      <trkpt lat="47.6837" lon="6.8137">
        <ele>397.4592</ele>
        <time>2012-09-30T10:32:12Z</time>
      </trkpt>
      <trkpt lat="47.6837" lon="6.81375">
        <ele>398.0688</ele>
        <time>2012-09-30T10:32:15Z</time>
      </trkpt>
      <trkpt lat="47.68367" lon="6.8138">
        <ele>398.3736</ele>
        <time>2012-09-30T10:32:16Z</time>
      </trkpt>
      <trkpt lat="47.68361" lon="6.81384">
        <ele>398.0688</ele>
        <time>2012-09-30T10:32:19Z</time>
      </trkpt>
      <trkpt lat="47.68357" lon="6.81395">
        <ele>398.0688</ele>
        <time>2012-09-30T10:32:20Z</time>
      </trkpt>
      <trkpt lat="47.68353" lon="6.81409">
        <ele>398.0688</ele>
        <time>2012-09-30T10:32:23Z</time>
      </trkpt>
      <trkpt lat="47.68346" lon="6.81423">
        <ele>397.764</ele>
        <time>2012-09-30T10:32:24Z</time>
      </trkpt>
      <trkpt lat="47.6834" lon="6.81437">
        <ele>397.4592</ele>
        <time>2012-09-30T10:32:27Z</time>
      </trkpt>
      <trkpt lat="47.68337" lon="6.81453">
        <ele>397.764</ele>
        <time>2012-09-30T10:32:28Z</time>
      </trkpt>
      <trkpt lat="47.68334" lon="6.81469">
        <ele>397.764</ele>
        <time>2012-09-30T10:32:31Z</time>
      </trkpt>
      <trkpt lat="47.6833" lon="6.81485">
        <ele>398.0688</ele>
        <time>2012-09-30T10:32:32Z</time>
      </trkpt>
      <trkpt lat="47.68327" lon="6.81501">
        <ele>398.0688</ele>
        <time>2012-09-30T10:32:35Z</time>
      </trkpt>
      <trkpt lat="47.68322" lon="6.81517">
        <ele>398.0688</ele>
        <time>2012-09-30T10:32:36Z</time>
      </trkpt>
      <trkpt lat="47.68316" lon="6.81532">
        <ele>398.0688</ele>
        <time>2012-09-30T10:32:39Z</time>
      </trkpt>
      <trkpt lat="47.68309" lon="6.81545">
        <ele>398.0688</ele>
        <time>2012-09-30T10:32:40Z</time>
      </trkpt>
      <trkpt lat="47.68303" lon="6.8156">
        <ele>398.0688</ele>
        <time>2012-09-30T10:32:43Z</time>
      </trkpt>
      <trkpt lat="47.68298" lon="6.81575">
        <ele>398.0688</ele>
        <time>2012-09-30T10:32:44Z</time>
      </trkpt>
      <trkpt lat="47.68295" lon="6.8159">
        <ele>398.0688</ele>
        <time>2012-09-30T10:32:47Z</time>
      </trkpt>
      <trkpt lat="47.68291" lon="6.81603">
        <ele>398.3736</ele>
        <time>2012-09-30T10:32:48Z</time>
      </trkpt>
      <trkpt lat="47.68287" lon="6.81615">
        <ele>398.6784</ele>
        <time>2012-09-30T10:32:51Z</time>
      </trkpt>
      <trkpt lat="47.68285" lon="6.81629">
        <ele>398.6784</ele>
        <time>2012-09-30T10:32:52Z</time>
      </trkpt>
      <trkpt lat="47.68283" lon="6.81644">
        <ele>398.3736</ele>
        <time>2012-09-30T10:32:55Z</time>
      </trkpt>
      <trkpt lat="47.68281" lon="6.81658">
        <ele>398.6784</ele>
        <time>2012-09-30T10:32:56Z</time>
      </trkpt>
      <trkpt lat="47.68276" lon="6.81675">
        <ele>398.6784</ele>
        <time>2012-09-30T10:32:59Z</time>
      </trkpt>
      <trkpt lat="47.68271" lon="6.81691">
        <ele>398.3736</ele>
        <time>2012-09-30T10:33:00Z</time>
      </trkpt>
      <trkpt lat="47.68263" lon="6.81705">
        <ele>398.0688</ele>
        <time>2012-09-30T10:33:03Z</time>
      </trkpt>
      <trkpt lat="47.68255" lon="6.81719">
        <ele>398.0688</ele>
        <time>2012-09-30T10:33:04Z</time>
      </trkpt>
      <trkpt lat="47.68247" lon="6.81733">
        <ele>398.0688</ele>
        <time>2012-09-30T10:33:07Z</time>
      </trkpt>
      <trkpt lat="47.68238" lon="6.81747">
        <ele>398.0688</ele>
        <time>2012-09-30T10:33:09Z</time>
      </trkpt>
      <trkpt lat="47.68229" lon="6.8176">
        <ele>397.764</ele>
        <time>2012-09-30T10:33:10Z</time>
      </trkpt>
      <trkpt lat="47.68221" lon="6.81773">
        <ele>397.764</ele>
        <time>2012-09-30T10:33:13Z</time>
      </trkpt>
      <trkpt lat="47.68214" lon="6.81788">
        <ele>397.764</ele>
        <time>2012-09-30T10:33:14Z</time>
      </trkpt>
      <trkpt lat="47.68209" lon="6.81806">
        <ele>398.0688</ele>
        <time>2012-09-30T10:33:17Z</time>
      </trkpt>
      <trkpt lat="47.68207" lon="6.81824">
        <ele>398.0688</ele>
        <time>2012-09-30T10:33:18Z</time>
      </trkpt>
      <trkpt lat="47.68206" lon="6.81844">
        <ele>397.764</ele>
        <time>2012-09-30T10:33:21Z</time>
      </trkpt>
      <trkpt lat="47.68208" lon="6.81863">
        <ele>397.764</ele>
        <time>2012-09-30T10:33:22Z</time>
      </trkpt>
      <trkpt lat="47.68211" lon="6.81881">
        <ele>398.0688</ele>
        <time>2012-09-30T10:33:25Z</time>
      </trkpt>
      <trkpt lat="47.68214" lon="6.81898">
        <ele>398.6784</ele>
        <time>2012-09-30T10:33:26Z</time>
      </trkpt>
      <trkpt lat="47.68216" lon="6.81914">
        <ele>399.5928</ele>
        <time>2012-09-30T10:33:29Z</time>
      </trkpt>
      <trkpt lat="47.68218" lon="6.8193">
        <ele>400.2024</ele>
        <time>2012-09-30T10:33:30Z</time>
      </trkpt>
      <trkpt lat="47.68218" lon="6.81947">
        <ele>400.812</ele>
        <time>2012-09-30T10:33:33Z</time>
      </trkpt>
      <trkpt lat="47.68218" lon="6.81966">
        <ele>401.1168</ele>
        <time>2012-09-30T10:33:34Z</time>
      </trkpt>
      <trkpt lat="47.68217" lon="6.81986">
        <ele>400.2024</ele>
        <time>2012-09-30T10:33:37Z</time>
      </trkpt>
      <trkpt lat="47.6821" lon="6.82003">
        <ele>399.5928</ele>
        <time>2012-09-30T10:33:38Z</time>
      </trkpt>
      <trkpt lat="47.682" lon="6.82019">
        <ele>398.9832</ele>
        <time>2012-09-30T10:33:41Z</time>
      </trkpt>
      <trkpt lat="47.6819" lon="6.82035">
        <ele>398.0688</ele>
        <time>2012-09-30T10:33:42Z</time>
      </trkpt>
      <trkpt lat="47.68181" lon="6.82052">
        <ele>397.4592</ele>
        <time>2012-09-30T10:33:45Z</time>
      </trkpt>
      <trkpt lat="47.68173" lon="6.82069">
        <ele>396.8496</ele>
        <time>2012-09-30T10:33:46Z</time>
      </trkpt>
      <trkpt lat="47.68165" lon="6.82086">
        <ele>396.24</ele>
        <time>2012-09-30T10:33:49Z</time>
      </trkpt>
      <trkpt lat="47.68155" lon="6.82099">
        <ele>395.9352</ele>
        <time>2012-09-30T10:33:50Z</time>
      </trkpt>
      <trkpt lat="47.68144" lon="6.8211">
        <ele>395.6304</ele>
        <time>2012-09-30T10:33:53Z</time>
      </trkpt>
      <trkpt lat="47.68133" lon="6.82121">
        <ele>395.3256</ele>
        <time>2012-09-30T10:33:54Z</time>
      </trkpt>
      <trkpt lat="47.68122" lon="6.82132">
        <ele>395.3256</ele>
        <time>2012-09-30T10:33:57Z</time>
      </trkpt>
      <trkpt lat="47.68112" lon="6.82142">
        <ele>395.3256</ele>
        <time>2012-09-30T10:33:58Z</time>
      </trkpt>
      <trkpt lat="47.68102" lon="6.82152">
        <ele>395.3256</ele>
        <time>2012-09-30T10:34:01Z</time>
      </trkpt>
      <trkpt lat="47.68092" lon="6.82163">
        <ele>395.3256</ele>
        <time>2012-09-30T10:34:03Z</time>
      </trkpt>
      <trkpt lat="47.68081" lon="6.82173">
        <ele>395.0208</ele>
        <time>2012-09-30T10:34:04Z</time>
      </trkpt>
      <trkpt lat="47.68071" lon="6.82184">
        <ele>394.716</ele>
        <time>2012-09-30T10:34:07Z</time>
      </trkpt>
      <trkpt lat="47.68059" lon="6.82192">
        <ele>394.716</ele>
        <time>2012-09-30T10:34:08Z</time>
      </trkpt>
      <trkpt lat="47.68047" lon="6.82197">
        <ele>394.716</ele>
        <time>2012-09-30T10:34:11Z</time>
      </trkpt>
      <trkpt lat="47.68034" lon="6.82196">
        <ele>394.716</ele>
        <time>2012-09-30T10:34:12Z</time>
      </trkpt>
      <trkpt lat="47.68021" lon="6.82194">
        <ele>394.716</ele>
        <time>2012-09-30T10:34:15Z</time>
      </trkpt>
      <trkpt lat="47.68009" lon="6.82191">
        <ele>394.4112</ele>
        <time>2012-09-30T10:34:16Z</time>
      </trkpt>
      <trkpt lat="47.67996" lon="6.82187">
        <ele>394.4112</ele>
        <time>2012-09-30T10:34:19Z</time>
      </trkpt>
      <trkpt lat="47.67983" lon="6.82186">
        <ele>394.4112</ele>
        <time>2012-09-30T10:34:20Z</time>
      </trkpt>
      <trkpt lat="47.6797" lon="6.82187">
        <ele>394.4112</ele>
        <time>2012-09-30T10:34:23Z</time>
      </trkpt>
      <trkpt lat="47.67958" lon="6.82191">
        <ele>394.1064</ele>
        <time>2012-09-30T10:34:24Z</time>
      </trkpt>
      <trkpt lat="47.67945" lon="6.82195">
        <ele>394.1064</ele>
        <time>2012-09-30T10:34:27Z</time>
      </trkpt>
      <trkpt lat="47.67933" lon="6.822">
        <ele>394.1064</ele>
        <time>2012-09-30T10:34:28Z</time>
      </trkpt>
      <trkpt lat="47.67921" lon="6.82206">
        <ele>394.1064</ele>
        <time>2012-09-30T10:34:31Z</time>
      </trkpt>
      <trkpt lat="47.6791" lon="6.82212">
        <ele>394.1064</ele>
        <time>2012-09-30T10:34:32Z</time>
      </trkpt>
      <trkpt lat="47.67898" lon="6.82218">
        <ele>394.1064</ele>
        <time>2012-09-30T10:34:35Z</time>
      </trkpt>
      <trkpt lat="47.67886" lon="6.82224">
        <ele>394.1064</ele>
        <time>2012-09-30T10:34:36Z</time>
      </trkpt>
      <trkpt lat="47.67874" lon="6.82226">
        <ele>393.8016</ele>
        <time>2012-09-30T10:34:39Z</time>
      </trkpt>
      <trkpt lat="47.67861" lon="6.82226">
        <ele>393.8016</ele>
        <time>2012-09-30T10:34:40Z</time>
      </trkpt>
      <trkpt lat="47.67848" lon="6.82225">
        <ele>393.4968</ele>
        <time>2012-09-30T10:34:43Z</time>
      </trkpt>
      <trkpt lat="47.67835" lon="6.82226">
        <ele>392.8872</ele>
        <time>2012-09-30T10:34:44Z</time>
      </trkpt>
      <trkpt lat="47.67821" lon="6.82224">
        <ele>392.5824</ele>
        <time>2012-09-30T10:34:47Z</time>
      </trkpt>
      <trkpt lat="47.67807" lon="6.82219">
        <ele>391.9728</ele>
        <time>2012-09-30T10:34:48Z</time>
      </trkpt>
      <trkpt lat="47.67793" lon="6.8222">
        <ele>391.668</ele>
        <time>2012-09-30T10:34:51Z</time>
      </trkpt>
      <trkpt lat="47.67781" lon="6.82231">
        <ele>391.3632</ele>
        <time>2012-09-30T10:34:52Z</time>
      </trkpt>
      <trkpt lat="47.67773" lon="6.82249">
        <ele>391.668</ele>
        <time>2012-09-30T10:34:55Z</time>
      </trkpt>
      <trkpt lat="47.67765" lon="6.82266">
        <ele>392.2776</ele>
        <time>2012-09-30T10:34:57Z</time>
      </trkpt>
      <trkpt lat="47.67755" lon="6.82279">
        <ele>392.5824</ele>
        <time>2012-09-30T10:34:58Z</time>
      </trkpt>
      <trkpt lat="47.67743" lon="6.82288">
        <ele>393.192</ele>
        <time>2012-09-30T10:35:01Z</time>
      </trkpt>
      <trkpt lat="47.67732" lon="6.823">
        <ele>393.4968</ele>
        <time>2012-09-30T10:35:02Z</time>
      </trkpt>
      <trkpt lat="47.67723" lon="6.82314">
        <ele>393.8016</ele>
        <time>2012-09-30T10:35:05Z</time>
      </trkpt>
      <trkpt lat="47.67715" lon="6.82327">
        <ele>394.1064</ele>
        <time>2012-09-30T10:35:06Z</time>
      </trkpt>
      <trkpt lat="47.67705" lon="6.82336">
        <ele>393.4968</ele>
        <time>2012-09-30T10:35:09Z</time>
      </trkpt>
      <trkpt lat="47.67696" lon="6.82344">
        <ele>393.8016</ele>
        <time>2012-09-30T10:35:10Z</time>
      </trkpt>
      <trkpt lat="47.67689" lon="6.82342">
        <ele>394.4112</ele>
        <time>2012-09-30T10:35:13Z</time>
      </trkpt>
      <trkpt lat="47.67685" lon="6.82329">
        <ele>395.6304</ele>
        <time>2012-09-30T10:35:14Z</time>
      </trkpt>
      <trkpt lat="47.67682" lon="6.82313">
        <ele>395.0208</ele>
        <time>2012-09-30T10:35:17Z</time>
      </trkpt>
      <trkpt lat="47.67678" lon="6.82297">
        <ele>395.0208</ele>
        <time>2012-09-30T10:35:18Z</time>
      </trkpt>
      <trkpt lat="47.67675" lon="6.82281">
        <ele>395.0208</ele>
        <time>2012-09-30T10:35:21Z</time>
      </trkpt>
      <trkpt lat="47.67671" lon="6.82266">
        <ele>395.0208</ele>
        <time>2012-09-30T10:35:22Z</time>
      </trkpt>
      <trkpt lat="47.67667" lon="6.82251">
        <ele>394.716</ele>
        <time>2012-09-30T10:35:25Z</time>
      </trkpt>
      <trkpt lat="47.67664" lon="6.82236">
        <ele>394.716</ele>
        <time>2012-09-30T10:35:26Z</time>
      </trkpt>
      <trkpt lat="47.67661" lon="6.8222">
        <ele>394.4112</ele>
        <time>2012-09-30T10:35:29Z</time>
      </trkpt>
      <trkpt lat="47.67657" lon="6.82205">
        <ele>394.4112</ele>
        <time>2012-09-30T10:35:30Z</time>
      </trkpt>
      <trkpt lat="47.67653" lon="6.8219">
        <ele>394.1064</ele>
        <time>2012-09-30T10:35:33Z</time>
      </trkpt>
      <trkpt lat="47.67649" lon="6.82175">
        <ele>394.1064</ele>
        <time>2012-09-30T10:35:34Z</time>
      </trkpt>
      <trkpt lat="47.67645" lon="6.82159">
        <ele>394.4112</ele>
        <time>2012-09-30T10:35:37Z</time>
      </trkpt>
      <trkpt lat="47.67641" lon="6.82145">
        <ele>395.0208</ele>
        <time>2012-09-30T10:35:38Z</time>
      </trkpt>
      <trkpt lat="47.6764" lon="6.82131">
        <ele>395.6304</ele>
        <time>2012-09-30T10:35:41Z</time>
      </trkpt>
      <trkpt lat="47.67643" lon="6.82118">
        <ele>396.5448</ele>
        <time>2012-09-30T10:35:42Z</time>
      </trkpt>
      <trkpt lat="47.67649" lon="6.82106">
        <ele>397.1544</ele>
        <time>2012-09-30T10:35:45Z</time>
      </trkpt>
      <trkpt lat="47.67653" lon="6.82094">
        <ele>398.0688</ele>
        <time>2012-09-30T10:35:46Z</time>
      </trkpt>
      <trkpt lat="47.67658" lon="6.82082">
        <ele>398.9832</ele>
        <time>2012-09-30T10:35:49Z</time>
      </trkpt>
      <trkpt lat="47.67665" lon="6.82072">
        <ele>399.5928</ele>
        <time>2012-09-30T10:35:50Z</time>
      </trkpt>
      <trkpt lat="47.67667" lon="6.82061">
        <ele>400.5072</ele>
        <time>2012-09-30T10:35:52Z</time>
      </trkpt>
      <trkpt lat="47.67664" lon="6.82052">
        <ele>400.812</ele>
        <time>2012-09-30T10:35:55Z</time>
      </trkpt>
      <trkpt lat="47.67657" lon="6.82046">
        <ele>401.4216</ele>
        <time>2012-09-30T10:35:56Z</time>
      </trkpt>
      <trkpt lat="47.67651" lon="6.82041">
        <ele>401.4216</ele>
        <time>2012-09-30T10:35:59Z</time>
      </trkpt>
      <trkpt lat="47.67643" lon="6.82036">
        <ele>401.4216</ele>
        <time>2012-09-30T10:36:00Z</time>
      </trkpt>
      <trkpt lat="47.67635" lon="6.82032">
        <ele>401.4216</ele>
        <time>2012-09-30T10:36:03Z</time>
      </trkpt>
      <trkpt lat="47.67627" lon="6.8203">
        <ele>402.0312</ele>
        <time>2012-09-30T10:36:04Z</time>
      </trkpt>
      <trkpt lat="47.67619" lon="6.8203">
        <ele>402.6408</ele>
        <time>2012-09-30T10:36:07Z</time>
      </trkpt>
      <trkpt lat="47.67611" lon="6.82031">
        <ele>402.9456</ele>
        <time>2012-09-30T10:36:08Z</time>
      </trkpt>
      <trkpt lat="47.67604" lon="6.82032">
        <ele>403.2504</ele>
        <time>2012-09-30T10:36:11Z</time>
      </trkpt>
      <trkpt lat="47.67596" lon="6.82032">
        <ele>403.5552</ele>
        <time>2012-09-30T10:36:12Z</time>
      </trkpt>
      <trkpt lat="47.67589" lon="6.82033">
        <ele>403.86</ele>
        <time>2012-09-30T10:36:15Z</time>
      </trkpt>
      <trkpt lat="47.67582" lon="6.82033">
        <ele>404.1648</ele>
        <time>2012-09-30T10:36:16Z</time>
      </trkpt>
      <trkpt lat="47.67575" lon="6.82033">
        <ele>404.4696</ele>
        <time>2012-09-30T10:36:19Z</time>
      </trkpt>
      <trkpt lat="47.67567" lon="6.82032">
        <ele>404.7744</ele>
        <time>2012-09-30T10:36:20Z</time>
      </trkpt>
      <trkpt lat="47.6756" lon="6.82028">
        <ele>405.0792</ele>
        <time>2012-09-30T10:36:23Z</time>
      </trkpt>
      <trkpt lat="47.67554" lon="6.82022">
        <ele>405.6888</ele>
        <time>2012-09-30T10:36:24Z</time>
      </trkpt>
      <trkpt lat="47.67549" lon="6.82015">
        <ele>405.9936</ele>
        <time>2012-09-30T10:36:27Z</time>
      </trkpt>
      <trkpt lat="47.67544" lon="6.82006">
        <ele>406.2984</ele>
        <time>2012-09-30T10:36:28Z</time>
      </trkpt>
      <trkpt lat="47.67539" lon="6.81998">
        <ele>406.6032</ele>
        <time>2012-09-30T10:36:31Z</time>
      </trkpt>
      <trkpt lat="47.67534" lon="6.81991">
        <ele>407.2128</ele>
        <time>2012-09-30T10:36:32Z</time>
      </trkpt>
      <trkpt lat="47.67527" lon="6.81986">
        <ele>407.5176</ele>
        <time>2012-09-30T10:36:35Z</time>
      </trkpt>
      <trkpt lat="47.67521" lon="6.81983">
        <ele>407.5176</ele>
        <time>2012-09-30T10:36:36Z</time>
      </trkpt>
      <trkpt lat="47.67514" lon="6.8198">
        <ele>407.8224</ele>
        <time>2012-09-30T10:36:39Z</time>
      </trkpt>
      <trkpt lat="47.67506" lon="6.81978">
        <ele>408.1272</ele>
        <time>2012-09-30T10:36:40Z</time>
      </trkpt>
      <trkpt lat="47.67499" lon="6.81976">
        <ele>408.1272</ele>
        <time>2012-09-30T10:36:43Z</time>
      </trkpt>
      <trkpt lat="47.67492" lon="6.81975">
        <ele>408.432</ele>
        <time>2012-09-30T10:36:44Z</time>
      </trkpt>
      <trkpt lat="47.67484" lon="6.81975">
        <ele>408.432</ele>
        <time>2012-09-30T10:36:46Z</time>
      </trkpt>
      <trkpt lat="47.67476" lon="6.81976">
        <ele>408.7368</ele>
        <time>2012-09-30T10:36:49Z</time>
      </trkpt>
      <trkpt lat="47.67469" lon="6.81977">
        <ele>409.0416</ele>
        <time>2012-09-30T10:36:50Z</time>
      </trkpt>
      <trkpt lat="47.67463" lon="6.81976">
        <ele>409.3464</ele>
        <time>2012-09-30T10:36:53Z</time>
      </trkpt>
      <trkpt lat="47.6746" lon="6.81968">
        <ele>409.6512</ele>
        <time>2012-09-30T10:36:54Z</time>
      </trkpt>
      <trkpt lat="47.67463" lon="6.81958">
        <ele>409.956</ele>
        <time>2012-09-30T10:36:57Z</time>
      </trkpt>
      <trkpt lat="47.67467" lon="6.81949">
        <ele>409.956</ele>
        <time>2012-09-30T10:36:58Z</time>
      </trkpt>
      <trkpt lat="47.67471" lon="6.81939">
        <ele>409.956</ele>
        <time>2012-09-30T10:37:01Z</time>
      </trkpt>
      <trkpt lat="47.67475" lon="6.81929">
        <ele>410.2608</ele>
        <time>2012-09-30T10:37:02Z</time>
      </trkpt>
      <trkpt lat="47.6748" lon="6.81918">
        <ele>410.5656</ele>
        <time>2012-09-30T10:37:05Z</time>
      </trkpt>
      <trkpt lat="47.67485" lon="6.81909">
        <ele>410.2608</ele>
        <time>2012-09-30T10:37:06Z</time>
      </trkpt>
      <trkpt lat="47.6749" lon="6.81899">
        <ele>410.2608</ele>
        <time>2012-09-30T10:37:09Z</time>
      </trkpt>
      <trkpt lat="47.67496" lon="6.8189">
        <ele>410.2608</ele>
        <time>2012-09-30T10:37:10Z</time>
      </trkpt>
      <trkpt lat="47.67503" lon="6.81879">
        <ele>409.6512</ele>
        <time>2012-09-30T10:37:13Z</time>
      </trkpt>
      <trkpt lat="47.67509" lon="6.81867">
        <ele>409.3464</ele>
        <time>2012-09-30T10:37:14Z</time>
      </trkpt>
      <trkpt lat="47.67516" lon="6.81854">
        <ele>408.7368</ele>
        <time>2012-09-30T10:37:17Z</time>
      </trkpt>
      <trkpt lat="47.67521" lon="6.8184">
        <ele>408.432</ele>
        <time>2012-09-30T10:37:18Z</time>
      </trkpt>
      <trkpt lat="47.67527" lon="6.81825">
        <ele>408.1272</ele>
        <time>2012-09-30T10:37:21Z</time>
      </trkpt>
      <trkpt lat="47.67533" lon="6.81809">
        <ele>407.5176</ele>
        <time>2012-09-30T10:37:22Z</time>
      </trkpt>
      <trkpt lat="47.67539" lon="6.81793">
        <ele>407.2128</ele>
        <time>2012-09-30T10:37:25Z</time>
      </trkpt>
      <trkpt lat="47.67545" lon="6.81777">
        <ele>406.908</ele>
        <time>2012-09-30T10:37:26Z</time>
      </trkpt>
      <trkpt lat="47.67552" lon="6.8176">
        <ele>406.6032</ele>
        <time>2012-09-30T10:37:29Z</time>
      </trkpt>
      <trkpt lat="47.67557" lon="6.81744">
        <ele>406.2984</ele>
        <time>2012-09-30T10:37:30Z</time>
      </trkpt>
      <trkpt lat="47.67558" lon="6.81728">
        <ele>405.9936</ele>
        <time>2012-09-30T10:37:33Z</time>
      </trkpt>
      <trkpt lat="47.67551" lon="6.81718">
        <ele>406.6032</ele>
        <time>2012-09-30T10:37:34Z</time>
      </trkpt>
      <trkpt lat="47.67542" lon="6.81715">
        <ele>406.908</ele>
        <time>2012-09-30T10:37:37Z</time>
      </trkpt>
      <trkpt lat="47.67533" lon="6.81716">
        <ele>407.2128</ele>
        <time>2012-09-30T10:37:38Z</time>
      </trkpt>
      <trkpt lat="47.67524" lon="6.81717">
        <ele>407.5176</ele>
        <time>2012-09-30T10:37:40Z</time>
      </trkpt>
      <trkpt lat="47.67515" lon="6.81718">
        <ele>408.1272</ele>
        <time>2012-09-30T10:37:43Z</time>
      </trkpt>
      <trkpt lat="47.67506" lon="6.81719">
        <ele>408.432</ele>
        <time>2012-09-30T10:37:44Z</time>
      </trkpt>
      <trkpt lat="47.67498" lon="6.81721">
        <ele>409.0416</ele>
        <time>2012-09-30T10:37:47Z</time>
      </trkpt>
      <trkpt lat="47.6749" lon="6.81723">
        <ele>409.3464</ele>
        <time>2012-09-30T10:37:48Z</time>
      </trkpt>
      <trkpt lat="47.67482" lon="6.81725">
        <ele>409.6512</ele>
        <time>2012-09-30T10:37:51Z</time>
      </trkpt>
      <trkpt lat="47.67474" lon="6.81725">
        <ele>409.956</ele>
        <time>2012-09-30T10:37:52Z</time>
      </trkpt>
      <trkpt lat="47.67466" lon="6.81726">
        <ele>410.5656</ele>
        <time>2012-09-30T10:37:55Z</time>
      </trkpt>
      <trkpt lat="47.67458" lon="6.81728">
        <ele>410.8704</ele>
        <time>2012-09-30T10:37:56Z</time>
      </trkpt>
      <trkpt lat="47.67451" lon="6.8173">
        <ele>411.48</ele>
        <time>2012-09-30T10:37:59Z</time>
      </trkpt>
      <trkpt lat="47.67443" lon="6.81732">
        <ele>411.7848</ele>
        <time>2012-09-30T10:38:00Z</time>
      </trkpt>
      <trkpt lat="47.67436" lon="6.81733">
        <ele>412.0896</ele>
        <time>2012-09-30T10:38:03Z</time>
      </trkpt>
      <trkpt lat="47.67429" lon="6.81734">
        <ele>412.3944</ele>
        <time>2012-09-30T10:38:04Z</time>
      </trkpt>
      <trkpt lat="47.67422" lon="6.81735">
        <ele>412.6992</ele>
        <time>2012-09-30T10:38:07Z</time>
      </trkpt>
      <trkpt lat="47.67415" lon="6.81736">
        <ele>413.004</ele>
        <time>2012-09-30T10:38:08Z</time>
      </trkpt>
      <trkpt lat="47.67408" lon="6.81737">
        <ele>413.3088</ele>
        <time>2012-09-30T10:38:11Z</time>
      </trkpt>
      <trkpt lat="47.67401" lon="6.81737">
        <ele>413.6136</ele>
        <time>2012-09-30T10:38:12Z</time>
      </trkpt>
      <trkpt lat="47.67394" lon="6.81738">
        <ele>413.9184</ele>
        <time>2012-09-30T10:38:15Z</time>
      </trkpt>
      <trkpt lat="47.67387" lon="6.81738">
        <ele>413.9184</ele>
        <time>2012-09-30T10:38:16Z</time>
      </trkpt>
      <trkpt lat="47.6738" lon="6.81738">
        <ele>414.2232</ele>
        <time>2012-09-30T10:38:19Z</time>
      </trkpt>
      <trkpt lat="47.67373" lon="6.81738">
        <ele>414.2232</ele>
        <time>2012-09-30T10:38:20Z</time>
      </trkpt>
      <trkpt lat="47.67365" lon="6.8174">
        <ele>414.528</ele>
        <time>2012-09-30T10:38:23Z</time>
      </trkpt>
      <trkpt lat="47.67358" lon="6.81742">
        <ele>414.8328</ele>
        <time>2012-09-30T10:38:24Z</time>
      </trkpt>
      <trkpt lat="47.6735" lon="6.81742">
        <ele>415.1376</ele>
        <time>2012-09-30T10:38:27Z</time>
      </trkpt>
      <trkpt lat="47.67343" lon="6.81741">
        <ele>415.4424</ele>
        <time>2012-09-30T10:38:28Z</time>
      </trkpt>
      <trkpt lat="47.67335" lon="6.81742">
        <ele>415.4424</ele>
        <time>2012-09-30T10:38:31Z</time>
      </trkpt>
      <trkpt lat="47.67327" lon="6.81742">
        <ele>415.7472</ele>
        <time>2012-09-30T10:38:32Z</time>
      </trkpt>
      <trkpt lat="47.6732" lon="6.81742">
        <ele>416.052</ele>
        <time>2012-09-30T10:38:34Z</time>
      </trkpt>
      <trkpt lat="47.67312" lon="6.81742">
        <ele>416.3568</ele>
        <time>2012-09-30T10:38:37Z</time>
      </trkpt>
      <trkpt lat="47.67305" lon="6.81742">
        <ele>416.9664</ele>
        <time>2012-09-30T10:38:38Z</time>
      </trkpt>
      <trkpt lat="47.67298" lon="6.81742">
        <ele>416.9664</ele>
        <time>2012-09-30T10:38:41Z</time>
      </trkpt>
      <trkpt lat="47.67291" lon="6.81742">
        <ele>417.2712</ele>
        <time>2012-09-30T10:38:42Z</time>
      </trkpt>
      <trkpt lat="47.67283" lon="6.81742">
        <ele>417.576</ele>
        <time>2012-09-30T10:38:45Z</time>
      </trkpt>
      <trkpt lat="47.67276" lon="6.81742">
        <ele>417.576</ele>
        <time>2012-09-30T10:38:46Z</time>
      </trkpt>
      <trkpt lat="47.67269" lon="6.81742">
        <ele>417.8808</ele>
        <time>2012-09-30T10:38:49Z</time>
      </trkpt>
      <trkpt lat="47.67261" lon="6.81743">
        <ele>418.1856</ele>
        <time>2012-09-30T10:38:50Z</time>
      </trkpt>
      <trkpt lat="47.67254" lon="6.81742">
        <ele>418.4904</ele>
        <time>2012-09-30T10:38:53Z</time>
      </trkpt>
      <trkpt lat="47.67247" lon="6.81742">
        <ele>418.7952</ele>
        <time>2012-09-30T10:38:54Z</time>
      </trkpt>
      <trkpt lat="47.6724" lon="6.81742">
        <ele>418.7952</ele>
        <time>2012-09-30T10:38:57Z</time>
      </trkpt>
      <trkpt lat="47.67234" lon="6.81743">
        <ele>419.1</ele>
        <time>2012-09-30T10:38:58Z</time>
      </trkpt>
      <trkpt lat="47.67227" lon="6.81742">
        <ele>419.4048</ele>
        <time>2012-09-30T10:39:01Z</time>
      </trkpt>
      <trkpt lat="47.67219" lon="6.81742">
        <ele>420.0144</ele>
        <time>2012-09-30T10:39:02Z</time>
      </trkpt>
      <trkpt lat="47.67212" lon="6.81742">
        <ele>420.3192</ele>
        <time>2012-09-30T10:39:05Z</time>
      </trkpt>
      <trkpt lat="47.67205" lon="6.81743">
        <ele>420.9288</ele>
        <time>2012-09-30T10:39:06Z</time>
      </trkpt>
      <trkpt lat="47.67198" lon="6.81743">
        <ele>421.2336</ele>
        <time>2012-09-30T10:39:09Z</time>
      </trkpt>
      <trkpt lat="47.67191" lon="6.81744">
        <ele>421.8432</ele>
        <time>2012-09-30T10:39:10Z</time>
      </trkpt>
      <trkpt lat="47.67184" lon="6.81744">
        <ele>422.4528</ele>
        <time>2012-09-30T10:39:13Z</time>
      </trkpt>
      <trkpt lat="47.67178" lon="6.81744">
        <ele>423.0624</ele>
        <time>2012-09-30T10:39:14Z</time>
      </trkpt>
      <trkpt lat="47.67171" lon="6.81745">
        <ele>423.672</ele>
        <time>2012-09-30T10:39:17Z</time>
      </trkpt>
      <trkpt lat="47.67164" lon="6.81745">
        <ele>423.9768</ele>
        <time>2012-09-30T10:39:18Z</time>
      </trkpt>
      <trkpt lat="47.67158" lon="6.81746">
        <ele>424.2816</ele>
        <time>2012-09-30T10:39:21Z</time>
      </trkpt>
      <trkpt lat="47.67151" lon="6.81746">
        <ele>424.5864</ele>
        <time>2012-09-30T10:39:22Z</time>
      </trkpt>
      <trkpt lat="47.67145" lon="6.81747">
        <ele>424.8912</ele>
        <time>2012-09-30T10:39:25Z</time>
      </trkpt>
      <trkpt lat="47.67138" lon="6.81747">
        <ele>425.196</ele>
        <time>2012-09-30T10:39:27Z</time>
      </trkpt>
      <trkpt lat="47.67132" lon="6.81746">
        <ele>425.8056</ele>
        <time>2012-09-30T10:39:28Z</time>
      </trkpt>
      <trkpt lat="47.67125" lon="6.81746">
        <ele>426.1104</ele>
        <time>2012-09-30T10:39:31Z</time>
      </trkpt>
      <trkpt lat="47.67119" lon="6.81747">
        <ele>426.1104</ele>
        <time>2012-09-30T10:39:32Z</time>
      </trkpt>
      <trkpt lat="47.67112" lon="6.81747">
        <ele>426.72</ele>
        <time>2012-09-30T10:39:35Z</time>
      </trkpt>
      <trkpt lat="47.67106" lon="6.81746">
        <ele>426.72</ele>
        <time>2012-09-30T10:39:36Z</time>
      </trkpt>
      <trkpt lat="47.67098" lon="6.81745">
        <ele>426.72</ele>
        <time>2012-09-30T10:39:39Z</time>
      </trkpt>
      <trkpt lat="47.67091" lon="6.81745">
        <ele>426.72</ele>
        <time>2012-09-30T10:39:40Z</time>
      </trkpt>
      <trkpt lat="47.67083" lon="6.81745">
        <ele>427.0248</ele>
        <time>2012-09-30T10:39:43Z</time>
      </trkpt>
      <trkpt lat="47.67075" lon="6.81745">
        <ele>426.72</ele>
        <time>2012-09-30T10:39:44Z</time>
      </trkpt>
      <trkpt lat="47.67067" lon="6.81744">
        <ele>427.0248</ele>
        <time>2012-09-30T10:39:47Z</time>
      </trkpt>
      <trkpt lat="47.67035" lon="6.81746">
        <ele>428.244</ele>
        <time>2012-09-30T10:39:55Z</time>
      </trkpt>
      <trkpt lat="47.67032" lon="6.81747">
        <ele>428.244</ele>
        <time>2012-09-30T10:39:56Z</time>
      </trkpt>
      <trkpt lat="47.67025" lon="6.81748">
        <ele>428.8536</ele>
        <time>2012-09-30T10:39:59Z</time>
      </trkpt>
      <trkpt lat="47.67019" lon="6.81749">
        <ele>429.1584</ele>
        <time>2012-09-30T10:40:00Z</time>
      </trkpt>
      <trkpt lat="47.67013" lon="6.81753">
        <ele>429.768</ele>
        <time>2012-09-30T10:40:03Z</time>
      </trkpt>
      <trkpt lat="47.67011" lon="6.81761">
        <ele>430.0728</ele>
        <time>2012-09-30T10:40:04Z</time>
      </trkpt>
      <trkpt lat="47.67008" lon="6.8177">
        <ele>430.3776</ele>
        <time>2012-09-30T10:40:07Z</time>
      </trkpt>
      <trkpt lat="47.67005" lon="6.81778">
        <ele>430.6824</ele>
        <time>2012-09-30T10:40:08Z</time>
      </trkpt>
      <trkpt lat="47.67002" lon="6.81787">
        <ele>430.9872</ele>
        <time>2012-09-30T10:40:11Z</time>
      </trkpt>
      <trkpt lat="47.67" lon="6.81797">
        <ele>431.292</ele>
        <time>2012-09-30T10:40:12Z</time>
      </trkpt>
      <trkpt lat="47.66998" lon="6.81805">
        <ele>431.5968</ele>
        <time>2012-09-30T10:40:15Z</time>
      </trkpt>
      <trkpt lat="47.66996" lon="6.81814">
        <ele>431.9016</ele>
        <time>2012-09-30T10:40:16Z</time>
      </trkpt>
      <trkpt lat="47.66994" lon="6.81822">
        <ele>432.2064</ele>
        <time>2012-09-30T10:40:19Z</time>
      </trkpt>
      <trkpt lat="47.66991" lon="6.8183">
        <ele>432.816</ele>
        <time>2012-09-30T10:40:21Z</time>
      </trkpt>
      <trkpt lat="47.6699" lon="6.81839">
        <ele>433.1208</ele>
        <time>2012-09-30T10:40:22Z</time>
      </trkpt>
      <trkpt lat="47.66988" lon="6.81847">
        <ele>433.4256</ele>
        <time>2012-09-30T10:40:25Z</time>
      </trkpt>
      <trkpt lat="47.66986" lon="6.81855">
        <ele>433.7304</ele>
        <time>2012-09-30T10:40:26Z</time>
      </trkpt>
      <trkpt lat="47.66984" lon="6.81863">
        <ele>434.34</ele>
        <time>2012-09-30T10:40:29Z</time>
      </trkpt>
      <trkpt lat="47.66982" lon="6.81871">
        <ele>434.6448</ele>
        <time>2012-09-30T10:40:30Z</time>
      </trkpt>
      <trkpt lat="47.6698" lon="6.81879">
        <ele>435.2544</ele>
        <time>2012-09-30T10:40:33Z</time>
      </trkpt>
      <trkpt lat="47.66978" lon="6.81887">
        <ele>435.5592</ele>
        <time>2012-09-30T10:40:34Z</time>
      </trkpt>
      <trkpt lat="47.66976" lon="6.81895">
        <ele>435.864</ele>
        <time>2012-09-30T10:40:37Z</time>
      </trkpt>
      <trkpt lat="47.66975" lon="6.81903">
        <ele>436.1688</ele>
        <time>2012-09-30T10:40:38Z</time>
      </trkpt>
      <trkpt lat="47.66973" lon="6.81911">
        <ele>436.7784</ele>
        <time>2012-09-30T10:40:41Z</time>
      </trkpt>
      <trkpt lat="47.66971" lon="6.81918">
        <ele>437.0832</ele>
        <time>2012-09-30T10:40:42Z</time>
      </trkpt>
      <trkpt lat="47.66969" lon="6.81925">
        <ele>437.6928</ele>
        <time>2012-09-30T10:40:45Z</time>
      </trkpt>
      <trkpt lat="47.66966" lon="6.81932">
        <ele>437.9976</ele>
        <time>2012-09-30T10:40:46Z</time>
      </trkpt>
      <trkpt lat="47.66963" lon="6.81937">
        <ele>438.6072</ele>
        <time>2012-09-30T10:40:49Z</time>
      </trkpt>
      <trkpt lat="47.66958" lon="6.8194">
        <ele>439.2168</ele>
        <time>2012-09-30T10:40:50Z</time>
      </trkpt>
      <trkpt lat="47.66954" lon="6.81941">
        <ele>439.8264</ele>
        <time>2012-09-30T10:40:53Z</time>
      </trkpt>
      <trkpt lat="47.66948" lon="6.81943">
        <ele>440.436</ele>
        <time>2012-09-30T10:40:54Z</time>
      </trkpt>
      <trkpt lat="47.66943" lon="6.81945">
        <ele>440.7408</ele>
        <time>2012-09-30T10:40:57Z</time>
      </trkpt>
      <trkpt lat="47.66938" lon="6.81946">
        <ele>441.3504</ele>
        <time>2012-09-30T10:40:58Z</time>
      </trkpt>
      <trkpt lat="47.66933" lon="6.81948">
        <ele>441.96</ele>
        <time>2012-09-30T10:41:01Z</time>
      </trkpt>
      <trkpt lat="47.66928" lon="6.81949">
        <ele>442.5696</ele>
        <time>2012-09-30T10:41:02Z</time>
      </trkpt>
      <trkpt lat="47.66923" lon="6.8195">
        <ele>443.1792</ele>
        <time>2012-09-30T10:41:05Z</time>
      </trkpt>
      <trkpt lat="47.66919" lon="6.81951">
        <ele>443.7888</ele>
        <time>2012-09-30T10:41:06Z</time>
      </trkpt>
      <trkpt lat="47.66915" lon="6.81952">
        <ele>444.0936</ele>
        <time>2012-09-30T10:41:09Z</time>
      </trkpt>
      <trkpt lat="47.6691" lon="6.81953">
        <ele>444.3984</ele>
        <time>2012-09-30T10:41:10Z</time>
      </trkpt>
      <trkpt lat="47.66906" lon="6.81954">
        <ele>445.008</ele>
        <time>2012-09-30T10:41:13Z</time>
      </trkpt>
      <trkpt lat="47.66902" lon="6.81956">
        <ele>445.3128</ele>
        <time>2012-09-30T10:41:15Z</time>
      </trkpt>
      <trkpt lat="47.66899" lon="6.81963">
        <ele>445.6176</ele>
        <time>2012-09-30T10:41:16Z</time>
      </trkpt>
      <trkpt lat="47.66898" lon="6.8197">
        <ele>445.9224</ele>
        <time>2012-09-30T10:41:19Z</time>
      </trkpt>
      <trkpt lat="47.66896" lon="6.81978">
        <ele>446.2272</ele>
        <time>2012-09-30T10:41:20Z</time>
      </trkpt>
      <trkpt lat="47.66894" lon="6.81986">
        <ele>446.2272</ele>
        <time>2012-09-30T10:41:23Z</time>
      </trkpt>
      <trkpt lat="47.66893" lon="6.81994">
        <ele>446.532</ele>
        <time>2012-09-30T10:41:24Z</time>
      </trkpt>
      <trkpt lat="47.66891" lon="6.82002">
        <ele>446.8368</ele>
        <time>2012-09-30T10:41:27Z</time>
      </trkpt>
      <trkpt lat="47.6689" lon="6.8201">
        <ele>447.1416</ele>
        <time>2012-09-30T10:41:28Z</time>
      </trkpt>
      <trkpt lat="47.66888" lon="6.82018">
        <ele>447.7512</ele>
        <time>2012-09-30T10:41:31Z</time>
      </trkpt>
      <trkpt lat="47.66886" lon="6.82025">
        <ele>448.056</ele>
        <time>2012-09-30T10:41:32Z</time>
      </trkpt>
      <trkpt lat="47.66883" lon="6.82031">
        <ele>448.6656</ele>
        <time>2012-09-30T10:41:35Z</time>
      </trkpt>
      <trkpt lat="47.66879" lon="6.82029">
        <ele>449.2752</ele>
        <time>2012-09-30T10:41:36Z</time>
      </trkpt>
      <trkpt lat="47.66877" lon="6.82023">
        <ele>449.58</ele>
        <time>2012-09-30T10:41:39Z</time>
      </trkpt>
      <trkpt lat="47.66874" lon="6.82016">
        <ele>449.8848</ele>
        <time>2012-09-30T10:41:40Z</time>
      </trkpt>
      <trkpt lat="47.66872" lon="6.82009">
        <ele>450.1896</ele>
        <time>2012-09-30T10:41:43Z</time>
      </trkpt>
      <trkpt lat="47.6687" lon="6.82001">
        <ele>450.4944</ele>
        <time>2012-09-30T10:41:44Z</time>
      </trkpt>
      <trkpt lat="47.66867" lon="6.81993">
        <ele>450.7992</ele>
        <time>2012-09-30T10:41:47Z</time>
      </trkpt>
      <trkpt lat="47.66865" lon="6.81985">
        <ele>451.104</ele>
        <time>2012-09-30T10:41:48Z</time>
      </trkpt>
      <trkpt lat="47.66863" lon="6.81977">
        <ele>451.104</ele>
        <time>2012-09-30T10:41:51Z</time>
      </trkpt>
      <trkpt lat="47.6686" lon="6.81968">
        <ele>451.4088</ele>
        <time>2012-09-30T10:41:52Z</time>
      </trkpt>
      <trkpt lat="47.66858" lon="6.8196">
        <ele>451.4088</ele>
        <time>2012-09-30T10:41:55Z</time>
      </trkpt>
      <trkpt lat="47.66855" lon="6.81952">
        <ele>451.4088</ele>
        <time>2012-09-30T10:41:56Z</time>
      </trkpt>
      <trkpt lat="47.66852" lon="6.81944">
        <ele>451.7136</ele>
        <time>2012-09-30T10:41:59Z</time>
      </trkpt>
      <trkpt lat="47.6685" lon="6.81936">
        <ele>451.7136</ele>
        <time>2012-09-30T10:42:00Z</time>
      </trkpt>
      <trkpt lat="47.66848" lon="6.81927">
        <ele>451.7136</ele>
        <time>2012-09-30T10:42:03Z</time>
      </trkpt>
      <trkpt lat="47.66845" lon="6.81918">
        <ele>452.0184</ele>
        <time>2012-09-30T10:42:04Z</time>
      </trkpt>
      <trkpt lat="47.66842" lon="6.81909">
        <ele>452.0184</ele>
        <time>2012-09-30T10:42:07Z</time>
      </trkpt>
      <trkpt lat="47.66839" lon="6.81901">
        <ele>452.0184</ele>
        <time>2012-09-30T10:42:09Z</time>
      </trkpt>
      <trkpt lat="47.66837" lon="6.81891">
        <ele>452.3232</ele>
        <time>2012-09-30T10:42:10Z</time>
      </trkpt>
      <trkpt lat="47.66834" lon="6.81881">
        <ele>452.628</ele>
        <time>2012-09-30T10:42:13Z</time>
      </trkpt>
      <trkpt lat="47.66831" lon="6.81872">
        <ele>452.628</ele>
        <time>2012-09-30T10:42:14Z</time>
      </trkpt>
      <trkpt lat="47.66828" lon="6.81862">
        <ele>452.9328</ele>
        <time>2012-09-30T10:42:17Z</time>
      </trkpt>
      <trkpt lat="47.66824" lon="6.81851">
        <ele>453.2376</ele>
        <time>2012-09-30T10:42:18Z</time>
      </trkpt>
      <trkpt lat="47.66821" lon="6.8184">
        <ele>453.5424</ele>
        <time>2012-09-30T10:42:21Z</time>
      </trkpt>
      <trkpt lat="47.66818" lon="6.81829">
        <ele>453.5424</ele>
        <time>2012-09-30T10:42:22Z</time>
      </trkpt>
      <trkpt lat="47.66815" lon="6.81818">
        <ele>453.8472</ele>
        <time>2012-09-30T10:42:25Z</time>
      </trkpt>
      <trkpt lat="47.66811" lon="6.81806">
        <ele>453.8472</ele>
        <time>2012-09-30T10:42:26Z</time>
      </trkpt>
      <trkpt lat="47.66807" lon="6.81796">
        <ele>454.152</ele>
        <time>2012-09-30T10:42:29Z</time>
      </trkpt>
      <trkpt lat="47.66804" lon="6.81784">
        <ele>454.4568</ele>
        <time>2012-09-30T10:42:30Z</time>
      </trkpt>
      <trkpt lat="47.66801" lon="6.81774">
        <ele>454.7616</ele>
        <time>2012-09-30T10:42:33Z</time>
      </trkpt>
      <trkpt lat="47.66798" lon="6.81763">
        <ele>455.0664</ele>
        <time>2012-09-30T10:42:34Z</time>
      </trkpt>
      <trkpt lat="47.66795" lon="6.81753">
        <ele>455.676</ele>
        <time>2012-09-30T10:42:37Z</time>
      </trkpt>
      <trkpt lat="47.66792" lon="6.81743">
        <ele>455.9808</ele>
        <time>2012-09-30T10:42:38Z</time>
      </trkpt>
      <trkpt lat="47.66789" lon="6.81733">
        <ele>456.2856</ele>
        <time>2012-09-30T10:42:41Z</time>
      </trkpt>
      <trkpt lat="47.66786" lon="6.81723">
        <ele>456.5904</ele>
        <time>2012-09-30T10:42:42Z</time>
      </trkpt>
      <trkpt lat="47.66783" lon="6.81713">
        <ele>457.2</ele>
        <time>2012-09-30T10:42:45Z</time>
      </trkpt>
      <trkpt lat="47.6678" lon="6.81704">
        <ele>457.5048</ele>
        <time>2012-09-30T10:42:46Z</time>
      </trkpt>
      <trkpt lat="47.66777" lon="6.81694">
        <ele>457.5048</ele>
        <time>2012-09-30T10:42:49Z</time>
      </trkpt>
      <trkpt lat="47.66774" lon="6.81684">
        <ele>457.8096</ele>
        <time>2012-09-30T10:42:50Z</time>
      </trkpt>
      <trkpt lat="47.66771" lon="6.81674">
        <ele>457.8096</ele>
        <time>2012-09-30T10:42:53Z</time>
      </trkpt>
      <trkpt lat="47.66768" lon="6.81664">
        <ele>458.1144</ele>
        <time>2012-09-30T10:42:54Z</time>
      </trkpt>
      <trkpt lat="47.66765" lon="6.81653">
        <ele>458.1144</ele>
        <time>2012-09-30T10:42:57Z</time>
      </trkpt>
      <trkpt lat="47.66761" lon="6.81643">
        <ele>457.8096</ele>
        <time>2012-09-30T10:42:58Z</time>
      </trkpt>
      <trkpt lat="47.66758" lon="6.81632">
        <ele>457.8096</ele>
        <time>2012-09-30T10:43:01Z</time>
      </trkpt>
      <trkpt lat="47.66755" lon="6.81621">
        <ele>457.8096</ele>
        <time>2012-09-30T10:43:03Z</time>
      </trkpt>
      <trkpt lat="47.66752" lon="6.81611">
        <ele>457.8096</ele>
        <time>2012-09-30T10:43:04Z</time>
      </trkpt>
      <trkpt lat="47.66749" lon="6.816">
        <ele>458.1144</ele>
        <time>2012-09-30T10:43:07Z</time>
      </trkpt>
      <trkpt lat="47.66745" lon="6.8159">
        <ele>458.724</ele>
        <time>2012-09-30T10:43:08Z</time>
      </trkpt>
      <trkpt lat="47.66742" lon="6.8158">
        <ele>458.724</ele>
        <time>2012-09-30T10:43:11Z</time>
      </trkpt>
      <trkpt lat="47.66739" lon="6.8157">
        <ele>459.0288</ele>
        <time>2012-09-30T10:43:12Z</time>
      </trkpt>
      <trkpt lat="47.66735" lon="6.81559">
        <ele>459.0288</ele>
        <time>2012-09-30T10:43:15Z</time>
      </trkpt>
      <trkpt lat="47.66732" lon="6.81548">
        <ele>459.6384</ele>
        <time>2012-09-30T10:43:16Z</time>
      </trkpt>
      <trkpt lat="47.66729" lon="6.81537">
        <ele>459.6384</ele>
        <time>2012-09-30T10:43:19Z</time>
      </trkpt>
      <trkpt lat="47.66726" lon="6.81527">
        <ele>459.6384</ele>
        <time>2012-09-30T10:43:20Z</time>
      </trkpt>
      <trkpt lat="47.66722" lon="6.81517">
        <ele>459.9432</ele>
        <time>2012-09-30T10:43:23Z</time>
      </trkpt>
      <trkpt lat="47.66719" lon="6.81508">
        <ele>460.248</ele>
        <time>2012-09-30T10:43:24Z</time>
      </trkpt>
      <trkpt lat="47.66716" lon="6.81501">
        <ele>460.248</ele>
        <time>2012-09-30T10:43:27Z</time>
      </trkpt>
      <trkpt lat="47.66716" lon="6.81493">
        <ele>460.248</ele>
        <time>2012-09-30T10:43:28Z</time>
      </trkpt>
      <trkpt lat="47.66718" lon="6.81483">
        <ele>459.6384</ele>
        <time>2012-09-30T10:43:31Z</time>
      </trkpt>
      <trkpt lat="47.6672" lon="6.81471">
        <ele>458.724</ele>
        <time>2012-09-30T10:43:32Z</time>
      </trkpt>
      <trkpt lat="47.66722" lon="6.81456">
        <ele>458.4192</ele>
        <time>2012-09-30T10:43:35Z</time>
      </trkpt>
      <trkpt lat="47.66724" lon="6.81442">
        <ele>459.0288</ele>
        <time>2012-09-30T10:43:36Z</time>
      </trkpt>
      <trkpt lat="47.66722" lon="6.81428">
        <ele>458.1144</ele>
        <time>2012-09-30T10:43:39Z</time>
      </trkpt>
      <trkpt lat="47.66715" lon="6.81418">
        <ele>457.2</ele>
        <time>2012-09-30T10:43:40Z</time>
      </trkpt>
      <trkpt lat="47.66707" lon="6.81409">
        <ele>455.9808</ele>
        <time>2012-09-30T10:43:43Z</time>
      </trkpt>
      <trkpt lat="47.66698" lon="6.814">
        <ele>455.3712</ele>
        <time>2012-09-30T10:43:44Z</time>
      </trkpt>
      <trkpt lat="47.66689" lon="6.81392">
        <ele>454.7616</ele>
        <time>2012-09-30T10:43:47Z</time>
      </trkpt>
      <trkpt lat="47.66679" lon="6.81386">
        <ele>455.676</ele>
        <time>2012-09-30T10:43:48Z</time>
      </trkpt>
      <trkpt lat="47.6667" lon="6.81383">
        <ele>456.2856</ele>
        <time>2012-09-30T10:43:51Z</time>
      </trkpt>
      <trkpt lat="47.66663" lon="6.81382">
        <ele>456.8952</ele>
        <time>2012-09-30T10:43:52Z</time>
      </trkpt>
      <trkpt lat="47.66657" lon="6.81381">
        <ele>458.4192</ele>
        <time>2012-09-30T10:43:55Z</time>
      </trkpt>
      <trkpt lat="47.6665" lon="6.81379">
        <ele>459.0288</ele>
        <time>2012-09-30T10:43:57Z</time>
      </trkpt>
      <trkpt lat="47.66644" lon="6.81379">
        <ele>461.4672</ele>
        <time>2012-09-30T10:43:58Z</time>
      </trkpt>
      <trkpt lat="47.66641" lon="6.81375">
        <ele>462.9912</ele>
        <time>2012-09-30T10:44:01Z</time>
      </trkpt>
      <trkpt lat="47.6664" lon="6.81369">
        <ele>462.6864</ele>
        <time>2012-09-30T10:44:02Z</time>
      </trkpt>
      <trkpt lat="47.66641" lon="6.81364">
        <ele>462.6864</ele>
        <time>2012-09-30T10:44:05Z</time>
      </trkpt>
      <trkpt lat="47.66639" lon="6.81359">
        <ele>462.3816</ele>
        <time>2012-09-30T10:44:06Z</time>
      </trkpt>
      <trkpt lat="47.66636" lon="6.81355">
        <ele>461.772</ele>
        <time>2012-09-30T10:44:09Z</time>
      </trkpt>
      <trkpt lat="47.66635" lon="6.81351">
        <ele>461.772</ele>
        <time>2012-09-30T10:44:10Z</time>
      </trkpt>
      <trkpt lat="47.66634" lon="6.81345">
        <ele>462.3816</ele>
        <time>2012-09-30T10:44:13Z</time>
      </trkpt>
      <trkpt lat="47.66635" lon="6.8134">
        <ele>462.3816</ele>
        <time>2012-09-30T10:44:14Z</time>
      </trkpt>
      <trkpt lat="47.66635" lon="6.81335">
        <ele>462.6864</ele>
        <time>2012-09-30T10:44:17Z</time>
      </trkpt>
      <trkpt lat="47.66638" lon="6.81331">
        <ele>462.6864</ele>
        <time>2012-09-30T10:44:18Z</time>
      </trkpt>
      <trkpt lat="47.6664" lon="6.81327">
        <ele>462.0768</ele>
        <time>2012-09-30T10:44:21Z</time>
      </trkpt>
      <trkpt lat="47.66642" lon="6.81323">
        <ele>463.296</ele>
        <time>2012-09-30T10:44:22Z</time>
      </trkpt>
      <trkpt lat="47.66643" lon="6.81319">
        <ele>465.4296</ele>
        <time>2012-09-30T10:44:25Z</time>
      </trkpt>
      <trkpt lat="47.66645" lon="6.81315">
        <ele>466.6488</ele>
        <time>2012-09-30T10:44:26Z</time>
      </trkpt>
      <trkpt lat="47.66646" lon="6.8131">
        <ele>467.2584</ele>
        <time>2012-09-30T10:44:29Z</time>
      </trkpt>
      <trkpt lat="47.66647" lon="6.81305">
        <ele>466.6488</ele>
        <time>2012-09-30T10:44:30Z</time>
      </trkpt>
      <trkpt lat="47.66649" lon="6.81302">
        <ele>466.6488</ele>
        <time>2012-09-30T10:44:33Z</time>
      </trkpt>
      <trkpt lat="47.6665" lon="6.81297">
        <ele>466.6488</ele>
        <time>2012-09-30T10:44:34Z</time>
      </trkpt>
      <trkpt lat="47.66652" lon="6.81294">
        <ele>466.0392</ele>
        <time>2012-09-30T10:44:37Z</time>
      </trkpt>
      <trkpt lat="47.66654" lon="6.8129">
        <ele>467.5632</ele>
        <time>2012-09-30T10:44:38Z</time>
      </trkpt>
      <trkpt lat="47.66655" lon="6.81286">
        <ele>466.9536</ele>
        <time>2012-09-30T10:44:41Z</time>
      </trkpt>
      <trkpt lat="47.66656" lon="6.81283">
        <ele>466.9536</ele>
        <time>2012-09-30T10:44:42Z</time>
      </trkpt>
      <trkpt lat="47.66657" lon="6.81279">
        <ele>466.9536</ele>
        <time>2012-09-30T10:44:45Z</time>
      </trkpt>
      <trkpt lat="47.66658" lon="6.81275">
        <ele>467.868</ele>
        <time>2012-09-30T10:44:46Z</time>
      </trkpt>
      <trkpt lat="47.66658" lon="6.81272">
        <ele>469.0872</ele>
        <time>2012-09-30T10:44:49Z</time>
      </trkpt>
      <trkpt lat="47.66658" lon="6.81267">
        <ele>470.916</ele>
        <time>2012-09-30T10:44:51Z</time>
      </trkpt>
      <trkpt lat="47.66659" lon="6.81263">
        <ele>471.2208</ele>
        <time>2012-09-30T10:44:52Z</time>
      </trkpt>
      <trkpt lat="47.6666" lon="6.8126">
        <ele>470.916</ele>
        <time>2012-09-30T10:44:55Z</time>
      </trkpt>
      <trkpt lat="47.66661" lon="6.81255">
        <ele>470.916</ele>
        <time>2012-09-30T10:44:56Z</time>
      </trkpt>
      <trkpt lat="47.66661" lon="6.81252">
        <ele>470.3064</ele>
        <time>2012-09-30T10:44:59Z</time>
      </trkpt>
      <trkpt lat="47.66663" lon="6.81248">
        <ele>470.916</ele>
        <time>2012-09-30T10:45:00Z</time>
      </trkpt>
      <trkpt lat="47.66664" lon="6.81244">
        <ele>471.8304</ele>
        <time>2012-09-30T10:45:03Z</time>
      </trkpt>
      <trkpt lat="47.66665" lon="6.8124">
        <ele>471.5256</ele>
        <time>2012-09-30T10:45:04Z</time>
      </trkpt>
      <trkpt lat="47.66666" lon="6.81236">
        <ele>470.916</ele>
        <time>2012-09-30T10:45:07Z</time>
      </trkpt>
      <trkpt lat="47.66667" lon="6.81232">
        <ele>471.5256</ele>
        <time>2012-09-30T10:45:08Z</time>
      </trkpt>
      <trkpt lat="47.66668" lon="6.81227">
        <ele>471.2208</ele>
        <time>2012-09-30T10:45:11Z</time>
      </trkpt>
      <trkpt lat="47.66669" lon="6.81223">
        <ele>471.2208</ele>
        <time>2012-09-30T10:45:12Z</time>
      </trkpt>
      <trkpt lat="47.6667" lon="6.81219">
        <ele>471.5256</ele>
        <time>2012-09-30T10:45:15Z</time>
      </trkpt>
      <trkpt lat="47.66672" lon="6.81215">
        <ele>470.6112</ele>
        <time>2012-09-30T10:45:16Z</time>
      </trkpt>
      <trkpt lat="47.66672" lon="6.81209">
        <ele>470.3064</ele>
        <time>2012-09-30T10:45:19Z</time>
      </trkpt>
      <trkpt lat="47.66673" lon="6.81204">
        <ele>470.6112</ele>
        <time>2012-09-30T10:45:20Z</time>
      </trkpt>
      <trkpt lat="47.66673" lon="6.81199">
        <ele>471.2208</ele>
        <time>2012-09-30T10:45:23Z</time>
      </trkpt>
      <trkpt lat="47.66673" lon="6.81195">
        <ele>471.8304</ele>
        <time>2012-09-30T10:45:24Z</time>
      </trkpt>
      <trkpt lat="47.66673" lon="6.81191">
        <ele>472.1352</ele>
        <time>2012-09-30T10:45:27Z</time>
      </trkpt>
      <trkpt lat="47.66673" lon="6.81186">
        <ele>472.1352</ele>
        <time>2012-09-30T10:45:28Z</time>
      </trkpt>
      <trkpt lat="47.66673" lon="6.81181">
        <ele>473.0496</ele>
        <time>2012-09-30T10:45:31Z</time>
      </trkpt>
      <trkpt lat="47.66674" lon="6.81176">
        <ele>473.3544</ele>
        <time>2012-09-30T10:45:32Z</time>
      </trkpt>
      <trkpt lat="47.66675" lon="6.8117">
        <ele>472.7448</ele>
        <time>2012-09-30T10:45:35Z</time>
      </trkpt>
      <trkpt lat="47.66676" lon="6.81165">
        <ele>471.8304</ele>
        <time>2012-09-30T10:45:36Z</time>
      </trkpt>
      <trkpt lat="47.66676" lon="6.81159">
        <ele>471.2208</ele>
        <time>2012-09-30T10:45:39Z</time>
      </trkpt>
      <trkpt lat="47.66677" lon="6.81153">
        <ele>470.3064</ele>
        <time>2012-09-30T10:45:40Z</time>
      </trkpt>
      <trkpt lat="47.66677" lon="6.81146">
        <ele>469.392</ele>
        <time>2012-09-30T10:45:43Z</time>
      </trkpt>
      <trkpt lat="47.66676" lon="6.81141">
        <ele>468.4776</ele>
        <time>2012-09-30T10:45:45Z</time>
      </trkpt>
      <trkpt lat="47.66677" lon="6.81135">
        <ele>467.5632</ele>
        <time>2012-09-30T10:45:46Z</time>
      </trkpt>
      <trkpt lat="47.66678" lon="6.81129">
        <ele>467.5632</ele>
        <time>2012-09-30T10:45:49Z</time>
      </trkpt>
      <trkpt lat="47.66679" lon="6.81123">
        <ele>467.2584</ele>
        <time>2012-09-30T10:45:50Z</time>
      </trkpt>
      <trkpt lat="47.6668" lon="6.81114">
        <ele>466.6488</ele>
        <time>2012-09-30T10:45:53Z</time>
      </trkpt>
      <trkpt lat="47.66682" lon="6.81106">
        <ele>466.344</ele>
        <time>2012-09-30T10:45:54Z</time>
      </trkpt>
      <trkpt lat="47.66684" lon="6.81097">
        <ele>466.344</ele>
        <time>2012-09-30T10:45:57Z</time>
      </trkpt>
      <trkpt lat="47.66684" lon="6.81088">
        <ele>465.4296</ele>
        <time>2012-09-30T10:45:58Z</time>
      </trkpt>
      <trkpt lat="47.66684" lon="6.81078">
        <ele>465.4296</ele>
        <time>2012-09-30T10:46:01Z</time>
      </trkpt>
      <trkpt lat="47.66684" lon="6.81069">
        <ele>465.4296</ele>
        <time>2012-09-30T10:46:02Z</time>
      </trkpt>
      <trkpt lat="47.66686" lon="6.81058">
        <ele>466.0392</ele>
        <time>2012-09-30T10:46:05Z</time>
      </trkpt>
      <trkpt lat="47.66688" lon="6.81046">
        <ele>466.0392</ele>
        <time>2012-09-30T10:46:06Z</time>
      </trkpt>
      <trkpt lat="47.6669" lon="6.81032">
        <ele>466.0392</ele>
        <time>2012-09-30T10:46:09Z</time>
      </trkpt>
      <trkpt lat="47.6669" lon="6.81017">
        <ele>465.7344</ele>
        <time>2012-09-30T10:46:10Z</time>
      </trkpt>
      <trkpt lat="47.66691" lon="6.81">
        <ele>465.4296</ele>
        <time>2012-09-30T10:46:13Z</time>
      </trkpt>
      <trkpt lat="47.66691" lon="6.80984">
        <ele>466.0392</ele>
        <time>2012-09-30T10:46:14Z</time>
      </trkpt>
      <trkpt lat="47.66691" lon="6.80967">
        <ele>466.0392</ele>
        <time>2012-09-30T10:46:17Z</time>
      </trkpt>
      <trkpt lat="47.66691" lon="6.80949">
        <ele>466.344</ele>
        <time>2012-09-30T10:46:18Z</time>
      </trkpt>
      <trkpt lat="47.66691" lon="6.80929">
        <ele>466.6488</ele>
        <time>2012-09-30T10:46:21Z</time>
      </trkpt>
      <trkpt lat="47.66689" lon="6.80911">
        <ele>467.5632</ele>
        <time>2012-09-30T10:46:22Z</time>
      </trkpt>
      <trkpt lat="47.66687" lon="6.80894">
        <ele>467.5632</ele>
        <time>2012-09-30T10:46:25Z</time>
      </trkpt>
      <trkpt lat="47.66688" lon="6.80878">
        <ele>467.868</ele>
        <time>2012-09-30T10:46:26Z</time>
      </trkpt>
      <trkpt lat="47.66686" lon="6.80861">
        <ele>464.5152</ele>
        <time>2012-09-30T10:46:29Z</time>
      </trkpt>
      <trkpt lat="47.66685" lon="6.80846">
        <ele>462.3816</ele>
        <time>2012-09-30T10:46:30Z</time>
      </trkpt>
      <trkpt lat="47.66685" lon="6.80832">
        <ele>462.3816</ele>
        <time>2012-09-30T10:46:33Z</time>
      </trkpt>
      <trkpt lat="47.66685" lon="6.80818">
        <ele>462.6864</ele>
        <time>2012-09-30T10:46:34Z</time>
      </trkpt>
      <trkpt lat="47.66685" lon="6.80804">
        <ele>462.3816</ele>
        <time>2012-09-30T10:46:37Z</time>
      </trkpt>
      <trkpt lat="47.66684" lon="6.80788">
        <ele>460.5528</ele>
        <time>2012-09-30T10:46:39Z</time>
      </trkpt>
      <trkpt lat="47.66682" lon="6.80774">
        <ele>458.4192</ele>
        <time>2012-09-30T10:46:40Z</time>
      </trkpt>
      <trkpt lat="47.66681" lon="6.8076">
        <ele>455.9808</ele>
        <time>2012-09-30T10:46:43Z</time>
      </trkpt>
      <trkpt lat="47.6668" lon="6.80746">
        <ele>455.3712</ele>
        <time>2012-09-30T10:46:44Z</time>
      </trkpt>
      <trkpt lat="47.66676" lon="6.80732">
        <ele>455.3712</ele>
        <time>2012-09-30T10:46:47Z</time>
      </trkpt>
      <trkpt lat="47.66671" lon="6.8072">
        <ele>455.0664</ele>
        <time>2012-09-30T10:46:48Z</time>
      </trkpt>
      <trkpt lat="47.66665" lon="6.80707">
        <ele>455.0664</ele>
        <time>2012-09-30T10:46:51Z</time>
      </trkpt>
      <trkpt lat="47.6666" lon="6.80693">
        <ele>454.7616</ele>
        <time>2012-09-30T10:46:52Z</time>
      </trkpt>
      <trkpt lat="47.66655" lon="6.80678">
        <ele>454.4568</ele>
        <time>2012-09-30T10:46:55Z</time>
      </trkpt>
      <trkpt lat="47.66649" lon="6.80663">
        <ele>454.152</ele>
        <time>2012-09-30T10:46:56Z</time>
      </trkpt>
      <trkpt lat="47.66643" lon="6.80648">
        <ele>453.8472</ele>
        <time>2012-09-30T10:46:59Z</time>
      </trkpt>
      <trkpt lat="47.66636" lon="6.80632">
        <ele>453.8472</ele>
        <time>2012-09-30T10:47:00Z</time>
      </trkpt>
      <trkpt lat="47.66629" lon="6.80618">
        <ele>453.8472</ele>
        <time>2012-09-30T10:47:03Z</time>
      </trkpt>
      <trkpt lat="47.66622" lon="6.80604">
        <ele>454.152</ele>
        <time>2012-09-30T10:47:04Z</time>
      </trkpt>
      <trkpt lat="47.66616" lon="6.80591">
        <ele>454.4568</ele>
        <time>2012-09-30T10:47:07Z</time>
      </trkpt>
      <trkpt lat="47.66609" lon="6.80578">
        <ele>455.0664</ele>
        <time>2012-09-30T10:47:08Z</time>
      </trkpt>
      <trkpt lat="47.66602" lon="6.80566">
        <ele>455.3712</ele>
        <time>2012-09-30T10:47:11Z</time>
      </trkpt>
      <trkpt lat="47.66595" lon="6.80554">
        <ele>455.3712</ele>
        <time>2012-09-30T10:47:12Z</time>
      </trkpt>
      <trkpt lat="47.66588" lon="6.80542">
        <ele>455.3712</ele>
        <time>2012-09-30T10:47:15Z</time>
      </trkpt>
      <trkpt lat="47.66581" lon="6.8053">
        <ele>455.676</ele>
        <time>2012-09-30T10:47:16Z</time>
      </trkpt>
      <trkpt lat="47.66574" lon="6.80519">
        <ele>455.9808</ele>
        <time>2012-09-30T10:47:19Z</time>
      </trkpt>
      <trkpt lat="47.66568" lon="6.80509">
        <ele>456.2856</ele>
        <time>2012-09-30T10:47:20Z</time>
      </trkpt>
      <trkpt lat="47.66562" lon="6.80499">
        <ele>456.8952</ele>
        <time>2012-09-30T10:47:23Z</time>
      </trkpt>
      <trkpt lat="47.66555" lon="6.80489">
        <ele>457.2</ele>
        <time>2012-09-30T10:47:24Z</time>
      </trkpt>
      <trkpt lat="47.66549" lon="6.80479">
        <ele>457.2</ele>
        <time>2012-09-30T10:47:27Z</time>
      </trkpt>
      <trkpt lat="47.66544" lon="6.80468">
        <ele>457.8096</ele>
        <time>2012-09-30T10:47:28Z</time>
      </trkpt>
      <trkpt lat="47.66538" lon="6.80457">
        <ele>458.724</ele>
        <time>2012-09-30T10:47:31Z</time>
      </trkpt>
      <trkpt lat="47.66532" lon="6.80446">
        <ele>459.9432</ele>
        <time>2012-09-30T10:47:32Z</time>
      </trkpt>
      <trkpt lat="47.66527" lon="6.80434">
        <ele>460.248</ele>
        <time>2012-09-30T10:47:34Z</time>
      </trkpt>
      <trkpt lat="47.66521" lon="6.80422">
        <ele>459.9432</ele>
        <time>2012-09-30T10:47:37Z</time>
      </trkpt>
      <trkpt lat="47.66515" lon="6.8041">
        <ele>459.9432</ele>
        <time>2012-09-30T10:47:38Z</time>
      </trkpt>
      <trkpt lat="47.6651" lon="6.80398">
        <ele>459.6384</ele>
        <time>2012-09-30T10:47:41Z</time>
      </trkpt>
      <trkpt lat="47.66505" lon="6.80386">
        <ele>459.3336</ele>
        <time>2012-09-30T10:47:42Z</time>
      </trkpt>
      <trkpt lat="47.665" lon="6.80374">
        <ele>459.3336</ele>
        <time>2012-09-30T10:47:45Z</time>
      </trkpt>
      <trkpt lat="47.66495" lon="6.80362">
        <ele>459.3336</ele>
        <time>2012-09-30T10:47:46Z</time>
      </trkpt>
      <trkpt lat="47.66491" lon="6.8035">
        <ele>459.3336</ele>
        <time>2012-09-30T10:47:49Z</time>
      </trkpt>
      <trkpt lat="47.66487" lon="6.80338">
        <ele>459.3336</ele>
        <time>2012-09-30T10:47:50Z</time>
      </trkpt>
      <trkpt lat="47.66483" lon="6.80326">
        <ele>459.3336</ele>
        <time>2012-09-30T10:47:53Z</time>
      </trkpt>
      <trkpt lat="47.66479" lon="6.80315">
        <ele>459.3336</ele>
        <time>2012-09-30T10:47:54Z</time>
      </trkpt>
      <trkpt lat="47.66475" lon="6.80303">
        <ele>459.6384</ele>
        <time>2012-09-30T10:47:57Z</time>
      </trkpt>
      <trkpt lat="47.66471" lon="6.80291">
        <ele>459.9432</ele>
        <time>2012-09-30T10:47:58Z</time>
      </trkpt>
      <trkpt lat="47.66467" lon="6.8028">
        <ele>460.248</ele>
        <time>2012-09-30T10:48:01Z</time>
      </trkpt>
      <trkpt lat="47.66463" lon="6.80269">
        <ele>460.5528</ele>
        <time>2012-09-30T10:48:02Z</time>
      </trkpt>
      <trkpt lat="47.66458" lon="6.80258">
        <ele>460.8576</ele>
        <time>2012-09-30T10:48:05Z</time>
      </trkpt>
      <trkpt lat="47.66453" lon="6.80248">
        <ele>463.9056</ele>
        <time>2012-09-30T10:48:06Z</time>
      </trkpt>
      <trkpt lat="47.66448" lon="6.80236">
        <ele>464.5152</ele>
        <time>2012-09-30T10:48:09Z</time>
      </trkpt>
      <trkpt lat="47.66442" lon="6.80223">
        <ele>464.5152</ele>
        <time>2012-09-30T10:48:10Z</time>
      </trkpt>
      <trkpt lat="47.66436" lon="6.80208">
        <ele>464.2104</ele>
        <time>2012-09-30T10:48:13Z</time>
      </trkpt>
      <trkpt lat="47.66429" lon="6.80192">
        <ele>463.6008</ele>
        <time>2012-09-30T10:48:14Z</time>
      </trkpt>
      <trkpt lat="47.66422" lon="6.80176">
        <ele>462.6864</ele>
        <time>2012-09-30T10:48:17Z</time>
      </trkpt>
      <trkpt lat="47.66414" lon="6.80159">
        <ele>462.0768</ele>
        <time>2012-09-30T10:48:18Z</time>
      </trkpt>
      <trkpt lat="47.66407" lon="6.80141">
        <ele>461.4672</ele>
        <time>2012-09-30T10:48:21Z</time>
      </trkpt>
      <trkpt lat="47.66401" lon="6.80124">
        <ele>460.5528</ele>
        <time>2012-09-30T10:48:22Z</time>
      </trkpt>
      <trkpt lat="47.66393" lon="6.80105">
        <ele>459.6384</ele>
        <time>2012-09-30T10:48:25Z</time>
      </trkpt>
      <trkpt lat="47.66385" lon="6.80085">
        <ele>458.4192</ele>
        <time>2012-09-30T10:48:26Z</time>
      </trkpt>
      <trkpt lat="47.66375" lon="6.80066">
        <ele>457.2</ele>
        <time>2012-09-30T10:48:28Z</time>
      </trkpt>
      <trkpt lat="47.66367" lon="6.80046">
        <ele>456.8952</ele>
        <time>2012-09-30T10:48:31Z</time>
      </trkpt>
      <trkpt lat="47.66361" lon="6.80025">
        <ele>456.5904</ele>
        <time>2012-09-30T10:48:32Z</time>
      </trkpt>
      <trkpt lat="47.66358" lon="6.80001">
        <ele>456.5904</ele>
        <time>2012-09-30T10:48:35Z</time>
      </trkpt>
      <trkpt lat="47.66356" lon="6.79976">
        <ele>456.8952</ele>
        <time>2012-09-30T10:48:36Z</time>
      </trkpt>
      <trkpt lat="47.66354" lon="6.7995">
        <ele>457.8096</ele>
        <time>2012-09-30T10:48:39Z</time>
      </trkpt>
      <trkpt lat="47.66353" lon="6.79924">
        <ele>458.4192</ele>
        <time>2012-09-30T10:48:40Z</time>
      </trkpt>
      <trkpt lat="47.66352" lon="6.799">
        <ele>459.3336</ele>
        <time>2012-09-30T10:48:43Z</time>
      </trkpt>
      <trkpt lat="47.66353" lon="6.79878">
        <ele>459.9432</ele>
        <time>2012-09-30T10:48:44Z</time>
      </trkpt>
      <trkpt lat="47.66359" lon="6.79858">
        <ele>461.1624</ele>
        <time>2012-09-30T10:48:47Z</time>
      </trkpt>
      <trkpt lat="47.66366" lon="6.79839">
        <ele>461.1624</ele>
        <time>2012-09-30T10:48:48Z</time>
      </trkpt>
      <trkpt lat="47.66375" lon="6.79827">
        <ele>458.1144</ele>
        <time>2012-09-30T10:48:51Z</time>
      </trkpt>
      <trkpt lat="47.6639" lon="6.7983">
        <ele>455.3712</ele>
        <time>2012-09-30T10:48:52Z</time>
      </trkpt>
      <trkpt lat="47.66406" lon="6.79841">
        <ele>452.3232</ele>
        <time>2012-09-30T10:48:55Z</time>
      </trkpt>
      <trkpt lat="47.6642" lon="6.79851">
        <ele>450.1896</ele>
        <time>2012-09-30T10:48:56Z</time>
      </trkpt>
      <trkpt lat="47.66434" lon="6.79858">
        <ele>448.6656</ele>
        <time>2012-09-30T10:48:59Z</time>
      </trkpt>
      <trkpt lat="47.66446" lon="6.79858">
        <ele>448.056</ele>
        <time>2012-09-30T10:49:00Z</time>
      </trkpt>
      <trkpt lat="47.66457" lon="6.79844">
        <ele>448.3608</ele>
        <time>2012-09-30T10:49:03Z</time>
      </trkpt>
      <trkpt lat="47.66468" lon="6.79825">
        <ele>446.532</ele>
        <time>2012-09-30T10:49:04Z</time>
      </trkpt>
      <trkpt lat="47.66477" lon="6.79801">
        <ele>445.6176</ele>
        <time>2012-09-30T10:49:07Z</time>
      </trkpt>
      <trkpt lat="47.66483" lon="6.79776">
        <ele>442.8744</ele>
        <time>2012-09-30T10:49:08Z</time>
      </trkpt>
      <trkpt lat="47.66488" lon="6.79751">
        <ele>439.8264</ele>
        <time>2012-09-30T10:49:11Z</time>
      </trkpt>
      <trkpt lat="47.6649" lon="6.79725">
        <ele>434.34</ele>
        <time>2012-09-30T10:49:12Z</time>
      </trkpt>
      <trkpt lat="47.66497" lon="6.79701">
        <ele>429.1584</ele>
        <time>2012-09-30T10:49:15Z</time>
      </trkpt>
      <trkpt lat="47.66505" lon="6.7968">
        <ele>426.1104</ele>
        <time>2012-09-30T10:49:16Z</time>
      </trkpt>
      <trkpt lat="47.66513" lon="6.79662">
        <ele>424.2816</ele>
        <time>2012-09-30T10:49:19Z</time>
      </trkpt>
      <trkpt lat="47.66515" lon="6.79647">
        <ele>422.7576</ele>
        <time>2012-09-30T10:49:20Z</time>
      </trkpt>
      <trkpt lat="47.66509" lon="6.79637">
        <ele>422.148</ele>
        <time>2012-09-30T10:49:22Z</time>
      </trkpt>
      <trkpt lat="47.665" lon="6.79634">
        <ele>421.5384</ele>
        <time>2012-09-30T10:49:25Z</time>
      </trkpt>
      <trkpt lat="47.66491" lon="6.79631">
        <ele>421.2336</ele>
        <time>2012-09-30T10:49:26Z</time>
      </trkpt>
      <trkpt lat="47.66483" lon="6.79629">
        <ele>420.9288</ele>
        <time>2012-09-30T10:49:29Z</time>
      </trkpt>
      <trkpt lat="47.66475" lon="6.79627">
        <ele>420.9288</ele>
        <time>2012-09-30T10:49:30Z</time>
      </trkpt>
      <trkpt lat="47.66467" lon="6.79626">
        <ele>421.2336</ele>
        <time>2012-09-30T10:49:33Z</time>
      </trkpt>
      <trkpt lat="47.6646" lon="6.79626">
        <ele>421.2336</ele>
        <time>2012-09-30T10:49:34Z</time>
      </trkpt>
      <trkpt lat="47.66453" lon="6.79627">
        <ele>421.5384</ele>
        <time>2012-09-30T10:49:37Z</time>
      </trkpt>
      <trkpt lat="47.66445" lon="6.79629">
        <ele>421.5384</ele>
        <time>2012-09-30T10:49:38Z</time>
      </trkpt>
      <trkpt lat="47.66439" lon="6.79631">
        <ele>421.8432</ele>
        <time>2012-09-30T10:49:41Z</time>
      </trkpt>
      <trkpt lat="47.66432" lon="6.79633">
        <ele>422.148</ele>
        <time>2012-09-30T10:49:42Z</time>
      </trkpt>
      <trkpt lat="47.66425" lon="6.79631">
        <ele>422.4528</ele>
        <time>2012-09-30T10:49:45Z</time>
      </trkpt>
      <trkpt lat="47.6642" lon="6.79624">
        <ele>422.4528</ele>
        <time>2012-09-30T10:49:46Z</time>
      </trkpt>
      <trkpt lat="47.66418" lon="6.79615">
        <ele>422.4528</ele>
        <time>2012-09-30T10:49:49Z</time>
      </trkpt>
      <trkpt lat="47.66416" lon="6.79604">
        <ele>422.148</ele>
        <time>2012-09-30T10:49:50Z</time>
      </trkpt>
      <trkpt lat="47.66414" lon="6.79594">
        <ele>422.148</ele>
        <time>2012-09-30T10:49:53Z</time>
      </trkpt>
      <trkpt lat="47.66411" lon="6.79584">
        <ele>422.4528</ele>
        <time>2012-09-30T10:49:54Z</time>
      </trkpt>
      <trkpt lat="47.66409" lon="6.79572">
        <ele>422.4528</ele>
        <time>2012-09-30T10:49:57Z</time>
      </trkpt>
      <trkpt lat="47.66406" lon="6.79561">
        <ele>422.4528</ele>
        <time>2012-09-30T10:49:58Z</time>
      </trkpt>
      <trkpt lat="47.66404" lon="6.79548">
        <ele>422.4528</ele>
        <time>2012-09-30T10:50:01Z</time>
      </trkpt>
      <trkpt lat="47.66402" lon="6.79535">
        <ele>422.4528</ele>
        <time>2012-09-30T10:50:02Z</time>
      </trkpt>
      <trkpt lat="47.664" lon="6.79523">
        <ele>422.148</ele>
        <time>2012-09-30T10:50:05Z</time>
      </trkpt>
      <trkpt lat="47.66399" lon="6.79509">
        <ele>422.148</ele>
        <time>2012-09-30T10:50:06Z</time>
      </trkpt>
      <trkpt lat="47.66397" lon="6.79495">
        <ele>421.8432</ele>
        <time>2012-09-30T10:50:09Z</time>
      </trkpt>
      <trkpt lat="47.66396" lon="6.79481">
        <ele>421.8432</ele>
        <time>2012-09-30T10:50:10Z</time>
      </trkpt>
      <trkpt lat="47.66395" lon="6.79467">
        <ele>421.5384</ele>
        <time>2012-09-30T10:50:13Z</time>
      </trkpt>
      <trkpt lat="47.66394" lon="6.79453">
        <ele>421.5384</ele>
        <time>2012-09-30T10:50:14Z</time>
      </trkpt>
      <trkpt lat="47.66393" lon="6.79439">
        <ele>421.2336</ele>
        <time>2012-09-30T10:50:16Z</time>
      </trkpt>
      <trkpt lat="47.6639" lon="6.79425">
        <ele>420.9288</ele>
        <time>2012-09-30T10:50:19Z</time>
      </trkpt>
      <trkpt lat="47.66385" lon="6.79413">
        <ele>420.9288</ele>
        <time>2012-09-30T10:50:20Z</time>
      </trkpt>
      <trkpt lat="47.66379" lon="6.79402">
        <ele>420.9288</ele>
        <time>2012-09-30T10:50:23Z</time>
      </trkpt>
      <trkpt lat="47.66372" lon="6.79393">
        <ele>420.9288</ele>
        <time>2012-09-30T10:50:24Z</time>
      </trkpt>
      <trkpt lat="47.66365" lon="6.79384">
        <ele>420.9288</ele>
        <time>2012-09-30T10:50:27Z</time>
      </trkpt>
      <trkpt lat="47.66357" lon="6.79377">
        <ele>420.9288</ele>
        <time>2012-09-30T10:50:28Z</time>
      </trkpt>
      <trkpt lat="47.6635" lon="6.79369">
        <ele>421.2336</ele>
        <time>2012-09-30T10:50:31Z</time>
      </trkpt>
      <trkpt lat="47.66342" lon="6.79362">
        <ele>421.5384</ele>
        <time>2012-09-30T10:50:32Z</time>
      </trkpt>
      <trkpt lat="47.66335" lon="6.79355">
        <ele>421.5384</ele>
        <time>2012-09-30T10:50:35Z</time>
      </trkpt>
      <trkpt lat="47.66328" lon="6.79348">
        <ele>421.8432</ele>
        <time>2012-09-30T10:50:36Z</time>
      </trkpt>
      <trkpt lat="47.66321" lon="6.7934">
        <ele>421.8432</ele>
        <time>2012-09-30T10:50:39Z</time>
      </trkpt>
      <trkpt lat="47.66314" lon="6.79332">
        <ele>422.148</ele>
        <time>2012-09-30T10:50:40Z</time>
      </trkpt>
      <trkpt lat="47.66308" lon="6.79325">
        <ele>422.148</ele>
        <time>2012-09-30T10:50:43Z</time>
      </trkpt>
      <trkpt lat="47.66301" lon="6.79316">
        <ele>422.4528</ele>
        <time>2012-09-30T10:50:44Z</time>
      </trkpt>
      <trkpt lat="47.66295" lon="6.79308">
        <ele>422.4528</ele>
        <time>2012-09-30T10:50:47Z</time>
      </trkpt>
      <trkpt lat="47.66288" lon="6.79299">
        <ele>422.4528</ele>
        <time>2012-09-30T10:50:48Z</time>
      </trkpt>
      <trkpt lat="47.66281" lon="6.7929">
        <ele>422.4528</ele>
        <time>2012-09-30T10:50:51Z</time>
      </trkpt>
      <trkpt lat="47.66274" lon="6.79281">
        <ele>422.4528</ele>
        <time>2012-09-30T10:50:52Z</time>
      </trkpt>
      <trkpt lat="47.66268" lon="6.79268">
        <ele>422.148</ele>
        <time>2012-09-30T10:50:55Z</time>
      </trkpt>
      <trkpt lat="47.66262" lon="6.79255">
        <ele>421.8432</ele>
        <time>2012-09-30T10:50:56Z</time>
      </trkpt>
      <trkpt lat="47.66254" lon="6.79243">
        <ele>421.5384</ele>
        <time>2012-09-30T10:50:59Z</time>
      </trkpt>
      <trkpt lat="47.66245" lon="6.79234">
        <ele>421.5384</ele>
        <time>2012-09-30T10:51:00Z</time>
      </trkpt>
      <trkpt lat="47.66236" lon="6.79225">
        <ele>421.2336</ele>
        <time>2012-09-30T10:51:03Z</time>
      </trkpt>
      <trkpt lat="47.66225" lon="6.79217">
        <ele>420.9288</ele>
        <time>2012-09-30T10:51:04Z</time>
      </trkpt>
      <trkpt lat="47.66215" lon="6.7921">
        <ele>420.624</ele>
        <time>2012-09-30T10:51:07Z</time>
      </trkpt>
      <trkpt lat="47.66204" lon="6.79202">
        <ele>420.3192</ele>
        <time>2012-09-30T10:51:09Z</time>
      </trkpt>
      <trkpt lat="47.66194" lon="6.79193">
        <ele>420.0144</ele>
        <time>2012-09-30T10:51:10Z</time>
      </trkpt>
      <trkpt lat="47.66183" lon="6.79183">
        <ele>419.7096</ele>
        <time>2012-09-30T10:51:13Z</time>
      </trkpt>
      <trkpt lat="47.66173" lon="6.79172">
        <ele>419.7096</ele>
        <time>2012-09-30T10:51:14Z</time>
      </trkpt>
      <trkpt lat="47.66163" lon="6.79162">
        <ele>419.4048</ele>
        <time>2012-09-30T10:51:17Z</time>
      </trkpt>
      <trkpt lat="47.66154" lon="6.79152">
        <ele>418.7952</ele>
        <time>2012-09-30T10:51:18Z</time>
      </trkpt>
      <trkpt lat="47.66145" lon="6.79141">
        <ele>419.1</ele>
        <time>2012-09-30T10:51:21Z</time>
      </trkpt>
      <trkpt lat="47.66136" lon="6.7913">
        <ele>419.1</ele>
        <time>2012-09-30T10:51:22Z</time>
      </trkpt>
      <trkpt lat="47.66128" lon="6.7912">
        <ele>419.1</ele>
        <time>2012-09-30T10:51:25Z</time>
      </trkpt>
      <trkpt lat="47.6612" lon="6.79111">
        <ele>420.3192</ele>
        <time>2012-09-30T10:51:26Z</time>
      </trkpt>
      <trkpt lat="47.6611" lon="6.79106">
        <ele>420.3192</ele>
        <time>2012-09-30T10:51:29Z</time>
      </trkpt>
      <trkpt lat="47.66101" lon="6.79102">
        <ele>420.3192</ele>
        <time>2012-09-30T10:51:30Z</time>
      </trkpt>
      <trkpt lat="47.66092" lon="6.79099">
        <ele>421.2336</ele>
        <time>2012-09-30T10:51:33Z</time>
      </trkpt>
      <trkpt lat="47.66085" lon="6.79094">
        <ele>421.8432</ele>
        <time>2012-09-30T10:51:34Z</time>
      </trkpt>
      <trkpt lat="47.6608" lon="6.79088">
        <ele>422.4528</ele>
        <time>2012-09-30T10:51:37Z</time>
      </trkpt>
      <trkpt lat="47.66074" lon="6.79082">
        <ele>423.0624</ele>
        <time>2012-09-30T10:51:38Z</time>
      </trkpt>
      <trkpt lat="47.66069" lon="6.79077">
        <ele>423.672</ele>
        <time>2012-09-30T10:51:41Z</time>
      </trkpt>
      <trkpt lat="47.66063" lon="6.79073">
        <ele>423.9768</ele>
        <time>2012-09-30T10:51:42Z</time>
      </trkpt>
      <trkpt lat="47.66056" lon="6.79068">
        <ele>424.2816</ele>
        <time>2012-09-30T10:51:45Z</time>
      </trkpt>
      <trkpt lat="47.66049" lon="6.79066">
        <ele>424.2816</ele>
        <time>2012-09-30T10:51:46Z</time>
      </trkpt>
      <trkpt lat="47.66043" lon="6.79065">
        <ele>424.5864</ele>
        <time>2012-09-30T10:51:49Z</time>
      </trkpt>
      <trkpt lat="47.66037" lon="6.79064">
        <ele>425.196</ele>
        <time>2012-09-30T10:51:50Z</time>
      </trkpt>
      <trkpt lat="47.66031" lon="6.79064">
        <ele>425.8056</ele>
        <time>2012-09-30T10:51:53Z</time>
      </trkpt>
      <trkpt lat="47.66025" lon="6.79064">
        <ele>426.4152</ele>
        <time>2012-09-30T10:51:54Z</time>
      </trkpt>
      <trkpt lat="47.6602" lon="6.79065">
        <ele>426.72</ele>
        <time>2012-09-30T10:51:57Z</time>
      </trkpt>
      <trkpt lat="47.66015" lon="6.79065">
        <ele>427.6344</ele>
        <time>2012-09-30T10:51:58Z</time>
      </trkpt>
      <trkpt lat="47.66011" lon="6.79065">
        <ele>428.5488</ele>
        <time>2012-09-30T10:52:01Z</time>
      </trkpt>
      <trkpt lat="47.66007" lon="6.79064">
        <ele>428.8536</ele>
        <time>2012-09-30T10:52:03Z</time>
      </trkpt>
      <trkpt lat="47.66003" lon="6.79061">
        <ele>429.4632</ele>
        <time>2012-09-30T10:52:04Z</time>
      </trkpt>
      <trkpt lat="47.66" lon="6.79058">
        <ele>430.6824</ele>
        <time>2012-09-30T10:52:07Z</time>
      </trkpt>
      <trkpt lat="47.65996" lon="6.79054">
        <ele>430.9872</ele>
        <time>2012-09-30T10:52:08Z</time>
      </trkpt>
      <trkpt lat="47.65994" lon="6.79049">
        <ele>431.9016</ele>
        <time>2012-09-30T10:52:11Z</time>
      </trkpt>
      <trkpt lat="47.65991" lon="6.79044">
        <ele>432.5112</ele>
        <time>2012-09-30T10:52:12Z</time>
      </trkpt>
      <trkpt lat="47.65989" lon="6.79038">
        <ele>432.5112</ele>
        <time>2012-09-30T10:52:15Z</time>
      </trkpt>
      <trkpt lat="47.65986" lon="6.79031">
        <ele>432.816</ele>
        <time>2012-09-30T10:52:16Z</time>
      </trkpt>
      <trkpt lat="47.65984" lon="6.79025">
        <ele>432.816</ele>
        <time>2012-09-30T10:52:19Z</time>
      </trkpt>
      <trkpt lat="47.65983" lon="6.79017">
        <ele>433.4256</ele>
        <time>2012-09-30T10:52:20Z</time>
      </trkpt>
      <trkpt lat="47.65982" lon="6.79009">
        <ele>434.0352</ele>
        <time>2012-09-30T10:52:23Z</time>
      </trkpt>
      <trkpt lat="47.65981" lon="6.79002">
        <ele>435.2544</ele>
        <time>2012-09-30T10:52:24Z</time>
      </trkpt>
      <trkpt lat="47.65981" lon="6.78995">
        <ele>435.2544</ele>
        <time>2012-09-30T10:52:27Z</time>
      </trkpt>
      <trkpt lat="47.65979" lon="6.78986">
        <ele>435.864</ele>
        <time>2012-09-30T10:52:28Z</time>
      </trkpt>
      <trkpt lat="47.65977" lon="6.78977">
        <ele>435.2544</ele>
        <time>2012-09-30T10:52:31Z</time>
      </trkpt>
      <trkpt lat="47.65975" lon="6.78967">
        <ele>434.6448</ele>
        <time>2012-09-30T10:52:32Z</time>
      </trkpt>
      <trkpt lat="47.65972" lon="6.78957">
        <ele>434.6448</ele>
        <time>2012-09-30T10:52:35Z</time>
      </trkpt>
      <trkpt lat="47.6597" lon="6.78947">
        <ele>434.0352</ele>
        <time>2012-09-30T10:52:36Z</time>
      </trkpt>
      <trkpt lat="47.65966" lon="6.78936">
        <ele>434.0352</ele>
        <time>2012-09-30T10:52:39Z</time>
      </trkpt>
      <trkpt lat="47.65963" lon="6.78926">
        <ele>433.7304</ele>
        <time>2012-09-30T10:52:40Z</time>
      </trkpt>
      <trkpt lat="47.65959" lon="6.78917">
        <ele>433.4256</ele>
        <time>2012-09-30T10:52:43Z</time>
      </trkpt>
      <trkpt lat="47.65955" lon="6.78908">
        <ele>434.0352</ele>
        <time>2012-09-30T10:52:44Z</time>
      </trkpt>
      <trkpt lat="47.65951" lon="6.789">
        <ele>434.0352</ele>
        <time>2012-09-30T10:52:47Z</time>
      </trkpt>
      <trkpt lat="47.65948" lon="6.78891">
        <ele>433.7304</ele>
        <time>2012-09-30T10:52:48Z</time>
      </trkpt>
      <trkpt lat="47.65944" lon="6.78884">
        <ele>434.0352</ele>
        <time>2012-09-30T10:52:51Z</time>
      </trkpt>
      <trkpt lat="47.65939" lon="6.78877">
        <ele>434.34</ele>
        <time>2012-09-30T10:52:52Z</time>
      </trkpt>
      <trkpt lat="47.65934" lon="6.78871">
        <ele>434.0352</ele>
        <time>2012-09-30T10:52:55Z</time>
      </trkpt>
      <trkpt lat="47.6593" lon="6.78865">
        <ele>433.1208</ele>
        <time>2012-09-30T10:52:57Z</time>
      </trkpt>
      <trkpt lat="47.65926" lon="6.78858">
        <ele>432.5112</ele>
        <time>2012-09-30T10:52:58Z</time>
      </trkpt>
      <trkpt lat="47.65923" lon="6.78852">
        <ele>433.1208</ele>
        <time>2012-09-30T10:53:01Z</time>
      </trkpt>
      <trkpt lat="47.65919" lon="6.78846">
        <ele>432.816</ele>
        <time>2012-09-30T10:53:02Z</time>
      </trkpt>
      <trkpt lat="47.65915" lon="6.78839">
        <ele>432.5112</ele>
        <time>2012-09-30T10:53:05Z</time>
      </trkpt>
      <trkpt lat="47.65912" lon="6.78832">
        <ele>432.2064</ele>
        <time>2012-09-30T10:53:06Z</time>
      </trkpt>
      <trkpt lat="47.65909" lon="6.78825">
        <ele>432.5112</ele>
        <time>2012-09-30T10:53:09Z</time>
      </trkpt>
      <trkpt lat="47.65906" lon="6.78818">
        <ele>432.5112</ele>
        <time>2012-09-30T10:53:10Z</time>
      </trkpt>
      <trkpt lat="47.65902" lon="6.78812">
        <ele>432.816</ele>
        <time>2012-09-30T10:53:13Z</time>
      </trkpt>
      <trkpt lat="47.65898" lon="6.78805">
        <ele>432.816</ele>
        <time>2012-09-30T10:53:14Z</time>
      </trkpt>
      <trkpt lat="47.65895" lon="6.78798">
        <ele>432.816</ele>
        <time>2012-09-30T10:53:17Z</time>
      </trkpt>
      <trkpt lat="47.65891" lon="6.78791">
        <ele>433.1208</ele>
        <time>2012-09-30T10:53:18Z</time>
      </trkpt>
      <trkpt lat="47.65888" lon="6.78784">
        <ele>433.1208</ele>
        <time>2012-09-30T10:53:21Z</time>
      </trkpt>
      <trkpt lat="47.65885" lon="6.78777">
        <ele>433.4256</ele>
        <time>2012-09-30T10:53:22Z</time>
      </trkpt>
      <trkpt lat="47.65881" lon="6.7877">
        <ele>434.0352</ele>
        <time>2012-09-30T10:53:25Z</time>
      </trkpt>
      <trkpt lat="47.65878" lon="6.78763">
        <ele>434.34</ele>
        <time>2012-09-30T10:53:26Z</time>
      </trkpt>
      <trkpt lat="47.65874" lon="6.78756">
        <ele>434.6448</ele>
        <time>2012-09-30T10:53:29Z</time>
      </trkpt>
      <trkpt lat="47.6587" lon="6.7875">
        <ele>434.9496</ele>
        <time>2012-09-30T10:53:30Z</time>
      </trkpt>
      <trkpt lat="47.65866" lon="6.78744">
        <ele>435.2544</ele>
        <time>2012-09-30T10:53:33Z</time>
      </trkpt>
      <trkpt lat="47.65862" lon="6.78738">
        <ele>435.5592</ele>
        <time>2012-09-30T10:53:34Z</time>
      </trkpt>
      <trkpt lat="47.65858" lon="6.78732">
        <ele>435.5592</ele>
        <time>2012-09-30T10:53:37Z</time>
      </trkpt>
      <trkpt lat="47.65854" lon="6.78726">
        <ele>435.864</ele>
        <time>2012-09-30T10:53:38Z</time>
      </trkpt>
      <trkpt lat="47.65851" lon="6.78719">
        <ele>436.1688</ele>
        <time>2012-09-30T10:53:41Z</time>
      </trkpt>
      <trkpt lat="47.65847" lon="6.78712">
        <ele>436.1688</ele>
        <time>2012-09-30T10:53:42Z</time>
      </trkpt>
      <trkpt lat="47.65842" lon="6.78705">
        <ele>436.1688</ele>
        <time>2012-09-30T10:53:45Z</time>
      </trkpt>
      <trkpt lat="47.65839" lon="6.78698">
        <ele>436.7784</ele>
        <time>2012-09-30T10:53:46Z</time>
      </trkpt>
      <trkpt lat="47.65835" lon="6.78691">
        <ele>437.0832</ele>
        <time>2012-09-30T10:53:49Z</time>
      </trkpt>
      <trkpt lat="47.65833" lon="6.78683">
        <ele>437.6928</ele>
        <time>2012-09-30T10:53:51Z</time>
      </trkpt>
      <trkpt lat="47.6583" lon="6.78675">
        <ele>437.9976</ele>
        <time>2012-09-30T10:53:52Z</time>
      </trkpt>
      <trkpt lat="47.65828" lon="6.78668">
        <ele>438.3024</ele>
        <time>2012-09-30T10:53:55Z</time>
      </trkpt>
      <trkpt lat="47.65825" lon="6.78661">
        <ele>438.6072</ele>
        <time>2012-09-30T10:53:56Z</time>
      </trkpt>
      <trkpt lat="47.65822" lon="6.78654">
        <ele>438.912</ele>
        <time>2012-09-30T10:53:59Z</time>
      </trkpt>
      <trkpt lat="47.65818" lon="6.78649">
        <ele>438.912</ele>
        <time>2012-09-30T10:54:00Z</time>
      </trkpt>
      <trkpt lat="47.65814" lon="6.78644">
        <ele>439.2168</ele>
        <time>2012-09-30T10:54:03Z</time>
      </trkpt>
      <trkpt lat="47.65809" lon="6.78641">
        <ele>439.5216</ele>
        <time>2012-09-30T10:54:04Z</time>
      </trkpt>
      <trkpt lat="47.65804" lon="6.78638">
        <ele>439.2168</ele>
        <time>2012-09-30T10:54:07Z</time>
      </trkpt>
      <trkpt lat="47.65798" lon="6.78633">
        <ele>439.2168</ele>
        <time>2012-09-30T10:54:08Z</time>
      </trkpt>
      <trkpt lat="47.65792" lon="6.7863">
        <ele>439.2168</ele>
        <time>2012-09-30T10:54:11Z</time>
      </trkpt>
      <trkpt lat="47.65785" lon="6.7863">
        <ele>439.5216</ele>
        <time>2012-09-30T10:54:12Z</time>
      </trkpt>
      <trkpt lat="47.65779" lon="6.78631">
        <ele>439.8264</ele>
        <time>2012-09-30T10:54:15Z</time>
      </trkpt>
      <trkpt lat="47.65772" lon="6.78632">
        <ele>439.8264</ele>
        <time>2012-09-30T10:54:16Z</time>
      </trkpt>
      <trkpt lat="47.65766" lon="6.78634">
        <ele>440.1312</ele>
        <time>2012-09-30T10:54:19Z</time>
      </trkpt>
      <trkpt lat="47.65759" lon="6.78637">
        <ele>440.1312</ele>
        <time>2012-09-30T10:54:20Z</time>
      </trkpt>
      <trkpt lat="47.65752" lon="6.78641">
        <ele>440.1312</ele>
        <time>2012-09-30T10:54:23Z</time>
      </trkpt>
      <trkpt lat="47.65745" lon="6.78646">
        <ele>440.436</ele>
        <time>2012-09-30T10:54:24Z</time>
      </trkpt>
      <trkpt lat="47.65737" lon="6.78652">
        <ele>440.436</ele>
        <time>2012-09-30T10:54:27Z</time>
      </trkpt>
      <trkpt lat="47.6573" lon="6.78659">
        <ele>440.1312</ele>
        <time>2012-09-30T10:54:28Z</time>
      </trkpt>
      <trkpt lat="47.65723" lon="6.78667">
        <ele>440.1312</ele>
        <time>2012-09-30T10:54:31Z</time>
      </trkpt>
      <trkpt lat="47.65718" lon="6.78676">
        <ele>440.436</ele>
        <time>2012-09-30T10:54:32Z</time>
      </trkpt>
      <trkpt lat="47.65715" lon="6.78686">
        <ele>440.7408</ele>
        <time>2012-09-30T10:54:35Z</time>
      </trkpt>
      <trkpt lat="47.65715" lon="6.78697">
        <ele>441.0456</ele>
        <time>2012-09-30T10:54:36Z</time>
      </trkpt>
      <trkpt lat="47.65717" lon="6.78707">
        <ele>441.6552</ele>
        <time>2012-09-30T10:54:39Z</time>
      </trkpt>
      <trkpt lat="47.65723" lon="6.78714">
        <ele>441.6552</ele>
        <time>2012-09-30T10:54:40Z</time>
      </trkpt>
      <trkpt lat="47.6573" lon="6.7872">
        <ele>441.96</ele>
        <time>2012-09-30T10:54:43Z</time>
      </trkpt>
      <trkpt lat="47.65737" lon="6.78725">
        <ele>441.96</ele>
        <time>2012-09-30T10:54:45Z</time>
      </trkpt>
      <trkpt lat="47.65744" lon="6.78731">
        <ele>442.5696</ele>
        <time>2012-09-30T10:54:46Z</time>
      </trkpt>
      <trkpt lat="47.65751" lon="6.78738">
        <ele>442.8744</ele>
        <time>2012-09-30T10:54:49Z</time>
      </trkpt>
      <trkpt lat="47.65757" lon="6.78746">
        <ele>442.8744</ele>
        <time>2012-09-30T10:54:50Z</time>
      </trkpt>
      <trkpt lat="47.65762" lon="6.78756">
        <ele>442.5696</ele>
        <time>2012-09-30T10:54:53Z</time>
      </trkpt>
      <trkpt lat="47.65765" lon="6.78768">
        <ele>442.5696</ele>
        <time>2012-09-30T10:54:54Z</time>
      </trkpt>
      <trkpt lat="47.65768" lon="6.78781">
        <ele>442.5696</ele>
        <time>2012-09-30T10:54:57Z</time>
      </trkpt>
      <trkpt lat="47.65769" lon="6.78794">
        <ele>442.5696</ele>
        <time>2012-09-30T10:54:58Z</time>
      </trkpt>
      <trkpt lat="47.65769" lon="6.78807">
        <ele>442.5696</ele>
        <time>2012-09-30T10:55:01Z</time>
      </trkpt>
      <trkpt lat="47.65769" lon="6.78818">
        <ele>442.8744</ele>
        <time>2012-09-30T10:55:02Z</time>
      </trkpt>
      <trkpt lat="47.65769" lon="6.78826">
        <ele>443.1792</ele>
        <time>2012-09-30T10:55:05Z</time>
      </trkpt>
      <trkpt lat="47.65767" lon="6.78831">
        <ele>443.7888</ele>
        <time>2012-09-30T10:55:06Z</time>
      </trkpt>
      <trkpt lat="47.65765" lon="6.78835">
        <ele>444.3984</ele>
        <time>2012-09-30T10:55:09Z</time>
      </trkpt>
      <trkpt lat="47.65763" lon="6.78838">
        <ele>445.3128</ele>
        <time>2012-09-30T10:55:10Z</time>
      </trkpt>
      <trkpt lat="47.65762" lon="6.78842">
        <ele>445.3128</ele>
        <time>2012-09-30T10:55:13Z</time>
      </trkpt>
      <trkpt lat="47.65761" lon="6.78847">
        <ele>445.008</ele>
        <time>2012-09-30T10:55:14Z</time>
      </trkpt>
      <trkpt lat="47.65758" lon="6.7885">
        <ele>445.6176</ele>
        <time>2012-09-30T10:55:17Z</time>
      </trkpt>
      <trkpt lat="47.65756" lon="6.78855">
        <ele>445.6176</ele>
        <time>2012-09-30T10:55:18Z</time>
      </trkpt>
      <trkpt lat="47.65754" lon="6.78859">
        <ele>445.3128</ele>
        <time>2012-09-30T10:55:21Z</time>
      </trkpt>
      <trkpt lat="47.65753" lon="6.78863">
        <ele>445.3128</ele>
        <time>2012-09-30T10:55:22Z</time>
      </trkpt>
      <trkpt lat="47.65753" lon="6.78866">
        <ele>445.3128</ele>
        <time>2012-09-30T10:55:25Z</time>
      </trkpt>
      <trkpt lat="47.65753" lon="6.78867">
        <ele>445.9224</ele>
        <time>2012-09-30T10:55:26Z</time>
      </trkpt>
      <trkpt lat="47.65751" lon="6.78869">
        <ele>446.8368</ele>
        <time>2012-09-30T10:55:29Z</time>
      </trkpt>
      <trkpt lat="47.6575" lon="6.78872">
        <ele>447.4464</ele>
        <time>2012-09-30T10:55:32Z</time>
      </trkpt>
      <trkpt lat="47.65749" lon="6.78876">
        <ele>448.3608</ele>
        <time>2012-09-30T10:55:33Z</time>
      </trkpt>
      <trkpt lat="47.65748" lon="6.78879">
        <ele>449.58</ele>
        <time>2012-09-30T10:55:36Z</time>
      </trkpt>
      <trkpt lat="47.65747" lon="6.78883">
        <ele>450.1896</ele>
        <time>2012-09-30T10:55:37Z</time>
      </trkpt>
      <trkpt lat="47.65746" lon="6.78887">
        <ele>451.104</ele>
        <time>2012-09-30T10:55:40Z</time>
      </trkpt>
      <trkpt lat="47.65746" lon="6.7889">
        <ele>452.3232</ele>
        <time>2012-09-30T10:55:41Z</time>
      </trkpt>
      <trkpt lat="47.65745" lon="6.78893">
        <ele>453.2376</ele>
        <time>2012-09-30T10:55:44Z</time>
      </trkpt>
      <trkpt lat="47.65745" lon="6.78903">
        <ele>455.676</ele>
        <time>2012-09-30T10:55:51Z</time>
      </trkpt>
      <trkpt lat="47.65744" lon="6.78905">
        <ele>456.2856</ele>
        <time>2012-09-30T10:55:52Z</time>
      </trkpt>
      <trkpt lat="47.65744" lon="6.78909">
        <ele>456.2856</ele>
        <time>2012-09-30T10:55:53Z</time>
      </trkpt>
      <trkpt lat="47.65744" lon="6.78913">
        <ele>456.5904</ele>
        <time>2012-09-30T10:55:56Z</time>
      </trkpt>
      <trkpt lat="47.65744" lon="6.78916">
        <ele>456.5904</ele>
        <time>2012-09-30T10:55:57Z</time>
      </trkpt>
      <trkpt lat="47.65745" lon="6.7892">
        <ele>456.2856</ele>
        <time>2012-09-30T10:56:00Z</time>
      </trkpt>
      <trkpt lat="47.65745" lon="6.78924">
        <ele>455.0664</ele>
        <time>2012-09-30T10:56:01Z</time>
      </trkpt>
      <trkpt lat="47.65746" lon="6.78928">
        <ele>454.4568</ele>
        <time>2012-09-30T10:56:04Z</time>
      </trkpt>
      <trkpt lat="47.65747" lon="6.78932">
        <ele>454.4568</ele>
        <time>2012-09-30T10:56:06Z</time>
      </trkpt>
      <trkpt lat="47.65748" lon="6.78936">
        <ele>454.4568</ele>
        <time>2012-09-30T10:56:07Z</time>
      </trkpt>
      <trkpt lat="47.65749" lon="6.7894">
        <ele>454.152</ele>
        <time>2012-09-30T10:56:10Z</time>
      </trkpt>
      <trkpt lat="47.6575" lon="6.78944">
        <ele>452.628</ele>
        <time>2012-09-30T10:56:11Z</time>
      </trkpt>
      <trkpt lat="47.65751" lon="6.78948">
        <ele>452.3232</ele>
        <time>2012-09-30T10:56:14Z</time>
      </trkpt>
      <trkpt lat="47.65752" lon="6.78952">
        <ele>454.7616</ele>
        <time>2012-09-30T10:56:15Z</time>
      </trkpt>
      <trkpt lat="47.65753" lon="6.78955">
        <ele>455.0664</ele>
        <time>2012-09-30T10:56:18Z</time>
      </trkpt>
      <trkpt lat="47.65754" lon="6.78959">
        <ele>455.676</ele>
        <time>2012-09-30T10:56:19Z</time>
      </trkpt>
      <trkpt lat="47.65755" lon="6.78962">
        <ele>455.0664</ele>
        <time>2012-09-30T10:56:22Z</time>
      </trkpt>
      <trkpt lat="47.65756" lon="6.78965">
        <ele>454.4568</ele>
        <time>2012-09-30T10:56:23Z</time>
      </trkpt>
      <trkpt lat="47.65758" lon="6.78969">
        <ele>453.8472</ele>
        <time>2012-09-30T10:56:26Z</time>
      </trkpt>
      <trkpt lat="47.65759" lon="6.78973">
        <ele>453.5424</ele>
        <time>2012-09-30T10:56:27Z</time>
      </trkpt>
      <trkpt lat="47.65761" lon="6.78977">
        <ele>452.9328</ele>
        <time>2012-09-30T10:56:30Z</time>
      </trkpt>
      <trkpt lat="47.65764" lon="6.78981">
        <ele>453.8472</ele>
        <time>2012-09-30T10:56:31Z</time>
      </trkpt>
      <trkpt lat="47.65766" lon="6.78985">
        <ele>454.152</ele>
        <time>2012-09-30T10:56:34Z</time>
      </trkpt>
      <trkpt lat="47.65769" lon="6.7899">
        <ele>454.4568</ele>
        <time>2012-09-30T10:56:35Z</time>
      </trkpt>
      <trkpt lat="47.65771" lon="6.78995">
        <ele>455.3712</ele>
        <time>2012-09-30T10:56:38Z</time>
      </trkpt>
      <trkpt lat="47.65773" lon="6.79001">
        <ele>455.676</ele>
        <time>2012-09-30T10:56:39Z</time>
      </trkpt>
      <trkpt lat="47.65775" lon="6.79007">
        <ele>455.9808</ele>
        <time>2012-09-30T10:56:42Z</time>
      </trkpt>
      <trkpt lat="47.65777" lon="6.79012">
        <ele>456.8952</ele>
        <time>2012-09-30T10:56:43Z</time>
      </trkpt>
      <trkpt lat="47.65778" lon="6.79017">
        <ele>457.8096</ele>
        <time>2012-09-30T10:56:46Z</time>
      </trkpt>
      <trkpt lat="47.6578" lon="6.79022">
        <ele>457.2</ele>
        <time>2012-09-30T10:56:47Z</time>
      </trkpt>
      <trkpt lat="47.65781" lon="6.79028">
        <ele>457.2</ele>
        <time>2012-09-30T10:56:50Z</time>
      </trkpt>
      <trkpt lat="47.65783" lon="6.79033">
        <ele>457.5048</ele>
        <time>2012-09-30T10:56:51Z</time>
      </trkpt>
      <trkpt lat="47.65785" lon="6.79038">
        <ele>457.8096</ele>
        <time>2012-09-30T10:56:54Z</time>
      </trkpt>
      <trkpt lat="47.65787" lon="6.79044">
        <ele>457.5048</ele>
        <time>2012-09-30T10:56:55Z</time>
      </trkpt>
      <trkpt lat="47.65788" lon="6.79049">
        <ele>457.5048</ele>
        <time>2012-09-30T10:56:58Z</time>
      </trkpt>
      <trkpt lat="47.65789" lon="6.79054">
        <ele>458.1144</ele>
        <time>2012-09-30T10:57:00Z</time>
      </trkpt>
      <trkpt lat="47.65791" lon="6.79058">
        <ele>459.3336</ele>
        <time>2012-09-30T10:57:01Z</time>
      </trkpt>
      <trkpt lat="47.65792" lon="6.79063">
        <ele>459.6384</ele>
        <time>2012-09-30T10:57:04Z</time>
      </trkpt>
      <trkpt lat="47.65794" lon="6.79068">
        <ele>459.9432</ele>
        <time>2012-09-30T10:57:05Z</time>
      </trkpt>
      <trkpt lat="47.65795" lon="6.79073">
        <ele>460.248</ele>
        <time>2012-09-30T10:57:08Z</time>
      </trkpt>
      <trkpt lat="47.65797" lon="6.79078">
        <ele>459.3336</ele>
        <time>2012-09-30T10:57:09Z</time>
      </trkpt>
      <trkpt lat="47.65799" lon="6.79082">
        <ele>459.0288</ele>
        <time>2012-09-30T10:57:12Z</time>
      </trkpt>
      <trkpt lat="47.65801" lon="6.79086">
        <ele>460.8576</ele>
        <time>2012-09-30T10:57:13Z</time>
      </trkpt>
      <trkpt lat="47.65803" lon="6.7909">
        <ele>461.4672</ele>
        <time>2012-09-30T10:57:16Z</time>
      </trkpt>
      <trkpt lat="47.65805" lon="6.79094">
        <ele>461.4672</ele>
        <time>2012-09-30T10:57:17Z</time>
      </trkpt>
      <trkpt lat="47.65807" lon="6.79098">
        <ele>462.0768</ele>
        <time>2012-09-30T10:57:20Z</time>
      </trkpt>
      <trkpt lat="47.65807" lon="6.79103">
        <ele>462.6864</ele>
        <time>2012-09-30T10:57:21Z</time>
      </trkpt>
      <trkpt lat="47.65807" lon="6.79108">
        <ele>462.9912</ele>
        <time>2012-09-30T10:57:24Z</time>
      </trkpt>
      <trkpt lat="47.65808" lon="6.79112">
        <ele>462.6864</ele>
        <time>2012-09-30T10:57:25Z</time>
      </trkpt>
      <trkpt lat="47.65808" lon="6.79117">
        <ele>462.9912</ele>
        <time>2012-09-30T10:57:28Z</time>
      </trkpt>
      <trkpt lat="47.65808" lon="6.79123">
        <ele>462.9912</ele>
        <time>2012-09-30T10:57:29Z</time>
      </trkpt>
      <trkpt lat="47.65809" lon="6.79128">
        <ele>462.9912</ele>
        <time>2012-09-30T10:57:32Z</time>
      </trkpt>
      <trkpt lat="47.65809" lon="6.79133">
        <ele>465.1248</ele>
        <time>2012-09-30T10:57:33Z</time>
      </trkpt>
      <trkpt lat="47.65809" lon="6.79137">
        <ele>466.6488</ele>
        <time>2012-09-30T10:57:36Z</time>
      </trkpt>
      <trkpt lat="47.65809" lon="6.79141">
        <ele>466.9536</ele>
        <time>2012-09-30T10:57:37Z</time>
      </trkpt>
      <trkpt lat="47.65808" lon="6.79145">
        <ele>468.1728</ele>
        <time>2012-09-30T10:57:40Z</time>
      </trkpt>
      <trkpt lat="47.65809" lon="6.7915">
        <ele>469.0872</ele>
        <time>2012-09-30T10:57:41Z</time>
      </trkpt>
      <trkpt lat="47.6581" lon="6.79156">
        <ele>470.0016</ele>
        <time>2012-09-30T10:57:44Z</time>
      </trkpt>
      <trkpt lat="47.65811" lon="6.79161">
        <ele>470.6112</ele>
        <time>2012-09-30T10:57:45Z</time>
      </trkpt>
      <trkpt lat="47.65811" lon="6.79167">
        <ele>469.6968</ele>
        <time>2012-09-30T10:57:48Z</time>
      </trkpt>
      <trkpt lat="47.65813" lon="6.79171">
        <ele>470.3064</ele>
        <time>2012-09-30T10:57:49Z</time>
      </trkpt>
      <trkpt lat="47.65813" lon="6.79176">
        <ele>471.5256</ele>
        <time>2012-09-30T10:57:52Z</time>
      </trkpt>
      <trkpt lat="47.65813" lon="6.79181">
        <ele>470.6112</ele>
        <time>2012-09-30T10:57:54Z</time>
      </trkpt>
      <trkpt lat="47.65814" lon="6.79187">
        <ele>470.916</ele>
        <time>2012-09-30T10:57:55Z</time>
      </trkpt>
      <trkpt lat="47.65814" lon="6.79191">
        <ele>471.5256</ele>
        <time>2012-09-30T10:57:58Z</time>
      </trkpt>
      <trkpt lat="47.65813" lon="6.79196">
        <ele>471.8304</ele>
        <time>2012-09-30T10:57:59Z</time>
      </trkpt>
      <trkpt lat="47.65813" lon="6.79201">
        <ele>471.8304</ele>
        <time>2012-09-30T10:58:02Z</time>
      </trkpt>
      <trkpt lat="47.65813" lon="6.79206">
        <ele>470.916</ele>
        <time>2012-09-30T10:58:03Z</time>
      </trkpt>
      <trkpt lat="47.65813" lon="6.79211">
        <ele>470.0016</ele>
        <time>2012-09-30T10:58:06Z</time>
      </trkpt>
      <trkpt lat="47.65813" lon="6.79217">
        <ele>469.6968</ele>
        <time>2012-09-30T10:58:07Z</time>
      </trkpt>
      <trkpt lat="47.65813" lon="6.79222">
        <ele>469.0872</ele>
        <time>2012-09-30T10:58:10Z</time>
      </trkpt>
      <trkpt lat="47.65813" lon="6.79227">
        <ele>468.4776</ele>
        <time>2012-09-30T10:58:11Z</time>
      </trkpt>
      <trkpt lat="47.65813" lon="6.79233">
        <ele>468.1728</ele>
        <time>2012-09-30T10:58:14Z</time>
      </trkpt>
      <trkpt lat="47.65812" lon="6.79237">
        <ele>468.4776</ele>
        <time>2012-09-30T10:58:15Z</time>
      </trkpt>
      <trkpt lat="47.65813" lon="6.79243">
        <ele>468.1728</ele>
        <time>2012-09-30T10:58:18Z</time>
      </trkpt>
      <trkpt lat="47.65814" lon="6.79248">
        <ele>467.868</ele>
        <time>2012-09-30T10:58:19Z</time>
      </trkpt>
      <trkpt lat="47.65815" lon="6.79253">
        <ele>467.2584</ele>
        <time>2012-09-30T10:58:22Z</time>
      </trkpt>
      <trkpt lat="47.65817" lon="6.79258">
        <ele>467.2584</ele>
        <time>2012-09-30T10:58:23Z</time>
      </trkpt>
      <trkpt lat="47.65819" lon="6.79264">
        <ele>466.344</ele>
        <time>2012-09-30T10:58:26Z</time>
      </trkpt>
      <trkpt lat="47.6582" lon="6.7927">
        <ele>466.6488</ele>
        <time>2012-09-30T10:58:27Z</time>
      </trkpt>
      <trkpt lat="47.65822" lon="6.79276">
        <ele>466.0392</ele>
        <time>2012-09-30T10:58:30Z</time>
      </trkpt>
      <trkpt lat="47.65824" lon="6.79282">
        <ele>466.0392</ele>
        <time>2012-09-30T10:58:31Z</time>
      </trkpt>
      <trkpt lat="47.65825" lon="6.79289">
        <ele>466.6488</ele>
        <time>2012-09-30T10:58:34Z</time>
      </trkpt>
      <trkpt lat="47.65827" lon="6.79295">
        <ele>466.344</ele>
        <time>2012-09-30T10:58:35Z</time>
      </trkpt>
      <trkpt lat="47.65828" lon="6.79302">
        <ele>465.7344</ele>
        <time>2012-09-30T10:58:38Z</time>
      </trkpt>
      <trkpt lat="47.6583" lon="6.79309">
        <ele>465.4296</ele>
        <time>2012-09-30T10:58:39Z</time>
      </trkpt>
      <trkpt lat="47.65831" lon="6.79316">
        <ele>464.5152</ele>
        <time>2012-09-30T10:58:42Z</time>
      </trkpt>
      <trkpt lat="47.65834" lon="6.79323">
        <ele>464.5152</ele>
        <time>2012-09-30T10:58:43Z</time>
      </trkpt>
      <trkpt lat="47.65836" lon="6.7933">
        <ele>464.2104</ele>
        <time>2012-09-30T10:58:46Z</time>
      </trkpt>
      <trkpt lat="47.65837" lon="6.79338">
        <ele>463.296</ele>
        <time>2012-09-30T10:58:47Z</time>
      </trkpt>
      <trkpt lat="47.65839" lon="6.79345">
        <ele>462.6864</ele>
        <time>2012-09-30T10:58:49Z</time>
      </trkpt>
      <trkpt lat="47.6584" lon="6.79352">
        <ele>462.6864</ele>
        <time>2012-09-30T10:58:52Z</time>
      </trkpt>
      <trkpt lat="47.65841" lon="6.79359">
        <ele>463.6008</ele>
        <time>2012-09-30T10:58:53Z</time>
      </trkpt>
      <trkpt lat="47.65843" lon="6.79366">
        <ele>463.9056</ele>
        <time>2012-09-30T10:58:56Z</time>
      </trkpt>
      <trkpt lat="47.65845" lon="6.79373">
        <ele>464.2104</ele>
        <time>2012-09-30T10:58:57Z</time>
      </trkpt>
      <trkpt lat="47.65846" lon="6.79381">
        <ele>463.9056</ele>
        <time>2012-09-30T10:59:00Z</time>
      </trkpt>
      <trkpt lat="47.65848" lon="6.79387">
        <ele>464.2104</ele>
        <time>2012-09-30T10:59:01Z</time>
      </trkpt>
      <trkpt lat="47.65849" lon="6.79395">
        <ele>464.2104</ele>
        <time>2012-09-30T10:59:04Z</time>
      </trkpt>
      <trkpt lat="47.65848" lon="6.79402">
        <ele>464.5152</ele>
        <time>2012-09-30T10:59:05Z</time>
      </trkpt>
      <trkpt lat="47.65847" lon="6.79409">
        <ele>465.7344</ele>
        <time>2012-09-30T10:59:08Z</time>
      </trkpt>
      <trkpt lat="47.65847" lon="6.79417">
        <ele>466.9536</ele>
        <time>2012-09-30T10:59:09Z</time>
      </trkpt>
      <trkpt lat="47.65847" lon="6.79423">
        <ele>467.868</ele>
        <time>2012-09-30T10:59:12Z</time>
      </trkpt>
      <trkpt lat="47.65848" lon="6.79431">
        <ele>467.868</ele>
        <time>2012-09-30T10:59:13Z</time>
      </trkpt>
      <trkpt lat="47.65849" lon="6.79438">
        <ele>467.868</ele>
        <time>2012-09-30T10:59:16Z</time>
      </trkpt>
      <trkpt lat="47.6585" lon="6.79444">
        <ele>468.1728</ele>
        <time>2012-09-30T10:59:17Z</time>
      </trkpt>
      <trkpt lat="47.6585" lon="6.79451">
        <ele>468.4776</ele>
        <time>2012-09-30T10:59:20Z</time>
      </trkpt>
      <trkpt lat="47.6585" lon="6.79458">
        <ele>469.0872</ele>
        <time>2012-09-30T10:59:21Z</time>
      </trkpt>
      <trkpt lat="47.6585" lon="6.79464">
        <ele>470.3064</ele>
        <time>2012-09-30T10:59:24Z</time>
      </trkpt>
      <trkpt lat="47.6585" lon="6.7947">
        <ele>471.8304</ele>
        <time>2012-09-30T10:59:25Z</time>
      </trkpt>
      <trkpt lat="47.65849" lon="6.79477">
        <ele>472.7448</ele>
        <time>2012-09-30T10:59:28Z</time>
      </trkpt>
      <trkpt lat="47.65849" lon="6.79483">
        <ele>473.964</ele>
        <time>2012-09-30T10:59:29Z</time>
      </trkpt>
      <trkpt lat="47.65849" lon="6.79489">
        <ele>474.8784</ele>
        <time>2012-09-30T10:59:32Z</time>
      </trkpt>
      <trkpt lat="47.65848" lon="6.79495">
        <ele>475.488</ele>
        <time>2012-09-30T10:59:33Z</time>
      </trkpt>
      <trkpt lat="47.65848" lon="6.79502">
        <ele>476.7072</ele>
        <time>2012-09-30T10:59:36Z</time>
      </trkpt>
      <trkpt lat="47.65847" lon="6.79508">
        <ele>477.3168</ele>
        <time>2012-09-30T10:59:37Z</time>
      </trkpt>
      <trkpt lat="47.65846" lon="6.79514">
        <ele>477.9264</ele>
        <time>2012-09-30T10:59:40Z</time>
      </trkpt>
      <trkpt lat="47.65846" lon="6.7952">
        <ele>477.9264</ele>
        <time>2012-09-30T10:59:41Z</time>
      </trkpt>
      <trkpt lat="47.65845" lon="6.79525">
        <ele>478.536</ele>
        <time>2012-09-30T10:59:43Z</time>
      </trkpt>
      <trkpt lat="47.65844" lon="6.79531">
        <ele>479.4504</ele>
        <time>2012-09-30T10:59:46Z</time>
      </trkpt>
      <trkpt lat="47.65843" lon="6.79537">
        <ele>480.3648</ele>
        <time>2012-09-30T10:59:47Z</time>
      </trkpt>
      <trkpt lat="47.65842" lon="6.79543">
        <ele>481.2792</ele>
        <time>2012-09-30T10:59:50Z</time>
      </trkpt>
      <trkpt lat="47.65842" lon="6.79549">
        <ele>481.584</ele>
        <time>2012-09-30T10:59:51Z</time>
      </trkpt>
      <trkpt lat="47.65841" lon="6.79555">
        <ele>482.1936</ele>
        <time>2012-09-30T10:59:54Z</time>
      </trkpt>
      <trkpt lat="47.65841" lon="6.79561">
        <ele>482.1936</ele>
        <time>2012-09-30T10:59:55Z</time>
      </trkpt>
      <trkpt lat="47.6584" lon="6.79568">
        <ele>481.8888</ele>
        <time>2012-09-30T10:59:58Z</time>
      </trkpt>
      <trkpt lat="47.6584" lon="6.79574">
        <ele>481.584</ele>
        <time>2012-09-30T10:59:59Z</time>
      </trkpt>
      <trkpt lat="47.65839" lon="6.79581">
        <ele>481.2792</ele>
        <time>2012-09-30T11:00:02Z</time>
      </trkpt>
      <trkpt lat="47.65839" lon="6.79587">
        <ele>480.3648</ele>
        <time>2012-09-30T11:00:03Z</time>
      </trkpt>
      <trkpt lat="47.65838" lon="6.79593">
        <ele>480.9744</ele>
        <time>2012-09-30T11:00:06Z</time>
      </trkpt>
      <trkpt lat="47.65838" lon="6.79598">
        <ele>481.584</ele>
        <time>2012-09-30T11:00:07Z</time>
      </trkpt>
      <trkpt lat="47.65837" lon="6.79604">
        <ele>480.6696</ele>
        <time>2012-09-30T11:00:10Z</time>
      </trkpt>
      <trkpt lat="47.65837" lon="6.7961">
        <ele>480.3648</ele>
        <time>2012-09-30T11:00:11Z</time>
      </trkpt>
      <trkpt lat="47.65837" lon="6.79616">
        <ele>480.06</ele>
        <time>2012-09-30T11:00:14Z</time>
      </trkpt>
      <trkpt lat="47.65837" lon="6.79621">
        <ele>480.06</ele>
        <time>2012-09-30T11:00:15Z</time>
      </trkpt>
      <trkpt lat="47.65838" lon="6.79627">
        <ele>480.3648</ele>
        <time>2012-09-30T11:00:18Z</time>
      </trkpt>
      <trkpt lat="47.65839" lon="6.79633">
        <ele>480.3648</ele>
        <time>2012-09-30T11:00:19Z</time>
      </trkpt>
      <trkpt lat="47.65839" lon="6.79638">
        <ele>480.3648</ele>
        <time>2012-09-30T11:00:22Z</time>
      </trkpt>
      <trkpt lat="47.6584" lon="6.79644">
        <ele>480.6696</ele>
        <time>2012-09-30T11:00:23Z</time>
      </trkpt>
      <trkpt lat="47.6584" lon="6.79649">
        <ele>481.8888</ele>
        <time>2012-09-30T11:00:26Z</time>
      </trkpt>
      <trkpt lat="47.65841" lon="6.79654">
        <ele>482.8032</ele>
        <time>2012-09-30T11:00:27Z</time>
      </trkpt>
      <trkpt lat="47.65841" lon="6.79659">
        <ele>484.0224</ele>
        <time>2012-09-30T11:00:30Z</time>
      </trkpt>
      <trkpt lat="47.65842" lon="6.79664">
        <ele>485.2416</ele>
        <time>2012-09-30T11:00:31Z</time>
      </trkpt>
      <trkpt lat="47.65843" lon="6.79669">
        <ele>486.4608</ele>
        <time>2012-09-30T11:00:34Z</time>
      </trkpt>
      <trkpt lat="47.65843" lon="6.79674">
        <ele>487.3752</ele>
        <time>2012-09-30T11:00:35Z</time>
      </trkpt>
      <trkpt lat="47.65844" lon="6.79679">
        <ele>487.9848</ele>
        <time>2012-09-30T11:00:37Z</time>
      </trkpt>
      <trkpt lat="47.65845" lon="6.79684">
        <ele>488.5944</ele>
        <time>2012-09-30T11:00:40Z</time>
      </trkpt>
      <trkpt lat="47.65846" lon="6.79689">
        <ele>489.204</ele>
        <time>2012-09-30T11:00:41Z</time>
      </trkpt>
      <trkpt lat="47.65848" lon="6.79695">
        <ele>489.8136</ele>
        <time>2012-09-30T11:00:44Z</time>
      </trkpt>
      <trkpt lat="47.65849" lon="6.797">
        <ele>490.1184</ele>
        <time>2012-09-30T11:00:45Z</time>
      </trkpt>
      <trkpt lat="47.6585" lon="6.79705">
        <ele>490.728</ele>
        <time>2012-09-30T11:00:48Z</time>
      </trkpt>
      <trkpt lat="47.65851" lon="6.7971">
        <ele>491.0328</ele>
        <time>2012-09-30T11:00:49Z</time>
      </trkpt>
      <trkpt lat="47.65852" lon="6.79715">
        <ele>491.6424</ele>
        <time>2012-09-30T11:00:52Z</time>
      </trkpt>
      <trkpt lat="47.65853" lon="6.7972">
        <ele>491.9472</ele>
        <time>2012-09-30T11:00:53Z</time>
      </trkpt>
      <trkpt lat="47.65854" lon="6.79725">
        <ele>492.5568</ele>
        <time>2012-09-30T11:00:56Z</time>
      </trkpt>
      <trkpt lat="47.65855" lon="6.7973">
        <ele>493.1664</ele>
        <time>2012-09-30T11:00:57Z</time>
      </trkpt>
      <trkpt lat="47.65856" lon="6.79735">
        <ele>493.776</ele>
        <time>2012-09-30T11:01:00Z</time>
      </trkpt>
      <trkpt lat="47.65858" lon="6.79739">
        <ele>494.0808</ele>
        <time>2012-09-30T11:01:01Z</time>
      </trkpt>
      <trkpt lat="47.65859" lon="6.79744">
        <ele>494.3856</ele>
        <time>2012-09-30T11:01:04Z</time>
      </trkpt>
      <trkpt lat="47.6586" lon="6.79749">
        <ele>494.3856</ele>
        <time>2012-09-30T11:01:05Z</time>
      </trkpt>
      <trkpt lat="47.65861" lon="6.79754">
        <ele>494.3856</ele>
        <time>2012-09-30T11:01:08Z</time>
      </trkpt>
      <trkpt lat="47.65862" lon="6.79759">
        <ele>494.3856</ele>
        <time>2012-09-30T11:01:09Z</time>
      </trkpt>
      <trkpt lat="47.65863" lon="6.79765">
        <ele>494.3856</ele>
        <time>2012-09-30T11:01:12Z</time>
      </trkpt>
      <trkpt lat="47.65864" lon="6.7977">
        <ele>494.6904</ele>
        <time>2012-09-30T11:01:13Z</time>
      </trkpt>
      <trkpt lat="47.65864" lon="6.79776">
        <ele>494.9952</ele>
        <time>2012-09-30T11:01:16Z</time>
      </trkpt>
      <trkpt lat="47.65863" lon="6.79781">
        <ele>495.3</ele>
        <time>2012-09-30T11:01:17Z</time>
      </trkpt>
      <trkpt lat="47.65862" lon="6.79785">
        <ele>495.9096</ele>
        <time>2012-09-30T11:01:20Z</time>
      </trkpt>
      <trkpt lat="47.6586" lon="6.79789">
        <ele>496.2144</ele>
        <time>2012-09-30T11:01:21Z</time>
      </trkpt>
      <trkpt lat="47.65857" lon="6.79792">
        <ele>496.5192</ele>
        <time>2012-09-30T11:01:24Z</time>
      </trkpt>
      <trkpt lat="47.65854" lon="6.79793">
        <ele>496.5192</ele>
        <time>2012-09-30T11:01:25Z</time>
      </trkpt>
      <trkpt lat="47.6585" lon="6.79793">
        <ele>496.5192</ele>
        <time>2012-09-30T11:01:28Z</time>
      </trkpt>
      <trkpt lat="47.65847" lon="6.79792">
        <ele>496.5192</ele>
        <time>2012-09-30T11:01:29Z</time>
      </trkpt>
      <trkpt lat="47.65844" lon="6.79791">
        <ele>496.5192</ele>
        <time>2012-09-30T11:01:31Z</time>
      </trkpt>
      <trkpt lat="47.6584" lon="6.79789">
        <ele>496.824</ele>
        <time>2012-09-30T11:01:34Z</time>
      </trkpt>
      <trkpt lat="47.65837" lon="6.79788">
        <ele>497.1288</ele>
        <time>2012-09-30T11:01:35Z</time>
      </trkpt>
      <trkpt lat="47.65833" lon="6.79788">
        <ele>496.824</ele>
        <time>2012-09-30T11:01:38Z</time>
      </trkpt>
      <trkpt lat="47.65829" lon="6.79787">
        <ele>497.1288</ele>
        <time>2012-09-30T11:01:39Z</time>
      </trkpt>
      <trkpt lat="47.65825" lon="6.79787">
        <ele>497.1288</ele>
        <time>2012-09-30T11:01:42Z</time>
      </trkpt>
      <trkpt lat="47.65822" lon="6.79787">
        <ele>497.4336</ele>
        <time>2012-09-30T11:01:43Z</time>
      </trkpt>
      <trkpt lat="47.65818" lon="6.79786">
        <ele>497.4336</ele>
        <time>2012-09-30T11:01:46Z</time>
      </trkpt>
      <trkpt lat="47.65814" lon="6.79786">
        <ele>497.4336</ele>
        <time>2012-09-30T11:01:47Z</time>
      </trkpt>
      <trkpt lat="47.6581" lon="6.79787">
        <ele>497.7384</ele>
        <time>2012-09-30T11:01:50Z</time>
      </trkpt>
      <trkpt lat="47.65807" lon="6.79787">
        <ele>497.4336</ele>
        <time>2012-09-30T11:01:51Z</time>
      </trkpt>
      <trkpt lat="47.65803" lon="6.79788">
        <ele>497.7384</ele>
        <time>2012-09-30T11:01:54Z</time>
      </trkpt>
      <trkpt lat="47.658" lon="6.79789">
        <ele>497.7384</ele>
        <time>2012-09-30T11:01:55Z</time>
      </trkpt>
      <trkpt lat="47.65796" lon="6.79789">
        <ele>498.0432</ele>
        <time>2012-09-30T11:01:58Z</time>
      </trkpt>
      <trkpt lat="47.65792" lon="6.79789">
        <ele>497.7384</ele>
        <time>2012-09-30T11:01:59Z</time>
      </trkpt>
      <trkpt lat="47.65787" lon="6.79788">
        <ele>498.0432</ele>
        <time>2012-09-30T11:02:02Z</time>
      </trkpt>
      <trkpt lat="47.65782" lon="6.79787">
        <ele>498.348</ele>
        <time>2012-09-30T11:02:03Z</time>
      </trkpt>
      <trkpt lat="47.65777" lon="6.79786">
        <ele>498.348</ele>
        <time>2012-09-30T11:02:06Z</time>
      </trkpt>
      <trkpt lat="47.65772" lon="6.79784">
        <ele>498.348</ele>
        <time>2012-09-30T11:02:07Z</time>
      </trkpt>
      <trkpt lat="47.65766" lon="6.79781">
        <ele>498.0432</ele>
        <time>2012-09-30T11:02:10Z</time>
      </trkpt>
      <trkpt lat="47.65761" lon="6.79777">
        <ele>498.348</ele>
        <time>2012-09-30T11:02:11Z</time>
      </trkpt>
      <trkpt lat="47.65756" lon="6.79772">
        <ele>498.0432</ele>
        <time>2012-09-30T11:02:14Z</time>
      </trkpt>
      <trkpt lat="47.65752" lon="6.79768">
        <ele>498.0432</ele>
        <time>2012-09-30T11:02:15Z</time>
      </trkpt>
      <trkpt lat="47.65749" lon="6.79763">
        <ele>498.0432</ele>
        <time>2012-09-30T11:02:18Z</time>
      </trkpt>
      <trkpt lat="47.65745" lon="6.79758">
        <ele>497.7384</ele>
        <time>2012-09-30T11:02:19Z</time>
      </trkpt>
      <trkpt lat="47.6574" lon="6.79752">
        <ele>497.4336</ele>
        <time>2012-09-30T11:02:22Z</time>
      </trkpt>
      <trkpt lat="47.65736" lon="6.79747">
        <ele>497.1288</ele>
        <time>2012-09-30T11:02:24Z</time>
      </trkpt>
      <trkpt lat="47.65732" lon="6.79741">
        <ele>496.824</ele>
        <time>2012-09-30T11:02:25Z</time>
      </trkpt>
      <trkpt lat="47.65728" lon="6.79735">
        <ele>496.2144</ele>
        <time>2012-09-30T11:02:28Z</time>
      </trkpt>
      <trkpt lat="47.65723" lon="6.7973">
        <ele>495.6048</ele>
        <time>2012-09-30T11:02:29Z</time>
      </trkpt>
      <trkpt lat="47.65718" lon="6.79725">
        <ele>494.9952</ele>
        <time>2012-09-30T11:02:32Z</time>
      </trkpt>
      <trkpt lat="47.65712" lon="6.79719">
        <ele>494.3856</ele>
        <time>2012-09-30T11:02:33Z</time>
      </trkpt>
      <trkpt lat="47.65707" lon="6.79712">
        <ele>494.0808</ele>
        <time>2012-09-30T11:02:36Z</time>
      </trkpt>
      <trkpt lat="47.65701" lon="6.79706">
        <ele>493.4712</ele>
        <time>2012-09-30T11:02:37Z</time>
      </trkpt>
      <trkpt lat="47.65696" lon="6.797">
        <ele>494.0808</ele>
        <time>2012-09-30T11:02:40Z</time>
      </trkpt>
      <trkpt lat="47.65691" lon="6.79696">
        <ele>494.0808</ele>
        <time>2012-09-30T11:02:41Z</time>
      </trkpt>
      <trkpt lat="47.65685" lon="6.79693">
        <ele>494.0808</ele>
        <time>2012-09-30T11:02:44Z</time>
      </trkpt>
      <trkpt lat="47.6568" lon="6.79689">
        <ele>494.3856</ele>
        <time>2012-09-30T11:02:45Z</time>
      </trkpt>
      <trkpt lat="47.65675" lon="6.79685">
        <ele>494.6904</ele>
        <time>2012-09-30T11:02:48Z</time>
      </trkpt>
      <trkpt lat="47.6567" lon="6.79682">
        <ele>495.3</ele>
        <time>2012-09-30T11:02:49Z</time>
      </trkpt>
      <trkpt lat="47.65665" lon="6.79679">
        <ele>496.2144</ele>
        <time>2012-09-30T11:02:52Z</time>
      </trkpt>
      <trkpt lat="47.65659" lon="6.79676">
        <ele>497.4336</ele>
        <time>2012-09-30T11:02:53Z</time>
      </trkpt>
      <trkpt lat="47.65654" lon="6.79674">
        <ele>497.4336</ele>
        <time>2012-09-30T11:02:56Z</time>
      </trkpt>
      <trkpt lat="47.65649" lon="6.79671">
        <ele>497.7384</ele>
        <time>2012-09-30T11:02:57Z</time>
      </trkpt>
      <trkpt lat="47.65644" lon="6.7967">
        <ele>498.0432</ele>
        <time>2012-09-30T11:03:00Z</time>
      </trkpt>
      <trkpt lat="47.65639" lon="6.79668">
        <ele>498.348</ele>
        <time>2012-09-30T11:03:01Z</time>
      </trkpt>
      <trkpt lat="47.65634" lon="6.79666">
        <ele>498.6528</ele>
        <time>2012-09-30T11:03:04Z</time>
      </trkpt>
      <trkpt lat="47.65629" lon="6.79664">
        <ele>499.2624</ele>
        <time>2012-09-30T11:03:05Z</time>
      </trkpt>
      <trkpt lat="47.65624" lon="6.79663">
        <ele>499.2624</ele>
        <time>2012-09-30T11:03:08Z</time>
      </trkpt>
      <trkpt lat="47.65618" lon="6.79662">
        <ele>499.5672</ele>
        <time>2012-09-30T11:03:09Z</time>
      </trkpt>
      <trkpt lat="47.65613" lon="6.79661">
        <ele>499.872</ele>
        <time>2012-09-30T11:03:12Z</time>
      </trkpt>
      <trkpt lat="47.65607" lon="6.79658">
        <ele>499.872</ele>
        <time>2012-09-30T11:03:13Z</time>
      </trkpt>
      <trkpt lat="47.656" lon="6.79655">
        <ele>499.5672</ele>
        <time>2012-09-30T11:03:16Z</time>
      </trkpt>
      <trkpt lat="47.65594" lon="6.7965">
        <ele>499.5672</ele>
        <time>2012-09-30T11:03:18Z</time>
      </trkpt>
      <trkpt lat="47.65588" lon="6.79646">
        <ele>499.2624</ele>
        <time>2012-09-30T11:03:19Z</time>
      </trkpt>
      <trkpt lat="47.65582" lon="6.79641">
        <ele>499.2624</ele>
        <time>2012-09-30T11:03:22Z</time>
      </trkpt>
      <trkpt lat="47.65575" lon="6.79636">
        <ele>499.2624</ele>
        <time>2012-09-30T11:03:23Z</time>
      </trkpt>
      <trkpt lat="47.65568" lon="6.7963">
        <ele>499.2624</ele>
        <time>2012-09-30T11:03:26Z</time>
      </trkpt>
      <trkpt lat="47.65562" lon="6.79622">
        <ele>499.872</ele>
        <time>2012-09-30T11:03:27Z</time>
      </trkpt>
      <trkpt lat="47.65555" lon="6.79613">
        <ele>500.4816</ele>
        <time>2012-09-30T11:03:30Z</time>
      </trkpt>
      <trkpt lat="47.65549" lon="6.79604">
        <ele>500.4816</ele>
        <time>2012-09-30T11:03:31Z</time>
      </trkpt>
      <trkpt lat="47.65543" lon="6.79596">
        <ele>500.1768</ele>
        <time>2012-09-30T11:03:34Z</time>
      </trkpt>
      <trkpt lat="47.65537" lon="6.79587">
        <ele>499.5672</ele>
        <time>2012-09-30T11:03:35Z</time>
      </trkpt>
      <trkpt lat="47.65531" lon="6.79578">
        <ele>499.2624</ele>
        <time>2012-09-30T11:03:38Z</time>
      </trkpt>
      <trkpt lat="47.65525" lon="6.7957">
        <ele>499.2624</ele>
        <time>2012-09-30T11:03:39Z</time>
      </trkpt>
      <trkpt lat="47.65518" lon="6.79565">
        <ele>499.2624</ele>
        <time>2012-09-30T11:03:42Z</time>
      </trkpt>
      <trkpt lat="47.65511" lon="6.79561">
        <ele>498.9576</ele>
        <time>2012-09-30T11:03:43Z</time>
      </trkpt>
      <trkpt lat="47.65504" lon="6.79558">
        <ele>499.2624</ele>
        <time>2012-09-30T11:03:46Z</time>
      </trkpt>
      <trkpt lat="47.65497" lon="6.79556">
        <ele>500.1768</ele>
        <time>2012-09-30T11:03:47Z</time>
      </trkpt>
      <trkpt lat="47.65489" lon="6.79554">
        <ele>500.7864</ele>
        <time>2012-09-30T11:03:50Z</time>
      </trkpt>
      <trkpt lat="47.65482" lon="6.79554">
        <ele>501.7008</ele>
        <time>2012-09-30T11:03:51Z</time>
      </trkpt>
      <trkpt lat="47.65475" lon="6.79555">
        <ele>502.0056</ele>
        <time>2012-09-30T11:03:54Z</time>
      </trkpt>
      <trkpt lat="47.65467" lon="6.79558">
        <ele>501.396</ele>
        <time>2012-09-30T11:03:55Z</time>
      </trkpt>
      <trkpt lat="47.65459" lon="6.79567">
        <ele>499.872</ele>
        <time>2012-09-30T11:03:58Z</time>
      </trkpt>
      <trkpt lat="47.65451" lon="6.79581">
        <ele>498.9576</ele>
        <time>2012-09-30T11:03:59Z</time>
      </trkpt>
      <trkpt lat="47.65444" lon="6.79597">
        <ele>498.348</ele>
        <time>2012-09-30T11:04:02Z</time>
      </trkpt>
      <trkpt lat="47.65437" lon="6.79612">
        <ele>498.0432</ele>
        <time>2012-09-30T11:04:03Z</time>
      </trkpt>
      <trkpt lat="47.65431" lon="6.79627">
        <ele>497.4336</ele>
        <time>2012-09-30T11:04:06Z</time>
      </trkpt>
      <trkpt lat="47.65426" lon="6.79642">
        <ele>496.824</ele>
        <time>2012-09-30T11:04:07Z</time>
      </trkpt>
      <trkpt lat="47.6542" lon="6.79658">
        <ele>495.9096</ele>
        <time>2012-09-30T11:04:10Z</time>
      </trkpt>
      <trkpt lat="47.65414" lon="6.79675">
        <ele>494.9952</ele>
        <time>2012-09-30T11:04:12Z</time>
      </trkpt>
      <trkpt lat="47.65408" lon="6.79691">
        <ele>494.0808</ele>
        <time>2012-09-30T11:04:13Z</time>
      </trkpt>
      <trkpt lat="47.65402" lon="6.79709">
        <ele>493.1664</ele>
        <time>2012-09-30T11:04:16Z</time>
      </trkpt>
      <trkpt lat="47.65397" lon="6.79729">
        <ele>491.9472</ele>
        <time>2012-09-30T11:04:17Z</time>
      </trkpt>
      <trkpt lat="47.65391" lon="6.79749">
        <ele>490.728</ele>
        <time>2012-09-30T11:04:20Z</time>
      </trkpt>
      <trkpt lat="47.65383" lon="6.79768">
        <ele>489.204</ele>
        <time>2012-09-30T11:04:21Z</time>
      </trkpt>
      <trkpt lat="47.65375" lon="6.79788">
        <ele>487.9848</ele>
        <time>2012-09-30T11:04:24Z</time>
      </trkpt>
      <trkpt lat="47.65367" lon="6.79807">
        <ele>487.0704</ele>
        <time>2012-09-30T11:04:25Z</time>
      </trkpt>
      <trkpt lat="47.6536" lon="6.79825">
        <ele>486.7656</ele>
        <time>2012-09-30T11:04:28Z</time>
      </trkpt>
      <trkpt lat="47.65353" lon="6.79843">
        <ele>486.156</ele>
        <time>2012-09-30T11:04:29Z</time>
      </trkpt>
      <trkpt lat="47.65348" lon="6.79861">
        <ele>485.2416</ele>
        <time>2012-09-30T11:04:32Z</time>
      </trkpt>
      <trkpt lat="47.65344" lon="6.7988">
        <ele>484.3272</ele>
        <time>2012-09-30T11:04:33Z</time>
      </trkpt>
      <trkpt lat="47.65341" lon="6.799">
        <ele>483.7176</ele>
        <time>2012-09-30T11:04:36Z</time>
      </trkpt>
      <trkpt lat="47.65339" lon="6.79921">
        <ele>482.8032</ele>
        <time>2012-09-30T11:04:37Z</time>
      </trkpt>
      <trkpt lat="47.65337" lon="6.79943">
        <ele>481.584</ele>
        <time>2012-09-30T11:04:40Z</time>
      </trkpt>
      <trkpt lat="47.65336" lon="6.79965">
        <ele>480.06</ele>
        <time>2012-09-30T11:04:41Z</time>
      </trkpt>
      <trkpt lat="47.65336" lon="6.79988">
        <ele>479.1456</ele>
        <time>2012-09-30T11:04:44Z</time>
      </trkpt>
      <trkpt lat="47.65336" lon="6.80009">
        <ele>477.9264</ele>
        <time>2012-09-30T11:04:45Z</time>
      </trkpt>
      <trkpt lat="47.65337" lon="6.8003">
        <ele>477.9264</ele>
        <time>2012-09-30T11:04:48Z</time>
      </trkpt>
      <trkpt lat="47.65339" lon="6.8005">
        <ele>477.3168</ele>
        <time>2012-09-30T11:04:49Z</time>
      </trkpt>
      <trkpt lat="47.6534" lon="6.80071">
        <ele>477.3168</ele>
        <time>2012-09-30T11:04:52Z</time>
      </trkpt>
      <trkpt lat="47.65341" lon="6.80091">
        <ele>477.012</ele>
        <time>2012-09-30T11:04:53Z</time>
      </trkpt>
      <trkpt lat="47.65343" lon="6.80111">
        <ele>476.7072</ele>
        <time>2012-09-30T11:04:56Z</time>
      </trkpt>
      <trkpt lat="47.65346" lon="6.80131">
        <ele>476.4024</ele>
        <time>2012-09-30T11:04:57Z</time>
      </trkpt>
      <trkpt lat="47.65348" lon="6.80151">
        <ele>476.0976</ele>
        <time>2012-09-30T11:05:00Z</time>
      </trkpt>
      <trkpt lat="47.65352" lon="6.80171">
        <ele>476.0976</ele>
        <time>2012-09-30T11:05:01Z</time>
      </trkpt>
      <trkpt lat="47.65355" lon="6.80189">
        <ele>475.7928</ele>
        <time>2012-09-30T11:05:04Z</time>
      </trkpt>
      <trkpt lat="47.65359" lon="6.80205">
        <ele>475.1832</ele>
        <time>2012-09-30T11:05:06Z</time>
      </trkpt>
      <trkpt lat="47.65363" lon="6.80219">
        <ele>474.8784</ele>
        <time>2012-09-30T11:05:07Z</time>
      </trkpt>
      <trkpt lat="47.65366" lon="6.80235">
        <ele>474.2688</ele>
        <time>2012-09-30T11:05:10Z</time>
      </trkpt>
      <trkpt lat="47.65369" lon="6.80252">
        <ele>473.3544</ele>
        <time>2012-09-30T11:05:11Z</time>
      </trkpt>
      <trkpt lat="47.65372" lon="6.8027">
        <ele>473.0496</ele>
        <time>2012-09-30T11:05:14Z</time>
      </trkpt>
      <trkpt lat="47.65376" lon="6.80287">
        <ele>472.1352</ele>
        <time>2012-09-30T11:05:15Z</time>
      </trkpt>
      <trkpt lat="47.65379" lon="6.80303">
        <ele>471.2208</ele>
        <time>2012-09-30T11:05:18Z</time>
      </trkpt>
      <trkpt lat="47.65384" lon="6.80316">
        <ele>470.3064</ele>
        <time>2012-09-30T11:05:19Z</time>
      </trkpt>
      <trkpt lat="47.65388" lon="6.80326">
        <ele>469.6968</ele>
        <time>2012-09-30T11:05:22Z</time>
      </trkpt>
      <trkpt lat="47.65392" lon="6.80334">
        <ele>469.392</ele>
        <time>2012-09-30T11:05:23Z</time>
      </trkpt>
      <trkpt lat="47.65395" lon="6.8034">
        <ele>468.4776</ele>
        <time>2012-09-30T11:05:26Z</time>
      </trkpt>
      <trkpt lat="47.65398" lon="6.80346">
        <ele>468.4776</ele>
        <time>2012-09-30T11:05:27Z</time>
      </trkpt>
      <trkpt lat="47.65401" lon="6.80351">
        <ele>468.7824</ele>
        <time>2012-09-30T11:05:30Z</time>
      </trkpt>
      <trkpt lat="47.65402" lon="6.80356">
        <ele>468.7824</ele>
        <time>2012-09-30T11:05:31Z</time>
      </trkpt>
      <trkpt lat="47.65403" lon="6.80359">
        <ele>469.392</ele>
        <time>2012-09-30T11:05:34Z</time>
      </trkpt>
      <trkpt lat="47.65404" lon="6.80361">
        <ele>470.6112</ele>
        <time>2012-09-30T11:05:35Z</time>
      </trkpt>
      <trkpt lat="47.65405" lon="6.80364">
        <ele>472.1352</ele>
        <time>2012-09-30T11:05:38Z</time>
      </trkpt>
      <trkpt lat="47.65406" lon="6.80367">
        <ele>472.1352</ele>
        <time>2012-09-30T11:05:39Z</time>
      </trkpt>
      <trkpt lat="47.65406" lon="6.80371">
        <ele>473.6592</ele>
        <time>2012-09-30T11:05:50Z</time>
      </trkpt>
      <trkpt lat="47.65407" lon="6.80373">
        <ele>473.6592</ele>
        <time>2012-09-30T11:05:51Z</time>
      </trkpt>
      <trkpt lat="47.65408" lon="6.80377">
        <ele>475.488</ele>
        <time>2012-09-30T11:05:58Z</time>
      </trkpt>
      <trkpt lat="47.6541" lon="6.80379">
        <ele>477.012</ele>
        <time>2012-09-30T11:06:00Z</time>
      </trkpt>
      <trkpt lat="47.65411" lon="6.80381">
        <ele>477.3168</ele>
        <time>2012-09-30T11:06:01Z</time>
      </trkpt>
      <trkpt lat="47.65412" lon="6.80384">
        <ele>477.9264</ele>
        <time>2012-09-30T11:06:04Z</time>
      </trkpt>
      <trkpt lat="47.65414" lon="6.80387">
        <ele>478.536</ele>
        <time>2012-09-30T11:06:06Z</time>
      </trkpt>
      <trkpt lat="47.65415" lon="6.80389">
        <ele>479.7552</ele>
        <time>2012-09-30T11:06:09Z</time>
      </trkpt>
      <trkpt lat="47.65415" lon="6.80391">
        <ele>480.9744</ele>
        <time>2012-09-30T11:06:10Z</time>
      </trkpt>
      <trkpt lat="47.65416" lon="6.80393">
        <ele>481.2792</ele>
        <time>2012-09-30T11:06:13Z</time>
      </trkpt>
      <trkpt lat="47.65418" lon="6.80396">
        <ele>483.4128</ele>
        <time>2012-09-30T11:06:17Z</time>
      </trkpt>
      <trkpt lat="47.65419" lon="6.80398">
        <ele>485.2416</ele>
        <time>2012-09-30T11:06:21Z</time>
      </trkpt>
      <trkpt lat="47.65421" lon="6.80398">
        <ele>486.156</ele>
        <time>2012-09-30T11:06:22Z</time>
      </trkpt>
      <trkpt lat="47.65429" lon="6.80404">
        <ele>485.8512</ele>
        <time>2012-09-30T11:06:36Z</time>
      </trkpt>
      <trkpt lat="47.65432" lon="6.80405">
        <ele>487.9848</ele>
        <time>2012-09-30T11:06:43Z</time>
      </trkpt>
      <trkpt lat="47.65434" lon="6.80404">
        <ele>488.5944</ele>
        <time>2012-09-30T11:06:44Z</time>
      </trkpt>
      <trkpt lat="47.6544" lon="6.80406">
        <ele>490.728</ele>
        <time>2012-09-30T11:06:54Z</time>
      </trkpt>
      <trkpt lat="47.65442" lon="6.80408">
        <ele>491.3376</ele>
        <time>2012-09-30T11:06:55Z</time>
      </trkpt>
      <trkpt lat="47.65443" lon="6.80411">
        <ele>492.252</ele>
        <time>2012-09-30T11:06:58Z</time>
      </trkpt>
      <trkpt lat="47.65443" lon="6.80413">
        <ele>492.8616</ele>
        <time>2012-09-30T11:06:59Z</time>
      </trkpt>
      <trkpt lat="47.65444" lon="6.80414">
        <ele>492.252</ele>
        <time>2012-09-30T11:07:03Z</time>
      </trkpt>
      <trkpt lat="47.65446" lon="6.80414">
        <ele>492.252</ele>
        <time>2012-09-30T11:07:04Z</time>
      </trkpt>
      <trkpt lat="47.65451" lon="6.8042">
        <ele>491.0328</ele>
        <time>2012-09-30T11:07:22Z</time>
      </trkpt>
      <trkpt lat="47.65452" lon="6.80422">
        <ele>489.5088</ele>
        <time>2012-09-30T11:07:25Z</time>
      </trkpt>
      <trkpt lat="47.65452" lon="6.80425">
        <ele>488.5944</ele>
        <time>2012-09-30T11:07:26Z</time>
      </trkpt>
      <trkpt lat="47.65453" lon="6.80429">
        <ele>487.3752</ele>
        <time>2012-09-30T11:07:29Z</time>
      </trkpt>
      <trkpt lat="47.65452" lon="6.80432">
        <ele>486.4608</ele>
        <time>2012-09-30T11:07:30Z</time>
      </trkpt>
      <trkpt lat="47.65453" lon="6.80436">
        <ele>485.5464</ele>
        <time>2012-09-30T11:07:33Z</time>
      </trkpt>
      <trkpt lat="47.65453" lon="6.80439">
        <ele>484.0224</ele>
        <time>2012-09-30T11:07:38Z</time>
      </trkpt>
      <trkpt lat="47.65453" lon="6.80442">
        <ele>483.108</ele>
        <time>2012-09-30T11:07:39Z</time>
      </trkpt>
      <trkpt lat="47.65452" lon="6.80446">
        <ele>483.108</ele>
        <time>2012-09-30T11:07:42Z</time>
      </trkpt>
      <trkpt lat="47.65452" lon="6.80453">
        <ele>483.108</ele>
        <time>2012-09-30T11:07:43Z</time>
      </trkpt>
      <trkpt lat="47.65452" lon="6.80459">
        <ele>484.0224</ele>
        <time>2012-09-30T11:07:46Z</time>
      </trkpt>
      <trkpt lat="47.65453" lon="6.80466">
        <ele>484.0224</ele>
        <time>2012-09-30T11:07:48Z</time>
      </trkpt>
      <trkpt lat="47.65453" lon="6.80471">
        <ele>485.2416</ele>
        <time>2012-09-30T11:07:49Z</time>
      </trkpt>
      <trkpt lat="47.65454" lon="6.80477">
        <ele>485.2416</ele>
        <time>2012-09-30T11:07:52Z</time>
      </trkpt>
      <trkpt lat="47.65455" lon="6.80482">
        <ele>485.2416</ele>
        <time>2012-09-30T11:07:53Z</time>
      </trkpt>
      <trkpt lat="47.65456" lon="6.80486">
        <ele>484.9368</ele>
        <time>2012-09-30T11:07:56Z</time>
      </trkpt>
      <trkpt lat="47.65456" lon="6.80492">
        <ele>484.632</ele>
        <time>2012-09-30T11:07:57Z</time>
      </trkpt>
      <trkpt lat="47.65453" lon="6.80497">
        <ele>484.632</ele>
        <time>2012-09-30T11:08:00Z</time>
      </trkpt>
      <trkpt lat="47.65451" lon="6.80502">
        <ele>484.632</ele>
        <time>2012-09-30T11:08:01Z</time>
      </trkpt>
      <trkpt lat="47.65448" lon="6.80508">
        <ele>483.7176</ele>
        <time>2012-09-30T11:08:04Z</time>
      </trkpt>
      <trkpt lat="47.65446" lon="6.80513">
        <ele>482.8032</ele>
        <time>2012-09-30T11:08:05Z</time>
      </trkpt>
      <trkpt lat="47.65445" lon="6.80517">
        <ele>482.4984</ele>
        <time>2012-09-30T11:08:08Z</time>
      </trkpt>
      <trkpt lat="47.65443" lon="6.8052">
        <ele>480.9744</ele>
        <time>2012-09-30T11:08:09Z</time>
      </trkpt>
      <trkpt lat="47.65442" lon="6.80522">
        <ele>483.108</ele>
        <time>2012-09-30T11:08:13Z</time>
      </trkpt>
      <trkpt lat="47.6544" lon="6.80524">
        <ele>482.8032</ele>
        <time>2012-09-30T11:08:15Z</time>
      </trkpt>
      <trkpt lat="47.65438" lon="6.80528">
        <ele>483.108</ele>
        <time>2012-09-30T11:08:16Z</time>
      </trkpt>
      <trkpt lat="47.65437" lon="6.80532">
        <ele>484.0224</ele>
        <time>2012-09-30T11:08:19Z</time>
      </trkpt>
      <trkpt lat="47.65436" lon="6.80536">
        <ele>484.632</ele>
        <time>2012-09-30T11:08:20Z</time>
      </trkpt>
      <trkpt lat="47.65435" lon="6.8054">
        <ele>483.7176</ele>
        <time>2012-09-30T11:08:23Z</time>
      </trkpt>
      <trkpt lat="47.65435" lon="6.80544">
        <ele>482.8032</ele>
        <time>2012-09-30T11:08:24Z</time>
      </trkpt>
      <trkpt lat="47.65434" lon="6.80549">
        <ele>482.4984</ele>
        <time>2012-09-30T11:08:27Z</time>
      </trkpt>
      <trkpt lat="47.65432" lon="6.80553">
        <ele>484.0224</ele>
        <time>2012-09-30T11:08:31Z</time>
      </trkpt>
      <trkpt lat="47.65431" lon="6.80554">
        <ele>487.0704</ele>
        <time>2012-09-30T11:08:32Z</time>
      </trkpt>
      <trkpt lat="47.6543" lon="6.80556">
        <ele>489.204</ele>
        <time>2012-09-30T11:08:35Z</time>
      </trkpt>
      <trkpt lat="47.6543" lon="6.80559">
        <ele>491.0328</ele>
        <time>2012-09-30T11:08:36Z</time>
      </trkpt>
      <trkpt lat="47.65429" lon="6.80561">
        <ele>493.1664</ele>
        <time>2012-09-30T11:08:39Z</time>
      </trkpt>
      <trkpt lat="47.65429" lon="6.80564">
        <ele>494.9952</ele>
        <time>2012-09-30T11:08:40Z</time>
      </trkpt>
      <trkpt lat="47.65429" lon="6.8057">
        <ele>494.6904</ele>
        <time>2012-09-30T11:08:46Z</time>
      </trkpt>
      <trkpt lat="47.65428" lon="6.80575">
        <ele>494.0808</ele>
        <time>2012-09-30T11:08:47Z</time>
      </trkpt>
      <trkpt lat="47.65429" lon="6.8058">
        <ele>494.9952</ele>
        <time>2012-09-30T11:08:50Z</time>
      </trkpt>
      <trkpt lat="47.65429" lon="6.80586">
        <ele>495.9096</ele>
        <time>2012-09-30T11:08:51Z</time>
      </trkpt>
      <trkpt lat="47.65429" lon="6.80591">
        <ele>496.824</ele>
        <time>2012-09-30T11:08:54Z</time>
      </trkpt>
      <trkpt lat="47.6543" lon="6.80596">
        <ele>497.7384</ele>
        <time>2012-09-30T11:08:55Z</time>
      </trkpt>
      <trkpt lat="47.6543" lon="6.80601">
        <ele>498.348</ele>
        <time>2012-09-30T11:08:58Z</time>
      </trkpt>
      <trkpt lat="47.65431" lon="6.80607">
        <ele>498.6528</ele>
        <time>2012-09-30T11:08:59Z</time>
      </trkpt>
      <trkpt lat="47.65432" lon="6.80612">
        <ele>499.2624</ele>
        <time>2012-09-30T11:09:02Z</time>
      </trkpt>
      <trkpt lat="47.65434" lon="6.80618">
        <ele>498.0432</ele>
        <time>2012-09-30T11:09:03Z</time>
      </trkpt>
      <trkpt lat="47.65435" lon="6.80622">
        <ele>497.4336</ele>
        <time>2012-09-30T11:09:06Z</time>
      </trkpt>
      <trkpt lat="47.65437" lon="6.80626">
        <ele>497.7384</ele>
        <time>2012-09-30T11:09:07Z</time>
      </trkpt>
      <trkpt lat="47.65437" lon="6.8063">
        <ele>497.7384</ele>
        <time>2012-09-30T11:09:10Z</time>
      </trkpt>
      <trkpt lat="47.65438" lon="6.80636">
        <ele>497.4336</ele>
        <time>2012-09-30T11:09:11Z</time>
      </trkpt>
      <trkpt lat="47.65438" lon="6.80641">
        <ele>497.4336</ele>
        <time>2012-09-30T11:09:14Z</time>
      </trkpt>
      <trkpt lat="47.65439" lon="6.80646">
        <ele>498.348</ele>
        <time>2012-09-30T11:09:15Z</time>
      </trkpt>
      <trkpt lat="47.65439" lon="6.80652">
        <ele>498.6528</ele>
        <time>2012-09-30T11:09:18Z</time>
      </trkpt>
      <trkpt lat="47.6544" lon="6.80657">
        <ele>499.5672</ele>
        <time>2012-09-30T11:09:19Z</time>
      </trkpt>
      <trkpt lat="47.6544" lon="6.80662">
        <ele>500.1768</ele>
        <time>2012-09-30T11:09:22Z</time>
      </trkpt>
      <trkpt lat="47.6544" lon="6.80666">
        <ele>500.4816</ele>
        <time>2012-09-30T11:09:23Z</time>
      </trkpt>
      <trkpt lat="47.65441" lon="6.80672">
        <ele>500.7864</ele>
        <time>2012-09-30T11:09:26Z</time>
      </trkpt>
      <trkpt lat="47.65442" lon="6.80677">
        <ele>500.7864</ele>
        <time>2012-09-30T11:09:27Z</time>
      </trkpt>
      <trkpt lat="47.65443" lon="6.80682">
        <ele>500.1768</ele>
        <time>2012-09-30T11:09:30Z</time>
      </trkpt>
      <trkpt lat="47.65443" lon="6.80687">
        <ele>500.1768</ele>
        <time>2012-09-30T11:09:31Z</time>
      </trkpt>
      <trkpt lat="47.65445" lon="6.80693">
        <ele>499.872</ele>
        <time>2012-09-30T11:09:34Z</time>
      </trkpt>
      <trkpt lat="47.65446" lon="6.80698">
        <ele>499.2624</ele>
        <time>2012-09-30T11:09:35Z</time>
      </trkpt>
      <trkpt lat="47.65448" lon="6.80703">
        <ele>499.2624</ele>
        <time>2012-09-30T11:09:37Z</time>
      </trkpt>
      <trkpt lat="47.65449" lon="6.80709">
        <ele>498.9576</ele>
        <time>2012-09-30T11:09:40Z</time>
      </trkpt>
      <trkpt lat="47.6545" lon="6.80714">
        <ele>498.9576</ele>
        <time>2012-09-30T11:09:41Z</time>
      </trkpt>
      <trkpt lat="47.65451" lon="6.80719">
        <ele>498.348</ele>
        <time>2012-09-30T11:09:44Z</time>
      </trkpt>
      <trkpt lat="47.65453" lon="6.80725">
        <ele>497.1288</ele>
        <time>2012-09-30T11:09:45Z</time>
      </trkpt>
      <trkpt lat="47.65454" lon="6.8073">
        <ele>496.5192</ele>
        <time>2012-09-30T11:09:48Z</time>
      </trkpt>
      <trkpt lat="47.65454" lon="6.80735">
        <ele>496.2144</ele>
        <time>2012-09-30T11:09:49Z</time>
      </trkpt>
      <trkpt lat="47.65454" lon="6.8074">
        <ele>496.2144</ele>
        <time>2012-09-30T11:09:52Z</time>
      </trkpt>
      <trkpt lat="47.65453" lon="6.80746">
        <ele>495.9096</ele>
        <time>2012-09-30T11:09:53Z</time>
      </trkpt>
      <trkpt lat="47.65452" lon="6.80752">
        <ele>496.2144</ele>
        <time>2012-09-30T11:09:56Z</time>
      </trkpt>
      <trkpt lat="47.6545" lon="6.80759">
        <ele>498.6528</ele>
        <time>2012-09-30T11:09:57Z</time>
      </trkpt>
      <trkpt lat="47.65449" lon="6.80764">
        <ele>499.872</ele>
        <time>2012-09-30T11:10:00Z</time>
      </trkpt>
      <trkpt lat="47.65448" lon="6.80769">
        <ele>499.5672</ele>
        <time>2012-09-30T11:10:01Z</time>
      </trkpt>
      <trkpt lat="47.65447" lon="6.80775">
        <ele>500.4816</ele>
        <time>2012-09-30T11:10:04Z</time>
      </trkpt>
      <trkpt lat="47.65445" lon="6.80781">
        <ele>502.0056</ele>
        <time>2012-09-30T11:10:05Z</time>
      </trkpt>
      <trkpt lat="47.65445" lon="6.80787">
        <ele>503.5296</ele>
        <time>2012-09-30T11:10:08Z</time>
      </trkpt>
      <trkpt lat="47.65446" lon="6.80794">
        <ele>503.8344</ele>
        <time>2012-09-30T11:10:09Z</time>
      </trkpt>
      <trkpt lat="47.65447" lon="6.808">
        <ele>504.1392</ele>
        <time>2012-09-30T11:10:12Z</time>
      </trkpt>
      <trkpt lat="47.65448" lon="6.80806">
        <ele>503.5296</ele>
        <time>2012-09-30T11:10:13Z</time>
      </trkpt>
      <trkpt lat="47.65449" lon="6.80811">
        <ele>504.7488</ele>
        <time>2012-09-30T11:10:16Z</time>
      </trkpt>
      <trkpt lat="47.6545" lon="6.80817">
        <ele>505.3584</ele>
        <time>2012-09-30T11:10:17Z</time>
      </trkpt>
      <trkpt lat="47.6545" lon="6.80823">
        <ele>505.6632</ele>
        <time>2012-09-30T11:10:20Z</time>
      </trkpt>
      <trkpt lat="47.65452" lon="6.80829">
        <ele>505.0536</ele>
        <time>2012-09-30T11:10:21Z</time>
      </trkpt>
      <trkpt lat="47.65452" lon="6.80835">
        <ele>506.5776</ele>
        <time>2012-09-30T11:10:24Z</time>
      </trkpt>
      <trkpt lat="47.65452" lon="6.8084">
        <ele>507.1872</ele>
        <time>2012-09-30T11:10:25Z</time>
      </trkpt>
      <trkpt lat="47.65452" lon="6.80847">
        <ele>508.7112</ele>
        <time>2012-09-30T11:10:28Z</time>
      </trkpt>
      <trkpt lat="47.65453" lon="6.80853">
        <ele>509.3208</ele>
        <time>2012-09-30T11:10:29Z</time>
      </trkpt>
      <trkpt lat="47.65453" lon="6.8086">
        <ele>509.6256</ele>
        <time>2012-09-30T11:10:31Z</time>
      </trkpt>
      <trkpt lat="47.65453" lon="6.80866">
        <ele>509.6256</ele>
        <time>2012-09-30T11:10:34Z</time>
      </trkpt>
      <trkpt lat="47.65452" lon="6.80871">
        <ele>510.54</ele>
        <time>2012-09-30T11:10:35Z</time>
      </trkpt>
      <trkpt lat="47.65452" lon="6.80877">
        <ele>511.1496</ele>
        <time>2012-09-30T11:10:38Z</time>
      </trkpt>
      <trkpt lat="47.65452" lon="6.80883">
        <ele>512.064</ele>
        <time>2012-09-30T11:10:39Z</time>
      </trkpt>
      <trkpt lat="47.65452" lon="6.80889">
        <ele>511.7592</ele>
        <time>2012-09-30T11:10:42Z</time>
      </trkpt>
      <trkpt lat="47.65451" lon="6.80894">
        <ele>511.1496</ele>
        <time>2012-09-30T11:10:43Z</time>
      </trkpt>
      <trkpt lat="47.6545" lon="6.80899">
        <ele>510.8448</ele>
        <time>2012-09-30T11:10:46Z</time>
      </trkpt>
      <trkpt lat="47.65449" lon="6.80903">
        <ele>509.6256</ele>
        <time>2012-09-30T11:10:47Z</time>
      </trkpt>
      <trkpt lat="47.65446" lon="6.80906">
        <ele>508.1016</ele>
        <time>2012-09-30T11:10:50Z</time>
      </trkpt>
      <trkpt lat="47.65441" lon="6.8091">
        <ele>507.492</ele>
        <time>2012-09-30T11:10:51Z</time>
      </trkpt>
      <trkpt lat="47.65434" lon="6.80916">
        <ele>507.1872</ele>
        <time>2012-09-30T11:10:54Z</time>
      </trkpt>
      <trkpt lat="47.65425" lon="6.80922">
        <ele>505.0536</ele>
        <time>2012-09-30T11:10:55Z</time>
      </trkpt>
      <trkpt lat="47.65411" lon="6.80927">
        <ele>503.5296</ele>
        <time>2012-09-30T11:10:58Z</time>
      </trkpt>
      <trkpt lat="47.65397" lon="6.8093">
        <ele>502.6152</ele>
        <time>2012-09-30T11:10:59Z</time>
      </trkpt>
      <trkpt lat="47.65383" lon="6.80932">
        <ele>501.0912</ele>
        <time>2012-09-30T11:11:02Z</time>
      </trkpt>
      <trkpt lat="47.6537" lon="6.80932">
        <ele>499.5672</ele>
        <time>2012-09-30T11:11:03Z</time>
      </trkpt>
      <trkpt lat="47.65359" lon="6.80936">
        <ele>498.0432</ele>
        <time>2012-09-30T11:11:06Z</time>
      </trkpt>
      <trkpt lat="47.65347" lon="6.80943">
        <ele>494.0808</ele>
        <time>2012-09-30T11:11:07Z</time>
      </trkpt>
      <trkpt lat="47.65337" lon="6.80956">
        <ele>488.8992</ele>
        <time>2012-09-30T11:11:10Z</time>
      </trkpt>
      <trkpt lat="47.6533" lon="6.80973">
        <ele>484.3272</ele>
        <time>2012-09-30T11:11:11Z</time>
      </trkpt>
      <trkpt lat="47.65324" lon="6.80993">
        <ele>480.6696</ele>
        <time>2012-09-30T11:11:14Z</time>
      </trkpt>
      <trkpt lat="47.6532" lon="6.81014">
        <ele>479.1456</ele>
        <time>2012-09-30T11:11:15Z</time>
      </trkpt>
      <trkpt lat="47.65317" lon="6.81035">
        <ele>476.4024</ele>
        <time>2012-09-30T11:11:18Z</time>
      </trkpt>
      <trkpt lat="47.65311" lon="6.81056">
        <ele>474.2688</ele>
        <time>2012-09-30T11:11:19Z</time>
      </trkpt>
      <trkpt lat="47.65303" lon="6.81075">
        <ele>471.5256</ele>
        <time>2012-09-30T11:11:22Z</time>
      </trkpt>
      <trkpt lat="47.65292" lon="6.81094">
        <ele>469.392</ele>
        <time>2012-09-30T11:11:23Z</time>
      </trkpt>
      <trkpt lat="47.65283" lon="6.81111">
        <ele>464.5152</ele>
        <time>2012-09-30T11:11:25Z</time>
      </trkpt>
      <trkpt lat="47.65275" lon="6.81133">
        <ele>461.772</ele>
        <time>2012-09-30T11:11:28Z</time>
      </trkpt>
      <trkpt lat="47.65268" lon="6.81157">
        <ele>461.4672</ele>
        <time>2012-09-30T11:11:29Z</time>
      </trkpt>
      <trkpt lat="47.65263" lon="6.81184">
        <ele>460.5528</ele>
        <time>2012-09-30T11:11:32Z</time>
      </trkpt>
      <trkpt lat="47.65261" lon="6.81209">
        <ele>461.1624</ele>
        <time>2012-09-30T11:11:33Z</time>
      </trkpt>
      <trkpt lat="47.65261" lon="6.81232">
        <ele>462.0768</ele>
        <time>2012-09-30T11:11:36Z</time>
      </trkpt>
      <trkpt lat="47.65262" lon="6.81253">
        <ele>461.4672</ele>
        <time>2012-09-30T11:11:37Z</time>
      </trkpt>
      <trkpt lat="47.65262" lon="6.81276">
        <ele>460.8576</ele>
        <time>2012-09-30T11:11:40Z</time>
      </trkpt>
      <trkpt lat="47.65265" lon="6.81301">
        <ele>460.5528</ele>
        <time>2012-09-30T11:11:41Z</time>
      </trkpt>
      <trkpt lat="47.65271" lon="6.81324">
        <ele>459.3336</ele>
        <time>2012-09-30T11:11:44Z</time>
      </trkpt>
      <trkpt lat="47.65278" lon="6.81347">
        <ele>459.0288</ele>
        <time>2012-09-30T11:11:45Z</time>
      </trkpt>
      <trkpt lat="47.65282" lon="6.8137">
        <ele>458.724</ele>
        <time>2012-09-30T11:11:48Z</time>
      </trkpt>
      <trkpt lat="47.65285" lon="6.81391">
        <ele>459.6384</ele>
        <time>2012-09-30T11:11:49Z</time>
      </trkpt>
      <trkpt lat="47.65286" lon="6.81413">
        <ele>459.3336</ele>
        <time>2012-09-30T11:11:52Z</time>
      </trkpt>
      <trkpt lat="47.6529" lon="6.81435">
        <ele>459.3336</ele>
        <time>2012-09-30T11:11:53Z</time>
      </trkpt>
      <trkpt lat="47.65293" lon="6.81456">
        <ele>458.724</ele>
        <time>2012-09-30T11:11:56Z</time>
      </trkpt>
      <trkpt lat="47.65296" lon="6.81477">
        <ele>458.724</ele>
        <time>2012-09-30T11:11:57Z</time>
      </trkpt>
      <trkpt lat="47.65296" lon="6.815">
        <ele>457.8096</ele>
        <time>2012-09-30T11:12:00Z</time>
      </trkpt>
      <trkpt lat="47.65297" lon="6.81523">
        <ele>457.8096</ele>
        <time>2012-09-30T11:12:01Z</time>
      </trkpt>
      <trkpt lat="47.65298" lon="6.81547">
        <ele>457.8096</ele>
        <time>2012-09-30T11:12:04Z</time>
      </trkpt>
      <trkpt lat="47.653" lon="6.81572">
        <ele>458.1144</ele>
        <time>2012-09-30T11:12:05Z</time>
      </trkpt>
      <trkpt lat="47.65304" lon="6.81596">
        <ele>457.8096</ele>
        <time>2012-09-30T11:12:08Z</time>
      </trkpt>
      <trkpt lat="47.65311" lon="6.81616">
        <ele>457.5048</ele>
        <time>2012-09-30T11:12:09Z</time>
      </trkpt>
      <trkpt lat="47.65317" lon="6.81631">
        <ele>457.5048</ele>
        <time>2012-09-30T11:12:12Z</time>
      </trkpt>
      <trkpt lat="47.65319" lon="6.81634">
        <ele>457.8096</ele>
        <time>2012-09-30T11:12:13Z</time>
      </trkpt>
      <trkpt lat="47.65318" lon="6.81633">
        <ele>458.724</ele>
        <time>2012-09-30T11:12:17Z</time>
      </trkpt>
      <trkpt lat="47.65315" lon="6.8163">
        <ele>458.724</ele>
        <time>2012-09-30T11:12:19Z</time>
      </trkpt>
      <trkpt lat="47.65312" lon="6.81627">
        <ele>458.1144</ele>
        <time>2012-09-30T11:12:22Z</time>
      </trkpt>
      <trkpt lat="47.6531" lon="6.81632">
        <ele>458.1144</ele>
        <time>2012-09-30T11:12:23Z</time>
      </trkpt>
      <trkpt lat="47.65307" lon="6.81643">
        <ele>456.2856</ele>
        <time>2012-09-30T11:12:26Z</time>
      </trkpt>
      <trkpt lat="47.65304" lon="6.8166">
        <ele>455.676</ele>
        <time>2012-09-30T11:12:27Z</time>
      </trkpt>
      <trkpt lat="47.65301" lon="6.81674">
        <ele>455.676</ele>
        <time>2012-09-30T11:12:30Z</time>
      </trkpt>
      <trkpt lat="47.65298" lon="6.81686">
        <ele>455.676</ele>
        <time>2012-09-30T11:12:31Z</time>
      </trkpt>
      <trkpt lat="47.65296" lon="6.817">
        <ele>455.676</ele>
        <time>2012-09-30T11:12:34Z</time>
      </trkpt>
      <trkpt lat="47.65292" lon="6.81716">
        <ele>455.676</ele>
        <time>2012-09-30T11:12:35Z</time>
      </trkpt>
      <trkpt lat="47.65288" lon="6.81731">
        <ele>455.9808</ele>
        <time>2012-09-30T11:12:38Z</time>
      </trkpt>
      <trkpt lat="47.65285" lon="6.81748">
        <ele>454.4568</ele>
        <time>2012-09-30T11:12:39Z</time>
      </trkpt>
      <trkpt lat="47.65277" lon="6.81761">
        <ele>453.2376</ele>
        <time>2012-09-30T11:12:42Z</time>
      </trkpt>
      <trkpt lat="47.65268" lon="6.81772">
        <ele>452.628</ele>
        <time>2012-09-30T11:12:43Z</time>
      </trkpt>
      <trkpt lat="47.65261" lon="6.81787">
        <ele>451.104</ele>
        <time>2012-09-30T11:12:46Z</time>
      </trkpt>
      <trkpt lat="47.65257" lon="6.818">
        <ele>448.9704</ele>
        <time>2012-09-30T11:12:47Z</time>
      </trkpt>
      <trkpt lat="47.65257" lon="6.81813">
        <ele>448.3608</ele>
        <time>2012-09-30T11:12:50Z</time>
      </trkpt>
      <trkpt lat="47.65263" lon="6.81849">
        <ele>445.6176</ele>
        <time>2012-09-30T11:12:57Z</time>
      </trkpt>
      <trkpt lat="47.65264" lon="6.81856">
        <ele>446.2272</ele>
        <time>2012-09-30T11:12:58Z</time>
      </trkpt>
      <trkpt lat="47.65266" lon="6.8187">
        <ele>446.8368</ele>
        <time>2012-09-30T11:12:59Z</time>
      </trkpt>
      <trkpt lat="47.65268" lon="6.81885">
        <ele>446.8368</ele>
        <time>2012-09-30T11:13:02Z</time>
      </trkpt>
      <trkpt lat="47.65267" lon="6.81901">
        <ele>447.1416</ele>
        <time>2012-09-30T11:13:03Z</time>
      </trkpt>
      <trkpt lat="47.65265" lon="6.81919">
        <ele>446.532</ele>
        <time>2012-09-30T11:13:06Z</time>
      </trkpt>
      <trkpt lat="47.65264" lon="6.81939">
        <ele>445.008</ele>
        <time>2012-09-30T11:13:07Z</time>
      </trkpt>
      <trkpt lat="47.65265" lon="6.81958">
        <ele>444.3984</ele>
        <time>2012-09-30T11:13:10Z</time>
      </trkpt>
      <trkpt lat="47.65261" lon="6.8198">
        <ele>443.1792</ele>
        <time>2012-09-30T11:13:12Z</time>
      </trkpt>
      <trkpt lat="47.65258" lon="6.82002">
        <ele>441.3504</ele>
        <time>2012-09-30T11:13:13Z</time>
      </trkpt>
      <trkpt lat="47.65257" lon="6.82026">
        <ele>439.2168</ele>
        <time>2012-09-30T11:13:16Z</time>
      </trkpt>
      <trkpt lat="47.65259" lon="6.82047">
        <ele>438.6072</ele>
        <time>2012-09-30T11:13:17Z</time>
      </trkpt>
      <trkpt lat="47.65266" lon="6.82056">
        <ele>438.6072</ele>
        <time>2012-09-30T11:13:20Z</time>
      </trkpt>
      <trkpt lat="47.65267" lon="6.82058">
        <ele>439.2168</ele>
        <time>2012-09-30T11:13:21Z</time>
      </trkpt>
      <trkpt lat="47.65269" lon="6.82063">
        <ele>438.912</ele>
        <time>2012-09-30T11:13:24Z</time>
      </trkpt>
      <trkpt lat="47.65273" lon="6.82069">
        <ele>437.6928</ele>
        <time>2012-09-30T11:13:25Z</time>
      </trkpt>
      <trkpt lat="47.65275" lon="6.82072">
        <ele>437.388</ele>
        <time>2012-09-30T11:13:28Z</time>
      </trkpt>
      <trkpt lat="47.65276" lon="6.82076">
        <ele>437.388</ele>
        <time>2012-09-30T11:13:30Z</time>
      </trkpt>
      <trkpt lat="47.65277" lon="6.8208">
        <ele>437.0832</ele>
        <time>2012-09-30T11:13:33Z</time>
      </trkpt>
      <trkpt lat="47.65279" lon="6.82085">
        <ele>436.4736</ele>
        <time>2012-09-30T11:13:34Z</time>
      </trkpt>
      <trkpt lat="47.65282" lon="6.82093">
        <ele>435.864</ele>
        <time>2012-09-30T11:13:37Z</time>
      </trkpt>
      <trkpt lat="47.65286" lon="6.82101">
        <ele>435.5592</ele>
        <time>2012-09-30T11:13:39Z</time>
      </trkpt>
      <trkpt lat="47.65291" lon="6.8211">
        <ele>434.6448</ele>
        <time>2012-09-30T11:13:40Z</time>
      </trkpt>
      <trkpt lat="47.65296" lon="6.8212">
        <ele>434.34</ele>
        <time>2012-09-30T11:13:43Z</time>
      </trkpt>
      <trkpt lat="47.65303" lon="6.82132">
        <ele>432.816</ele>
        <time>2012-09-30T11:13:44Z</time>
      </trkpt>
      <trkpt lat="47.6531" lon="6.82148">
        <ele>433.1208</ele>
        <time>2012-09-30T11:13:47Z</time>
      </trkpt>
      <trkpt lat="47.65317" lon="6.82163">
        <ele>432.816</ele>
        <time>2012-09-30T11:13:48Z</time>
      </trkpt>
      <trkpt lat="47.65325" lon="6.82177">
        <ele>431.9016</ele>
        <time>2012-09-30T11:13:51Z</time>
      </trkpt>
      <trkpt lat="47.65332" lon="6.82192">
        <ele>429.768</ele>
        <time>2012-09-30T11:13:52Z</time>
      </trkpt>
      <trkpt lat="47.65339" lon="6.82206">
        <ele>429.1584</ele>
        <time>2012-09-30T11:13:55Z</time>
      </trkpt>
      <trkpt lat="47.65344" lon="6.82221">
        <ele>428.8536</ele>
        <time>2012-09-30T11:13:56Z</time>
      </trkpt>
      <trkpt lat="47.65345" lon="6.82239">
        <ele>428.8536</ele>
        <time>2012-09-30T11:13:59Z</time>
      </trkpt>
      <trkpt lat="47.65345" lon="6.8226">
        <ele>427.0248</ele>
        <time>2012-09-30T11:14:00Z</time>
      </trkpt>
      <trkpt lat="47.65343" lon="6.82281">
        <ele>425.8056</ele>
        <time>2012-09-30T11:14:03Z</time>
      </trkpt>
      <trkpt lat="47.65341" lon="6.82302">
        <ele>423.9768</ele>
        <time>2012-09-30T11:14:04Z</time>
      </trkpt>
      <trkpt lat="47.65336" lon="6.82322">
        <ele>422.4528</ele>
        <time>2012-09-30T11:14:07Z</time>
      </trkpt>
      <trkpt lat="47.65333" lon="6.82343">
        <ele>419.7096</ele>
        <time>2012-09-30T11:14:08Z</time>
      </trkpt>
      <trkpt lat="47.6533" lon="6.8236">
        <ele>416.6616</ele>
        <time>2012-09-30T11:14:11Z</time>
      </trkpt>
      <trkpt lat="47.65329" lon="6.82373">
        <ele>414.8328</ele>
        <time>2012-09-30T11:14:12Z</time>
      </trkpt>
      <trkpt lat="47.65332" lon="6.82387">
        <ele>411.1752</ele>
        <time>2012-09-30T11:14:15Z</time>
      </trkpt>
      <trkpt lat="47.65337" lon="6.82403">
        <ele>408.7368</ele>
        <time>2012-09-30T11:14:16Z</time>
      </trkpt>
      <trkpt lat="47.65342" lon="6.8241">
        <ele>408.1272</ele>
        <time>2012-09-30T11:14:19Z</time>
      </trkpt>
      <trkpt lat="47.65349" lon="6.82409">
        <ele>408.7368</ele>
        <time>2012-09-30T11:14:20Z</time>
      </trkpt>
      <trkpt lat="47.65358" lon="6.82407">
        <ele>409.3464</ele>
        <time>2012-09-30T11:14:23Z</time>
      </trkpt>
      <trkpt lat="47.6537" lon="6.82408">
        <ele>410.2608</ele>
        <time>2012-09-30T11:14:24Z</time>
      </trkpt>
      <trkpt lat="47.65381" lon="6.82411">
        <ele>410.8704</ele>
        <time>2012-09-30T11:14:27Z</time>
      </trkpt>
      <trkpt lat="47.6539" lon="6.82416">
        <ele>411.1752</ele>
        <time>2012-09-30T11:14:28Z</time>
      </trkpt>
      <trkpt lat="47.65398" lon="6.82421">
        <ele>411.1752</ele>
        <time>2012-09-30T11:14:31Z</time>
      </trkpt>
      <trkpt lat="47.65406" lon="6.82429">
        <ele>411.48</ele>
        <time>2012-09-30T11:14:33Z</time>
      </trkpt>
      <trkpt lat="47.65414" lon="6.82439">
        <ele>411.7848</ele>
        <time>2012-09-30T11:14:34Z</time>
      </trkpt>
      <trkpt lat="47.65421" lon="6.82451">
        <ele>412.0896</ele>
        <time>2012-09-30T11:14:37Z</time>
      </trkpt>
      <trkpt lat="47.65428" lon="6.82464">
        <ele>412.3944</ele>
        <time>2012-09-30T11:14:38Z</time>
      </trkpt>
      <trkpt lat="47.65435" lon="6.82478">
        <ele>412.3944</ele>
        <time>2012-09-30T11:14:41Z</time>
      </trkpt>
      <trkpt lat="47.6544" lon="6.82493">
        <ele>412.6992</ele>
        <time>2012-09-30T11:14:42Z</time>
      </trkpt>
      <trkpt lat="47.65445" lon="6.82508">
        <ele>413.004</ele>
        <time>2012-09-30T11:14:45Z</time>
      </trkpt>
      <trkpt lat="47.65449" lon="6.82523">
        <ele>413.3088</ele>
        <time>2012-09-30T11:14:46Z</time>
      </trkpt>
      <trkpt lat="47.65453" lon="6.82538">
        <ele>413.9184</ele>
        <time>2012-09-30T11:14:49Z</time>
      </trkpt>
      <trkpt lat="47.65457" lon="6.82553">
        <ele>414.2232</ele>
        <time>2012-09-30T11:14:50Z</time>
      </trkpt>
      <trkpt lat="47.65461" lon="6.82567">
        <ele>414.528</ele>
        <time>2012-09-30T11:14:53Z</time>
      </trkpt>
      <trkpt lat="47.65466" lon="6.82579">
        <ele>414.8328</ele>
        <time>2012-09-30T11:14:54Z</time>
      </trkpt>
      <trkpt lat="47.65471" lon="6.82591">
        <ele>415.1376</ele>
        <time>2012-09-30T11:14:57Z</time>
      </trkpt>
      <trkpt lat="47.65476" lon="6.82601">
        <ele>415.7472</ele>
        <time>2012-09-30T11:14:58Z</time>
      </trkpt>
      <trkpt lat="47.65483" lon="6.8261">
        <ele>416.052</ele>
        <time>2012-09-30T11:15:01Z</time>
      </trkpt>
      <trkpt lat="47.65489" lon="6.82617">
        <ele>416.3568</ele>
        <time>2012-09-30T11:15:02Z</time>
      </trkpt>
      <trkpt lat="47.65493" lon="6.82625">
        <ele>416.6616</ele>
        <time>2012-09-30T11:15:05Z</time>
      </trkpt>
      <trkpt lat="47.65496" lon="6.82634">
        <ele>416.6616</ele>
        <time>2012-09-30T11:15:06Z</time>
      </trkpt>
    </trkseg>
  </trk>
</gpx>